<?xml version="1.0"?>
<gpx xmlns="http://www.topografix.com/GPX/1/1" xmlns:xsi="http://www.w3.org/2001/XMLSchema-instance" xmlns:wptx1="http://www.garmin.com/xmlschemas/WaypointExtension/v1" xmlns:gpxtrx="http://www.garmin.com/xmlschemas/GpxExtensions/v3" xmlns:gpxtpx="http://www.garmin.com/xmlschemas/TrackPointExtension/v1" xmlns:gpxx="http://www.garmin.com/xmlschemas/GpxExtensions/v3" xmlns:trp="http://www.garmin.com/xmlschemas/TripExtensions/v1" xmlns:adv="http://www.garmin.com/xmlschemas/AdventuresExtensions/v1" xmlns:prs="http://www.garmin.com/xmlschemas/PressureExtension/v1" xmlns:tmd="http://www.garmin.com/xmlschemas/TripMetaDataExtensions/v1" xmlns:vptm="http://www.garmin.com/xmlschemas/ViaPointTransportationModeExtensions/v1" xmlns:ctx="http://www.garmin.com/xmlschemas/CreationTimeExtension/v1" xmlns:gpxacc="http://www.garmin.com/xmlschemas/AccelerationExtension/v1" xmlns:gpxpx="http://www.garmin.com/xmlschemas/PowerExtension/v1" xmlns:vidx1="http://www.garmin.com/xmlschemas/VideoExtension/v1" creator="Garmin Desktop App" version="1.1" xsi:schemaLocation="http://www.topografix.com/GPX/1/1 http://www.topografix.com/GPX/1/1/gpx.xsd http://www.garmin.com/xmlschemas/WaypointExtension/v1 http://www8.garmin.com/xmlschemas/WaypointExtensionv1.xsd http://www.garmin.com/xmlschemas/TrackPointExtension/v1 http://www.garmin.com/xmlschemas/TrackPointExtensionv1.xsd http://www.garmin.com/xmlschemas/GpxExtensions/v3 http://www8.garmin.com/xmlschemas/GpxExtensionsv3.xsd http://www.garmin.com/xmlschemas/ActivityExtension/v1 http://www8.garmin.com/xmlschemas/ActivityExtensionv1.xsd http://www.garmin.com/xmlschemas/AdventuresExtensions/v1 http://www8.garmin.com/xmlschemas/AdventuresExtensionv1.xsd http://www.garmin.com/xmlschemas/PressureExtension/v1 http://www.garmin.com/xmlschemas/PressureExtensionv1.xsd http://www.garmin.com/xmlschemas/TripExtensions/v1 http://www.garmin.com/xmlschemas/TripExtensionsv1.xsd http://www.garmin.com/xmlschemas/TripMetaDataExtensions/v1 http://www.garmin.com/xmlschemas/TripMetaDataExtensionsv1.xsd http://www.garmin.com/xmlschemas/ViaPointTransportationModeExtensions/v1 http://www.garmin.com/xmlschemas/ViaPointTransportationModeExtensionsv1.xsd http://www.garmin.com/xmlschemas/CreationTimeExtension/v1 http://www.garmin.com/xmlschemas/CreationTimeExtensionsv1.xsd http://www.garmin.com/xmlschemas/AccelerationExtension/v1 http://www.garmin.com/xmlschemas/AccelerationExtensionv1.xsd http://www.garmin.com/xmlschemas/PowerExtension/v1 http://www.garmin.com/xmlschemas/PowerExtensionv1.xsd http://www.garmin.com/xmlschemas/VideoExtension/v1 http://www.garmin.com/xmlschemas/VideoExtensionv1.xsd">
  <metadata>
    <link href="http://www.garmin.com">
      <text>Garmin International</text>
    </link>
    <time>2023-07-04T15:09:19Z</time>
    <bounds maxlat="38.926289984956384" maxlon="-0.09623003192246" minlat="38.782280003651977" minlon="-0.376639980822802"/>
  </metadata>
  <trk>
    <name>oliva safor y valles-Original</name>
    <extensions>
      <gpxx:TrackExtension>
        <gpxx:DisplayColor>Red</gpxx:DisplayColor>
      </gpxx:TrackExtension>
    </extensions>
    <trkseg>
      <trkpt lat="38.920660028234124" lon="-0.114009976387024">
        <ele>3.953125</ele>
        <time>2017-12-17T12:58:23Z</time>
      </trkpt>
      <trkpt lat="38.920509992167354" lon="-0.114230001345277">
        <ele>4.19140625</ele>
        <time>2017-12-17T13:00:23Z</time>
      </trkpt>
      <trkpt lat="38.920230036601424" lon="-0.114999962970614">
        <ele>4.73828125</ele>
        <time>2017-12-17T13:02:23Z</time>
      </trkpt>
      <trkpt lat="38.920230036601424" lon="-0.114999962970614">
        <ele>4.73828125</ele>
        <time>2017-12-17T13:04:23Z</time>
      </trkpt>
      <trkpt lat="38.920230036601424" lon="-0.11501002125442">
        <ele>4.71875</ele>
        <time>2017-12-17T13:06:23Z</time>
      </trkpt>
      <trkpt lat="38.920240011066198" lon="-0.11501002125442">
        <ele>4.69140625</ele>
        <time>2017-12-17T13:08:23Z</time>
      </trkpt>
      <trkpt lat="38.920249985530972" lon="-0.11501002125442">
        <ele>4.66015625</ele>
        <time>2017-12-17T13:10:23Z</time>
      </trkpt>
      <trkpt lat="38.920249985530972" lon="-0.115019995719194">
        <ele>4.63671875</ele>
        <time>2017-12-17T13:12:23Z</time>
      </trkpt>
      <trkpt lat="38.920259959995747" lon="-0.115019995719194">
        <ele>4.6015625</ele>
        <time>2017-12-17T13:14:23Z</time>
      </trkpt>
      <trkpt lat="38.920259959995747" lon="-0.115029970183969">
        <ele>4.57421875</ele>
        <time>2017-12-17T13:16:23Z</time>
      </trkpt>
      <trkpt lat="38.920270018279552" lon="-0.115029970183969">
        <ele>4.53125</ele>
        <time>2017-12-17T13:18:23Z</time>
      </trkpt>
      <trkpt lat="38.920270018279552" lon="-0.115040028467774">
        <ele>4.5</ele>
        <time>2017-12-17T13:20:23Z</time>
      </trkpt>
      <trkpt lat="38.920340007171035" lon="-0.115050002932549">
        <ele>4.07421875</ele>
        <time>2017-12-17T13:22:23Z</time>
      </trkpt>
      <trkpt lat="38.920379988849163" lon="-0.115070035681129">
        <ele>3.9609375</ele>
        <time>2017-12-17T13:24:23Z</time>
      </trkpt>
      <trkpt lat="38.920419970527291" lon="-0.115110017359257">
        <ele>3.9609375</ele>
        <time>2017-12-17T13:26:23Z</time>
      </trkpt>
      <trkpt lat="38.920449977740645" lon="-0.115140024572611">
        <ele>3.80078125</ele>
        <time>2017-12-17T13:28:23Z</time>
      </trkpt>
      <trkpt lat="38.920670002698898" lon="-0.115359965711832">
        <ele>3.9609375</ele>
        <time>2017-12-17T13:30:23Z</time>
      </trkpt>
      <trkpt lat="38.920779973268509" lon="-0.115519976243377">
        <ele>3.9609375</ele>
        <time>2017-12-17T13:32:23Z</time>
      </trkpt>
      <trkpt lat="38.920860020443797" lon="-0.115630030632019">
        <ele>3.9609375</ele>
        <time>2017-12-17T13:34:23Z</time>
      </trkpt>
      <trkpt lat="38.921030005440116" lon="-0.11584997177124">
        <ele>3.82421875</ele>
        <time>2017-12-17T13:36:23Z</time>
      </trkpt>
      <trkpt lat="38.921139976009727" lon="-0.116000007838011">
        <ele>3.25</ele>
        <time>2017-12-17T13:38:23Z</time>
      </trkpt>
      <trkpt lat="38.921229997649789" lon="-0.116130011156201">
        <ele>3.95703125</ele>
        <time>2017-12-17T13:40:23Z</time>
      </trkpt>
      <trkpt lat="38.921309961006045" lon="-0.116260014474392">
        <ele>3.9609375</ele>
        <time>2017-12-17T13:42:23Z</time>
      </trkpt>
      <trkpt lat="38.92146997153759" lon="-0.116590010002255">
        <ele>4.25</ele>
        <time>2017-12-17T13:44:23Z</time>
      </trkpt>
      <trkpt lat="38.921550018712878" lon="-0.116780027747154">
        <ele>4.61328125</ele>
        <time>2017-12-17T13:46:23Z</time>
      </trkpt>
      <trkpt lat="38.921590000391006" lon="-0.116850016638637">
        <ele>4.7109375</ele>
        <time>2017-12-17T13:48:23Z</time>
      </trkpt>
      <trkpt lat="38.921829974278808" lon="-0.117389978840947">
        <ele>4.48046875</ele>
        <time>2017-12-17T13:50:23Z</time>
      </trkpt>
      <trkpt lat="38.921880014240742" lon="-0.117549989372492">
        <ele>4.18359375</ele>
        <time>2017-12-17T13:52:23Z</time>
      </trkpt>
      <trkpt lat="38.921880014240742" lon="-0.117549989372492">
        <ele>4.18359375</ele>
        <time>2017-12-17T13:54:23Z</time>
      </trkpt>
      <trkpt lat="38.922180002555251" lon="-0.118149966001511">
        <ele>3.734375</ele>
        <time>2017-12-17T13:56:23Z</time>
      </trkpt>
      <trkpt lat="38.92250002361834" lon="-0.118680037558079">
        <ele>4.99609375</ele>
        <time>2017-12-17T13:58:23Z</time>
      </trkpt>
      <trkpt lat="38.923000004142523" lon="-0.119440024718642">
        <ele>6.30859375</ele>
        <time>2017-12-17T14:00:23Z</time>
      </trkpt>
      <trkpt lat="38.923039985820651" lon="-0.11950003914535">
        <ele>6.3515625</ele>
        <time>2017-12-17T14:02:23Z</time>
      </trkpt>
      <trkpt lat="38.923069993034005" lon="-0.119549995288253">
        <ele>6.58203125</ele>
        <time>2017-12-17T14:04:23Z</time>
      </trkpt>
      <trkpt lat="38.923469977453351" lon="-0.12020998634398">
        <ele>7.01171875</ele>
        <time>2017-12-17T14:06:23Z</time>
      </trkpt>
      <trkpt lat="38.923940034583211" lon="-0.120950024574995">
        <ele>6.2890625</ele>
        <time>2017-12-17T14:08:23Z</time>
      </trkpt>
      <trkpt lat="38.924080012366176" lon="-0.121150016784668">
        <ele>6.203125</ele>
        <time>2017-12-17T14:10:23Z</time>
      </trkpt>
      <trkpt lat="38.924349993467331" lon="-0.121529968455434">
        <ele>6.09765625</ele>
        <time>2017-12-17T14:12:23Z</time>
      </trkpt>
      <trkpt lat="38.924349993467331" lon="-0.121529968455434">
        <ele>6.09765625</ele>
        <time>2017-12-17T14:14:23Z</time>
      </trkpt>
      <trkpt lat="38.924380000680685" lon="-0.12154002673924">
        <ele>6.09765625</ele>
        <time>2017-12-17T14:16:23Z</time>
      </trkpt>
      <trkpt lat="38.924400033429265" lon="-0.12154002673924">
        <ele>6.09765625</ele>
        <time>2017-12-17T14:18:23Z</time>
      </trkpt>
      <trkpt lat="38.924419982358813" lon="-0.12154002673924">
        <ele>6.09765625</ele>
        <time>2017-12-17T14:20:23Z</time>
      </trkpt>
      <trkpt lat="38.924440015107393" lon="-0.121550001204014">
        <ele>6.09765625</ele>
        <time>2017-12-17T14:22:23Z</time>
      </trkpt>
      <trkpt lat="38.924459964036942" lon="-0.121559975668788">
        <ele>6.09765625</ele>
        <time>2017-12-17T14:24:23Z</time>
      </trkpt>
      <trkpt lat="38.924479996785522" lon="-0.121570033952594">
        <ele>6.09765625</ele>
        <time>2017-12-17T14:26:23Z</time>
      </trkpt>
      <trkpt lat="38.924500029534101" lon="-0.121589982882142">
        <ele>6.09765625</ele>
        <time>2017-12-17T14:28:23Z</time>
      </trkpt>
      <trkpt lat="38.92451997846365" lon="-0.121600041165948">
        <ele>6.09765625</ele>
        <time>2017-12-17T14:30:23Z</time>
      </trkpt>
      <trkpt lat="38.92454001121223" lon="-0.121640022844076">
        <ele>6.15234375</ele>
        <time>2017-12-17T14:32:23Z</time>
      </trkpt>
      <trkpt lat="38.924559960141778" lon="-0.121659971773624">
        <ele>6.26953125</ele>
        <time>2017-12-17T14:34:23Z</time>
      </trkpt>
      <trkpt lat="38.924570018425584" lon="-0.121680004522204">
        <ele>6.3828125</ele>
        <time>2017-12-17T14:36:23Z</time>
      </trkpt>
      <trkpt lat="38.924579992890358" lon="-0.121710011735559">
        <ele>6.578125</ele>
        <time>2017-12-17T14:38:23Z</time>
      </trkpt>
      <trkpt lat="38.924579992890358" lon="-0.121729960665107">
        <ele>6.671875</ele>
        <time>2017-12-17T14:40:23Z</time>
      </trkpt>
      <trkpt lat="38.924589967355132" lon="-0.121759967878461">
        <ele>6.84765625</ele>
        <time>2017-12-17T14:42:23Z</time>
      </trkpt>
      <trkpt lat="38.924589967355132" lon="-0.121789975091815">
        <ele>6.93359375</ele>
        <time>2017-12-17T14:44:23Z</time>
      </trkpt>
      <trkpt lat="38.924600025638938" lon="-0.121819982305169">
        <ele>6.98046875</ele>
        <time>2017-12-17T14:46:23Z</time>
      </trkpt>
      <trkpt lat="38.924600025638938" lon="-0.121849989518523">
        <ele>7</ele>
        <time>2017-12-17T14:48:23Z</time>
      </trkpt>
      <trkpt lat="38.924589967355132" lon="-0.121870022267103">
        <ele>7.01171875</ele>
        <time>2017-12-17T14:50:23Z</time>
      </trkpt>
      <trkpt lat="38.924589967355132" lon="-0.121900029480457">
        <ele>7.01171875</ele>
        <time>2017-12-17T14:52:23Z</time>
      </trkpt>
      <trkpt lat="38.924579992890358" lon="-0.121930036693811">
        <ele>7.01171875</ele>
        <time>2017-12-17T14:54:23Z</time>
      </trkpt>
      <trkpt lat="38.926020003855228" lon="-0.124119976535439">
        <ele>6.625</ele>
        <time>2017-12-17T14:56:23Z</time>
      </trkpt>
      <trkpt lat="38.926020003855228" lon="-0.124119976535439">
        <ele>6.625</ele>
        <time>2017-12-17T14:58:23Z</time>
      </trkpt>
      <trkpt lat="38.926029978320003" lon="-0.124119976535439">
        <ele>6.56640625</ele>
        <time>2017-12-17T15:00:23Z</time>
      </trkpt>
      <trkpt lat="38.926050011068583" lon="-0.124119976535439">
        <ele>6.45703125</ele>
        <time>2017-12-17T15:02:23Z</time>
      </trkpt>
      <trkpt lat="38.926059985533357" lon="-0.124110002070665">
        <ele>6.3828125</ele>
        <time>2017-12-17T15:04:23Z</time>
      </trkpt>
      <trkpt lat="38.926080018281937" lon="-0.124110002070665">
        <ele>6.26171875</ele>
        <time>2017-12-17T15:06:23Z</time>
      </trkpt>
      <trkpt lat="38.926099967211485" lon="-0.124110002070665">
        <ele>6.16015625</ele>
        <time>2017-12-17T15:08:23Z</time>
      </trkpt>
      <trkpt lat="38.926119999960065" lon="-0.124119976535439">
        <ele>6.19140625</ele>
        <time>2017-12-17T15:10:23Z</time>
      </trkpt>
      <trkpt lat="38.926140032708645" lon="-0.124119976535439">
        <ele>6.19140625</ele>
        <time>2017-12-17T15:12:23Z</time>
      </trkpt>
      <trkpt lat="38.926159981638193" lon="-0.124130034819245">
        <ele>6.2265625</ele>
        <time>2017-12-17T15:14:23Z</time>
      </trkpt>
      <trkpt lat="38.926180014386773" lon="-0.124140009284019">
        <ele>6.2578125</ele>
        <time>2017-12-17T15:16:23Z</time>
      </trkpt>
      <trkpt lat="38.926199963316321" lon="-0.124149983748794">
        <ele>6.29296875</ele>
        <time>2017-12-17T15:18:23Z</time>
      </trkpt>
      <trkpt lat="38.926210021600127" lon="-0.124170016497374">
        <ele>6.359375</ele>
        <time>2017-12-17T15:20:23Z</time>
      </trkpt>
      <trkpt lat="38.926229970529675" lon="-0.124189965426922">
        <ele>6.4453125</ele>
        <time>2017-12-17T15:22:23Z</time>
      </trkpt>
      <trkpt lat="38.926240028813481" lon="-0.124200023710728">
        <ele>6.51171875</ele>
        <time>2017-12-17T15:24:23Z</time>
      </trkpt>
      <trkpt lat="38.926250003278255" lon="-0.124219972640276">
        <ele>6.640625</ele>
        <time>2017-12-17T15:26:23Z</time>
      </trkpt>
      <trkpt lat="38.92625997774303" lon="-0.124240005388856">
        <ele>6.7734375</ele>
        <time>2017-12-17T15:28:23Z</time>
      </trkpt>
      <trkpt lat="38.926270036026835" lon="-0.12427001260221">
        <ele>6.97265625</ele>
        <time>2017-12-17T15:30:23Z</time>
      </trkpt>
      <trkpt lat="38.92628001049161" lon="-0.124289961531758">
        <ele>7.01171875</ele>
        <time>2017-12-17T15:32:23Z</time>
      </trkpt>
      <trkpt lat="38.92628001049161" lon="-0.124309994280338">
        <ele>7.01171875</ele>
        <time>2017-12-17T15:34:23Z</time>
      </trkpt>
      <trkpt lat="38.926289984956384" lon="-0.124340001493692">
        <ele>6.99609375</ele>
        <time>2017-12-17T15:36:23Z</time>
      </trkpt>
      <trkpt lat="38.926289984956384" lon="-0.124360034242272">
        <ele>6.98828125</ele>
        <time>2017-12-17T15:38:23Z</time>
      </trkpt>
      <trkpt lat="38.926289984956384" lon="-0.124390041455626">
        <ele>6.98828125</ele>
        <time>2017-12-17T15:40:23Z</time>
      </trkpt>
      <trkpt lat="38.926289984956384" lon="-0.124409990385175">
        <ele>6.98828125</ele>
        <time>2017-12-17T15:42:23Z</time>
      </trkpt>
      <trkpt lat="38.926289984956384" lon="-0.124430023133755">
        <ele>6.98828125</ele>
        <time>2017-12-17T15:44:23Z</time>
      </trkpt>
      <trkpt lat="38.92628001049161" lon="-0.124449972063303">
        <ele>7.01171875</ele>
        <time>2017-12-17T15:46:23Z</time>
      </trkpt>
      <trkpt lat="38.92628001049161" lon="-0.124470004811883">
        <ele>7.01171875</ele>
        <time>2017-12-17T15:48:23Z</time>
      </trkpt>
      <trkpt lat="38.926270036026835" lon="-0.124479979276657">
        <ele>7.01171875</ele>
        <time>2017-12-17T15:50:23Z</time>
      </trkpt>
      <trkpt lat="38.926270036026835" lon="-0.124500012025237">
        <ele>7.01171875</ele>
        <time>2017-12-17T15:52:23Z</time>
      </trkpt>
      <trkpt lat="38.92625997774303" lon="-0.124519960954785">
        <ele>7.01171875</ele>
        <time>2017-12-17T15:54:23Z</time>
      </trkpt>
      <trkpt lat="38.926250003278255" lon="-0.124539993703365">
        <ele>7.01171875</ele>
        <time>2017-12-17T15:56:23Z</time>
      </trkpt>
      <trkpt lat="38.926240028813481" lon="-0.124560026451945">
        <ele>7.01171875</ele>
        <time>2017-12-17T15:58:23Z</time>
      </trkpt>
      <trkpt lat="38.926229970529675" lon="-0.124570000916719">
        <ele>7.01171875</ele>
        <time>2017-12-17T16:00:23Z</time>
      </trkpt>
      <trkpt lat="38.926210021600127" lon="-0.124590033665299">
        <ele>7.01171875</ele>
        <time>2017-12-17T16:02:23Z</time>
      </trkpt>
      <trkpt lat="38.926199963316321" lon="-0.124609982594848">
        <ele>7.01171875</ele>
        <time>2017-12-17T16:04:23Z</time>
      </trkpt>
      <trkpt lat="38.926180014386773" lon="-0.124620040878654">
        <ele>7.01953125</ele>
        <time>2017-12-17T16:06:23Z</time>
      </trkpt>
      <trkpt lat="38.926159981638193" lon="-0.124630015343428">
        <ele>7.02734375</ele>
        <time>2017-12-17T16:08:23Z</time>
      </trkpt>
      <trkpt lat="38.926140032708645" lon="-0.124639989808202">
        <ele>7.0234375</ele>
        <time>2017-12-17T16:10:23Z</time>
      </trkpt>
      <trkpt lat="38.926119999960065" lon="-0.124649964272976">
        <ele>7.01171875</ele>
        <time>2017-12-17T16:12:23Z</time>
      </trkpt>
      <trkpt lat="38.926110025495291" lon="-0.124649964272976">
        <ele>7.01171875</ele>
        <time>2017-12-17T16:14:23Z</time>
      </trkpt>
      <trkpt lat="38.926089992746711" lon="-0.124649964272976">
        <ele>7.0625</ele>
        <time>2017-12-17T16:16:23Z</time>
      </trkpt>
      <trkpt lat="38.926069959998131" lon="-0.124649964272976">
        <ele>7.19140625</ele>
        <time>2017-12-17T16:18:23Z</time>
      </trkpt>
      <trkpt lat="38.926050011068583" lon="-0.124649964272976">
        <ele>7.32421875</ele>
        <time>2017-12-17T16:20:23Z</time>
      </trkpt>
      <trkpt lat="38.926029978320003" lon="-0.124639989808202">
        <ele>7.4765625</ele>
        <time>2017-12-17T16:22:23Z</time>
      </trkpt>
      <trkpt lat="38.926010029390454" lon="-0.124630015343428">
        <ele>7.640625</ele>
        <time>2017-12-17T16:24:23Z</time>
      </trkpt>
      <trkpt lat="38.925989996641874" lon="-0.124620040878654">
        <ele>7.77734375</ele>
        <time>2017-12-17T16:26:23Z</time>
      </trkpt>
      <trkpt lat="38.92595998942852" lon="-0.124630015343428">
        <ele>7.91796875</ele>
        <time>2017-12-17T16:28:23Z</time>
      </trkpt>
      <trkpt lat="38.925929982215166" lon="-0.124639989808202">
        <ele>8.1015625</ele>
        <time>2017-12-17T16:30:23Z</time>
      </trkpt>
      <trkpt lat="38.925899975001812" lon="-0.124639989808202">
        <ele>8.2109375</ele>
        <time>2017-12-17T16:32:23Z</time>
      </trkpt>
      <trkpt lat="38.925869967788458" lon="-0.124649964272976">
        <ele>8.25390625</ele>
        <time>2017-12-17T16:34:23Z</time>
      </trkpt>
      <trkpt lat="38.92582998611033" lon="-0.124669997021556">
        <ele>8.44921875</ele>
        <time>2017-12-17T16:36:23Z</time>
      </trkpt>
      <trkpt lat="38.925279965624213" lon="-0.125190010294318">
        <ele>9.14453125</ele>
        <time>2017-12-17T16:38:23Z</time>
      </trkpt>
      <trkpt lat="38.925019958987832" lon="-0.125450016930699">
        <ele>9.62109375</ele>
        <time>2017-12-17T16:40:23Z</time>
      </trkpt>
      <trkpt lat="38.924960028380156" lon="-0.12558002024889">
        <ele>9.6875</ele>
        <time>2017-12-17T16:42:23Z</time>
      </trkpt>
      <trkpt lat="38.924939995631576" lon="-0.125640034675598">
        <ele>9.30859375</ele>
        <time>2017-12-17T16:44:23Z</time>
      </trkpt>
      <trkpt lat="38.924800017848611" lon="-0.126040019094944">
        <ele>9.4375</ele>
        <time>2017-12-17T16:46:23Z</time>
      </trkpt>
      <trkpt lat="38.924749977886677" lon="-0.126130040735006">
        <ele>8.96875</ele>
        <time>2017-12-17T16:48:23Z</time>
      </trkpt>
      <trkpt lat="38.924749977886677" lon="-0.126130040735006">
        <ele>8.96875</ele>
        <time>2017-12-17T16:50:23Z</time>
      </trkpt>
      <trkpt lat="38.924760036170483" lon="-0.126149989664555">
        <ele>8.97265625</ele>
        <time>2017-12-17T16:52:23Z</time>
      </trkpt>
      <trkpt lat="38.924760036170483" lon="-0.126159964129329">
        <ele>8.95703125</ele>
        <time>2017-12-17T16:54:23Z</time>
      </trkpt>
      <trkpt lat="38.924760036170483" lon="-0.126179996877909">
        <ele>8.92578125</ele>
        <time>2017-12-17T16:56:23Z</time>
      </trkpt>
      <trkpt lat="38.924760036170483" lon="-0.126179996877909">
        <ele>8.92578125</ele>
        <time>2017-12-17T16:58:23Z</time>
      </trkpt>
      <trkpt lat="38.924760036170483" lon="-0.126210004091263">
        <ele>8.8828125</ele>
        <time>2017-12-17T17:00:23Z</time>
      </trkpt>
      <trkpt lat="38.924749977886677" lon="-0.126230036839843">
        <ele>8.80078125</ele>
        <time>2017-12-17T17:02:23Z</time>
      </trkpt>
      <trkpt lat="38.924740003421903" lon="-0.126259960234165">
        <ele>8.73828125</ele>
        <time>2017-12-17T17:04:23Z</time>
      </trkpt>
      <trkpt lat="38.924719970673323" lon="-0.126300025731325">
        <ele>8.60546875</ele>
        <time>2017-12-17T17:06:23Z</time>
      </trkpt>
      <trkpt lat="38.924679988995194" lon="-0.126330032944679">
        <ele>8.73046875</ele>
        <time>2017-12-17T17:08:23Z</time>
      </trkpt>
      <trkpt lat="38.92464998178184" lon="-0.126349981874228">
        <ele>8.90234375</ele>
        <time>2017-12-17T17:10:23Z</time>
      </trkpt>
      <trkpt lat="38.924619974568486" lon="-0.126370014622808">
        <ele>9.02734375</ele>
        <time>2017-12-17T17:12:23Z</time>
      </trkpt>
      <trkpt lat="38.924579992890358" lon="-0.126379989087582">
        <ele>9.09765625</ele>
        <time>2017-12-17T17:14:23Z</time>
      </trkpt>
      <trkpt lat="38.92451997846365" lon="-0.126389963552356">
        <ele>9.14453125</ele>
        <time>2017-12-17T17:16:23Z</time>
      </trkpt>
      <trkpt lat="38.924500029534101" lon="-0.126389963552356">
        <ele>9.14453125</ele>
        <time>2017-12-17T17:18:23Z</time>
      </trkpt>
      <trkpt lat="38.924410007894039" lon="-0.126360040158033">
        <ele>9.25390625</ele>
        <time>2017-12-17T17:20:23Z</time>
      </trkpt>
      <trkpt lat="38.924410007894039" lon="-0.126360040158033">
        <ele>9.25390625</ele>
        <time>2017-12-17T17:22:23Z</time>
      </trkpt>
      <trkpt lat="38.92408998683095" lon="-0.126470010727644">
        <ele>10.05859375</ele>
        <time>2017-12-17T17:24:23Z</time>
      </trkpt>
      <trkpt lat="38.923989990726113" lon="-0.12659003958106">
        <ele>10.53125</ele>
        <time>2017-12-17T17:26:23Z</time>
      </trkpt>
      <trkpt lat="38.923420021310449" lon="-0.127180041745305">
        <ele>11.13671875</ele>
        <time>2017-12-17T17:28:23Z</time>
      </trkpt>
      <trkpt lat="38.922709990292788" lon="-0.127899963408709">
        <ele>10.921875</ele>
        <time>2017-12-17T17:30:23Z</time>
      </trkpt>
      <trkpt lat="38.922310005873442" lon="-0.128410002216697">
        <ele>10.05859375</ele>
        <time>2017-12-17T17:32:23Z</time>
      </trkpt>
      <trkpt lat="38.921870039775968" lon="-0.12906001880765">
        <ele>11.18359375</ele>
        <time>2017-12-17T17:34:23Z</time>
      </trkpt>
      <trkpt lat="38.921520011499524" lon="-0.129769966006279">
        <ele>12.171875</ele>
        <time>2017-12-17T17:36:23Z</time>
      </trkpt>
      <trkpt lat="38.921229997649789" lon="-0.130489971488714">
        <ele>13.20703125</ele>
        <time>2017-12-17T17:38:23Z</time>
      </trkpt>
      <trkpt lat="38.920979965478182" lon="-0.131309973075986">
        <ele>15.8203125</ele>
        <time>2017-12-17T17:40:23Z</time>
      </trkpt>
      <trkpt lat="38.920739991590381" lon="-0.132189989089966">
        <ele>17.5859375</ele>
        <time>2017-12-17T17:42:23Z</time>
      </trkpt>
      <trkpt lat="38.920679977163672" lon="-0.132410014048219">
        <ele>17.84375</ele>
        <time>2017-12-17T17:44:23Z</time>
      </trkpt>
      <trkpt lat="38.920530024915934" lon="-0.133019965142012">
        <ele>19.28515625</ele>
        <time>2017-12-17T17:46:23Z</time>
      </trkpt>
      <trkpt lat="38.920489959418774" lon="-0.133369993418455">
        <ele>18.80859375</ele>
        <time>2017-12-17T17:48:23Z</time>
      </trkpt>
      <trkpt lat="38.920460036024451" lon="-0.133760003373027">
        <ele>18.8984375</ele>
        <time>2017-12-17T17:50:23Z</time>
      </trkpt>
      <trkpt lat="38.920470010489225" lon="-0.134189995005727">
        <ele>18.8984375</ele>
        <time>2017-12-17T17:52:23Z</time>
      </trkpt>
      <trkpt lat="38.920489959418774" lon="-0.13451999053359">
        <ele>19.84765625</ele>
        <time>2017-12-17T17:54:23Z</time>
      </trkpt>
      <trkpt lat="38.920560032129288" lon="-0.134979989379644">
        <ele>20.1015625</ele>
        <time>2017-12-17T17:56:23Z</time>
      </trkpt>
      <trkpt lat="38.920639995485544" lon="-0.135430013760924">
        <ele>22.09765625</ele>
        <time>2017-12-17T17:58:23Z</time>
      </trkpt>
      <trkpt lat="38.920679977163672" lon="-0.136029990389943">
        <ele>22.72265625</ele>
        <time>2017-12-17T18:00:23Z</time>
      </trkpt>
      <trkpt lat="38.920679977163672" lon="-0.136229982599616">
        <ele>23.078125</ele>
        <time>2017-12-17T18:02:23Z</time>
      </trkpt>
      <trkpt lat="38.920670002698898" lon="-0.136359985917807">
        <ele>23.2578125</ele>
        <time>2017-12-17T18:04:23Z</time>
      </trkpt>
      <trkpt lat="38.920619962736964" lon="-0.136529970914125">
        <ele>23.703125</ele>
        <time>2017-12-17T18:06:23Z</time>
      </trkpt>
      <trkpt lat="38.920530024915934" lon="-0.136829959228635">
        <ele>25.2578125</ele>
        <time>2017-12-17T18:08:23Z</time>
      </trkpt>
      <trkpt lat="38.920440003275871" lon="-0.137040009722114">
        <ele>28.60546875</ele>
        <time>2017-12-17T18:10:23Z</time>
      </trkpt>
      <trkpt lat="38.920400021597743" lon="-0.13714000582695">
        <ele>29.52734375</ele>
        <time>2017-12-17T18:12:23Z</time>
      </trkpt>
      <trkpt lat="38.920360039919615" lon="-0.137270009145141">
        <ele>29.79296875</ele>
        <time>2017-12-17T18:14:23Z</time>
      </trkpt>
      <trkpt lat="38.920249985530972" lon="-0.13754996471107">
        <ele>25.16796875</ele>
        <time>2017-12-17T18:16:23Z</time>
      </trkpt>
      <trkpt lat="38.920210003852844" lon="-0.137669993564487">
        <ele>25.2578125</ele>
        <time>2017-12-17T18:18:23Z</time>
      </trkpt>
      <trkpt lat="38.920130040496588" lon="-0.137909967452288">
        <ele>25.48828125</ele>
        <time>2017-12-17T18:20:23Z</time>
      </trkpt>
      <trkpt lat="38.920089974999428" lon="-0.138109959661961">
        <ele>26.41796875</ele>
        <time>2017-12-17T18:22:23Z</time>
      </trkpt>
      <trkpt lat="38.92007002606988" lon="-0.138320010155439">
        <ele>27.26171875</ele>
        <time>2017-12-17T18:24:23Z</time>
      </trkpt>
      <trkpt lat="38.92007002606988" lon="-0.138399973511696">
        <ele>27.5</ele>
        <time>2017-12-17T18:26:23Z</time>
      </trkpt>
      <trkpt lat="38.920080000534654" lon="-0.138550009578466">
        <ele>27.54296875</ele>
        <time>2017-12-17T18:28:23Z</time>
      </trkpt>
      <trkpt lat="38.920100033283234" lon="-0.138800041750073">
        <ele>28.3984375</ele>
        <time>2017-12-17T18:30:23Z</time>
      </trkpt>
      <trkpt lat="38.920170022174716" lon="-0.139260040596128">
        <ele>26.8828125</ele>
        <time>2017-12-17T18:32:23Z</time>
      </trkpt>
      <trkpt lat="38.920249985530972" lon="-0.139800002798438">
        <ele>27.34375</ele>
        <time>2017-12-17T18:34:23Z</time>
      </trkpt>
      <trkpt lat="38.920340007171035" lon="-0.140160005539656">
        <ele>26.05078125</ele>
        <time>2017-12-17T18:36:23Z</time>
      </trkpt>
      <trkpt lat="38.920470010489225" lon="-0.140480026602745">
        <ele>24.87109375</ele>
        <time>2017-12-17T18:38:23Z</time>
      </trkpt>
      <trkpt lat="38.920820038765669" lon="-0.141270020976663">
        <ele>23.7734375</ele>
        <time>2017-12-17T18:40:23Z</time>
      </trkpt>
      <trkpt lat="38.92106001265347" lon="-0.142039982602">
        <ele>25.0859375</ele>
        <time>2017-12-17T18:42:23Z</time>
      </trkpt>
      <trkpt lat="38.921290012076497" lon="-0.142740039154887">
        <ele>24.05859375</ele>
        <time>2017-12-17T18:44:23Z</time>
      </trkpt>
      <trkpt lat="38.921320019289851" lon="-0.14291999861598">
        <ele>23.32421875</ele>
        <time>2017-12-17T18:46:23Z</time>
      </trkpt>
      <trkpt lat="38.921320019289851" lon="-0.142980013042688">
        <ele>23.28125</ele>
        <time>2017-12-17T18:48:23Z</time>
      </trkpt>
      <trkpt lat="38.921320019289851" lon="-0.143059976398945">
        <ele>23.80859375</ele>
        <time>2017-12-17T18:50:23Z</time>
      </trkpt>
      <trkpt lat="38.921320019289851" lon="-0.143129965290427">
        <ele>24.12890625</ele>
        <time>2017-12-17T18:52:23Z</time>
      </trkpt>
      <trkpt lat="38.921299986541271" lon="-0.14321998693049">
        <ele>24.24609375</ele>
        <time>2017-12-17T18:54:23Z</time>
      </trkpt>
      <trkpt lat="38.921260004863143" lon="-0.143389971926808">
        <ele>23.91796875</ele>
        <time>2017-12-17T18:56:23Z</time>
      </trkpt>
      <trkpt lat="38.921250030398369" lon="-0.143440011888742">
        <ele>23.7890625</ele>
        <time>2017-12-17T18:58:23Z</time>
      </trkpt>
      <trkpt lat="38.921239972114563" lon="-0.143500026315451">
        <ele>24.25390625</ele>
        <time>2017-12-17T19:00:23Z</time>
      </trkpt>
      <trkpt lat="38.921239972114563" lon="-0.143540007993579">
        <ele>24.50390625</ele>
        <time>2017-12-17T19:02:23Z</time>
      </trkpt>
      <trkpt lat="38.921250030398369" lon="-0.143589964136481">
        <ele>24.7421875</ele>
        <time>2017-12-17T19:04:23Z</time>
      </trkpt>
      <trkpt lat="38.921269979327917" lon="-0.14364997856319">
        <ele>25.06640625</ele>
        <time>2017-12-17T19:06:23Z</time>
      </trkpt>
      <trkpt lat="38.921290012076497" lon="-0.143689960241318">
        <ele>25.296875</ele>
        <time>2017-12-17T19:08:23Z</time>
      </trkpt>
      <trkpt lat="38.921309961006045" lon="-0.143730025738478">
        <ele>25.59375</ele>
        <time>2017-12-17T19:10:23Z</time>
      </trkpt>
      <trkpt lat="38.921339968219399" lon="-0.143809989094734">
        <ele>26.2109375</ele>
        <time>2017-12-17T19:12:23Z</time>
      </trkpt>
      <trkpt lat="38.921439964324236" lon="-0.144039988517761">
        <ele>26.4375</ele>
        <time>2017-12-17T19:14:23Z</time>
      </trkpt>
      <trkpt lat="38.92151003703475" lon="-0.14425003901124">
        <ele>26.28125</ele>
        <time>2017-12-17T19:16:23Z</time>
      </trkpt>
      <trkpt lat="38.92151003703475" lon="-0.14425003901124">
        <ele>26.28125</ele>
        <time>2017-12-17T19:18:23Z</time>
      </trkpt>
      <trkpt lat="38.921539960429072" lon="-0.144239980727434">
        <ele>25.38671875</ele>
        <time>2017-12-17T19:20:23Z</time>
      </trkpt>
      <trkpt lat="38.921580025926232" lon="-0.144220031797886">
        <ele>24.14453125</ele>
        <time>2017-12-17T19:22:23Z</time>
      </trkpt>
      <trkpt lat="38.921610033139586" lon="-0.144220031797886">
        <ele>23.40625</ele>
        <time>2017-12-17T19:24:23Z</time>
      </trkpt>
      <trkpt lat="38.921629982069135" lon="-0.14420997351408">
        <ele>22.7890625</ele>
        <time>2017-12-17T19:26:23Z</time>
      </trkpt>
      <trkpt lat="38.921659989282489" lon="-0.14420997351408">
        <ele>22.09375</ele>
        <time>2017-12-17T19:28:23Z</time>
      </trkpt>
      <trkpt lat="38.921680022031069" lon="-0.14420997351408">
        <ele>21.83984375</ele>
        <time>2017-12-17T19:30:23Z</time>
      </trkpt>
      <trkpt lat="38.921710029244423" lon="-0.14420997351408">
        <ele>21.4609375</ele>
        <time>2017-12-17T19:32:23Z</time>
      </trkpt>
      <trkpt lat="38.921729978173971" lon="-0.14420997351408">
        <ele>21.2109375</ele>
        <time>2017-12-17T19:34:23Z</time>
      </trkpt>
      <trkpt lat="38.921750010922551" lon="-0.14420997351408">
        <ele>20.953125</ele>
        <time>2017-12-17T19:36:23Z</time>
      </trkpt>
      <trkpt lat="38.921780018135905" lon="-0.144220031797886">
        <ele>20.57421875</ele>
        <time>2017-12-17T19:38:23Z</time>
      </trkpt>
      <trkpt lat="38.921799967065454" lon="-0.14423000626266">
        <ele>20.32421875</ele>
        <time>2017-12-17T19:40:23Z</time>
      </trkpt>
      <trkpt lat="38.921840032562613" lon="-0.144260013476014">
        <ele>19.8125</ele>
        <time>2017-12-17T19:42:23Z</time>
      </trkpt>
      <trkpt lat="38.921850007027388" lon="-0.144260013476014">
        <ele>19.6796875</ele>
        <time>2017-12-17T19:44:23Z</time>
      </trkpt>
      <trkpt lat="38.921859981492162" lon="-0.144260013476014">
        <ele>19.55078125</ele>
        <time>2017-12-17T19:46:23Z</time>
      </trkpt>
      <trkpt lat="38.921870039775968" lon="-0.144260013476014">
        <ele>19.41796875</ele>
        <time>2017-12-17T19:48:23Z</time>
      </trkpt>
      <trkpt lat="38.921889988705516" lon="-0.144260013476014">
        <ele>19.16015625</ele>
        <time>2017-12-17T19:50:23Z</time>
      </trkpt>
      <trkpt lat="38.92189996317029" lon="-0.144260013476014">
        <ele>19.02734375</ele>
        <time>2017-12-17T19:52:23Z</time>
      </trkpt>
      <trkpt lat="38.921910021454096" lon="-0.144260013476014">
        <ele>18.8984375</ele>
        <time>2017-12-17T19:54:23Z</time>
      </trkpt>
      <trkpt lat="38.92191999591887" lon="-0.144260013476014">
        <ele>18.765625</ele>
        <time>2017-12-17T19:56:23Z</time>
      </trkpt>
      <trkpt lat="38.921929970383644" lon="-0.14425003901124">
        <ele>18.63671875</ele>
        <time>2017-12-17T19:58:23Z</time>
      </trkpt>
      <trkpt lat="38.92194002866745" lon="-0.144239980727434">
        <ele>18.55078125</ele>
        <time>2017-12-17T20:00:23Z</time>
      </trkpt>
      <trkpt lat="38.921950003132224" lon="-0.144239980727434">
        <ele>18.484375</ele>
        <time>2017-12-17T20:02:23Z</time>
      </trkpt>
      <trkpt lat="38.922110013663769" lon="-0.144160017371178">
        <ele>17.9921875</ele>
        <time>2017-12-17T20:04:23Z</time>
      </trkpt>
      <trkpt lat="38.922149995341897" lon="-0.144139984622598">
        <ele>17.984375</ele>
        <time>2017-12-17T20:06:23Z</time>
      </trkpt>
      <trkpt lat="38.922180002555251" lon="-0.144139984622598">
        <ele>17.984375</ele>
        <time>2017-12-17T20:08:23Z</time>
      </trkpt>
      <trkpt lat="38.922200035303831" lon="-0.144149959087372">
        <ele>17.984375</ele>
        <time>2017-12-17T20:10:23Z</time>
      </trkpt>
      <trkpt lat="38.922210009768605" lon="-0.144149959087372">
        <ele>17.984375</ele>
        <time>2017-12-17T20:12:23Z</time>
      </trkpt>
      <trkpt lat="38.922240016981959" lon="-0.144179966300726">
        <ele>17.8515625</ele>
        <time>2017-12-17T20:14:23Z</time>
      </trkpt>
      <trkpt lat="38.922249991446733" lon="-0.144199999049306">
        <ele>17.72265625</ele>
        <time>2017-12-17T20:16:23Z</time>
      </trkpt>
      <trkpt lat="38.922259965911508" lon="-0.144220031797886">
        <ele>17.578125</ele>
        <time>2017-12-17T20:18:23Z</time>
      </trkpt>
      <trkpt lat="38.922249991446733" lon="-0.14425003901124">
        <ele>17.48828125</ele>
        <time>2017-12-17T20:20:23Z</time>
      </trkpt>
      <trkpt lat="38.922249991446733" lon="-0.144290020689368">
        <ele>17.421875</ele>
        <time>2017-12-17T20:22:23Z</time>
      </trkpt>
      <trkpt lat="38.922149995341897" lon="-0.144829982891679">
        <ele>17.87890625</ele>
        <time>2017-12-17T20:24:23Z</time>
      </trkpt>
      <trkpt lat="38.922129962593317" lon="-0.144899971783161">
        <ele>17.9453125</ele>
        <time>2017-12-17T20:26:23Z</time>
      </trkpt>
      <trkpt lat="38.922129962593317" lon="-0.144929978996515">
        <ele>17.9375</ele>
        <time>2017-12-17T20:28:23Z</time>
      </trkpt>
      <trkpt lat="38.922140020877123" lon="-0.144980018958449">
        <ele>17.859375</ele>
        <time>2017-12-17T20:30:23Z</time>
      </trkpt>
      <trkpt lat="38.922149995341897" lon="-0.145010026171803">
        <ele>17.7578125</ele>
        <time>2017-12-17T20:32:23Z</time>
      </trkpt>
      <trkpt lat="38.922159969806671" lon="-0.145050007849932">
        <ele>17.55859375</ele>
        <time>2017-12-17T20:34:23Z</time>
      </trkpt>
      <trkpt lat="38.922470016404986" lon="-0.145770013332367">
        <ele>17.10546875</ele>
        <time>2017-12-17T20:36:23Z</time>
      </trkpt>
      <trkpt lat="38.922679983079433" lon="-0.146300001069903">
        <ele>17.984375</ele>
        <time>2017-12-17T20:38:23Z</time>
      </trkpt>
      <trkpt lat="38.922790037468076" lon="-0.146569982171059">
        <ele>18.7890625</ele>
        <time>2017-12-17T20:40:23Z</time>
      </trkpt>
      <trkpt lat="38.922870000824332" lon="-0.146709959954023">
        <ele>18.66796875</ele>
        <time>2017-12-17T20:42:23Z</time>
      </trkpt>
      <trkpt lat="38.922879975289106" lon="-0.146739967167377">
        <ele>18.73828125</ele>
        <time>2017-12-17T20:44:23Z</time>
      </trkpt>
      <trkpt lat="38.922879975289106" lon="-0.146759999915957">
        <ele>18.8203125</ele>
        <time>2017-12-17T20:46:23Z</time>
      </trkpt>
      <trkpt lat="38.922879975289106" lon="-0.146769974380732">
        <ele>18.8359375</ele>
        <time>2017-12-17T20:48:23Z</time>
      </trkpt>
      <trkpt lat="38.922879975289106" lon="-0.146790007129312">
        <ele>18.84765625</ele>
        <time>2017-12-17T20:50:23Z</time>
      </trkpt>
      <trkpt lat="38.922879975289106" lon="-0.146799981594086">
        <ele>18.85546875</ele>
        <time>2017-12-17T20:52:23Z</time>
      </trkpt>
      <trkpt lat="38.922870000824332" lon="-0.14698002487421">
        <ele>19.51171875</ele>
        <time>2017-12-17T20:54:23Z</time>
      </trkpt>
      <trkpt lat="38.922870000824332" lon="-0.147050013765693">
        <ele>20.08203125</ele>
        <time>2017-12-17T20:56:23Z</time>
      </trkpt>
      <trkpt lat="38.922879975289106" lon="-0.147080020979047">
        <ele>20.078125</ele>
        <time>2017-12-17T20:58:23Z</time>
      </trkpt>
      <trkpt lat="38.922879975289106" lon="-0.147110028192401">
        <ele>20.1015625</ele>
        <time>2017-12-17T21:00:23Z</time>
      </trkpt>
      <trkpt lat="38.92290998250246" lon="-0.147150009870529">
        <ele>20.2578125</ele>
        <time>2017-12-17T21:02:23Z</time>
      </trkpt>
      <trkpt lat="38.92293001525104" lon="-0.147199966013432">
        <ele>20.61328125</ele>
        <time>2017-12-17T21:04:23Z</time>
      </trkpt>
      <trkpt lat="38.92293001525104" lon="-0.147229973226786">
        <ele>20.80859375</ele>
        <time>2017-12-17T21:06:23Z</time>
      </trkpt>
      <trkpt lat="38.92293001525104" lon="-0.147270038723946">
        <ele>20.91015625</ele>
        <time>2017-12-17T21:08:23Z</time>
      </trkpt>
      <trkpt lat="38.92293001525104" lon="-0.147289987653494">
        <ele>20.9609375</ele>
        <time>2017-12-17T21:10:23Z</time>
      </trkpt>
      <trkpt lat="38.92293001525104" lon="-0.147350002080202">
        <ele>21.03125</ele>
        <time>2017-12-17T21:12:23Z</time>
      </trkpt>
      <trkpt lat="38.922890033572912" lon="-0.147849982604384">
        <ele>20.51953125</ele>
        <time>2017-12-17T21:14:23Z</time>
      </trkpt>
      <trkpt lat="38.922839993610978" lon="-0.148490024730563">
        <ele>20.2421875</ele>
        <time>2017-12-17T21:16:23Z</time>
      </trkpt>
      <trkpt lat="38.922839993610978" lon="-0.14856998808682">
        <ele>20.2421875</ele>
        <time>2017-12-17T21:18:23Z</time>
      </trkpt>
      <trkpt lat="38.922839993610978" lon="-0.1485900208354">
        <ele>20.2421875</ele>
        <time>2017-12-17T21:20:23Z</time>
      </trkpt>
      <trkpt lat="38.922849968075752" lon="-0.148620028048754">
        <ele>20.15234375</ele>
        <time>2017-12-17T21:22:23Z</time>
      </trkpt>
      <trkpt lat="38.922860026359558" lon="-0.148650035262108">
        <ele>19.98828125</ele>
        <time>2017-12-17T21:24:23Z</time>
      </trkpt>
      <trkpt lat="38.922870000824332" lon="-0.148660009726882">
        <ele>19.90625</ele>
        <time>2017-12-17T21:26:23Z</time>
      </trkpt>
      <trkpt lat="38.922890033572912" lon="-0.148669984191656">
        <ele>19.78515625</ele>
        <time>2017-12-17T21:28:23Z</time>
      </trkpt>
      <trkpt lat="38.92290998250246" lon="-0.14867995865643">
        <ele>19.6796875</ele>
        <time>2017-12-17T21:30:23Z</time>
      </trkpt>
      <trkpt lat="38.923100000247359" lon="-0.14872002415359">
        <ele>18.8984375</ele>
        <time>2017-12-17T21:32:23Z</time>
      </trkpt>
      <trkpt lat="38.923120032995939" lon="-0.148739973083138">
        <ele>18.8984375</ele>
        <time>2017-12-17T21:34:23Z</time>
      </trkpt>
      <trkpt lat="38.923139981925488" lon="-0.148760005831718">
        <ele>18.8984375</ele>
        <time>2017-12-17T21:36:23Z</time>
      </trkpt>
      <trkpt lat="38.923150040209293" lon="-0.148780038580298">
        <ele>18.8984375</ele>
        <time>2017-12-17T21:38:23Z</time>
      </trkpt>
      <trkpt lat="38.923160014674067" lon="-0.148799987509847">
        <ele>18.8984375</ele>
        <time>2017-12-17T21:40:23Z</time>
      </trkpt>
      <trkpt lat="38.923160014674067" lon="-0.148820020258427">
        <ele>18.8984375</ele>
        <time>2017-12-17T21:42:23Z</time>
      </trkpt>
      <trkpt lat="38.923160014674067" lon="-0.148829994723201">
        <ele>18.8984375</ele>
        <time>2017-12-17T21:44:23Z</time>
      </trkpt>
      <trkpt lat="38.923150040209293" lon="-0.148860001936555">
        <ele>18.8984375</ele>
        <time>2017-12-17T21:46:23Z</time>
      </trkpt>
      <trkpt lat="38.923139981925488" lon="-0.148910041898489">
        <ele>18.8984375</ele>
        <time>2017-12-17T21:48:23Z</time>
      </trkpt>
      <trkpt lat="38.923090025782585" lon="-0.149099975824356">
        <ele>18.8984375</ele>
        <time>2017-12-17T21:50:23Z</time>
      </trkpt>
      <trkpt lat="38.922949964180589" lon="-0.149719985201955">
        <ele>18.8984375</ele>
        <time>2017-12-17T21:52:23Z</time>
      </trkpt>
      <trkpt lat="38.922949964180589" lon="-0.149729959666729">
        <ele>18.91796875</ele>
        <time>2017-12-17T21:54:23Z</time>
      </trkpt>
      <trkpt lat="38.922949964180589" lon="-0.149749992415309">
        <ele>18.984375</ele>
        <time>2017-12-17T21:56:23Z</time>
      </trkpt>
      <trkpt lat="38.922949964180589" lon="-0.149770025163889">
        <ele>19.05078125</ele>
        <time>2017-12-17T21:58:23Z</time>
      </trkpt>
      <trkpt lat="38.922960022464395" lon="-0.149810006842017">
        <ele>19.15625</ele>
        <time>2017-12-17T22:00:23Z</time>
      </trkpt>
      <trkpt lat="38.922969996929169" lon="-0.149849988520145">
        <ele>19.23046875</ele>
        <time>2017-12-17T22:02:23Z</time>
      </trkpt>
      <trkpt lat="38.922960022464395" lon="-0.149889970198274">
        <ele>19.39453125</ele>
        <time>2017-12-17T22:04:23Z</time>
      </trkpt>
      <trkpt lat="38.922960022464395" lon="-0.149940010160208">
        <ele>19.26171875</ele>
        <time>2017-12-17T22:06:23Z</time>
      </trkpt>
      <trkpt lat="38.922900008037686" lon="-0.150360027328134">
        <ele>20.1171875</ele>
        <time>2017-12-17T22:08:23Z</time>
      </trkpt>
      <trkpt lat="38.92277997918427" lon="-0.151699958369136">
        <ele>20.1171875</ele>
        <time>2017-12-17T22:10:23Z</time>
      </trkpt>
      <trkpt lat="38.922649975866079" lon="-0.152869988232851">
        <ele>21.1015625</ele>
        <time>2017-12-17T22:12:23Z</time>
      </trkpt>
      <trkpt lat="38.922589961439371" lon="-0.153520004823804">
        <ele>21.03125</ele>
        <time>2017-12-17T22:14:23Z</time>
      </trkpt>
      <trkpt lat="38.922530030831695" lon="-0.15402995981276">
        <ele>21.8828125</ele>
        <time>2017-12-17T22:16:23Z</time>
      </trkpt>
      <trkpt lat="38.922459958121181" lon="-0.154419969767332">
        <ele>21.9453125</ele>
        <time>2017-12-17T22:18:23Z</time>
      </trkpt>
      <trkpt lat="38.922410001978278" lon="-0.154720041900873">
        <ele>21.9453125</ele>
        <time>2017-12-17T22:20:23Z</time>
      </trkpt>
      <trkpt lat="38.922400027513504" lon="-0.154809979721904">
        <ele>21.9453125</ele>
        <time>2017-12-17T22:22:23Z</time>
      </trkpt>
      <trkpt lat="38.922400027513504" lon="-0.154849961400032">
        <ele>21.9453125</ele>
        <time>2017-12-17T22:24:23Z</time>
      </trkpt>
      <trkpt lat="38.922410001978278" lon="-0.154869994148612">
        <ele>21.9453125</ele>
        <time>2017-12-17T22:26:23Z</time>
      </trkpt>
      <trkpt lat="38.922430034726858" lon="-0.154890026897192">
        <ele>21.9453125</ele>
        <time>2017-12-17T22:28:23Z</time>
      </trkpt>
      <trkpt lat="38.922449983656406" lon="-0.154900001361966">
        <ele>21.9453125</ele>
        <time>2017-12-17T22:30:23Z</time>
      </trkpt>
      <trkpt lat="38.922600019723177" lon="-0.154960015788674">
        <ele>22.12109375</ele>
        <time>2017-12-17T22:32:23Z</time>
      </trkpt>
      <trkpt lat="38.922619968652725" lon="-0.154969990253448">
        <ele>22.1171875</ele>
        <time>2017-12-17T22:34:23Z</time>
      </trkpt>
      <trkpt lat="38.922640001401305" lon="-0.154990023002028">
        <ele>22.0078125</ele>
        <time>2017-12-17T22:36:23Z</time>
      </trkpt>
      <trkpt lat="38.922660034149885" lon="-0.155009971931577">
        <ele>22.01171875</ele>
        <time>2017-12-17T22:38:23Z</time>
      </trkpt>
      <trkpt lat="38.922679983079433" lon="-0.155030004680157">
        <ele>22.19140625</ele>
        <time>2017-12-17T22:40:23Z</time>
      </trkpt>
      <trkpt lat="38.922679983079433" lon="-0.155060011893511">
        <ele>22.37890625</ele>
        <time>2017-12-17T22:42:23Z</time>
      </trkpt>
      <trkpt lat="38.922670008614659" lon="-0.155109968036413">
        <ele>22.53125</ele>
        <time>2017-12-17T22:44:23Z</time>
      </trkpt>
      <trkpt lat="38.922600019723177" lon="-0.155610032379627">
        <ele>23.015625</ele>
        <time>2017-12-17T22:46:23Z</time>
      </trkpt>
      <trkpt lat="38.922419976443052" lon="-0.1566700078547">
        <ele>23.4375</ele>
        <time>2017-12-17T22:48:23Z</time>
      </trkpt>
      <trkpt lat="38.922270024195313" lon="-0.15750995837152">
        <ele>24.296875</ele>
        <time>2017-12-17T22:50:23Z</time>
      </trkpt>
      <trkpt lat="38.922270024195313" lon="-0.15750995837152">
        <ele>24.296875</ele>
        <time>2017-12-17T22:52:23Z</time>
      </trkpt>
      <trkpt lat="38.922449983656406" lon="-0.157629987224936">
        <ele>25.9921875</ele>
        <time>2017-12-17T22:54:23Z</time>
      </trkpt>
      <trkpt lat="38.922809986397624" lon="-0.157869961112738">
        <ele>31.9765625</ele>
        <time>2017-12-17T22:56:23Z</time>
      </trkpt>
      <trkpt lat="38.922839993610978" lon="-0.157880019396544">
        <ele>32.40234375</ele>
        <time>2017-12-17T22:58:23Z</time>
      </trkpt>
      <trkpt lat="38.922860026359558" lon="-0.157889993861318">
        <ele>32.71484375</ele>
        <time>2017-12-17T23:00:23Z</time>
      </trkpt>
      <trkpt lat="38.922890033572912" lon="-0.157889993861318">
        <ele>33.30859375</ele>
        <time>2017-12-17T23:02:23Z</time>
      </trkpt>
      <trkpt lat="38.92290998250246" lon="-0.157889993861318">
        <ele>33.703125</ele>
        <time>2017-12-17T23:04:23Z</time>
      </trkpt>
      <trkpt lat="38.923109974712133" lon="-0.157889993861318">
        <ele>37.81640625</ele>
        <time>2017-12-17T23:06:23Z</time>
      </trkpt>
      <trkpt lat="38.923150040209293" lon="-0.157889993861318">
        <ele>38.5</ele>
        <time>2017-12-17T23:08:23Z</time>
      </trkpt>
      <trkpt lat="38.923179963603616" lon="-0.157889993861318">
        <ele>39.04296875</ele>
        <time>2017-12-17T23:10:23Z</time>
      </trkpt>
      <trkpt lat="38.923190021887422" lon="-0.157889993861318">
        <ele>39.2265625</ele>
        <time>2017-12-17T23:12:23Z</time>
      </trkpt>
      <trkpt lat="38.923199996352196" lon="-0.157899968326092">
        <ele>39.38671875</ele>
        <time>2017-12-17T23:14:23Z</time>
      </trkpt>
      <trkpt lat="38.923199996352196" lon="-0.157910026609898">
        <ele>39.36328125</ele>
        <time>2017-12-17T23:16:23Z</time>
      </trkpt>
      <trkpt lat="38.923199996352196" lon="-0.157920001074672">
        <ele>39.34375</ele>
        <time>2017-12-17T23:18:23Z</time>
      </trkpt>
      <trkpt lat="38.92320997081697" lon="-0.157929975539446">
        <ele>39.53515625</ele>
        <time>2017-12-17T23:20:23Z</time>
      </trkpt>
      <trkpt lat="38.92320997081697" lon="-0.157940033823252">
        <ele>39.51953125</ele>
        <time>2017-12-17T23:22:23Z</time>
      </trkpt>
      <trkpt lat="38.92320997081697" lon="-0.157970041036606">
        <ele>39.55859375</ele>
        <time>2017-12-17T23:24:23Z</time>
      </trkpt>
      <trkpt lat="38.923199996352196" lon="-0.158029971644282">
        <ele>39.65625</ele>
        <time>2017-12-17T23:26:23Z</time>
      </trkpt>
      <trkpt lat="38.923199996352196" lon="-0.158219989389181">
        <ele>40.80859375</ele>
        <time>2017-12-17T23:28:23Z</time>
      </trkpt>
      <trkpt lat="38.923199996352196" lon="-0.158270029351115">
        <ele>40.6328125</ele>
        <time>2017-12-17T23:30:23Z</time>
      </trkpt>
      <trkpt lat="38.923199996352196" lon="-0.158319985494018">
        <ele>40.25</ele>
        <time>2017-12-17T23:32:23Z</time>
      </trkpt>
      <trkpt lat="38.923199996352196" lon="-0.158359967172146">
        <ele>40.0390625</ele>
        <time>2017-12-17T23:34:23Z</time>
      </trkpt>
      <trkpt lat="38.92320997081697" lon="-0.1583899743855">
        <ele>40.08984375</ele>
        <time>2017-12-17T23:36:23Z</time>
      </trkpt>
      <trkpt lat="38.92320997081697" lon="-0.15843003988266">
        <ele>39.84765625</ele>
        <time>2017-12-17T23:38:23Z</time>
      </trkpt>
      <trkpt lat="38.923220029100776" lon="-0.158459963276982">
        <ele>39.7265625</ele>
        <time>2017-12-17T23:40:23Z</time>
      </trkpt>
      <trkpt lat="38.923239978030324" lon="-0.158489970490336">
        <ele>39.74609375</ele>
        <time>2017-12-17T23:42:23Z</time>
      </trkpt>
      <trkpt lat="38.92325003631413" lon="-0.158500028774142">
        <ele>39.8125</ele>
        <time>2017-12-17T23:44:23Z</time>
      </trkpt>
      <trkpt lat="38.92325003631413" lon="-0.158510003238916">
        <ele>39.71484375</ele>
        <time>2017-12-17T23:46:23Z</time>
      </trkpt>
      <trkpt lat="38.923260010778904" lon="-0.158530035987496">
        <ele>39.765625</ele>
        <time>2017-12-17T23:48:23Z</time>
      </trkpt>
      <trkpt lat="38.923260010778904" lon="-0.158540010452271">
        <ele>39.72265625</ele>
        <time>2017-12-17T23:50:23Z</time>
      </trkpt>
      <trkpt lat="38.923260010778904" lon="-0.158549984917045">
        <ele>39.6796875</ele>
        <time>2017-12-17T23:52:23Z</time>
      </trkpt>
      <trkpt lat="38.923260010778904" lon="-0.158559959381819">
        <ele>39.6328125</ele>
        <time>2017-12-17T23:54:23Z</time>
      </trkpt>
      <trkpt lat="38.923260010778904" lon="-0.158589966595173">
        <ele>39.50390625</ele>
        <time>2017-12-17T23:56:23Z</time>
      </trkpt>
      <trkpt lat="38.923260010778904" lon="-0.158630032092333">
        <ele>39.40234375</ele>
        <time>2017-12-17T23:58:23Z</time>
      </trkpt>
      <trkpt lat="38.923260010778904" lon="-0.158719969913363">
        <ele>39.234375</ele>
        <time>2017-12-18T00:00:23Z</time>
      </trkpt>
      <trkpt lat="38.92325003631413" lon="-0.159069998189807">
        <ele>39.125</ele>
        <time>2017-12-18T00:02:23Z</time>
      </trkpt>
      <trkpt lat="38.923239978030324" lon="-0.159499989822507">
        <ele>39.10546875</ele>
        <time>2017-12-18T00:04:23Z</time>
      </trkpt>
      <trkpt lat="38.92323000356555" lon="-0.160459969192743">
        <ele>38.421875</ele>
        <time>2017-12-18T00:06:23Z</time>
      </trkpt>
      <trkpt lat="38.92320997081697" lon="-0.161109985783696">
        <ele>38.890625</ele>
        <time>2017-12-18T00:08:23Z</time>
      </trkpt>
      <trkpt lat="38.92320997081697" lon="-0.161109985783696">
        <ele>38.890625</ele>
        <time>2017-12-18T00:10:23Z</time>
      </trkpt>
      <trkpt lat="38.923090025782585" lon="-0.161039996892214">
        <ele>37.640625</ele>
        <time>2017-12-18T00:12:23Z</time>
      </trkpt>
      <trkpt lat="38.923030011355877" lon="-0.16100998967886">
        <ele>36.64453125</ele>
        <time>2017-12-18T00:14:23Z</time>
      </trkpt>
      <trkpt lat="38.922990029677749" lon="-0.161000015214086">
        <ele>35.9765625</ele>
        <time>2017-12-18T00:16:23Z</time>
      </trkpt>
      <trkpt lat="38.922939989715815" lon="-0.161019964143634">
        <ele>35.26953125</ele>
        <time>2017-12-18T00:18:23Z</time>
      </trkpt>
      <trkpt lat="38.92290998250246" lon="-0.161049971356988">
        <ele>35.125</ele>
        <time>2017-12-18T00:20:23Z</time>
      </trkpt>
      <trkpt lat="38.922879975289106" lon="-0.161090036854148">
        <ele>35.1015625</ele>
        <time>2017-12-18T00:22:23Z</time>
      </trkpt>
      <trkpt lat="38.922849968075752" lon="-0.161130018532276">
        <ele>35.06640625</ele>
        <time>2017-12-18T00:24:23Z</time>
      </trkpt>
      <trkpt lat="38.922719964757562" lon="-0.161430006846786">
        <ele>34.59375</ele>
        <time>2017-12-18T00:26:23Z</time>
      </trkpt>
      <trkpt lat="38.922560038045049" lon="-0.161780035123229">
        <ele>34.17578125</ele>
        <time>2017-12-18T00:28:23Z</time>
      </trkpt>
      <trkpt lat="38.922359962016344" lon="-0.162059990689158">
        <ele>36.60546875</ele>
        <time>2017-12-18T00:30:23Z</time>
      </trkpt>
      <trkpt lat="38.922189977020025" lon="-0.162359979003668">
        <ele>39.1875</ele>
        <time>2017-12-18T00:32:23Z</time>
      </trkpt>
      <trkpt lat="38.922170028090477" lon="-0.162389986217022">
        <ele>39.41796875</ele>
        <time>2017-12-18T00:34:23Z</time>
      </trkpt>
      <trkpt lat="38.922119988128543" lon="-0.16245000064373">
        <ele>40.05078125</ele>
        <time>2017-12-18T00:36:23Z</time>
      </trkpt>
      <trkpt lat="38.92191999591887" lon="-0.162659967318177">
        <ele>39.19921875</ele>
        <time>2017-12-18T00:38:23Z</time>
      </trkpt>
      <trkpt lat="38.921840032562613" lon="-0.16277002170682">
        <ele>38.7109375</ele>
        <time>2017-12-18T00:40:23Z</time>
      </trkpt>
      <trkpt lat="38.921769959852099" lon="-0.162849985063076">
        <ele>38.12890625</ele>
        <time>2017-12-18T00:42:23Z</time>
      </trkpt>
      <trkpt lat="38.921720003709197" lon="-0.162940006703138">
        <ele>37.94140625</ele>
        <time>2017-12-18T00:44:23Z</time>
      </trkpt>
      <trkpt lat="38.921640040352941" lon="-0.163079984486103">
        <ele>38.046875</ele>
        <time>2017-12-18T00:46:23Z</time>
      </trkpt>
      <trkpt lat="38.921590000391006" lon="-0.163190038874745">
        <ele>37.9609375</ele>
        <time>2017-12-18T00:48:23Z</time>
      </trkpt>
      <trkpt lat="38.921529985964298" lon="-0.16333001665771">
        <ele>38.1953125</ele>
        <time>2017-12-18T00:50:23Z</time>
      </trkpt>
      <trkpt lat="38.921499978750944" lon="-0.163430012762547">
        <ele>37.98828125</ele>
        <time>2017-12-18T00:52:23Z</time>
      </trkpt>
      <trkpt lat="38.921420015394688" lon="-0.163599997758865">
        <ele>37.96484375</ele>
        <time>2017-12-18T00:54:23Z</time>
      </trkpt>
      <trkpt lat="38.921339968219399" lon="-0.16376000829041">
        <ele>38.26171875</ele>
        <time>2017-12-18T00:56:23Z</time>
      </trkpt>
      <trkpt lat="38.921280037611723" lon="-0.163880037143826">
        <ele>38.1015625</ele>
        <time>2017-12-18T00:58:23Z</time>
      </trkpt>
      <trkpt lat="38.921220023185015" lon="-0.164020014926791">
        <ele>38.09765625</ele>
        <time>2017-12-18T01:00:23Z</time>
      </trkpt>
      <trkpt lat="38.921199990436435" lon="-0.164099978283048">
        <ele>38.30078125</ele>
        <time>2017-12-18T01:02:23Z</time>
      </trkpt>
      <trkpt lat="38.921160008758307" lon="-0.164259988814592">
        <ele>38.99609375</ele>
        <time>2017-12-18T01:04:23Z</time>
      </trkpt>
      <trkpt lat="38.921099994331598" lon="-0.164470039308071">
        <ele>39.625</ele>
        <time>2017-12-18T01:06:23Z</time>
      </trkpt>
      <trkpt lat="38.921050038188696" lon="-0.16464002430439">
        <ele>39.37109375</ele>
        <time>2017-12-18T01:08:23Z</time>
      </trkpt>
      <trkpt lat="38.920990023761988" lon="-0.164789976552129">
        <ele>39.5625</ele>
        <time>2017-12-18T01:10:23Z</time>
      </trkpt>
      <trkpt lat="38.920879969373345" lon="-0.165060041472316">
        <ele>40.42578125</ele>
        <time>2017-12-18T01:12:23Z</time>
      </trkpt>
      <trkpt lat="38.920820038765669" lon="-0.165179986506701">
        <ele>41.1484375</ele>
        <time>2017-12-18T01:14:23Z</time>
      </trkpt>
      <trkpt lat="38.920749966055155" lon="-0.165339997038245">
        <ele>41.1484375</ele>
        <time>2017-12-18T01:16:23Z</time>
      </trkpt>
      <trkpt lat="38.920709984377027" lon="-0.165439993143082">
        <ele>41.1484375</ele>
        <time>2017-12-18T01:18:23Z</time>
      </trkpt>
      <trkpt lat="38.920639995485544" lon="-0.16563001088798">
        <ele>41.4140625</ele>
        <time>2017-12-18T01:20:23Z</time>
      </trkpt>
      <trkpt lat="38.920619962736964" lon="-0.165690025314689">
        <ele>41.703125</ele>
        <time>2017-12-18T01:22:23Z</time>
      </trkpt>
      <trkpt lat="38.920590039342642" lon="-0.165750039741397">
        <ele>42.00390625</ele>
        <time>2017-12-18T01:24:23Z</time>
      </trkpt>
      <trkpt lat="38.920509992167354" lon="-0.165939973667264">
        <ele>42.7890625</ele>
        <time>2017-12-18T01:26:23Z</time>
      </trkpt>
      <trkpt lat="38.920409996062517" lon="-0.166139965876937">
        <ele>43.2578125</ele>
        <time>2017-12-18T01:28:23Z</time>
      </trkpt>
      <trkpt lat="38.920360039919615" lon="-0.166239961981773">
        <ele>43.5859375</ele>
        <time>2017-12-18T01:30:23Z</time>
      </trkpt>
      <trkpt lat="38.920309999957681" lon="-0.166310034692287">
        <ele>44.1171875</ele>
        <time>2017-12-18T01:32:23Z</time>
      </trkpt>
      <trkpt lat="38.920270018279552" lon="-0.16635999083519">
        <ele>44.484375</ele>
        <time>2017-12-18T01:34:23Z</time>
      </trkpt>
      <trkpt lat="38.920219978317618" lon="-0.166420005261898">
        <ele>45.1953125</ele>
        <time>2017-12-18T01:36:23Z</time>
      </trkpt>
      <trkpt lat="38.920149989426136" lon="-0.166529975831509">
        <ele>46.4375</ele>
        <time>2017-12-18T01:38:23Z</time>
      </trkpt>
      <trkpt lat="38.920110007748008" lon="-0.166610023006797">
        <ele>46.73828125</ele>
        <time>2017-12-18T01:40:23Z</time>
      </trkpt>
      <trkpt lat="38.920080000534654" lon="-0.166670037433505">
        <ele>46.67578125</ele>
        <time>2017-12-18T01:42:23Z</time>
      </trkpt>
      <trkpt lat="38.9200499933213" lon="-0.166719993576407">
        <ele>47.09765625</ele>
        <time>2017-12-18T01:44:23Z</time>
      </trkpt>
      <trkpt lat="38.920000037178397" lon="-0.166770033538342">
        <ele>47.58984375</ele>
        <time>2017-12-18T01:46:23Z</time>
      </trkpt>
      <trkpt lat="38.919949997216463" lon="-0.166819989681244">
        <ele>48.01953125</ele>
        <time>2017-12-18T01:48:23Z</time>
      </trkpt>
      <trkpt lat="38.919889982789755" lon="-0.166859971359372">
        <ele>48.96484375</ele>
        <time>2017-12-18T01:50:23Z</time>
      </trkpt>
      <trkpt lat="38.919850001111627" lon="-0.166870029643178">
        <ele>49.23828125</ele>
        <time>2017-12-18T01:52:23Z</time>
      </trkpt>
      <trkpt lat="38.919799961149693" lon="-0.166889978572726">
        <ele>49.7109375</ele>
        <time>2017-12-18T01:54:23Z</time>
      </trkpt>
      <trkpt lat="38.919780012220144" lon="-0.166889978572726">
        <ele>49.7734375</ele>
        <time>2017-12-18T01:56:23Z</time>
      </trkpt>
      <trkpt lat="38.919710023328662" lon="-0.166900036856532">
        <ele>50.07421875</ele>
        <time>2017-12-18T01:58:23Z</time>
      </trkpt>
      <trkpt lat="38.919629976153374" lon="-0.166900036856532">
        <ele>50.5390625</ele>
        <time>2017-12-18T02:00:23Z</time>
      </trkpt>
      <trkpt lat="38.919550012797117" lon="-0.166900036856532">
        <ele>50.96875</ele>
        <time>2017-12-18T02:02:23Z</time>
      </trkpt>
      <trkpt lat="38.919359995052218" lon="-0.166870029643178">
        <ele>53.3515625</ele>
        <time>2017-12-18T02:04:23Z</time>
      </trkpt>
      <trkpt lat="38.919359995052218" lon="-0.166870029643178">
        <ele>53.3515625</ele>
        <time>2017-12-18T02:06:23Z</time>
      </trkpt>
      <trkpt lat="38.919250024482608" lon="-0.167079996317625">
        <ele>54.21484375</ele>
        <time>2017-12-18T02:08:23Z</time>
      </trkpt>
      <trkpt lat="38.91916997730732" lon="-0.167249981313944">
        <ele>54.95703125</ele>
        <time>2017-12-18T02:10:23Z</time>
      </trkpt>
      <trkpt lat="38.919139970093966" lon="-0.167379984632134">
        <ele>55.41796875</ele>
        <time>2017-12-18T02:12:23Z</time>
      </trkpt>
      <trkpt lat="38.919129995629191" lon="-0.167509987950325">
        <ele>54.96875</ele>
        <time>2017-12-18T02:14:23Z</time>
      </trkpt>
      <trkpt lat="38.919120021164417" lon="-0.167609984055161">
        <ele>54.71484375</ele>
        <time>2017-12-18T02:16:23Z</time>
      </trkpt>
      <trkpt lat="38.919129995629191" lon="-0.16766999848187">
        <ele>54.171875</ele>
        <time>2017-12-18T02:18:23Z</time>
      </trkpt>
      <trkpt lat="38.919120021164417" lon="-0.167679972946644">
        <ele>54.1875</ele>
        <time>2017-12-18T02:20:23Z</time>
      </trkpt>
      <trkpt lat="38.919120021164417" lon="-0.16769003123045">
        <ele>54.17578125</ele>
        <time>2017-12-18T02:22:23Z</time>
      </trkpt>
      <trkpt lat="38.919109962880611" lon="-0.167720038443804">
        <ele>54.1875</ele>
        <time>2017-12-18T02:24:23Z</time>
      </trkpt>
      <trkpt lat="38.919109962880611" lon="-0.167720038443804">
        <ele>54.1875</ele>
        <time>2017-12-18T02:26:23Z</time>
      </trkpt>
      <trkpt lat="38.919120021164417" lon="-0.167730012908578">
        <ele>54.12109375</ele>
        <time>2017-12-18T02:28:23Z</time>
      </trkpt>
      <trkpt lat="38.919120021164417" lon="-0.167739987373352">
        <ele>54.109375</ele>
        <time>2017-12-18T02:30:23Z</time>
      </trkpt>
      <trkpt lat="38.919129995629191" lon="-0.167739987373352">
        <ele>54.06640625</ele>
        <time>2017-12-18T02:32:23Z</time>
      </trkpt>
      <trkpt lat="38.919129995629191" lon="-0.167749961838126">
        <ele>54.0546875</ele>
        <time>2017-12-18T02:34:23Z</time>
      </trkpt>
      <trkpt lat="38.919129995629191" lon="-0.167760020121932">
        <ele>54.046875</ele>
        <time>2017-12-18T02:36:23Z</time>
      </trkpt>
      <trkpt lat="38.919139970093966" lon="-0.167760020121932">
        <ele>54.01171875</ele>
        <time>2017-12-18T02:38:23Z</time>
      </trkpt>
      <trkpt lat="38.919139970093966" lon="-0.167769994586706">
        <ele>54.01953125</ele>
        <time>2017-12-18T02:40:23Z</time>
      </trkpt>
      <trkpt lat="38.919139970093966" lon="-0.16777996905148">
        <ele>54.08203125</ele>
        <time>2017-12-18T02:42:23Z</time>
      </trkpt>
      <trkpt lat="38.919150028377771" lon="-0.167790027335286">
        <ele>54.1171875</ele>
        <time>2017-12-18T02:44:23Z</time>
      </trkpt>
      <trkpt lat="38.919150028377771" lon="-0.16780000180006">
        <ele>54.18359375</ele>
        <time>2017-12-18T02:46:23Z</time>
      </trkpt>
      <trkpt lat="38.919150028377771" lon="-0.167809976264834">
        <ele>54.25</ele>
        <time>2017-12-18T02:48:23Z</time>
      </trkpt>
      <trkpt lat="38.919150028377771" lon="-0.16782003454864">
        <ele>54.31640625</ele>
        <time>2017-12-18T02:50:23Z</time>
      </trkpt>
      <trkpt lat="38.919150028377771" lon="-0.167830009013414">
        <ele>54.37890625</ele>
        <time>2017-12-18T02:52:23Z</time>
      </trkpt>
      <trkpt lat="38.919150028377771" lon="-0.167839983478189">
        <ele>54.4453125</ele>
        <time>2017-12-18T02:54:23Z</time>
      </trkpt>
      <trkpt lat="38.919150028377771" lon="-0.167850041761994">
        <ele>54.51171875</ele>
        <time>2017-12-18T02:56:23Z</time>
      </trkpt>
      <trkpt lat="38.919150028377771" lon="-0.167860016226768">
        <ele>54.578125</ele>
        <time>2017-12-18T02:58:23Z</time>
      </trkpt>
      <trkpt lat="38.919229991734028" lon="-0.168020026758313">
        <ele>53.94921875</ele>
        <time>2017-12-18T03:00:23Z</time>
      </trkpt>
      <trkpt lat="38.919680016115308" lon="-0.16911000944674">
        <ele>51.83203125</ele>
        <time>2017-12-18T03:02:23Z</time>
      </trkpt>
      <trkpt lat="38.919740030542016" lon="-0.169379990547895">
        <ele>52.76171875</ele>
        <time>2017-12-18T03:04:23Z</time>
      </trkpt>
      <trkpt lat="38.91975000500679" lon="-0.169479986652732">
        <ele>52.296875</ele>
        <time>2017-12-18T03:06:23Z</time>
      </trkpt>
      <trkpt lat="38.919759979471564" lon="-0.169609989970922">
        <ele>51.80078125</ele>
        <time>2017-12-18T03:08:23Z</time>
      </trkpt>
      <trkpt lat="38.91975000500679" lon="-0.169760026037693">
        <ele>51.75</ele>
        <time>2017-12-18T03:10:23Z</time>
      </trkpt>
      <trkpt lat="38.919629976153374" lon="-0.170559994876385">
        <ele>51.4140625</ele>
        <time>2017-12-18T03:12:23Z</time>
      </trkpt>
      <trkpt lat="38.919520005583763" lon="-0.171019993722439">
        <ele>52.09375</ele>
        <time>2017-12-18T03:14:23Z</time>
      </trkpt>
      <trkpt lat="38.919499972835183" lon="-0.171129964292049">
        <ele>51.94140625</ele>
        <time>2017-12-18T03:16:23Z</time>
      </trkpt>
      <trkpt lat="38.919489998370409" lon="-0.171400029212236">
        <ele>52.07421875</ele>
        <time>2017-12-18T03:18:23Z</time>
      </trkpt>
      <trkpt lat="38.919510031118989" lon="-0.171570014208555">
        <ele>51.625</ele>
        <time>2017-12-18T03:20:23Z</time>
      </trkpt>
      <trkpt lat="38.919510031118989" lon="-0.171570014208555">
        <ele>51.625</ele>
        <time>2017-12-18T03:22:23Z</time>
      </trkpt>
      <trkpt lat="38.919520005583763" lon="-0.171579988673329">
        <ele>51.55859375</ele>
        <time>2017-12-18T03:24:23Z</time>
      </trkpt>
      <trkpt lat="38.919520005583763" lon="-0.171589963138103">
        <ele>51.55859375</ele>
        <time>2017-12-18T03:26:23Z</time>
      </trkpt>
      <trkpt lat="38.919529980048537" lon="-0.171600021421909">
        <ele>51.49609375</ele>
        <time>2017-12-18T03:28:23Z</time>
      </trkpt>
      <trkpt lat="38.919540038332343" lon="-0.171609995886683">
        <ele>51.4296875</ele>
        <time>2017-12-18T03:30:23Z</time>
      </trkpt>
      <trkpt lat="38.919550012797117" lon="-0.171619970351458">
        <ele>51.36328125</ele>
        <time>2017-12-18T03:32:23Z</time>
      </trkpt>
      <trkpt lat="38.919559987261891" lon="-0.171630028635263">
        <ele>51.296875</ele>
        <time>2017-12-18T03:34:23Z</time>
      </trkpt>
      <trkpt lat="38.919569961726665" lon="-0.171640003100038">
        <ele>51.23046875</ele>
        <time>2017-12-18T03:36:23Z</time>
      </trkpt>
      <trkpt lat="38.919569961726665" lon="-0.171649977564812">
        <ele>51.23046875</ele>
        <time>2017-12-18T03:38:23Z</time>
      </trkpt>
      <trkpt lat="38.919580020010471" lon="-0.171670010313392">
        <ele>51.1640625</ele>
        <time>2017-12-18T03:40:23Z</time>
      </trkpt>
      <trkpt lat="38.919580020010471" lon="-0.17168995924294">
        <ele>51.1640625</ele>
        <time>2017-12-18T03:42:23Z</time>
      </trkpt>
      <trkpt lat="38.919580020010471" lon="-0.171700017526746">
        <ele>51.1640625</ele>
        <time>2017-12-18T03:44:23Z</time>
      </trkpt>
      <trkpt lat="38.919580020010471" lon="-0.171719966456294">
        <ele>51.1640625</ele>
        <time>2017-12-18T03:46:23Z</time>
      </trkpt>
      <trkpt lat="38.919580020010471" lon="-0.171739999204874">
        <ele>51.1640625</ele>
        <time>2017-12-18T03:48:23Z</time>
      </trkpt>
      <trkpt lat="38.919580020010471" lon="-0.171760031953454">
        <ele>51.12890625</ele>
        <time>2017-12-18T03:50:23Z</time>
      </trkpt>
      <trkpt lat="38.919580020010471" lon="-0.171770006418228">
        <ele>51.1015625</ele>
        <time>2017-12-18T03:52:23Z</time>
      </trkpt>
      <trkpt lat="38.919569961726665" lon="-0.171790039166808">
        <ele>51.078125</ele>
        <time>2017-12-18T03:54:23Z</time>
      </trkpt>
      <trkpt lat="38.919569961726665" lon="-0.171809988096356">
        <ele>51.0078125</ele>
        <time>2017-12-18T03:56:23Z</time>
      </trkpt>
      <trkpt lat="38.919559987261891" lon="-0.171830020844936">
        <ele>50.9453125</ele>
        <time>2017-12-18T03:58:23Z</time>
      </trkpt>
      <trkpt lat="38.919550012797117" lon="-0.171839995309711">
        <ele>50.90234375</ele>
        <time>2017-12-18T04:00:23Z</time>
      </trkpt>
      <trkpt lat="38.919550012797117" lon="-0.17186002805829">
        <ele>50.90234375</ele>
        <time>2017-12-18T04:02:23Z</time>
      </trkpt>
      <trkpt lat="38.919540038332343" lon="-0.171870002523065">
        <ele>50.90234375</ele>
        <time>2017-12-18T04:04:23Z</time>
      </trkpt>
      <trkpt lat="38.919529980048537" lon="-0.171879976987839">
        <ele>50.90234375</ele>
        <time>2017-12-18T04:06:23Z</time>
      </trkpt>
      <trkpt lat="38.919520005583763" lon="-0.171890035271645">
        <ele>50.94921875</ele>
        <time>2017-12-18T04:08:23Z</time>
      </trkpt>
      <trkpt lat="38.919510031118989" lon="-0.171900009736419">
        <ele>51.015625</ele>
        <time>2017-12-18T04:10:23Z</time>
      </trkpt>
      <trkpt lat="38.919489998370409" lon="-0.171909984201193">
        <ele>51.1484375</ele>
        <time>2017-12-18T04:12:23Z</time>
      </trkpt>
      <trkpt lat="38.919480023905635" lon="-0.171919958665967">
        <ele>51.21484375</ele>
        <time>2017-12-18T04:14:23Z</time>
      </trkpt>
      <trkpt lat="38.919469965621829" lon="-0.171919958665967">
        <ele>51.28125</ele>
        <time>2017-12-18T04:16:23Z</time>
      </trkpt>
      <trkpt lat="38.919450016692281" lon="-0.171930016949773">
        <ele>51.41015625</ele>
        <time>2017-12-18T04:18:23Z</time>
      </trkpt>
      <trkpt lat="38.919439958408475" lon="-0.171930016949773">
        <ele>51.4765625</ele>
        <time>2017-12-18T04:20:23Z</time>
      </trkpt>
      <trkpt lat="38.919429983943701" lon="-0.171930016949773">
        <ele>51.52734375</ele>
        <time>2017-12-18T04:22:23Z</time>
      </trkpt>
      <trkpt lat="38.919420009478927" lon="-0.171930016949773">
        <ele>51.5625</ele>
        <time>2017-12-18T04:24:23Z</time>
      </trkpt>
      <trkpt lat="38.919410035014153" lon="-0.171919958665967">
        <ele>51.60546875</ele>
        <time>2017-12-18T04:26:23Z</time>
      </trkpt>
      <trkpt lat="38.919399976730347" lon="-0.171919958665967">
        <ele>51.640625</ele>
        <time>2017-12-18T04:28:23Z</time>
      </trkpt>
      <trkpt lat="38.919390002265573" lon="-0.171919958665967">
        <ele>51.6796875</ele>
        <time>2017-12-18T04:30:23Z</time>
      </trkpt>
      <trkpt lat="38.919380027800798" lon="-0.171909984201193">
        <ele>51.734375</ele>
        <time>2017-12-18T04:32:23Z</time>
      </trkpt>
      <trkpt lat="38.919369969516993" lon="-0.171909984201193">
        <ele>51.77734375</ele>
        <time>2017-12-18T04:34:23Z</time>
      </trkpt>
      <trkpt lat="38.919369969516993" lon="-0.171900009736419">
        <ele>51.80078125</ele>
        <time>2017-12-18T04:36:23Z</time>
      </trkpt>
      <trkpt lat="38.919359995052218" lon="-0.171900009736419">
        <ele>51.84375</ele>
        <time>2017-12-18T04:38:23Z</time>
      </trkpt>
      <trkpt lat="38.919350020587444" lon="-0.171890035271645">
        <ele>51.91796875</ele>
        <time>2017-12-18T04:40:23Z</time>
      </trkpt>
      <trkpt lat="38.919339962303638" lon="-0.171879976987839">
        <ele>51.9921875</ele>
        <time>2017-12-18T04:42:23Z</time>
      </trkpt>
      <trkpt lat="38.919329987838864" lon="-0.171870002523065">
        <ele>52.03515625</ele>
        <time>2017-12-18T04:44:23Z</time>
      </trkpt>
      <trkpt lat="38.919329987838864" lon="-0.17186002805829">
        <ele>52.0625</ele>
        <time>2017-12-18T04:46:23Z</time>
      </trkpt>
      <trkpt lat="38.91932001337409" lon="-0.17186002805829">
        <ele>52.0703125</ele>
        <time>2017-12-18T04:48:23Z</time>
      </trkpt>
      <trkpt lat="38.91932001337409" lon="-0.171849969774485">
        <ele>52.09375</ele>
        <time>2017-12-18T04:50:23Z</time>
      </trkpt>
      <trkpt lat="38.91932001337409" lon="-0.171839995309711">
        <ele>52.12109375</ele>
        <time>2017-12-18T04:52:23Z</time>
      </trkpt>
      <trkpt lat="38.919310038909316" lon="-0.171839995309711">
        <ele>52.12109375</ele>
        <time>2017-12-18T04:54:23Z</time>
      </trkpt>
      <trkpt lat="38.919310038909316" lon="-0.171830020844936">
        <ele>52.12109375</ele>
        <time>2017-12-18T04:56:23Z</time>
      </trkpt>
      <trkpt lat="38.919209958985448" lon="-0.171800013631582">
        <ele>52.12109375</ele>
        <time>2017-12-18T04:58:23Z</time>
      </trkpt>
      <trkpt lat="38.919099988415837" lon="-0.171770006418228">
        <ele>52.21484375</ele>
        <time>2017-12-18T05:00:23Z</time>
      </trkpt>
      <trkpt lat="38.919080039486289" lon="-0.171770006418228">
        <ele>52.24609375</ele>
        <time>2017-12-18T05:02:23Z</time>
      </trkpt>
      <trkpt lat="38.919039973989129" lon="-0.171779980883002">
        <ele>52.3671875</ele>
        <time>2017-12-18T05:04:23Z</time>
      </trkpt>
      <trkpt lat="38.918920028954744" lon="-0.171779980883002">
        <ele>52.4453125</ele>
        <time>2017-12-18T05:06:23Z</time>
      </trkpt>
      <trkpt lat="38.918830007314682" lon="-0.171779980883002">
        <ele>52.76171875</ele>
        <time>2017-12-18T05:08:23Z</time>
      </trkpt>
      <trkpt lat="38.918769992887974" lon="-0.171779980883002">
        <ele>53.1640625</ele>
        <time>2017-12-18T05:10:23Z</time>
      </trkpt>
      <trkpt lat="38.918769992887974" lon="-0.171779980883002">
        <ele>53.1640625</ele>
        <time>2017-12-18T05:12:23Z</time>
      </trkpt>
      <trkpt lat="38.918570000678301" lon="-0.171779980883002">
        <ele>53.40625</ele>
        <time>2017-12-18T05:14:23Z</time>
      </trkpt>
      <trkpt lat="38.918479979038239" lon="-0.171779980883002">
        <ele>53.47265625</ele>
        <time>2017-12-18T05:16:23Z</time>
      </trkpt>
      <trkpt lat="38.918430022895336" lon="-0.171770006418228">
        <ele>53.37109375</ele>
        <time>2017-12-18T05:18:23Z</time>
      </trkpt>
      <trkpt lat="38.918319968506694" lon="-0.171760031953454">
        <ele>53.66015625</ele>
        <time>2017-12-18T05:20:23Z</time>
      </trkpt>
      <trkpt lat="38.918209997937083" lon="-0.1717300247401">
        <ele>53.8046875</ele>
        <time>2017-12-18T05:22:23Z</time>
      </trkpt>
      <trkpt lat="38.918119976297021" lon="-0.171679984778166">
        <ele>53.7734375</ele>
        <time>2017-12-18T05:24:23Z</time>
      </trkpt>
      <trkpt lat="38.91801000572741" lon="-0.171640003100038">
        <ele>53.94921875</ele>
        <time>2017-12-18T05:26:23Z</time>
      </trkpt>
      <trkpt lat="38.917929958552122" lon="-0.171609995886683">
        <ele>54.109375</ele>
        <time>2017-12-18T05:28:23Z</time>
      </trkpt>
      <trkpt lat="38.91785996966064" lon="-0.171579988673329">
        <ele>54.5625</ele>
        <time>2017-12-18T05:30:23Z</time>
      </trkpt>
      <trkpt lat="38.917440036311746" lon="-0.171389970928431">
        <ele>55.203125</ele>
        <time>2017-12-18T05:32:23Z</time>
      </trkpt>
      <trkpt lat="38.917440036311746" lon="-0.171389970928431">
        <ele>55.203125</ele>
        <time>2017-12-18T05:34:23Z</time>
      </trkpt>
      <trkpt lat="38.917359989136457" lon="-0.171700017526746">
        <ele>56.08203125</ele>
        <time>2017-12-18T05:36:23Z</time>
      </trkpt>
      <trkpt lat="38.917329981923103" lon="-0.171900009736419">
        <ele>55.98046875</ele>
        <time>2017-12-18T05:38:23Z</time>
      </trkpt>
      <trkpt lat="38.917280025780201" lon="-0.17226998694241">
        <ele>55.0390625</ele>
        <time>2017-12-18T05:40:23Z</time>
      </trkpt>
      <trkpt lat="38.917239960283041" lon="-0.172490011900663">
        <ele>54.86328125</ele>
        <time>2017-12-18T05:42:23Z</time>
      </trkpt>
      <trkpt lat="38.917199978604913" lon="-0.172929977998137">
        <ele>53.9609375</ele>
        <time>2017-12-18T05:44:23Z</time>
      </trkpt>
      <trkpt lat="38.917110040783882" lon="-0.173419984057546">
        <ele>53.10546875</ele>
        <time>2017-12-18T05:46:23Z</time>
      </trkpt>
      <trkpt lat="38.917110040783882" lon="-0.173419984057546">
        <ele>53.10546875</ele>
        <time>2017-12-18T05:48:23Z</time>
      </trkpt>
      <trkpt lat="38.917090008035302" lon="-0.17357999458909">
        <ele>53.0546875</ele>
        <time>2017-12-18T05:50:23Z</time>
      </trkpt>
      <trkpt lat="38.916899990290403" lon="-0.174839962273836">
        <ele>52.2421875</ele>
        <time>2017-12-18T05:52:23Z</time>
      </trkpt>
      <trkpt lat="38.916799994185567" lon="-0.175470029935241">
        <ele>52.28125</ele>
        <time>2017-12-18T05:54:23Z</time>
      </trkpt>
      <trkpt lat="38.916779961436987" lon="-0.175580000504851">
        <ele>52.21484375</ele>
        <time>2017-12-18T05:56:23Z</time>
      </trkpt>
      <trkpt lat="38.916779961436987" lon="-0.175580000504851">
        <ele>52.21484375</ele>
        <time>2017-12-18T05:58:23Z</time>
      </trkpt>
      <trkpt lat="38.916850034147501" lon="-0.17561998218298">
        <ele>52.46484375</ele>
        <time>2017-12-18T06:00:23Z</time>
      </trkpt>
      <trkpt lat="38.916880041360855" lon="-0.17564001493156">
        <ele>52.6640625</ele>
        <time>2017-12-18T06:02:23Z</time>
      </trkpt>
      <trkpt lat="38.916929997503757" lon="-0.175679996609688">
        <ele>52.9921875</ele>
        <time>2017-12-18T06:04:23Z</time>
      </trkpt>
      <trkpt lat="38.916969979181886" lon="-0.175719978287816">
        <ele>52.8125</ele>
        <time>2017-12-18T06:06:23Z</time>
      </trkpt>
      <trkpt lat="38.916980037465692" lon="-0.175779992714524">
        <ele>52.5625</ele>
        <time>2017-12-18T06:08:23Z</time>
      </trkpt>
      <trkpt lat="38.916990011930466" lon="-0.175909996032715">
        <ele>52.125</ele>
        <time>2017-12-18T06:10:23Z</time>
      </trkpt>
      <trkpt lat="38.916990011930466" lon="-0.176490023732185">
        <ele>51.76953125</ele>
        <time>2017-12-18T06:12:23Z</time>
      </trkpt>
      <trkpt lat="38.916960004717112" lon="-0.176639975979924">
        <ele>51.765625</ele>
        <time>2017-12-18T06:14:23Z</time>
      </trkpt>
      <trkpt lat="38.916939971968532" lon="-0.176869975402951">
        <ele>50.90234375</ele>
        <time>2017-12-18T06:16:23Z</time>
      </trkpt>
      <trkpt lat="38.916939971968532" lon="-0.176920015364885">
        <ele>50.90234375</ele>
        <time>2017-12-18T06:18:23Z</time>
      </trkpt>
      <trkpt lat="38.916929997503757" lon="-0.176980029791594">
        <ele>50.9453125</ele>
        <time>2017-12-18T06:20:23Z</time>
      </trkpt>
      <trkpt lat="38.916950030252337" lon="-0.177029985934496">
        <ele>50.90234375</ele>
        <time>2017-12-18T06:22:23Z</time>
      </trkpt>
      <trkpt lat="38.916969979181886" lon="-0.17708002589643">
        <ele>50.90234375</ele>
        <time>2017-12-18T06:24:23Z</time>
      </trkpt>
      <trkpt lat="38.917039968073368" lon="-0.177399963140488">
        <ele>50.8671875</ele>
        <time>2017-12-18T06:26:23Z</time>
      </trkpt>
      <trkpt lat="38.917050026357174" lon="-0.177519991993904">
        <ele>50.71484375</ele>
        <time>2017-12-18T06:28:23Z</time>
      </trkpt>
      <trkpt lat="38.917050026357174" lon="-0.177519991993904">
        <ele>50.71484375</ele>
        <time>2017-12-18T06:30:23Z</time>
      </trkpt>
      <trkpt lat="38.917050026357174" lon="-0.177570031955838">
        <ele>50.55078125</ele>
        <time>2017-12-18T06:32:23Z</time>
      </trkpt>
      <trkpt lat="38.916990011930466" lon="-0.177810005843639">
        <ele>50.90234375</ele>
        <time>2017-12-18T06:34:23Z</time>
      </trkpt>
      <trkpt lat="38.916880041360855" lon="-0.178330019116402">
        <ele>51.109375</ele>
        <time>2017-12-18T06:36:23Z</time>
      </trkpt>
      <trkpt lat="38.916799994185567" lon="-0.17877995967865">
        <ele>50.90234375</ele>
        <time>2017-12-18T06:38:23Z</time>
      </trkpt>
      <trkpt lat="38.916799994185567" lon="-0.178869981318712">
        <ele>51.04296875</ele>
        <time>2017-12-18T06:40:23Z</time>
      </trkpt>
      <trkpt lat="38.916799994185567" lon="-0.178980035707355">
        <ele>51.19140625</ele>
        <time>2017-12-18T06:42:23Z</time>
      </trkpt>
      <trkpt lat="38.916799994185567" lon="-0.179039966315031">
        <ele>51.19140625</ele>
        <time>2017-12-18T06:44:23Z</time>
      </trkpt>
      <trkpt lat="38.916799994185567" lon="-0.179090006276965">
        <ele>51.19140625</ele>
        <time>2017-12-18T06:46:23Z</time>
      </trkpt>
      <trkpt lat="38.916809968650341" lon="-0.179150020703673">
        <ele>51.125</ele>
        <time>2017-12-18T06:48:23Z</time>
      </trkpt>
      <trkpt lat="38.916830001398921" lon="-0.179220009595156">
        <ele>50.92578125</ele>
        <time>2017-12-18T06:50:23Z</time>
      </trkpt>
      <trkpt lat="38.916830001398921" lon="-0.17925001680851">
        <ele>50.90234375</ele>
        <time>2017-12-18T06:52:23Z</time>
      </trkpt>
      <trkpt lat="38.916850034147501" lon="-0.179329980164766">
        <ele>50.90234375</ele>
        <time>2017-12-18T06:54:23Z</time>
      </trkpt>
      <trkpt lat="38.916990011930466" lon="-0.179949989542365">
        <ele>50.90234375</ele>
        <time>2017-12-18T06:56:23Z</time>
      </trkpt>
      <trkpt lat="38.91702001914382" lon="-0.180100025609136">
        <ele>51.23046875</ele>
        <time>2017-12-18T06:58:23Z</time>
      </trkpt>
      <trkpt lat="38.917029993608594" lon="-0.180200021713972">
        <ele>51.5</ele>
        <time>2017-12-18T07:00:23Z</time>
      </trkpt>
      <trkpt lat="38.917050026357174" lon="-0.180370006710291">
        <ele>50.45703125</ele>
        <time>2017-12-18T07:02:23Z</time>
      </trkpt>
      <trkpt lat="38.917060000821948" lon="-0.180500010028481">
        <ele>50.6328125</ele>
        <time>2017-12-18T07:04:23Z</time>
      </trkpt>
      <trkpt lat="38.917060000821948" lon="-0.180590031668544">
        <ele>50.85546875</ele>
        <time>2017-12-18T07:06:23Z</time>
      </trkpt>
      <trkpt lat="38.917060000821948" lon="-0.180590031668544">
        <ele>50.85546875</ele>
        <time>2017-12-18T07:08:23Z</time>
      </trkpt>
      <trkpt lat="38.917060000821948" lon="-0.180630013346672">
        <ele>50.90234375</ele>
        <time>2017-12-18T07:10:23Z</time>
      </trkpt>
      <trkpt lat="38.917060000821948" lon="-0.180700002238154">
        <ele>50.90234375</ele>
        <time>2017-12-18T07:12:23Z</time>
      </trkpt>
      <trkpt lat="38.917060000821948" lon="-0.180790023878217">
        <ele>50.828125</ele>
        <time>2017-12-18T07:14:23Z</time>
      </trkpt>
      <trkpt lat="38.917050026357174" lon="-0.180879961699247">
        <ele>50.83203125</ele>
        <time>2017-12-18T07:16:23Z</time>
      </trkpt>
      <trkpt lat="38.917009960860014" lon="-0.181239964440465">
        <ele>50.9375</ele>
        <time>2017-12-18T07:18:23Z</time>
      </trkpt>
      <trkpt lat="38.916990011930466" lon="-0.181429982185364">
        <ele>51.16015625</ele>
        <time>2017-12-18T07:20:23Z</time>
      </trkpt>
      <trkpt lat="38.916929997503757" lon="-0.181819992139935">
        <ele>51.5546875</ele>
        <time>2017-12-18T07:22:23Z</time>
      </trkpt>
      <trkpt lat="38.916909964755177" lon="-0.181929962709546">
        <ele>51.6875</ele>
        <time>2017-12-18T07:24:23Z</time>
      </trkpt>
      <trkpt lat="38.916890015825629" lon="-0.182059966027737">
        <ele>51.81640625</ele>
        <time>2017-12-18T07:26:23Z</time>
      </trkpt>
      <trkpt lat="38.916890015825629" lon="-0.182079998776317">
        <ele>51.81640625</ele>
        <time>2017-12-18T07:28:23Z</time>
      </trkpt>
      <trkpt lat="38.916890015825629" lon="-0.182100031524897">
        <ele>51.81640625</ele>
        <time>2017-12-18T07:30:23Z</time>
      </trkpt>
      <trkpt lat="38.916880041360855" lon="-0.182130038738251">
        <ele>51.8828125</ele>
        <time>2017-12-18T07:32:23Z</time>
      </trkpt>
      <trkpt lat="38.916880041360855" lon="-0.182159962132573">
        <ele>51.8828125</ele>
        <time>2017-12-18T07:34:23Z</time>
      </trkpt>
      <trkpt lat="38.916869983077049" lon="-0.182200027629733">
        <ele>51.94921875</ele>
        <time>2017-12-18T07:36:23Z</time>
      </trkpt>
      <trkpt lat="38.916860008612275" lon="-0.182270016521215">
        <ele>52.015625</ele>
        <time>2017-12-18T07:38:23Z</time>
      </trkpt>
      <trkpt lat="38.916850034147501" lon="-0.182379987090826">
        <ele>51.82421875</ele>
        <time>2017-12-18T07:40:23Z</time>
      </trkpt>
      <trkpt lat="38.916850034147501" lon="-0.182490041479468">
        <ele>51.546875</ele>
        <time>2017-12-18T07:42:23Z</time>
      </trkpt>
      <trkpt lat="38.916850034147501" lon="-0.182570004835725">
        <ele>52.0546875</ele>
        <time>2017-12-18T07:44:23Z</time>
      </trkpt>
      <trkpt lat="38.916839975863695" lon="-0.182649968191981">
        <ele>52.12109375</ele>
        <time>2017-12-18T07:46:23Z</time>
      </trkpt>
      <trkpt lat="38.916830001398921" lon="-0.182749964296818">
        <ele>52.12109375</ele>
        <time>2017-12-18T07:48:23Z</time>
      </trkpt>
      <trkpt lat="38.916799994185567" lon="-0.182979963719845">
        <ele>52.12109375</ele>
        <time>2017-12-18T07:50:23Z</time>
      </trkpt>
      <trkpt lat="38.916779961436987" lon="-0.183239970356226">
        <ele>52.140625</ele>
        <time>2017-12-18T07:52:23Z</time>
      </trkpt>
      <trkpt lat="38.916760012507439" lon="-0.183620005846024">
        <ele>52.12109375</ele>
        <time>2017-12-18T07:54:23Z</time>
      </trkpt>
      <trkpt lat="38.916739979758859" lon="-0.184119986370206">
        <ele>52.12109375</ele>
        <time>2017-12-18T07:56:23Z</time>
      </trkpt>
      <trkpt lat="38.916730005294085" lon="-0.184230040758848">
        <ele>52.12109375</ele>
        <time>2017-12-18T07:58:23Z</time>
      </trkpt>
      <trkpt lat="38.916709972545505" lon="-0.184379993006587">
        <ele>52.19140625</ele>
        <time>2017-12-18T08:00:23Z</time>
      </trkpt>
      <trkpt lat="38.916669990867376" lon="-0.184660032391548">
        <ele>52.1015625</ele>
        <time>2017-12-18T08:02:23Z</time>
      </trkpt>
      <trkpt lat="38.916639983654022" lon="-0.184869999065995">
        <ele>51.6796875</ele>
        <time>2017-12-18T08:04:23Z</time>
      </trkpt>
      <trkpt lat="38.916620034724474" lon="-0.185049958527088">
        <ele>52.12109375</ele>
        <time>2017-12-18T08:06:23Z</time>
      </trkpt>
      <trkpt lat="38.916600001975894" lon="-0.185220027342439">
        <ele>52.12109375</ele>
        <time>2017-12-18T08:08:23Z</time>
      </trkpt>
      <trkpt lat="38.916600001975894" lon="-0.185280041769147">
        <ele>52.09375</ele>
        <time>2017-12-18T08:10:23Z</time>
      </trkpt>
      <trkpt lat="38.916560020297766" lon="-0.185629986226559">
        <ele>52.12109375</ele>
        <time>2017-12-18T08:12:23Z</time>
      </trkpt>
      <trkpt lat="38.916560020297766" lon="-0.185780022293329">
        <ele>52.12109375</ele>
        <time>2017-12-18T08:14:23Z</time>
      </trkpt>
      <trkpt lat="38.91654996201396" lon="-0.18599996343255">
        <ele>51.6171875</ele>
        <time>2017-12-18T08:16:23Z</time>
      </trkpt>
      <trkpt lat="38.916509980335832" lon="-0.186440013349056">
        <ele>52.12109375</ele>
        <time>2017-12-18T08:18:23Z</time>
      </trkpt>
      <trkpt lat="38.916479973122478" lon="-0.186839997768402">
        <ele>52.078125</ele>
        <time>2017-12-18T08:20:23Z</time>
      </trkpt>
      <trkpt lat="38.916479973122478" lon="-0.187090029940009">
        <ele>52.078125</ele>
        <time>2017-12-18T08:22:23Z</time>
      </trkpt>
      <trkpt lat="38.916490031406283" lon="-0.187169993296266">
        <ele>52.0859375</ele>
        <time>2017-12-18T08:24:23Z</time>
      </trkpt>
      <trkpt lat="38.916539987549186" lon="-0.187399992719293">
        <ele>52.40625</ele>
        <time>2017-12-18T08:26:23Z</time>
      </trkpt>
      <trkpt lat="38.916530013084412" lon="-0.187720013782382">
        <ele>52.80859375</ele>
        <time>2017-12-18T08:28:23Z</time>
      </trkpt>
      <trkpt lat="38.916509980335832" lon="-0.187980020418763">
        <ele>52.62109375</ele>
        <time>2017-12-18T08:30:23Z</time>
      </trkpt>
      <trkpt lat="38.916490031406283" lon="-0.188180012628436">
        <ele>53.01171875</ele>
        <time>2017-12-18T08:32:23Z</time>
      </trkpt>
      <trkpt lat="38.916469998657703" lon="-0.188329964876175">
        <ele>53.16015625</ele>
        <time>2017-12-18T08:34:23Z</time>
      </trkpt>
      <trkpt lat="38.916409984230995" lon="-0.18853004090488">
        <ele>53.453125</ele>
        <time>2017-12-18T08:36:23Z</time>
      </trkpt>
      <trkpt lat="38.916370002552867" lon="-0.188700025901198">
        <ele>53.6796875</ele>
        <time>2017-12-18T08:38:23Z</time>
      </trkpt>
      <trkpt lat="38.916339995339513" lon="-0.188819970935583">
        <ele>53.78125</ele>
        <time>2017-12-18T08:40:23Z</time>
      </trkpt>
      <trkpt lat="38.916330020874739" lon="-0.188909992575645">
        <ele>53.8125</ele>
        <time>2017-12-18T08:42:23Z</time>
      </trkpt>
      <trkpt lat="38.916330020874739" lon="-0.188979981467128">
        <ele>53.921875</ele>
        <time>2017-12-18T08:44:23Z</time>
      </trkpt>
      <trkpt lat="38.916330020874739" lon="-0.18907000310719">
        <ele>54.2578125</ele>
        <time>2017-12-18T08:46:23Z</time>
      </trkpt>
      <trkpt lat="38.916330020874739" lon="-0.189200006425381">
        <ele>54.1484375</ele>
        <time>2017-12-18T08:48:23Z</time>
      </trkpt>
      <trkpt lat="38.916330020874739" lon="-0.189309976994991">
        <ele>54.1484375</ele>
        <time>2017-12-18T08:50:23Z</time>
      </trkpt>
      <trkpt lat="38.916339995339513" lon="-0.189460013061762">
        <ele>53.94921875</ele>
        <time>2017-12-18T08:52:23Z</time>
      </trkpt>
      <trkpt lat="38.916330020874739" lon="-0.189539976418018">
        <ele>53.94921875</ele>
        <time>2017-12-18T08:54:23Z</time>
      </trkpt>
      <trkpt lat="38.916319962590933" lon="-0.189599990844727">
        <ele>53.94921875</ele>
        <time>2017-12-18T08:56:23Z</time>
      </trkpt>
      <trkpt lat="38.916300013661385" lon="-0.189709961414337">
        <ele>54.484375</ele>
        <time>2017-12-18T08:58:23Z</time>
      </trkpt>
      <trkpt lat="38.916279980912805" lon="-0.189790008589625">
        <ele>54.5859375</ele>
        <time>2017-12-18T09:00:23Z</time>
      </trkpt>
      <trkpt lat="38.916239999234676" lon="-0.18995001912117">
        <ele>54.86328125</ele>
        <time>2017-12-18T09:02:23Z</time>
      </trkpt>
      <trkpt lat="38.916230024769902" lon="-0.190029982477427">
        <ele>55.0390625</ele>
        <time>2017-12-18T09:04:23Z</time>
      </trkpt>
      <trkpt lat="38.916230024769902" lon="-0.190120004117489">
        <ele>55.546875</ele>
        <time>2017-12-18T09:06:23Z</time>
      </trkpt>
      <trkpt lat="38.916230024769902" lon="-0.190220000222325">
        <ele>56</ele>
        <time>2017-12-18T09:08:23Z</time>
      </trkpt>
      <trkpt lat="38.916239999234676" lon="-0.190289989113808">
        <ele>56.08203125</ele>
        <time>2017-12-18T09:10:23Z</time>
      </trkpt>
      <trkpt lat="38.916239999234676" lon="-0.19035997800529">
        <ele>56.12890625</ele>
        <time>2017-12-18T09:12:23Z</time>
      </trkpt>
      <trkpt lat="38.916239999234676" lon="-0.190449999645352">
        <ele>56.40234375</ele>
        <time>2017-12-18T09:14:23Z</time>
      </trkpt>
      <trkpt lat="38.916230024769902" lon="-0.190540021285415">
        <ele>56.51171875</ele>
        <time>2017-12-18T09:16:23Z</time>
      </trkpt>
      <trkpt lat="38.916239999234676" lon="-0.190619984641671">
        <ele>56.96484375</ele>
        <time>2017-12-18T09:18:23Z</time>
      </trkpt>
      <trkpt lat="38.91624997369945" lon="-0.190689973533154">
        <ele>57.17578125</ele>
        <time>2017-12-18T09:20:23Z</time>
      </trkpt>
      <trkpt lat="38.916279980912805" lon="-0.190900024026632">
        <ele>56.99609375</ele>
        <time>2017-12-18T09:22:23Z</time>
      </trkpt>
      <trkpt lat="38.916309988126159" lon="-0.191130023449659">
        <ele>57.39453125</ele>
        <time>2017-12-18T09:24:23Z</time>
      </trkpt>
      <trkpt lat="38.916319962590933" lon="-0.191279975697398">
        <ele>57.296875</ele>
        <time>2017-12-18T09:26:23Z</time>
      </trkpt>
      <trkpt lat="38.916319962590933" lon="-0.191430011764169">
        <ele>57.296875</ele>
        <time>2017-12-18T09:28:23Z</time>
      </trkpt>
      <trkpt lat="38.916309988126159" lon="-0.191530007869005">
        <ele>57.39453125</ele>
        <time>2017-12-18T09:30:23Z</time>
      </trkpt>
      <trkpt lat="38.91627000644803" lon="-0.191709967330098">
        <ele>58</ele>
        <time>2017-12-18T09:32:23Z</time>
      </trkpt>
      <trkpt lat="38.916109995916486" lon="-0.192470038309693">
        <ele>60.56640625</ele>
        <time>2017-12-18T09:34:23Z</time>
      </trkpt>
      <trkpt lat="38.916109995916486" lon="-0.192470038309693">
        <ele>60.56640625</ele>
        <time>2017-12-18T09:36:23Z</time>
      </trkpt>
      <trkpt lat="38.916760012507439" lon="-0.192670030519366">
        <ele>57.0234375</ele>
        <time>2017-12-18T09:38:23Z</time>
      </trkpt>
      <trkpt lat="38.917110040783882" lon="-0.192770026624203">
        <ele>56.15625</ele>
        <time>2017-12-18T09:40:23Z</time>
      </trkpt>
      <trkpt lat="38.917259993031621" lon="-0.192830041050911">
        <ele>56.08203125</ele>
        <time>2017-12-18T09:42:23Z</time>
      </trkpt>
      <trkpt lat="38.917299974709749" lon="-0.192859964445233">
        <ele>56.08203125</ele>
        <time>2017-12-18T09:44:23Z</time>
      </trkpt>
      <trkpt lat="38.917329981923103" lon="-0.192889971658587">
        <ele>56.08203125</ele>
        <time>2017-12-18T09:46:23Z</time>
      </trkpt>
      <trkpt lat="38.917329981923103" lon="-0.192919978871942">
        <ele>56.08203125</ele>
        <time>2017-12-18T09:48:23Z</time>
      </trkpt>
      <trkpt lat="38.917329981923103" lon="-0.192919978871942">
        <ele>56.08203125</ele>
        <time>2017-12-18T09:50:23Z</time>
      </trkpt>
      <trkpt lat="38.917340040206909" lon="-0.192949986085296">
        <ele>56.08203125</ele>
        <time>2017-12-18T09:52:23Z</time>
      </trkpt>
      <trkpt lat="38.917329981923103" lon="-0.19295996055007">
        <ele>56.08203125</ele>
        <time>2017-12-18T09:54:23Z</time>
      </trkpt>
      <trkpt lat="38.917320007458329" lon="-0.192989967763424">
        <ele>56.08203125</ele>
        <time>2017-12-18T09:56:23Z</time>
      </trkpt>
      <trkpt lat="38.916860008612275" lon="-0.194120015949011">
        <ele>57.5</ele>
        <time>2017-12-18T09:58:23Z</time>
      </trkpt>
      <trkpt lat="38.916820026934147" lon="-0.194229986518621">
        <ele>57.68359375</ele>
        <time>2017-12-18T10:00:23Z</time>
      </trkpt>
      <trkpt lat="38.916449965909123" lon="-0.195159958675504">
        <ele>59.12890625</ele>
        <time>2017-12-18T10:02:23Z</time>
      </trkpt>
      <trkpt lat="38.916419958695769" lon="-0.19527998752892">
        <ele>59.12890625</ele>
        <time>2017-12-18T10:04:23Z</time>
      </trkpt>
      <trkpt lat="38.916360028088093" lon="-0.195470005273819">
        <ele>59.546875</ele>
        <time>2017-12-18T10:06:23Z</time>
      </trkpt>
      <trkpt lat="38.916360028088093" lon="-0.195470005273819">
        <ele>59.546875</ele>
        <time>2017-12-18T10:08:23Z</time>
      </trkpt>
      <trkpt lat="38.916370002552867" lon="-0.195470005273819">
        <ele>59.5078125</ele>
        <time>2017-12-18T10:10:23Z</time>
      </trkpt>
      <trkpt lat="38.916379977017641" lon="-0.195470005273819">
        <ele>59.46484375</ele>
        <time>2017-12-18T10:12:23Z</time>
      </trkpt>
      <trkpt lat="38.916390035301447" lon="-0.195470005273819">
        <ele>59.4609375</ele>
        <time>2017-12-18T10:14:23Z</time>
      </trkpt>
      <trkpt lat="38.916400009766221" lon="-0.195470005273819">
        <ele>59.4609375</ele>
        <time>2017-12-18T10:16:23Z</time>
      </trkpt>
      <trkpt lat="38.916409984230995" lon="-0.195470005273819">
        <ele>59.4609375</ele>
        <time>2017-12-18T10:18:23Z</time>
      </trkpt>
      <trkpt lat="38.916419958695769" lon="-0.195470005273819">
        <ele>59.4609375</ele>
        <time>2017-12-18T10:20:23Z</time>
      </trkpt>
      <trkpt lat="38.916430016979575" lon="-0.195470005273819">
        <ele>59.4609375</ele>
        <time>2017-12-18T10:22:23Z</time>
      </trkpt>
      <trkpt lat="38.916439991444349" lon="-0.195479979738593">
        <ele>59.55859375</ele>
        <time>2017-12-18T10:24:23Z</time>
      </trkpt>
      <trkpt lat="38.916449965909123" lon="-0.195479979738593">
        <ele>59.55859375</ele>
        <time>2017-12-18T10:26:23Z</time>
      </trkpt>
      <trkpt lat="38.916460024192929" lon="-0.195490038022399">
        <ele>59.65625</ele>
        <time>2017-12-18T10:28:23Z</time>
      </trkpt>
      <trkpt lat="38.916469998657703" lon="-0.195500012487173">
        <ele>59.7578125</ele>
        <time>2017-12-18T10:30:23Z</time>
      </trkpt>
      <trkpt lat="38.916479973122478" lon="-0.195500012487173">
        <ele>59.76171875</ele>
        <time>2017-12-18T10:32:23Z</time>
      </trkpt>
      <trkpt lat="38.916479973122478" lon="-0.195509986951947">
        <ele>59.859375</ele>
        <time>2017-12-18T10:34:23Z</time>
      </trkpt>
      <trkpt lat="38.916490031406283" lon="-0.195519961416721">
        <ele>59.95703125</ele>
        <time>2017-12-18T10:36:23Z</time>
      </trkpt>
      <trkpt lat="38.916490031406283" lon="-0.195530019700527">
        <ele>60.04296875</ele>
        <time>2017-12-18T10:38:23Z</time>
      </trkpt>
      <trkpt lat="38.916500005871058" lon="-0.195530019700527">
        <ele>60.04296875</ele>
        <time>2017-12-18T10:40:23Z</time>
      </trkpt>
      <trkpt lat="38.916500005871058" lon="-0.195539994165301">
        <ele>60.04296875</ele>
        <time>2017-12-18T10:42:23Z</time>
      </trkpt>
      <trkpt lat="38.916509980335832" lon="-0.195549968630075">
        <ele>60.04296875</ele>
        <time>2017-12-18T10:44:23Z</time>
      </trkpt>
      <trkpt lat="38.916509980335832" lon="-0.195560026913881">
        <ele>60.04296875</ele>
        <time>2017-12-18T10:46:23Z</time>
      </trkpt>
      <trkpt lat="38.916520038619637" lon="-0.195570001378655">
        <ele>60.04296875</ele>
        <time>2017-12-18T10:48:23Z</time>
      </trkpt>
      <trkpt lat="38.916520038619637" lon="-0.19557997584343">
        <ele>60.04296875</ele>
        <time>2017-12-18T10:50:23Z</time>
      </trkpt>
      <trkpt lat="38.916520038619637" lon="-0.195590034127235">
        <ele>60.04296875</ele>
        <time>2017-12-18T10:52:23Z</time>
      </trkpt>
      <trkpt lat="38.916769986972213" lon="-0.195470005273819">
        <ele>59.7265625</ele>
        <time>2017-12-18T10:54:23Z</time>
      </trkpt>
      <trkpt lat="38.916809968650341" lon="-0.195449972525239">
        <ele>59.39453125</ele>
        <time>2017-12-18T10:56:23Z</time>
      </trkpt>
      <trkpt lat="38.916860008612275" lon="-0.195430023595691">
        <ele>59.12109375</ele>
        <time>2017-12-18T10:58:23Z</time>
      </trkpt>
      <trkpt lat="38.916909964755177" lon="-0.195430023595691">
        <ele>59.09765625</ele>
        <time>2017-12-18T11:00:23Z</time>
      </trkpt>
      <trkpt lat="38.916969979181886" lon="-0.195430023595691">
        <ele>58.86328125</ele>
        <time>2017-12-18T11:02:23Z</time>
      </trkpt>
      <trkpt lat="38.91702001914382" lon="-0.195439998060465">
        <ele>58.59765625</ele>
        <time>2017-12-18T11:04:23Z</time>
      </trkpt>
      <trkpt lat="38.917099982500076" lon="-0.195470005273819">
        <ele>58.7421875</ele>
        <time>2017-12-18T11:06:23Z</time>
      </trkpt>
      <trkpt lat="38.917099982500076" lon="-0.195470005273819">
        <ele>58.7421875</ele>
        <time>2017-12-18T11:08:23Z</time>
      </trkpt>
      <trkpt lat="38.917110040783882" lon="-0.195439998060465">
        <ele>58.54296875</ele>
        <time>2017-12-18T11:10:23Z</time>
      </trkpt>
      <trkpt lat="38.917120015248656" lon="-0.195419965311885">
        <ele>58.41015625</ele>
        <time>2017-12-18T11:12:23Z</time>
      </trkpt>
      <trkpt lat="38.917120015248656" lon="-0.195400016382337">
        <ele>58.28125</ele>
        <time>2017-12-18T11:14:23Z</time>
      </trkpt>
      <trkpt lat="38.91712998971343" lon="-0.195389958098531">
        <ele>58.25390625</ele>
        <time>2017-12-18T11:16:23Z</time>
      </trkpt>
      <trkpt lat="38.917139964178205" lon="-0.195379983633757">
        <ele>58.23046875</ele>
        <time>2017-12-18T11:18:23Z</time>
      </trkpt>
      <trkpt lat="38.91715002246201" lon="-0.195360034704208">
        <ele>58.125</ele>
        <time>2017-12-18T11:20:23Z</time>
      </trkpt>
      <trkpt lat="38.917159996926785" lon="-0.195349976420403">
        <ele>58.0859375</ele>
        <time>2017-12-18T11:22:23Z</time>
      </trkpt>
      <trkpt lat="38.917180029675364" lon="-0.195340001955628">
        <ele>58.09375</ele>
        <time>2017-12-18T11:24:23Z</time>
      </trkpt>
      <trkpt lat="38.917190004140139" lon="-0.195330027490854">
        <ele>58.1015625</ele>
        <time>2017-12-18T11:26:23Z</time>
      </trkpt>
      <trkpt lat="38.917199978604913" lon="-0.195319969207048">
        <ele>58.1015625</ele>
        <time>2017-12-18T11:28:23Z</time>
      </trkpt>
      <trkpt lat="38.917220011353493" lon="-0.195319969207048">
        <ele>58.12109375</ele>
        <time>2017-12-18T11:30:23Z</time>
      </trkpt>
      <trkpt lat="38.917229985818267" lon="-0.195309994742274">
        <ele>58.0703125</ele>
        <time>2017-12-18T11:32:23Z</time>
      </trkpt>
      <trkpt lat="38.917239960283041" lon="-0.195309994742274">
        <ele>58.05078125</ele>
        <time>2017-12-18T11:34:23Z</time>
      </trkpt>
      <trkpt lat="38.917259993031621" lon="-0.195309994742274">
        <ele>58.0078125</ele>
        <time>2017-12-18T11:36:23Z</time>
      </trkpt>
      <trkpt lat="38.917269967496395" lon="-0.195309994742274">
        <ele>57.98828125</ele>
        <time>2017-12-18T11:38:23Z</time>
      </trkpt>
      <trkpt lat="38.917290000244975" lon="-0.195309994742274">
        <ele>57.9453125</ele>
        <time>2017-12-18T11:40:23Z</time>
      </trkpt>
      <trkpt lat="38.917299974709749" lon="-0.195309994742274">
        <ele>57.921875</ele>
        <time>2017-12-18T11:42:23Z</time>
      </trkpt>
      <trkpt lat="38.917320007458329" lon="-0.195309994742274">
        <ele>57.91015625</ele>
        <time>2017-12-18T11:44:23Z</time>
      </trkpt>
      <trkpt lat="38.917329981923103" lon="-0.195319969207048">
        <ele>57.91015625</ele>
        <time>2017-12-18T11:46:23Z</time>
      </trkpt>
      <trkpt lat="38.917340040206909" lon="-0.195330027490854">
        <ele>57.91015625</ele>
        <time>2017-12-18T11:48:23Z</time>
      </trkpt>
      <trkpt lat="38.917359989136457" lon="-0.195330027490854">
        <ele>57.91015625</ele>
        <time>2017-12-18T11:50:23Z</time>
      </trkpt>
      <trkpt lat="38.917369963601232" lon="-0.195340001955628">
        <ele>57.91015625</ele>
        <time>2017-12-18T11:52:23Z</time>
      </trkpt>
      <trkpt lat="38.917380021885037" lon="-0.195360034704208">
        <ele>58.015625</ele>
        <time>2017-12-18T11:54:23Z</time>
      </trkpt>
      <trkpt lat="38.917389996349812" lon="-0.195370009168983">
        <ele>58.08203125</ele>
        <time>2017-12-18T11:56:23Z</time>
      </trkpt>
      <trkpt lat="38.917399970814586" lon="-0.195379983633757">
        <ele>58.1484375</ele>
        <time>2017-12-18T11:58:23Z</time>
      </trkpt>
      <trkpt lat="38.917420003563166" lon="-0.195409990847111">
        <ele>58.34375</ele>
        <time>2017-12-18T12:00:23Z</time>
      </trkpt>
      <trkpt lat="38.91742997802794" lon="-0.195419965311885">
        <ele>58.41015625</ele>
        <time>2017-12-18T12:02:23Z</time>
      </trkpt>
      <trkpt lat="38.917440036311746" lon="-0.195439998060465">
        <ele>58.54296875</ele>
        <time>2017-12-18T12:04:23Z</time>
      </trkpt>
      <trkpt lat="38.917440036311746" lon="-0.195460030809045">
        <ele>58.67578125</ele>
        <time>2017-12-18T12:06:23Z</time>
      </trkpt>
      <trkpt lat="38.91745001077652" lon="-0.195479979738593">
        <ele>58.8046875</ele>
        <time>2017-12-18T12:08:23Z</time>
      </trkpt>
      <trkpt lat="38.91745001077652" lon="-0.195500012487173">
        <ele>58.9375</ele>
        <time>2017-12-18T12:10:23Z</time>
      </trkpt>
      <trkpt lat="38.91745001077652" lon="-0.195509986951947">
        <ele>59.00390625</ele>
        <time>2017-12-18T12:12:23Z</time>
      </trkpt>
      <trkpt lat="38.91745001077652" lon="-0.195530019700527">
        <ele>59.12890625</ele>
        <time>2017-12-18T12:14:23Z</time>
      </trkpt>
      <trkpt lat="38.91745001077652" lon="-0.195549968630075">
        <ele>59.12890625</ele>
        <time>2017-12-18T12:16:23Z</time>
      </trkpt>
      <trkpt lat="38.91745001077652" lon="-0.195570001378655">
        <ele>59.12890625</ele>
        <time>2017-12-18T12:18:23Z</time>
      </trkpt>
      <trkpt lat="38.91745001077652" lon="-0.195590034127235">
        <ele>59.12890625</ele>
        <time>2017-12-18T12:20:23Z</time>
      </trkpt>
      <trkpt lat="38.91745001077652" lon="-0.195609983056784">
        <ele>59.12890625</ele>
        <time>2017-12-18T12:22:23Z</time>
      </trkpt>
      <trkpt lat="38.917440036311746" lon="-0.195630015805364">
        <ele>59.12890625</ele>
        <time>2017-12-18T12:24:23Z</time>
      </trkpt>
      <trkpt lat="38.917440036311746" lon="-0.195649964734912">
        <ele>59.12890625</ele>
        <time>2017-12-18T12:26:23Z</time>
      </trkpt>
      <trkpt lat="38.91742997802794" lon="-0.195660023018718">
        <ele>59.12890625</ele>
        <time>2017-12-18T12:28:23Z</time>
      </trkpt>
      <trkpt lat="38.917420003563166" lon="-0.195679971948266">
        <ele>59.12890625</ele>
        <time>2017-12-18T12:30:23Z</time>
      </trkpt>
      <trkpt lat="38.917410029098392" lon="-0.195690030232072">
        <ele>59.12890625</ele>
        <time>2017-12-18T12:32:23Z</time>
      </trkpt>
      <trkpt lat="38.917399970814586" lon="-0.19570997916162">
        <ele>59.12890625</ele>
        <time>2017-12-18T12:34:23Z</time>
      </trkpt>
      <trkpt lat="38.917389996349812" lon="-0.195720037445426">
        <ele>59.12890625</ele>
        <time>2017-12-18T12:36:23Z</time>
      </trkpt>
      <trkpt lat="38.917480017989874" lon="-0.195879964157939">
        <ele>59.12890625</ele>
        <time>2017-12-18T12:38:23Z</time>
      </trkpt>
      <trkpt lat="38.917529974132776" lon="-0.195969985798001">
        <ele>58.875</ele>
        <time>2017-12-18T12:40:23Z</time>
      </trkpt>
      <trkpt lat="38.917540032416582" lon="-0.195979960262775">
        <ele>58.80859375</ele>
        <time>2017-12-18T12:42:23Z</time>
      </trkpt>
      <trkpt lat="38.917599963024259" lon="-0.196039974689484">
        <ele>58.4140625</ele>
        <time>2017-12-18T12:44:23Z</time>
      </trkpt>
      <trkpt lat="38.917689984664321" lon="-0.196099989116192">
        <ele>58</ele>
        <time>2017-12-18T12:46:23Z</time>
      </trkpt>
      <trkpt lat="38.91785996966064" lon="-0.19618003629148">
        <ele>57.62109375</ele>
        <time>2017-12-18T12:48:23Z</time>
      </trkpt>
      <trkpt lat="38.917870027944446" lon="-0.19618003629148">
        <ele>57.5625</ele>
        <time>2017-12-18T12:50:23Z</time>
      </trkpt>
      <trkpt lat="38.917940016835928" lon="-0.196220017969608">
        <ele>57.3515625</ele>
        <time>2017-12-18T12:52:23Z</time>
      </trkpt>
      <trkpt lat="38.91798997297883" lon="-0.196250025182962">
        <ele>57.29296875</ele>
        <time>2017-12-18T12:54:23Z</time>
      </trkpt>
      <trkpt lat="38.918040012940764" lon="-0.196290006861091">
        <ele>57.234375</ele>
        <time>2017-12-18T12:56:23Z</time>
      </trkpt>
      <trkpt lat="38.918079994618893" lon="-0.196329988539219">
        <ele>57.5234375</ele>
        <time>2017-12-18T12:58:23Z</time>
      </trkpt>
      <trkpt lat="38.918149983510375" lon="-0.196429984644055">
        <ele>57.4375</ele>
        <time>2017-12-18T13:00:23Z</time>
      </trkpt>
      <trkpt lat="38.918209997937083" lon="-0.196550013497472">
        <ele>56.41015625</ele>
        <time>2017-12-18T13:02:23Z</time>
      </trkpt>
      <trkpt lat="38.918230030685663" lon="-0.1965899951756">
        <ele>55.68359375</ele>
        <time>2017-12-18T13:04:23Z</time>
      </trkpt>
      <trkpt lat="38.918249979615211" lon="-0.196640035137534">
        <ele>54.80078125</ele>
        <time>2017-12-18T13:06:23Z</time>
      </trkpt>
      <trkpt lat="38.918249979615211" lon="-0.196680016815662">
        <ele>54.27734375</ele>
        <time>2017-12-18T13:08:23Z</time>
      </trkpt>
      <trkpt lat="38.918249979615211" lon="-0.196740031242371">
        <ele>53.5</ele>
        <time>2017-12-18T13:10:23Z</time>
      </trkpt>
      <trkpt lat="38.918219972401857" lon="-0.196810020133853">
        <ele>53.453125</ele>
        <time>2017-12-18T13:12:23Z</time>
      </trkpt>
      <trkpt lat="38.918089969083667" lon="-0.197179997339845">
        <ele>52.3671875</ele>
        <time>2017-12-18T13:14:23Z</time>
      </trkpt>
      <trkpt lat="38.918070020154119" lon="-0.197240011766553">
        <ele>52.24609375</ele>
        <time>2017-12-18T13:16:23Z</time>
      </trkpt>
      <trkpt lat="38.918059961870313" lon="-0.197279993444681">
        <ele>51.92578125</ele>
        <time>2017-12-18T13:18:23Z</time>
      </trkpt>
      <trkpt lat="38.918070020154119" lon="-0.197319975122809">
        <ele>51.26171875</ele>
        <time>2017-12-18T13:20:23Z</time>
      </trkpt>
      <trkpt lat="38.918079994618893" lon="-0.197349982336164">
        <ele>50.734375</ele>
        <time>2017-12-18T13:22:23Z</time>
      </trkpt>
      <trkpt lat="38.918089969083667" lon="-0.197360040619969">
        <ele>50.40625</ele>
        <time>2017-12-18T13:24:23Z</time>
      </trkpt>
      <trkpt lat="38.918119976297021" lon="-0.197349982336164">
        <ele>49.8125</ele>
        <time>2017-12-18T13:26:23Z</time>
      </trkpt>
      <trkpt lat="38.918140009045601" lon="-0.197330033406615">
        <ele>49.546875</ele>
        <time>2017-12-18T13:28:23Z</time>
      </trkpt>
      <trkpt lat="38.918149983510375" lon="-0.197300026193261">
        <ele>49.640625</ele>
        <time>2017-12-18T13:30:23Z</time>
      </trkpt>
      <trkpt lat="38.918160041794181" lon="-0.197249986231327">
        <ele>49.765625</ele>
        <time>2017-12-18T13:32:23Z</time>
      </trkpt>
      <trkpt lat="38.918179990723729" lon="-0.197189971804619">
        <ele>49.56640625</ele>
        <time>2017-12-18T13:34:23Z</time>
      </trkpt>
      <trkpt lat="38.918189965188503" lon="-0.197140015661716">
        <ele>49.703125</ele>
        <time>2017-12-18T13:36:23Z</time>
      </trkpt>
      <trkpt lat="38.918230030685663" lon="-0.197029961273074">
        <ele>49.54296875</ele>
        <time>2017-12-18T13:38:23Z</time>
      </trkpt>
      <trkpt lat="38.91830999404192" lon="-0.196900041773915">
        <ele>49.51953125</ele>
        <time>2017-12-18T13:40:23Z</time>
      </trkpt>
      <trkpt lat="38.9183300267905" lon="-0.196870034560561">
        <ele>49.55859375</ele>
        <time>2017-12-18T13:42:23Z</time>
      </trkpt>
      <trkpt lat="38.918349975720048" lon="-0.196850001811981">
        <ele>49.44140625</ele>
        <time>2017-12-18T13:44:23Z</time>
      </trkpt>
      <trkpt lat="38.918370008468628" lon="-0.196840027347207">
        <ele>49.11328125</ele>
        <time>2017-12-18T13:46:23Z</time>
      </trkpt>
      <trkpt lat="38.918390041217208" lon="-0.196840027347207">
        <ele>48.59765625</ele>
        <time>2017-12-18T13:48:23Z</time>
      </trkpt>
      <trkpt lat="38.91841996461153" lon="-0.196859976276755">
        <ele>47.5390625</ele>
        <time>2017-12-18T13:50:23Z</time>
      </trkpt>
      <trkpt lat="38.918539993464947" lon="-0.196959972381592">
        <ele>46.171875</ele>
        <time>2017-12-18T13:52:23Z</time>
      </trkpt>
      <trkpt lat="38.918570000678301" lon="-0.196989979594946">
        <ele>46.37890625</ele>
        <time>2017-12-18T13:54:23Z</time>
      </trkpt>
      <trkpt lat="38.918590033426881" lon="-0.1970199868083">
        <ele>46.6484375</ele>
        <time>2017-12-18T13:56:23Z</time>
      </trkpt>
      <trkpt lat="38.918600007891655" lon="-0.197070026770234">
        <ele>47.20703125</ele>
        <time>2017-12-18T13:58:23Z</time>
      </trkpt>
      <trkpt lat="38.918600007891655" lon="-0.197110008448362">
        <ele>47.6484375</ele>
        <time>2017-12-18T14:00:23Z</time>
      </trkpt>
      <trkpt lat="38.918579975143075" lon="-0.197170022875071">
        <ele>48.109375</ele>
        <time>2017-12-18T14:02:23Z</time>
      </trkpt>
      <trkpt lat="38.918560026213527" lon="-0.197249986231327">
        <ele>48.37109375</ele>
        <time>2017-12-18T14:04:23Z</time>
      </trkpt>
      <trkpt lat="38.918319968506694" lon="-0.197790032252669">
        <ele>47.9609375</ele>
        <time>2017-12-18T14:06:23Z</time>
      </trkpt>
      <trkpt lat="38.918300019577146" lon="-0.197839988395572">
        <ele>48.015625</ele>
        <time>2017-12-18T14:08:23Z</time>
      </trkpt>
      <trkpt lat="38.918300019577146" lon="-0.1978799700737">
        <ele>48.32421875</ele>
        <time>2017-12-18T14:10:23Z</time>
      </trkpt>
      <trkpt lat="38.918300019577146" lon="-0.197930010035634">
        <ele>48.6953125</ele>
        <time>2017-12-18T14:12:23Z</time>
      </trkpt>
      <trkpt lat="38.91830999404192" lon="-0.197990024462342">
        <ele>49.90234375</ele>
        <time>2017-12-18T14:14:23Z</time>
      </trkpt>
      <trkpt lat="38.9183300267905" lon="-0.19805003888905">
        <ele>51.2890625</ele>
        <time>2017-12-18T14:16:23Z</time>
      </trkpt>
      <trkpt lat="38.918349975720048" lon="-0.198099995031953">
        <ele>52.2109375</ele>
        <time>2017-12-18T14:18:23Z</time>
      </trkpt>
      <trkpt lat="38.918579975143075" lon="-0.19878001883626">
        <ele>56.08203125</ele>
        <time>2017-12-18T14:20:23Z</time>
      </trkpt>
      <trkpt lat="38.918700003996491" lon="-0.199110014364123">
        <ele>56.08203125</ele>
        <time>2017-12-18T14:22:23Z</time>
      </trkpt>
      <trkpt lat="38.918730011209846" lon="-0.199200036004186">
        <ele>56.08203125</ele>
        <time>2017-12-18T14:24:23Z</time>
      </trkpt>
      <trkpt lat="38.918790025636554" lon="-0.199370021000504">
        <ele>56.08203125</ele>
        <time>2017-12-18T14:26:23Z</time>
      </trkpt>
      <trkpt lat="38.918839981779456" lon="-0.199530031532049">
        <ele>56.08203125</ele>
        <time>2017-12-18T14:28:23Z</time>
      </trkpt>
      <trkpt lat="38.91886998899281" lon="-0.199609994888306">
        <ele>56.140625</ele>
        <time>2017-12-18T14:30:23Z</time>
      </trkpt>
      <trkpt lat="38.918909970670938" lon="-0.199670009315014">
        <ele>56.390625</ele>
        <time>2017-12-18T14:32:23Z</time>
      </trkpt>
      <trkpt lat="38.918979959562421" lon="-0.199779979884624">
        <ele>56.08203125</ele>
        <time>2017-12-18T14:34:23Z</time>
      </trkpt>
      <trkpt lat="38.919069981202483" lon="-0.199890034273267">
        <ele>56.140625</ele>
        <time>2017-12-18T14:36:23Z</time>
      </trkpt>
      <trkpt lat="38.919099988415837" lon="-0.199949964880943">
        <ele>56.5234375</ele>
        <time>2017-12-18T14:38:23Z</time>
      </trkpt>
      <trkpt lat="38.919120021164417" lon="-0.200009979307652">
        <ele>56.75</ele>
        <time>2017-12-18T14:40:23Z</time>
      </trkpt>
      <trkpt lat="38.919120021164417" lon="-0.200079968199134">
        <ele>56.796875</ele>
        <time>2017-12-18T14:42:23Z</time>
      </trkpt>
      <trkpt lat="38.919120021164417" lon="-0.20017996430397">
        <ele>56.99609375</ele>
        <time>2017-12-18T14:44:23Z</time>
      </trkpt>
      <trkpt lat="38.919129995629191" lon="-0.200279960408807">
        <ele>56.99609375</ele>
        <time>2017-12-18T14:46:23Z</time>
      </trkpt>
      <trkpt lat="38.919139970093966" lon="-0.200350033119321">
        <ele>56.99609375</ele>
        <time>2017-12-18T14:48:23Z</time>
      </trkpt>
      <trkpt lat="38.919489998370409" lon="-0.202320031821728">
        <ele>59.59375</ele>
        <time>2017-12-18T14:50:23Z</time>
      </trkpt>
      <trkpt lat="38.919489998370409" lon="-0.202320031821728">
        <ele>59.59375</ele>
        <time>2017-12-18T14:52:23Z</time>
      </trkpt>
      <trkpt lat="38.919420009478927" lon="-0.202339980751276">
        <ele>59.71875</ele>
        <time>2017-12-18T14:54:23Z</time>
      </trkpt>
      <trkpt lat="38.919339962303638" lon="-0.202379962429404">
        <ele>60.04296875</ele>
        <time>2017-12-18T14:56:23Z</time>
      </trkpt>
      <trkpt lat="38.919280031695962" lon="-0.202409969642758">
        <ele>60.04296875</ele>
        <time>2017-12-18T14:58:23Z</time>
      </trkpt>
      <trkpt lat="38.9191900100559" lon="-0.202469984069467">
        <ele>60.04296875</ele>
        <time>2017-12-18T15:00:23Z</time>
      </trkpt>
      <trkpt lat="38.919180035591125" lon="-0.202479958534241">
        <ele>60.04296875</ele>
        <time>2017-12-18T15:02:23Z</time>
      </trkpt>
      <trkpt lat="38.919139970093966" lon="-0.202520024031401">
        <ele>60.04296875</ele>
        <time>2017-12-18T15:04:23Z</time>
      </trkpt>
      <trkpt lat="38.919080039486289" lon="-0.202590012922883">
        <ele>60.04296875</ele>
        <time>2017-12-18T15:06:23Z</time>
      </trkpt>
      <trkpt lat="38.919029999524355" lon="-0.202629994601011">
        <ele>60.04296875</ele>
        <time>2017-12-18T15:08:23Z</time>
      </trkpt>
      <trkpt lat="38.918969985097647" lon="-0.202680034562945">
        <ele>60.04296875</ele>
        <time>2017-12-18T15:10:23Z</time>
      </trkpt>
      <trkpt lat="38.918939977884293" lon="-0.202699983492494">
        <ele>60.04296875</ele>
        <time>2017-12-18T15:12:23Z</time>
      </trkpt>
      <trkpt lat="38.918920028954744" lon="-0.202720016241074">
        <ele>60.04296875</ele>
        <time>2017-12-18T15:14:23Z</time>
      </trkpt>
      <trkpt lat="38.918839981779456" lon="-0.202759997919202">
        <ele>60.04296875</ele>
        <time>2017-12-18T15:16:23Z</time>
      </trkpt>
      <trkpt lat="38.918660022318363" lon="-0.202859994024038">
        <ele>60.04296875</ele>
        <time>2017-12-18T15:18:23Z</time>
      </trkpt>
      <trkpt lat="38.918479979038239" lon="-0.202940041199327">
        <ele>60.04296875</ele>
        <time>2017-12-18T15:20:23Z</time>
      </trkpt>
      <trkpt lat="38.91830999404192" lon="-0.203010030090809">
        <ele>60.59765625</ele>
        <time>2017-12-18T15:22:23Z</time>
      </trkpt>
      <trkpt lat="38.918209997937083" lon="-0.203059986233711">
        <ele>60.95703125</ele>
        <time>2017-12-18T15:24:23Z</time>
      </trkpt>
      <trkpt lat="38.918160041794181" lon="-0.203080018982291">
        <ele>60.95703125</ele>
        <time>2017-12-18T15:26:23Z</time>
      </trkpt>
      <trkpt lat="38.918130034580827" lon="-0.203089993447065">
        <ele>60.95703125</ele>
        <time>2017-12-18T15:28:23Z</time>
      </trkpt>
      <trkpt lat="38.918070020154119" lon="-0.203099967911839">
        <ele>60.95703125</ele>
        <time>2017-12-18T15:30:23Z</time>
      </trkpt>
      <trkpt lat="38.917959965765476" lon="-0.203120000660419">
        <ele>60.95703125</ele>
        <time>2017-12-18T15:32:23Z</time>
      </trkpt>
      <trkpt lat="38.917829962447286" lon="-0.203129975125194">
        <ele>60.95703125</ele>
        <time>2017-12-18T15:34:23Z</time>
      </trkpt>
      <trkpt lat="38.917689984664321" lon="-0.203159982338548">
        <ele>60.95703125</ele>
        <time>2017-12-18T15:36:23Z</time>
      </trkpt>
      <trkpt lat="38.917589988559484" lon="-0.203170040622354">
        <ele>61.53125</ele>
        <time>2017-12-18T15:38:23Z</time>
      </trkpt>
      <trkpt lat="38.917340040206909" lon="-0.203210022300482">
        <ele>61.68359375</ele>
        <time>2017-12-18T15:40:23Z</time>
      </trkpt>
      <trkpt lat="38.917029993608594" lon="-0.203289985656738">
        <ele>61.4921875</ele>
        <time>2017-12-18T15:42:23Z</time>
      </trkpt>
      <trkpt lat="38.916969979181886" lon="-0.203310018405318">
        <ele>61.1796875</ele>
        <time>2017-12-18T15:44:23Z</time>
      </trkpt>
      <trkpt lat="38.916890015825629" lon="-0.203340025618672">
        <ele>61.08203125</ele>
        <time>2017-12-18T15:46:23Z</time>
      </trkpt>
      <trkpt lat="38.916850034147501" lon="-0.203350000083447">
        <ele>61.25390625</ele>
        <time>2017-12-18T15:48:23Z</time>
      </trkpt>
      <trkpt lat="38.916799994185567" lon="-0.203370032832026">
        <ele>61.40625</ele>
        <time>2017-12-18T15:50:23Z</time>
      </trkpt>
      <trkpt lat="38.916750038042665" lon="-0.203380007296801">
        <ele>61.46484375</ele>
        <time>2017-12-18T15:52:23Z</time>
      </trkpt>
      <trkpt lat="38.91672003082931" lon="-0.203389981761575">
        <ele>61.34375</ele>
        <time>2017-12-18T15:54:23Z</time>
      </trkpt>
      <trkpt lat="38.916660016402602" lon="-0.203400040045381">
        <ele>60.96484375</ele>
        <time>2017-12-18T15:56:23Z</time>
      </trkpt>
      <trkpt lat="38.916560020297766" lon="-0.203410014510155">
        <ele>60.95703125</ele>
        <time>2017-12-18T15:58:23Z</time>
      </trkpt>
      <trkpt lat="38.916479973122478" lon="-0.203419988974929">
        <ele>60.95703125</ele>
        <time>2017-12-18T16:00:23Z</time>
      </trkpt>
      <trkpt lat="38.916370002552867" lon="-0.203440021723509">
        <ele>60.95703125</ele>
        <time>2017-12-18T16:02:23Z</time>
      </trkpt>
      <trkpt lat="38.916309988126159" lon="-0.203449996188283">
        <ele>60.95703125</ele>
        <time>2017-12-18T16:04:23Z</time>
      </trkpt>
      <trkpt lat="38.916230024769902" lon="-0.203459970653057">
        <ele>60.7890625</ele>
        <time>2017-12-18T16:06:23Z</time>
      </trkpt>
      <trkpt lat="38.916170010343194" lon="-0.203480003401637">
        <ele>60.6015625</ele>
        <time>2017-12-18T16:08:23Z</time>
      </trkpt>
      <trkpt lat="38.916109995916486" lon="-0.203500036150217">
        <ele>60.14453125</ele>
        <time>2017-12-18T16:10:23Z</time>
      </trkpt>
      <trkpt lat="38.916089963167906" lon="-0.203519985079765">
        <ele>59.87109375</ele>
        <time>2017-12-18T16:12:23Z</time>
      </trkpt>
      <trkpt lat="38.916070014238358" lon="-0.203540017828345">
        <ele>59.5703125</ele>
        <time>2017-12-18T16:14:23Z</time>
      </trkpt>
      <trkpt lat="38.916070014238358" lon="-0.203549992293119">
        <ele>59.62890625</ele>
        <time>2017-12-18T16:16:23Z</time>
      </trkpt>
      <trkpt lat="38.916019974276423" lon="-0.203600032255054">
        <ele>59.2890625</ele>
        <time>2017-12-18T16:18:23Z</time>
      </trkpt>
      <trkpt lat="38.915949985384941" lon="-0.20365996286273">
        <ele>59.16796875</ele>
        <time>2017-12-18T16:20:23Z</time>
      </trkpt>
      <trkpt lat="38.915859963744879" lon="-0.203719977289438">
        <ele>58.99609375</ele>
        <time>2017-12-18T16:22:23Z</time>
      </trkpt>
      <trkpt lat="38.91568997874856" lon="-0.203819973394275">
        <ele>59.078125</ele>
        <time>2017-12-18T16:24:23Z</time>
      </trkpt>
      <trkpt lat="38.915499961003661" lon="-0.203949976712465">
        <ele>59.10546875</ele>
        <time>2017-12-18T16:26:23Z</time>
      </trkpt>
      <trkpt lat="38.915399964898825" lon="-0.204009991139174">
        <ele>59.94921875</ele>
        <time>2017-12-18T16:28:23Z</time>
      </trkpt>
      <trkpt lat="38.915320001542568" lon="-0.204039998352528">
        <ele>60.0078125</ele>
        <time>2017-12-18T16:30:23Z</time>
      </trkpt>
      <trkpt lat="38.915180023759604" lon="-0.204100012779236">
        <ele>59.67578125</ele>
        <time>2017-12-18T16:32:23Z</time>
      </trkpt>
      <trkpt lat="38.915029987692833" lon="-0.204179976135492">
        <ele>58.67578125</ele>
        <time>2017-12-18T16:34:23Z</time>
      </trkpt>
      <trkpt lat="38.914959998801351" lon="-0.204239990562201">
        <ele>59.34765625</ele>
        <time>2017-12-18T16:36:23Z</time>
      </trkpt>
      <trkpt lat="38.914899984374642" lon="-0.204330012202263">
        <ele>61.72265625</ele>
        <time>2017-12-18T16:38:23Z</time>
      </trkpt>
      <trkpt lat="38.914739973843098" lon="-0.204579960554838">
        <ele>63.0078125</ele>
        <time>2017-12-18T16:40:23Z</time>
      </trkpt>
      <trkpt lat="38.914690017700195" lon="-0.204639974981546">
        <ele>63.421875</ele>
        <time>2017-12-18T16:42:23Z</time>
      </trkpt>
      <trkpt lat="38.914679959416389" lon="-0.204650033265352">
        <ele>63.51171875</ele>
        <time>2017-12-18T16:44:23Z</time>
      </trkpt>
      <trkpt lat="38.914599996060133" lon="-0.204720022156835">
        <ele>64.0078125</ele>
        <time>2017-12-18T16:46:23Z</time>
      </trkpt>
      <trkpt lat="38.914499999955297" lon="-0.204799985513091">
        <ele>64.046875</ele>
        <time>2017-12-18T16:48:23Z</time>
      </trkpt>
      <trkpt lat="38.914469992741942" lon="-0.204820018261671">
        <ele>64.16796875</ele>
        <time>2017-12-18T16:50:23Z</time>
      </trkpt>
      <trkpt lat="38.91440000385046" lon="-0.204859999939799">
        <ele>64.62109375</ele>
        <time>2017-12-18T16:52:23Z</time>
      </trkpt>
      <trkpt lat="38.914119964465499" lon="-0.20501003600657">
        <ele>64.921875</ele>
        <time>2017-12-18T16:54:23Z</time>
      </trkpt>
      <trkpt lat="38.914049975574017" lon="-0.205069966614246">
        <ele>64.921875</ele>
        <time>2017-12-18T16:56:23Z</time>
      </trkpt>
      <trkpt lat="38.91394997946918" lon="-0.205210028216243">
        <ele>64.921875</ele>
        <time>2017-12-18T16:58:23Z</time>
      </trkpt>
      <trkpt lat="38.913800027221441" lon="-0.205359980463982">
        <ele>66.140625</ele>
        <time>2017-12-18T17:00:23Z</time>
      </trkpt>
      <trkpt lat="38.913640016689897" lon="-0.205510016530752">
        <ele>66.40234375</ele>
        <time>2017-12-18T17:02:23Z</time>
      </trkpt>
      <trkpt lat="38.913319995626807" lon="-0.205719983205199">
        <ele>67.0625</ele>
        <time>2017-12-18T17:04:23Z</time>
      </trkpt>
      <trkpt lat="38.913080021739006" lon="-0.205840012058616">
        <ele>67.96875</ele>
        <time>2017-12-18T17:06:23Z</time>
      </trkpt>
      <trkpt lat="38.912760000675917" lon="-0.206030029803514">
        <ele>67.96875</ele>
        <time>2017-12-18T17:08:23Z</time>
      </trkpt>
      <trkpt lat="38.912669979035854" lon="-0.206079985946417">
        <ele>67.96875</ele>
        <time>2017-12-18T17:10:23Z</time>
      </trkpt>
      <trkpt lat="38.912569982931018" lon="-0.206160033121705">
        <ele>67.3671875</ele>
        <time>2017-12-18T17:12:23Z</time>
      </trkpt>
      <trkpt lat="38.912479961290956" lon="-0.206219963729382">
        <ele>67.5</ele>
        <time>2017-12-18T17:14:23Z</time>
      </trkpt>
      <trkpt lat="38.912379965186119" lon="-0.206309985369444">
        <ele>68.26171875</ele>
        <time>2017-12-18T17:16:23Z</time>
      </trkpt>
      <trkpt lat="38.912309976294637" lon="-0.206369999796152">
        <ele>68.57421875</ele>
        <time>2017-12-18T17:18:23Z</time>
      </trkpt>
      <trkpt lat="38.9122099801898" lon="-0.206460021436214">
        <ele>68.17578125</ele>
        <time>2017-12-18T17:20:23Z</time>
      </trkpt>
      <trkpt lat="38.91210000962019" lon="-0.206539984792471">
        <ele>67.8046875</ele>
        <time>2017-12-18T17:22:23Z</time>
      </trkpt>
      <trkpt lat="38.911960031837225" lon="-0.206650039181113">
        <ele>67.96875</ele>
        <time>2017-12-18T17:24:23Z</time>
      </trkpt>
      <trkpt lat="38.911840002983809" lon="-0.20675003528595">
        <ele>67.93359375</ele>
        <time>2017-12-18T17:26:23Z</time>
      </trkpt>
      <trkpt lat="38.911730032414198" lon="-0.206850031390786">
        <ele>67.65625</ele>
        <time>2017-12-18T17:28:23Z</time>
      </trkpt>
      <trkpt lat="38.911640010774136" lon="-0.206929994747043">
        <ele>66.95703125</ele>
        <time>2017-12-18T17:30:23Z</time>
      </trkpt>
      <trkpt lat="38.911589970812201" lon="-0.206980034708977">
        <ele>66.953125</ele>
        <time>2017-12-18T17:32:23Z</time>
      </trkpt>
      <trkpt lat="38.911489974707365" lon="-0.207080030813813">
        <ele>67.0546875</ele>
        <time>2017-12-18T17:34:23Z</time>
      </trkpt>
      <trkpt lat="38.911410011351109" lon="-0.207169968634844">
        <ele>67.0546875</ele>
        <time>2017-12-18T17:36:23Z</time>
      </trkpt>
      <trkpt lat="38.911389978602529" lon="-0.207190001383424">
        <ele>67.0546875</ele>
        <time>2017-12-18T17:38:23Z</time>
      </trkpt>
      <trkpt lat="38.911310015246272" lon="-0.207259990274906">
        <ele>67.0546875</ele>
        <time>2017-12-18T17:40:23Z</time>
      </trkpt>
      <trkpt lat="38.911280008032918" lon="-0.207299971953034">
        <ele>67.2265625</ele>
        <time>2017-12-18T17:42:23Z</time>
      </trkpt>
      <trkpt lat="38.91119996085763" lon="-0.207380019128323">
        <ele>67.40625</ele>
        <time>2017-12-18T17:44:23Z</time>
      </trkpt>
      <trkpt lat="38.911140030249953" lon="-0.207440033555031">
        <ele>67.8515625</ele>
        <time>2017-12-18T17:46:23Z</time>
      </trkpt>
      <trkpt lat="38.911110023036599" lon="-0.207459982484579">
        <ele>67.94921875</ele>
        <time>2017-12-18T17:48:23Z</time>
      </trkpt>
      <trkpt lat="38.911080015823245" lon="-0.207499964162707">
        <ele>67.859375</ele>
        <time>2017-12-18T17:50:23Z</time>
      </trkpt>
      <trkpt lat="38.911040034145117" lon="-0.207529971376061">
        <ele>67.83203125</ele>
        <time>2017-12-18T17:52:23Z</time>
      </trkpt>
      <trkpt lat="38.910980019718409" lon="-0.207570036873221">
        <ele>67.96875</ele>
        <time>2017-12-18T17:54:23Z</time>
      </trkpt>
      <trkpt lat="38.910929979756474" lon="-0.207619993016124">
        <ele>67.96875</ele>
        <time>2017-12-18T17:56:23Z</time>
      </trkpt>
      <trkpt lat="38.910839958116412" lon="-0.207710014656186">
        <ele>68.55078125</ele>
        <time>2017-12-18T17:58:23Z</time>
      </trkpt>
      <trkpt lat="38.910780027508736" lon="-0.207780003547668">
        <ele>68.8828125</ele>
        <time>2017-12-18T18:00:23Z</time>
      </trkpt>
      <trkpt lat="38.910729987546802" lon="-0.207840017974377">
        <ele>68.8828125</ele>
        <time>2017-12-18T18:02:23Z</time>
      </trkpt>
      <trkpt lat="38.910669973120093" lon="-0.207910006865859">
        <ele>68.8828125</ele>
        <time>2017-12-18T18:04:23Z</time>
      </trkpt>
      <trkpt lat="38.910629991441965" lon="-0.207959963008761">
        <ele>68.8828125</ele>
        <time>2017-12-18T18:06:23Z</time>
      </trkpt>
      <trkpt lat="38.910599984228611" lon="-0.208000028505921">
        <ele>68.8828125</ele>
        <time>2017-12-18T18:08:23Z</time>
      </trkpt>
      <trkpt lat="38.910560002550483" lon="-0.20804001018405">
        <ele>68.8828125</ele>
        <time>2017-12-18T18:10:23Z</time>
      </trkpt>
      <trkpt lat="38.910520020872355" lon="-0.208079991862178">
        <ele>68.8828125</ele>
        <time>2017-12-18T18:12:23Z</time>
      </trkpt>
      <trkpt lat="38.91046998091042" lon="-0.208140006288886">
        <ele>69.04296875</ele>
        <time>2017-12-18T18:14:23Z</time>
      </trkpt>
      <trkpt lat="38.910409966483712" lon="-0.208200020715594">
        <ele>69.44921875</ele>
        <time>2017-12-18T18:16:23Z</time>
      </trkpt>
      <trkpt lat="38.91036001034081" lon="-0.208249976858497">
        <ele>69.76953125</ele>
        <time>2017-12-18T18:18:23Z</time>
      </trkpt>
      <trkpt lat="38.910330003127456" lon="-0.208270009607077">
        <ele>69.875</ele>
        <time>2017-12-18T18:20:23Z</time>
      </trkpt>
      <trkpt lat="38.910269988700747" lon="-0.208330024033785">
        <ele>70.1015625</ele>
        <time>2017-12-18T18:22:23Z</time>
      </trkpt>
      <trkpt lat="38.910190025344491" lon="-0.208400012925267">
        <ele>70.18359375</ele>
        <time>2017-12-18T18:24:23Z</time>
      </trkpt>
      <trkpt lat="38.910079970955849" lon="-0.208479976281524">
        <ele>70.9765625</ele>
        <time>2017-12-18T18:26:23Z</time>
      </trkpt>
      <trkpt lat="38.909990033134818" lon="-0.208549965173006">
        <ele>71.46484375</ele>
        <time>2017-12-18T18:28:23Z</time>
      </trkpt>
      <trkpt lat="38.909890037029982" lon="-0.208630012348294">
        <ele>71.91015625</ele>
        <time>2017-12-18T18:30:23Z</time>
      </trkpt>
      <trkpt lat="38.909790040925145" lon="-0.208709975704551">
        <ele>71.9296875</ele>
        <time>2017-12-18T18:32:23Z</time>
      </trkpt>
      <trkpt lat="38.909670012071729" lon="-0.208799997344613">
        <ele>71.9296875</ele>
        <time>2017-12-18T18:34:23Z</time>
      </trkpt>
      <trkpt lat="38.909579990431666" lon="-0.208860011771321">
        <ele>71.9296875</ele>
        <time>2017-12-18T18:36:23Z</time>
      </trkpt>
      <trkpt lat="38.90947999432683" lon="-0.208939975127578">
        <ele>71.9296875</ele>
        <time>2017-12-18T18:38:23Z</time>
      </trkpt>
      <trkpt lat="38.909419979900122" lon="-0.208980040624738">
        <ele>71.9296875</ele>
        <time>2017-12-18T18:40:23Z</time>
      </trkpt>
      <trkpt lat="38.909389972686768" lon="-0.208999989554286">
        <ele>71.9296875</ele>
        <time>2017-12-18T18:42:23Z</time>
      </trkpt>
      <trkpt lat="38.909359965473413" lon="-0.209020022302866">
        <ele>71.9296875</ele>
        <time>2017-12-18T18:44:23Z</time>
      </trkpt>
      <trkpt lat="38.909340016543865" lon="-0.20902999676764">
        <ele>71.9296875</ele>
        <time>2017-12-18T18:46:23Z</time>
      </trkpt>
      <trkpt lat="38.909310009330511" lon="-0.209060003980994">
        <ele>71.9296875</ele>
        <time>2017-12-18T18:48:23Z</time>
      </trkpt>
      <trkpt lat="38.909289976581931" lon="-0.209090011194348">
        <ele>71.9296875</ele>
        <time>2017-12-18T18:50:23Z</time>
      </trkpt>
      <trkpt lat="38.909259969368577" lon="-0.209109960123897">
        <ele>71.9296875</ele>
        <time>2017-12-18T18:52:23Z</time>
      </trkpt>
      <trkpt lat="38.909240020439029" lon="-0.209139967337251">
        <ele>71.9296875</ele>
        <time>2017-12-18T18:54:23Z</time>
      </trkpt>
      <trkpt lat="38.909219987690449" lon="-0.209169974550605">
        <ele>71.9296875</ele>
        <time>2017-12-18T18:56:23Z</time>
      </trkpt>
      <trkpt lat="38.909210013225675" lon="-0.209190007299185">
        <ele>71.9296875</ele>
        <time>2017-12-18T18:58:23Z</time>
      </trkpt>
      <trkpt lat="38.909180006012321" lon="-0.209220014512539">
        <ele>71.9296875</ele>
        <time>2017-12-18T19:00:23Z</time>
      </trkpt>
      <trkpt lat="38.909149998798966" lon="-0.209250021725893">
        <ele>71.9296875</ele>
        <time>2017-12-18T19:02:23Z</time>
      </trkpt>
      <trkpt lat="38.909119991585612" lon="-0.209269970655441">
        <ele>71.9296875</ele>
        <time>2017-12-18T19:04:23Z</time>
      </trkpt>
      <trkpt lat="38.909080009907484" lon="-0.209299977868795">
        <ele>71.9296875</ele>
        <time>2017-12-18T19:06:23Z</time>
      </trkpt>
      <trkpt lat="38.909040028229356" lon="-0.20932998508215">
        <ele>71.98828125</ele>
        <time>2017-12-18T19:08:23Z</time>
      </trkpt>
      <trkpt lat="38.909010021016002" lon="-0.209359992295504">
        <ele>72.02734375</ele>
        <time>2017-12-18T19:10:23Z</time>
      </trkpt>
      <trkpt lat="38.908959981054068" lon="-0.209399973973632">
        <ele>72.0390625</ele>
        <time>2017-12-18T19:12:23Z</time>
      </trkpt>
      <trkpt lat="38.908919999375939" lon="-0.209440039470792">
        <ele>72.26171875</ele>
        <time>2017-12-18T19:14:23Z</time>
      </trkpt>
      <trkpt lat="38.908899966627359" lon="-0.20948002114892">
        <ele>72.125</ele>
        <time>2017-12-18T19:16:23Z</time>
      </trkpt>
      <trkpt lat="38.908859984949231" lon="-0.209540035575628">
        <ele>72.2109375</ele>
        <time>2017-12-18T19:18:23Z</time>
      </trkpt>
      <trkpt lat="38.908840036019683" lon="-0.209589991718531">
        <ele>72.23828125</ele>
        <time>2017-12-18T19:20:23Z</time>
      </trkpt>
      <trkpt lat="38.908829977735877" lon="-0.209629973396659">
        <ele>72.40625</ele>
        <time>2017-12-18T19:22:23Z</time>
      </trkpt>
      <trkpt lat="38.908820003271103" lon="-0.209650006145239">
        <ele>72.47265625</ele>
        <time>2017-12-18T19:24:23Z</time>
      </trkpt>
      <trkpt lat="38.908810028806329" lon="-0.209689987823367">
        <ele>72.671875</ele>
        <time>2017-12-18T19:26:23Z</time>
      </trkpt>
      <trkpt lat="38.908810028806329" lon="-0.209710020571947">
        <ele>72.79296875</ele>
        <time>2017-12-18T19:28:23Z</time>
      </trkpt>
      <trkpt lat="38.908810028806329" lon="-0.209710020571947">
        <ele>72.79296875</ele>
        <time>2017-12-18T19:30:23Z</time>
      </trkpt>
      <trkpt lat="38.908740039914846" lon="-0.209729969501495">
        <ele>72.82421875</ele>
        <time>2017-12-18T19:32:23Z</time>
      </trkpt>
      <trkpt lat="38.908680025488138" lon="-0.209759976714849">
        <ele>73.0234375</ele>
        <time>2017-12-18T19:34:23Z</time>
      </trkpt>
      <trkpt lat="38.90862001106143" lon="-0.209780009463429">
        <ele>73.15234375</ele>
        <time>2017-12-18T19:36:23Z</time>
      </trkpt>
      <trkpt lat="38.908550022169948" lon="-0.209810016676784">
        <ele>73.15234375</ele>
        <time>2017-12-18T19:38:23Z</time>
      </trkpt>
      <trkpt lat="38.908499982208014" lon="-0.209819991141558">
        <ele>73.15234375</ele>
        <time>2017-12-18T19:40:23Z</time>
      </trkpt>
      <trkpt lat="38.908420018851757" lon="-0.209859972819686">
        <ele>73.15234375</ele>
        <time>2017-12-18T19:42:23Z</time>
      </trkpt>
      <trkpt lat="38.908329997211695" lon="-0.209880005568266">
        <ele>73.15234375</ele>
        <time>2017-12-18T19:44:23Z</time>
      </trkpt>
      <trkpt lat="38.908239975571632" lon="-0.209919987246394">
        <ele>73.15234375</ele>
        <time>2017-12-18T19:46:23Z</time>
      </trkpt>
      <trkpt lat="38.908139979466796" lon="-0.209949994459748">
        <ele>73.1171875</ele>
        <time>2017-12-18T19:48:23Z</time>
      </trkpt>
      <trkpt lat="38.908090023323894" lon="-0.209980001673102">
        <ele>72.84765625</ele>
        <time>2017-12-18T19:50:23Z</time>
      </trkpt>
      <trkpt lat="38.908020034432411" lon="-0.210000034421682">
        <ele>72.640625</ele>
        <time>2017-12-18T19:52:23Z</time>
      </trkpt>
      <trkpt lat="38.907939987257123" lon="-0.210030041635036">
        <ele>72.69921875</ele>
        <time>2017-12-18T19:54:23Z</time>
      </trkpt>
      <trkpt lat="38.907839991152287" lon="-0.210070023313165">
        <ele>72.47265625</ele>
        <time>2017-12-18T19:56:23Z</time>
      </trkpt>
      <trkpt lat="38.90771996229887" lon="-0.210110004991293">
        <ele>72.0703125</ele>
        <time>2017-12-18T19:58:23Z</time>
      </trkpt>
      <trkpt lat="38.907600017264485" lon="-0.210140012204647">
        <ele>71.9296875</ele>
        <time>2017-12-18T20:00:23Z</time>
      </trkpt>
      <trkpt lat="38.907530028373003" lon="-0.210170019418001">
        <ele>72.19921875</ele>
        <time>2017-12-18T20:02:23Z</time>
      </trkpt>
      <trkpt lat="38.907479988411069" lon="-0.210189968347549">
        <ele>72.4609375</ele>
        <time>2017-12-18T20:04:23Z</time>
      </trkpt>
      <trkpt lat="38.907409999519587" lon="-0.210210001096129">
        <ele>72.7265625</ele>
        <time>2017-12-18T20:06:23Z</time>
      </trkpt>
      <trkpt lat="38.907340010628104" lon="-0.210219975560904">
        <ele>72.53125</ele>
        <time>2017-12-18T20:08:23Z</time>
      </trkpt>
      <trkpt lat="38.907259963452816" lon="-0.210240008309484">
        <ele>72.18359375</ele>
        <time>2017-12-18T20:10:23Z</time>
      </trkpt>
      <trkpt lat="38.907170025631785" lon="-0.210270015522838">
        <ele>71.8984375</ele>
        <time>2017-12-18T20:12:23Z</time>
      </trkpt>
      <trkpt lat="38.907049996778369" lon="-0.210309997200966">
        <ele>71.84765625</ele>
        <time>2017-12-18T20:14:23Z</time>
      </trkpt>
      <trkpt lat="38.906919993460178" lon="-0.210349978879094">
        <ele>72.00390625</ele>
        <time>2017-12-18T20:16:23Z</time>
      </trkpt>
      <trkpt lat="38.906789990141988" lon="-0.210400018841028">
        <ele>71.9296875</ele>
        <time>2017-12-18T20:18:23Z</time>
      </trkpt>
      <trkpt lat="38.906589997932315" lon="-0.210490040481091">
        <ele>72.0078125</ele>
        <time>2017-12-18T20:20:23Z</time>
      </trkpt>
      <trkpt lat="38.90645002014935" lon="-0.210560029372573">
        <ele>72.109375</ele>
        <time>2017-12-18T20:22:23Z</time>
      </trkpt>
      <trkpt lat="38.906329991295934" lon="-0.210609985515475">
        <ele>71.9296875</ele>
        <time>2017-12-18T20:24:23Z</time>
      </trkpt>
      <trkpt lat="38.906229995191097" lon="-0.210649967193604">
        <ele>72.359375</ele>
        <time>2017-12-18T20:26:23Z</time>
      </trkpt>
      <trkpt lat="38.906109966337681" lon="-0.210679974406958">
        <ele>73.1484375</ele>
        <time>2017-12-18T20:28:23Z</time>
      </trkpt>
      <trkpt lat="38.905969988554716" lon="-0.210730014368892">
        <ele>73.3203125</ele>
        <time>2017-12-18T20:30:23Z</time>
      </trkpt>
      <trkpt lat="38.90586999244988" lon="-0.210760021582246">
        <ele>73.6953125</ele>
        <time>2017-12-18T20:32:23Z</time>
      </trkpt>
      <trkpt lat="38.905709981918335" lon="-0.210800003260374">
        <ele>74.06640625</ele>
        <time>2017-12-18T20:34:23Z</time>
      </trkpt>
      <trkpt lat="38.905560029670596" lon="-0.210839984938502">
        <ele>74.06640625</ele>
        <time>2017-12-18T20:36:23Z</time>
      </trkpt>
      <trkpt lat="38.905400019139051" lon="-0.210879966616631">
        <ele>74.06640625</ele>
        <time>2017-12-18T20:38:23Z</time>
      </trkpt>
      <trkpt lat="38.905309997498989" lon="-0.210909973829985">
        <ele>74.06640625</ele>
        <time>2017-12-18T20:40:23Z</time>
      </trkpt>
      <trkpt lat="38.905300023034215" lon="-0.210920032113791">
        <ele>74.06640625</ele>
        <time>2017-12-18T20:42:23Z</time>
      </trkpt>
      <trkpt lat="38.905200026929379" lon="-0.210939981043339">
        <ele>74.06640625</ele>
        <time>2017-12-18T20:44:23Z</time>
      </trkpt>
      <trkpt lat="38.905089972540736" lon="-0.210969988256693">
        <ele>74.421875</ele>
        <time>2017-12-18T20:46:23Z</time>
      </trkpt>
      <trkpt lat="38.9049899764359" lon="-0.210999995470047">
        <ele>74.9296875</ele>
        <time>2017-12-18T20:48:23Z</time>
      </trkpt>
      <trkpt lat="38.904910013079643" lon="-0.211020028218627">
        <ele>74.9765625</ele>
        <time>2017-12-18T20:50:23Z</time>
      </trkpt>
      <trkpt lat="38.904829965904355" lon="-0.211030002683401">
        <ele>74.98046875</ele>
        <time>2017-12-18T20:52:23Z</time>
      </trkpt>
      <trkpt lat="38.904759977012873" lon="-0.211039977148175">
        <ele>74.98046875</ele>
        <time>2017-12-18T20:54:23Z</time>
      </trkpt>
      <trkpt lat="38.904670039191842" lon="-0.211060009896755">
        <ele>74.98046875</ele>
        <time>2017-12-18T20:56:23Z</time>
      </trkpt>
      <trkpt lat="38.904589992016554" lon="-0.211069984361529">
        <ele>75.22265625</ele>
        <time>2017-12-18T20:58:23Z</time>
      </trkpt>
      <trkpt lat="38.904510028660297" lon="-0.211079958826303">
        <ele>75.59375</ele>
        <time>2017-12-18T21:00:23Z</time>
      </trkpt>
      <trkpt lat="38.904429981485009" lon="-0.211109966039658">
        <ele>75.6484375</ele>
        <time>2017-12-18T21:02:23Z</time>
      </trkpt>
      <trkpt lat="38.904350018128753" lon="-0.211129998788238">
        <ele>75.52734375</ele>
        <time>2017-12-18T21:04:23Z</time>
      </trkpt>
      <trkpt lat="38.904269970953465" lon="-0.211150031536818">
        <ele>75.82421875</ele>
        <time>2017-12-18T21:06:23Z</time>
      </trkpt>
      <trkpt lat="38.904169974848628" lon="-0.211180038750172">
        <ele>75.89453125</ele>
        <time>2017-12-18T21:08:23Z</time>
      </trkpt>
      <trkpt lat="38.904099985957146" lon="-0.21119998767972">
        <ele>76.33203125</ele>
        <time>2017-12-18T21:10:23Z</time>
      </trkpt>
      <trkpt lat="38.903999989852309" lon="-0.211229994893074">
        <ele>76.98828125</ele>
        <time>2017-12-18T21:12:23Z</time>
      </trkpt>
      <trkpt lat="38.903920026496053" lon="-0.211250027641654">
        <ele>77.11328125</ele>
        <time>2017-12-18T21:14:23Z</time>
      </trkpt>
      <trkpt lat="38.903820030391216" lon="-0.211280034855008">
        <ele>77.11328125</ele>
        <time>2017-12-18T21:16:23Z</time>
      </trkpt>
      <trkpt lat="38.903739983215928" lon="-0.211320016533136">
        <ele>77.11328125</ele>
        <time>2017-12-18T21:18:23Z</time>
      </trkpt>
      <trkpt lat="38.90367996878922" lon="-0.211339965462685">
        <ele>77.125</ele>
        <time>2017-12-18T21:20:23Z</time>
      </trkpt>
      <trkpt lat="38.903609979897738" lon="-0.211359998211265">
        <ele>77.1171875</ele>
        <time>2017-12-18T21:22:23Z</time>
      </trkpt>
      <trkpt lat="38.903569998219609" lon="-0.211369972676039">
        <ele>77.22265625</ele>
        <time>2017-12-18T21:24:23Z</time>
      </trkpt>
      <trkpt lat="38.903370006009936" lon="-0.211420012637973">
        <ele>77.8515625</ele>
        <time>2017-12-18T21:26:23Z</time>
      </trkpt>
      <trkpt lat="38.903240002691746" lon="-0.211459994316101">
        <ele>78.6875</ele>
        <time>2017-12-18T21:28:23Z</time>
      </trkpt>
      <trkpt lat="38.903119973838329" lon="-0.211469968780875">
        <ele>78.94140625</ele>
        <time>2017-12-18T21:30:23Z</time>
      </trkpt>
      <trkpt lat="38.902979996055365" lon="-0.211480027064681">
        <ele>78.94140625</ele>
        <time>2017-12-18T21:32:23Z</time>
      </trkpt>
      <trkpt lat="38.902599960565567" lon="-0.211490001529455">
        <ele>79.85546875</ele>
        <time>2017-12-18T21:34:23Z</time>
      </trkpt>
      <trkpt lat="38.902280023321509" lon="-0.211520008742809">
        <ele>79.85546875</ele>
        <time>2017-12-18T21:36:23Z</time>
      </trkpt>
      <trkpt lat="38.902090005576611" lon="-0.211529983207583">
        <ele>79.85546875</ele>
        <time>2017-12-18T21:38:23Z</time>
      </trkpt>
      <trkpt lat="38.901929995045066" lon="-0.211529983207583">
        <ele>79.85546875</ele>
        <time>2017-12-18T21:40:23Z</time>
      </trkpt>
      <trkpt lat="38.901679962873459" lon="-0.211540041491389">
        <ele>79.85546875</ele>
        <time>2017-12-18T21:42:23Z</time>
      </trkpt>
      <trkpt lat="38.901539985090494" lon="-0.211529983207583">
        <ele>79.85546875</ele>
        <time>2017-12-18T21:44:23Z</time>
      </trkpt>
      <trkpt lat="38.901439988985658" lon="-0.211520008742809">
        <ele>79.85546875</ele>
        <time>2017-12-18T21:46:23Z</time>
      </trkpt>
      <trkpt lat="38.901390032842755" lon="-0.211520008742809">
        <ele>79.85546875</ele>
        <time>2017-12-18T21:48:23Z</time>
      </trkpt>
      <trkpt lat="38.901300011202693" lon="-0.211520008742809">
        <ele>79.85546875</ele>
        <time>2017-12-18T21:50:23Z</time>
      </trkpt>
      <trkpt lat="38.901160033419728" lon="-0.211550015956163">
        <ele>80.328125</ele>
        <time>2017-12-18T21:52:23Z</time>
      </trkpt>
      <trkpt lat="38.901060037314892" lon="-0.211569964885712">
        <ele>80.69140625</ele>
        <time>2017-12-18T21:54:23Z</time>
      </trkpt>
      <trkpt lat="38.901009997352958" lon="-0.211580023169518">
        <ele>80.828125</ele>
        <time>2017-12-18T21:56:23Z</time>
      </trkpt>
      <trkpt lat="38.900989964604378" lon="-0.211580023169518">
        <ele>80.88671875</ele>
        <time>2017-12-18T21:58:23Z</time>
      </trkpt>
      <trkpt lat="38.900979990139604" lon="-0.211580023169518">
        <ele>80.91796875</ele>
        <time>2017-12-18T22:00:23Z</time>
      </trkpt>
      <trkpt lat="38.900970015674829" lon="-0.211589997634292">
        <ele>80.91796875</ele>
        <time>2017-12-18T22:02:23Z</time>
      </trkpt>
      <trkpt lat="38.900940008461475" lon="-0.211580023169518">
        <ele>81.03515625</ele>
        <time>2017-12-18T22:04:23Z</time>
      </trkpt>
      <trkpt lat="38.900910001248121" lon="-0.211580023169518">
        <ele>81.07421875</ele>
        <time>2017-12-18T22:06:23Z</time>
      </trkpt>
      <trkpt lat="38.900879994034767" lon="-0.211569964885712">
        <ele>81.07421875</ele>
        <time>2017-12-18T22:08:23Z</time>
      </trkpt>
      <trkpt lat="38.900849986821413" lon="-0.211550015956163">
        <ele>81.07421875</ele>
        <time>2017-12-18T22:10:23Z</time>
      </trkpt>
      <trkpt lat="38.900810005143285" lon="-0.211520008742809">
        <ele>81.07421875</ele>
        <time>2017-12-18T22:12:23Z</time>
      </trkpt>
      <trkpt lat="38.900759965181351" lon="-0.211499975994229">
        <ele>81.07421875</ele>
        <time>2017-12-18T22:14:23Z</time>
      </trkpt>
      <trkpt lat="38.900689976289868" lon="-0.211469968780875">
        <ele>81.07421875</ele>
        <time>2017-12-18T22:16:23Z</time>
      </trkpt>
      <trkpt lat="38.900640020146966" lon="-0.211459994316101">
        <ele>81.07421875</ele>
        <time>2017-12-18T22:18:23Z</time>
      </trkpt>
      <trkpt lat="38.900580005720258" lon="-0.211450019851327">
        <ele>81.07421875</ele>
        <time>2017-12-18T22:20:23Z</time>
      </trkpt>
      <trkpt lat="38.90054002404213" lon="-0.211450019851327">
        <ele>81.12890625</ele>
        <time>2017-12-18T22:22:23Z</time>
      </trkpt>
      <trkpt lat="38.90049995854497" lon="-0.211439961567521">
        <ele>81.29296875</ele>
        <time>2017-12-18T22:24:23Z</time>
      </trkpt>
      <trkpt lat="38.900450002402067" lon="-0.211439961567521">
        <ele>81.5078125</ele>
        <time>2017-12-18T22:26:23Z</time>
      </trkpt>
      <trkpt lat="38.900359980762005" lon="-0.211439961567521">
        <ele>81.9921875</ele>
        <time>2017-12-18T22:28:23Z</time>
      </trkpt>
      <trkpt lat="38.900150014087558" lon="-0.211429987102747">
        <ele>82.1796875</ele>
        <time>2017-12-18T22:30:23Z</time>
      </trkpt>
      <trkpt lat="38.899829993024468" lon="-0.211420012637973">
        <ele>83.17578125</ele>
        <time>2017-12-18T22:32:23Z</time>
      </trkpt>
      <trkpt lat="38.899739971384406" lon="-0.211410038173199">
        <ele>83.15234375</ele>
        <time>2017-12-18T22:34:23Z</time>
      </trkpt>
      <trkpt lat="38.899669982492924" lon="-0.211410038173199">
        <ele>82.99609375</ele>
        <time>2017-12-18T22:36:23Z</time>
      </trkpt>
      <trkpt lat="38.899609968066216" lon="-0.211410038173199">
        <ele>82.90234375</ele>
        <time>2017-12-18T22:38:23Z</time>
      </trkpt>
      <trkpt lat="38.899509971961379" lon="-0.211429987102747">
        <ele>82.90234375</ele>
        <time>2017-12-18T22:40:23Z</time>
      </trkpt>
      <trkpt lat="38.89936001971364" lon="-0.211459994316101">
        <ele>82.90234375</ele>
        <time>2017-12-18T22:42:23Z</time>
      </trkpt>
      <trkpt lat="38.899249965324998" lon="-0.211490001529455">
        <ele>82.90234375</ele>
        <time>2017-12-18T22:44:23Z</time>
      </trkpt>
      <trkpt lat="38.899160027503967" lon="-0.211510034278035">
        <ele>82.90234375</ele>
        <time>2017-12-18T22:46:23Z</time>
      </trkpt>
      <trkpt lat="38.898849980905652" lon="-0.211620004847646">
        <ele>82.90234375</ele>
        <time>2017-12-18T22:48:23Z</time>
      </trkpt>
      <trkpt lat="38.898449996486306" lon="-0.211750008165836">
        <ele>82.90234375</ele>
        <time>2017-12-18T22:50:23Z</time>
      </trkpt>
      <trkpt lat="38.89805001206696" lon="-0.211889985948801">
        <ele>82.9609375</ele>
        <time>2017-12-18T22:52:23Z</time>
      </trkpt>
      <trkpt lat="38.897680034860969" lon="-0.212010014802217">
        <ele>84.125</ele>
        <time>2017-12-18T22:54:23Z</time>
      </trkpt>
      <trkpt lat="38.897639969363809" lon="-0.212029963731766">
        <ele>84.125</ele>
        <time>2017-12-18T22:56:23Z</time>
      </trkpt>
      <trkpt lat="38.89759998768568" lon="-0.212040022015572">
        <ele>84.125</ele>
        <time>2017-12-18T22:58:23Z</time>
      </trkpt>
      <trkpt lat="38.897560006007552" lon="-0.212040022015572">
        <ele>84.125</ele>
        <time>2017-12-18T23:00:23Z</time>
      </trkpt>
      <trkpt lat="38.897520024329424" lon="-0.212049996480346">
        <ele>84.125</ele>
        <time>2017-12-18T23:02:23Z</time>
      </trkpt>
      <trkpt lat="38.897460009902716" lon="-0.212040022015572">
        <ele>84.125</ele>
        <time>2017-12-18T23:04:23Z</time>
      </trkpt>
      <trkpt lat="38.897409969940782" lon="-0.212040022015572">
        <ele>84.125</ele>
        <time>2017-12-18T23:06:23Z</time>
      </trkpt>
      <trkpt lat="38.897350039333105" lon="-0.212040022015572">
        <ele>84.125</ele>
        <time>2017-12-18T23:08:23Z</time>
      </trkpt>
      <trkpt lat="38.897330006584525" lon="-0.212049996480346">
        <ele>84.125</ele>
        <time>2017-12-18T23:10:23Z</time>
      </trkpt>
      <trkpt lat="38.897320032119751" lon="-0.21205997094512">
        <ele>84.125</ele>
        <time>2017-12-18T23:12:23Z</time>
      </trkpt>
      <trkpt lat="38.897309973835945" lon="-0.212070029228926">
        <ele>84.109375</ele>
        <time>2017-12-18T23:14:23Z</time>
      </trkpt>
      <trkpt lat="38.897309973835945" lon="-0.2120800036937">
        <ele>84.1171875</ele>
        <time>2017-12-18T23:16:23Z</time>
      </trkpt>
      <trkpt lat="38.897309973835945" lon="-0.21210003644228">
        <ele>84.125</ele>
        <time>2017-12-18T23:18:23Z</time>
      </trkpt>
      <trkpt lat="38.897299999371171" lon="-0.212119985371828">
        <ele>84.125</ele>
        <time>2017-12-18T23:20:23Z</time>
      </trkpt>
      <trkpt lat="38.897309973835945" lon="-0.212140018120408">
        <ele>84.125</ele>
        <time>2017-12-18T23:22:23Z</time>
      </trkpt>
      <trkpt lat="38.897309973835945" lon="-0.212149992585182">
        <ele>84.125</ele>
        <time>2017-12-18T23:24:23Z</time>
      </trkpt>
      <trkpt lat="38.897309973835945" lon="-0.212159967049956">
        <ele>84.125</ele>
        <time>2017-12-18T23:26:23Z</time>
      </trkpt>
      <trkpt lat="38.897330006584525" lon="-0.212179999798536">
        <ele>84.125</ele>
        <time>2017-12-18T23:28:23Z</time>
      </trkpt>
      <trkpt lat="38.897339981049299" lon="-0.212200032547116">
        <ele>84.125</ele>
        <time>2017-12-18T23:30:23Z</time>
      </trkpt>
      <trkpt lat="38.897360013797879" lon="-0.212219981476665">
        <ele>84.125</ele>
        <time>2017-12-18T23:32:23Z</time>
      </trkpt>
      <trkpt lat="38.897369988262653" lon="-0.21223003976047">
        <ele>84.125</ele>
        <time>2017-12-18T23:34:23Z</time>
      </trkpt>
      <trkpt lat="38.897439977154136" lon="-0.212270021438599">
        <ele>84.125</ele>
        <time>2017-12-18T23:36:23Z</time>
      </trkpt>
      <trkpt lat="38.897580038756132" lon="-0.212359959259629">
        <ele>84.125</ele>
        <time>2017-12-18T23:38:23Z</time>
      </trkpt>
      <trkpt lat="38.897880027070642" lon="-0.212579984217882">
        <ele>84.125</ele>
        <time>2017-12-18T23:40:23Z</time>
      </trkpt>
      <trkpt lat="38.898219997063279" lon="-0.212839990854263">
        <ele>83.5546875</ele>
        <time>2017-12-18T23:42:23Z</time>
      </trkpt>
      <trkpt lat="38.898529959842563" lon="-0.213079964742064">
        <ele>83.2734375</ele>
        <time>2017-12-18T23:44:23Z</time>
      </trkpt>
      <trkpt lat="38.89888996258378" lon="-0.213329996913671">
        <ele>82.90234375</ele>
        <time>2017-12-18T23:46:23Z</time>
      </trkpt>
      <trkpt lat="38.899109987542033" lon="-0.213469974696636">
        <ele>82.90234375</ele>
        <time>2017-12-18T23:48:23Z</time>
      </trkpt>
      <trkpt lat="38.899390026926994" lon="-0.213620010763407">
        <ele>82.90234375</ele>
        <time>2017-12-18T23:50:23Z</time>
      </trkpt>
      <trkpt lat="38.899490023031831" lon="-0.213659992441535">
        <ele>82.89453125</ele>
        <time>2017-12-18T23:52:23Z</time>
      </trkpt>
      <trkpt lat="38.899550037458539" lon="-0.213659992441535">
        <ele>82.87890625</ele>
        <time>2017-12-18T23:54:23Z</time>
      </trkpt>
      <trkpt lat="38.899599993601441" lon="-0.213659992441535">
        <ele>82.85546875</ele>
        <time>2017-12-18T23:56:23Z</time>
      </trkpt>
      <trkpt lat="38.89968004077673" lon="-0.213650017976761">
        <ele>82.61328125</ele>
        <time>2017-12-18T23:58:23Z</time>
      </trkpt>
      <trkpt lat="38.899720022454858" lon="-0.213650017976761">
        <ele>82.50390625</ele>
        <time>2017-12-19T00:00:23Z</time>
      </trkpt>
      <trkpt lat="38.89976997859776" lon="-0.213659992441535">
        <ele>82.27734375</ele>
        <time>2017-12-19T00:02:23Z</time>
      </trkpt>
      <trkpt lat="38.89979001134634" lon="-0.213669966906309">
        <ele>82.16796875</ele>
        <time>2017-12-19T00:04:23Z</time>
      </trkpt>
      <trkpt lat="38.899820018559694" lon="-0.213680025190115">
        <ele>81.98828125</ele>
        <time>2017-12-19T00:06:23Z</time>
      </trkpt>
      <trkpt lat="38.899829993024468" lon="-0.213689999654889">
        <ele>81.98828125</ele>
        <time>2017-12-19T00:08:23Z</time>
      </trkpt>
      <trkpt lat="38.899839967489243" lon="-0.213699974119663">
        <ele>81.98828125</ele>
        <time>2017-12-19T00:10:23Z</time>
      </trkpt>
      <trkpt lat="38.899850025773048" lon="-0.213720006868243">
        <ele>81.98828125</ele>
        <time>2017-12-19T00:12:23Z</time>
      </trkpt>
      <trkpt lat="38.899860000237823" lon="-0.213729981333017">
        <ele>81.98828125</ele>
        <time>2017-12-19T00:14:23Z</time>
      </trkpt>
      <trkpt lat="38.899880032986403" lon="-0.213759988546371">
        <ele>81.98828125</ele>
        <time>2017-12-19T00:16:23Z</time>
      </trkpt>
      <trkpt lat="38.899880032986403" lon="-0.213759988546371">
        <ele>81.98828125</ele>
        <time>2017-12-19T00:18:23Z</time>
      </trkpt>
      <trkpt lat="38.899869974702597" lon="-0.213769963011146">
        <ele>81.98828125</ele>
        <time>2017-12-19T00:20:23Z</time>
      </trkpt>
      <trkpt lat="38.899860000237823" lon="-0.213769963011146">
        <ele>81.98828125</ele>
        <time>2017-12-19T00:22:23Z</time>
      </trkpt>
      <trkpt lat="38.899850025773048" lon="-0.213780021294951">
        <ele>81.98828125</ele>
        <time>2017-12-19T00:24:23Z</time>
      </trkpt>
      <trkpt lat="38.899829993024468" lon="-0.213789995759726">
        <ele>81.98828125</ele>
        <time>2017-12-19T00:26:23Z</time>
      </trkpt>
      <trkpt lat="38.899799985811114" lon="-0.21382000297308">
        <ele>82.1015625</ele>
        <time>2017-12-19T00:28:23Z</time>
      </trkpt>
      <trkpt lat="38.899799985811114" lon="-0.21382000297308">
        <ele>82.1015625</ele>
        <time>2017-12-19T00:30:23Z</time>
      </trkpt>
      <trkpt lat="38.899809960275888" lon="-0.213829977437854">
        <ele>82.03515625</ele>
        <time>2017-12-19T00:32:23Z</time>
      </trkpt>
      <trkpt lat="38.899829993024468" lon="-0.21384003572166">
        <ele>81.98828125</ele>
        <time>2017-12-19T00:34:23Z</time>
      </trkpt>
      <trkpt lat="38.899839967489243" lon="-0.213859984651208">
        <ele>81.98828125</ele>
        <time>2017-12-19T00:36:23Z</time>
      </trkpt>
      <trkpt lat="38.899850025773048" lon="-0.213880017399788">
        <ele>81.98828125</ele>
        <time>2017-12-19T00:38:23Z</time>
      </trkpt>
      <trkpt lat="38.899869974702597" lon="-0.213899966329336">
        <ele>81.98828125</ele>
        <time>2017-12-19T00:40:23Z</time>
      </trkpt>
      <trkpt lat="38.899880032986403" lon="-0.21392997354269">
        <ele>81.98828125</ele>
        <time>2017-12-19T00:42:23Z</time>
      </trkpt>
      <trkpt lat="38.899890007451177" lon="-0.21395000629127">
        <ele>81.99609375</ele>
        <time>2017-12-19T00:44:23Z</time>
      </trkpt>
      <trkpt lat="38.899890007451177" lon="-0.213980013504624">
        <ele>82.0390625</ele>
        <time>2017-12-19T00:46:23Z</time>
      </trkpt>
      <trkpt lat="38.899899981915951" lon="-0.213999962434173">
        <ele>82.02734375</ele>
        <time>2017-12-19T00:48:23Z</time>
      </trkpt>
      <trkpt lat="38.899899981915951" lon="-0.214029969647527">
        <ele>82.046875</ele>
        <time>2017-12-19T00:50:23Z</time>
      </trkpt>
      <trkpt lat="38.899899981915951" lon="-0.214040027931333">
        <ele>82.07421875</ele>
        <time>2017-12-19T00:52:23Z</time>
      </trkpt>
      <trkpt lat="38.899899981915951" lon="-0.214059976860881">
        <ele>82.19921875</ele>
        <time>2017-12-19T00:54:23Z</time>
      </trkpt>
      <trkpt lat="38.899899981915951" lon="-0.214080009609461">
        <ele>82.32421875</ele>
        <time>2017-12-19T00:56:23Z</time>
      </trkpt>
      <trkpt lat="38.899899981915951" lon="-0.214110016822815">
        <ele>82.51171875</ele>
        <time>2017-12-19T00:58:23Z</time>
      </trkpt>
      <trkpt lat="38.899890007451177" lon="-0.214140024036169">
        <ele>82.6640625</ele>
        <time>2017-12-19T01:00:23Z</time>
      </trkpt>
      <trkpt lat="38.899880032986403" lon="-0.214180005714297">
        <ele>82.6953125</ele>
        <time>2017-12-19T01:02:23Z</time>
      </trkpt>
      <trkpt lat="38.899869974702597" lon="-0.214200038462877">
        <ele>82.7265625</ele>
        <time>2017-12-19T01:04:23Z</time>
      </trkpt>
      <trkpt lat="38.899860000237823" lon="-0.2142299618572">
        <ele>82.7734375</ele>
        <time>2017-12-19T01:06:23Z</time>
      </trkpt>
      <trkpt lat="38.899839967489243" lon="-0.21424999460578">
        <ele>82.8515625</ele>
        <time>2017-12-19T01:08:23Z</time>
      </trkpt>
      <trkpt lat="38.899829993024468" lon="-0.214259969070554">
        <ele>82.87890625</ele>
        <time>2017-12-19T01:10:23Z</time>
      </trkpt>
      <trkpt lat="38.899809960275888" lon="-0.214280001819134">
        <ele>82.93359375</ele>
        <time>2017-12-19T01:12:23Z</time>
      </trkpt>
      <trkpt lat="38.899799985811114" lon="-0.214289976283908">
        <ele>82.984375</ele>
        <time>2017-12-19T01:14:23Z</time>
      </trkpt>
      <trkpt lat="38.89979001134634" lon="-0.214300034567714">
        <ele>83.0546875</ele>
        <time>2017-12-19T01:16:23Z</time>
      </trkpt>
      <trkpt lat="38.899780036881566" lon="-0.214310009032488">
        <ele>83.13671875</ele>
        <time>2017-12-19T01:18:23Z</time>
      </trkpt>
      <trkpt lat="38.899760004132986" lon="-0.214319983497262">
        <ele>83.3203125</ele>
        <time>2017-12-19T01:20:23Z</time>
      </trkpt>
      <trkpt lat="38.899750029668212" lon="-0.214319983497262">
        <ele>83.38671875</ele>
        <time>2017-12-19T01:22:23Z</time>
      </trkpt>
      <trkpt lat="38.899739971384406" lon="-0.214330041781068">
        <ele>83.51953125</ele>
        <time>2017-12-19T01:24:23Z</time>
      </trkpt>
      <trkpt lat="38.899720022454858" lon="-0.214330041781068">
        <ele>83.6484375</ele>
        <time>2017-12-19T01:26:23Z</time>
      </trkpt>
      <trkpt lat="38.899699989706278" lon="-0.214330041781068">
        <ele>83.76953125</ele>
        <time>2017-12-19T01:28:23Z</time>
      </trkpt>
      <trkpt lat="38.899669982492924" lon="-0.214330041781068">
        <ele>83.94921875</ele>
        <time>2017-12-19T01:30:23Z</time>
      </trkpt>
      <trkpt lat="38.899650033563375" lon="-0.214330041781068">
        <ele>84.0703125</ele>
        <time>2017-12-19T01:32:23Z</time>
      </trkpt>
      <trkpt lat="38.899630000814795" lon="-0.214330041781068">
        <ele>84.1875</ele>
        <time>2017-12-19T01:34:23Z</time>
      </trkpt>
      <trkpt lat="38.899620026350021" lon="-0.214319983497262">
        <ele>84.19140625</ele>
        <time>2017-12-19T01:36:23Z</time>
      </trkpt>
      <trkpt lat="38.899609968066216" lon="-0.214319983497262">
        <ele>84.234375</ele>
        <time>2017-12-19T01:38:23Z</time>
      </trkpt>
      <trkpt lat="38.899590019136667" lon="-0.214310009032488">
        <ele>84.2421875</ele>
        <time>2017-12-19T01:40:23Z</time>
      </trkpt>
      <trkpt lat="38.899579960852861" lon="-0.214300034567714">
        <ele>84.23046875</ele>
        <time>2017-12-19T01:42:23Z</time>
      </trkpt>
      <trkpt lat="38.899560011923313" lon="-0.214280001819134">
        <ele>84.2265625</ele>
        <time>2017-12-19T01:44:23Z</time>
      </trkpt>
      <trkpt lat="38.899539979174733" lon="-0.214259969070554">
        <ele>84.25</ele>
        <time>2017-12-19T01:46:23Z</time>
      </trkpt>
      <trkpt lat="38.899530004709959" lon="-0.214240020141006">
        <ele>84.2109375</ele>
        <time>2017-12-19T01:48:23Z</time>
      </trkpt>
      <trkpt lat="38.899520030245185" lon="-0.2142299618572">
        <ele>84.17578125</ele>
        <time>2017-12-19T01:50:23Z</time>
      </trkpt>
      <trkpt lat="38.899509971961379" lon="-0.214219987392426">
        <ele>84.10546875</ele>
        <time>2017-12-19T01:52:23Z</time>
      </trkpt>
      <trkpt lat="38.899499997496605" lon="-0.214200038462877">
        <ele>83.84375</ele>
        <time>2017-12-19T01:54:23Z</time>
      </trkpt>
      <trkpt lat="38.899490023031831" lon="-0.214180005714297">
        <ele>83.578125</ele>
        <time>2017-12-19T01:56:23Z</time>
      </trkpt>
      <trkpt lat="38.899479964748025" lon="-0.214149998500943">
        <ele>83.18359375</ele>
        <time>2017-12-19T01:58:23Z</time>
      </trkpt>
      <trkpt lat="38.899479964748025" lon="-0.214129965752363">
        <ele>82.91796875</ele>
        <time>2017-12-19T02:00:23Z</time>
      </trkpt>
      <trkpt lat="38.899469990283251" lon="-0.214099958539009">
        <ele>82.90234375</ele>
        <time>2017-12-19T02:02:23Z</time>
      </trkpt>
      <trkpt lat="38.899469990283251" lon="-0.214080009609461">
        <ele>82.90234375</ele>
        <time>2017-12-19T02:04:23Z</time>
      </trkpt>
      <trkpt lat="38.899469990283251" lon="-0.214050002396107">
        <ele>82.90234375</ele>
        <time>2017-12-19T02:06:23Z</time>
      </trkpt>
      <trkpt lat="38.899469990283251" lon="-0.214019995182753">
        <ele>82.90234375</ele>
        <time>2017-12-19T02:08:23Z</time>
      </trkpt>
      <trkpt lat="38.899469990283251" lon="-0.214010020717978">
        <ele>82.90234375</ele>
        <time>2017-12-19T02:10:23Z</time>
      </trkpt>
      <trkpt lat="38.89888996258378" lon="-0.213480032980442">
        <ele>84.11328125</ele>
        <time>2017-12-19T02:12:23Z</time>
      </trkpt>
      <trkpt lat="38.898519985377789" lon="-0.213209968060255">
        <ele>83.5234375</ele>
        <time>2017-12-19T02:14:23Z</time>
      </trkpt>
      <trkpt lat="38.89789997600019" lon="-0.212719962000847">
        <ele>84.125</ele>
        <time>2017-12-19T02:16:23Z</time>
      </trkpt>
      <trkpt lat="38.897629994899035" lon="-0.2125099953264">
        <ele>84.125</ele>
        <time>2017-12-19T02:18:23Z</time>
      </trkpt>
      <trkpt lat="38.897399995476007" lon="-0.212349984794855">
        <ele>84.125</ele>
        <time>2017-12-19T02:20:23Z</time>
      </trkpt>
      <trkpt lat="38.897309973835945" lon="-0.212279995903373">
        <ele>84.125</ele>
        <time>2017-12-19T02:22:23Z</time>
      </trkpt>
      <trkpt lat="38.897220036014915" lon="-0.212240014225245">
        <ele>84.125</ele>
        <time>2017-12-19T02:24:23Z</time>
      </trkpt>
      <trkpt lat="38.897209977731109" lon="-0.21223003976047">
        <ele>84.125</ele>
        <time>2017-12-19T02:26:23Z</time>
      </trkpt>
      <trkpt lat="38.8971499633044" lon="-0.212200032547116">
        <ele>84.125</ele>
        <time>2017-12-19T02:28:23Z</time>
      </trkpt>
      <trkpt lat="38.89706002548337" lon="-0.212159967049956">
        <ele>83.8203125</ele>
        <time>2017-12-19T02:30:23Z</time>
      </trkpt>
      <trkpt lat="38.896939996629953" lon="-0.212129959836602">
        <ele>83.125</ele>
        <time>2017-12-19T02:32:23Z</time>
      </trkpt>
      <trkpt lat="38.896860033273697" lon="-0.21210003644228">
        <ele>82.90625</ele>
        <time>2017-12-19T02:34:23Z</time>
      </trkpt>
      <trkpt lat="38.896789960563183" lon="-0.2120800036937">
        <ele>82.90234375</ele>
        <time>2017-12-19T02:36:23Z</time>
      </trkpt>
      <trkpt lat="38.8967199716717" lon="-0.21205997094512">
        <ele>82.90234375</ele>
        <time>2017-12-19T02:38:23Z</time>
      </trkpt>
      <trkpt lat="38.89663003385067" lon="-0.212040022015572">
        <ele>82.90234375</ele>
        <time>2017-12-19T02:40:23Z</time>
      </trkpt>
      <trkpt lat="38.89661000110209" lon="-0.212040022015572">
        <ele>82.90234375</ele>
        <time>2017-12-19T02:42:23Z</time>
      </trkpt>
      <trkpt lat="38.89661000110209" lon="-0.21205997094512">
        <ele>82.90234375</ele>
        <time>2017-12-19T02:44:23Z</time>
      </trkpt>
      <trkpt lat="38.89661000110209" lon="-0.2120800036937">
        <ele>82.90234375</ele>
        <time>2017-12-19T02:46:23Z</time>
      </trkpt>
      <trkpt lat="38.89661000110209" lon="-0.212110010907054">
        <ele>82.90234375</ele>
        <time>2017-12-19T02:48:23Z</time>
      </trkpt>
      <trkpt lat="38.89661000110209" lon="-0.212129959836602">
        <ele>82.90234375</ele>
        <time>2017-12-19T02:50:23Z</time>
      </trkpt>
      <trkpt lat="38.89661000110209" lon="-0.212159967049956">
        <ele>82.90234375</ele>
        <time>2017-12-19T02:52:23Z</time>
      </trkpt>
      <trkpt lat="38.896600026637316" lon="-0.212179999798536">
        <ele>82.90234375</ele>
        <time>2017-12-19T02:54:23Z</time>
      </trkpt>
      <trkpt lat="38.89658996835351" lon="-0.212200032547116">
        <ele>82.90234375</ele>
        <time>2017-12-19T02:56:23Z</time>
      </trkpt>
      <trkpt lat="38.896579993888736" lon="-0.21223003976047">
        <ele>82.90234375</ele>
        <time>2017-12-19T02:58:23Z</time>
      </trkpt>
      <trkpt lat="38.896570019423962" lon="-0.212249988690019">
        <ele>82.90234375</ele>
        <time>2017-12-19T03:00:23Z</time>
      </trkpt>
      <trkpt lat="38.896559961140156" lon="-0.212270021438599">
        <ele>82.90234375</ele>
        <time>2017-12-19T03:02:23Z</time>
      </trkpt>
      <trkpt lat="38.896549986675382" lon="-0.212279995903373">
        <ele>82.90234375</ele>
        <time>2017-12-19T03:04:23Z</time>
      </trkpt>
      <trkpt lat="38.896530037745833" lon="-0.212300028651953">
        <ele>82.90234375</ele>
        <time>2017-12-19T03:06:23Z</time>
      </trkpt>
      <trkpt lat="38.896519979462028" lon="-0.212310003116727">
        <ele>82.90234375</ele>
        <time>2017-12-19T03:08:23Z</time>
      </trkpt>
      <trkpt lat="38.896500030532479" lon="-0.212330035865307">
        <ele>82.90234375</ele>
        <time>2017-12-19T03:10:23Z</time>
      </trkpt>
      <trkpt lat="38.896479997783899" lon="-0.212340010330081">
        <ele>82.90234375</ele>
        <time>2017-12-19T03:12:23Z</time>
      </trkpt>
      <trkpt lat="38.896470023319125" lon="-0.212349984794855">
        <ele>82.90234375</ele>
        <time>2017-12-19T03:14:23Z</time>
      </trkpt>
      <trkpt lat="38.896449990570545" lon="-0.212349984794855">
        <ele>82.90234375</ele>
        <time>2017-12-19T03:16:23Z</time>
      </trkpt>
      <trkpt lat="38.896430041640997" lon="-0.212359959259629">
        <ele>82.90234375</ele>
        <time>2017-12-19T03:18:23Z</time>
      </trkpt>
      <trkpt lat="38.896410008892417" lon="-0.212359959259629">
        <ele>82.90234375</ele>
        <time>2017-12-19T03:20:23Z</time>
      </trkpt>
      <trkpt lat="38.896389976143837" lon="-0.212359959259629">
        <ele>82.90234375</ele>
        <time>2017-12-19T03:22:23Z</time>
      </trkpt>
      <trkpt lat="38.896370027214289" lon="-0.212349984794855">
        <ele>82.90234375</ele>
        <time>2017-12-19T03:24:23Z</time>
      </trkpt>
      <trkpt lat="38.896349994465709" lon="-0.212349984794855">
        <ele>82.90234375</ele>
        <time>2017-12-19T03:26:23Z</time>
      </trkpt>
      <trkpt lat="38.896329961717129" lon="-0.212340010330081">
        <ele>82.90234375</ele>
        <time>2017-12-19T03:28:23Z</time>
      </trkpt>
      <trkpt lat="38.896319987252355" lon="-0.212330035865307">
        <ele>82.90234375</ele>
        <time>2017-12-19T03:30:23Z</time>
      </trkpt>
      <trkpt lat="38.896300038322806" lon="-0.212319977581501">
        <ele>82.90234375</ele>
        <time>2017-12-19T03:32:23Z</time>
      </trkpt>
      <trkpt lat="38.896280005574226" lon="-0.212300028651953">
        <ele>82.90234375</ele>
        <time>2017-12-19T03:34:23Z</time>
      </trkpt>
      <trkpt lat="38.896270031109452" lon="-0.212289970368147">
        <ele>82.90234375</ele>
        <time>2017-12-19T03:36:23Z</time>
      </trkpt>
      <trkpt lat="38.896249998360872" lon="-0.212270021438599">
        <ele>82.90234375</ele>
        <time>2017-12-19T03:38:23Z</time>
      </trkpt>
      <trkpt lat="38.896240023896098" lon="-0.212249988690019">
        <ele>82.90234375</ele>
        <time>2017-12-19T03:40:23Z</time>
      </trkpt>
      <trkpt lat="38.896229965612292" lon="-0.21223003976047">
        <ele>82.90234375</ele>
        <time>2017-12-19T03:42:23Z</time>
      </trkpt>
      <trkpt lat="38.896219991147518" lon="-0.21221000701189">
        <ele>82.90234375</ele>
        <time>2017-12-19T03:44:23Z</time>
      </trkpt>
      <trkpt lat="38.896210016682744" lon="-0.21218997426331">
        <ele>82.90234375</ele>
        <time>2017-12-19T03:46:23Z</time>
      </trkpt>
      <trkpt lat="38.896210016682744" lon="-0.212170025333762">
        <ele>82.90234375</ele>
        <time>2017-12-19T03:48:23Z</time>
      </trkpt>
      <trkpt lat="38.896199958398938" lon="-0.212140018120408">
        <ele>82.90234375</ele>
        <time>2017-12-19T03:50:23Z</time>
      </trkpt>
      <trkpt lat="38.896199958398938" lon="-0.212119985371828">
        <ele>82.90234375</ele>
        <time>2017-12-19T03:52:23Z</time>
      </trkpt>
      <trkpt lat="38.896199958398938" lon="-0.212089978158474">
        <ele>82.90234375</ele>
        <time>2017-12-19T03:54:23Z</time>
      </trkpt>
      <trkpt lat="38.896199958398938" lon="-0.212070029228926">
        <ele>82.89453125</ele>
        <time>2017-12-19T03:56:23Z</time>
      </trkpt>
      <trkpt lat="38.896199958398938" lon="-0.212019989266992">
        <ele>82.87890625</ele>
        <time>2017-12-19T03:58:23Z</time>
      </trkpt>
      <trkpt lat="38.89618000946939" lon="-0.212029963731766">
        <ele>82.83984375</ele>
        <time>2017-12-19T04:00:23Z</time>
      </trkpt>
      <trkpt lat="38.896110020577908" lon="-0.212029963731766">
        <ele>82.66796875</ele>
        <time>2017-12-19T04:02:23Z</time>
      </trkpt>
      <trkpt lat="38.896010024473071" lon="-0.212040022015572">
        <ele>82.35546875</ele>
        <time>2017-12-19T04:04:23Z</time>
      </trkpt>
      <trkpt lat="38.895920002833009" lon="-0.212049996480346">
        <ele>82.3046875</ele>
        <time>2017-12-19T04:06:23Z</time>
      </trkpt>
      <trkpt lat="38.895759992301464" lon="-0.2120800036937">
        <ele>82.42578125</ele>
        <time>2017-12-19T04:08:23Z</time>
      </trkpt>
      <trkpt lat="38.895550025627017" lon="-0.212129959836602">
        <ele>80.33203125</ele>
        <time>2017-12-19T04:10:23Z</time>
      </trkpt>
      <trkpt lat="38.895360007882118" lon="-0.212170025333762">
        <ele>80.6328125</ele>
        <time>2017-12-19T04:12:23Z</time>
      </trkpt>
      <trkpt lat="38.895220030099154" lon="-0.21221000701189">
        <ele>80.765625</ele>
        <time>2017-12-19T04:14:23Z</time>
      </trkpt>
      <trkpt lat="38.895039986819029" lon="-0.212249988690019">
        <ele>80.875</ele>
        <time>2017-12-19T04:16:23Z</time>
      </trkpt>
      <trkpt lat="38.894990030676126" lon="-0.212259963154793">
        <ele>80.89453125</ele>
        <time>2017-12-19T04:18:23Z</time>
      </trkpt>
      <trkpt lat="38.89489003457129" lon="-0.212279995903373">
        <ele>81.078125</ele>
        <time>2017-12-19T04:20:23Z</time>
      </trkpt>
      <trkpt lat="38.894830020144582" lon="-0.212289970368147">
        <ele>81.14453125</ele>
        <time>2017-12-19T04:22:23Z</time>
      </trkpt>
      <trkpt lat="38.894779980182648" lon="-0.212279995903373">
        <ele>81.35546875</ele>
        <time>2017-12-19T04:24:23Z</time>
      </trkpt>
      <trkpt lat="38.894739998504519" lon="-0.212270021438599">
        <ele>81.5</ele>
        <time>2017-12-19T04:26:23Z</time>
      </trkpt>
      <trkpt lat="38.894700016826391" lon="-0.212259963154793">
        <ele>81.40625</ele>
        <time>2017-12-19T04:28:23Z</time>
      </trkpt>
      <trkpt lat="38.894670009613037" lon="-0.21223003976047">
        <ele>81.15625</ele>
        <time>2017-12-19T04:30:23Z</time>
      </trkpt>
      <trkpt lat="38.894640002399683" lon="-0.21221000701189">
        <ele>81.13671875</ele>
        <time>2017-12-19T04:32:23Z</time>
      </trkpt>
      <trkpt lat="38.894600020721555" lon="-0.212119985371828">
        <ele>79.96484375</ele>
        <time>2017-12-19T04:34:23Z</time>
      </trkpt>
      <trkpt lat="38.894579987972975" lon="-0.212049996480346">
        <ele>79.15234375</ele>
        <time>2017-12-19T04:36:23Z</time>
      </trkpt>
      <trkpt lat="38.894570013508201" lon="-0.212010014802217">
        <ele>78.7578125</ele>
        <time>2017-12-19T04:38:23Z</time>
      </trkpt>
      <trkpt lat="38.894540006294847" lon="-0.21178001537919">
        <ele>73.98828125</ele>
        <time>2017-12-19T04:40:23Z</time>
      </trkpt>
      <trkpt lat="38.894509999081492" lon="-0.211559990420938">
        <ele>74.55078125</ele>
        <time>2017-12-19T04:42:23Z</time>
      </trkpt>
      <trkpt lat="38.894500024616718" lon="-0.211510034278035">
        <ele>76.265625</ele>
        <time>2017-12-19T04:44:23Z</time>
      </trkpt>
      <trkpt lat="38.894489966332912" lon="-0.211469968780875">
        <ele>77.9296875</ele>
        <time>2017-12-19T04:46:23Z</time>
      </trkpt>
      <trkpt lat="38.894479991868138" lon="-0.211439961567521">
        <ele>79.1171875</ele>
        <time>2017-12-19T04:48:23Z</time>
      </trkpt>
      <trkpt lat="38.894459959119558" lon="-0.211410038173199">
        <ele>80.1015625</ele>
        <time>2017-12-19T04:50:23Z</time>
      </trkpt>
      <trkpt lat="38.89444001019001" lon="-0.211390005424619">
        <ele>80.79296875</ele>
        <time>2017-12-19T04:52:23Z</time>
      </trkpt>
      <trkpt lat="38.894410002976656" lon="-0.211359998211265">
        <ele>81.87890625</ele>
        <time>2017-12-19T04:54:23Z</time>
      </trkpt>
      <trkpt lat="38.894400028511882" lon="-0.211359998211265">
        <ele>81.9140625</ele>
        <time>2017-12-19T04:56:23Z</time>
      </trkpt>
      <trkpt lat="38.894389970228076" lon="-0.21135002374649">
        <ele>82.26171875</ele>
        <time>2017-12-19T04:58:23Z</time>
      </trkpt>
      <trkpt lat="38.894359963014722" lon="-0.211339965462685">
        <ele>82.62109375</ele>
        <time>2017-12-19T05:00:23Z</time>
      </trkpt>
      <trkpt lat="38.894330039620399" lon="-0.211339965462685">
        <ele>82.88671875</ele>
        <time>2017-12-19T05:02:23Z</time>
      </trkpt>
      <trkpt lat="38.894279999658465" lon="-0.211339965462685">
        <ele>83.359375</ele>
        <time>2017-12-19T05:04:23Z</time>
      </trkpt>
      <trkpt lat="38.894240017980337" lon="-0.21135002374649">
        <ele>83.59375</ele>
        <time>2017-12-19T05:06:23Z</time>
      </trkpt>
      <trkpt lat="38.894119989126921" lon="-0.211380030959845">
        <ele>84.12109375</ele>
        <time>2017-12-19T05:08:23Z</time>
      </trkpt>
      <trkpt lat="38.894040025770664" lon="-0.211420012637973">
        <ele>84.6015625</ele>
        <time>2017-12-19T05:10:23Z</time>
      </trkpt>
      <trkpt lat="38.89398998580873" lon="-0.211450019851327">
        <ele>85.15625</ele>
        <time>2017-12-19T05:12:23Z</time>
      </trkpt>
      <trkpt lat="38.893840033560991" lon="-0.211540041491389">
        <ele>85.17578125</ele>
        <time>2017-12-19T05:14:23Z</time>
      </trkpt>
      <trkpt lat="38.893729979172349" lon="-0.211610030382872">
        <ele>84.62890625</ele>
        <time>2017-12-19T05:16:23Z</time>
      </trkpt>
      <trkpt lat="38.893650015816092" lon="-0.211669960990548">
        <ele>84.44140625</ele>
        <time>2017-12-19T05:18:23Z</time>
      </trkpt>
      <trkpt lat="38.893569968640804" lon="-0.211750008165836">
        <ele>84.671875</ele>
        <time>2017-12-19T05:20:23Z</time>
      </trkpt>
      <trkpt lat="38.893499979749322" lon="-0.211840029805899">
        <ele>84.35546875</ele>
        <time>2017-12-19T05:22:23Z</time>
      </trkpt>
      <trkpt lat="38.89345002360642" lon="-0.211899960413575">
        <ele>84.671875</ele>
        <time>2017-12-19T05:24:23Z</time>
      </trkpt>
      <trkpt lat="38.893420016393065" lon="-0.211950000375509">
        <ele>84.83984375</ele>
        <time>2017-12-19T05:26:23Z</time>
      </trkpt>
      <trkpt lat="38.893390009179711" lon="-0.212029963731766">
        <ele>84.61328125</ele>
        <time>2017-12-19T05:28:23Z</time>
      </trkpt>
      <trkpt lat="38.893380034714937" lon="-0.212049996480346">
        <ele>84.59375</ele>
        <time>2017-12-19T05:30:23Z</time>
      </trkpt>
      <trkpt lat="38.893290013074875" lon="-0.212249988690019">
        <ele>83.46484375</ele>
        <time>2017-12-19T05:32:23Z</time>
      </trkpt>
      <trkpt lat="38.893260005861521" lon="-0.212319977581501">
        <ele>83.33203125</ele>
        <time>2017-12-19T05:34:23Z</time>
      </trkpt>
      <trkpt lat="38.893220024183393" lon="-0.212389966472983">
        <ele>83.515625</ele>
        <time>2017-12-19T05:36:23Z</time>
      </trkpt>
      <trkpt lat="38.893190016970038" lon="-0.212460039183497">
        <ele>83.75</ele>
        <time>2017-12-19T05:38:23Z</time>
      </trkpt>
      <trkpt lat="38.893120028078556" lon="-0.212570009753108">
        <ele>84.62890625</ele>
        <time>2017-12-19T05:40:23Z</time>
      </trkpt>
      <trkpt lat="38.893060013651848" lon="-0.212649973109365">
        <ele>84.42578125</ele>
        <time>2017-12-19T05:42:23Z</time>
      </trkpt>
      <trkpt lat="38.892990024760365" lon="-0.212730020284653">
        <ele>84.3046875</ele>
        <time>2017-12-19T05:44:23Z</time>
      </trkpt>
      <trkpt lat="38.892909977585077" lon="-0.212790034711361">
        <ele>84.2890625</ele>
        <time>2017-12-19T05:46:23Z</time>
      </trkpt>
      <trkpt lat="38.892800007015467" lon="-0.212869998067617">
        <ele>83.76171875</ele>
        <time>2017-12-19T05:48:23Z</time>
      </trkpt>
      <trkpt lat="38.89267997816205" lon="-0.212930012494326">
        <ele>83.6015625</ele>
        <time>2017-12-19T05:50:23Z</time>
      </trkpt>
      <trkpt lat="38.892560033127666" lon="-0.212969994172454">
        <ele>84.37890625</ele>
        <time>2017-12-19T05:52:23Z</time>
      </trkpt>
      <trkpt lat="38.892430029809475" lon="-0.213009975850582">
        <ele>85.01953125</ele>
        <time>2017-12-19T05:54:23Z</time>
      </trkpt>
      <trkpt lat="38.892330033704638" lon="-0.213039983063936">
        <ele>84.9609375</ele>
        <time>2017-12-19T05:56:23Z</time>
      </trkpt>
      <trkpt lat="38.892170023173094" lon="-0.21309002302587">
        <ele>85.1640625</ele>
        <time>2017-12-19T05:58:23Z</time>
      </trkpt>
      <trkpt lat="38.892029961571097" lon="-0.213150037452579">
        <ele>85.125</ele>
        <time>2017-12-19T06:00:23Z</time>
      </trkpt>
      <trkpt lat="38.891810020431876" lon="-0.213230000808835">
        <ele>86.421875</ele>
        <time>2017-12-19T06:02:23Z</time>
      </trkpt>
      <trkpt lat="38.891719998791814" lon="-0.213260008022189">
        <ele>86.12109375</ele>
        <time>2017-12-19T06:04:23Z</time>
      </trkpt>
      <trkpt lat="38.891620002686977" lon="-0.213280040770769">
        <ele>85.60546875</ele>
        <time>2017-12-19T06:06:23Z</time>
      </trkpt>
      <trkpt lat="38.891540039330721" lon="-0.213290015235543">
        <ele>85.71484375</ele>
        <time>2017-12-19T06:08:23Z</time>
      </trkpt>
      <trkpt lat="38.891399977728724" lon="-0.213320022448897">
        <ele>85.9921875</ele>
        <time>2017-12-19T06:10:23Z</time>
      </trkpt>
      <trkpt lat="38.891339963302016" lon="-0.213329996913671">
        <ele>86.1015625</ele>
        <time>2017-12-19T06:12:23Z</time>
      </trkpt>
      <trkpt lat="38.891209959983826" lon="-0.213339971378446">
        <ele>86.73046875</ele>
        <time>2017-12-19T06:14:23Z</time>
      </trkpt>
      <trkpt lat="38.891020026057959" lon="-0.213360004127026">
        <ele>87.22265625</ele>
        <time>2017-12-19T06:16:23Z</time>
      </trkpt>
      <trkpt lat="38.890950037166476" lon="-0.213360004127026">
        <ele>86.9921875</ele>
        <time>2017-12-19T06:18:23Z</time>
      </trkpt>
      <trkpt lat="38.890869989991188" lon="-0.2133699785918">
        <ele>86.8046875</ele>
        <time>2017-12-19T06:20:23Z</time>
      </trkpt>
      <trkpt lat="38.890690030530095" lon="-0.213380036875606">
        <ele>86.98046875</ele>
        <time>2017-12-19T06:22:23Z</time>
      </trkpt>
      <trkpt lat="38.890500012785196" lon="-0.213380036875606">
        <ele>86.98046875</ele>
        <time>2017-12-19T06:24:23Z</time>
      </trkpt>
      <trkpt lat="38.890389958396554" lon="-0.2133699785918">
        <ele>87.109375</ele>
        <time>2017-12-19T06:26:23Z</time>
      </trkpt>
      <trkpt lat="38.890279987826943" lon="-0.2133699785918">
        <ele>86.71484375</ele>
        <time>2017-12-19T06:28:23Z</time>
      </trkpt>
      <trkpt lat="38.890230031684041" lon="-0.213360004127026">
        <ele>86.58984375</ele>
        <time>2017-12-19T06:30:23Z</time>
      </trkpt>
      <trkpt lat="38.890170017257333" lon="-0.213329996913671">
        <ele>86.859375</ele>
        <time>2017-12-19T06:32:23Z</time>
      </trkpt>
      <trkpt lat="38.890089970082045" lon="-0.213299989700317">
        <ele>87.23828125</ele>
        <time>2017-12-19T06:34:23Z</time>
      </trkpt>
      <trkpt lat="38.889979999512434" lon="-0.213260008022189">
        <ele>86.5625</ele>
        <time>2017-12-19T06:36:23Z</time>
      </trkpt>
      <trkpt lat="38.8899299595505" lon="-0.213230000808835">
        <ele>86.4140625</ele>
        <time>2017-12-19T06:38:23Z</time>
      </trkpt>
      <trkpt lat="38.889889977872372" lon="-0.213209968060255">
        <ele>86.01953125</ele>
        <time>2017-12-19T06:40:23Z</time>
      </trkpt>
      <trkpt lat="38.889840021729469" lon="-0.213190019130707">
        <ele>85.12109375</ele>
        <time>2017-12-19T06:42:23Z</time>
      </trkpt>
      <trkpt lat="38.889740025624633" lon="-0.213120030239224">
        <ele>84.625</ele>
        <time>2017-12-19T06:44:23Z</time>
      </trkpt>
      <trkpt lat="38.889550007879734" lon="-0.212979968637228">
        <ele>85.703125</ele>
        <time>2017-12-19T06:46:23Z</time>
      </trkpt>
      <trkpt lat="38.889429979026318" lon="-0.212879972532392">
        <ele>86.55078125</ele>
        <time>2017-12-19T06:48:23Z</time>
      </trkpt>
      <trkpt lat="38.889280026778579" lon="-0.212779976427555">
        <ele>88.484375</ele>
        <time>2017-12-19T06:50:23Z</time>
      </trkpt>
      <trkpt lat="38.889180030673742" lon="-0.212730020284653">
        <ele>89.10546875</ele>
        <time>2017-12-19T06:52:23Z</time>
      </trkpt>
      <trkpt lat="38.889060001820326" lon="-0.212670005857944">
        <ele>89.40234375</ele>
        <time>2017-12-19T06:54:23Z</time>
      </trkpt>
      <trkpt lat="38.888950031250715" lon="-0.212630024179816">
        <ele>89.31640625</ele>
        <time>2017-12-19T06:56:23Z</time>
      </trkpt>
      <trkpt lat="38.888939972966909" lon="-0.21261996589601">
        <ele>89.375</ele>
        <time>2017-12-19T06:58:23Z</time>
      </trkpt>
      <trkpt lat="38.888830002397299" lon="-0.212600016966462">
        <ele>89.4765625</ele>
        <time>2017-12-19T07:00:23Z</time>
      </trkpt>
      <trkpt lat="38.888779962435365" lon="-0.212579984217882">
        <ele>89.67578125</ele>
        <time>2017-12-19T07:02:23Z</time>
      </trkpt>
      <trkpt lat="38.888730006292462" lon="-0.212549977004528">
        <ele>89.9453125</ele>
        <time>2017-12-19T07:04:23Z</time>
      </trkpt>
      <trkpt lat="38.888690024614334" lon="-0.212519969791174">
        <ele>90.328125</ele>
        <time>2017-12-19T07:06:23Z</time>
      </trkpt>
      <trkpt lat="38.888649959117174" lon="-0.212500020861626">
        <ele>90.8203125</ele>
        <time>2017-12-19T07:08:23Z</time>
      </trkpt>
      <trkpt lat="38.888530014082789" lon="-0.212419973686337">
        <ele>92.0390625</ele>
        <time>2017-12-19T07:10:23Z</time>
      </trkpt>
      <trkpt lat="38.888430017977953" lon="-0.212319977581501">
        <ele>92.046875</ele>
        <time>2017-12-19T07:12:23Z</time>
      </trkpt>
      <trkpt lat="38.888430017977953" lon="-0.212319977581501">
        <ele>92.046875</ele>
        <time>2017-12-19T07:14:23Z</time>
      </trkpt>
      <trkpt lat="38.888419959694147" lon="-0.212319977581501">
        <ele>92.046875</ele>
        <time>2017-12-19T07:16:23Z</time>
      </trkpt>
      <trkpt lat="38.888409985229373" lon="-0.212319977581501">
        <ele>92.046875</ele>
        <time>2017-12-19T07:18:23Z</time>
      </trkpt>
      <trkpt lat="38.888400010764599" lon="-0.212319977581501">
        <ele>92.046875</ele>
        <time>2017-12-19T07:20:23Z</time>
      </trkpt>
      <trkpt lat="38.888390036299825" lon="-0.212310003116727">
        <ele>92.046875</ele>
        <time>2017-12-19T07:22:23Z</time>
      </trkpt>
      <trkpt lat="38.888379978016019" lon="-0.212310003116727">
        <ele>92.046875</ele>
        <time>2017-12-19T07:24:23Z</time>
      </trkpt>
      <trkpt lat="38.888370003551245" lon="-0.212310003116727">
        <ele>92.046875</ele>
        <time>2017-12-19T07:26:23Z</time>
      </trkpt>
      <trkpt lat="38.888360029086471" lon="-0.212300028651953">
        <ele>92.046875</ele>
        <time>2017-12-19T07:28:23Z</time>
      </trkpt>
      <trkpt lat="38.888349970802665" lon="-0.212300028651953">
        <ele>92.046875</ele>
        <time>2017-12-19T07:30:23Z</time>
      </trkpt>
      <trkpt lat="38.888349970802665" lon="-0.212289970368147">
        <ele>92.046875</ele>
        <time>2017-12-19T07:32:23Z</time>
      </trkpt>
      <trkpt lat="38.888339996337891" lon="-0.212289970368147">
        <ele>92.03125</ele>
        <time>2017-12-19T07:34:23Z</time>
      </trkpt>
      <trkpt lat="38.888330021873116" lon="-0.212279995903373">
        <ele>91.96484375</ele>
        <time>2017-12-19T07:36:23Z</time>
      </trkpt>
      <trkpt lat="38.888330021873116" lon="-0.212270021438599">
        <ele>92.04296875</ele>
        <time>2017-12-19T07:38:23Z</time>
      </trkpt>
      <trkpt lat="38.888319963589311" lon="-0.212259963154793">
        <ele>92.07421875</ele>
        <time>2017-12-19T07:40:23Z</time>
      </trkpt>
      <trkpt lat="38.888309989124537" lon="-0.212259963154793">
        <ele>92.01171875</ele>
        <time>2017-12-19T07:42:23Z</time>
      </trkpt>
      <trkpt lat="38.888300014659762" lon="-0.212240014225245">
        <ele>92.140625</ele>
        <time>2017-12-19T07:44:23Z</time>
      </trkpt>
      <trkpt lat="38.888300014659762" lon="-0.21223003976047">
        <ele>92.2421875</ele>
        <time>2017-12-19T07:46:23Z</time>
      </trkpt>
      <trkpt lat="38.888300014659762" lon="-0.212219981476665">
        <ele>92.33984375</ele>
        <time>2017-12-19T07:48:23Z</time>
      </trkpt>
      <trkpt lat="38.888290040194988" lon="-0.21221000701189">
        <ele>92.37109375</ele>
        <time>2017-12-19T07:50:23Z</time>
      </trkpt>
      <trkpt lat="38.888290040194988" lon="-0.212200032547116">
        <ele>92.47265625</ele>
        <time>2017-12-19T07:52:23Z</time>
      </trkpt>
      <trkpt lat="38.888290040194988" lon="-0.21218997426331">
        <ele>92.5703125</ele>
        <time>2017-12-19T07:54:23Z</time>
      </trkpt>
      <trkpt lat="38.888279981911182" lon="-0.212179999798536">
        <ele>92.546875</ele>
        <time>2017-12-19T07:56:23Z</time>
      </trkpt>
      <trkpt lat="38.888279981911182" lon="-0.212170025333762">
        <ele>92.546875</ele>
        <time>2017-12-19T07:58:23Z</time>
      </trkpt>
      <trkpt lat="38.888279981911182" lon="-0.212159967049956">
        <ele>92.546875</ele>
        <time>2017-12-19T08:00:23Z</time>
      </trkpt>
      <trkpt lat="38.888279981911182" lon="-0.212149992585182">
        <ele>92.546875</ele>
        <time>2017-12-19T08:02:23Z</time>
      </trkpt>
      <trkpt lat="38.888279981911182" lon="-0.212140018120408">
        <ele>92.546875</ele>
        <time>2017-12-19T08:04:23Z</time>
      </trkpt>
      <trkpt lat="38.888279981911182" lon="-0.212129959836602">
        <ele>92.546875</ele>
        <time>2017-12-19T08:06:23Z</time>
      </trkpt>
      <trkpt lat="38.888279981911182" lon="-0.212119985371828">
        <ele>92.546875</ele>
        <time>2017-12-19T08:08:23Z</time>
      </trkpt>
      <trkpt lat="38.888279981911182" lon="-0.212110010907054">
        <ele>92.546875</ele>
        <time>2017-12-19T08:10:23Z</time>
      </trkpt>
      <trkpt lat="38.888279981911182" lon="-0.21210003644228">
        <ele>92.546875</ele>
        <time>2017-12-19T08:12:23Z</time>
      </trkpt>
      <trkpt lat="38.888290040194988" lon="-0.212089978158474">
        <ele>92.60546875</ele>
        <time>2017-12-19T08:14:23Z</time>
      </trkpt>
      <trkpt lat="38.888290040194988" lon="-0.2120800036937">
        <ele>92.5703125</ele>
        <time>2017-12-19T08:16:23Z</time>
      </trkpt>
      <trkpt lat="38.888290040194988" lon="-0.212070029228926">
        <ele>92.5390625</ele>
        <time>2017-12-19T08:18:23Z</time>
      </trkpt>
      <trkpt lat="38.888179985806346" lon="-0.211789989843965">
        <ele>91.36328125</ele>
        <time>2017-12-19T08:20:23Z</time>
      </trkpt>
      <trkpt lat="38.888070015236735" lon="-0.211620004847646">
        <ele>92.30078125</ele>
        <time>2017-12-19T08:22:23Z</time>
      </trkpt>
      <trkpt lat="38.887499962002039" lon="-0.21076999604702">
        <ele>93.6015625</ele>
        <time>2017-12-19T08:24:23Z</time>
      </trkpt>
      <trkpt lat="38.887280020862818" lon="-0.210460033267736">
        <ele>94.875</ele>
        <time>2017-12-19T08:26:23Z</time>
      </trkpt>
      <trkpt lat="38.887080028653145" lon="-0.210140012204647">
        <ele>94.26953125</ele>
        <time>2017-12-19T08:28:23Z</time>
      </trkpt>
      <trkpt lat="38.886709967628121" lon="-0.209540035575628">
        <ele>95.29296875</ele>
        <time>2017-12-19T08:30:23Z</time>
      </trkpt>
      <trkpt lat="38.886660011485219" lon="-0.209429981186986">
        <ele>95.90234375</ele>
        <time>2017-12-19T08:32:23Z</time>
      </trkpt>
      <trkpt lat="38.886620029807091" lon="-0.209339959546924">
        <ele>96.01171875</ele>
        <time>2017-12-19T08:34:23Z</time>
      </trkpt>
      <trkpt lat="38.886599997058511" lon="-0.209250021725893">
        <ele>96.01171875</ele>
        <time>2017-12-19T08:36:23Z</time>
      </trkpt>
      <trkpt lat="38.886590022593737" lon="-0.209180032834411">
        <ele>96.01171875</ele>
        <time>2017-12-19T08:38:23Z</time>
      </trkpt>
      <trkpt lat="38.886590022593737" lon="-0.209180032834411">
        <ele>96.01171875</ele>
        <time>2017-12-19T08:40:23Z</time>
      </trkpt>
      <trkpt lat="38.886219961568713" lon="-0.209190007299185">
        <ele>97.5</ele>
        <time>2017-12-19T08:42:23Z</time>
      </trkpt>
      <trkpt lat="38.886170005425811" lon="-0.209199981763959">
        <ele>97.97265625</ele>
        <time>2017-12-19T08:44:23Z</time>
      </trkpt>
      <trkpt lat="38.886170005425811" lon="-0.209199981763959">
        <ele>97.97265625</ele>
        <time>2017-12-19T08:46:23Z</time>
      </trkpt>
      <trkpt lat="38.886119965463877" lon="-0.209199981763959">
        <ele>98.46875</ele>
        <time>2017-12-19T08:48:23Z</time>
      </trkpt>
      <trkpt lat="38.885749988257885" lon="-0.209160000085831">
        <ele>101.5078125</ele>
        <time>2017-12-19T08:50:23Z</time>
      </trkpt>
      <trkpt lat="38.885730039328337" lon="-0.209160000085831">
        <ele>101.63671875</ele>
        <time>2017-12-19T08:52:23Z</time>
      </trkpt>
      <trkpt lat="38.885679999366403" lon="-0.209169974550605">
        <ele>101.96875</ele>
        <time>2017-12-19T08:54:23Z</time>
      </trkpt>
      <trkpt lat="38.885600036010146" lon="-0.209190007299185">
        <ele>102.17578125</ele>
        <time>2017-12-19T08:56:23Z</time>
      </trkpt>
      <trkpt lat="38.885419992730021" lon="-0.209239963442087">
        <ele>102.2578125</ele>
        <time>2017-12-19T08:58:23Z</time>
      </trkpt>
      <trkpt lat="38.885419992730021" lon="-0.209239963442087">
        <ele>102.2578125</ele>
        <time>2017-12-19T09:00:23Z</time>
      </trkpt>
      <trkpt lat="38.885329971089959" lon="-0.209259996190667">
        <ele>102.5625</ele>
        <time>2017-12-19T09:02:23Z</time>
      </trkpt>
      <trkpt lat="38.885210026055574" lon="-0.209299977868795">
        <ele>103.00390625</ele>
        <time>2017-12-19T09:04:23Z</time>
      </trkpt>
      <trkpt lat="38.884910037741065" lon="-0.209410032257438">
        <ele>104.84765625</ele>
        <time>2017-12-19T09:06:23Z</time>
      </trkpt>
      <trkpt lat="38.884910037741065" lon="-0.209410032257438">
        <ele>104.84765625</ele>
        <time>2017-12-19T09:08:23Z</time>
      </trkpt>
      <trkpt lat="38.884799983352423" lon="-0.209489995613694">
        <ele>104.84765625</ele>
        <time>2017-12-19T09:10:23Z</time>
      </trkpt>
      <trkpt lat="38.884669980034232" lon="-0.209619998931885">
        <ele>104.84765625</ele>
        <time>2017-12-19T09:12:23Z</time>
      </trkpt>
      <trkpt lat="38.884530002251267" lon="-0.209780009463429">
        <ele>105.21484375</ele>
        <time>2017-12-19T09:14:23Z</time>
      </trkpt>
      <trkpt lat="38.884420031681657" lon="-0.209919987246394">
        <ele>105.890625</ele>
        <time>2017-12-19T09:16:23Z</time>
      </trkpt>
      <trkpt lat="38.884339984506369" lon="-0.209989976137877">
        <ele>106.1484375</ele>
        <time>2017-12-19T09:18:23Z</time>
      </trkpt>
      <trkpt lat="38.884139992296696" lon="-0.210140012204647">
        <ele>107.01171875</ele>
        <time>2017-12-19T09:20:23Z</time>
      </trkpt>
      <trkpt lat="38.884030021727085" lon="-0.210230033844709">
        <ele>107.72265625</ele>
        <time>2017-12-19T09:22:23Z</time>
      </trkpt>
      <trkpt lat="38.883819971233606" lon="-0.210430026054382">
        <ele>109.04296875</ele>
        <time>2017-12-19T09:24:23Z</time>
      </trkpt>
      <trkpt lat="38.88371997512877" lon="-0.210509989410639">
        <ele>109.1171875</ele>
        <time>2017-12-19T09:26:23Z</time>
      </trkpt>
      <trkpt lat="38.883489975705743" lon="-0.210619959980249">
        <ele>110.04296875</ele>
        <time>2017-12-19T09:28:23Z</time>
      </trkpt>
      <trkpt lat="38.883429961279035" lon="-0.210649967193604">
        <ele>110.2109375</ele>
        <time>2017-12-19T09:30:23Z</time>
      </trkpt>
      <trkpt lat="38.882959987968206" lon="-0.210930006578565">
        <ele>112.58984375</ele>
        <time>2017-12-19T09:32:23Z</time>
      </trkpt>
      <trkpt lat="38.882959987968206" lon="-0.210930006578565">
        <ele>112.58984375</ele>
        <time>2017-12-19T09:34:23Z</time>
      </trkpt>
      <trkpt lat="38.883029976859689" lon="-0.209210040047765">
        <ele>120.6796875</ele>
        <time>2017-12-19T09:36:23Z</time>
      </trkpt>
      <trkpt lat="38.883029976859689" lon="-0.209210040047765">
        <ele>120.6796875</ele>
        <time>2017-12-19T09:38:23Z</time>
      </trkpt>
      <trkpt lat="38.882590010762215" lon="-0.209529977291822">
        <ele>121.7109375</ele>
        <time>2017-12-19T09:40:23Z</time>
      </trkpt>
      <trkpt lat="38.882590010762215" lon="-0.209529977291822">
        <ele>121.7109375</ele>
        <time>2017-12-19T09:42:23Z</time>
      </trkpt>
      <trkpt lat="38.882390018552542" lon="-0.209469962865114">
        <ele>125.35546875</ele>
        <time>2017-12-19T09:44:23Z</time>
      </trkpt>
      <trkpt lat="38.882330004125834" lon="-0.209450013935566">
        <ele>126.07421875</ele>
        <time>2017-12-19T09:46:23Z</time>
      </trkpt>
      <trkpt lat="38.882279964163899" lon="-0.209429981186986">
        <ele>126.07421875</ele>
        <time>2017-12-19T09:48:23Z</time>
      </trkpt>
      <trkpt lat="38.882220033556223" lon="-0.209389999508858">
        <ele>126.16015625</ele>
        <time>2017-12-19T09:50:23Z</time>
      </trkpt>
      <trkpt lat="38.882179968059063" lon="-0.20932998508215">
        <ele>126.87109375</ele>
        <time>2017-12-19T09:52:23Z</time>
      </trkpt>
      <trkpt lat="38.882149960845709" lon="-0.209210040047765">
        <ele>128.18359375</ele>
        <time>2017-12-19T09:54:23Z</time>
      </trkpt>
      <trkpt lat="38.882130011916161" lon="-0.209099985659122">
        <ele>129.42578125</ele>
        <time>2017-12-19T09:56:23Z</time>
      </trkpt>
      <trkpt lat="38.882109979167581" lon="-0.209039971232414">
        <ele>130.2265625</ele>
        <time>2017-12-19T09:58:23Z</time>
      </trkpt>
      <trkpt lat="38.882079971954226" lon="-0.208950033411384">
        <ele>130.4296875</ele>
        <time>2017-12-19T10:00:23Z</time>
      </trkpt>
      <trkpt lat="38.882030015811324" lon="-0.208850037306547">
        <ele>131.09765625</ele>
        <time>2017-12-19T10:02:23Z</time>
      </trkpt>
      <trkpt lat="38.881970001384616" lon="-0.208769990131259">
        <ele>131.4140625</ele>
        <time>2017-12-19T10:04:23Z</time>
      </trkpt>
      <trkpt lat="38.881830023601651" lon="-0.20862003788352">
        <ele>133.19921875</ele>
        <time>2017-12-19T10:06:23Z</time>
      </trkpt>
      <trkpt lat="38.881740001961589" lon="-0.208530016243458">
        <ele>134.05859375</ele>
        <time>2017-12-19T10:08:23Z</time>
      </trkpt>
      <trkpt lat="38.881740001961589" lon="-0.208530016243458">
        <ele>134.05859375</ele>
        <time>2017-12-19T10:10:23Z</time>
      </trkpt>
      <trkpt lat="38.881630031391978" lon="-0.208409987390041">
        <ele>134.83984375</ele>
        <time>2017-12-19T10:12:23Z</time>
      </trkpt>
      <trkpt lat="38.881470020860434" lon="-0.208319965749979">
        <ele>136.58203125</ele>
        <time>2017-12-19T10:14:23Z</time>
      </trkpt>
      <trkpt lat="38.881310010328889" lon="-0.208249976858497">
        <ele>138.41015625</ele>
        <time>2017-12-19T10:16:23Z</time>
      </trkpt>
      <trkpt lat="38.881219988688827" lon="-0.208209995180368">
        <ele>138.94921875</ele>
        <time>2017-12-19T10:18:23Z</time>
      </trkpt>
      <trkpt lat="38.881170032545924" lon="-0.20817001350224">
        <ele>139.203125</ele>
        <time>2017-12-19T10:20:23Z</time>
      </trkpt>
      <trkpt lat="38.88114002533257" lon="-0.208130031824112">
        <ele>139.453125</ele>
        <time>2017-12-19T10:22:23Z</time>
      </trkpt>
      <trkpt lat="38.881089985370636" lon="-0.208030035719275">
        <ele>139.8828125</ele>
        <time>2017-12-19T10:24:23Z</time>
      </trkpt>
      <trkpt lat="38.880820004269481" lon="-0.207489989697933">
        <ele>145.53125</ele>
        <time>2017-12-19T10:26:23Z</time>
      </trkpt>
      <trkpt lat="38.880759989842772" lon="-0.207369960844517">
        <ele>147.43359375</ele>
        <time>2017-12-19T10:28:23Z</time>
      </trkpt>
      <trkpt lat="38.88069000095129" lon="-0.207259990274906">
        <ele>147.99609375</ele>
        <time>2017-12-19T10:30:23Z</time>
      </trkpt>
      <trkpt lat="38.880620012059808" lon="-0.20715999417007">
        <ele>148.8515625</ele>
        <time>2017-12-19T10:32:23Z</time>
      </trkpt>
      <trkpt lat="38.880520015954971" lon="-0.207050023600459">
        <ele>150.59765625</ele>
        <time>2017-12-19T10:34:23Z</time>
      </trkpt>
      <trkpt lat="38.880429994314909" lon="-0.206960001960397">
        <ele>152.234375</ele>
        <time>2017-12-19T10:36:23Z</time>
      </trkpt>
      <trkpt lat="38.880320023745298" lon="-0.20683997310698">
        <ele>154.140625</ele>
        <time>2017-12-19T10:38:23Z</time>
      </trkpt>
      <trkpt lat="38.880199994891882" lon="-0.20673000253737">
        <ele>155.1484375</ele>
        <time>2017-12-19T10:40:23Z</time>
      </trkpt>
      <trkpt lat="38.880049958825111" lon="-0.206549959257245">
        <ele>156.2421875</ele>
        <time>2017-12-19T10:42:23Z</time>
      </trkpt>
      <trkpt lat="38.879890032112598" lon="-0.206319959834218">
        <ele>158.03515625</ele>
        <time>2017-12-19T10:44:23Z</time>
      </trkpt>
      <trkpt lat="38.879800010472536" lon="-0.206149974837899">
        <ele>159.40234375</ele>
        <time>2017-12-19T10:46:23Z</time>
      </trkpt>
      <trkpt lat="38.8797000143677" lon="-0.205970015376806">
        <ele>161.66015625</ele>
        <time>2017-12-19T10:48:23Z</time>
      </trkpt>
      <trkpt lat="38.879549978300929" lon="-0.205719983205199">
        <ele>163.9375</ele>
        <time>2017-12-19T10:50:23Z</time>
      </trkpt>
      <trkpt lat="38.879500022158027" lon="-0.205589979887009">
        <ele>165.4375</ele>
        <time>2017-12-19T10:52:23Z</time>
      </trkpt>
      <trkpt lat="38.879489963874221" lon="-0.205519990995526">
        <ele>166.0234375</ele>
        <time>2017-12-19T10:54:23Z</time>
      </trkpt>
      <trkpt lat="38.879479989409447" lon="-0.20541999489069">
        <ele>166.7578125</ele>
        <time>2017-12-19T10:56:23Z</time>
      </trkpt>
      <trkpt lat="38.879479989409447" lon="-0.205280017107725">
        <ele>167.8203125</ele>
        <time>2017-12-19T10:58:23Z</time>
      </trkpt>
      <trkpt lat="38.879489963874221" lon="-0.205069966614246">
        <ele>167.8203125</ele>
        <time>2017-12-19T11:00:23Z</time>
      </trkpt>
      <trkpt lat="38.879479989409447" lon="-0.204780036583543">
        <ele>171.5703125</ele>
        <time>2017-12-19T11:02:23Z</time>
      </trkpt>
      <trkpt lat="38.879449982196093" lon="-0.204509971663356">
        <ele>173.703125</ele>
        <time>2017-12-19T11:04:23Z</time>
      </trkpt>
      <trkpt lat="38.879449982196093" lon="-0.204460015520453">
        <ele>173.734375</ele>
        <time>2017-12-19T11:06:23Z</time>
      </trkpt>
      <trkpt lat="38.879430033266544" lon="-0.204349961131811">
        <ele>174.8125</ele>
        <time>2017-12-19T11:08:23Z</time>
      </trkpt>
      <trkpt lat="38.879410000517964" lon="-0.204239990562201">
        <ele>174.93359375</ele>
        <time>2017-12-19T11:10:23Z</time>
      </trkpt>
      <trkpt lat="38.879370018839836" lon="-0.204160027205944">
        <ele>174.8671875</ele>
        <time>2017-12-19T11:12:23Z</time>
      </trkpt>
      <trkpt lat="38.879319978877902" lon="-0.204090038314462">
        <ele>176.02734375</ele>
        <time>2017-12-19T11:14:23Z</time>
      </trkpt>
      <trkpt lat="38.879259964451194" lon="-0.203989958390594">
        <ele>177.5859375</ele>
        <time>2017-12-19T11:16:23Z</time>
      </trkpt>
      <trkpt lat="38.879159968346357" lon="-0.203819973394275">
        <ele>178.76953125</ele>
        <time>2017-12-19T11:18:23Z</time>
      </trkpt>
      <trkpt lat="38.879080004990101" lon="-0.203689970076084">
        <ele>179.9765625</ele>
        <time>2017-12-19T11:20:23Z</time>
      </trkpt>
      <trkpt lat="38.879029965028167" lon="-0.203630039468408">
        <ele>180.90234375</ele>
        <time>2017-12-19T11:22:23Z</time>
      </trkpt>
      <trkpt lat="38.878980008885264" lon="-0.203600032255054">
        <ele>181.625</ele>
        <time>2017-12-19T11:24:23Z</time>
      </trkpt>
      <trkpt lat="38.87892996892333" lon="-0.203589973971248">
        <ele>182.4453125</ele>
        <time>2017-12-19T11:26:23Z</time>
      </trkpt>
      <trkpt lat="38.878859980031848" lon="-0.203579999506474">
        <ele>183.890625</ele>
        <time>2017-12-19T11:28:23Z</time>
      </trkpt>
      <trkpt lat="38.87879996560514" lon="-0.203610006719828">
        <ele>185.2265625</ele>
        <time>2017-12-19T11:30:23Z</time>
      </trkpt>
      <trkpt lat="38.878290010616183" lon="-0.203849980607629">
        <ele>191.43359375</ele>
        <time>2017-12-19T11:32:23Z</time>
      </trkpt>
      <trkpt lat="38.878229996189475" lon="-0.203889962285757">
        <ele>193.03515625</ele>
        <time>2017-12-19T11:34:23Z</time>
      </trkpt>
      <trkpt lat="38.878199988976121" lon="-0.203909995034337">
        <ele>194.0234375</ele>
        <time>2017-12-19T11:36:23Z</time>
      </trkpt>
      <trkpt lat="38.878190014511347" lon="-0.203940002247691">
        <ele>194.58203125</ele>
        <time>2017-12-19T11:38:23Z</time>
      </trkpt>
      <trkpt lat="38.878160007297993" lon="-0.203989958390594">
        <ele>195.92578125</ele>
        <time>2017-12-19T11:40:23Z</time>
      </trkpt>
      <trkpt lat="38.878130000084639" lon="-0.204070005565882">
        <ele>197.6796875</ele>
        <time>2017-12-19T11:42:23Z</time>
      </trkpt>
      <trkpt lat="38.878120025619864" lon="-0.204139994457364">
        <ele>198.18359375</ele>
        <time>2017-12-19T11:44:23Z</time>
      </trkpt>
      <trkpt lat="38.878109967336059" lon="-0.204249965026975">
        <ele>198.859375</ele>
        <time>2017-12-19T11:46:23Z</time>
      </trkpt>
      <trkpt lat="38.878120025619864" lon="-0.204450041055679">
        <ele>199.59375</ele>
        <time>2017-12-19T11:48:23Z</time>
      </trkpt>
      <trkpt lat="38.878180040046573" lon="-0.20499000325799">
        <ele>200.4140625</ele>
        <time>2017-12-19T11:50:23Z</time>
      </trkpt>
      <trkpt lat="38.878209963440895" lon="-0.20514003932476">
        <ele>200.90625</ele>
        <time>2017-12-19T11:52:23Z</time>
      </trkpt>
      <trkpt lat="38.878239970654249" lon="-0.205240035429597">
        <ele>201.6796875</ele>
        <time>2017-12-19T11:54:23Z</time>
      </trkpt>
      <trkpt lat="38.878280036151409" lon="-0.205370038747787">
        <ele>202.16015625</ele>
        <time>2017-12-19T11:56:23Z</time>
      </trkpt>
      <trkpt lat="38.878290010616183" lon="-0.205429969355464">
        <ele>202.65625</ele>
        <time>2017-12-19T11:58:23Z</time>
      </trkpt>
      <trkpt lat="38.878290010616183" lon="-0.205480009317398">
        <ele>203.4765625</ele>
        <time>2017-12-19T12:00:23Z</time>
      </trkpt>
      <trkpt lat="38.878280036151409" lon="-0.20554999820888">
        <ele>204.546875</ele>
        <time>2017-12-19T12:02:23Z</time>
      </trkpt>
      <trkpt lat="38.878269977867603" lon="-0.205589979887009">
        <ele>205.04296875</ele>
        <time>2017-12-19T12:04:23Z</time>
      </trkpt>
      <trkpt lat="38.878239970654249" lon="-0.205629961565137">
        <ele>205.6796875</ele>
        <time>2017-12-19T12:06:23Z</time>
      </trkpt>
      <trkpt lat="38.878209963440895" lon="-0.205640019848943">
        <ele>205.9765625</ele>
        <time>2017-12-19T12:08:23Z</time>
      </trkpt>
      <trkpt lat="38.878180040046573" lon="-0.205640019848943">
        <ele>206.17578125</ele>
        <time>2017-12-19T12:10:23Z</time>
      </trkpt>
      <trkpt lat="38.878139974549413" lon="-0.205629961565137">
        <ele>206.41796875</ele>
        <time>2017-12-19T12:12:23Z</time>
      </trkpt>
      <trkpt lat="38.87809001840651" lon="-0.20557003095746">
        <ele>206.70703125</ele>
        <time>2017-12-19T12:14:23Z</time>
      </trkpt>
      <trkpt lat="38.878009971231222" lon="-0.205499958246946">
        <ele>207.7890625</ele>
        <time>2017-12-19T12:16:23Z</time>
      </trkpt>
      <trkpt lat="38.877969989553094" lon="-0.205480009317398">
        <ele>208.19921875</ele>
        <time>2017-12-19T12:18:23Z</time>
      </trkpt>
      <trkpt lat="38.877920033410192" lon="-0.205480009317398">
        <ele>209.01953125</ele>
        <time>2017-12-19T12:20:23Z</time>
      </trkpt>
      <trkpt lat="38.877900000661612" lon="-0.205480009317398">
        <ele>209.3515625</ele>
        <time>2017-12-19T12:22:23Z</time>
      </trkpt>
      <trkpt lat="38.877879967913032" lon="-0.205499958246946">
        <ele>209.94140625</ele>
        <time>2017-12-19T12:24:23Z</time>
      </trkpt>
      <trkpt lat="38.877860018983483" lon="-0.205540023744106">
        <ele>210.828125</ele>
        <time>2017-12-19T12:26:23Z</time>
      </trkpt>
      <trkpt lat="38.877849960699677" lon="-0.205589979887009">
        <ele>211.4453125</ele>
        <time>2017-12-19T12:28:23Z</time>
      </trkpt>
      <trkpt lat="38.877839986234903" lon="-0.205680001527071">
        <ele>211.40625</ele>
        <time>2017-12-19T12:30:23Z</time>
      </trkpt>
      <trkpt lat="38.877830011770129" lon="-0.205770023167133">
        <ele>211.83984375</ele>
        <time>2017-12-19T12:32:23Z</time>
      </trkpt>
      <trkpt lat="38.877809979021549" lon="-0.205900026485324">
        <ele>212.390625</ele>
        <time>2017-12-19T12:34:23Z</time>
      </trkpt>
      <trkpt lat="38.877800004556775" lon="-0.205949982628226">
        <ele>212.43359375</ele>
        <time>2017-12-19T12:36:23Z</time>
      </trkpt>
      <trkpt lat="38.877769997343421" lon="-0.205970015376806">
        <ele>212.67578125</ele>
        <time>2017-12-19T12:38:23Z</time>
      </trkpt>
      <trkpt lat="38.877730015665293" lon="-0.20597998984158">
        <ele>213.0703125</ele>
        <time>2017-12-19T12:40:23Z</time>
      </trkpt>
      <trkpt lat="38.877679975703359" lon="-0.205960040912032">
        <ele>213.6328125</ele>
        <time>2017-12-19T12:42:23Z</time>
      </trkpt>
      <trkpt lat="38.87763999402523" lon="-0.205940008163452">
        <ele>214.16015625</ele>
        <time>2017-12-19T12:44:23Z</time>
      </trkpt>
      <trkpt lat="38.877600012347102" lon="-0.205889968201518">
        <ele>214.65625</ele>
        <time>2017-12-19T12:46:23Z</time>
      </trkpt>
      <trkpt lat="38.877570005133748" lon="-0.205819979310036">
        <ele>214.953125</ele>
        <time>2017-12-19T12:48:23Z</time>
      </trkpt>
      <trkpt lat="38.877549972385168" lon="-0.205749990418553">
        <ele>215.65234375</ele>
        <time>2017-12-19T12:50:23Z</time>
      </trkpt>
      <trkpt lat="38.877539997920394" lon="-0.205670027062297">
        <ele>216.5390625</ele>
        <time>2017-12-19T12:52:23Z</time>
      </trkpt>
      <trkpt lat="38.877539997920394" lon="-0.205589979887009">
        <ele>217.203125</ele>
        <time>2017-12-19T12:54:23Z</time>
      </trkpt>
      <trkpt lat="38.877560030668974" lon="-0.205450002104044">
        <ele>218.05859375</ele>
        <time>2017-12-19T12:56:23Z</time>
      </trkpt>
      <trkpt lat="38.877590037882328" lon="-0.205250009894371">
        <ele>219.0546875</ele>
        <time>2017-12-19T12:58:23Z</time>
      </trkpt>
      <trkpt lat="38.877609986811876" lon="-0.205080024898052">
        <ele>220.3359375</ele>
        <time>2017-12-19T13:00:23Z</time>
      </trkpt>
      <trkpt lat="38.877609986811876" lon="-0.204939963296056">
        <ele>223.25</ele>
        <time>2017-12-19T13:02:23Z</time>
      </trkpt>
      <trkpt lat="38.877600012347102" lon="-0.204699989408255">
        <ele>225.38671875</ele>
        <time>2017-12-19T13:04:23Z</time>
      </trkpt>
      <trkpt lat="38.877579979598522" lon="-0.204499997198582">
        <ele>226.484375</ele>
        <time>2017-12-19T13:06:23Z</time>
      </trkpt>
      <trkpt lat="38.877549972385168" lon="-0.204079980030656">
        <ele>231.1953125</ele>
        <time>2017-12-19T13:08:23Z</time>
      </trkpt>
      <trkpt lat="38.87753002345562" lon="-0.204019965603948">
        <ele>230.671875</ele>
        <time>2017-12-19T13:10:23Z</time>
      </trkpt>
      <trkpt lat="38.87750999070704" lon="-0.203979983925819">
        <ele>229.59375</ele>
        <time>2017-12-19T13:12:23Z</time>
      </trkpt>
      <trkpt lat="38.877479983493686" lon="-0.203949976712465">
        <ele>229.0078125</ele>
        <time>2017-12-19T13:14:23Z</time>
      </trkpt>
      <trkpt lat="38.877430027350783" lon="-0.203930027782917">
        <ele>229.109375</ele>
        <time>2017-12-19T13:16:23Z</time>
      </trkpt>
      <trkpt lat="38.877379987388849" lon="-0.203909995034337">
        <ele>229.4375</ele>
        <time>2017-12-19T13:18:23Z</time>
      </trkpt>
      <trkpt lat="38.877300024032593" lon="-0.203900020569563">
        <ele>230.58984375</ele>
        <time>2017-12-19T13:20:23Z</time>
      </trkpt>
      <trkpt lat="38.87718996964395" lon="-0.203879987820983">
        <ele>230.5234375</ele>
        <time>2017-12-19T13:22:23Z</time>
      </trkpt>
      <trkpt lat="38.87707999907434" lon="-0.203889962285757">
        <ele>230.2578125</ele>
        <time>2017-12-19T13:24:23Z</time>
      </trkpt>
      <trkpt lat="38.876970028504729" lon="-0.203949976712465">
        <ele>231.7109375</ele>
        <time>2017-12-19T13:26:23Z</time>
      </trkpt>
      <trkpt lat="38.876880006864667" lon="-0.204019965603948">
        <ele>233.78515625</ele>
        <time>2017-12-19T13:28:23Z</time>
      </trkpt>
      <trkpt lat="38.87678001075983" lon="-0.204170001670718">
        <ele>235.9921875</ele>
        <time>2017-12-19T13:30:23Z</time>
      </trkpt>
      <trkpt lat="38.876699963584542" lon="-0.204360019415617">
        <ele>237.82421875</ele>
        <time>2017-12-19T13:32:23Z</time>
      </trkpt>
      <trkpt lat="38.876610025763512" lon="-0.204620026051998">
        <ele>241.4296875</ele>
        <time>2017-12-19T13:34:23Z</time>
      </trkpt>
      <trkpt lat="38.876550011336803" lon="-0.204809959977865">
        <ele>243.5234375</ele>
        <time>2017-12-19T13:36:23Z</time>
      </trkpt>
      <trkpt lat="38.876510029658675" lon="-0.204980028793216">
        <ele>244.10546875</ele>
        <time>2017-12-19T13:38:23Z</time>
      </trkpt>
      <trkpt lat="38.876469964161515" lon="-0.205089999362826">
        <ele>246.328125</ele>
        <time>2017-12-19T13:40:23Z</time>
      </trkpt>
      <trkpt lat="38.876450015231967" lon="-0.205159988254309">
        <ele>247.4765625</ele>
        <time>2017-12-19T13:42:23Z</time>
      </trkpt>
      <trkpt lat="38.876420008018613" lon="-0.205199969932437">
        <ele>248.56640625</ele>
        <time>2017-12-19T13:44:23Z</time>
      </trkpt>
      <trkpt lat="38.876380026340485" lon="-0.205220002681017">
        <ele>249.72265625</ele>
        <time>2017-12-19T13:46:23Z</time>
      </trkpt>
      <trkpt lat="38.876269971951842" lon="-0.205259984359145">
        <ele>252.37890625</ele>
        <time>2017-12-19T13:48:23Z</time>
      </trkpt>
      <trkpt lat="38.876120019704103" lon="-0.205280017107725">
        <ele>254</ele>
        <time>2017-12-19T13:50:23Z</time>
      </trkpt>
      <trkpt lat="38.875979958102107" lon="-0.205259984359145">
        <ele>254.7734375</ele>
        <time>2017-12-19T13:52:23Z</time>
      </trkpt>
      <trkpt lat="38.875820031389594" lon="-0.205199969932437">
        <ele>255.02734375</ele>
        <time>2017-12-19T13:54:23Z</time>
      </trkpt>
      <trkpt lat="38.875639988109469" lon="-0.20512000657618">
        <ele>258.07421875</ele>
        <time>2017-12-19T13:56:23Z</time>
      </trkpt>
      <trkpt lat="38.875379981473088" lon="-0.204939963296056">
        <ele>262.28125</ele>
        <time>2017-12-19T13:58:23Z</time>
      </trkpt>
      <trkpt lat="38.87531996704638" lon="-0.204869974404573">
        <ele>263.75</ele>
        <time>2017-12-19T14:00:23Z</time>
      </trkpt>
      <trkpt lat="38.875279985368252" lon="-0.204799985513091">
        <ele>264.76953125</ele>
        <time>2017-12-19T14:02:23Z</time>
      </trkpt>
      <trkpt lat="38.875279985368252" lon="-0.204750029370189">
        <ele>264.9375</ele>
        <time>2017-12-19T14:04:23Z</time>
      </trkpt>
      <trkpt lat="38.875279985368252" lon="-0.20469001494348">
        <ele>265.56640625</ele>
        <time>2017-12-19T14:06:23Z</time>
      </trkpt>
      <trkpt lat="38.875309992581606" lon="-0.204630000516772">
        <ele>265.99609375</ele>
        <time>2017-12-19T14:08:23Z</time>
      </trkpt>
      <trkpt lat="38.875349974259734" lon="-0.204569986090064">
        <ele>265.76953125</ele>
        <time>2017-12-19T14:10:23Z</time>
      </trkpt>
      <trkpt lat="38.875390039756894" lon="-0.204509971663356">
        <ele>265.53125</ele>
        <time>2017-12-19T14:12:23Z</time>
      </trkpt>
      <trkpt lat="38.875400014221668" lon="-0.204439982771873">
        <ele>265.8671875</ele>
        <time>2017-12-19T14:14:23Z</time>
      </trkpt>
      <trkpt lat="38.875409988686442" lon="-0.204369993880391">
        <ele>266.40234375</ele>
        <time>2017-12-19T14:16:23Z</time>
      </trkpt>
      <trkpt lat="38.875419963151217" lon="-0.204190034419298">
        <ele>267.95703125</ele>
        <time>2017-12-19T14:18:23Z</time>
      </trkpt>
      <trkpt lat="38.875409988686442" lon="-0.203840006142855">
        <ele>270.83984375</ele>
        <time>2017-12-19T14:20:23Z</time>
      </trkpt>
      <trkpt lat="38.875400014221668" lon="-0.203610006719828">
        <ele>273.99609375</ele>
        <time>2017-12-19T14:22:23Z</time>
      </trkpt>
      <trkpt lat="38.875409988686442" lon="-0.203370032832026">
        <ele>276.1171875</ele>
        <time>2017-12-19T14:24:23Z</time>
      </trkpt>
      <trkpt lat="38.875449970364571" lon="-0.203069960698485">
        <ele>276.21484375</ele>
        <time>2017-12-19T14:26:23Z</time>
      </trkpt>
      <trkpt lat="38.875470003113151" lon="-0.202940041199327">
        <ele>276.35546875</ele>
        <time>2017-12-19T14:28:23Z</time>
      </trkpt>
      <trkpt lat="38.875519959256053" lon="-0.202829986810684">
        <ele>277.11328125</ele>
        <time>2017-12-19T14:30:23Z</time>
      </trkpt>
      <trkpt lat="38.875569999217987" lon="-0.202710041776299">
        <ele>278.37890625</ele>
        <time>2017-12-19T14:32:23Z</time>
      </trkpt>
      <trkpt lat="38.875600006431341" lon="-0.202639969065785">
        <ele>278.70703125</ele>
        <time>2017-12-19T14:34:23Z</time>
      </trkpt>
      <trkpt lat="38.875630013644695" lon="-0.202569980174303">
        <ele>279.0703125</ele>
        <time>2017-12-19T14:36:23Z</time>
      </trkpt>
      <trkpt lat="38.875639988109469" lon="-0.202499991282821">
        <ele>279.6640625</ele>
        <time>2017-12-19T14:38:23Z</time>
      </trkpt>
      <trkpt lat="38.875639988109469" lon="-0.202420027926564">
        <ele>280.671875</ele>
        <time>2017-12-19T14:40:23Z</time>
      </trkpt>
      <trkpt lat="38.875639988109469" lon="-0.202350039035082">
        <ele>281.265625</ele>
        <time>2017-12-19T14:42:23Z</time>
      </trkpt>
      <trkpt lat="38.875630013644695" lon="-0.202249959111214">
        <ele>282.0234375</ele>
        <time>2017-12-19T14:44:23Z</time>
      </trkpt>
      <trkpt lat="38.875609980896115" lon="-0.202179970219731">
        <ele>283.41796875</ele>
        <time>2017-12-19T14:46:23Z</time>
      </trkpt>
      <trkpt lat="38.875479977577925" lon="-0.201770011335611">
        <ele>286.91796875</ele>
        <time>2017-12-19T14:48:23Z</time>
      </trkpt>
      <trkpt lat="38.875439995899796" lon="-0.201709996908903">
        <ele>287.25390625</ele>
        <time>2017-12-19T14:50:23Z</time>
      </trkpt>
      <trkpt lat="38.875409988686442" lon="-0.201670015230775">
        <ele>287.38671875</ele>
        <time>2017-12-19T14:52:23Z</time>
      </trkpt>
      <trkpt lat="38.87536003254354" lon="-0.201649982482195">
        <ele>288.52734375</ele>
        <time>2017-12-19T14:54:23Z</time>
      </trkpt>
      <trkpt lat="38.875330025330186" lon="-0.201670015230775">
        <ele>289.734375</ele>
        <time>2017-12-19T14:56:23Z</time>
      </trkpt>
      <trkpt lat="38.875289959833026" lon="-0.201689964160323">
        <ele>291.1171875</ele>
        <time>2017-12-19T14:58:23Z</time>
      </trkpt>
      <trkpt lat="38.875279985368252" lon="-0.201730029657483">
        <ele>291.73828125</ele>
        <time>2017-12-19T15:00:23Z</time>
      </trkpt>
      <trkpt lat="38.875270010903478" lon="-0.20178996026516">
        <ele>292.41796875</ele>
        <time>2017-12-19T15:02:23Z</time>
      </trkpt>
      <trkpt lat="38.875260036438704" lon="-0.201879981905222">
        <ele>293.421875</ele>
        <time>2017-12-19T15:04:23Z</time>
      </trkpt>
      <trkpt lat="38.875249978154898" lon="-0.202019959688187">
        <ele>294.203125</ele>
        <time>2017-12-19T15:06:23Z</time>
      </trkpt>
      <trkpt lat="38.875240003690124" lon="-0.202120039612055">
        <ele>295.1484375</ele>
        <time>2017-12-19T15:08:23Z</time>
      </trkpt>
      <trkpt lat="38.875230029225349" lon="-0.202190028503537">
        <ele>295.4453125</ele>
        <time>2017-12-19T15:10:23Z</time>
      </trkpt>
      <trkpt lat="38.875200022011995" lon="-0.202290024608374">
        <ele>295.40625</ele>
        <time>2017-12-19T15:12:23Z</time>
      </trkpt>
      <trkpt lat="38.875140007585287" lon="-0.202450035139918">
        <ele>296.80859375</ele>
        <time>2017-12-19T15:14:23Z</time>
      </trkpt>
      <trkpt lat="38.875079993158579" lon="-0.202580038458109">
        <ele>298.48828125</ele>
        <time>2017-12-19T15:16:23Z</time>
      </trkpt>
      <trkpt lat="38.875019978731871" lon="-0.202780030667782">
        <ele>299.63671875</ele>
        <time>2017-12-19T15:18:23Z</time>
      </trkpt>
      <trkpt lat="38.874940015375614" lon="-0.203020004555583">
        <ele>301.53125</ele>
        <time>2017-12-19T15:20:23Z</time>
      </trkpt>
      <trkpt lat="38.874880000948906" lon="-0.203210022300482">
        <ele>304.58984375</ele>
        <time>2017-12-19T15:22:23Z</time>
      </trkpt>
      <trkpt lat="38.874829960986972" lon="-0.203429963439703">
        <ele>305.375</ele>
        <time>2017-12-19T15:24:23Z</time>
      </trkpt>
      <trkpt lat="38.87475997209549" lon="-0.203649988397956">
        <ele>308.14453125</ele>
        <time>2017-12-19T15:26:23Z</time>
      </trkpt>
      <trkpt lat="38.874659975990653" lon="-0.203870013356209">
        <ele>310.27734375</ele>
        <time>2017-12-19T15:28:23Z</time>
      </trkpt>
      <trkpt lat="38.874550005421042" lon="-0.204049972817302">
        <ele>311.046875</ele>
        <time>2017-12-19T15:30:23Z</time>
      </trkpt>
      <trkpt lat="38.874320005998015" lon="-0.204400001093745">
        <ele>317.81640625</ele>
        <time>2017-12-19T15:32:23Z</time>
      </trkpt>
      <trkpt lat="38.874190002679825" lon="-0.204550037160516">
        <ele>317.5234375</ele>
        <time>2017-12-19T15:34:23Z</time>
      </trkpt>
      <trkpt lat="38.874080032110214" lon="-0.204630000516772">
        <ele>317.96484375</ele>
        <time>2017-12-19T15:36:23Z</time>
      </trkpt>
      <trkpt lat="38.87392002157867" lon="-0.204699989408255">
        <ele>319.96875</ele>
        <time>2017-12-19T15:38:23Z</time>
      </trkpt>
      <trkpt lat="38.873820025473833" lon="-0.204729996621609">
        <ele>321.36328125</ele>
        <time>2017-12-19T15:40:23Z</time>
      </trkpt>
      <trkpt lat="38.873760011047125" lon="-0.204780036583543">
        <ele>322.0546875</ele>
        <time>2017-12-19T15:42:23Z</time>
      </trkpt>
      <trkpt lat="38.873709971085191" lon="-0.204829992726445">
        <ele>323.1328125</ele>
        <time>2017-12-19T15:44:23Z</time>
      </trkpt>
      <trkpt lat="38.873679963871837" lon="-0.204899981617928">
        <ele>324.06640625</ele>
        <time>2017-12-19T15:46:23Z</time>
      </trkpt>
      <trkpt lat="38.873660014942288" lon="-0.204980028793216">
        <ele>324.90234375</ele>
        <time>2017-12-19T15:48:23Z</time>
      </trkpt>
      <trkpt lat="38.873650040477514" lon="-0.205059992149472">
        <ele>326.4296875</ele>
        <time>2017-12-19T15:50:23Z</time>
      </trkpt>
      <trkpt lat="38.873630007728934" lon="-0.20512000657618">
        <ele>327.02734375</ele>
        <time>2017-12-19T15:52:23Z</time>
      </trkpt>
      <trkpt lat="38.873590026050806" lon="-0.205180021002889">
        <ele>327.82421875</ele>
        <time>2017-12-19T15:54:23Z</time>
      </trkpt>
      <trkpt lat="38.873560018837452" lon="-0.205240035429597">
        <ele>328.41796875</ele>
        <time>2017-12-19T15:56:23Z</time>
      </trkpt>
      <trkpt lat="38.873509978875518" lon="-0.205310024321079">
        <ele>329.31640625</ele>
        <time>2017-12-19T15:58:23Z</time>
      </trkpt>
      <trkpt lat="38.873430015519261" lon="-0.205459976568818">
        <ele>330.375</ele>
        <time>2017-12-19T16:00:23Z</time>
      </trkpt>
      <trkpt lat="38.873270004987717" lon="-0.205689975991845">
        <ele>332.40625</ele>
        <time>2017-12-19T16:02:23Z</time>
      </trkpt>
      <trkpt lat="38.8731499761343" lon="-0.205889968201518">
        <ele>335.328125</ele>
        <time>2017-12-19T16:04:23Z</time>
      </trkpt>
      <trkpt lat="38.87306003831327" lon="-0.20597998984158">
        <ele>337.76171875</ele>
        <time>2017-12-19T16:06:23Z</time>
      </trkpt>
      <trkpt lat="38.872959958389401" lon="-0.206060037016869">
        <ele>339.46875</ele>
        <time>2017-12-19T16:08:23Z</time>
      </trkpt>
      <trkpt lat="38.872879995033145" lon="-0.206119967624545">
        <ele>340.296875</ele>
        <time>2017-12-19T16:10:23Z</time>
      </trkpt>
      <trkpt lat="38.872830038890243" lon="-0.206130025908351">
        <ele>340.91796875</ele>
        <time>2017-12-19T16:12:23Z</time>
      </trkpt>
      <trkpt lat="38.872759966179729" lon="-0.206119967624545">
        <ele>342.10546875</ele>
        <time>2017-12-19T16:14:23Z</time>
      </trkpt>
      <trkpt lat="38.872710010036826" lon="-0.206089960411191">
        <ele>343.29296875</ele>
        <time>2017-12-19T16:16:23Z</time>
      </trkpt>
      <trkpt lat="38.872659970074892" lon="-0.206040004268289">
        <ele>344.80859375</ele>
        <time>2017-12-19T16:18:23Z</time>
      </trkpt>
      <trkpt lat="38.872640021145344" lon="-0.20597998984158">
        <ele>345.3515625</ele>
        <time>2017-12-19T16:20:23Z</time>
      </trkpt>
      <trkpt lat="38.87261001393199" lon="-0.205910000950098">
        <ele>345.55078125</ele>
        <time>2017-12-19T16:22:23Z</time>
      </trkpt>
      <trkpt lat="38.872580006718636" lon="-0.205800030380487">
        <ele>345.859375</ele>
        <time>2017-12-19T16:24:23Z</time>
      </trkpt>
      <trkpt lat="38.872549999505281" lon="-0.205710008740425">
        <ele>346.3515625</ele>
        <time>2017-12-19T16:26:23Z</time>
      </trkpt>
      <trkpt lat="38.872510017827153" lon="-0.205610012635589">
        <ele>346.78515625</ele>
        <time>2017-12-19T16:28:23Z</time>
      </trkpt>
      <trkpt lat="38.872450003400445" lon="-0.205519990995526">
        <ele>347.921875</ele>
        <time>2017-12-19T16:30:23Z</time>
      </trkpt>
      <trkpt lat="38.872359981760383" lon="-0.20541999489069">
        <ele>349.44921875</ele>
        <time>2017-12-19T16:32:23Z</time>
      </trkpt>
      <trkpt lat="38.872299967333674" lon="-0.205370038747787">
        <ele>350.33984375</ele>
        <time>2017-12-19T16:34:23Z</time>
      </trkpt>
      <trkpt lat="38.872229978442192" lon="-0.205329973250628">
        <ele>351.328125</ele>
        <time>2017-12-19T16:36:23Z</time>
      </trkpt>
      <trkpt lat="38.872140040621161" lon="-0.205310024321079">
        <ele>352.54296875</ele>
        <time>2017-12-19T16:38:23Z</time>
      </trkpt>
      <trkpt lat="38.872050018981099" lon="-0.205299966037273">
        <ele>353.2265625</ele>
        <time>2017-12-19T16:40:23Z</time>
      </trkpt>
      <trkpt lat="38.871969971805811" lon="-0.205310024321079">
        <ele>353.8828125</ele>
        <time>2017-12-19T16:42:23Z</time>
      </trkpt>
      <trkpt lat="38.871869975700974" lon="-0.205340031534433">
        <ele>355.75390625</ele>
        <time>2017-12-19T16:44:23Z</time>
      </trkpt>
      <trkpt lat="38.871790012344718" lon="-0.205380013212562">
        <ele>356.8046875</ele>
        <time>2017-12-19T16:46:23Z</time>
      </trkpt>
      <trkpt lat="38.871699990704656" lon="-0.205429969355464">
        <ele>357.6015625</ele>
        <time>2017-12-19T16:48:23Z</time>
      </trkpt>
      <trkpt lat="38.871620027348399" lon="-0.205459976568818">
        <ele>357.8984375</ele>
        <time>2017-12-19T16:50:23Z</time>
      </trkpt>
      <trkpt lat="38.871550038456917" lon="-0.205489983782172">
        <ele>358.63671875</ele>
        <time>2017-12-19T16:52:23Z</time>
      </trkpt>
      <trkpt lat="38.871460016816854" lon="-0.205519990995526">
        <ele>359.7578125</ele>
        <time>2017-12-19T16:54:23Z</time>
      </trkpt>
      <trkpt lat="38.871360020712018" lon="-0.205540023744106">
        <ele>360.48828125</ele>
        <time>2017-12-19T16:56:23Z</time>
      </trkpt>
      <trkpt lat="38.87127997353673" lon="-0.20554999820888">
        <ele>361.0078125</ele>
        <time>2017-12-19T16:58:23Z</time>
      </trkpt>
      <trkpt lat="38.871190035715699" lon="-0.20554999820888">
        <ele>361.52734375</ele>
        <time>2017-12-19T17:00:23Z</time>
      </trkpt>
      <trkpt lat="38.871119963005185" lon="-0.20554999820888">
        <ele>362.25390625</ele>
        <time>2017-12-19T17:02:23Z</time>
      </trkpt>
      <trkpt lat="38.870989959686995" lon="-0.2055299654603">
        <ele>363.828125</ele>
        <time>2017-12-19T17:04:23Z</time>
      </trkpt>
      <trkpt lat="38.870940003544092" lon="-0.205510016530752">
        <ele>364.58984375</ele>
        <time>2017-12-19T17:06:23Z</time>
      </trkpt>
      <trkpt lat="38.870909996330738" lon="-0.205489983782172">
        <ele>365.5703125</ele>
        <time>2017-12-19T17:08:23Z</time>
      </trkpt>
      <trkpt lat="38.870860040187836" lon="-0.205450002104044">
        <ele>367.57421875</ele>
        <time>2017-12-19T17:10:23Z</time>
      </trkpt>
      <trkpt lat="38.870830032974482" lon="-0.205410020425916">
        <ele>369.39453125</ele>
        <time>2017-12-19T17:12:23Z</time>
      </trkpt>
      <trkpt lat="38.870819974690676" lon="-0.205359980463982">
        <ele>370.125</ele>
        <time>2017-12-19T17:14:23Z</time>
      </trkpt>
      <trkpt lat="38.870819974690676" lon="-0.205310024321079">
        <ele>370.2890625</ele>
        <time>2017-12-19T17:16:23Z</time>
      </trkpt>
      <trkpt lat="38.870830032974482" lon="-0.205240035429597">
        <ele>370.0546875</ele>
        <time>2017-12-19T17:18:23Z</time>
      </trkpt>
      <trkpt lat="38.870840007439256" lon="-0.205169962719083">
        <ele>369.9296875</ele>
        <time>2017-12-19T17:20:23Z</time>
      </trkpt>
      <trkpt lat="38.870900021865964" lon="-0.204959996044636">
        <ele>369.90625</ele>
        <time>2017-12-19T17:22:23Z</time>
      </trkpt>
      <trkpt lat="38.870970010757446" lon="-0.204760003834963">
        <ele>372.34765625</ele>
        <time>2017-12-19T17:24:23Z</time>
      </trkpt>
      <trkpt lat="38.871030025184155" lon="-0.204590018838644">
        <ele>372.59765625</ele>
        <time>2017-12-19T17:26:23Z</time>
      </trkpt>
      <trkpt lat="38.871109988540411" lon="-0.204409975558519">
        <ele>373.13671875</ele>
        <time>2017-12-19T17:28:23Z</time>
      </trkpt>
      <trkpt lat="38.871160028502345" lon="-0.204309979453683">
        <ele>373.8203125</ele>
        <time>2017-12-19T17:30:23Z</time>
      </trkpt>
      <trkpt lat="38.871219959110022" lon="-0.204200008884072">
        <ele>374.53515625</ele>
        <time>2017-12-19T17:32:23Z</time>
      </trkpt>
      <trkpt lat="38.87130000628531" lon="-0.204090038314462">
        <ele>375.48828125</ele>
        <time>2017-12-19T17:34:23Z</time>
      </trkpt>
      <trkpt lat="38.871360020712018" lon="-0.204000016674399">
        <ele>376.4375</ele>
        <time>2017-12-19T17:36:23Z</time>
      </trkpt>
      <trkpt lat="38.87140997685492" lon="-0.203919969499111">
        <ele>376.859375</ele>
        <time>2017-12-19T17:38:23Z</time>
      </trkpt>
      <trkpt lat="38.871449958533049" lon="-0.203819973394275">
        <ele>377.87109375</ele>
        <time>2017-12-19T17:40:23Z</time>
      </trkpt>
      <trkpt lat="38.871479965746403" lon="-0.203730035573244">
        <ele>378.0078125</ele>
        <time>2017-12-19T17:42:23Z</time>
      </trkpt>
      <trkpt lat="38.871490024030209" lon="-0.203670021146536">
        <ele>377.9765625</ele>
        <time>2017-12-19T17:44:23Z</time>
      </trkpt>
      <trkpt lat="38.871499998494983" lon="-0.203589973971248">
        <ele>378.21484375</ele>
        <time>2017-12-19T17:46:23Z</time>
      </trkpt>
      <trkpt lat="38.871499998494983" lon="-0.203500036150217">
        <ele>378.84765625</ele>
        <time>2017-12-19T17:48:23Z</time>
      </trkpt>
      <trkpt lat="38.871499998494983" lon="-0.203429963439703">
        <ele>379.69140625</ele>
        <time>2017-12-19T17:50:23Z</time>
      </trkpt>
      <trkpt lat="38.871499998494983" lon="-0.203329967334867">
        <ele>380.578125</ele>
        <time>2017-12-19T17:52:23Z</time>
      </trkpt>
      <trkpt lat="38.871490024030209" lon="-0.20327003672719">
        <ele>381.1015625</ele>
        <time>2017-12-19T17:54:23Z</time>
      </trkpt>
      <trkpt lat="38.871479965746403" lon="-0.203210022300482">
        <ele>381.171875</ele>
        <time>2017-12-19T17:56:23Z</time>
      </trkpt>
      <trkpt lat="38.871379969641566" lon="-0.202940041199327">
        <ele>383.984375</ele>
        <time>2017-12-19T17:58:23Z</time>
      </trkpt>
      <trkpt lat="38.871219959110022" lon="-0.202580038458109">
        <ele>383.62109375</ele>
        <time>2017-12-19T18:00:23Z</time>
      </trkpt>
      <trkpt lat="38.871030025184155" lon="-0.202220035716891">
        <ele>390.7890625</ele>
        <time>2017-12-19T18:02:23Z</time>
      </trkpt>
      <trkpt lat="38.87087001465261" lon="-0.201970003545284">
        <ele>393.19921875</ele>
        <time>2017-12-19T18:04:23Z</time>
      </trkpt>
      <trkpt lat="38.870749985799193" lon="-0.201760036870837">
        <ele>394.92578125</ele>
        <time>2017-12-19T18:06:23Z</time>
      </trkpt>
      <trkpt lat="38.870659964159131" lon="-0.201579993590713">
        <ele>396.890625</ele>
        <time>2017-12-19T18:08:23Z</time>
      </trkpt>
      <trkpt lat="38.87054999358952" lon="-0.20138000138104">
        <ele>392.94921875</ele>
        <time>2017-12-19T18:10:23Z</time>
      </trkpt>
      <trkpt lat="38.870519986376166" lon="-0.201340019702911">
        <ele>392.4375</ele>
        <time>2017-12-19T18:12:23Z</time>
      </trkpt>
      <trkpt lat="38.870489979162812" lon="-0.201319986954331">
        <ele>392.37109375</ele>
        <time>2017-12-19T18:14:23Z</time>
      </trkpt>
      <trkpt lat="38.87044002301991" lon="-0.201310012489557">
        <ele>391.8359375</ele>
        <time>2017-12-19T18:16:23Z</time>
      </trkpt>
      <trkpt lat="38.870400041341782" lon="-0.201319986954331">
        <ele>391.84765625</ele>
        <time>2017-12-19T18:18:23Z</time>
      </trkpt>
      <trkpt lat="38.870359975844622" lon="-0.201329961419106">
        <ele>391.26953125</ele>
        <time>2017-12-19T18:20:23Z</time>
      </trkpt>
      <trkpt lat="38.870319994166493" lon="-0.201349994167686">
        <ele>390.9609375</ele>
        <time>2017-12-19T18:22:23Z</time>
      </trkpt>
      <trkpt lat="38.870270038023591" lon="-0.20140003412962">
        <ele>391.48046875</ele>
        <time>2017-12-19T18:24:23Z</time>
      </trkpt>
      <trkpt lat="38.870089994743466" lon="-0.201610000804067">
        <ele>395.48828125</ele>
        <time>2017-12-19T18:26:23Z</time>
      </trkpt>
      <trkpt lat="38.869899976998568" lon="-0.201849974691868">
        <ele>400.57421875</ele>
        <time>2017-12-19T18:28:23Z</time>
      </trkpt>
      <trkpt lat="38.869769973680377" lon="-0.202000010758638">
        <ele>402.23046875</ele>
        <time>2017-12-19T18:30:23Z</time>
      </trkpt>
      <trkpt lat="38.869680035859346" lon="-0.202139988541603">
        <ele>404.48828125</ele>
        <time>2017-12-19T18:32:23Z</time>
      </trkpt>
      <trkpt lat="38.869629995897412" lon="-0.202209977433085">
        <ele>404.87109375</ele>
        <time>2017-12-19T18:34:23Z</time>
      </trkpt>
      <trkpt lat="38.869599988684058" lon="-0.202249959111214">
        <ele>405.4296875</ele>
        <time>2017-12-19T18:36:23Z</time>
      </trkpt>
      <trkpt lat="38.869550032541156" lon="-0.202290024608374">
        <ele>404.65234375</ele>
        <time>2017-12-19T18:38:23Z</time>
      </trkpt>
      <trkpt lat="38.869509967043996" lon="-0.202330006286502">
        <ele>404.47265625</ele>
        <time>2017-12-19T18:40:23Z</time>
      </trkpt>
      <trkpt lat="38.869469985365868" lon="-0.20236998796463">
        <ele>403.84375</ele>
        <time>2017-12-19T18:42:23Z</time>
      </trkpt>
      <trkpt lat="38.869399996474385" lon="-0.202439976856112">
        <ele>403.00390625</ele>
        <time>2017-12-19T18:44:23Z</time>
      </trkpt>
      <trkpt lat="38.869330007582903" lon="-0.202539972960949">
        <ele>404.42578125</ele>
        <time>2017-12-19T18:46:23Z</time>
      </trkpt>
      <trkpt lat="38.869239985942841" lon="-0.20266997627914">
        <ele>405.62109375</ele>
        <time>2017-12-19T18:48:23Z</time>
      </trkpt>
      <trkpt lat="38.869139989838004" lon="-0.202829986810684">
        <ele>405.5078125</ele>
        <time>2017-12-19T18:50:23Z</time>
      </trkpt>
      <trkpt lat="38.869090033695102" lon="-0.202950015664101">
        <ele>406.51953125</ele>
        <time>2017-12-19T18:52:23Z</time>
      </trkpt>
      <trkpt lat="38.869070000946522" lon="-0.203020004555583">
        <ele>408.44140625</ele>
        <time>2017-12-19T18:54:23Z</time>
      </trkpt>
      <trkpt lat="38.869049968197942" lon="-0.203089993447065">
        <ele>410.15234375</ele>
        <time>2017-12-19T18:56:23Z</time>
      </trkpt>
      <trkpt lat="38.869049968197942" lon="-0.203189989551902">
        <ele>413.50390625</ele>
        <time>2017-12-19T18:58:23Z</time>
      </trkpt>
      <trkpt lat="38.869049968197942" lon="-0.203280011191964">
        <ele>414.80078125</ele>
        <time>2017-12-19T19:00:23Z</time>
      </trkpt>
      <trkpt lat="38.869049968197942" lon="-0.203400040045381">
        <ele>415.19921875</ele>
        <time>2017-12-19T19:02:23Z</time>
      </trkpt>
      <trkpt lat="38.869039993733168" lon="-0.203500036150217">
        <ele>415.5546875</ele>
        <time>2017-12-19T19:04:23Z</time>
      </trkpt>
      <trkpt lat="38.869039993733168" lon="-0.203589973971248">
        <ele>415.921875</ele>
        <time>2017-12-19T19:06:23Z</time>
      </trkpt>
      <trkpt lat="38.869009986519814" lon="-0.203710002824664">
        <ele>416.234375</ele>
        <time>2017-12-19T19:08:23Z</time>
      </trkpt>
      <trkpt lat="38.868979979306459" lon="-0.203770017251372">
        <ele>416.59765625</ele>
        <time>2017-12-19T19:10:23Z</time>
      </trkpt>
      <trkpt lat="38.868949972093105" lon="-0.203830031678081">
        <ele>417.62890625</ele>
        <time>2017-12-19T19:12:23Z</time>
      </trkpt>
      <trkpt lat="38.868900015950203" lon="-0.203889962285757">
        <ele>418.50390625</ele>
        <time>2017-12-19T19:14:23Z</time>
      </trkpt>
      <trkpt lat="38.868849975988269" lon="-0.203940002247691">
        <ele>418.99609375</ele>
        <time>2017-12-19T19:16:23Z</time>
      </trkpt>
      <trkpt lat="38.868129970505834" lon="-0.204499997198582">
        <ele>425.2890625</ele>
        <time>2017-12-19T19:18:23Z</time>
      </trkpt>
      <trkpt lat="38.868059981614351" lon="-0.204569986090064">
        <ele>426.37890625</ele>
        <time>2017-12-19T19:20:23Z</time>
      </trkpt>
      <trkpt lat="38.868050007149577" lon="-0.204620026051998">
        <ele>427.16796875</ele>
        <time>2017-12-19T19:22:23Z</time>
      </trkpt>
      <trkpt lat="38.868040032684803" lon="-0.204669982194901">
        <ele>427.703125</ele>
        <time>2017-12-19T19:24:23Z</time>
      </trkpt>
      <trkpt lat="38.868040032684803" lon="-0.204720022156835">
        <ele>428.32421875</ele>
        <time>2017-12-19T19:26:23Z</time>
      </trkpt>
      <trkpt lat="38.868059981614351" lon="-0.204760003834963">
        <ele>428.8515625</ele>
        <time>2017-12-19T19:28:23Z</time>
      </trkpt>
      <trkpt lat="38.868089988827705" lon="-0.204790011048317">
        <ele>429.32421875</ele>
        <time>2017-12-19T19:30:23Z</time>
      </trkpt>
      <trkpt lat="38.868129970505834" lon="-0.204799985513091">
        <ele>429.55078125</ele>
        <time>2017-12-19T19:32:23Z</time>
      </trkpt>
      <trkpt lat="38.868280006572604" lon="-0.204829992726445">
        <ele>431.2421875</ele>
        <time>2017-12-19T19:34:23Z</time>
      </trkpt>
      <trkpt lat="38.868459966033697" lon="-0.204859999939799">
        <ele>433.8671875</ele>
        <time>2017-12-19T19:36:23Z</time>
      </trkpt>
      <trkpt lat="38.868640009313822" lon="-0.204920014366508">
        <ele>435.44921875</ele>
        <time>2017-12-19T19:38:23Z</time>
      </trkpt>
      <trkpt lat="38.868670016527176" lon="-0.204939963296056">
        <ele>435.546875</ele>
        <time>2017-12-19T19:40:23Z</time>
      </trkpt>
      <trkpt lat="38.868709998205304" lon="-0.20496997050941">
        <ele>435.72265625</ele>
        <time>2017-12-19T19:42:23Z</time>
      </trkpt>
      <trkpt lat="38.868779987096786" lon="-0.205069966614246">
        <ele>436.125</ele>
        <time>2017-12-19T19:44:23Z</time>
      </trkpt>
      <trkpt lat="38.868800019845366" lon="-0.205110032111406">
        <ele>436.73828125</ele>
        <time>2017-12-19T19:46:23Z</time>
      </trkpt>
      <trkpt lat="38.868809994310141" lon="-0.205159988254309">
        <ele>437.5703125</ele>
        <time>2017-12-19T19:48:23Z</time>
      </trkpt>
      <trkpt lat="38.868809994310141" lon="-0.205189995467663">
        <ele>437.95703125</ele>
        <time>2017-12-19T19:50:23Z</time>
      </trkpt>
      <trkpt lat="38.868800019845366" lon="-0.205229977145791">
        <ele>438.578125</ele>
        <time>2017-12-19T19:52:23Z</time>
      </trkpt>
      <trkpt lat="38.868789961561561" lon="-0.205259984359145">
        <ele>438.87109375</ele>
        <time>2017-12-19T19:54:23Z</time>
      </trkpt>
      <trkpt lat="38.868760038167238" lon="-0.205289991572499">
        <ele>439.1640625</ele>
        <time>2017-12-19T19:56:23Z</time>
      </trkpt>
      <trkpt lat="38.868730030953884" lon="-0.205299966037273">
        <ele>439.4609375</ele>
        <time>2017-12-19T19:58:23Z</time>
      </trkpt>
      <trkpt lat="38.868689965456724" lon="-0.205310024321079">
        <ele>439.6953125</ele>
        <time>2017-12-19T20:00:23Z</time>
      </trkpt>
      <trkpt lat="38.868510005995631" lon="-0.205299966037273">
        <ele>441.2578125</ele>
        <time>2017-12-19T20:02:23Z</time>
      </trkpt>
      <trkpt lat="38.868070039898157" lon="-0.205289991572499">
        <ele>446.17578125</ele>
        <time>2017-12-19T20:04:23Z</time>
      </trkpt>
      <trkpt lat="38.868029974400997" lon="-0.205299966037273">
        <ele>446.46875</ele>
        <time>2017-12-19T20:06:23Z</time>
      </trkpt>
      <trkpt lat="38.867989992722869" lon="-0.205310024321079">
        <ele>446.8203125</ele>
        <time>2017-12-19T20:08:23Z</time>
      </trkpt>
      <trkpt lat="38.867940036579967" lon="-0.205340031534433">
        <ele>447.0546875</ele>
        <time>2017-12-19T20:10:23Z</time>
      </trkpt>
      <trkpt lat="38.867889996618032" lon="-0.205389987677336">
        <ele>447.34765625</ele>
        <time>2017-12-19T20:12:23Z</time>
      </trkpt>
      <trkpt lat="38.86784004047513" lon="-0.205459976568818">
        <ele>447.65234375</ele>
        <time>2017-12-19T20:14:23Z</time>
      </trkpt>
      <trkpt lat="38.86779997497797" lon="-0.20554999820888">
        <ele>448.6328125</ele>
        <time>2017-12-19T20:16:23Z</time>
      </trkpt>
      <trkpt lat="38.867769967764616" lon="-0.205659968778491">
        <ele>448.28515625</ele>
        <time>2017-12-19T20:18:23Z</time>
      </trkpt>
      <trkpt lat="38.867750018835068" lon="-0.205719983205199">
        <ele>448.16796875</ele>
        <time>2017-12-19T20:20:23Z</time>
      </trkpt>
      <trkpt lat="38.867729986086488" lon="-0.205800030380487">
        <ele>449.08984375</ele>
        <time>2017-12-19T20:22:23Z</time>
      </trkpt>
      <trkpt lat="38.867720011621714" lon="-0.205859960988164">
        <ele>450.71484375</ele>
        <time>2017-12-19T20:24:23Z</time>
      </trkpt>
      <trkpt lat="38.86769000440836" lon="-0.205989964306355">
        <ele>453.5703125</ele>
        <time>2017-12-19T20:26:23Z</time>
      </trkpt>
      <trkpt lat="38.867659997195005" lon="-0.206089960411191">
        <ele>454.765625</ele>
        <time>2017-12-19T20:28:23Z</time>
      </trkpt>
      <trkpt lat="38.867610041052103" lon="-0.206230022013187">
        <ele>455.421875</ele>
        <time>2017-12-19T20:30:23Z</time>
      </trkpt>
      <trkpt lat="38.867529993876815" lon="-0.206460021436214">
        <ele>454.74609375</ele>
        <time>2017-12-19T20:32:23Z</time>
      </trkpt>
      <trkpt lat="38.867399990558624" lon="-0.206850031390786">
        <ele>458.578125</ele>
        <time>2017-12-19T20:34:23Z</time>
      </trkpt>
      <trkpt lat="38.86736998334527" lon="-0.206999983638525">
        <ele>460.40625</ele>
        <time>2017-12-19T20:36:23Z</time>
      </trkpt>
      <trkpt lat="38.867360008880496" lon="-0.207080030813813">
        <ele>461.6875</ele>
        <time>2017-12-19T20:38:23Z</time>
      </trkpt>
      <trkpt lat="38.867350034415722" lon="-0.207120012491941">
        <ele>462.1953125</ele>
        <time>2017-12-19T20:40:23Z</time>
      </trkpt>
      <trkpt lat="38.867350034415722" lon="-0.207190001383424">
        <ele>463.08984375</ele>
        <time>2017-12-19T20:42:23Z</time>
      </trkpt>
      <trkpt lat="38.867350034415722" lon="-0.207399968057871">
        <ele>466.203125</ele>
        <time>2017-12-19T20:44:23Z</time>
      </trkpt>
      <trkpt lat="38.867339976131916" lon="-0.207459982484579">
        <ele>466.62890625</ele>
        <time>2017-12-19T20:46:23Z</time>
      </trkpt>
      <trkpt lat="38.867330001667142" lon="-0.207489989697933">
        <ele>466.84765625</ele>
        <time>2017-12-19T20:48:23Z</time>
      </trkpt>
      <trkpt lat="38.867309968918562" lon="-0.207519996911287">
        <ele>467.03125</ele>
        <time>2017-12-19T20:50:23Z</time>
      </trkpt>
      <trkpt lat="38.867299994453788" lon="-0.207540029659867">
        <ele>467.15234375</ele>
        <time>2017-12-19T20:52:23Z</time>
      </trkpt>
      <trkpt lat="38.867269987240434" lon="-0.207550004124641">
        <ele>467.046875</ele>
        <time>2017-12-19T20:54:23Z</time>
      </trkpt>
      <trkpt lat="38.86723998002708" lon="-0.207550004124641">
        <ele>466.9765625</ele>
        <time>2017-12-19T20:56:23Z</time>
      </trkpt>
      <trkpt lat="38.867209972813725" lon="-0.207540029659867">
        <ele>467.52734375</ele>
        <time>2017-12-19T20:58:23Z</time>
      </trkpt>
      <trkpt lat="38.867179965600371" lon="-0.207519996911287">
        <ele>468.05078125</ele>
        <time>2017-12-19T21:00:23Z</time>
      </trkpt>
      <trkpt lat="38.867149958387017" lon="-0.207489989697933">
        <ele>468.63671875</ele>
        <time>2017-12-19T21:02:23Z</time>
      </trkpt>
      <trkpt lat="38.867100002244115" lon="-0.207420000806451">
        <ele>470.12890625</ele>
        <time>2017-12-19T21:04:23Z</time>
      </trkpt>
      <trkpt lat="38.866979973390698" lon="-0.20718002691865">
        <ele>470.4296875</ele>
        <time>2017-12-19T21:06:23Z</time>
      </trkpt>
      <trkpt lat="38.86693999171257" lon="-0.207120012491941">
        <ele>470.33984375</ele>
        <time>2017-12-19T21:08:23Z</time>
      </trkpt>
      <trkpt lat="38.866900010034442" lon="-0.207080030813813">
        <ele>471.01953125</ele>
        <time>2017-12-19T21:10:23Z</time>
      </trkpt>
      <trkpt lat="38.866860028356314" lon="-0.207039965316653">
        <ele>471.22265625</ele>
        <time>2017-12-19T21:12:23Z</time>
      </trkpt>
      <trkpt lat="38.86680998839438" lon="-0.207020016387105">
        <ele>471.5625</ele>
        <time>2017-12-19T21:14:23Z</time>
      </trkpt>
      <trkpt lat="38.866770006716251" lon="-0.206990009173751">
        <ele>471.2265625</ele>
        <time>2017-12-19T21:16:23Z</time>
      </trkpt>
      <trkpt lat="38.866730025038123" lon="-0.206969976425171">
        <ele>471.09375</ele>
        <time>2017-12-19T21:18:23Z</time>
      </trkpt>
      <trkpt lat="38.866679985076189" lon="-0.206960001960397">
        <ele>471.359375</ele>
        <time>2017-12-19T21:20:23Z</time>
      </trkpt>
      <trkpt lat="38.866630028933287" lon="-0.206960001960397">
        <ele>471.6796875</ele>
        <time>2017-12-19T21:22:23Z</time>
      </trkpt>
      <trkpt lat="38.86651000007987" lon="-0.206969976425171">
        <ele>473.32421875</ele>
        <time>2017-12-19T21:24:23Z</time>
      </trkpt>
      <trkpt lat="38.866459960117936" lon="-0.206969976425171">
        <ele>474.2890625</ele>
        <time>2017-12-19T21:26:23Z</time>
      </trkpt>
      <trkpt lat="38.866430036723614" lon="-0.206969976425171">
        <ele>474.890625</ele>
        <time>2017-12-19T21:28:23Z</time>
      </trkpt>
      <trkpt lat="38.866389971226454" lon="-0.206950027495623">
        <ele>475.59765625</ele>
        <time>2017-12-19T21:30:23Z</time>
      </trkpt>
      <trkpt lat="38.866349989548326" lon="-0.206920020282269">
        <ele>476.33203125</ele>
        <time>2017-12-19T21:32:23Z</time>
      </trkpt>
      <trkpt lat="38.866310007870197" lon="-0.206869980320334">
        <ele>476.8359375</ele>
        <time>2017-12-19T21:34:23Z</time>
      </trkpt>
      <trkpt lat="38.866280000656843" lon="-0.206799991428852">
        <ele>476.859375</ele>
        <time>2017-12-19T21:36:23Z</time>
      </trkpt>
      <trkpt lat="38.866240018978715" lon="-0.206739977002144">
        <ele>476.99609375</ele>
        <time>2017-12-19T21:38:23Z</time>
      </trkpt>
      <trkpt lat="38.866189979016781" lon="-0.206690020859241">
        <ele>477.05078125</ele>
        <time>2017-12-19T21:40:23Z</time>
      </trkpt>
      <trkpt lat="38.866129964590073" lon="-0.206660013645887">
        <ele>477.23046875</ele>
        <time>2017-12-19T21:42:23Z</time>
      </trkpt>
      <trkpt lat="38.86608000844717" lon="-0.206660013645887">
        <ele>477.34765625</ele>
        <time>2017-12-19T21:44:23Z</time>
      </trkpt>
      <trkpt lat="38.866040026769042" lon="-0.206669988110662">
        <ele>477.35546875</ele>
        <time>2017-12-19T21:46:23Z</time>
      </trkpt>
      <trkpt lat="38.865980012342334" lon="-0.206690020859241">
        <ele>476.6796875</ele>
        <time>2017-12-19T21:48:23Z</time>
      </trkpt>
      <trkpt lat="38.865899965167046" lon="-0.206739977002144">
        <ele>475.98046875</ele>
        <time>2017-12-19T21:50:23Z</time>
      </trkpt>
      <trkpt lat="38.865720005705953" lon="-0.206850031390786">
        <ele>475.046875</ele>
        <time>2017-12-19T21:52:23Z</time>
      </trkpt>
      <trkpt lat="38.865510039031506" lon="-0.206950027495623">
        <ele>472.83984375</ele>
        <time>2017-12-19T21:54:23Z</time>
      </trkpt>
      <trkpt lat="38.865050040185452" lon="-0.207199975848198">
        <ele>469.51171875</ele>
        <time>2017-12-19T21:56:23Z</time>
      </trkpt>
      <trkpt lat="38.864849964156747" lon="-0.207369960844517">
        <ele>469.44921875</ele>
        <time>2017-12-19T21:58:23Z</time>
      </trkpt>
      <trkpt lat="38.864830015227199" lon="-0.207389993593097">
        <ele>469.47265625</ele>
        <time>2017-12-19T22:00:23Z</time>
      </trkpt>
      <trkpt lat="38.864800008013844" lon="-0.207420000806451">
        <ele>469.53515625</ele>
        <time>2017-12-19T22:02:23Z</time>
      </trkpt>
      <trkpt lat="38.864779975265265" lon="-0.207450008019805">
        <ele>469.3828125</ele>
        <time>2017-12-19T22:04:23Z</time>
      </trkpt>
      <trkpt lat="38.86477000080049" lon="-0.207510022446513">
        <ele>468.984375</ele>
        <time>2017-12-19T22:06:23Z</time>
      </trkpt>
      <trkpt lat="38.86477000080049" lon="-0.207559978589416">
        <ele>468.6953125</ele>
        <time>2017-12-19T22:08:23Z</time>
      </trkpt>
      <trkpt lat="38.864779975265265" lon="-0.207640025764704">
        <ele>468.19921875</ele>
        <time>2017-12-19T22:10:23Z</time>
      </trkpt>
      <trkpt lat="38.864800008013844" lon="-0.20774002186954">
        <ele>468.1015625</ele>
        <time>2017-12-19T22:12:23Z</time>
      </trkpt>
      <trkpt lat="38.864830015227199" lon="-0.207889974117279">
        <ele>468.17578125</ele>
        <time>2017-12-19T22:14:23Z</time>
      </trkpt>
      <trkpt lat="38.864839989691973" lon="-0.208000028505921">
        <ele>468.91015625</ele>
        <time>2017-12-19T22:16:23Z</time>
      </trkpt>
      <trkpt lat="38.864830015227199" lon="-0.208049984648824">
        <ele>469.26953125</ele>
        <time>2017-12-19T22:18:23Z</time>
      </trkpt>
      <trkpt lat="38.864830015227199" lon="-0.208100024610758">
        <ele>469.8984375</ele>
        <time>2017-12-19T22:20:23Z</time>
      </trkpt>
      <trkpt lat="38.864820040762424" lon="-0.20814998075366">
        <ele>470.16796875</ele>
        <time>2017-12-19T22:22:23Z</time>
      </trkpt>
      <trkpt lat="38.864739993587136" lon="-0.208390038460493">
        <ele>471.05078125</ele>
        <time>2017-12-19T22:24:23Z</time>
      </trkpt>
      <trkpt lat="38.864730019122362" lon="-0.208390038460493">
        <ele>470.8203125</ele>
        <time>2017-12-19T22:26:23Z</time>
      </trkpt>
      <trkpt lat="38.864540001377463" lon="-0.208890018984675">
        <ele>469.08203125</ele>
        <time>2017-12-19T22:28:23Z</time>
      </trkpt>
      <trkpt lat="38.864310001954436" lon="-0.209580017253757">
        <ele>469.1875</ele>
        <time>2017-12-19T22:30:23Z</time>
      </trkpt>
      <trkpt lat="38.864170024171472" lon="-0.209949994459748">
        <ele>471.09765625</ele>
        <time>2017-12-19T22:32:23Z</time>
      </trkpt>
      <trkpt lat="38.864110009744763" lon="-0.210079997777939">
        <ele>471.9609375</ele>
        <time>2017-12-19T22:34:23Z</time>
      </trkpt>
      <trkpt lat="38.864070028066635" lon="-0.210149986669421">
        <ele>472.3671875</ele>
        <time>2017-12-19T22:36:23Z</time>
      </trkpt>
      <trkpt lat="38.864029962569475" lon="-0.210240008309484">
        <ele>472.7265625</ele>
        <time>2017-12-19T22:38:23Z</time>
      </trkpt>
      <trkpt lat="38.863970031961799" lon="-0.210400018841028">
        <ele>473.0625</ele>
        <time>2017-12-19T22:40:23Z</time>
      </trkpt>
      <trkpt lat="38.86388998478651" lon="-0.210549971088767">
        <ele>473.8671875</ele>
        <time>2017-12-19T22:42:23Z</time>
      </trkpt>
      <trkpt lat="38.863840028643608" lon="-0.210609985515475">
        <ele>474.5859375</ele>
        <time>2017-12-19T22:44:23Z</time>
      </trkpt>
      <trkpt lat="38.863789988681674" lon="-0.210660025477409">
        <ele>474.734375</ele>
        <time>2017-12-19T22:46:23Z</time>
      </trkpt>
      <trkpt lat="38.863469967618585" lon="-0.210939981043339">
        <ele>475.2578125</ele>
        <time>2017-12-19T22:48:23Z</time>
      </trkpt>
      <trkpt lat="38.863299982622266" lon="-0.211109966039658">
        <ele>476.671875</ele>
        <time>2017-12-19T22:50:23Z</time>
      </trkpt>
      <trkpt lat="38.863060008734465" lon="-0.211369972676039">
        <ele>476.1796875</ele>
        <time>2017-12-19T22:52:23Z</time>
      </trkpt>
      <trkpt lat="38.863009968772531" lon="-0.211439961567521">
        <ele>476.2265625</ele>
        <time>2017-12-19T22:54:23Z</time>
      </trkpt>
      <trkpt lat="38.8629200309515" lon="-0.211589997634292">
        <ele>476.1953125</ele>
        <time>2017-12-19T22:56:23Z</time>
      </trkpt>
      <trkpt lat="38.862849958240986" lon="-0.211720000952482">
        <ele>476.0859375</ele>
        <time>2017-12-19T22:58:23Z</time>
      </trkpt>
      <trkpt lat="38.862779969349504" lon="-0.211840029805899">
        <ele>476.046875</ele>
        <time>2017-12-19T23:00:23Z</time>
      </trkpt>
      <trkpt lat="38.862630017101765" lon="-0.212070029228926">
        <ele>477</ele>
        <time>2017-12-19T23:02:23Z</time>
      </trkpt>
      <trkpt lat="38.862460032105446" lon="-0.212289970368147">
        <ele>476.7890625</ele>
        <time>2017-12-19T23:04:23Z</time>
      </trkpt>
      <trkpt lat="38.862249981611967" lon="-0.212589958682656">
        <ele>476.19921875</ele>
        <time>2017-12-19T23:06:23Z</time>
      </trkpt>
      <trkpt lat="38.862200025469065" lon="-0.212670005857944">
        <ele>476.70703125</ele>
        <time>2017-12-19T23:08:23Z</time>
      </trkpt>
      <trkpt lat="38.862030040472746" lon="-0.212900005280972">
        <ele>477.0078125</ele>
        <time>2017-12-19T23:10:23Z</time>
      </trkpt>
      <trkpt lat="38.861880004405975" lon="-0.213130004703999">
        <ele>478.40234375</ele>
        <time>2017-12-19T23:12:23Z</time>
      </trkpt>
      <trkpt lat="38.861770033836365" lon="-0.213329996913671">
        <ele>477.64453125</ele>
        <time>2017-12-19T23:14:23Z</time>
      </trkpt>
      <trkpt lat="38.861699961125851" lon="-0.213450025767088">
        <ele>477.640625</ele>
        <time>2017-12-19T23:16:23Z</time>
      </trkpt>
      <trkpt lat="38.861640030518174" lon="-0.213550021871924">
        <ele>477.94921875</ele>
        <time>2017-12-19T23:18:23Z</time>
      </trkpt>
      <trkpt lat="38.861529976129532" lon="-0.213689999654889">
        <ele>478.64453125</ele>
        <time>2017-12-19T23:20:23Z</time>
      </trkpt>
      <trkpt lat="38.861440038308501" lon="-0.2137999702245">
        <ele>479.359375</ele>
        <time>2017-12-19T23:22:23Z</time>
      </trkpt>
      <trkpt lat="38.861290002241731" lon="-0.21392997354269">
        <ele>480.8828125</ele>
        <time>2017-12-19T23:24:23Z</time>
      </trkpt>
      <trkpt lat="38.861120017245412" lon="-0.214070035144687">
        <ele>481.87890625</ele>
        <time>2017-12-19T23:26:23Z</time>
      </trkpt>
      <trkpt lat="38.860969981178641" lon="-0.214180005714297">
        <ele>482.09765625</ele>
        <time>2017-12-19T23:28:23Z</time>
      </trkpt>
      <trkpt lat="38.860929999500513" lon="-0.214210012927651">
        <ele>482.09765625</ele>
        <time>2017-12-19T23:30:23Z</time>
      </trkpt>
      <trkpt lat="38.860850036144257" lon="-0.21427002735436">
        <ele>482.55078125</ele>
        <time>2017-12-19T23:32:23Z</time>
      </trkpt>
      <trkpt lat="38.860690025612712" lon="-0.214349990710616">
        <ele>483.21484375</ele>
        <time>2017-12-19T23:34:23Z</time>
      </trkpt>
      <trkpt lat="38.860500007867813" lon="-0.214479994028807">
        <ele>483.09765625</ele>
        <time>2017-12-19T23:36:23Z</time>
      </trkpt>
      <trkpt lat="38.860439993441105" lon="-0.214540008455515">
        <ele>483.09765625</ele>
        <time>2017-12-19T23:38:23Z</time>
      </trkpt>
      <trkpt lat="38.860400011762977" lon="-0.214589964598417">
        <ele>483.09765625</ele>
        <time>2017-12-19T23:40:23Z</time>
      </trkpt>
      <trkpt lat="38.860370004549623" lon="-0.214630030095577">
        <ele>483.09765625</ele>
        <time>2017-12-19T23:42:23Z</time>
      </trkpt>
      <trkpt lat="38.860339997336268" lon="-0.21467998623848">
        <ele>483.09765625</ele>
        <time>2017-12-19T23:44:23Z</time>
      </trkpt>
      <trkpt lat="38.860309990122914" lon="-0.214749975129962">
        <ele>483.09765625</ele>
        <time>2017-12-19T23:46:23Z</time>
      </trkpt>
      <trkpt lat="38.860260033980012" lon="-0.214900011196733">
        <ele>483.9140625</ele>
        <time>2017-12-19T23:48:23Z</time>
      </trkpt>
      <trkpt lat="38.860240001231432" lon="-0.214960025623441">
        <ele>484.0078125</ele>
        <time>2017-12-19T23:50:23Z</time>
      </trkpt>
      <trkpt lat="38.860189961269498" lon="-0.21513001061976">
        <ele>484.01171875</ele>
        <time>2017-12-19T23:52:23Z</time>
      </trkpt>
      <trkpt lat="38.860109997913241" lon="-0.215350035578012">
        <ele>484.9296875</ele>
        <time>2017-12-19T23:54:23Z</time>
      </trkpt>
      <trkpt lat="38.859959961846471" lon="-0.21571003831923">
        <ele>485.95703125</ele>
        <time>2017-12-19T23:56:23Z</time>
      </trkpt>
      <trkpt lat="38.859889972954988" lon="-0.215910030528903">
        <ele>487.0625</ele>
        <time>2017-12-19T23:58:23Z</time>
      </trkpt>
      <trkpt lat="38.85987002402544" lon="-0.215959986671805">
        <ele>487.0625</ele>
        <time>2017-12-20T00:00:23Z</time>
      </trkpt>
      <trkpt lat="38.859840016812086" lon="-0.215989993885159">
        <ele>487.0625</ele>
        <time>2017-12-20T00:02:23Z</time>
      </trkpt>
      <trkpt lat="38.859840016812086" lon="-0.215999968349934">
        <ele>487.0625</ele>
        <time>2017-12-20T00:04:23Z</time>
      </trkpt>
      <trkpt lat="38.859819984063506" lon="-0.216020001098514">
        <ele>487.0625</ele>
        <time>2017-12-20T00:06:23Z</time>
      </trkpt>
      <trkpt lat="38.859800035133958" lon="-0.216040033847094">
        <ele>487.0625</ele>
        <time>2017-12-20T00:08:23Z</time>
      </trkpt>
      <trkpt lat="38.859770027920604" lon="-0.216070041060448">
        <ele>487.0625</ele>
        <time>2017-12-20T00:10:23Z</time>
      </trkpt>
      <trkpt lat="38.859689980745316" lon="-0.21609996445477">
        <ele>487.19921875</ele>
        <time>2017-12-20T00:12:23Z</time>
      </trkpt>
      <trkpt lat="38.859610017389059" lon="-0.216110022738576">
        <ele>487.484375</ele>
        <time>2017-12-20T00:14:23Z</time>
      </trkpt>
      <trkpt lat="38.859489988535643" lon="-0.21611999720335">
        <ele>487.9140625</ele>
        <time>2017-12-20T00:16:23Z</time>
      </trkpt>
      <trkpt lat="38.859459981322289" lon="-0.216129971668124">
        <ele>487.9765625</ele>
        <time>2017-12-20T00:18:23Z</time>
      </trkpt>
      <trkpt lat="38.859429974108934" lon="-0.21614002995193">
        <ele>487.9765625</ele>
        <time>2017-12-20T00:20:23Z</time>
      </trkpt>
      <trkpt lat="38.85941999964416" lon="-0.21614002995193">
        <ele>487.9765625</ele>
        <time>2017-12-20T00:22:23Z</time>
      </trkpt>
      <trkpt lat="38.859369959682226" lon="-0.216180011630058">
        <ele>487.91796875</ele>
        <time>2017-12-20T00:24:23Z</time>
      </trkpt>
      <trkpt lat="38.859210032969713" lon="-0.216319989413023">
        <ele>489.7890625</ele>
        <time>2017-12-20T00:26:23Z</time>
      </trkpt>
      <trkpt lat="38.859150018543005" lon="-0.216380003839731">
        <ele>490.3046875</ele>
        <time>2017-12-20T00:28:23Z</time>
      </trkpt>
      <trkpt lat="38.859090004116297" lon="-0.216410011053085">
        <ele>490.70703125</ele>
        <time>2017-12-20T00:30:23Z</time>
      </trkpt>
      <trkpt lat="38.859020015224814" lon="-0.216459967195988">
        <ele>491.0234375</ele>
        <time>2017-12-20T00:32:23Z</time>
      </trkpt>
      <trkpt lat="38.858999982476234" lon="-0.216470025479794">
        <ele>490.9765625</ele>
        <time>2017-12-20T00:34:23Z</time>
      </trkpt>
      <trkpt lat="38.858780041337013" lon="-0.216589970514178">
        <ele>490.30078125</ele>
        <time>2017-12-20T00:36:23Z</time>
      </trkpt>
      <trkpt lat="38.858630005270243" lon="-0.216689966619015">
        <ele>490.84375</ele>
        <time>2017-12-20T00:38:23Z</time>
      </trkpt>
      <trkpt lat="38.858520034700632" lon="-0.216789962723851">
        <ele>491.08984375</ele>
        <time>2017-12-20T00:40:23Z</time>
      </trkpt>
      <trkpt lat="38.85843001306057" lon="-0.216879984363914">
        <ele>491.81640625</ele>
        <time>2017-12-20T00:42:23Z</time>
      </trkpt>
      <trkpt lat="38.858400005847216" lon="-0.216930024325848">
        <ele>492.03125</ele>
        <time>2017-12-20T00:44:23Z</time>
      </trkpt>
      <trkpt lat="38.858330016955733" lon="-0.217049969360232">
        <ele>492.765625</ele>
        <time>2017-12-20T00:46:23Z</time>
      </trkpt>
      <trkpt lat="38.858319958671927" lon="-0.217079976573586">
        <ele>492.83203125</ele>
        <time>2017-12-20T00:48:23Z</time>
      </trkpt>
      <trkpt lat="38.858260028064251" lon="-0.217230012640357">
        <ele>492.90625</ele>
        <time>2017-12-20T00:50:23Z</time>
      </trkpt>
      <trkpt lat="38.85813002474606" lon="-0.217599989846349">
        <ele>494.0703125</ele>
        <time>2017-12-20T00:52:23Z</time>
      </trkpt>
      <trkpt lat="38.858040003105998" lon="-0.21783996373415">
        <ele>495.01953125</ele>
        <time>2017-12-20T00:54:23Z</time>
      </trkpt>
      <trkpt lat="38.857989963144064" lon="-0.217980025336146">
        <ele>494.984375</ele>
        <time>2017-12-20T00:56:23Z</time>
      </trkpt>
      <trkpt lat="38.857889967039227" lon="-0.218259980902076">
        <ele>495.8984375</ele>
        <time>2017-12-20T00:58:23Z</time>
      </trkpt>
      <trkpt lat="38.857779996469617" lon="-0.218570027500391">
        <ele>498.03125</ele>
        <time>2017-12-20T01:00:23Z</time>
      </trkpt>
      <trkpt lat="38.857640018686652" lon="-0.218930030241609">
        <ele>499.828125</ele>
        <time>2017-12-20T01:02:23Z</time>
      </trkpt>
      <trkpt lat="38.857619985938072" lon="-0.218979986384511">
        <ele>499.8671875</ele>
        <time>2017-12-20T01:04:23Z</time>
      </trkpt>
      <trkpt lat="38.857540022581816" lon="-0.219160029664636">
        <ele>500.39453125</ele>
        <time>2017-12-20T01:06:23Z</time>
      </trkpt>
      <trkpt lat="38.857510015368462" lon="-0.219219960272312">
        <ele>500.64453125</ele>
        <time>2017-12-20T01:08:23Z</time>
      </trkpt>
      <trkpt lat="38.857480008155107" lon="-0.219260025769472">
        <ele>500.66796875</ele>
        <time>2017-12-20T01:10:23Z</time>
      </trkpt>
      <trkpt lat="38.857429968193173" lon="-0.21932004019618">
        <ele>500.62109375</ele>
        <time>2017-12-20T01:12:23Z</time>
      </trkpt>
      <trkpt lat="38.857159987092018" lon="-0.219560014083982">
        <ele>504.33203125</ele>
        <time>2017-12-20T01:14:23Z</time>
      </trkpt>
      <trkpt lat="38.856850024312735" lon="-0.219839969649911">
        <ele>505.81640625</ele>
        <time>2017-12-20T01:16:23Z</time>
      </trkpt>
      <trkpt lat="38.856769977137446" lon="-0.219909958541393">
        <ele>506.5078125</ele>
        <time>2017-12-20T01:18:23Z</time>
      </trkpt>
      <trkpt lat="38.856680039316416" lon="-0.219999980181456">
        <ele>507.9921875</ele>
        <time>2017-12-20T01:20:23Z</time>
      </trkpt>
      <trkpt lat="38.856599992141128" lon="-0.220069969072938">
        <ele>509.0703125</ele>
        <time>2017-12-20T01:22:23Z</time>
      </trkpt>
      <trkpt lat="38.856550035998225" lon="-0.220110034570098">
        <ele>509.3125</ele>
        <time>2017-12-20T01:24:23Z</time>
      </trkpt>
      <trkpt lat="38.856409974396229" lon="-0.220250012353063">
        <ele>509.8984375</ele>
        <time>2017-12-20T01:26:23Z</time>
      </trkpt>
      <trkpt lat="38.856369992718101" lon="-0.220310026779771">
        <ele>509.765625</ele>
        <time>2017-12-20T01:28:23Z</time>
      </trkpt>
      <trkpt lat="38.856100011616945" lon="-0.220710011199117">
        <ele>509.99609375</ele>
        <time>2017-12-20T01:30:23Z</time>
      </trkpt>
      <trkpt lat="38.856039997190237" lon="-0.220800032839179">
        <ele>510.58203125</ele>
        <time>2017-12-20T01:32:23Z</time>
      </trkpt>
      <trkpt lat="38.855849979445338" lon="-0.221070013940334">
        <ele>512.44140625</ele>
        <time>2017-12-20T01:34:23Z</time>
      </trkpt>
      <trkpt lat="38.855800023302436" lon="-0.221170010045171">
        <ele>513.01171875</ele>
        <time>2017-12-20T01:36:23Z</time>
      </trkpt>
      <trkpt lat="38.855779990553856" lon="-0.221209991723299">
        <ele>513.3515625</ele>
        <time>2017-12-20T01:38:23Z</time>
      </trkpt>
      <trkpt lat="38.855770016089082" lon="-0.221249973401427">
        <ele>513.5625</ele>
        <time>2017-12-20T01:40:23Z</time>
      </trkpt>
      <trkpt lat="38.855760041624308" lon="-0.221300013363361">
        <ele>513.74609375</ele>
        <time>2017-12-20T01:42:23Z</time>
      </trkpt>
      <trkpt lat="38.855749983340502" lon="-0.221349969506264">
        <ele>513.8828125</ele>
        <time>2017-12-20T01:44:23Z</time>
      </trkpt>
      <trkpt lat="38.855740008875728" lon="-0.221460023894906">
        <ele>513.92578125</ele>
        <time>2017-12-20T01:46:23Z</time>
      </trkpt>
      <trkpt lat="38.855719976127148" lon="-0.221609976142645">
        <ele>514.2109375</ele>
        <time>2017-12-20T01:48:23Z</time>
      </trkpt>
      <trkpt lat="38.855719976127148" lon="-0.221620034426451">
        <ele>514.2109375</ele>
        <time>2017-12-20T01:50:23Z</time>
      </trkpt>
      <trkpt lat="38.855710001662374" lon="-0.221730004996061">
        <ele>514.88671875</ele>
        <time>2017-12-20T01:52:23Z</time>
      </trkpt>
      <trkpt lat="38.855679994449019" lon="-0.221860008314252">
        <ele>515.0859375</ele>
        <time>2017-12-20T01:54:23Z</time>
      </trkpt>
      <trkpt lat="38.855640012770891" lon="-0.221980037167668">
        <ele>515.5859375</ele>
        <time>2017-12-20T01:56:23Z</time>
      </trkpt>
      <trkpt lat="38.855610005557537" lon="-0.222069974988699">
        <ele>516.16796875</ele>
        <time>2017-12-20T01:58:23Z</time>
      </trkpt>
      <trkpt lat="38.855579998344183" lon="-0.222159996628761">
        <ele>516.8046875</ele>
        <time>2017-12-20T02:00:23Z</time>
      </trkpt>
      <trkpt lat="38.855519983917475" lon="-0.222320007160306">
        <ele>517.62890625</ele>
        <time>2017-12-20T02:02:23Z</time>
      </trkpt>
      <trkpt lat="38.855459969490767" lon="-0.222450010478497">
        <ele>517.91796875</ele>
        <time>2017-12-20T02:04:23Z</time>
      </trkpt>
      <trkpt lat="38.855410013347864" lon="-0.222540032118559">
        <ele>518.390625</ele>
        <time>2017-12-20T02:06:23Z</time>
      </trkpt>
      <trkpt lat="38.85535997338593" lon="-0.222610021010041">
        <ele>519.03125</ele>
        <time>2017-12-20T02:08:23Z</time>
      </trkpt>
      <trkpt lat="38.855259977281094" lon="-0.222740024328232">
        <ele>519.69921875</ele>
        <time>2017-12-20T02:10:23Z</time>
      </trkpt>
      <trkpt lat="38.855099966749549" lon="-0.222919983789325">
        <ele>520.89453125</ele>
        <time>2017-12-20T02:12:23Z</time>
      </trkpt>
      <trkpt lat="38.854999970644712" lon="-0.223049987107515">
        <ele>520.89453125</ele>
        <time>2017-12-20T02:14:23Z</time>
      </trkpt>
      <trkpt lat="38.854890000075102" lon="-0.22320999763906">
        <ele>521.84375</ele>
        <time>2017-12-20T02:16:23Z</time>
      </trkpt>
      <trkpt lat="38.854859992861748" lon="-0.223279986530542">
        <ele>522.05859375</ele>
        <time>2017-12-20T02:18:23Z</time>
      </trkpt>
      <trkpt lat="38.854859992861748" lon="-0.223300019279122">
        <ele>522.11328125</ele>
        <time>2017-12-20T02:20:23Z</time>
      </trkpt>
      <trkpt lat="38.854820011183619" lon="-0.223360033705831">
        <ele>522.07421875</ele>
        <time>2017-12-20T02:22:23Z</time>
      </trkpt>
      <trkpt lat="38.854780029505491" lon="-0.223460029810667">
        <ele>522.11328125</ele>
        <time>2017-12-20T02:24:23Z</time>
      </trkpt>
      <trkpt lat="38.854680033400655" lon="-0.223669996485114">
        <ele>523.109375</ele>
        <time>2017-12-20T02:26:23Z</time>
      </trkpt>
      <trkpt lat="38.854639967903495" lon="-0.223720036447048">
        <ele>523.62109375</ele>
        <time>2017-12-20T02:28:23Z</time>
      </trkpt>
      <trkpt lat="38.854609960690141" lon="-0.223760018125176">
        <ele>523.94140625</ele>
        <time>2017-12-20T02:30:23Z</time>
      </trkpt>
      <trkpt lat="38.854569979012012" lon="-0.223799999803305">
        <ele>523.94140625</ele>
        <time>2017-12-20T02:32:23Z</time>
      </trkpt>
      <trkpt lat="38.854529997333884" lon="-0.223830007016659">
        <ele>523.94140625</ele>
        <time>2017-12-20T02:34:23Z</time>
      </trkpt>
      <trkpt lat="38.854469982907176" lon="-0.223869988694787">
        <ele>524.18359375</ele>
        <time>2017-12-20T02:36:23Z</time>
      </trkpt>
      <trkpt lat="38.854430001229048" lon="-0.223909970372915">
        <ele>524.48046875</ele>
        <time>2017-12-20T02:38:23Z</time>
      </trkpt>
      <trkpt lat="38.854379961267114" lon="-0.223960010334849">
        <ele>524.6796875</ele>
        <time>2017-12-20T02:40:23Z</time>
      </trkpt>
      <trkpt lat="38.854350037872791" lon="-0.223999992012978">
        <ele>524.6484375</ele>
        <time>2017-12-20T02:42:23Z</time>
      </trkpt>
      <trkpt lat="38.854330005124211" lon="-0.224050031974912">
        <ele>524.87890625</ele>
        <time>2017-12-20T02:44:23Z</time>
      </trkpt>
      <trkpt lat="38.854279965162277" lon="-0.224180035293102">
        <ele>526.35546875</ele>
        <time>2017-12-20T02:46:23Z</time>
      </trkpt>
      <trkpt lat="38.854250041767955" lon="-0.224299980327487">
        <ele>526.9765625</ele>
        <time>2017-12-20T02:48:23Z</time>
      </trkpt>
      <trkpt lat="38.854060024023056" lon="-0.22510003298521">
        <ele>529.15234375</ele>
        <time>2017-12-20T02:50:23Z</time>
      </trkpt>
      <trkpt lat="38.85391996242106" lon="-0.225709984079003">
        <ele>530.953125</ele>
        <time>2017-12-20T02:52:23Z</time>
      </trkpt>
      <trkpt lat="38.853900013491511" lon="-0.225760024040937">
        <ele>530.953125</ele>
        <time>2017-12-20T02:54:23Z</time>
      </trkpt>
      <trkpt lat="38.853770010173321" lon="-0.226510036736727">
        <ele>534.8671875</ele>
        <time>2017-12-20T02:56:23Z</time>
      </trkpt>
      <trkpt lat="38.853740002959967" lon="-0.226650014519691">
        <ele>536.18359375</ele>
        <time>2017-12-20T02:58:23Z</time>
      </trkpt>
      <trkpt lat="38.853719970211387" lon="-0.22679996676743">
        <ele>536.53125</ele>
        <time>2017-12-20T03:00:23Z</time>
      </trkpt>
      <trkpt lat="38.853700021281838" lon="-0.226950002834201">
        <ele>537.63671875</ele>
        <time>2017-12-20T03:02:23Z</time>
      </trkpt>
      <trkpt lat="38.853670014068484" lon="-0.227089980617166">
        <ele>537.97265625</ele>
        <time>2017-12-20T03:04:23Z</time>
      </trkpt>
      <trkpt lat="38.853630032390356" lon="-0.227219983935356">
        <ele>538</ele>
        <time>2017-12-20T03:06:23Z</time>
      </trkpt>
      <trkpt lat="38.853589966893196" lon="-0.227349987253547">
        <ele>537.98046875</ele>
        <time>2017-12-20T03:08:23Z</time>
      </trkpt>
      <trkpt lat="38.853549985215068" lon="-0.227479990571737">
        <ele>538.8671875</ele>
        <time>2017-12-20T03:10:23Z</time>
      </trkpt>
      <trkpt lat="38.85351000353694" lon="-0.227660033851862">
        <ele>538.875</ele>
        <time>2017-12-20T03:12:23Z</time>
      </trkpt>
      <trkpt lat="38.853479996323586" lon="-0.227760029956698">
        <ele>538.875</ele>
        <time>2017-12-20T03:14:23Z</time>
      </trkpt>
      <trkpt lat="38.853479996323586" lon="-0.227890033274889">
        <ele>538.875</ele>
        <time>2017-12-20T03:16:23Z</time>
      </trkpt>
      <trkpt lat="38.853459963575006" lon="-0.228049959987402">
        <ele>539.73828125</ele>
        <time>2017-12-20T03:18:23Z</time>
      </trkpt>
      <trkpt lat="38.853449989110231" lon="-0.228179963305593">
        <ele>540.09375</ele>
        <time>2017-12-20T03:20:23Z</time>
      </trkpt>
      <trkpt lat="38.853440014645457" lon="-0.228369981050491">
        <ele>540.47265625</ele>
        <time>2017-12-20T03:22:23Z</time>
      </trkpt>
      <trkpt lat="38.853440014645457" lon="-0.228590006008744">
        <ele>542.109375</ele>
        <time>2017-12-20T03:24:23Z</time>
      </trkpt>
      <trkpt lat="38.853440014645457" lon="-0.228659994900227">
        <ele>542.58984375</ele>
        <time>2017-12-20T03:26:23Z</time>
      </trkpt>
      <trkpt lat="38.853430040180683" lon="-0.228769965469837">
        <ele>542.640625</ele>
        <time>2017-12-20T03:28:23Z</time>
      </trkpt>
      <trkpt lat="38.853419981896877" lon="-0.228880019858479">
        <ele>543.15234375</ele>
        <time>2017-12-20T03:30:23Z</time>
      </trkpt>
      <trkpt lat="38.853419981896877" lon="-0.228910027071834">
        <ele>543.44921875</ele>
        <time>2017-12-20T03:32:23Z</time>
      </trkpt>
      <trkpt lat="38.853400032967329" lon="-0.229040030390024">
        <ele>543.85546875</ele>
        <time>2017-12-20T03:34:23Z</time>
      </trkpt>
      <trkpt lat="38.853370025753975" lon="-0.229240022599697">
        <ele>544.14453125</ele>
        <time>2017-12-20T03:36:23Z</time>
      </trkpt>
      <trkpt lat="38.853359967470169" lon="-0.229319985955954">
        <ele>544.390625</ele>
        <time>2017-12-20T03:38:23Z</time>
      </trkpt>
      <trkpt lat="38.853349993005395" lon="-0.229380000382662">
        <ele>544.45703125</ele>
        <time>2017-12-20T03:40:23Z</time>
      </trkpt>
      <trkpt lat="38.853340018540621" lon="-0.22941998206079">
        <ele>544.6328125</ele>
        <time>2017-12-20T03:42:23Z</time>
      </trkpt>
      <trkpt lat="38.853329960256815" lon="-0.229470022022724">
        <ele>544.890625</ele>
        <time>2017-12-20T03:44:23Z</time>
      </trkpt>
      <trkpt lat="38.853329960256815" lon="-0.229519978165627">
        <ele>544.97265625</ele>
        <time>2017-12-20T03:46:23Z</time>
      </trkpt>
      <trkpt lat="38.853329960256815" lon="-0.229570018127561">
        <ele>544.97265625</ele>
        <time>2017-12-20T03:48:23Z</time>
      </trkpt>
      <trkpt lat="38.853329960256815" lon="-0.229640007019043">
        <ele>545.04296875</ele>
        <time>2017-12-20T03:50:23Z</time>
      </trkpt>
      <trkpt lat="38.853340018540621" lon="-0.229939995333552">
        <ele>546.9609375</ele>
        <time>2017-12-20T03:52:23Z</time>
      </trkpt>
      <trkpt lat="38.853349993005395" lon="-0.230000009760261">
        <ele>547.28515625</ele>
        <time>2017-12-20T03:54:23Z</time>
      </trkpt>
      <trkpt lat="38.853359967470169" lon="-0.230079973116517">
        <ele>547.64453125</ele>
        <time>2017-12-20T03:56:23Z</time>
      </trkpt>
      <trkpt lat="38.853370025753975" lon="-0.230130013078451">
        <ele>547.93359375</ele>
        <time>2017-12-20T03:58:23Z</time>
      </trkpt>
      <trkpt lat="38.853370025753975" lon="-0.230160020291805">
        <ele>547.98828125</ele>
        <time>2017-12-20T04:00:23Z</time>
      </trkpt>
      <trkpt lat="38.853380000218749" lon="-0.230190027505159">
        <ele>547.97265625</ele>
        <time>2017-12-20T04:02:23Z</time>
      </trkpt>
      <trkpt lat="38.853389974683523" lon="-0.230209976434708">
        <ele>547.98046875</ele>
        <time>2017-12-20T04:04:23Z</time>
      </trkpt>
      <trkpt lat="38.853410007432103" lon="-0.230239983648062">
        <ele>548.0859375</ele>
        <time>2017-12-20T04:06:23Z</time>
      </trkpt>
      <trkpt lat="38.853470021858811" lon="-0.230360012501478">
        <ele>548.2265625</ele>
        <time>2017-12-20T04:08:23Z</time>
      </trkpt>
      <trkpt lat="38.85351000353694" lon="-0.230450034141541">
        <ele>548.1484375</ele>
        <time>2017-12-20T04:10:23Z</time>
      </trkpt>
      <trkpt lat="38.85364000685513" lon="-0.23072998970747">
        <ele>548.578125</ele>
        <time>2017-12-20T04:12:23Z</time>
      </trkpt>
      <trkpt lat="38.853819966316223" lon="-0.231099966913462">
        <ele>551.43359375</ele>
        <time>2017-12-20T04:14:23Z</time>
      </trkpt>
      <trkpt lat="38.854000009596348" lon="-0.231440020725131">
        <ele>554.1171875</ele>
        <time>2017-12-20T04:16:23Z</time>
      </trkpt>
      <trkpt lat="38.85404996573925" lon="-0.231540016829967">
        <ele>554.30859375</ele>
        <time>2017-12-20T04:18:23Z</time>
      </trkpt>
      <trkpt lat="38.85406999848783" lon="-0.231570024043322">
        <ele>554.546875</ele>
        <time>2017-12-20T04:20:23Z</time>
      </trkpt>
      <trkpt lat="38.85409003123641" lon="-0.23161000572145">
        <ele>554.88671875</ele>
        <time>2017-12-20T04:22:23Z</time>
      </trkpt>
      <trkpt lat="38.854100005701184" lon="-0.231670020148158">
        <ele>555.5234375</ele>
        <time>2017-12-20T04:24:23Z</time>
      </trkpt>
      <trkpt lat="38.854109980165958" lon="-0.231749983504415">
        <ele>555.9609375</ele>
        <time>2017-12-20T04:26:23Z</time>
      </trkpt>
      <trkpt lat="38.854130012914538" lon="-0.231840005144477">
        <ele>556.390625</ele>
        <time>2017-12-20T04:28:23Z</time>
      </trkpt>
      <trkpt lat="38.854149961844087" lon="-0.232009990140796">
        <ele>557.375</ele>
        <time>2017-12-20T04:30:23Z</time>
      </trkpt>
      <trkpt lat="38.854160020127892" lon="-0.232239989563823">
        <ele>559.13671875</ele>
        <time>2017-12-20T04:32:23Z</time>
      </trkpt>
      <trkpt lat="38.854160020127892" lon="-0.232249964028597">
        <ele>559.17578125</ele>
        <time>2017-12-20T04:34:23Z</time>
      </trkpt>
      <trkpt lat="38.854169994592667" lon="-0.232400000095367">
        <ele>559.8359375</ele>
        <time>2017-12-20T04:36:23Z</time>
      </trkpt>
      <trkpt lat="38.854160020127892" lon="-0.232530003413558">
        <ele>561.15625</ele>
        <time>2017-12-20T04:38:23Z</time>
      </trkpt>
      <trkpt lat="38.854160020127892" lon="-0.232609966769814">
        <ele>562.09765625</ele>
        <time>2017-12-20T04:40:23Z</time>
      </trkpt>
      <trkpt lat="38.854149961844087" lon="-0.232690013945103">
        <ele>562.78515625</ele>
        <time>2017-12-20T04:42:23Z</time>
      </trkpt>
      <trkpt lat="38.854120038449764" lon="-0.232799984514713">
        <ele>563.00390625</ele>
        <time>2017-12-20T04:44:23Z</time>
      </trkpt>
      <trkpt lat="38.854109980165958" lon="-0.232869973406196">
        <ele>563.328125</ele>
        <time>2017-12-20T04:46:23Z</time>
      </trkpt>
      <trkpt lat="38.85409003123641" lon="-0.232969969511032">
        <ele>564</ele>
        <time>2017-12-20T04:48:23Z</time>
      </trkpt>
      <trkpt lat="38.854039991274476" lon="-0.233180020004511">
        <ele>565.22265625</ele>
        <time>2017-12-20T04:50:23Z</time>
      </trkpt>
      <trkpt lat="38.85396002791822" lon="-0.233429968357086">
        <ele>567.234375</ele>
        <time>2017-12-20T04:52:23Z</time>
      </trkpt>
      <trkpt lat="38.853890039026737" lon="-0.233619986101985">
        <ele>568.76953125</ele>
        <time>2017-12-20T04:54:23Z</time>
      </trkpt>
      <trkpt lat="38.853849973529577" lon="-0.233730040490627">
        <ele>569.2734375</ele>
        <time>2017-12-20T04:56:23Z</time>
      </trkpt>
      <trkpt lat="38.853770010173321" lon="-0.2339300327003">
        <ele>568.9140625</ele>
        <time>2017-12-20T04:58:23Z</time>
      </trkpt>
      <trkpt lat="38.853709995746613" lon="-0.234060036018491">
        <ele>569.5546875</ele>
        <time>2017-12-20T05:00:23Z</time>
      </trkpt>
      <trkpt lat="38.853700021281838" lon="-0.234089959412813">
        <ele>569.66796875</ele>
        <time>2017-12-20T05:02:23Z</time>
      </trkpt>
      <trkpt lat="38.85366003960371" lon="-0.234170006588101">
        <ele>569.93359375</ele>
        <time>2017-12-20T05:04:23Z</time>
      </trkpt>
      <trkpt lat="38.853609999641776" lon="-0.234270002692938">
        <ele>570.38671875</ele>
        <time>2017-12-20T05:06:23Z</time>
      </trkpt>
      <trkpt lat="38.853540010750294" lon="-0.234409980475903">
        <ele>570.640625</ele>
        <time>2017-12-20T05:08:23Z</time>
      </trkpt>
      <trkpt lat="38.85348997078836" lon="-0.234490027651191">
        <ele>570.93359375</ele>
        <time>2017-12-20T05:10:23Z</time>
      </trkpt>
      <trkpt lat="38.853410007432103" lon="-0.234630005434155">
        <ele>571.4453125</ele>
        <time>2017-12-20T05:12:23Z</time>
      </trkpt>
      <trkpt lat="38.853359967470169" lon="-0.234709968790412">
        <ele>571.69140625</ele>
        <time>2017-12-20T05:14:23Z</time>
      </trkpt>
      <trkpt lat="38.853289978578687" lon="-0.234820023179054">
        <ele>571.8046875</ele>
        <time>2017-12-20T05:16:23Z</time>
      </trkpt>
      <trkpt lat="38.853240022435784" lon="-0.234890012070537">
        <ele>571.96484375</ele>
        <time>2017-12-20T05:18:23Z</time>
      </trkpt>
      <trkpt lat="38.85321001522243" lon="-0.234939968213439">
        <ele>572.0546875</ele>
        <time>2017-12-20T05:20:23Z</time>
      </trkpt>
      <trkpt lat="38.853170033544302" lon="-0.234999982640147">
        <ele>572.0703125</ele>
        <time>2017-12-20T05:22:23Z</time>
      </trkpt>
      <trkpt lat="38.853089986369014" lon="-0.235129985958338">
        <ele>572.96875</ele>
        <time>2017-12-20T05:24:23Z</time>
      </trkpt>
      <trkpt lat="38.853050004690886" lon="-0.235210033133626">
        <ele>572.98828125</ele>
        <time>2017-12-20T05:26:23Z</time>
      </trkpt>
      <trkpt lat="38.852999964728951" lon="-0.235289996489882">
        <ele>573.0390625</ele>
        <time>2017-12-20T05:28:23Z</time>
      </trkpt>
      <trkpt lat="38.852989990264177" lon="-0.235329978168011">
        <ele>573.06640625</ele>
        <time>2017-12-20T05:30:23Z</time>
      </trkpt>
      <trkpt lat="38.852959983050823" lon="-0.235389992594719">
        <ele>573.1953125</ele>
        <time>2017-12-20T05:32:23Z</time>
      </trkpt>
      <trkpt lat="38.852929975837469" lon="-0.235459981486201">
        <ele>573.3671875</ele>
        <time>2017-12-20T05:34:23Z</time>
      </trkpt>
      <trkpt lat="38.852889994159341" lon="-0.235559977591038">
        <ele>573.734375</ele>
        <time>2017-12-20T05:36:23Z</time>
      </trkpt>
      <trkpt lat="38.852840038016438" lon="-0.235700039193034">
        <ele>574.6640625</ele>
        <time>2017-12-20T05:38:23Z</time>
      </trkpt>
      <trkpt lat="38.852729983627796" lon="-0.236030034720898">
        <ele>576.9921875</ele>
        <time>2017-12-20T05:40:23Z</time>
      </trkpt>
      <trkpt lat="38.852620013058186" lon="-0.236330023035407">
        <ele>577.5234375</ele>
        <time>2017-12-20T05:42:23Z</time>
      </trkpt>
      <trkpt lat="38.852539965882897" lon="-0.236560022458434">
        <ele>578.4453125</ele>
        <time>2017-12-20T05:44:23Z</time>
      </trkpt>
      <trkpt lat="38.852490009739995" lon="-0.236679967492819">
        <ele>578.59765625</ele>
        <time>2017-12-20T05:46:23Z</time>
      </trkpt>
      <trkpt lat="38.852279959246516" lon="-0.237199980765581">
        <ele>578.81640625</ele>
        <time>2017-12-20T05:48:23Z</time>
      </trkpt>
      <trkpt lat="38.852069992572069" lon="-0.237680012360215">
        <ele>580.34375</ele>
        <time>2017-12-20T05:50:23Z</time>
      </trkpt>
      <trkpt lat="38.851969996467233" lon="-0.237910011783242">
        <ele>580.93359375</ele>
        <time>2017-12-20T05:52:23Z</time>
      </trkpt>
      <trkpt lat="38.851600019261241" lon="-0.238739987835288">
        <ele>587.046875</ele>
        <time>2017-12-20T05:54:23Z</time>
      </trkpt>
      <trkpt lat="38.851540004834533" lon="-0.238869991153479">
        <ele>589.75</ele>
        <time>2017-12-20T05:56:23Z</time>
      </trkpt>
      <trkpt lat="38.851489964872599" lon="-0.238960012793541">
        <ele>591.81640625</ele>
        <time>2017-12-20T05:58:23Z</time>
      </trkpt>
      <trkpt lat="38.851430034264922" lon="-0.239060008898377">
        <ele>594.04296875</ele>
        <time>2017-12-20T06:00:23Z</time>
      </trkpt>
      <trkpt lat="38.851400027051568" lon="-0.23910996504128">
        <ele>594.828125</ele>
        <time>2017-12-20T06:02:23Z</time>
      </trkpt>
      <trkpt lat="38.851370019838214" lon="-0.239139972254634">
        <ele>594.98828125</ele>
        <time>2017-12-20T06:04:23Z</time>
      </trkpt>
      <trkpt lat="38.85134001262486" lon="-0.239169979467988">
        <ele>594.95703125</ele>
        <time>2017-12-20T06:06:23Z</time>
      </trkpt>
      <trkpt lat="38.851310005411506" lon="-0.239199986681342">
        <ele>594.6015625</ele>
        <time>2017-12-20T06:08:23Z</time>
      </trkpt>
      <trkpt lat="38.851279998198152" lon="-0.239229993894696">
        <ele>594.19140625</ele>
        <time>2017-12-20T06:10:23Z</time>
      </trkpt>
      <trkpt lat="38.851249990984797" lon="-0.23926000110805">
        <ele>593.796875</ele>
        <time>2017-12-20T06:12:23Z</time>
      </trkpt>
      <trkpt lat="38.851210009306669" lon="-0.239290008321404">
        <ele>593.30078125</ele>
        <time>2017-12-20T06:14:23Z</time>
      </trkpt>
      <trkpt lat="38.851180002093315" lon="-0.239310041069984">
        <ele>592.91796875</ele>
        <time>2017-12-20T06:16:23Z</time>
      </trkpt>
      <trkpt lat="38.851140020415187" lon="-0.239329989999533">
        <ele>592.5234375</ele>
        <time>2017-12-20T06:18:23Z</time>
      </trkpt>
      <trkpt lat="38.851110013201833" lon="-0.239339964464307">
        <ele>592.5078125</ele>
        <time>2017-12-20T06:20:23Z</time>
      </trkpt>
      <trkpt lat="38.851089980453253" lon="-0.239350022748113">
        <ele>592.50390625</ele>
        <time>2017-12-20T06:22:23Z</time>
      </trkpt>
      <trkpt lat="38.851049998775125" lon="-0.239369971677661">
        <ele>592.6640625</ele>
        <time>2017-12-20T06:24:23Z</time>
      </trkpt>
      <trkpt lat="38.85099995881319" lon="-0.239390004426241">
        <ele>592.859375</ele>
        <time>2017-12-20T06:26:23Z</time>
      </trkpt>
      <trkpt lat="38.850959977135062" lon="-0.239410037174821">
        <ele>592.98828125</ele>
        <time>2017-12-20T06:28:23Z</time>
      </trkpt>
      <trkpt lat="38.850929969921708" lon="-0.239429986104369">
        <ele>593.04296875</ele>
        <time>2017-12-20T06:30:23Z</time>
      </trkpt>
      <trkpt lat="38.850899962708354" lon="-0.239450018852949">
        <ele>593.17578125</ele>
        <time>2017-12-20T06:32:23Z</time>
      </trkpt>
      <trkpt lat="38.850859981030226" lon="-0.239480026066303">
        <ele>593.48828125</ele>
        <time>2017-12-20T06:34:23Z</time>
      </trkpt>
      <trkpt lat="38.850829973816872" lon="-0.239499974995852">
        <ele>593.7109375</ele>
        <time>2017-12-20T06:36:23Z</time>
      </trkpt>
      <trkpt lat="38.850789992138743" lon="-0.239540040493011">
        <ele>593.84375</ele>
        <time>2017-12-20T06:38:23Z</time>
      </trkpt>
      <trkpt lat="38.850699970498681" lon="-0.239620003849268">
        <ele>594.62890625</ele>
        <time>2017-12-20T06:40:23Z</time>
      </trkpt>
      <trkpt lat="38.850510036572814" lon="-0.239850003272295">
        <ele>598.7421875</ele>
        <time>2017-12-20T06:42:23Z</time>
      </trkpt>
      <trkpt lat="38.8504399638623" lon="-0.239929966628551">
        <ele>599.93359375</ele>
        <time>2017-12-20T06:44:23Z</time>
      </trkpt>
      <trkpt lat="38.850380033254623" lon="-0.24001001380384">
        <ele>600.69921875</ele>
        <time>2017-12-20T06:46:23Z</time>
      </trkpt>
      <trkpt lat="38.850360000506043" lon="-0.240049995481968">
        <ele>600.85546875</ele>
        <time>2017-12-20T06:48:23Z</time>
      </trkpt>
      <trkpt lat="38.850329993292689" lon="-0.240100035443902">
        <ele>601.15234375</ele>
        <time>2017-12-20T06:50:23Z</time>
      </trkpt>
      <trkpt lat="38.850309960544109" lon="-0.24014001712203">
        <ele>601.31640625</ele>
        <time>2017-12-20T06:52:23Z</time>
      </trkpt>
      <trkpt lat="38.850290011614561" lon="-0.240189973264933">
        <ele>601.66796875</ele>
        <time>2017-12-20T06:54:23Z</time>
      </trkpt>
      <trkpt lat="38.850269978865981" lon="-0.240249987691641">
        <ele>601.90625</ele>
        <time>2017-12-20T06:56:23Z</time>
      </trkpt>
      <trkpt lat="38.850260004401207" lon="-0.240289969369769">
        <ele>601.97265625</ele>
        <time>2017-12-20T06:58:23Z</time>
      </trkpt>
      <trkpt lat="38.850239971652627" lon="-0.240349983796477">
        <ele>602.26171875</ele>
        <time>2017-12-20T07:00:23Z</time>
      </trkpt>
      <trkpt lat="38.850229997187853" lon="-0.240430030971766">
        <ele>602.15625</ele>
        <time>2017-12-20T07:02:23Z</time>
      </trkpt>
      <trkpt lat="38.850220022723079" lon="-0.240479987114668">
        <ele>602.28515625</ele>
        <time>2017-12-20T07:04:23Z</time>
      </trkpt>
      <trkpt lat="38.850209964439273" lon="-0.24054997600615">
        <ele>602.5546875</ele>
        <time>2017-12-20T07:06:23Z</time>
      </trkpt>
      <trkpt lat="38.850190015509725" lon="-0.240639997646213">
        <ele>603.27734375</ele>
        <time>2017-12-20T07:08:23Z</time>
      </trkpt>
      <trkpt lat="38.850169982761145" lon="-0.240820040926337">
        <ele>603.26171875</ele>
        <time>2017-12-20T07:10:23Z</time>
      </trkpt>
      <trkpt lat="38.850130001083016" lon="-0.241039982065558">
        <ele>602.98046875</ele>
        <time>2017-12-20T07:12:23Z</time>
      </trkpt>
      <trkpt lat="38.850109968334436" lon="-0.241109970957041">
        <ele>604.38671875</ele>
        <time>2017-12-20T07:14:23Z</time>
      </trkpt>
      <trkpt lat="38.850090019404888" lon="-0.241169985383749">
        <ele>605.5859375</ele>
        <time>2017-12-20T07:16:23Z</time>
      </trkpt>
      <trkpt lat="38.850069986656308" lon="-0.241220025345683">
        <ele>606.328125</ele>
        <time>2017-12-20T07:18:23Z</time>
      </trkpt>
      <trkpt lat="38.850039979442954" lon="-0.241280039772391">
        <ele>607</ele>
        <time>2017-12-20T07:20:23Z</time>
      </trkpt>
      <trkpt lat="38.8500099722296" lon="-0.241350028663874">
        <ele>607.34375</ele>
        <time>2017-12-20T07:22:23Z</time>
      </trkpt>
      <trkpt lat="38.849979965016246" lon="-0.241399984806776">
        <ele>608.02734375</ele>
        <time>2017-12-20T07:24:23Z</time>
      </trkpt>
      <trkpt lat="38.849920034408569" lon="-0.241499980911613">
        <ele>608.796875</ele>
        <time>2017-12-20T07:26:23Z</time>
      </trkpt>
      <trkpt lat="38.849869994446635" lon="-0.241590002551675">
        <ele>609.7265625</ele>
        <time>2017-12-20T07:28:23Z</time>
      </trkpt>
      <trkpt lat="38.849809980019927" lon="-0.241689998656511">
        <ele>611.59375</ele>
        <time>2017-12-20T07:30:23Z</time>
      </trkpt>
      <trkpt lat="38.849769998341799" lon="-0.241759987547994">
        <ele>612.29296875</ele>
        <time>2017-12-20T07:32:23Z</time>
      </trkpt>
      <trkpt lat="38.849730016663671" lon="-0.24185998365283">
        <ele>612.43359375</ele>
        <time>2017-12-20T07:34:23Z</time>
      </trkpt>
      <trkpt lat="38.849679976701736" lon="-0.241959979757667">
        <ele>613.2421875</ele>
        <time>2017-12-20T07:36:23Z</time>
      </trkpt>
      <trkpt lat="38.849649969488382" lon="-0.242080008611083">
        <ele>613.2734375</ele>
        <time>2017-12-20T07:38:23Z</time>
      </trkpt>
      <trkpt lat="38.849609987810254" lon="-0.242300033569336">
        <ele>612.3359375</ele>
        <time>2017-12-20T07:40:23Z</time>
      </trkpt>
      <trkpt lat="38.849570006132126" lon="-0.242530032992363">
        <ele>612.28515625</ele>
        <time>2017-12-20T07:42:23Z</time>
      </trkpt>
      <trkpt lat="38.849549973383546" lon="-0.242630029097199">
        <ele>613.97265625</ele>
        <time>2017-12-20T07:44:23Z</time>
      </trkpt>
      <trkpt lat="38.849530024453998" lon="-0.24273999966681">
        <ele>614.7578125</ele>
        <time>2017-12-20T07:46:23Z</time>
      </trkpt>
      <trkpt lat="38.849509991705418" lon="-0.242860028520226">
        <ele>615.1875</ele>
        <time>2017-12-20T07:48:23Z</time>
      </trkpt>
      <trkpt lat="38.849500017240644" lon="-0.242909984663129">
        <ele>614.98046875</ele>
        <time>2017-12-20T07:50:23Z</time>
      </trkpt>
      <trkpt lat="38.849489958956838" lon="-0.242949966341257">
        <ele>614.671875</ele>
        <time>2017-12-20T07:52:23Z</time>
      </trkpt>
      <trkpt lat="38.849470010027289" lon="-0.243030013516545">
        <ele>614.29296875</ele>
        <time>2017-12-20T07:54:23Z</time>
      </trkpt>
      <trkpt lat="38.849449977278709" lon="-0.243079969659448">
        <ele>614.64453125</ele>
        <time>2017-12-20T07:56:23Z</time>
      </trkpt>
      <trkpt lat="38.849430028349161" lon="-0.24314995855093">
        <ele>615.09375</ele>
        <time>2017-12-20T07:58:23Z</time>
      </trkpt>
      <trkpt lat="38.849379988387227" lon="-0.243260012939572">
        <ele>616.265625</ele>
        <time>2017-12-20T08:00:23Z</time>
      </trkpt>
      <trkpt lat="38.849349981173873" lon="-0.243330001831055">
        <ele>616.8671875</ele>
        <time>2017-12-20T08:02:23Z</time>
      </trkpt>
      <trkpt lat="38.849300025030971" lon="-0.243439972400665">
        <ele>617.69140625</ele>
        <time>2017-12-20T08:04:23Z</time>
      </trkpt>
      <trkpt lat="38.849259959533811" lon="-0.243539968505502">
        <ele>618.56640625</ele>
        <time>2017-12-20T08:06:23Z</time>
      </trkpt>
      <trkpt lat="38.849210003390908" lon="-0.243669971823692">
        <ele>619.9375</ele>
        <time>2017-12-20T08:08:23Z</time>
      </trkpt>
      <trkpt lat="38.849159963428974" lon="-0.243810033425689">
        <ele>621.91796875</ele>
        <time>2017-12-20T08:10:23Z</time>
      </trkpt>
      <trkpt lat="38.849110007286072" lon="-0.243969960138202">
        <ele>622.02734375</ele>
        <time>2017-12-20T08:12:23Z</time>
      </trkpt>
      <trkpt lat="38.849089974537492" lon="-0.24405000731349">
        <ele>622.62890625</ele>
        <time>2017-12-20T08:14:23Z</time>
      </trkpt>
      <trkpt lat="38.849070025607944" lon="-0.244170036166906">
        <ele>624.30859375</ele>
        <time>2017-12-20T08:16:23Z</time>
      </trkpt>
      <trkpt lat="38.849049992859364" lon="-0.244289981201291">
        <ele>625.77734375</ele>
        <time>2017-12-20T08:18:23Z</time>
      </trkpt>
      <trkpt lat="38.849040018394589" lon="-0.244370028376579">
        <ele>626.8671875</ele>
        <time>2017-12-20T08:20:23Z</time>
      </trkpt>
      <trkpt lat="38.849029960110784" lon="-0.244470024481416">
        <ele>628.3203125</ele>
        <time>2017-12-20T08:22:23Z</time>
      </trkpt>
      <trkpt lat="38.849000036716461" lon="-0.245190029963851">
        <ele>635.296875</ele>
        <time>2017-12-20T08:24:23Z</time>
      </trkpt>
      <trkpt lat="38.848989978432655" lon="-0.245350040495396">
        <ele>638.0078125</ele>
        <time>2017-12-20T08:26:23Z</time>
      </trkpt>
      <trkpt lat="38.848989978432655" lon="-0.24549001827836">
        <ele>641.0234375</ele>
        <time>2017-12-20T08:28:23Z</time>
      </trkpt>
      <trkpt lat="38.848989978432655" lon="-0.245580039918423">
        <ele>642.7578125</ele>
        <time>2017-12-20T08:30:23Z</time>
      </trkpt>
      <trkpt lat="38.849000036716461" lon="-0.245669977739453">
        <ele>644.3046875</ele>
        <time>2017-12-20T08:32:23Z</time>
      </trkpt>
      <trkpt lat="38.849029960110784" lon="-0.245780032128096">
        <ele>646.22265625</ele>
        <time>2017-12-20T08:34:23Z</time>
      </trkpt>
      <trkpt lat="38.849049992859364" lon="-0.245880028232932">
        <ele>647.58984375</ele>
        <time>2017-12-20T08:36:23Z</time>
      </trkpt>
      <trkpt lat="38.849080000072718" lon="-0.245980024337769">
        <ele>649.1796875</ele>
        <time>2017-12-20T08:38:23Z</time>
      </trkpt>
      <trkpt lat="38.849100032821298" lon="-0.246110027655959">
        <ele>652.95703125</ele>
        <time>2017-12-20T08:40:23Z</time>
      </trkpt>
      <trkpt lat="38.849119981750846" lon="-0.24621999822557">
        <ele>655.93359375</ele>
        <time>2017-12-20T08:42:23Z</time>
      </trkpt>
      <trkpt lat="38.849130040034652" lon="-0.246340027078986">
        <ele>658.375</ele>
        <time>2017-12-20T08:44:23Z</time>
      </trkpt>
      <trkpt lat="38.849130040034652" lon="-0.246429964900017">
        <ele>659.09765625</ele>
        <time>2017-12-20T08:46:23Z</time>
      </trkpt>
      <trkpt lat="38.849130040034652" lon="-0.246529961004853">
        <ele>659.44921875</ele>
        <time>2017-12-20T08:48:23Z</time>
      </trkpt>
      <trkpt lat="38.849119981750846" lon="-0.246589975431561">
        <ele>659.7734375</ele>
        <time>2017-12-20T08:50:23Z</time>
      </trkpt>
      <trkpt lat="38.849119981750846" lon="-0.246640015393496">
        <ele>659.65625</ele>
        <time>2017-12-20T08:52:23Z</time>
      </trkpt>
      <trkpt lat="38.849110007286072" lon="-0.246700029820204">
        <ele>660.3125</ele>
        <time>2017-12-20T08:54:23Z</time>
      </trkpt>
      <trkpt lat="38.849110007286072" lon="-0.246749985963106">
        <ele>660.45703125</ele>
        <time>2017-12-20T08:56:23Z</time>
      </trkpt>
      <trkpt lat="38.849089974537492" lon="-0.246830033138394">
        <ele>661.7421875</ele>
        <time>2017-12-20T08:58:23Z</time>
      </trkpt>
      <trkpt lat="38.849059967324138" lon="-0.246930029243231">
        <ele>663.33203125</ele>
        <time>2017-12-20T09:00:23Z</time>
      </trkpt>
      <trkpt lat="38.849040018394589" lon="-0.247009992599487">
        <ele>664.53515625</ele>
        <time>2017-12-20T09:02:23Z</time>
      </trkpt>
      <trkpt lat="38.849010011181235" lon="-0.24710001423955">
        <ele>666.44140625</ele>
        <time>2017-12-20T09:04:23Z</time>
      </trkpt>
      <trkpt lat="38.848989978432655" lon="-0.247160028666258">
        <ele>666.72265625</ele>
        <time>2017-12-20T09:06:23Z</time>
      </trkpt>
      <trkpt lat="38.848959971219301" lon="-0.247279973700643">
        <ele>667.06640625</ele>
        <time>2017-12-20T09:08:23Z</time>
      </trkpt>
      <trkpt lat="38.848259998485446" lon="-0.249439990147948">
        <ele>675.2734375</ele>
        <time>2017-12-20T09:10:23Z</time>
      </trkpt>
      <trkpt lat="38.848199984058738" lon="-0.249600000679493">
        <ele>675.91796875</ele>
        <time>2017-12-20T09:12:23Z</time>
      </trkpt>
      <trkpt lat="38.848150027915835" lon="-0.249730003997684">
        <ele>676.73046875</ele>
        <time>2017-12-20T09:14:23Z</time>
      </trkpt>
      <trkpt lat="38.848109962418675" lon="-0.249799992889166">
        <ele>676.7109375</ele>
        <time>2017-12-20T09:16:23Z</time>
      </trkpt>
      <trkpt lat="38.848090013489127" lon="-0.249839974567294">
        <ele>676.64453125</ele>
        <time>2017-12-20T09:18:23Z</time>
      </trkpt>
      <trkpt lat="38.848060006275773" lon="-0.249880040064454">
        <ele>676.625</ele>
        <time>2017-12-20T09:20:23Z</time>
      </trkpt>
      <trkpt lat="38.848009966313839" lon="-0.249950028955936">
        <ele>676.95703125</ele>
        <time>2017-12-20T09:22:23Z</time>
      </trkpt>
      <trkpt lat="38.847939977422357" lon="-0.250020017847419">
        <ele>676.921875</ele>
        <time>2017-12-20T09:24:23Z</time>
      </trkpt>
      <trkpt lat="38.847890021279454" lon="-0.250069973990321">
        <ele>677.26953125</ele>
        <time>2017-12-20T09:26:23Z</time>
      </trkpt>
      <trkpt lat="38.847850039601326" lon="-0.250110039487481">
        <ele>677.53125</ele>
        <time>2017-12-20T09:28:23Z</time>
      </trkpt>
      <trkpt lat="38.847809974104166" lon="-0.250150021165609">
        <ele>677.625</ele>
        <time>2017-12-20T09:30:23Z</time>
      </trkpt>
      <trkpt lat="38.847749959677458" lon="-0.250199977308512">
        <ele>677.6875</ele>
        <time>2017-12-20T09:32:23Z</time>
      </trkpt>
      <trkpt lat="38.847600007429719" lon="-0.250329980626702">
        <ele>678.28515625</ele>
        <time>2017-12-20T09:34:23Z</time>
      </trkpt>
      <trkpt lat="38.847439996898174" lon="-0.250469958409667">
        <ele>678.203125</ele>
        <time>2017-12-20T09:36:23Z</time>
      </trkpt>
      <trkpt lat="38.847330026328564" lon="-0.250559980049729">
        <ele>678.6640625</ele>
        <time>2017-12-20T09:38:23Z</time>
      </trkpt>
      <trkpt lat="38.847260037437081" lon="-0.250619994476438">
        <ele>678.92578125</ele>
        <time>2017-12-20T09:40:23Z</time>
      </trkpt>
      <trkpt lat="38.847189964726567" lon="-0.25068998336792">
        <ele>679.3984375</ele>
        <time>2017-12-20T09:42:23Z</time>
      </trkpt>
      <trkpt lat="38.847140008583665" lon="-0.250729965046048">
        <ele>679.80859375</ele>
        <time>2017-12-20T09:44:23Z</time>
      </trkpt>
      <trkpt lat="38.847089968621731" lon="-0.250789979472756">
        <ele>680.4296875</ele>
        <time>2017-12-20T09:46:23Z</time>
      </trkpt>
      <trkpt lat="38.847049986943603" lon="-0.250829961150885">
        <ele>681.14453125</ele>
        <time>2017-12-20T09:48:23Z</time>
      </trkpt>
      <trkpt lat="38.8470000308007" lon="-0.250889975577593">
        <ele>682.14453125</ele>
        <time>2017-12-20T09:50:23Z</time>
      </trkpt>
      <trkpt lat="38.846329981461167" lon="-0.251730009913445">
        <ele>687.4140625</ele>
        <time>2017-12-20T09:52:23Z</time>
      </trkpt>
      <trkpt lat="38.846229985356331" lon="-0.251860013231635">
        <ele>687.46484375</ele>
        <time>2017-12-20T09:54:23Z</time>
      </trkpt>
      <trkpt lat="38.846150022000074" lon="-0.251950034871697">
        <ele>687.6953125</ele>
        <time>2017-12-20T09:56:23Z</time>
      </trkpt>
      <trkpt lat="38.84609998203814" lon="-0.2519999910146">
        <ele>687.87109375</ele>
        <time>2017-12-20T09:58:23Z</time>
      </trkpt>
      <trkpt lat="38.846029993146658" lon="-0.252060005441308">
        <ele>688.5234375</ele>
        <time>2017-12-20T10:00:23Z</time>
      </trkpt>
      <trkpt lat="38.84596997871995" lon="-0.25210996158421">
        <ele>688.8671875</ele>
        <time>2017-12-20T10:02:23Z</time>
      </trkpt>
      <trkpt lat="38.845920022577047" lon="-0.252139968797565">
        <ele>689.73046875</ele>
        <time>2017-12-20T10:04:23Z</time>
      </trkpt>
      <trkpt lat="38.845869982615113" lon="-0.252180034294724">
        <ele>690.6171875</ele>
        <time>2017-12-20T10:06:23Z</time>
      </trkpt>
      <trkpt lat="38.845820026472211" lon="-0.252210041508079">
        <ele>690.71875</ele>
        <time>2017-12-20T10:08:23Z</time>
      </trkpt>
      <trkpt lat="38.845760012045503" lon="-0.252239964902401">
        <ele>690.81640625</ele>
        <time>2017-12-20T10:10:23Z</time>
      </trkpt>
      <trkpt lat="38.845720030367374" lon="-0.252259997650981">
        <ele>691.0234375</ele>
        <time>2017-12-20T10:12:23Z</time>
      </trkpt>
      <trkpt lat="38.845650041475892" lon="-0.252280030399561">
        <ele>691.453125</ele>
        <time>2017-12-20T10:14:23Z</time>
      </trkpt>
      <trkpt lat="38.845590027049184" lon="-0.252290004864335">
        <ele>691.7109375</ele>
        <time>2017-12-20T10:16:23Z</time>
      </trkpt>
      <trkpt lat="38.84553998708725" lon="-0.252310037612915">
        <ele>691.546875</ele>
        <time>2017-12-20T10:18:23Z</time>
      </trkpt>
      <trkpt lat="38.845479972660542" lon="-0.252310037612915">
        <ele>691.703125</ele>
        <time>2017-12-20T10:20:23Z</time>
      </trkpt>
      <trkpt lat="38.845439990982413" lon="-0.252320012077689">
        <ele>691.80859375</ele>
        <time>2017-12-20T10:22:23Z</time>
      </trkpt>
      <trkpt lat="38.845379976555705" lon="-0.252320012077689">
        <ele>691.9921875</ele>
        <time>2017-12-20T10:24:23Z</time>
      </trkpt>
      <trkpt lat="38.845119969919324" lon="-0.252310037612915">
        <ele>693.8359375</ele>
        <time>2017-12-20T10:26:23Z</time>
      </trkpt>
      <trkpt lat="38.844959959387779" lon="-0.252299979329109">
        <ele>694.875</ele>
        <time>2017-12-20T10:28:23Z</time>
      </trkpt>
      <trkpt lat="38.844600040465593" lon="-0.252269972115755">
        <ele>695.05859375</ele>
        <time>2017-12-20T10:30:23Z</time>
      </trkpt>
      <trkpt lat="38.844450004398823" lon="-0.252259997650981">
        <ele>694.984375</ele>
        <time>2017-12-20T10:32:23Z</time>
      </trkpt>
      <trkpt lat="38.844340033829212" lon="-0.252250023186207">
        <ele>694.9296875</ele>
        <time>2017-12-20T10:34:23Z</time>
      </trkpt>
      <trkpt lat="38.844240037724376" lon="-0.252239964902401">
        <ele>694.9296875</ele>
        <time>2017-12-20T10:36:23Z</time>
      </trkpt>
      <trkpt lat="38.844129983335733" lon="-0.252229990437627">
        <ele>694.9296875</ele>
        <time>2017-12-20T10:38:23Z</time>
      </trkpt>
      <trkpt lat="38.844050019979477" lon="-0.252229990437627">
        <ele>694.73046875</ele>
        <time>2017-12-20T10:40:23Z</time>
      </trkpt>
      <trkpt lat="38.843959998339415" lon="-0.252239964902401">
        <ele>693.99609375</ele>
        <time>2017-12-20T10:42:23Z</time>
      </trkpt>
      <trkpt lat="38.843890009447932" lon="-0.252239964902401">
        <ele>693.13671875</ele>
        <time>2017-12-20T10:44:23Z</time>
      </trkpt>
      <trkpt lat="38.843829995021224" lon="-0.252259997650981">
        <ele>692.50390625</ele>
        <time>2017-12-20T10:46:23Z</time>
      </trkpt>
      <trkpt lat="38.843769980594516" lon="-0.252280030399561">
        <ele>691.9296875</ele>
        <time>2017-12-20T10:48:23Z</time>
      </trkpt>
      <trkpt lat="38.843760006129742" lon="-0.252280030399561">
        <ele>691.8125</ele>
        <time>2017-12-20T10:50:23Z</time>
      </trkpt>
      <trkpt lat="38.843699991703033" lon="-0.252299979329109">
        <ele>691.1796875</ele>
        <time>2017-12-20T10:52:23Z</time>
      </trkpt>
      <trkpt lat="38.843620028346777" lon="-0.252339961007237">
        <ele>690.29296875</ele>
        <time>2017-12-20T10:54:23Z</time>
      </trkpt>
      <trkpt lat="38.843560013920069" lon="-0.252369968220592">
        <ele>689.52734375</ele>
        <time>2017-12-20T10:56:23Z</time>
      </trkpt>
      <trkpt lat="38.843490025028586" lon="-0.252410033717752">
        <ele>688.5859375</ele>
        <time>2017-12-20T10:58:23Z</time>
      </trkpt>
      <trkpt lat="38.843409977853298" lon="-0.252480022609234">
        <ele>687.359375</ele>
        <time>2017-12-20T11:00:23Z</time>
      </trkpt>
      <trkpt lat="38.843320040032268" lon="-0.252550011500716">
        <ele>686.09765625</ele>
        <time>2017-12-20T11:02:23Z</time>
      </trkpt>
      <trkpt lat="38.843260025605559" lon="-0.252620000392199">
        <ele>685.30859375</ele>
        <time>2017-12-20T11:04:23Z</time>
      </trkpt>
      <trkpt lat="38.843200011178851" lon="-0.252680014818907">
        <ele>684.71484375</ele>
        <time>2017-12-20T11:06:23Z</time>
      </trkpt>
      <trkpt lat="38.843160029500723" lon="-0.252719996497035">
        <ele>684.23828125</ele>
        <time>2017-12-20T11:08:23Z</time>
      </trkpt>
      <trkpt lat="38.843119964003563" lon="-0.252759978175163">
        <ele>683.7109375</ele>
        <time>2017-12-20T11:10:23Z</time>
      </trkpt>
      <trkpt lat="38.843090040609241" lon="-0.252789985388517">
        <ele>683.30078125</ele>
        <time>2017-12-20T11:12:23Z</time>
      </trkpt>
      <trkpt lat="38.843040000647306" lon="-0.252810018137097">
        <ele>682.3203125</ele>
        <time>2017-12-20T11:14:23Z</time>
      </trkpt>
      <trkpt lat="38.843000018969178" lon="-0.252819992601871">
        <ele>681.62890625</ele>
        <time>2017-12-20T11:16:23Z</time>
      </trkpt>
      <trkpt lat="38.84296003729105" lon="-0.252840025350451">
        <ele>681.43359375</ele>
        <time>2017-12-20T11:18:23Z</time>
      </trkpt>
      <trkpt lat="38.842930030077696" lon="-0.252840025350451">
        <ele>681.13671875</ele>
        <time>2017-12-20T11:20:23Z</time>
      </trkpt>
      <trkpt lat="38.842889964580536" lon="-0.252840025350451">
        <ele>680.6640625</ele>
        <time>2017-12-20T11:22:23Z</time>
      </trkpt>
      <trkpt lat="38.842840008437634" lon="-0.252840025350451">
        <ele>679.953125</ele>
        <time>2017-12-20T11:24:23Z</time>
      </trkpt>
      <trkpt lat="38.842789968475699" lon="-0.252829967066646">
        <ele>678.95703125</ele>
        <time>2017-12-20T11:26:23Z</time>
      </trkpt>
      <trkpt lat="38.842749986797571" lon="-0.252819992601871">
        <ele>678.0078125</ele>
        <time>2017-12-20T11:28:23Z</time>
      </trkpt>
      <trkpt lat="38.842700030654669" lon="-0.252810018137097">
        <ele>676.8359375</ele>
        <time>2017-12-20T11:30:23Z</time>
      </trkpt>
      <trkpt lat="38.842640016227961" lon="-0.252810018137097">
        <ele>675.65234375</ele>
        <time>2017-12-20T11:32:23Z</time>
      </trkpt>
      <trkpt lat="38.842570027336478" lon="-0.252810018137097">
        <ele>674.859375</ele>
        <time>2017-12-20T11:34:23Z</time>
      </trkpt>
      <trkpt lat="38.842500038444996" lon="-0.252819992601871">
        <ele>674.3828125</ele>
        <time>2017-12-20T11:36:23Z</time>
      </trkpt>
      <trkpt lat="38.842429965734482" lon="-0.252829967066646">
        <ele>673.77734375</ele>
        <time>2017-12-20T11:38:23Z</time>
      </trkpt>
      <trkpt lat="38.842359976842999" lon="-0.252849999815226">
        <ele>673.1328125</ele>
        <time>2017-12-20T11:40:23Z</time>
      </trkpt>
      <trkpt lat="38.841729993000627" lon="-0.25301001034677">
        <ele>661.84765625</ele>
        <time>2017-12-20T11:42:23Z</time>
      </trkpt>
      <trkpt lat="38.84147996082902" lon="-0.253079999238253">
        <ele>657.90234375</ele>
        <time>2017-12-20T11:44:23Z</time>
      </trkpt>
      <trkpt lat="38.841269994154572" lon="-0.253130039200187">
        <ele>654.56640625</ele>
        <time>2017-12-20T11:46:23Z</time>
      </trkpt>
      <trkpt lat="38.841000013053417" lon="-0.253200028091669">
        <ele>650.8125</ele>
        <time>2017-12-20T11:48:23Z</time>
      </trkpt>
      <trkpt lat="38.840800020843744" lon="-0.253259958699346">
        <ele>648.015625</ele>
        <time>2017-12-20T11:50:23Z</time>
      </trkpt>
      <trkpt lat="38.840689966455102" lon="-0.2532899659127">
        <ele>646.75390625</ele>
        <time>2017-12-20T11:52:23Z</time>
      </trkpt>
      <trkpt lat="38.840579995885491" lon="-0.253340005874634">
        <ele>645.83203125</ele>
        <time>2017-12-20T11:54:23Z</time>
      </trkpt>
      <trkpt lat="38.840459967032075" lon="-0.253409994766116">
        <ele>645.26171875</ele>
        <time>2017-12-20T11:56:23Z</time>
      </trkpt>
      <trkpt lat="38.840389978140593" lon="-0.253449976444244">
        <ele>645.3046875</ele>
        <time>2017-12-20T11:58:23Z</time>
      </trkpt>
      <trkpt lat="38.840329963713884" lon="-0.253500016406178">
        <ele>645.203125</ele>
        <time>2017-12-20T12:00:23Z</time>
      </trkpt>
      <trkpt lat="38.840259974822402" lon="-0.253560030832887">
        <ele>644.99609375</ele>
        <time>2017-12-20T12:02:23Z</time>
      </trkpt>
      <trkpt lat="38.8402100186795" lon="-0.253619961440563">
        <ele>644.50390625</ele>
        <time>2017-12-20T12:04:23Z</time>
      </trkpt>
      <trkpt lat="38.83948003873229" lon="-0.254450021311641">
        <ele>638.36328125</ele>
        <time>2017-12-20T12:06:23Z</time>
      </trkpt>
      <trkpt lat="38.839420024305582" lon="-0.254529984667897">
        <ele>637.9140625</ele>
        <time>2017-12-20T12:08:23Z</time>
      </trkpt>
      <trkpt lat="38.839260013774037" lon="-0.254689995199442">
        <ele>636.20703125</ele>
        <time>2017-12-20T12:10:23Z</time>
      </trkpt>
      <trkpt lat="38.839190024882555" lon="-0.254759984090924">
        <ele>635.390625</ele>
        <time>2017-12-20T12:12:23Z</time>
      </trkpt>
      <trkpt lat="38.839120035991073" lon="-0.254819998517632">
        <ele>634.9296875</ele>
        <time>2017-12-20T12:14:23Z</time>
      </trkpt>
      <trkpt lat="38.839020039886236" lon="-0.254889987409115">
        <ele>634.57421875</ele>
        <time>2017-12-20T12:16:23Z</time>
      </trkpt>
      <trkpt lat="38.838909985497594" lon="-0.254950001835823">
        <ele>633.61328125</ele>
        <time>2017-12-20T12:18:23Z</time>
      </trkpt>
      <trkpt lat="38.838790040463209" lon="-0.255000041797757">
        <ele>633.0234375</ele>
        <time>2017-12-20T12:20:23Z</time>
      </trkpt>
      <trkpt lat="38.838700018823147" lon="-0.255019990727305">
        <ele>632.66015625</ele>
        <time>2017-12-20T12:22:23Z</time>
      </trkpt>
      <trkpt lat="38.838570015504956" lon="-0.25504999794066">
        <ele>631.859375</ele>
        <time>2017-12-20T12:24:23Z</time>
      </trkpt>
      <trkpt lat="38.838400030508637" lon="-0.255059972405434">
        <ele>630.65625</ele>
        <time>2017-12-20T12:26:23Z</time>
      </trkpt>
      <trkpt lat="38.838249994441867" lon="-0.25504999794066">
        <ele>629.703125</ele>
        <time>2017-12-20T12:28:23Z</time>
      </trkpt>
      <trkpt lat="38.838059976696968" lon="-0.25502996519208">
        <ele>628.25390625</ele>
        <time>2017-12-20T12:30:23Z</time>
      </trkpt>
      <trkpt lat="38.837940031662583" lon="-0.255019990727305">
        <ele>627.8515625</ele>
        <time>2017-12-20T12:32:23Z</time>
      </trkpt>
      <trkpt lat="38.837769962847233" lon="-0.255000041797757">
        <ele>626.3828125</ele>
        <time>2017-12-20T12:34:23Z</time>
      </trkpt>
      <trkpt lat="38.837629985064268" lon="-0.255010016262531">
        <ele>624.49609375</ele>
        <time>2017-12-20T12:36:23Z</time>
      </trkpt>
      <trkpt lat="38.837520014494658" lon="-0.25502996519208">
        <ele>623.4765625</ele>
        <time>2017-12-20T12:38:23Z</time>
      </trkpt>
      <trkpt lat="38.837399985641241" lon="-0.25507003068924">
        <ele>622.76953125</ele>
        <time>2017-12-20T12:40:23Z</time>
      </trkpt>
      <trkpt lat="38.83726998232305" lon="-0.255140019580722">
        <ele>622.04296875</ele>
        <time>2017-12-20T12:42:23Z</time>
      </trkpt>
      <trkpt lat="38.837179960682988" lon="-0.25520003400743">
        <ele>621.328125</ele>
        <time>2017-12-20T12:44:23Z</time>
      </trkpt>
      <trkpt lat="38.837099997326732" lon="-0.255279997363687">
        <ele>620.890625</ele>
        <time>2017-12-20T12:46:23Z</time>
      </trkpt>
      <trkpt lat="38.837020033970475" lon="-0.255370019003749">
        <ele>620.25</ele>
        <time>2017-12-20T12:48:23Z</time>
      </trkpt>
      <trkpt lat="38.836960019543767" lon="-0.255460040643811">
        <ele>620.19921875</ele>
        <time>2017-12-20T12:50:23Z</time>
      </trkpt>
      <trkpt lat="38.836920037865639" lon="-0.255519971251488">
        <ele>620.46875</ele>
        <time>2017-12-20T12:52:23Z</time>
      </trkpt>
      <trkpt lat="38.836879972368479" lon="-0.25560999289155">
        <ele>620.2578125</ele>
        <time>2017-12-20T12:54:23Z</time>
      </trkpt>
      <trkpt lat="38.836760027334094" lon="-0.255860025063157">
        <ele>620.77734375</ele>
        <time>2017-12-20T12:56:23Z</time>
      </trkpt>
      <trkpt lat="38.836679980158806" lon="-0.256090024486184">
        <ele>619.6484375</ele>
        <time>2017-12-20T12:58:23Z</time>
      </trkpt>
      <trkpt lat="38.836589958518744" lon="-0.256329998373985">
        <ele>619.70703125</ele>
        <time>2017-12-20T13:00:23Z</time>
      </trkpt>
      <trkpt lat="38.836540002375841" lon="-0.25646997615695">
        <ele>619.3828125</ele>
        <time>2017-12-20T13:02:23Z</time>
      </trkpt>
      <trkpt lat="38.836489962413907" lon="-0.256620012223721">
        <ele>619.6640625</ele>
        <time>2017-12-20T13:04:23Z</time>
      </trkpt>
      <trkpt lat="38.836470013484359" lon="-0.256729982793331">
        <ele>619.9609375</ele>
        <time>2017-12-20T13:06:23Z</time>
      </trkpt>
      <trkpt lat="38.836449980735779" lon="-0.256840037181973">
        <ele>620.6328125</ele>
        <time>2017-12-20T13:08:23Z</time>
      </trkpt>
      <trkpt lat="38.836440006271005" lon="-0.256929975003004">
        <ele>621.21484375</ele>
        <time>2017-12-20T13:10:23Z</time>
      </trkpt>
      <trkpt lat="38.836419973522425" lon="-0.257140025496483">
        <ele>622.40625</ele>
        <time>2017-12-20T13:12:23Z</time>
      </trkpt>
      <trkpt lat="38.836379991844296" lon="-0.257579991593957">
        <ele>624.77734375</ele>
        <time>2017-12-20T13:14:23Z</time>
      </trkpt>
      <trkpt lat="38.836340010166168" lon="-0.257789958268404">
        <ele>625.49609375</ele>
        <time>2017-12-20T13:16:23Z</time>
      </trkpt>
      <trkpt lat="38.836319977417588" lon="-0.257879979908466">
        <ele>625.6328125</ele>
        <time>2017-12-20T13:18:23Z</time>
      </trkpt>
      <trkpt lat="38.836289970204234" lon="-0.257960027083755">
        <ele>625.90625</ele>
        <time>2017-12-20T13:20:23Z</time>
      </trkpt>
      <trkpt lat="38.83625996299088" lon="-0.258009983226657">
        <ele>626.203125</ele>
        <time>2017-12-20T13:22:23Z</time>
      </trkpt>
      <trkpt lat="38.836230039596558" lon="-0.258060023188591">
        <ele>626.49609375</ele>
        <time>2017-12-20T13:24:23Z</time>
      </trkpt>
      <trkpt lat="38.836200032383204" lon="-0.258100004866719">
        <ele>626.79296875</ele>
        <time>2017-12-20T13:26:23Z</time>
      </trkpt>
      <trkpt lat="38.836170025169849" lon="-0.258139986544847">
        <ele>627.08984375</ele>
        <time>2017-12-20T13:28:23Z</time>
      </trkpt>
      <trkpt lat="38.836129959672689" lon="-0.258169993758202">
        <ele>627.4140625</ele>
        <time>2017-12-20T13:30:23Z</time>
      </trkpt>
      <trkpt lat="38.836089977994561" lon="-0.25820997543633">
        <ele>627.6015625</ele>
        <time>2017-12-20T13:32:23Z</time>
      </trkpt>
      <trkpt lat="38.836029963567853" lon="-0.25825004093349">
        <ele>627.453125</ele>
        <time>2017-12-20T13:34:23Z</time>
      </trkpt>
      <trkpt lat="38.835989981889725" lon="-0.258269989863038">
        <ele>627.109375</ele>
        <time>2017-12-20T13:36:23Z</time>
      </trkpt>
      <trkpt lat="38.835929967463017" lon="-0.258290022611618">
        <ele>626.83984375</ele>
        <time>2017-12-20T13:38:23Z</time>
      </trkpt>
      <trkpt lat="38.83587003685534" lon="-0.258299997076392">
        <ele>626.62109375</ele>
        <time>2017-12-20T13:40:23Z</time>
      </trkpt>
      <trkpt lat="38.835810022428632" lon="-0.258309971541166">
        <ele>626.13671875</ele>
        <time>2017-12-20T13:42:23Z</time>
      </trkpt>
      <trkpt lat="38.835729975253344" lon="-0.25833997875452">
        <ele>625.546875</ele>
        <time>2017-12-20T13:44:23Z</time>
      </trkpt>
      <trkpt lat="38.835659986361861" lon="-0.258379960432649">
        <ele>625.25390625</ele>
        <time>2017-12-20T13:46:23Z</time>
      </trkpt>
      <trkpt lat="38.835580023005605" lon="-0.258439974859357">
        <ele>625.2421875</ele>
        <time>2017-12-20T13:48:23Z</time>
      </trkpt>
      <trkpt lat="38.835529983043671" lon="-0.258499989286065">
        <ele>625.69921875</ele>
        <time>2017-12-20T13:50:23Z</time>
      </trkpt>
      <trkpt lat="38.835469968616962" lon="-0.258569978177547">
        <ele>626.0234375</ele>
        <time>2017-12-20T13:52:23Z</time>
      </trkpt>
      <trkpt lat="38.835429986938834" lon="-0.25863996706903">
        <ele>625.49609375</ele>
        <time>2017-12-20T13:54:23Z</time>
      </trkpt>
      <trkpt lat="38.83539997972548" lon="-0.258690007030964">
        <ele>625.62890625</ele>
        <time>2017-12-20T13:56:23Z</time>
      </trkpt>
      <trkpt lat="38.834749963134527" lon="-0.260090036317706">
        <ele>616.66015625</ele>
        <time>2017-12-20T13:58:23Z</time>
      </trkpt>
      <trkpt lat="38.834700006991625" lon="-0.260200006887317">
        <ele>616.3203125</ele>
        <time>2017-12-20T14:00:23Z</time>
      </trkpt>
      <trkpt lat="38.834669999778271" lon="-0.260279970243573">
        <ele>616.31640625</ele>
        <time>2017-12-20T14:02:23Z</time>
      </trkpt>
      <trkpt lat="38.834630018100142" lon="-0.26037996634841">
        <ele>616.83984375</ele>
        <time>2017-12-20T14:04:23Z</time>
      </trkpt>
      <trkpt lat="38.834579978138208" lon="-0.26055003516376">
        <ele>616.69140625</ele>
        <time>2017-12-20T14:06:23Z</time>
      </trkpt>
      <trkpt lat="38.83456002920866" lon="-0.260669980198145">
        <ele>616.9765625</ele>
        <time>2017-12-20T14:08:23Z</time>
      </trkpt>
      <trkpt lat="38.834549970924854" lon="-0.260799983516335">
        <ele>616.67578125</ele>
        <time>2017-12-20T14:10:23Z</time>
      </trkpt>
      <trkpt lat="38.83453999646008" lon="-0.260929986834526">
        <ele>616.80859375</ele>
        <time>2017-12-20T14:12:23Z</time>
      </trkpt>
      <trkpt lat="38.83453999646008" lon="-0.261040041223168">
        <ele>616.80859375</ele>
        <time>2017-12-20T14:14:23Z</time>
      </trkpt>
      <trkpt lat="38.83453999646008" lon="-0.261099971830845">
        <ele>616.80859375</ele>
        <time>2017-12-20T14:16:23Z</time>
      </trkpt>
      <trkpt lat="38.834549970924854" lon="-0.261159986257553">
        <ele>616.67578125</ele>
        <time>2017-12-20T14:18:23Z</time>
      </trkpt>
      <trkpt lat="38.83456002920866" lon="-0.261240033432841">
        <ele>616.54296875</ele>
        <time>2017-12-20T14:20:23Z</time>
      </trkpt>
      <trkpt lat="38.834590036422014" lon="-0.261399960145354">
        <ele>616.18359375</ele>
        <time>2017-12-20T14:22:23Z</time>
      </trkpt>
      <trkpt lat="38.834619959816337" lon="-0.261549996212125">
        <ele>616.05859375</ele>
        <time>2017-12-20T14:24:23Z</time>
      </trkpt>
      <trkpt lat="38.834660025313497" lon="-0.261679999530315">
        <ele>615.53125</ele>
        <time>2017-12-20T14:26:23Z</time>
      </trkpt>
      <trkpt lat="38.834709981456399" lon="-0.261849984526634">
        <ele>616.37890625</ele>
        <time>2017-12-20T14:28:23Z</time>
      </trkpt>
      <trkpt lat="38.834749963134527" lon="-0.261979987844825">
        <ele>615.64453125</ele>
        <time>2017-12-20T14:30:23Z</time>
      </trkpt>
      <trkpt lat="38.834779970347881" lon="-0.262119965627789">
        <ele>615.37109375</ele>
        <time>2017-12-20T14:32:23Z</time>
      </trkpt>
      <trkpt lat="38.834800003096461" lon="-0.262230020016432">
        <ele>614.234375</ele>
        <time>2017-12-20T14:34:23Z</time>
      </trkpt>
      <trkpt lat="38.834820035845041" lon="-0.262320041656494">
        <ele>613.80859375</ele>
        <time>2017-12-20T14:36:23Z</time>
      </trkpt>
      <trkpt lat="38.834820035845041" lon="-0.262420037761331">
        <ele>613.8515625</ele>
        <time>2017-12-20T14:38:23Z</time>
      </trkpt>
      <trkpt lat="38.834820035845041" lon="-0.262579964473844">
        <ele>613.77734375</ele>
        <time>2017-12-20T14:40:23Z</time>
      </trkpt>
      <trkpt lat="38.834809977561235" lon="-0.262750033289194">
        <ele>614.625</ele>
        <time>2017-12-20T14:42:23Z</time>
      </trkpt>
      <trkpt lat="38.834790028631687" lon="-0.262869978323579">
        <ele>614.3515625</ele>
        <time>2017-12-20T14:44:23Z</time>
      </trkpt>
      <trkpt lat="38.834760021418333" lon="-0.263029988855124">
        <ele>613.04296875</ele>
        <time>2017-12-20T14:46:23Z</time>
      </trkpt>
      <trkpt lat="38.834700006991625" lon="-0.263189999386668">
        <ele>611.54296875</ele>
        <time>2017-12-20T14:48:23Z</time>
      </trkpt>
      <trkpt lat="38.834609985351562" lon="-0.263399966061115">
        <ele>608.26171875</ele>
        <time>2017-12-20T14:50:23Z</time>
      </trkpt>
      <trkpt lat="38.834470007568598" lon="-0.263610016554594">
        <ele>605.9765625</ele>
        <time>2017-12-20T14:52:23Z</time>
      </trkpt>
      <trkpt lat="38.834370011463761" lon="-0.263759968802333">
        <ele>604.41015625</ele>
        <time>2017-12-20T14:54:23Z</time>
      </trkpt>
      <trkpt lat="38.834289964288473" lon="-0.263870023190975">
        <ele>604.47265625</ele>
        <time>2017-12-20T14:56:23Z</time>
      </trkpt>
      <trkpt lat="38.834240008145571" lon="-0.263970019295812">
        <ele>604.53125</ele>
        <time>2017-12-20T14:58:23Z</time>
      </trkpt>
      <trkpt lat="38.834179993718863" lon="-0.264109997078776">
        <ele>604.48046875</ele>
        <time>2017-12-20T15:00:23Z</time>
      </trkpt>
      <trkpt lat="38.83395996876061" lon="-0.264760013669729">
        <ele>606.08984375</ele>
        <time>2017-12-20T15:02:23Z</time>
      </trkpt>
      <trkpt lat="38.833789983764291" lon="-0.265269968658686">
        <ele>614.4921875</ele>
        <time>2017-12-20T15:04:23Z</time>
      </trkpt>
      <trkpt lat="38.833580017089844" lon="-0.265919985249639">
        <ele>612.44921875</ele>
        <time>2017-12-20T15:06:23Z</time>
      </trkpt>
      <trkpt lat="38.833420006558299" lon="-0.266549969092011">
        <ele>615.02734375</ele>
        <time>2017-12-20T15:08:23Z</time>
      </trkpt>
      <trkpt lat="38.833339959383011" lon="-0.266950037330389">
        <ele>616.7578125</ele>
        <time>2017-12-20T15:10:23Z</time>
      </trkpt>
      <trkpt lat="38.833269970491529" lon="-0.267369970679283">
        <ele>615.86328125</ele>
        <time>2017-12-20T15:12:23Z</time>
      </trkpt>
      <trkpt lat="38.833129992708564" lon="-0.268449978902936">
        <ele>611.98046875</ele>
        <time>2017-12-20T15:14:23Z</time>
      </trkpt>
      <trkpt lat="38.833060003817081" lon="-0.269050039350986">
        <ele>605.9375</ele>
        <time>2017-12-20T15:16:23Z</time>
      </trkpt>
      <trkpt lat="38.832990014925599" lon="-0.26936000213027">
        <ele>604.796875</ele>
        <time>2017-12-20T15:18:23Z</time>
      </trkpt>
      <trkpt lat="38.832930000498891" lon="-0.269629983231425">
        <ele>602.921875</ele>
        <time>2017-12-20T15:20:23Z</time>
      </trkpt>
      <trkpt lat="38.83282002992928" lon="-0.269899964332581">
        <ele>601.15234375</ele>
        <time>2017-12-20T15:22:23Z</time>
      </trkpt>
      <trkpt lat="38.832709975540638" lon="-0.270149996504188">
        <ele>600.17578125</ele>
        <time>2017-12-20T15:24:23Z</time>
      </trkpt>
      <trkpt lat="38.832579972222447" lon="-0.27037002146244">
        <ele>599.953125</ele>
        <time>2017-12-20T15:26:23Z</time>
      </trkpt>
      <trkpt lat="38.832419961690903" lon="-0.270589962601662">
        <ele>599.109375</ele>
        <time>2017-12-20T15:28:23Z</time>
      </trkpt>
      <trkpt lat="38.832160038873553" lon="-0.270890034735203">
        <ele>600.140625</ele>
        <time>2017-12-20T15:30:23Z</time>
      </trkpt>
      <trkpt lat="38.831949988380075" lon="-0.271109975874424">
        <ele>598.9609375</ele>
        <time>2017-12-20T15:32:23Z</time>
      </trkpt>
      <trkpt lat="38.831729963421822" lon="-0.271320026367903">
        <ele>597.21484375</ele>
        <time>2017-12-20T15:34:23Z</time>
      </trkpt>
      <trkpt lat="38.831340037286282" lon="-0.271590007469058">
        <ele>595.87109375</ele>
        <time>2017-12-20T15:36:23Z</time>
      </trkpt>
      <trkpt lat="38.830990009009838" lon="-0.271840039640665">
        <ele>595.3515625</ele>
        <time>2017-12-20T15:38:23Z</time>
      </trkpt>
      <trkpt lat="38.83063000626862" lon="-0.272140027955174">
        <ele>595.0546875</ele>
        <time>2017-12-20T15:40:23Z</time>
      </trkpt>
      <trkpt lat="38.829789971932769" lon="-0.272870007902384">
        <ele>593.75</ele>
        <time>2017-12-20T15:42:23Z</time>
      </trkpt>
      <trkpt lat="38.82964001968503" lon="-0.273039992898703">
        <ele>593.87109375</ele>
        <time>2017-12-20T15:44:23Z</time>
      </trkpt>
      <trkpt lat="38.82964001968503" lon="-0.273039992898703">
        <ele>593.87109375</ele>
        <time>2017-12-20T15:46:23Z</time>
      </trkpt>
      <trkpt lat="38.829700034111738" lon="-0.273139989003539">
        <ele>594.89453125</ele>
        <time>2017-12-20T15:48:23Z</time>
      </trkpt>
      <trkpt lat="38.829730041325092" lon="-0.273200003430247">
        <ele>594.95703125</ele>
        <time>2017-12-20T15:50:23Z</time>
      </trkpt>
      <trkpt lat="38.829779997467995" lon="-0.27326999232173">
        <ele>594.95703125</ele>
        <time>2017-12-20T15:52:23Z</time>
      </trkpt>
      <trkpt lat="38.829910000786185" lon="-0.2734200283885">
        <ele>595.19921875</ele>
        <time>2017-12-20T15:54:23Z</time>
      </trkpt>
      <trkpt lat="38.830030029639602" lon="-0.273590013384819">
        <ele>594.86328125</ele>
        <time>2017-12-20T15:56:23Z</time>
      </trkpt>
      <trkpt lat="38.830140000209212" lon="-0.273810038343072">
        <ele>593.6953125</ele>
        <time>2017-12-20T15:58:23Z</time>
      </trkpt>
      <trkpt lat="38.830279977992177" lon="-0.274080019444227">
        <ele>591.13671875</ele>
        <time>2017-12-20T16:00:23Z</time>
      </trkpt>
      <trkpt lat="38.830530010163784" lon="-0.274500036612153">
        <ele>590.49609375</ele>
        <time>2017-12-20T16:02:23Z</time>
      </trkpt>
      <trkpt lat="38.830769984051585" lon="-0.274949977174401">
        <ele>585.53515625</ele>
        <time>2017-12-20T16:04:23Z</time>
      </trkpt>
      <trkpt lat="38.830939969047904" lon="-0.275290030986071">
        <ele>584.30078125</ele>
        <time>2017-12-20T16:06:23Z</time>
      </trkpt>
      <trkpt lat="38.8310800306499" lon="-0.275509972125292">
        <ele>583.6015625</ele>
        <time>2017-12-20T16:08:23Z</time>
      </trkpt>
      <trkpt lat="38.831220008432865" lon="-0.275699989870191">
        <ele>582.63671875</ele>
        <time>2017-12-20T16:10:23Z</time>
      </trkpt>
      <trkpt lat="38.831429975107312" lon="-0.275910040363669">
        <ele>581.4609375</ele>
        <time>2017-12-20T16:12:23Z</time>
      </trkpt>
      <trkpt lat="38.831619992852211" lon="-0.276069967076182">
        <ele>580.9296875</ele>
        <time>2017-12-20T16:14:23Z</time>
      </trkpt>
      <trkpt lat="38.831859966740012" lon="-0.276319999247789">
        <ele>580.9375</ele>
        <time>2017-12-20T16:16:23Z</time>
      </trkpt>
      <trkpt lat="38.8319400139153" lon="-0.276419995352626">
        <ele>580.9140625</ele>
        <time>2017-12-20T16:18:23Z</time>
      </trkpt>
      <trkpt lat="38.831970021128654" lon="-0.276480009779334">
        <ele>580.890625</ele>
        <time>2017-12-20T16:20:23Z</time>
      </trkpt>
      <trkpt lat="38.831989970058203" lon="-0.276559973135591">
        <ele>580.75</ele>
        <time>2017-12-20T16:22:23Z</time>
      </trkpt>
      <trkpt lat="38.832010002806783" lon="-0.276649994775653">
        <ele>580.84765625</ele>
        <time>2017-12-20T16:24:23Z</time>
      </trkpt>
      <trkpt lat="38.832010002806783" lon="-0.276729958131909">
        <ele>580.84765625</ele>
        <time>2017-12-20T16:26:23Z</time>
      </trkpt>
      <trkpt lat="38.832019977271557" lon="-0.277140000835061">
        <ele>580.75</ele>
        <time>2017-12-20T16:28:23Z</time>
      </trkpt>
      <trkpt lat="38.832030035555363" lon="-0.277420040220022">
        <ele>581.20703125</ele>
        <time>2017-12-20T16:30:23Z</time>
      </trkpt>
      <trkpt lat="38.832049984484911" lon="-0.277639981359243">
        <ele>581.61328125</ele>
        <time>2017-12-20T16:32:23Z</time>
      </trkpt>
      <trkpt lat="38.832089966163039" lon="-0.277929995208979">
        <ele>581.640625</ele>
        <time>2017-12-20T16:34:23Z</time>
      </trkpt>
      <trkpt lat="38.832109998911619" lon="-0.278229983523488">
        <ele>581.49609375</ele>
        <time>2017-12-20T16:36:23Z</time>
      </trkpt>
      <trkpt lat="38.832130031660199" lon="-0.278570037335157">
        <ele>581.7109375</ele>
        <time>2017-12-20T16:38:23Z</time>
      </trkpt>
      <trkpt lat="38.832160038873553" lon="-0.278849992901087">
        <ele>581.4609375</ele>
        <time>2017-12-20T16:40:23Z</time>
      </trkpt>
      <trkpt lat="38.832179987803102" lon="-0.278989970684052">
        <ele>581.0234375</ele>
        <time>2017-12-20T16:42:23Z</time>
      </trkpt>
      <trkpt lat="38.832279983907938" lon="-0.279339998960495">
        <ele>581.8515625</ele>
        <time>2017-12-20T16:44:23Z</time>
      </trkpt>
      <trkpt lat="38.83239003829658" lon="-0.279620038345456">
        <ele>581.8515625</ele>
        <time>2017-12-20T16:46:23Z</time>
      </trkpt>
      <trkpt lat="38.832549965009093" lon="-0.28003997169435">
        <ele>580.953125</ele>
        <time>2017-12-20T16:48:23Z</time>
      </trkpt>
      <trkpt lat="38.832730008289218" lon="-0.280480021610856">
        <ele>579.984375</ele>
        <time>2017-12-20T16:50:23Z</time>
      </trkpt>
      <trkpt lat="38.832980040460825" lon="-0.281000034883618">
        <ele>577.19921875</ele>
        <time>2017-12-20T16:52:23Z</time>
      </trkpt>
      <trkpt lat="38.833109959959984" lon="-0.281230034306645">
        <ele>575.98828125</ele>
        <time>2017-12-20T16:54:23Z</time>
      </trkpt>
      <trkpt lat="38.833259996026754" lon="-0.281449975445867">
        <ele>575.140625</ele>
        <time>2017-12-20T16:56:23Z</time>
      </trkpt>
      <trkpt lat="38.833480020985007" lon="-0.281730014830828">
        <ele>571.71484375</ele>
        <time>2017-12-20T16:58:23Z</time>
      </trkpt>
      <trkpt lat="38.833699962124228" lon="-0.281999995931983">
        <ele>569.1328125</ele>
        <time>2017-12-20T17:00:23Z</time>
      </trkpt>
      <trkpt lat="38.833949994295835" lon="-0.282339965924621">
        <ele>567.96875</ele>
        <time>2017-12-20T17:02:23Z</time>
      </trkpt>
      <trkpt lat="38.834200026467443" lon="-0.282750008627772">
        <ele>566.3671875</ele>
        <time>2017-12-20T17:04:23Z</time>
      </trkpt>
      <trkpt lat="38.834340004250407" lon="-0.282989982515574">
        <ele>565.2421875</ele>
        <time>2017-12-20T17:06:23Z</time>
      </trkpt>
      <trkpt lat="38.83440999314189" lon="-0.283180000260472">
        <ele>565.06640625</ele>
        <time>2017-12-20T17:08:23Z</time>
      </trkpt>
      <trkpt lat="38.834590036422014" lon="-0.283779976889491">
        <ele>563.23828125</ele>
        <time>2017-12-20T17:10:23Z</time>
      </trkpt>
      <trkpt lat="38.834660025313497" lon="-0.284090023487806">
        <ele>562.421875</ele>
        <time>2017-12-20T17:12:23Z</time>
      </trkpt>
      <trkpt lat="38.834709981456399" lon="-0.284360004588962">
        <ele>561.1328125</ele>
        <time>2017-12-20T17:14:23Z</time>
      </trkpt>
      <trkpt lat="38.834720039740205" lon="-0.284490007907152">
        <ele>560.19140625</ele>
        <time>2017-12-20T17:16:23Z</time>
      </trkpt>
      <trkpt lat="38.834760021418333" lon="-0.284699974581599">
        <ele>559.5390625</ele>
        <time>2017-12-20T17:18:23Z</time>
      </trkpt>
      <trkpt lat="38.834869991987944" lon="-0.285119991749525">
        <ele>557.87890625</ele>
        <time>2017-12-20T17:20:23Z</time>
      </trkpt>
      <trkpt lat="38.835020028054714" lon="-0.285560041666031">
        <ele>554.25390625</ele>
        <time>2017-12-20T17:22:23Z</time>
      </trkpt>
      <trkpt lat="38.835099991410971" lon="-0.28586002998054">
        <ele>554.1171875</ele>
        <time>2017-12-20T17:24:23Z</time>
      </trkpt>
      <trkpt lat="38.835129998624325" lon="-0.286039989441633">
        <ele>554.1015625</ele>
        <time>2017-12-20T17:26:23Z</time>
      </trkpt>
      <trkpt lat="38.835139973089099" lon="-0.286149960011244">
        <ele>554.0546875</ele>
        <time>2017-12-20T17:28:23Z</time>
      </trkpt>
      <trkpt lat="38.835139973089099" lon="-0.286350036039948">
        <ele>554.75</ele>
        <time>2017-12-20T17:30:23Z</time>
      </trkpt>
      <trkpt lat="38.835099991410971" lon="-0.286869965493679">
        <ele>558.65234375</ele>
        <time>2017-12-20T17:32:23Z</time>
      </trkpt>
      <trkpt lat="38.835090016946197" lon="-0.287359971553087">
        <ele>561.72265625</ele>
        <time>2017-12-20T17:34:23Z</time>
      </trkpt>
      <trkpt lat="38.835120024159551" lon="-0.288019962608814">
        <ele>562.7265625</ele>
        <time>2017-12-20T17:36:23Z</time>
      </trkpt>
      <trkpt lat="38.835150031372905" lon="-0.288709960877895">
        <ele>559.734375</ele>
        <time>2017-12-20T17:38:23Z</time>
      </trkpt>
      <trkpt lat="38.835190013051033" lon="-0.289359977468848">
        <ele>558.44921875</ele>
        <time>2017-12-20T17:40:23Z</time>
      </trkpt>
      <trkpt lat="38.835199987515807" lon="-0.289649991318583">
        <ele>558.51171875</ele>
        <time>2017-12-20T17:42:23Z</time>
      </trkpt>
      <trkpt lat="38.835190013051033" lon="-0.290000019595027">
        <ele>558.9921875</ele>
        <time>2017-12-20T17:44:23Z</time>
      </trkpt>
      <trkpt lat="38.835169980302453" lon="-0.290409978479147">
        <ele>558.8046875</ele>
        <time>2017-12-20T17:46:23Z</time>
      </trkpt>
      <trkpt lat="38.835180038586259" lon="-0.290799988433719">
        <ele>557.66796875</ele>
        <time>2017-12-20T17:48:23Z</time>
      </trkpt>
      <trkpt lat="38.835180038586259" lon="-0.291250012814999">
        <ele>556.4765625</ele>
        <time>2017-12-20T17:50:23Z</time>
      </trkpt>
      <trkpt lat="38.835190013051033" lon="-0.29151001945138">
        <ele>554.91015625</ele>
        <time>2017-12-20T17:52:23Z</time>
      </trkpt>
      <trkpt lat="38.835199987515807" lon="-0.291689978912473">
        <ele>554.875</ele>
        <time>2017-12-20T17:54:23Z</time>
      </trkpt>
      <trkpt lat="38.835229994729161" lon="-0.291840014979243">
        <ele>554.3515625</ele>
        <time>2017-12-20T17:56:23Z</time>
      </trkpt>
      <trkpt lat="38.835280034691095" lon="-0.29204998165369">
        <ele>553.83984375</ele>
        <time>2017-12-20T17:58:23Z</time>
      </trkpt>
      <trkpt lat="38.83542001247406" lon="-0.292469998821616">
        <ele>551.984375</ele>
        <time>2017-12-20T18:00:23Z</time>
      </trkpt>
      <trkpt lat="38.835559990257025" lon="-0.29292999766767">
        <ele>552.27734375</ele>
        <time>2017-12-20T18:02:23Z</time>
      </trkpt>
      <trkpt lat="38.835699968039989" lon="-0.293399970978498">
        <ele>552.9453125</ele>
        <time>2017-12-20T18:04:23Z</time>
      </trkpt>
      <trkpt lat="38.835770040750504" lon="-0.293619995936751">
        <ele>552.6796875</ele>
        <time>2017-12-20T18:06:23Z</time>
      </trkpt>
      <trkpt lat="38.835810022428632" lon="-0.293749999254942">
        <ele>550.69921875</ele>
        <time>2017-12-20T18:08:23Z</time>
      </trkpt>
      <trkpt lat="38.83582997135818" lon="-0.293859969824553">
        <ele>549.5078125</ele>
        <time>2017-12-20T18:10:23Z</time>
      </trkpt>
      <trkpt lat="38.835840029641986" lon="-0.293970024213195">
        <ele>547.6953125</ele>
        <time>2017-12-20T18:12:23Z</time>
      </trkpt>
      <trkpt lat="38.83582997135818" lon="-0.29408996924758">
        <ele>545.9765625</ele>
        <time>2017-12-20T18:14:23Z</time>
      </trkpt>
      <trkpt lat="38.835789989680052" lon="-0.29424000531435">
        <ele>543.77734375</ele>
        <time>2017-12-20T18:16:23Z</time>
      </trkpt>
      <trkpt lat="38.835699968039989" lon="-0.29466999694705">
        <ele>538.7109375</ele>
        <time>2017-12-20T18:18:23Z</time>
      </trkpt>
      <trkpt lat="38.835640037432313" lon="-0.294990018010139">
        <ele>534.3671875</ele>
        <time>2017-12-20T18:20:23Z</time>
      </trkpt>
      <trkpt lat="38.835620004683733" lon="-0.295229991897941">
        <ele>531.796875</ele>
        <time>2017-12-20T18:22:23Z</time>
      </trkpt>
      <trkpt lat="38.835599971935153" lon="-0.295589994639158">
        <ele>528.75390625</ele>
        <time>2017-12-20T18:24:23Z</time>
      </trkpt>
      <trkpt lat="38.835610030218959" lon="-0.295949997380376">
        <ele>528.48046875</ele>
        <time>2017-12-20T18:26:23Z</time>
      </trkpt>
      <trkpt lat="38.835620004683733" lon="-0.296059967949986">
        <ele>528.02734375</ele>
        <time>2017-12-20T18:28:23Z</time>
      </trkpt>
      <trkpt lat="38.835640037432313" lon="-0.296110007911921">
        <ele>527.640625</ele>
        <time>2017-12-20T18:30:23Z</time>
      </trkpt>
      <trkpt lat="38.835740033537149" lon="-0.296370014548302">
        <ele>526.9375</ele>
        <time>2017-12-20T18:32:23Z</time>
      </trkpt>
      <trkpt lat="38.835810022428632" lon="-0.296539999544621">
        <ele>526.1640625</ele>
        <time>2017-12-20T18:34:23Z</time>
      </trkpt>
      <trkpt lat="38.835840029641986" lon="-0.296639995649457">
        <ele>525.8203125</ele>
        <time>2017-12-20T18:36:23Z</time>
      </trkpt>
      <trkpt lat="38.83585000410676" lon="-0.296709984540939">
        <ele>525.4296875</ele>
        <time>2017-12-20T18:38:23Z</time>
      </trkpt>
      <trkpt lat="38.835840029641986" lon="-0.296800006181002">
        <ele>524.80078125</ele>
        <time>2017-12-20T18:40:23Z</time>
      </trkpt>
      <trkpt lat="38.835789989680052" lon="-0.296939983963966">
        <ele>523.140625</ele>
        <time>2017-12-20T18:42:23Z</time>
      </trkpt>
      <trkpt lat="38.835720000788569" lon="-0.297139976173639">
        <ele>521.13671875</ele>
        <time>2017-12-20T18:44:23Z</time>
      </trkpt>
      <trkpt lat="38.835680019110441" lon="-0.29729001224041">
        <ele>520.0546875</ele>
        <time>2017-12-20T18:46:23Z</time>
      </trkpt>
      <trkpt lat="38.835650011897087" lon="-0.297410041093826">
        <ele>517.9609375</ele>
        <time>2017-12-20T18:48:23Z</time>
      </trkpt>
      <trkpt lat="38.835650011897087" lon="-0.297490004450083">
        <ele>516.93359375</ele>
        <time>2017-12-20T18:50:23Z</time>
      </trkpt>
      <trkpt lat="38.835650011897087" lon="-0.297590000554919">
        <ele>514.97265625</ele>
        <time>2017-12-20T18:52:23Z</time>
      </trkpt>
      <trkpt lat="38.835659986361861" lon="-0.297669963911176">
        <ele>513.05859375</ele>
        <time>2017-12-20T18:54:23Z</time>
      </trkpt>
      <trkpt lat="38.835669960826635" lon="-0.297750011086464">
        <ele>511.21875</ele>
        <time>2017-12-20T18:56:23Z</time>
      </trkpt>
      <trkpt lat="38.835699968039989" lon="-0.297799967229366">
        <ele>510.51953125</ele>
        <time>2017-12-20T18:58:23Z</time>
      </trkpt>
      <trkpt lat="38.835740033537149" lon="-0.2978500071913">
        <ele>509.87890625</ele>
        <time>2017-12-20T19:00:23Z</time>
      </trkpt>
      <trkpt lat="38.835770040750504" lon="-0.297880014404655">
        <ele>509.625</ele>
        <time>2017-12-20T19:02:23Z</time>
      </trkpt>
      <trkpt lat="38.835810022428632" lon="-0.297889988869429">
        <ele>509.48046875</ele>
        <time>2017-12-20T19:04:23Z</time>
      </trkpt>
      <trkpt lat="38.835989981889725" lon="-0.297919996082783">
        <ele>507.03515625</ele>
        <time>2017-12-20T19:06:23Z</time>
      </trkpt>
      <trkpt lat="38.836240014061332" lon="-0.297919996082783">
        <ele>504.03515625</ele>
        <time>2017-12-20T19:08:23Z</time>
      </trkpt>
      <trkpt lat="38.836310002952814" lon="-0.297919996082783">
        <ele>503.3359375</ele>
        <time>2017-12-20T19:10:23Z</time>
      </trkpt>
      <trkpt lat="38.836370017379522" lon="-0.297889988869429">
        <ele>502.71484375</ele>
        <time>2017-12-20T19:12:23Z</time>
      </trkpt>
      <trkpt lat="38.836449980735779" lon="-0.29782997444272">
        <ele>501.40625</ele>
        <time>2017-12-20T19:14:23Z</time>
      </trkpt>
      <trkpt lat="38.836589958518744" lon="-0.297710029408336">
        <ele>499.0625</ele>
        <time>2017-12-20T19:16:23Z</time>
      </trkpt>
      <trkpt lat="38.836760027334094" lon="-0.297499978914857">
        <ele>497.484375</ele>
        <time>2017-12-20T19:18:23Z</time>
      </trkpt>
      <trkpt lat="38.836869997903705" lon="-0.297339968383312">
        <ele>496.1875</ele>
        <time>2017-12-20T19:20:23Z</time>
      </trkpt>
      <trkpt lat="38.836969994008541" lon="-0.297169983386993">
        <ele>494.11328125</ele>
        <time>2017-12-20T19:22:23Z</time>
      </trkpt>
      <trkpt lat="38.837030008435249" lon="-0.297039980068803">
        <ele>492.73046875</ele>
        <time>2017-12-20T19:24:23Z</time>
      </trkpt>
      <trkpt lat="38.837060015648603" lon="-0.2969900239259">
        <ele>492.0390625</ele>
        <time>2017-12-20T19:26:23Z</time>
      </trkpt>
      <trkpt lat="38.837079964578152" lon="-0.29696999117732">
        <ele>491.59765625</ele>
        <time>2017-12-20T19:28:23Z</time>
      </trkpt>
      <trkpt lat="38.837109971791506" lon="-0.29696999117732">
        <ele>491.15625</ele>
        <time>2017-12-20T19:30:23Z</time>
      </trkpt>
      <trkpt lat="38.837130004540086" lon="-0.29696999117732">
        <ele>490.86328125</ele>
        <time>2017-12-20T19:32:23Z</time>
      </trkpt>
      <trkpt lat="38.837150037288666" lon="-0.296979965642095">
        <ele>490.51953125</ele>
        <time>2017-12-20T19:34:23Z</time>
      </trkpt>
      <trkpt lat="38.837169986218214" lon="-0.296999998390675">
        <ele>490.078125</ele>
        <time>2017-12-20T19:36:23Z</time>
      </trkpt>
      <trkpt lat="38.837190018966794" lon="-0.297020031139255">
        <ele>489.69921875</ele>
        <time>2017-12-20T19:38:23Z</time>
      </trkpt>
      <trkpt lat="38.837199993431568" lon="-0.297050038352609">
        <ele>489.34375</ele>
        <time>2017-12-20T19:40:23Z</time>
      </trkpt>
      <trkpt lat="38.837209967896342" lon="-0.297090020030737">
        <ele>488.890625</ele>
        <time>2017-12-20T19:42:23Z</time>
      </trkpt>
      <trkpt lat="38.837209967896342" lon="-0.297120027244091">
        <ele>488.6484375</ele>
        <time>2017-12-20T19:44:23Z</time>
      </trkpt>
      <trkpt lat="38.837199993431568" lon="-0.297280037775636">
        <ele>487.79296875</ele>
        <time>2017-12-20T19:46:23Z</time>
      </trkpt>
      <trkpt lat="38.837169986218214" lon="-0.297710029408336">
        <ele>484.2109375</ele>
        <time>2017-12-20T19:48:23Z</time>
      </trkpt>
      <trkpt lat="38.837130004540086" lon="-0.297999959439039">
        <ele>480.328125</ele>
        <time>2017-12-20T19:50:23Z</time>
      </trkpt>
      <trkpt lat="38.837090022861958" lon="-0.298180002719164">
        <ele>478.55078125</ele>
        <time>2017-12-20T19:52:23Z</time>
      </trkpt>
      <trkpt lat="38.837060015648603" lon="-0.298289973288774">
        <ele>478.57421875</ele>
        <time>2017-12-20T19:54:23Z</time>
      </trkpt>
      <trkpt lat="38.836930012330413" lon="-0.298519972711802">
        <ele>477.58984375</ele>
        <time>2017-12-20T19:56:23Z</time>
      </trkpt>
      <trkpt lat="38.836619965732098" lon="-0.299020037055016">
        <ele>476.34765625</ele>
        <time>2017-12-20T19:58:23Z</time>
      </trkpt>
      <trkpt lat="38.836519969627261" lon="-0.299209970980883">
        <ele>476.03515625</ele>
        <time>2017-12-20T20:00:23Z</time>
      </trkpt>
      <trkpt lat="38.836400024592876" lon="-0.299520017579198">
        <ele>475.94921875</ele>
        <time>2017-12-20T20:02:23Z</time>
      </trkpt>
      <trkpt lat="38.836349984630942" lon="-0.299789998680353">
        <ele>472.74609375</ele>
        <time>2017-12-20T20:04:23Z</time>
      </trkpt>
      <trkpt lat="38.836340010166168" lon="-0.299940034747124">
        <ele>470.98828125</ele>
        <time>2017-12-20T20:06:23Z</time>
      </trkpt>
      <trkpt lat="38.836340010166168" lon="-0.300080012530088">
        <ele>470.640625</ele>
        <time>2017-12-20T20:08:23Z</time>
      </trkpt>
      <trkpt lat="38.836349984630942" lon="-0.300159975886345">
        <ele>471.203125</ele>
        <time>2017-12-20T20:10:23Z</time>
      </trkpt>
      <trkpt lat="38.836370017379522" lon="-0.300210015848279">
        <ele>471.921875</ele>
        <time>2017-12-20T20:12:23Z</time>
      </trkpt>
      <trkpt lat="38.836519969627261" lon="-0.300489971414208">
        <ele>474.0859375</ele>
        <time>2017-12-20T20:14:23Z</time>
      </trkpt>
      <trkpt lat="38.836630024015903" lon="-0.30077001079917">
        <ele>472.796875</ele>
        <time>2017-12-20T20:16:23Z</time>
      </trkpt>
      <trkpt lat="38.836690038442612" lon="-0.301019959151745">
        <ele>472.44921875</ele>
        <time>2017-12-20T20:18:23Z</time>
      </trkpt>
      <trkpt lat="38.836779976263642" lon="-0.301609961315989">
        <ele>469.16796875</ele>
        <time>2017-12-20T20:20:23Z</time>
      </trkpt>
      <trkpt lat="38.836820041760802" lon="-0.301839960739017">
        <ele>467.29296875</ele>
        <time>2017-12-20T20:22:23Z</time>
      </trkpt>
      <trkpt lat="38.836860023438931" lon="-0.301929982379079">
        <ele>465.3203125</ele>
        <time>2017-12-20T20:24:23Z</time>
      </trkpt>
      <trkpt lat="38.836879972368479" lon="-0.301950015127659">
        <ele>464.53515625</ele>
        <time>2017-12-20T20:26:23Z</time>
      </trkpt>
      <trkpt lat="38.836900005117059" lon="-0.301980022341013">
        <ele>463.63671875</ele>
        <time>2017-12-20T20:28:23Z</time>
      </trkpt>
      <trkpt lat="38.836939986795187" lon="-0.301980022341013">
        <ele>462.4140625</ele>
        <time>2017-12-20T20:30:23Z</time>
      </trkpt>
      <trkpt lat="38.836960019543767" lon="-0.301980022341013">
        <ele>461.8046875</ele>
        <time>2017-12-20T20:32:23Z</time>
      </trkpt>
      <trkpt lat="38.837000001221895" lon="-0.301959989592433">
        <ele>460.76171875</ele>
        <time>2017-12-20T20:34:23Z</time>
      </trkpt>
      <trkpt lat="38.837030008435249" lon="-0.301920007914305">
        <ele>460.4140625</ele>
        <time>2017-12-20T20:36:23Z</time>
      </trkpt>
      <trkpt lat="38.837130004540086" lon="-0.301650026813149">
        <ele>461.25390625</ele>
        <time>2017-12-20T20:38:23Z</time>
      </trkpt>
      <trkpt lat="38.837199993431568" lon="-0.301499990746379">
        <ele>460.84375</ele>
        <time>2017-12-20T20:40:23Z</time>
      </trkpt>
      <trkpt lat="38.837230000644922" lon="-0.301469983533025">
        <ele>460.26953125</ele>
        <time>2017-12-20T20:42:23Z</time>
      </trkpt>
      <trkpt lat="38.837429992854595" lon="-0.30130997300148">
        <ele>457.7109375</ele>
        <time>2017-12-20T20:44:23Z</time>
      </trkpt>
      <trkpt lat="38.837639959529042" lon="-0.301079973578453">
        <ele>456.03125</ele>
        <time>2017-12-20T20:46:23Z</time>
      </trkpt>
      <trkpt lat="38.837859984487295" lon="-0.30074997805059">
        <ele>453.11328125</ele>
        <time>2017-12-20T20:48:23Z</time>
      </trkpt>
      <trkpt lat="38.838119991123676" lon="-0.300229964777827">
        <ele>451.390625</ele>
        <time>2017-12-20T20:50:23Z</time>
      </trkpt>
      <trkpt lat="38.838240019977093" lon="-0.299959983676672">
        <ele>449.94921875</ele>
        <time>2017-12-20T20:52:23Z</time>
      </trkpt>
      <trkpt lat="38.838310008868575" lon="-0.299720009788871">
        <ele>447.2890625</ele>
        <time>2017-12-20T20:54:23Z</time>
      </trkpt>
      <trkpt lat="38.838349990546703" lon="-0.299399988725781">
        <ele>443.12109375</ele>
        <time>2017-12-20T20:56:23Z</time>
      </trkpt>
      <trkpt lat="38.838359965011477" lon="-0.299269985407591">
        <ele>441.2890625</ele>
        <time>2017-12-20T20:58:23Z</time>
      </trkpt>
      <trkpt lat="38.838370023295283" lon="-0.2991399820894">
        <ele>440.54296875</ele>
        <time>2017-12-20T21:00:23Z</time>
      </trkpt>
      <trkpt lat="38.838379997760057" lon="-0.299069993197918">
        <ele>439.65625</ele>
        <time>2017-12-20T21:02:23Z</time>
      </trkpt>
      <trkpt lat="38.838410004973412" lon="-0.29900997877121">
        <ele>438.76953125</ele>
        <time>2017-12-20T21:04:23Z</time>
      </trkpt>
      <trkpt lat="38.838430037721992" lon="-0.298979971557856">
        <ele>438.21484375</ele>
        <time>2017-12-20T21:06:23Z</time>
      </trkpt>
      <trkpt lat="38.838459961116314" lon="-0.298949964344501">
        <ele>437.328125</ele>
        <time>2017-12-20T21:08:23Z</time>
      </trkpt>
      <trkpt lat="38.838489968329668" lon="-0.298930015414953">
        <ele>436.546875</ele>
        <time>2017-12-20T21:10:23Z</time>
      </trkpt>
      <trkpt lat="38.838519975543022" lon="-0.298930015414953">
        <ele>436.03125</ele>
        <time>2017-12-20T21:12:23Z</time>
      </trkpt>
      <trkpt lat="38.838560041040182" lon="-0.298939989879727">
        <ele>435.37890625</ele>
        <time>2017-12-20T21:14:23Z</time>
      </trkpt>
      <trkpt lat="38.838589964434505" lon="-0.298960022628307">
        <ele>435.0234375</ele>
        <time>2017-12-20T21:16:23Z</time>
      </trkpt>
      <trkpt lat="38.838640004396439" lon="-0.299000004306436">
        <ele>434.53515625</ele>
        <time>2017-12-20T21:18:23Z</time>
      </trkpt>
      <trkpt lat="38.838679986074567" lon="-0.299060018733144">
        <ele>434.00390625</ele>
        <time>2017-12-20T21:20:23Z</time>
      </trkpt>
      <trkpt lat="38.838730026036501" lon="-0.299150040373206">
        <ele>433.0703125</ele>
        <time>2017-12-20T21:22:23Z</time>
      </trkpt>
      <trkpt lat="38.838749974966049" lon="-0.299250036478043">
        <ele>431.87890625</ele>
        <time>2017-12-20T21:24:23Z</time>
      </trkpt>
      <trkpt lat="38.838770007714629" lon="-0.299369981512427">
        <ele>430.76953125</ele>
        <time>2017-12-20T21:26:23Z</time>
      </trkpt>
      <trkpt lat="38.838770007714629" lon="-0.299369981512427">
        <ele>430.76953125</ele>
        <time>2017-12-20T21:28:23Z</time>
      </trkpt>
      <trkpt lat="38.838819963857532" lon="-0.299829980358481">
        <ele>426.30859375</ele>
        <time>2017-12-20T21:30:23Z</time>
      </trkpt>
      <trkpt lat="38.838860029354692" lon="-0.300229964777827">
        <ele>421.9375</ele>
        <time>2017-12-20T21:32:23Z</time>
      </trkpt>
      <trkpt lat="38.838860029354692" lon="-0.300730029121041">
        <ele>417.51953125</ele>
        <time>2017-12-20T21:34:23Z</time>
      </trkpt>
      <trkpt lat="38.838839996606112" lon="-0.301039991900325">
        <ele>413.921875</ele>
        <time>2017-12-20T21:36:23Z</time>
      </trkpt>
      <trkpt lat="38.838770007714629" lon="-0.301539972424507">
        <ele>409.8828125</ele>
        <time>2017-12-20T21:38:23Z</time>
      </trkpt>
      <trkpt lat="38.838700018823147" lon="-0.301829986274242">
        <ele>406.875</ele>
        <time>2017-12-20T21:40:23Z</time>
      </trkpt>
      <trkpt lat="38.838619971647859" lon="-0.302040036767721">
        <ele>404.63671875</ele>
        <time>2017-12-20T21:42:23Z</time>
      </trkpt>
      <trkpt lat="38.838589964434505" lon="-0.302099967375398">
        <ele>404.2109375</ele>
        <time>2017-12-20T21:44:23Z</time>
      </trkpt>
      <trkpt lat="38.838519975543022" lon="-0.30218998901546">
        <ele>403.4765625</ele>
        <time>2017-12-20T21:46:23Z</time>
      </trkpt>
      <trkpt lat="38.838349990546703" lon="-0.302349999547005">
        <ele>401.8359375</ele>
        <time>2017-12-20T21:48:23Z</time>
      </trkpt>
      <trkpt lat="38.838240019977093" lon="-0.302459970116615">
        <ele>401.84765625</ele>
        <time>2017-12-20T21:50:23Z</time>
      </trkpt>
      <trkpt lat="38.838200038298965" lon="-0.302500035613775">
        <ele>401.99609375</ele>
        <time>2017-12-20T21:52:23Z</time>
      </trkpt>
      <trkpt lat="38.838189980015159" lon="-0.302540017291903">
        <ele>401.4921875</ele>
        <time>2017-12-20T21:54:23Z</time>
      </trkpt>
      <trkpt lat="38.83817003108561" lon="-0.302570024505258">
        <ele>401.984375</ele>
        <time>2017-12-20T21:56:23Z</time>
      </trkpt>
      <trkpt lat="38.838159972801805" lon="-0.302630038931966">
        <ele>401.4765625</ele>
        <time>2017-12-20T21:58:23Z</time>
      </trkpt>
      <trkpt lat="38.838140023872256" lon="-0.302710002288222">
        <ele>401.28125</ele>
        <time>2017-12-20T22:00:23Z</time>
      </trkpt>
      <trkpt lat="38.838119991123676" lon="-0.302949976176023">
        <ele>398.9609375</ele>
        <time>2017-12-20T22:02:23Z</time>
      </trkpt>
      <trkpt lat="38.838070034980774" lon="-0.303430007770658">
        <ele>396.25</ele>
        <time>2017-12-20T22:04:23Z</time>
      </trkpt>
      <trkpt lat="38.83799996227026" lon="-0.303850024938583">
        <ele>391.6640625</ele>
        <time>2017-12-20T22:06:23Z</time>
      </trkpt>
      <trkpt lat="38.837910024449229" lon="-0.304319998249412">
        <ele>386.1015625</ele>
        <time>2017-12-20T22:08:23Z</time>
      </trkpt>
      <trkpt lat="38.837869958952069" lon="-0.304459976032376">
        <ele>385.57421875</ele>
        <time>2017-12-20T22:10:23Z</time>
      </trkpt>
      <trkpt lat="38.837810028344393" lon="-0.304619986563921">
        <ele>384.8671875</ele>
        <time>2017-12-20T22:12:23Z</time>
      </trkpt>
      <trkpt lat="38.837689999490976" lon="-0.304870018735528">
        <ele>382.07421875</ele>
        <time>2017-12-20T22:14:23Z</time>
      </trkpt>
      <trkpt lat="38.837639959529042" lon="-0.304989963769913">
        <ele>380.43359375</ele>
        <time>2017-12-20T22:16:23Z</time>
      </trkpt>
      <trkpt lat="38.837629985064268" lon="-0.305079985409975">
        <ele>379.16015625</ele>
        <time>2017-12-20T22:18:23Z</time>
      </trkpt>
      <trkpt lat="38.837629985064268" lon="-0.305119967088103">
        <ele>378.859375</ele>
        <time>2017-12-20T22:20:23Z</time>
      </trkpt>
      <trkpt lat="38.837629985064268" lon="-0.305149974301457">
        <ele>378.74609375</ele>
        <time>2017-12-20T22:22:23Z</time>
      </trkpt>
      <trkpt lat="38.837650017812848" lon="-0.305170007050037">
        <ele>378.3671875</ele>
        <time>2017-12-20T22:24:23Z</time>
      </trkpt>
      <trkpt lat="38.837680025026202" lon="-0.305190039798617">
        <ele>377.90625</ele>
        <time>2017-12-20T22:26:23Z</time>
      </trkpt>
      <trkpt lat="38.837710032239556" lon="-0.305190039798617">
        <ele>377.50390625</ele>
        <time>2017-12-20T22:28:23Z</time>
      </trkpt>
      <trkpt lat="38.837769962847233" lon="-0.305170007050037">
        <ele>376.6015625</ele>
        <time>2017-12-20T22:30:23Z</time>
      </trkpt>
      <trkpt lat="38.83804002776742" lon="-0.30494000762701">
        <ele>372.296875</ele>
        <time>2017-12-20T22:32:23Z</time>
      </trkpt>
      <trkpt lat="38.838249994441867" lon="-0.304749989882112">
        <ele>368.2109375</ele>
        <time>2017-12-20T22:34:23Z</time>
      </trkpt>
      <trkpt lat="38.83847001940012" lon="-0.304629961028695">
        <ele>365.0625</ele>
        <time>2017-12-20T22:36:23Z</time>
      </trkpt>
      <trkpt lat="38.838779982179403" lon="-0.304440027102828">
        <ele>362.23828125</ele>
        <time>2017-12-20T22:38:23Z</time>
      </trkpt>
      <trkpt lat="38.838860029354692" lon="-0.304399961605668">
        <ele>361.125</ele>
        <time>2017-12-20T22:40:23Z</time>
      </trkpt>
      <trkpt lat="38.838909985497594" lon="-0.304399961605668">
        <ele>360.37890625</ele>
        <time>2017-12-20T22:42:23Z</time>
      </trkpt>
      <trkpt lat="38.838939992710948" lon="-0.304399961605668">
        <ele>359.875</ele>
        <time>2017-12-20T22:44:23Z</time>
      </trkpt>
      <trkpt lat="38.838969999924302" lon="-0.304429968819022">
        <ele>359.08984375</ele>
        <time>2017-12-20T22:46:23Z</time>
      </trkpt>
      <trkpt lat="38.838990032672882" lon="-0.304450001567602">
        <ele>358.48046875</ele>
        <time>2017-12-20T22:48:23Z</time>
      </trkpt>
      <trkpt lat="38.83900998160243" lon="-0.304470034316182">
        <ele>357.87890625</ele>
        <time>2017-12-20T22:50:23Z</time>
      </trkpt>
      <trkpt lat="38.83900998160243" lon="-0.30448998324573">
        <ele>357.72265625</ele>
        <time>2017-12-20T22:52:23Z</time>
      </trkpt>
      <trkpt lat="38.839020039886236" lon="-0.304529964923859">
        <ele>357.2734375</ele>
        <time>2017-12-20T22:54:23Z</time>
      </trkpt>
      <trkpt lat="38.839020039886236" lon="-0.304559972137213">
        <ele>356.99609375</ele>
        <time>2017-12-20T22:56:23Z</time>
      </trkpt>
      <trkpt lat="38.839020039886236" lon="-0.304610012099147">
        <ele>356.5</ele>
        <time>2017-12-20T22:58:23Z</time>
      </trkpt>
      <trkpt lat="38.839000007137656" lon="-0.304659968242049">
        <ele>355.9921875</ele>
        <time>2017-12-20T23:00:23Z</time>
      </trkpt>
      <trkpt lat="38.838630029931664" lon="-0.305249970406294">
        <ele>350.40625</ele>
        <time>2017-12-20T23:02:23Z</time>
      </trkpt>
      <trkpt lat="38.838289976119995" lon="-0.305860005319118">
        <ele>346.49609375</ele>
        <time>2017-12-20T23:04:23Z</time>
      </trkpt>
      <trkpt lat="38.838050002232194" lon="-0.306220008060336">
        <ele>344.50390625</ele>
        <time>2017-12-20T23:06:23Z</time>
      </trkpt>
      <trkpt lat="38.837759988382459" lon="-0.30665997415781">
        <ele>341.16796875</ele>
        <time>2017-12-20T23:08:23Z</time>
      </trkpt>
      <trkpt lat="38.83769997395575" lon="-0.306759970262647">
        <ele>340.76171875</ele>
        <time>2017-12-20T23:10:23Z</time>
      </trkpt>
      <trkpt lat="38.837669966742396" lon="-0.306840017437935">
        <ele>339.546875</ele>
        <time>2017-12-20T23:12:23Z</time>
      </trkpt>
      <trkpt lat="38.837669966742396" lon="-0.306889973580837">
        <ele>338.48046875</ele>
        <time>2017-12-20T23:14:23Z</time>
      </trkpt>
      <trkpt lat="38.837669966742396" lon="-0.306910006329417">
        <ele>338.0703125</ele>
        <time>2017-12-20T23:16:23Z</time>
      </trkpt>
      <trkpt lat="38.837680025026202" lon="-0.306949988007545">
        <ele>337.1171875</ele>
        <time>2017-12-20T23:18:23Z</time>
      </trkpt>
      <trkpt lat="38.837689999490976" lon="-0.30695996247232">
        <ele>336.7890625</ele>
        <time>2017-12-20T23:20:23Z</time>
      </trkpt>
      <trkpt lat="38.83769997395575" lon="-0.306970020756125">
        <ele>336.4609375</ele>
        <time>2017-12-20T23:22:23Z</time>
      </trkpt>
      <trkpt lat="38.837710032239556" lon="-0.3069799952209">
        <ele>336.12890625</ele>
        <time>2017-12-20T23:24:23Z</time>
      </trkpt>
      <trkpt lat="38.83772000670433" lon="-0.306989969685674">
        <ele>335.80078125</ele>
        <time>2017-12-20T23:26:23Z</time>
      </trkpt>
      <trkpt lat="38.837750013917685" lon="-0.30700002796948">
        <ele>335.25390625</ele>
        <time>2017-12-20T23:28:23Z</time>
      </trkpt>
      <trkpt lat="38.837789995595813" lon="-0.30700002796948">
        <ele>334.77734375</ele>
        <time>2017-12-20T23:30:23Z</time>
      </trkpt>
      <trkpt lat="38.837850010022521" lon="-0.307010002434254">
        <ele>333.9296875</ele>
        <time>2017-12-20T23:32:23Z</time>
      </trkpt>
      <trkpt lat="38.838640004396439" lon="-0.307100024074316">
        <ele>324.94921875</ele>
        <time>2017-12-20T23:34:23Z</time>
      </trkpt>
      <trkpt lat="38.83890001103282" lon="-0.307140005752444">
        <ele>322.5390625</ele>
        <time>2017-12-20T23:36:23Z</time>
      </trkpt>
      <trkpt lat="38.839599983766675" lon="-0.30710999853909">
        <ele>317.30859375</ele>
        <time>2017-12-20T23:38:23Z</time>
      </trkpt>
      <trkpt lat="38.83988999761641" lon="-0.307079991325736">
        <ele>316.30078125</ele>
        <time>2017-12-20T23:40:23Z</time>
      </trkpt>
      <trkpt lat="38.840050008147955" lon="-0.307030035182834">
        <ele>315.38671875</ele>
        <time>2017-12-20T23:42:23Z</time>
      </trkpt>
      <trkpt lat="38.840289982035756" lon="-0.306849991902709">
        <ele>313.80859375</ele>
        <time>2017-12-20T23:44:23Z</time>
      </trkpt>
      <trkpt lat="38.840519981458783" lon="-0.30665997415781">
        <ele>312.80078125</ele>
        <time>2017-12-20T23:46:23Z</time>
      </trkpt>
      <trkpt lat="38.840659959241748" lon="-0.306470040231943">
        <ele>312.3359375</ele>
        <time>2017-12-20T23:48:23Z</time>
      </trkpt>
      <trkpt lat="38.840930024161935" lon="-0.306139960885048">
        <ele>308.046875</ele>
        <time>2017-12-20T23:50:23Z</time>
      </trkpt>
      <trkpt lat="38.8410700019449" lon="-0.305950026959181">
        <ele>306.05078125</ele>
        <time>2017-12-20T23:52:23Z</time>
      </trkpt>
      <trkpt lat="38.841169998049736" lon="-0.305660013109446">
        <ele>302.83203125</ele>
        <time>2017-12-20T23:54:23Z</time>
      </trkpt>
      <trkpt lat="38.841190030798316" lon="-0.305500002577901">
        <ele>299.875</ele>
        <time>2017-12-20T23:56:23Z</time>
      </trkpt>
      <trkpt lat="38.841190030798316" lon="-0.305309984833002">
        <ele>298.7109375</ele>
        <time>2017-12-20T23:58:23Z</time>
      </trkpt>
      <trkpt lat="38.841169998049736" lon="-0.305130025371909">
        <ele>299.3984375</ele>
        <time>2017-12-21T00:00:23Z</time>
      </trkpt>
      <trkpt lat="38.841169998049736" lon="-0.305019970983267">
        <ele>298.1796875</ele>
        <time>2017-12-21T00:02:23Z</time>
      </trkpt>
      <trkpt lat="38.841169998049736" lon="-0.304989963769913">
        <ele>297.82421875</ele>
        <time>2017-12-21T00:04:23Z</time>
      </trkpt>
      <trkpt lat="38.84117997251451" lon="-0.304970014840364">
        <ele>297.59375</ele>
        <time>2017-12-21T00:06:23Z</time>
      </trkpt>
      <trkpt lat="38.84120000526309" lon="-0.30496004037559">
        <ele>297.328125</ele>
        <time>2017-12-21T00:08:23Z</time>
      </trkpt>
      <trkpt lat="38.841209979727864" lon="-0.304949982091784">
        <ele>297.1640625</ele>
        <time>2017-12-21T00:10:23Z</time>
      </trkpt>
      <trkpt lat="38.841230012476444" lon="-0.30494000762701">
        <ele>296.90234375</ele>
        <time>2017-12-21T00:12:23Z</time>
      </trkpt>
      <trkpt lat="38.841249961405993" lon="-0.30494000762701">
        <ele>296.703125</ele>
        <time>2017-12-21T00:14:23Z</time>
      </trkpt>
      <trkpt lat="38.841269994154572" lon="-0.304949982091784">
        <ele>296.5703125</ele>
        <time>2017-12-21T00:16:23Z</time>
      </trkpt>
      <trkpt lat="38.841290026903152" lon="-0.30496004037559">
        <ele>296.44140625</ele>
        <time>2017-12-21T00:18:23Z</time>
      </trkpt>
      <trkpt lat="38.841309975832701" lon="-0.304989963769913">
        <ele>296.44140625</ele>
        <time>2017-12-21T00:20:23Z</time>
      </trkpt>
      <trkpt lat="38.841320034116507" lon="-0.305019970983267">
        <ele>296.3671875</ele>
        <time>2017-12-21T00:22:23Z</time>
      </trkpt>
      <trkpt lat="38.841339983046055" lon="-0.305070010945201">
        <ele>295.9453125</ele>
        <time>2017-12-21T00:24:23Z</time>
      </trkpt>
      <trkpt lat="38.841350041329861" lon="-0.305130025371909">
        <ele>295.421875</ele>
        <time>2017-12-21T00:26:23Z</time>
      </trkpt>
      <trkpt lat="38.841430004686117" lon="-0.305420039221644">
        <ele>293.640625</ele>
        <time>2017-12-21T00:28:23Z</time>
      </trkpt>
      <trkpt lat="38.841530000790954" lon="-0.305679962038994">
        <ele>290.14453125</ele>
        <time>2017-12-21T00:30:23Z</time>
      </trkpt>
      <trkpt lat="38.84165002964437" lon="-0.306090004742146">
        <ele>285.04296875</ele>
        <time>2017-12-21T00:32:23Z</time>
      </trkpt>
      <trkpt lat="38.841780032962561" lon="-0.306410025805235">
        <ele>281.6875</ele>
        <time>2017-12-21T00:34:23Z</time>
      </trkpt>
      <trkpt lat="38.841850021854043" lon="-0.306519996374846">
        <ele>280.671875</ele>
        <time>2017-12-21T00:36:23Z</time>
      </trkpt>
      <trkpt lat="38.841959992423654" lon="-0.306649999693036">
        <ele>279.4453125</ele>
        <time>2017-12-21T00:38:23Z</time>
      </trkpt>
      <trkpt lat="38.841999974101782" lon="-0.30670003965497">
        <ele>279.1484375</ele>
        <time>2017-12-21T00:40:23Z</time>
      </trkpt>
      <trkpt lat="38.842150010168552" lon="-0.306849991902709">
        <ele>278.00390625</ele>
        <time>2017-12-21T00:42:23Z</time>
      </trkpt>
      <trkpt lat="38.842219999060035" lon="-0.306919980794191">
        <ele>278.078125</ele>
        <time>2017-12-21T00:44:23Z</time>
      </trkpt>
      <trkpt lat="38.842219999060035" lon="-0.306919980794191">
        <ele>278.078125</ele>
        <time>2017-12-21T00:46:23Z</time>
      </trkpt>
      <trkpt lat="38.842270039021969" lon="-0.3069799952209">
        <ele>278.4296875</ele>
        <time>2017-12-21T00:48:23Z</time>
      </trkpt>
      <trkpt lat="38.842350002378225" lon="-0.307100024074316">
        <ele>278.8984375</ele>
        <time>2017-12-21T00:50:23Z</time>
      </trkpt>
      <trkpt lat="38.842399958521128" lon="-0.307209994643927">
        <ele>278.703125</ele>
        <time>2017-12-21T00:52:23Z</time>
      </trkpt>
      <trkpt lat="38.842410016804934" lon="-0.307330023497343">
        <ele>278.734375</ele>
        <time>2017-12-21T00:54:23Z</time>
      </trkpt>
      <trkpt lat="38.842329969629645" lon="-0.308109959587455">
        <ele>277.265625</ele>
        <time>2017-12-21T00:56:23Z</time>
      </trkpt>
      <trkpt lat="38.842319995164871" lon="-0.308150025084615">
        <ele>277.05859375</ele>
        <time>2017-12-21T00:58:23Z</time>
      </trkpt>
      <trkpt lat="38.842319995164871" lon="-0.308169974014163">
        <ele>277.05859375</ele>
        <time>2017-12-21T01:00:23Z</time>
      </trkpt>
      <trkpt lat="38.842319995164871" lon="-0.308199981227517">
        <ele>277.05859375</ele>
        <time>2017-12-21T01:02:23Z</time>
      </trkpt>
      <trkpt lat="38.842329969629645" lon="-0.308229988440871">
        <ele>277.05859375</ele>
        <time>2017-12-21T01:04:23Z</time>
      </trkpt>
      <trkpt lat="38.842329969629645" lon="-0.308250021189451">
        <ele>277</ele>
        <time>2017-12-21T01:06:23Z</time>
      </trkpt>
      <trkpt lat="38.842329969629645" lon="-0.308250021189451">
        <ele>277</ele>
        <time>2017-12-21T01:08:23Z</time>
      </trkpt>
      <trkpt lat="38.842340027913451" lon="-0.308259995654225">
        <ele>276.93359375</ele>
        <time>2017-12-21T01:10:23Z</time>
      </trkpt>
      <trkpt lat="38.842340027913451" lon="-0.308269970118999">
        <ele>276.875</ele>
        <time>2017-12-21T01:12:23Z</time>
      </trkpt>
      <trkpt lat="38.842350002378225" lon="-0.308280028402805">
        <ele>276.7890625</ele>
        <time>2017-12-21T01:14:23Z</time>
      </trkpt>
      <trkpt lat="38.842359976842999" lon="-0.308290002867579">
        <ele>276.6796875</ele>
        <time>2017-12-21T01:16:23Z</time>
      </trkpt>
      <trkpt lat="38.842370035126805" lon="-0.308290002867579">
        <ele>276.6328125</ele>
        <time>2017-12-21T01:18:23Z</time>
      </trkpt>
      <trkpt lat="38.842380009591579" lon="-0.308299977332354">
        <ele>276.52734375</ele>
        <time>2017-12-21T01:20:23Z</time>
      </trkpt>
      <trkpt lat="38.843230018392205" lon="-0.30844003893435">
        <ele>273.71484375</ele>
        <time>2017-12-21T01:22:23Z</time>
      </trkpt>
      <trkpt lat="38.843449959531426" lon="-0.308489995077252">
        <ele>272.484375</ele>
        <time>2017-12-21T01:24:23Z</time>
      </trkpt>
      <trkpt lat="38.843460017815232" lon="-0.308489995077252">
        <ele>272.41796875</ele>
        <time>2017-12-21T01:26:23Z</time>
      </trkpt>
      <trkpt lat="38.84352003224194" lon="-0.308520002290606">
        <ele>271.7265625</ele>
        <time>2017-12-21T01:28:23Z</time>
      </trkpt>
      <trkpt lat="38.843550039455295" lon="-0.308540035039186">
        <ele>271.33203125</ele>
        <time>2017-12-21T01:30:23Z</time>
      </trkpt>
      <trkpt lat="38.843590021133423" lon="-0.308569958433509">
        <ele>270.921875</ele>
        <time>2017-12-21T01:32:23Z</time>
      </trkpt>
      <trkpt lat="38.843839969485998" lon="-0.308789983391762">
        <ele>268.4296875</ele>
        <time>2017-12-21T01:34:23Z</time>
      </trkpt>
      <trkpt lat="38.843909958377481" lon="-0.308840023353696">
        <ele>267.76171875</ele>
        <time>2017-12-21T01:36:23Z</time>
      </trkpt>
      <trkpt lat="38.843959998339415" lon="-0.308880005031824">
        <ele>267.640625</ele>
        <time>2017-12-21T01:38:23Z</time>
      </trkpt>
      <trkpt lat="38.844059994444251" lon="-0.308959968388081">
        <ele>266.88671875</ele>
        <time>2017-12-21T01:40:23Z</time>
      </trkpt>
      <trkpt lat="38.844299968332052" lon="-0.309200026094913">
        <ele>265.8203125</ele>
        <time>2017-12-21T01:42:23Z</time>
      </trkpt>
      <trkpt lat="38.844370041042566" lon="-0.30927998945117">
        <ele>265.24609375</ele>
        <time>2017-12-21T01:44:23Z</time>
      </trkpt>
      <trkpt lat="38.844429971650243" lon="-0.309340003877878">
        <ele>265.03515625</ele>
        <time>2017-12-21T01:46:23Z</time>
      </trkpt>
      <trkpt lat="38.844480011612177" lon="-0.309439999982715">
        <ele>264.5703125</ele>
        <time>2017-12-21T01:48:23Z</time>
      </trkpt>
      <trkpt lat="38.844540026038885" lon="-0.309519963338971">
        <ele>264.4296875</ele>
        <time>2017-12-21T01:50:23Z</time>
      </trkpt>
      <trkpt lat="38.844580007717013" lon="-0.309579977765679">
        <ele>264.28125</ele>
        <time>2017-12-21T01:52:23Z</time>
      </trkpt>
      <trkpt lat="38.844600040465593" lon="-0.309609984979033">
        <ele>264.34765625</ele>
        <time>2017-12-21T01:54:23Z</time>
      </trkpt>
      <trkpt lat="38.844610014930367" lon="-0.309630017727613">
        <ele>264.375</ele>
        <time>2017-12-21T01:56:23Z</time>
      </trkpt>
      <trkpt lat="38.844619989395142" lon="-0.309649966657162">
        <ele>264.37109375</ele>
        <time>2017-12-21T01:58:23Z</time>
      </trkpt>
      <trkpt lat="38.844629963859916" lon="-0.309679973870516">
        <ele>264.3359375</ele>
        <time>2017-12-21T02:00:23Z</time>
      </trkpt>
      <trkpt lat="38.844649996608496" lon="-0.309720039367676">
        <ele>264.25390625</ele>
        <time>2017-12-21T02:02:23Z</time>
      </trkpt>
      <trkpt lat="38.84465997107327" lon="-0.309769995510578">
        <ele>264.09765625</ele>
        <time>2017-12-21T02:04:23Z</time>
      </trkpt>
      <trkpt lat="38.844670029357076" lon="-0.309809977188706">
        <ele>263.94140625</ele>
        <time>2017-12-21T02:06:23Z</time>
      </trkpt>
      <trkpt lat="38.844670029357076" lon="-0.309839984402061">
        <ele>263.83984375</ele>
        <time>2017-12-21T02:08:23Z</time>
      </trkpt>
      <trkpt lat="38.84468000382185" lon="-0.309879966080189">
        <ele>263.64453125</ele>
        <time>2017-12-21T02:10:23Z</time>
      </trkpt>
      <trkpt lat="38.844689978286624" lon="-0.309969987720251">
        <ele>263.2109375</ele>
        <time>2017-12-21T02:12:23Z</time>
      </trkpt>
      <trkpt lat="38.84470003657043" lon="-0.310169979929924">
        <ele>263.21484375</ele>
        <time>2017-12-21T02:14:23Z</time>
      </trkpt>
      <trkpt lat="38.844710011035204" lon="-0.310320015996695">
        <ele>263.8046875</ele>
        <time>2017-12-21T02:16:23Z</time>
      </trkpt>
      <trkpt lat="38.844719985499978" lon="-0.310499975457788">
        <ele>263.234375</ele>
        <time>2017-12-21T02:18:23Z</time>
      </trkpt>
      <trkpt lat="38.844729959964752" lon="-0.310650011524558">
        <ele>263.13671875</ele>
        <time>2017-12-21T02:20:23Z</time>
      </trkpt>
      <trkpt lat="38.844740018248558" lon="-0.31072000041604">
        <ele>263.04296875</ele>
        <time>2017-12-21T02:22:23Z</time>
      </trkpt>
      <trkpt lat="38.844749992713332" lon="-0.310770040377975">
        <ele>263.0703125</ele>
        <time>2017-12-21T02:24:23Z</time>
      </trkpt>
      <trkpt lat="38.844770025461912" lon="-0.310829970985651">
        <ele>263.1484375</ele>
        <time>2017-12-21T02:26:23Z</time>
      </trkpt>
      <trkpt lat="38.84478997439146" lon="-0.310889985412359">
        <ele>262.95703125</ele>
        <time>2017-12-21T02:28:23Z</time>
      </trkpt>
      <trkpt lat="38.84481000714004" lon="-0.310929967090487">
        <ele>262.9140625</ele>
        <time>2017-12-21T02:30:23Z</time>
      </trkpt>
      <trkpt lat="38.84483003988862" lon="-0.310959974303842">
        <ele>263.01171875</ele>
        <time>2017-12-21T02:32:23Z</time>
      </trkpt>
      <trkpt lat="38.844859963282943" lon="-0.311000039801002">
        <ele>263.0546875</ele>
        <time>2017-12-21T02:34:23Z</time>
      </trkpt>
      <trkpt lat="38.844879996031523" lon="-0.311029963195324">
        <ele>262.9296875</ele>
        <time>2017-12-21T02:36:23Z</time>
      </trkpt>
      <trkpt lat="38.844889970496297" lon="-0.31104002147913">
        <ele>262.81640625</ele>
        <time>2017-12-21T02:38:23Z</time>
      </trkpt>
      <trkpt lat="38.844940010458231" lon="-0.311080003157258">
        <ele>262.296875</ele>
        <time>2017-12-21T02:40:23Z</time>
      </trkpt>
      <trkpt lat="38.845040006563067" lon="-0.31117002479732">
        <ele>261.8046875</ele>
        <time>2017-12-21T02:42:23Z</time>
      </trkpt>
      <trkpt lat="38.84508996270597" lon="-0.311210006475449">
        <ele>261.72265625</ele>
        <time>2017-12-21T02:44:23Z</time>
      </trkpt>
      <trkpt lat="38.845249973237514" lon="-0.311319977045059">
        <ele>261.546875</ele>
        <time>2017-12-21T02:46:23Z</time>
      </trkpt>
      <trkpt lat="38.845339994877577" lon="-0.311389965936542">
        <ele>261.87890625</ele>
        <time>2017-12-21T02:48:23Z</time>
      </trkpt>
      <trkpt lat="38.845530012622476" lon="-0.311519969254732">
        <ele>260.40625</ele>
        <time>2017-12-21T02:50:23Z</time>
      </trkpt>
      <trkpt lat="38.845639983192086" lon="-0.31160001643002">
        <ele>260.328125</ele>
        <time>2017-12-21T02:52:23Z</time>
      </trkpt>
      <trkpt lat="38.845709972083569" lon="-0.311649972572923">
        <ele>260.17578125</ele>
        <time>2017-12-21T02:54:23Z</time>
      </trkpt>
      <trkpt lat="38.845720030367374" lon="-0.311649972572923">
        <ele>260.1484375</ele>
        <time>2017-12-21T02:56:23Z</time>
      </trkpt>
      <trkpt lat="38.845929997041821" lon="-0.311800008639693">
        <ele>259.2265625</ele>
        <time>2017-12-21T02:58:23Z</time>
      </trkpt>
      <trkpt lat="38.846050025895238" lon="-0.31187997199595">
        <ele>259.078125</ele>
        <time>2017-12-21T03:00:23Z</time>
      </trkpt>
      <trkpt lat="38.846129989251494" lon="-0.311949960887432">
        <ele>259.0234375</ele>
        <time>2017-12-21T03:02:23Z</time>
      </trkpt>
      <trkpt lat="38.846180029213428" lon="-0.311990026384592">
        <ele>258.578125</ele>
        <time>2017-12-21T03:04:23Z</time>
      </trkpt>
      <trkpt lat="38.846229985356331" lon="-0.312039982527494">
        <ele>258.21484375</ele>
        <time>2017-12-21T03:06:23Z</time>
      </trkpt>
      <trkpt lat="38.846299974247813" lon="-0.312109971418977">
        <ele>258.046875</ele>
        <time>2017-12-21T03:08:23Z</time>
      </trkpt>
      <trkpt lat="38.846450010314584" lon="-0.312280040234327">
        <ele>257.85546875</ele>
        <time>2017-12-21T03:10:23Z</time>
      </trkpt>
      <trkpt lat="38.84655000641942" lon="-0.312380036339164">
        <ele>257.76953125</ele>
        <time>2017-12-21T03:12:23Z</time>
      </trkpt>
      <trkpt lat="38.846580013632774" lon="-0.312429992482066">
        <ele>257.58203125</ele>
        <time>2017-12-21T03:14:23Z</time>
      </trkpt>
      <trkpt lat="38.846599962562323" lon="-0.312469974160194">
        <ele>257.37890625</ele>
        <time>2017-12-21T03:16:23Z</time>
      </trkpt>
      <trkpt lat="38.846610020846128" lon="-0.312510039657354">
        <ele>257.2421875</ele>
        <time>2017-12-21T03:18:23Z</time>
      </trkpt>
      <trkpt lat="38.846619995310903" lon="-0.312559995800257">
        <ele>257.2109375</ele>
        <time>2017-12-21T03:20:23Z</time>
      </trkpt>
      <trkpt lat="38.846619995310903" lon="-0.312599977478385">
        <ele>257.2109375</ele>
        <time>2017-12-21T03:22:23Z</time>
      </trkpt>
      <trkpt lat="38.846629969775677" lon="-0.312599977478385">
        <ele>257.17578125</ele>
        <time>2017-12-21T03:24:23Z</time>
      </trkpt>
      <trkpt lat="38.846629969775677" lon="-0.312590003013611">
        <ele>257.17578125</ele>
        <time>2017-12-21T03:26:23Z</time>
      </trkpt>
      <trkpt lat="38.846640028059483" lon="-0.312590003013611">
        <ele>257.14453125</ele>
        <time>2017-12-21T03:28:23Z</time>
      </trkpt>
      <trkpt lat="38.846650002524257" lon="-0.312590003013611">
        <ele>257.109375</ele>
        <time>2017-12-21T03:30:23Z</time>
      </trkpt>
      <trkpt lat="38.846659976989031" lon="-0.312590003013611">
        <ele>257.078125</ele>
        <time>2017-12-21T03:32:23Z</time>
      </trkpt>
      <trkpt lat="38.846670035272837" lon="-0.312590003013611">
        <ele>257.04296875</ele>
        <time>2017-12-21T03:34:23Z</time>
      </trkpt>
      <trkpt lat="38.846680009737611" lon="-0.312590003013611">
        <ele>257.01171875</ele>
        <time>2017-12-21T03:36:23Z</time>
      </trkpt>
      <trkpt lat="38.846680009737611" lon="-0.312599977478385">
        <ele>257.01171875</ele>
        <time>2017-12-21T03:38:23Z</time>
      </trkpt>
      <trkpt lat="38.846689984202385" lon="-0.312599977478385">
        <ele>256.98046875</ele>
        <time>2017-12-21T03:40:23Z</time>
      </trkpt>
      <trkpt lat="38.846699958667159" lon="-0.312610035762191">
        <ele>256.9453125</ele>
        <time>2017-12-21T03:42:23Z</time>
      </trkpt>
      <trkpt lat="38.846710016950965" lon="-0.312610035762191">
        <ele>256.8984375</ele>
        <time>2017-12-21T03:44:23Z</time>
      </trkpt>
      <trkpt lat="38.846710016950965" lon="-0.312620010226965">
        <ele>256.90625</ele>
        <time>2017-12-21T03:46:23Z</time>
      </trkpt>
      <trkpt lat="38.846719991415739" lon="-0.312620010226965">
        <ele>256.86328125</ele>
        <time>2017-12-21T03:48:23Z</time>
      </trkpt>
      <trkpt lat="38.846719991415739" lon="-0.312629984691739">
        <ele>256.875</ele>
        <time>2017-12-21T03:50:23Z</time>
      </trkpt>
      <trkpt lat="38.846719991415739" lon="-0.312639959156513">
        <ele>256.88671875</ele>
        <time>2017-12-21T03:52:23Z</time>
      </trkpt>
      <trkpt lat="38.846729965880513" lon="-0.312639959156513">
        <ele>256.859375</ele>
        <time>2017-12-21T03:54:23Z</time>
      </trkpt>
      <trkpt lat="38.846729965880513" lon="-0.312650017440319">
        <ele>256.87890625</ele>
        <time>2017-12-21T03:56:23Z</time>
      </trkpt>
      <trkpt lat="38.846729965880513" lon="-0.312659991905093">
        <ele>256.90234375</ele>
        <time>2017-12-21T03:58:23Z</time>
      </trkpt>
      <trkpt lat="38.846729965880513" lon="-0.312669966369867">
        <ele>256.921875</ele>
        <time>2017-12-21T04:00:23Z</time>
      </trkpt>
      <trkpt lat="38.846740024164319" lon="-0.312669966369867">
        <ele>256.9140625</ele>
        <time>2017-12-21T04:02:23Z</time>
      </trkpt>
      <trkpt lat="38.846740024164319" lon="-0.312680024653673">
        <ele>256.94140625</ele>
        <time>2017-12-21T04:04:23Z</time>
      </trkpt>
      <trkpt lat="38.846740024164319" lon="-0.312689999118447">
        <ele>256.9609375</ele>
        <time>2017-12-21T04:06:23Z</time>
      </trkpt>
      <trkpt lat="38.846740024164319" lon="-0.312699973583221">
        <ele>256.98046875</ele>
        <time>2017-12-21T04:08:23Z</time>
      </trkpt>
      <trkpt lat="38.846740024164319" lon="-0.312710031867027">
        <ele>257</ele>
        <time>2017-12-21T04:10:23Z</time>
      </trkpt>
      <trkpt lat="38.846729965880513" lon="-0.312720006331801">
        <ele>257.03125</ele>
        <time>2017-12-21T04:12:23Z</time>
      </trkpt>
      <trkpt lat="38.846729965880513" lon="-0.312729980796576">
        <ele>257.0546875</ele>
        <time>2017-12-21T04:14:23Z</time>
      </trkpt>
      <trkpt lat="38.846729965880513" lon="-0.312740039080381">
        <ele>257.078125</ele>
        <time>2017-12-21T04:16:23Z</time>
      </trkpt>
      <trkpt lat="38.846729965880513" lon="-0.312750013545156">
        <ele>257.1015625</ele>
        <time>2017-12-21T04:18:23Z</time>
      </trkpt>
      <trkpt lat="38.846719991415739" lon="-0.312750013545156">
        <ele>257.125</ele>
        <time>2017-12-21T04:20:23Z</time>
      </trkpt>
      <trkpt lat="38.846719991415739" lon="-0.31275998800993">
        <ele>257.15234375</ele>
        <time>2017-12-21T04:22:23Z</time>
      </trkpt>
      <trkpt lat="38.846810013055801" lon="-0.312820002436638">
        <ele>257.0703125</ele>
        <time>2017-12-21T04:24:23Z</time>
      </trkpt>
      <trkpt lat="38.846880001947284" lon="-0.312880016863346">
        <ele>256.96875</ele>
        <time>2017-12-21T04:26:23Z</time>
      </trkpt>
      <trkpt lat="38.84695996530354" lon="-0.312980012968183">
        <ele>256.91796875</ele>
        <time>2017-12-21T04:28:23Z</time>
      </trkpt>
      <trkpt lat="38.847140008583665" lon="-0.313229961320758">
        <ele>256.86328125</ele>
        <time>2017-12-21T04:30:23Z</time>
      </trkpt>
      <trkpt lat="38.847340000793338" lon="-0.313500026240945">
        <ele>256.77734375</ele>
        <time>2017-12-21T04:32:23Z</time>
      </trkpt>
      <trkpt lat="38.847419964149594" lon="-0.313649978488684">
        <ele>256.296875</ele>
        <time>2017-12-21T04:34:23Z</time>
      </trkpt>
      <trkpt lat="38.847609981894493" lon="-0.313939992338419">
        <ele>256.98828125</ele>
        <time>2017-12-21T04:36:23Z</time>
      </trkpt>
      <trkpt lat="38.847739985212684" lon="-0.314139984548092">
        <ele>255.33203125</ele>
        <time>2017-12-21T04:38:23Z</time>
      </trkpt>
      <trkpt lat="38.847790025174618" lon="-0.314230006188154">
        <ele>254.7890625</ele>
        <time>2017-12-21T04:40:23Z</time>
      </trkpt>
      <trkpt lat="38.847830006852746" lon="-0.314309969544411">
        <ele>253.87890625</ele>
        <time>2017-12-21T04:42:23Z</time>
      </trkpt>
      <trkpt lat="38.8478600140661" lon="-0.314399991184473">
        <ele>253.23046875</ele>
        <time>2017-12-21T04:44:23Z</time>
      </trkpt>
      <trkpt lat="38.847890021279454" lon="-0.314460005611181">
        <ele>252.390625</ele>
        <time>2017-12-21T04:46:23Z</time>
      </trkpt>
      <trkpt lat="38.847909970209002" lon="-0.314520020037889">
        <ele>251.54296875</ele>
        <time>2017-12-21T04:48:23Z</time>
      </trkpt>
      <trkpt lat="38.847920028492808" lon="-0.314580034464598">
        <ele>251.37890625</ele>
        <time>2017-12-21T04:50:23Z</time>
      </trkpt>
      <trkpt lat="38.847939977422357" lon="-0.3146299906075">
        <ele>251.21484375</ele>
        <time>2017-12-21T04:52:23Z</time>
      </trkpt>
      <trkpt lat="38.847939977422357" lon="-0.314669972285628">
        <ele>251.1640625</ele>
        <time>2017-12-21T04:54:23Z</time>
      </trkpt>
      <trkpt lat="38.847950035706162" lon="-0.314739961177111">
        <ele>251.00390625</ele>
        <time>2017-12-21T04:56:23Z</time>
      </trkpt>
      <trkpt lat="38.847950035706162" lon="-0.314820008352399">
        <ele>251.00390625</ele>
        <time>2017-12-21T04:58:23Z</time>
      </trkpt>
      <trkpt lat="38.847960010170937" lon="-0.314889997243881">
        <ele>250.90625</ele>
        <time>2017-12-21T05:00:23Z</time>
      </trkpt>
      <trkpt lat="38.847950035706162" lon="-0.314999967813492">
        <ele>251.15625</ele>
        <time>2017-12-21T05:02:23Z</time>
      </trkpt>
      <trkpt lat="38.847939977422357" lon="-0.315189985558391">
        <ele>250.5859375</ele>
        <time>2017-12-21T05:04:23Z</time>
      </trkpt>
      <trkpt lat="38.847930002957582" lon="-0.315280007198453">
        <ele>250.3359375</ele>
        <time>2017-12-21T05:06:23Z</time>
      </trkpt>
      <trkpt lat="38.847890021279454" lon="-0.315600028261542">
        <ele>250.66015625</ele>
        <time>2017-12-21T05:08:23Z</time>
      </trkpt>
      <trkpt lat="38.847869988530874" lon="-0.315709998831153">
        <ele>250.7578125</ele>
        <time>2017-12-21T05:10:23Z</time>
      </trkpt>
      <trkpt lat="38.84783998131752" lon="-0.316019961610436">
        <ele>250.97265625</ele>
        <time>2017-12-21T05:12:23Z</time>
      </trkpt>
      <trkpt lat="38.847799999639392" lon="-0.316330008208752">
        <ele>252.2890625</ele>
        <time>2017-12-21T05:14:23Z</time>
      </trkpt>
      <trkpt lat="38.847799999639392" lon="-0.316399997100234">
        <ele>253.42578125</ele>
        <time>2017-12-21T05:16:23Z</time>
      </trkpt>
      <trkpt lat="38.847799999639392" lon="-0.316460011526942">
        <ele>254.015625</ele>
        <time>2017-12-21T05:18:23Z</time>
      </trkpt>
      <trkpt lat="38.847809974104166" lon="-0.316509967669845">
        <ele>254.56640625</ele>
        <time>2017-12-21T05:20:23Z</time>
      </trkpt>
      <trkpt lat="38.847809974104166" lon="-0.316560007631779">
        <ele>254.7265625</ele>
        <time>2017-12-21T05:22:23Z</time>
      </trkpt>
      <trkpt lat="38.847820032387972" lon="-0.316609963774681">
        <ele>254.5703125</ele>
        <time>2017-12-21T05:24:23Z</time>
      </trkpt>
      <trkpt lat="38.84783998131752" lon="-0.316669978201389">
        <ele>254.3046875</ele>
        <time>2017-12-21T05:26:23Z</time>
      </trkpt>
      <trkpt lat="38.8478600140661" lon="-0.316709959879518">
        <ele>254.17578125</ele>
        <time>2017-12-21T05:28:23Z</time>
      </trkpt>
      <trkpt lat="38.847879962995648" lon="-0.316759999841452">
        <ele>253.91796875</ele>
        <time>2017-12-21T05:30:23Z</time>
      </trkpt>
      <trkpt lat="38.847899995744228" lon="-0.31679998151958">
        <ele>253.78515625</ele>
        <time>2017-12-21T05:32:23Z</time>
      </trkpt>
      <trkpt lat="38.847930002957582" lon="-0.316839963197708">
        <ele>253.76953125</ele>
        <time>2017-12-21T05:34:23Z</time>
      </trkpt>
      <trkpt lat="38.847969984635711" lon="-0.316910035908222">
        <ele>253.71484375</ele>
        <time>2017-12-21T05:36:23Z</time>
      </trkpt>
      <trkpt lat="38.848009966313839" lon="-0.31695001758635">
        <ele>253.98046875</ele>
        <time>2017-12-21T05:38:23Z</time>
      </trkpt>
      <trkpt lat="38.848080039024353" lon="-0.317040039226413">
        <ele>254.3359375</ele>
        <time>2017-12-21T05:40:23Z</time>
      </trkpt>
      <trkpt lat="38.848169976845384" lon="-0.317129977047443">
        <ele>254.60546875</ele>
        <time>2017-12-21T05:42:23Z</time>
      </trkpt>
      <trkpt lat="38.848339961841702" lon="-0.317280013114214">
        <ele>253.72265625</ele>
        <time>2017-12-21T05:44:23Z</time>
      </trkpt>
      <trkpt lat="38.848420009016991" lon="-0.31735997647047">
        <ele>253.18359375</ele>
        <time>2017-12-21T05:46:23Z</time>
      </trkpt>
      <trkpt lat="38.848499972373247" lon="-0.317429965361953">
        <ele>253.03125</ele>
        <time>2017-12-21T05:48:23Z</time>
      </trkpt>
      <trkpt lat="38.848540037870407" lon="-0.317449998110533">
        <ele>253.12890625</ele>
        <time>2017-12-21T05:50:23Z</time>
      </trkpt>
      <trkpt lat="38.848599968478084" lon="-0.317489979788661">
        <ele>253.328125</ele>
        <time>2017-12-21T05:52:23Z</time>
      </trkpt>
      <trkpt lat="38.848670041188598" lon="-0.317529961466789">
        <ele>253.6015625</ele>
        <time>2017-12-21T05:54:23Z</time>
      </trkpt>
      <trkpt lat="38.848789986222982" lon="-0.317580001428723">
        <ele>253.328125</ele>
        <time>2017-12-21T05:56:23Z</time>
      </trkpt>
      <trkpt lat="38.848819993436337" lon="-0.317589975893497">
        <ele>253.2109375</ele>
        <time>2017-12-21T05:58:23Z</time>
      </trkpt>
      <trkpt lat="38.848870033398271" lon="-0.317619983106852">
        <ele>252.91796875</ele>
        <time>2017-12-21T06:00:23Z</time>
      </trkpt>
      <trkpt lat="38.848910015076399" lon="-0.317640015855432">
        <ele>252.87109375</ele>
        <time>2017-12-21T06:02:23Z</time>
      </trkpt>
      <trkpt lat="38.848940022289753" lon="-0.317670023068786">
        <ele>252.8984375</ele>
        <time>2017-12-21T06:04:23Z</time>
      </trkpt>
      <trkpt lat="38.848980003967881" lon="-0.31770003028214">
        <ele>253.015625</ele>
        <time>2017-12-21T06:06:23Z</time>
      </trkpt>
      <trkpt lat="38.849070025607944" lon="-0.31778996810317">
        <ele>253.078125</ele>
        <time>2017-12-21T06:08:23Z</time>
      </trkpt>
      <trkpt lat="38.849159963428974" lon="-0.317889964208007">
        <ele>252.03125</ele>
        <time>2017-12-21T06:10:23Z</time>
      </trkpt>
      <trkpt lat="38.849240010604262" lon="-0.317960036918521">
        <ele>251.37890625</ele>
        <time>2017-12-21T06:12:23Z</time>
      </trkpt>
      <trkpt lat="38.849270017817616" lon="-0.318009993061423">
        <ele>251.34375</ele>
        <time>2017-12-21T06:14:23Z</time>
      </trkpt>
      <trkpt lat="38.849300025030971" lon="-0.318040000274777">
        <ele>251.53125</ele>
        <time>2017-12-21T06:16:23Z</time>
      </trkpt>
      <trkpt lat="38.849330032244325" lon="-0.318090040236712">
        <ele>251.48046875</ele>
        <time>2017-12-21T06:18:23Z</time>
      </trkpt>
      <trkpt lat="38.849340006709099" lon="-0.31810998916626">
        <ele>251.4609375</ele>
        <time>2017-12-21T06:20:23Z</time>
      </trkpt>
      <trkpt lat="38.849360039457679" lon="-0.318160029128194">
        <ele>251.109375</ele>
        <time>2017-12-21T06:22:23Z</time>
      </trkpt>
      <trkpt lat="38.849360039457679" lon="-0.318179978057742">
        <ele>250.71484375</ele>
        <time>2017-12-21T06:24:23Z</time>
      </trkpt>
      <trkpt lat="38.849370013922453" lon="-0.31821995973587">
        <ele>250.01953125</ele>
        <time>2017-12-21T06:26:23Z</time>
      </trkpt>
      <trkpt lat="38.849360039457679" lon="-0.318279974162579">
        <ele>249.05078125</ele>
        <time>2017-12-21T06:28:23Z</time>
      </trkpt>
      <trkpt lat="38.849340006709099" lon="-0.318339988589287">
        <ele>247.9375</ele>
        <time>2017-12-21T06:30:23Z</time>
      </trkpt>
      <trkpt lat="38.849319973960519" lon="-0.318439984694123">
        <ele>245.7265625</ele>
        <time>2017-12-21T06:32:23Z</time>
      </trkpt>
      <trkpt lat="38.849249985069036" lon="-0.318639976903796">
        <ele>241.9140625</ele>
        <time>2017-12-21T06:34:23Z</time>
      </trkpt>
      <trkpt lat="38.848940022289753" lon="-0.319640021771193">
        <ele>248.68359375</ele>
        <time>2017-12-21T06:36:23Z</time>
      </trkpt>
      <trkpt lat="38.848859975114465" lon="-0.319819981232285">
        <ele>249.3359375</ele>
        <time>2017-12-21T06:38:23Z</time>
      </trkpt>
      <trkpt lat="38.84869996458292" lon="-0.320140002295375">
        <ele>249.9296875</ele>
        <time>2017-12-21T06:40:23Z</time>
      </trkpt>
      <trkpt lat="38.848469965159893" lon="-0.320539986714721">
        <ele>249.9296875</ele>
        <time>2017-12-21T06:42:23Z</time>
      </trkpt>
      <trkpt lat="38.848229991272092" lon="-0.320920022204518">
        <ele>249.1640625</ele>
        <time>2017-12-21T06:44:23Z</time>
      </trkpt>
      <trkpt lat="38.848060006275773" lon="-0.321169970557094">
        <ele>249.87890625</ele>
        <time>2017-12-21T06:46:23Z</time>
      </trkpt>
      <trkpt lat="38.847999991849065" lon="-0.321259992197156">
        <ele>249.9296875</ele>
        <time>2017-12-21T06:48:23Z</time>
      </trkpt>
      <trkpt lat="38.847950035706162" lon="-0.321320006623864">
        <ele>249.60546875</ele>
        <time>2017-12-21T06:50:23Z</time>
      </trkpt>
      <trkpt lat="38.847899995744228" lon="-0.321380021050572">
        <ele>249.015625</ele>
        <time>2017-12-21T06:52:23Z</time>
      </trkpt>
      <trkpt lat="38.8478600140661" lon="-0.321429977193475">
        <ele>249.015625</ele>
        <time>2017-12-21T06:54:23Z</time>
      </trkpt>
      <trkpt lat="38.847830006852746" lon="-0.321450009942055">
        <ele>249.015625</ele>
        <time>2017-12-21T06:56:23Z</time>
      </trkpt>
      <trkpt lat="38.847769992426038" lon="-0.321510024368763">
        <ele>248.875</ele>
        <time>2017-12-21T06:58:23Z</time>
      </trkpt>
      <trkpt lat="38.847700003534555" lon="-0.321559980511665">
        <ele>248.953125</ele>
        <time>2017-12-21T07:00:23Z</time>
      </trkpt>
      <trkpt lat="38.847600007429719" lon="-0.321629969403148">
        <ele>248.421875</ele>
        <time>2017-12-21T07:02:23Z</time>
      </trkpt>
      <trkpt lat="38.847439996898174" lon="-0.321749998256564">
        <ele>247.49609375</ele>
        <time>2017-12-21T07:04:23Z</time>
      </trkpt>
      <trkpt lat="38.846840020269156" lon="-0.322179989889264">
        <ele>248.1015625</ele>
        <time>2017-12-21T07:06:23Z</time>
      </trkpt>
      <trkpt lat="38.846410028636456" lon="-0.322500010952353">
        <ele>246.48828125</ele>
        <time>2017-12-21T07:08:23Z</time>
      </trkpt>
      <trkpt lat="38.845939971506596" lon="-0.322890020906925">
        <ele>245.53515625</ele>
        <time>2017-12-21T07:10:23Z</time>
      </trkpt>
      <trkpt lat="38.84566999040544" lon="-0.323120020329952">
        <ele>245.20703125</ele>
        <time>2017-12-21T07:12:23Z</time>
      </trkpt>
      <trkpt lat="38.845400009304285" lon="-0.323320012539625">
        <ele>245.96875</ele>
        <time>2017-12-21T07:14:23Z</time>
      </trkpt>
      <trkpt lat="38.844759967178106" lon="-0.323829967528582">
        <ele>248.10546875</ele>
        <time>2017-12-21T07:16:23Z</time>
      </trkpt>
      <trkpt lat="38.844370041042566" lon="-0.324089974164963">
        <ele>250.0703125</ele>
        <time>2017-12-21T07:18:23Z</time>
      </trkpt>
      <trkpt lat="38.844310026615858" lon="-0.324119981378317">
        <ele>250.421875</ele>
        <time>2017-12-21T07:20:23Z</time>
      </trkpt>
      <trkpt lat="38.844269961118698" lon="-0.324130039662123">
        <ele>250.46484375</ele>
        <time>2017-12-21T07:22:23Z</time>
      </trkpt>
      <trkpt lat="38.84422997944057" lon="-0.324140014126897">
        <ele>250.47265625</ele>
        <time>2017-12-21T07:24:23Z</time>
      </trkpt>
      <trkpt lat="38.844180023297668" lon="-0.324140014126897">
        <ele>250.33203125</ele>
        <time>2017-12-21T07:26:23Z</time>
      </trkpt>
      <trkpt lat="38.844140041619539" lon="-0.324140014126897">
        <ele>250.22265625</ele>
        <time>2017-12-21T07:28:23Z</time>
      </trkpt>
      <trkpt lat="38.844059994444251" lon="-0.324130039662123">
        <ele>250.3203125</ele>
        <time>2017-12-21T07:30:23Z</time>
      </trkpt>
      <trkpt lat="38.844010038301349" lon="-0.324130039662123">
        <ele>250.52734375</ele>
        <time>2017-12-21T07:32:23Z</time>
      </trkpt>
      <trkpt lat="38.843599995598197" lon="-0.324079999700189">
        <ele>249.69140625</ele>
        <time>2017-12-21T07:34:23Z</time>
      </trkpt>
      <trkpt lat="38.842819975689054" lon="-0.323970029130578">
        <ele>249.6328125</ele>
        <time>2017-12-21T07:36:23Z</time>
      </trkpt>
      <trkpt lat="38.842429965734482" lon="-0.323919989168644">
        <ele>250.69140625</ele>
        <time>2017-12-21T07:38:23Z</time>
      </trkpt>
      <trkpt lat="38.842250006273389" lon="-0.323880007490516">
        <ele>251.28125</ele>
        <time>2017-12-21T07:40:23Z</time>
      </trkpt>
      <trkpt lat="38.842189991846681" lon="-0.323859974741936">
        <ele>251.71484375</ele>
        <time>2017-12-21T07:42:23Z</time>
      </trkpt>
      <trkpt lat="38.842140035703778" lon="-0.323850000277162">
        <ele>252.3359375</ele>
        <time>2017-12-21T07:44:23Z</time>
      </trkpt>
      <trkpt lat="38.842089995741844" lon="-0.323829967528582">
        <ele>253.02734375</ele>
        <time>2017-12-21T07:46:23Z</time>
      </trkpt>
      <trkpt lat="38.842040039598942" lon="-0.323810018599033">
        <ele>253.5859375</ele>
        <time>2017-12-21T07:48:23Z</time>
      </trkpt>
      <trkpt lat="38.841869970783591" lon="-0.323710022494197">
        <ele>254.76953125</ele>
        <time>2017-12-21T07:50:23Z</time>
      </trkpt>
      <trkpt lat="38.841120041906834" lon="-0.323239965364337">
        <ele>257.23828125</ele>
        <time>2017-12-21T07:52:23Z</time>
      </trkpt>
      <trkpt lat="38.84104996919632" lon="-0.323209958150983">
        <ele>258.0546875</ele>
        <time>2017-12-21T07:54:23Z</time>
      </trkpt>
      <trkpt lat="38.841009987518191" lon="-0.32318003475666">
        <ele>258.2109375</ele>
        <time>2017-12-21T07:56:23Z</time>
      </trkpt>
      <trkpt lat="38.840840002521873" lon="-0.323109962046146">
        <ele>259.0859375</ele>
        <time>2017-12-21T07:58:23Z</time>
      </trkpt>
      <trkpt lat="38.840659959241748" lon="-0.32305003143847">
        <ele>260.13671875</ele>
        <time>2017-12-21T08:00:23Z</time>
      </trkpt>
      <trkpt lat="38.840549988672137" lon="-0.323020024225116">
        <ele>260.53125</ele>
        <time>2017-12-21T08:02:23Z</time>
      </trkpt>
      <trkpt lat="38.840489974245429" lon="-0.322999991476536">
        <ele>260.84765625</ele>
        <time>2017-12-21T08:04:23Z</time>
      </trkpt>
      <trkpt lat="38.840440018102527" lon="-0.322999991476536">
        <ele>261.1796875</ele>
        <time>2017-12-21T08:06:23Z</time>
      </trkpt>
      <trkpt lat="38.840359970927238" lon="-0.32300996594131">
        <ele>261.5390625</ele>
        <time>2017-12-21T08:08:23Z</time>
      </trkpt>
      <trkpt lat="38.84031998924911" lon="-0.32300996594131">
        <ele>261.58984375</ele>
        <time>2017-12-21T08:10:23Z</time>
      </trkpt>
      <trkpt lat="38.840280007570982" lon="-0.323020024225116">
        <ele>261.78125</ele>
        <time>2017-12-21T08:12:23Z</time>
      </trkpt>
      <trkpt lat="38.840240025892854" lon="-0.323039973154664">
        <ele>262.046875</ele>
        <time>2017-12-21T08:14:23Z</time>
      </trkpt>
      <trkpt lat="38.840180011466146" lon="-0.323069980368018">
        <ele>262.25</ele>
        <time>2017-12-21T08:16:23Z</time>
      </trkpt>
      <trkpt lat="38.840129971504211" lon="-0.323109962046146">
        <ele>262.5546875</ele>
        <time>2017-12-21T08:18:23Z</time>
      </trkpt>
      <trkpt lat="38.840070040896535" lon="-0.323169976472855">
        <ele>262.71484375</ele>
        <time>2017-12-21T08:20:23Z</time>
      </trkpt>
      <trkpt lat="38.839969960972667" lon="-0.323269972577691">
        <ele>263.18359375</ele>
        <time>2017-12-21T08:22:23Z</time>
      </trkpt>
      <trkpt lat="38.839699979871511" lon="-0.323559986427426">
        <ele>264.453125</ele>
        <time>2017-12-21T08:24:23Z</time>
      </trkpt>
      <trkpt lat="38.839499987661839" lon="-0.323770036920905">
        <ele>265.09375</ele>
        <time>2017-12-21T08:26:23Z</time>
      </trkpt>
      <trkpt lat="38.839429998770356" lon="-0.323859974741936">
        <ele>265.671875</ele>
        <time>2017-12-21T08:28:23Z</time>
      </trkpt>
      <trkpt lat="38.839399991557002" lon="-0.323900040239096">
        <ele>265.57421875</ele>
        <time>2017-12-21T08:30:23Z</time>
      </trkpt>
      <trkpt lat="38.839369984343648" lon="-0.323949996381998">
        <ele>265.33984375</ele>
        <time>2017-12-21T08:32:23Z</time>
      </trkpt>
      <trkpt lat="38.8393500354141" lon="-0.323980003595352">
        <ele>265.20703125</ele>
        <time>2017-12-21T08:34:23Z</time>
      </trkpt>
      <trkpt lat="38.83933000266552" lon="-0.32401998527348">
        <ele>265.07421875</ele>
        <time>2017-12-21T08:36:23Z</time>
      </trkpt>
      <trkpt lat="38.839320028200746" lon="-0.324059966951609">
        <ele>265.0078125</ele>
        <time>2017-12-21T08:38:23Z</time>
      </trkpt>
      <trkpt lat="38.83930996991694" lon="-0.324089974164963">
        <ele>265.140625</ele>
        <time>2017-12-21T08:40:23Z</time>
      </trkpt>
      <trkpt lat="38.839299995452166" lon="-0.324130039662123">
        <ele>265.33203125</ele>
        <time>2017-12-21T08:42:23Z</time>
      </trkpt>
      <trkpt lat="38.839290020987391" lon="-0.324179995805025">
        <ele>265.3359375</ele>
        <time>2017-12-21T08:44:23Z</time>
      </trkpt>
      <trkpt lat="38.839290020987391" lon="-0.324210003018379">
        <ele>265.3359375</ele>
        <time>2017-12-21T08:46:23Z</time>
      </trkpt>
      <trkpt lat="38.839290020987391" lon="-0.324259959161282">
        <ele>265.4140625</ele>
        <time>2017-12-21T08:48:23Z</time>
      </trkpt>
      <trkpt lat="38.839290020987391" lon="-0.32434000633657">
        <ele>265.88671875</ele>
        <time>2017-12-21T08:50:23Z</time>
      </trkpt>
      <trkpt lat="38.83933000266552" lon="-0.32487996853888">
        <ele>264.17578125</ele>
        <time>2017-12-21T08:52:23Z</time>
      </trkpt>
      <trkpt lat="38.839390017092228" lon="-0.325859980657697">
        <ele>263.05859375</ele>
        <time>2017-12-21T08:54:23Z</time>
      </trkpt>
      <trkpt lat="38.839390017092228" lon="-0.325929969549179">
        <ele>262.71875</ele>
        <time>2017-12-21T08:56:23Z</time>
      </trkpt>
      <trkpt lat="38.83946000598371" lon="-0.326839992776513">
        <ele>264.70703125</ele>
        <time>2017-12-21T08:58:23Z</time>
      </trkpt>
      <trkpt lat="38.83948003873229" lon="-0.327150039374828">
        <ele>264.6953125</ele>
        <time>2017-12-21T09:00:23Z</time>
      </trkpt>
      <trkpt lat="38.839490013197064" lon="-0.327199995517731">
        <ele>264.6484375</ele>
        <time>2017-12-21T09:02:23Z</time>
      </trkpt>
      <trkpt lat="38.839499987661839" lon="-0.32736998051405">
        <ele>264.5546875</ele>
        <time>2017-12-21T09:04:23Z</time>
      </trkpt>
      <trkpt lat="38.839520020410419" lon="-0.32749998383224">
        <ele>265.015625</ele>
        <time>2017-12-21T09:06:23Z</time>
      </trkpt>
      <trkpt lat="38.839539969339967" lon="-0.327610038220882">
        <ele>265.4921875</ele>
        <time>2017-12-21T09:08:23Z</time>
      </trkpt>
      <trkpt lat="38.839560002088547" lon="-0.327690001577139">
        <ele>265.47265625</ele>
        <time>2017-12-21T09:10:23Z</time>
      </trkpt>
      <trkpt lat="38.839580034837127" lon="-0.327759990468621">
        <ele>265.640625</ele>
        <time>2017-12-21T09:12:23Z</time>
      </trkpt>
      <trkpt lat="38.839609958231449" lon="-0.327850012108684">
        <ele>265.94921875</ele>
        <time>2017-12-21T09:14:23Z</time>
      </trkpt>
      <trkpt lat="38.839639965444803" lon="-0.32792997546494">
        <ele>265.86328125</ele>
        <time>2017-12-21T09:16:23Z</time>
      </trkpt>
      <trkpt lat="38.839669972658157" lon="-0.327989989891648">
        <ele>265.90234375</ele>
        <time>2017-12-21T09:18:23Z</time>
      </trkpt>
      <trkpt lat="38.839710038155317" lon="-0.328050004318357">
        <ele>265.65625</ele>
        <time>2017-12-21T09:20:23Z</time>
      </trkpt>
      <trkpt lat="38.839750019833446" lon="-0.328129967674613">
        <ele>265.01953125</ele>
        <time>2017-12-21T09:22:23Z</time>
      </trkpt>
      <trkpt lat="38.839799975976348" lon="-0.328210014849901">
        <ele>264.546875</ele>
        <time>2017-12-21T09:24:23Z</time>
      </trkpt>
      <trkpt lat="38.839850015938282" lon="-0.328289978206158">
        <ele>263.57421875</ele>
        <time>2017-12-21T09:26:23Z</time>
      </trkpt>
      <trkpt lat="38.83988999761641" lon="-0.328340018168092">
        <ele>263.04296875</ele>
        <time>2017-12-21T09:28:23Z</time>
      </trkpt>
      <trkpt lat="38.839980019256473" lon="-0.328449988737702">
        <ele>262.94921875</ele>
        <time>2017-12-21T09:30:23Z</time>
      </trkpt>
      <trkpt lat="38.839999968186021" lon="-0.328470021486282">
        <ele>263.2109375</ele>
        <time>2017-12-21T09:32:23Z</time>
      </trkpt>
      <trkpt lat="38.840089989826083" lon="-0.328570017591119">
        <ele>262.9609375</ele>
        <time>2017-12-21T09:34:23Z</time>
      </trkpt>
      <trkpt lat="38.840359970927238" lon="-0.328860031440854">
        <ele>262.97265625</ele>
        <time>2017-12-21T09:36:23Z</time>
      </trkpt>
      <trkpt lat="38.840559963136911" lon="-0.329090030863881">
        <ele>262.75390625</ele>
        <time>2017-12-21T09:38:23Z</time>
      </trkpt>
      <trkpt lat="38.840700024738908" lon="-0.329250041395426">
        <ele>261.66015625</ele>
        <time>2017-12-21T09:40:23Z</time>
      </trkpt>
      <trkpt lat="38.84077001363039" lon="-0.329330004751682">
        <ele>262.265625</ele>
        <time>2017-12-21T09:42:23Z</time>
      </trkpt>
      <trkpt lat="38.840819969773293" lon="-0.329399993643165">
        <ele>262.828125</ele>
        <time>2017-12-21T09:44:23Z</time>
      </trkpt>
      <trkpt lat="38.840849976986647" lon="-0.329460008069873">
        <ele>262.55859375</ele>
        <time>2017-12-21T09:46:23Z</time>
      </trkpt>
      <trkpt lat="38.840900016948581" lon="-0.329529996961355">
        <ele>262.453125</ele>
        <time>2017-12-21T09:48:23Z</time>
      </trkpt>
      <trkpt lat="38.840930024161935" lon="-0.329599985852838">
        <ele>262.32421875</ele>
        <time>2017-12-21T09:50:23Z</time>
      </trkpt>
      <trkpt lat="38.840990038588643" lon="-0.329729989171028">
        <ele>262.87109375</ele>
        <time>2017-12-21T09:52:23Z</time>
      </trkpt>
      <trkpt lat="38.841030020266771" lon="-0.329829985275865">
        <ele>263.03125</ele>
        <time>2017-12-21T09:54:23Z</time>
      </trkpt>
      <trkpt lat="38.84109003469348" lon="-0.330010028555989">
        <ele>262.96484375</ele>
        <time>2017-12-21T09:56:23Z</time>
      </trkpt>
      <trkpt lat="38.841100009158254" lon="-0.330040035769343">
        <ele>262.88671875</ele>
        <time>2017-12-21T09:58:23Z</time>
      </trkpt>
      <trkpt lat="38.841120041906834" lon="-0.330110024660826">
        <ele>262.67578125</ele>
        <time>2017-12-21T10:00:23Z</time>
      </trkpt>
      <trkpt lat="38.841149965301156" lon="-0.33022996969521">
        <ele>262.1484375</ele>
        <time>2017-12-21T10:02:23Z</time>
      </trkpt>
      <trkpt lat="38.841169998049736" lon="-0.330319991335273">
        <ele>261.72265625</ele>
        <time>2017-12-21T10:04:23Z</time>
      </trkpt>
      <trkpt lat="38.84117997251451" lon="-0.330370031297207">
        <ele>261.421875</ele>
        <time>2017-12-21T10:06:23Z</time>
      </trkpt>
      <trkpt lat="38.84117997251451" lon="-0.330389980226755">
        <ele>261.1796875</ele>
        <time>2017-12-21T10:08:23Z</time>
      </trkpt>
      <trkpt lat="38.841190030798316" lon="-0.330459969118237">
        <ele>260.6171875</ele>
        <time>2017-12-21T10:10:23Z</time>
      </trkpt>
      <trkpt lat="38.841190030798316" lon="-0.330510009080172">
        <ele>260.453125</ele>
        <time>2017-12-21T10:12:23Z</time>
      </trkpt>
      <trkpt lat="38.841190030798316" lon="-0.330559965223074">
        <ele>260.35546875</ele>
        <time>2017-12-21T10:14:23Z</time>
      </trkpt>
      <trkpt lat="38.841190030798316" lon="-0.33067999407649">
        <ele>260.65625</ele>
        <time>2017-12-21T10:16:23Z</time>
      </trkpt>
      <trkpt lat="38.841190030798316" lon="-0.330740008503199">
        <ele>260.85546875</ele>
        <time>2017-12-21T10:18:23Z</time>
      </trkpt>
      <trkpt lat="38.841190030798316" lon="-0.330789964646101">
        <ele>260.6171875</ele>
        <time>2017-12-21T10:20:23Z</time>
      </trkpt>
      <trkpt lat="38.84117997251451" lon="-0.330830030143261">
        <ele>260.17578125</ele>
        <time>2017-12-21T10:22:23Z</time>
      </trkpt>
      <trkpt lat="38.84117997251451" lon="-0.330889960750937">
        <ele>259.6484375</ele>
        <time>2017-12-21T10:24:23Z</time>
      </trkpt>
      <trkpt lat="38.841149965301156" lon="-0.33100001513958">
        <ele>258.4921875</ele>
        <time>2017-12-21T10:26:23Z</time>
      </trkpt>
      <trkpt lat="38.841139990836382" lon="-0.331060029566288">
        <ele>258.9453125</ele>
        <time>2017-12-21T10:28:23Z</time>
      </trkpt>
      <trkpt lat="38.84109003469348" lon="-0.331200007349253">
        <ele>259.93359375</ele>
        <time>2017-12-21T10:30:23Z</time>
      </trkpt>
      <trkpt lat="38.841039994731545" lon="-0.331330010667443">
        <ele>261.03515625</ele>
        <time>2017-12-21T10:32:23Z</time>
      </trkpt>
      <trkpt lat="38.840979980304837" lon="-0.331499995663762">
        <ele>261.94921875</ele>
        <time>2017-12-21T10:34:23Z</time>
      </trkpt>
      <trkpt lat="38.840930024161935" lon="-0.331629998981953">
        <ele>260.96484375</ele>
        <time>2017-12-21T10:36:23Z</time>
      </trkpt>
      <trkpt lat="38.840909991413355" lon="-0.331709962338209">
        <ele>260.93359375</ele>
        <time>2017-12-21T10:38:23Z</time>
      </trkpt>
      <trkpt lat="38.840900016948581" lon="-0.331769976764917">
        <ele>261.1875</ele>
        <time>2017-12-21T10:40:23Z</time>
      </trkpt>
      <trkpt lat="38.840889958664775" lon="-0.331820016726851">
        <ele>261.453125</ele>
        <time>2017-12-21T10:42:23Z</time>
      </trkpt>
      <trkpt lat="38.840860035270452" lon="-0.33199000172317">
        <ele>264.22265625</ele>
        <time>2017-12-21T10:44:23Z</time>
      </trkpt>
      <trkpt lat="38.840830028057098" lon="-0.332189993932843">
        <ele>266.37890625</ele>
        <time>2017-12-21T10:46:23Z</time>
      </trkpt>
      <trkpt lat="38.840779988095164" lon="-0.332580003887415">
        <ele>266.43359375</ele>
        <time>2017-12-21T10:48:23Z</time>
      </trkpt>
      <trkpt lat="38.840779988095164" lon="-0.332629960030317">
        <ele>266.765625</ele>
        <time>2017-12-21T10:50:23Z</time>
      </trkpt>
      <trkpt lat="38.84077001363039" lon="-0.33271998167038">
        <ele>267.2265625</ele>
        <time>2017-12-21T10:52:23Z</time>
      </trkpt>
      <trkpt lat="38.84074998088181" lon="-0.332779996097088">
        <ele>267.37890625</ele>
        <time>2017-12-21T10:54:23Z</time>
      </trkpt>
      <trkpt lat="38.840740006417036" lon="-0.332840010523796">
        <ele>267.73046875</ele>
        <time>2017-12-21T10:56:23Z</time>
      </trkpt>
      <trkpt lat="38.840709999203682" lon="-0.332919973880053">
        <ele>268.3125</ele>
        <time>2017-12-21T10:58:23Z</time>
      </trkpt>
      <trkpt lat="38.840679991990328" lon="-0.333000021055341">
        <ele>269.234375</ele>
        <time>2017-12-21T11:00:23Z</time>
      </trkpt>
      <trkpt lat="38.840649984776974" lon="-0.333079984411597">
        <ele>270.2421875</ele>
        <time>2017-12-21T11:02:23Z</time>
      </trkpt>
      <trkpt lat="38.840630035847425" lon="-0.333109991624951">
        <ele>270.4375</ele>
        <time>2017-12-21T11:04:23Z</time>
      </trkpt>
      <trkpt lat="38.840589970350266" lon="-0.333179980516434">
        <ele>270.8046875</ele>
        <time>2017-12-21T11:06:23Z</time>
      </trkpt>
      <trkpt lat="38.840549988672137" lon="-0.333230020478368">
        <ele>271.09375</ele>
        <time>2017-12-21T11:08:23Z</time>
      </trkpt>
      <trkpt lat="38.840500032529235" lon="-0.333290034905076">
        <ele>271.7421875</ele>
        <time>2017-12-21T11:10:23Z</time>
      </trkpt>
      <trkpt lat="38.840429959818721" lon="-0.333360023796558">
        <ele>271.82421875</ele>
        <time>2017-12-21T11:12:23Z</time>
      </trkpt>
      <trkpt lat="38.840389978140593" lon="-0.333400005474687">
        <ele>271.75390625</ele>
        <time>2017-12-21T11:14:23Z</time>
      </trkpt>
      <trkpt lat="38.84031998924911" lon="-0.333469994366169">
        <ele>272.13671875</ele>
        <time>2017-12-21T11:16:23Z</time>
      </trkpt>
      <trkpt lat="38.840259974822402" lon="-0.333530008792877">
        <ele>272.1328125</ele>
        <time>2017-12-21T11:18:23Z</time>
      </trkpt>
      <trkpt lat="38.840170037001371" lon="-0.333639979362488">
        <ele>272.16796875</ele>
        <time>2017-12-21T11:20:23Z</time>
      </trkpt>
      <trkpt lat="38.840099964290857" lon="-0.333720026537776">
        <ele>271.7109375</ele>
        <time>2017-12-21T11:22:23Z</time>
      </trkpt>
      <trkpt lat="38.840059982612729" lon="-0.333780040964484">
        <ele>271.71875</ele>
        <time>2017-12-21T11:24:23Z</time>
      </trkpt>
      <trkpt lat="38.840010026469827" lon="-0.333850029855967">
        <ele>271.99609375</ele>
        <time>2017-12-21T11:26:23Z</time>
      </trkpt>
      <trkpt lat="38.839969960972667" lon="-0.333929993212223">
        <ele>272.6328125</ele>
        <time>2017-12-21T11:28:23Z</time>
      </trkpt>
      <trkpt lat="38.839880023151636" lon="-0.334080029278994">
        <ele>272.72265625</ele>
        <time>2017-12-21T11:30:23Z</time>
      </trkpt>
      <trkpt lat="38.839850015938282" lon="-0.334150018170476">
        <ele>272.6796875</ele>
        <time>2017-12-21T11:32:23Z</time>
      </trkpt>
      <trkpt lat="38.839710038155317" lon="-0.334519995376468">
        <ele>271.3671875</ele>
        <time>2017-12-21T11:34:23Z</time>
      </trkpt>
      <trkpt lat="38.839550027623773" lon="-0.334910005331039">
        <ele>271.38671875</ele>
        <time>2017-12-21T11:36:23Z</time>
      </trkpt>
      <trkpt lat="38.839469980448484" lon="-0.335130030289292">
        <ele>271.28515625</ele>
        <time>2017-12-21T11:38:23Z</time>
      </trkpt>
      <trkpt lat="38.839399991557002" lon="-0.335290040820837">
        <ele>270.51953125</ele>
        <time>2017-12-21T11:40:23Z</time>
      </trkpt>
      <trkpt lat="38.8393500354141" lon="-0.335419960319996">
        <ele>270.66796875</ele>
        <time>2017-12-21T11:42:23Z</time>
      </trkpt>
      <trkpt lat="38.839260013774037" lon="-0.335600003600121">
        <ele>270.3828125</ele>
        <time>2017-12-21T11:44:23Z</time>
      </trkpt>
      <trkpt lat="38.839220032095909" lon="-0.335669992491603">
        <ele>270.2734375</ele>
        <time>2017-12-21T11:46:23Z</time>
      </trkpt>
      <trkpt lat="38.839190024882555" lon="-0.335730006918311">
        <ele>270.42578125</ele>
        <time>2017-12-21T11:48:23Z</time>
      </trkpt>
      <trkpt lat="38.839090028777719" lon="-0.335869984701276">
        <ele>271.1171875</ele>
        <time>2017-12-21T11:50:23Z</time>
      </trkpt>
      <trkpt lat="38.838960025459528" lon="-0.336039969697595">
        <ele>271.3359375</ele>
        <time>2017-12-21T11:52:23Z</time>
      </trkpt>
      <trkpt lat="38.83890001103282" lon="-0.336099984124303">
        <ele>270.63671875</ele>
        <time>2017-12-21T11:54:23Z</time>
      </trkpt>
      <trkpt lat="38.838890036568046" lon="-0.336109958589077">
        <ele>270.62109375</ele>
        <time>2017-12-21T11:56:23Z</time>
      </trkpt>
      <trkpt lat="38.838860029354692" lon="-0.336159998551011">
        <ele>270.69140625</ele>
        <time>2017-12-21T11:58:23Z</time>
      </trkpt>
      <trkpt lat="38.838830022141337" lon="-0.336199980229139">
        <ele>270.5234375</ele>
        <time>2017-12-21T12:00:23Z</time>
      </trkpt>
      <trkpt lat="38.838809989392757" lon="-0.336250020191073">
        <ele>270.87890625</ele>
        <time>2017-12-21T12:02:23Z</time>
      </trkpt>
      <trkpt lat="38.838779982179403" lon="-0.336310034617782">
        <ele>270.87109375</ele>
        <time>2017-12-21T12:04:23Z</time>
      </trkpt>
      <trkpt lat="38.838689960539341" lon="-0.336520001292229">
        <ele>270.50390625</ele>
        <time>2017-12-21T12:06:23Z</time>
      </trkpt>
      <trkpt lat="38.838640004396439" lon="-0.336640030145645">
        <ele>271.08984375</ele>
        <time>2017-12-21T12:08:23Z</time>
      </trkpt>
      <trkpt lat="38.838589964434505" lon="-0.336729967966676">
        <ele>270.84375</ele>
        <time>2017-12-21T12:10:23Z</time>
      </trkpt>
      <trkpt lat="38.838560041040182" lon="-0.33678000792861">
        <ele>270.7734375</ele>
        <time>2017-12-21T12:12:23Z</time>
      </trkpt>
      <trkpt lat="38.838510001078248" lon="-0.336840022355318">
        <ele>270.4375</ele>
        <time>2017-12-21T12:14:23Z</time>
      </trkpt>
      <trkpt lat="38.838459961116314" lon="-0.33688997849822">
        <ele>270.2109375</ele>
        <time>2017-12-21T12:16:23Z</time>
      </trkpt>
      <trkpt lat="38.838430037721992" lon="-0.336929960176349">
        <ele>270.73828125</ele>
        <time>2017-12-21T12:18:23Z</time>
      </trkpt>
      <trkpt lat="38.838389972224832" lon="-0.336959967389703">
        <ele>271.03515625</ele>
        <time>2017-12-21T12:20:23Z</time>
      </trkpt>
      <trkpt lat="38.838340016081929" lon="-0.337000032886863">
        <ele>271.2265625</ele>
        <time>2017-12-21T12:22:23Z</time>
      </trkpt>
      <trkpt lat="38.838280001655221" lon="-0.337049989029765">
        <ele>271.40625</ele>
        <time>2017-12-21T12:24:23Z</time>
      </trkpt>
      <trkpt lat="38.837859984487295" lon="-0.33731997013092">
        <ele>270.59765625</ele>
        <time>2017-12-21T12:26:23Z</time>
      </trkpt>
      <trkpt lat="38.837620010599494" lon="-0.337470006197691">
        <ele>270.5390625</ele>
        <time>2017-12-21T12:28:23Z</time>
      </trkpt>
      <trkpt lat="38.837520014494658" lon="-0.337530020624399">
        <ele>271.6796875</ele>
        <time>2017-12-21T12:30:23Z</time>
      </trkpt>
      <trkpt lat="38.837469974532723" lon="-0.337560027837753">
        <ele>272.66796875</ele>
        <time>2017-12-21T12:32:23Z</time>
      </trkpt>
      <trkpt lat="38.837439967319369" lon="-0.337579976767302">
        <ele>273.23046875</ele>
        <time>2017-12-21T12:34:23Z</time>
      </trkpt>
      <trkpt lat="38.837399985641241" lon="-0.337590035051107">
        <ele>273.421875</ele>
        <time>2017-12-21T12:36:23Z</time>
      </trkpt>
      <trkpt lat="38.837369978427887" lon="-0.337590035051107">
        <ele>273.44140625</ele>
        <time>2017-12-21T12:38:23Z</time>
      </trkpt>
      <trkpt lat="38.837280040606856" lon="-0.337600009515882">
        <ele>273.625</ele>
        <time>2017-12-21T12:40:23Z</time>
      </trkpt>
      <trkpt lat="38.837209967896342" lon="-0.337600009515882">
        <ele>273.32421875</ele>
        <time>2017-12-21T12:42:23Z</time>
      </trkpt>
      <trkpt lat="38.837169986218214" lon="-0.337600009515882">
        <ele>273.09765625</ele>
        <time>2017-12-21T12:44:23Z</time>
      </trkpt>
      <trkpt lat="38.837090022861958" lon="-0.337600009515882">
        <ele>272.65234375</ele>
        <time>2017-12-21T12:46:23Z</time>
      </trkpt>
      <trkpt lat="38.836949961259961" lon="-0.337590035051107">
        <ele>271.34375</ele>
        <time>2017-12-21T12:48:23Z</time>
      </trkpt>
      <trkpt lat="38.836800009012222" lon="-0.337590035051107">
        <ele>270.8828125</ele>
        <time>2017-12-21T12:50:23Z</time>
      </trkpt>
      <trkpt lat="38.836690038442612" lon="-0.337570002302527">
        <ele>270.28125</ele>
        <time>2017-12-21T12:52:23Z</time>
      </trkpt>
      <trkpt lat="38.836619965732098" lon="-0.337560027837753">
        <ele>269.953125</ele>
        <time>2017-12-21T12:54:23Z</time>
      </trkpt>
      <trkpt lat="38.836549976840615" lon="-0.337549969553947">
        <ele>269.67578125</ele>
        <time>2017-12-21T12:56:23Z</time>
      </trkpt>
      <trkpt lat="38.836519969627261" lon="-0.337539995089173">
        <ele>269.41015625</ele>
        <time>2017-12-21T12:58:23Z</time>
      </trkpt>
      <trkpt lat="38.836460039019585" lon="-0.337519962340593">
        <ele>269.15234375</ele>
        <time>2017-12-21T13:00:23Z</time>
      </trkpt>
      <trkpt lat="38.836400024592876" lon="-0.337500013411045">
        <ele>269.1015625</ele>
        <time>2017-12-21T13:02:23Z</time>
      </trkpt>
      <trkpt lat="38.836349984630942" lon="-0.337470006197691">
        <ele>268.9453125</ele>
        <time>2017-12-21T13:04:23Z</time>
      </trkpt>
      <trkpt lat="38.836319977417588" lon="-0.337460031732917">
        <ele>269.04296875</ele>
        <time>2017-12-21T13:06:23Z</time>
      </trkpt>
      <trkpt lat="38.836270021274686" lon="-0.337430024519563">
        <ele>268.96875</ele>
        <time>2017-12-21T13:08:23Z</time>
      </trkpt>
      <trkpt lat="38.836230039596558" lon="-0.337409991770983">
        <ele>268.77734375</ele>
        <time>2017-12-21T13:10:23Z</time>
      </trkpt>
      <trkpt lat="38.836170025169849" lon="-0.337400017306209">
        <ele>268.44921875</ele>
        <time>2017-12-21T13:12:23Z</time>
      </trkpt>
      <trkpt lat="38.836119985207915" lon="-0.337389959022403">
        <ele>268.04296875</ele>
        <time>2017-12-21T13:14:23Z</time>
      </trkpt>
      <trkpt lat="38.836080003529787" lon="-0.337379984557629">
        <ele>267.6640625</ele>
        <time>2017-12-21T13:16:23Z</time>
      </trkpt>
      <trkpt lat="38.836029963567853" lon="-0.337379984557629">
        <ele>267.5390625</ele>
        <time>2017-12-21T13:18:23Z</time>
      </trkpt>
      <trkpt lat="38.835980007424951" lon="-0.337389959022403">
        <ele>267.62109375</ele>
        <time>2017-12-21T13:20:23Z</time>
      </trkpt>
      <trkpt lat="38.835950000211596" lon="-0.337400017306209">
        <ele>267.60546875</ele>
        <time>2017-12-21T13:22:23Z</time>
      </trkpt>
      <trkpt lat="38.835919992998242" lon="-0.337409991770983">
        <ele>267.56640625</ele>
        <time>2017-12-21T13:24:23Z</time>
      </trkpt>
      <trkpt lat="38.835880011320114" lon="-0.337419966235757">
        <ele>267.53125</ele>
        <time>2017-12-21T13:26:23Z</time>
      </trkpt>
      <trkpt lat="38.83585000410676" lon="-0.337439998984337">
        <ele>267.45703125</ele>
        <time>2017-12-21T13:28:23Z</time>
      </trkpt>
      <trkpt lat="38.835799964144826" lon="-0.337479980662465">
        <ele>267.42578125</ele>
        <time>2017-12-21T13:30:23Z</time>
      </trkpt>
      <trkpt lat="38.835740033537149" lon="-0.337530020624399">
        <ele>267.43359375</ele>
        <time>2017-12-21T13:32:23Z</time>
      </trkpt>
      <trkpt lat="38.835490001365542" lon="-0.337730012834072">
        <ele>267.41015625</ele>
        <time>2017-12-21T13:34:23Z</time>
      </trkpt>
      <trkpt lat="38.835350023582578" lon="-0.337839983403683">
        <ele>267.89453125</ele>
        <time>2017-12-21T13:36:23Z</time>
      </trkpt>
      <trkpt lat="38.835139973089099" lon="-0.338020026683807">
        <ele>269.1328125</ele>
        <time>2017-12-21T13:38:23Z</time>
      </trkpt>
      <trkpt lat="38.835099991410971" lon="-0.338060008361936">
        <ele>269.26953125</ele>
        <time>2017-12-21T13:40:23Z</time>
      </trkpt>
      <trkpt lat="38.835039976984262" lon="-0.338109964504838">
        <ele>269.375</ele>
        <time>2017-12-21T13:42:23Z</time>
      </trkpt>
      <trkpt lat="38.835009969770908" lon="-0.338139971718192">
        <ele>269.4140625</ele>
        <time>2017-12-21T13:44:23Z</time>
      </trkpt>
      <trkpt lat="38.83496998809278" lon="-0.338180037215352">
        <ele>269.546875</ele>
        <time>2017-12-21T13:46:23Z</time>
      </trkpt>
      <trkpt lat="38.834920031949878" lon="-0.338229993358254">
        <ele>269.8203125</ele>
        <time>2017-12-21T13:48:23Z</time>
      </trkpt>
      <trkpt lat="38.834879966452718" lon="-0.338290007784963">
        <ele>270.37890625</ele>
        <time>2017-12-21T13:50:23Z</time>
      </trkpt>
      <trkpt lat="38.834769995883107" lon="-0.338450018316507">
        <ele>270.9609375</ele>
        <time>2017-12-21T13:52:23Z</time>
      </trkpt>
      <trkpt lat="38.834730014204979" lon="-0.33852000720799">
        <ele>270.9609375</ele>
        <time>2017-12-21T13:54:23Z</time>
      </trkpt>
      <trkpt lat="38.834609985351562" lon="-0.338759981095791">
        <ele>271.79296875</ele>
        <time>2017-12-21T13:56:23Z</time>
      </trkpt>
      <trkpt lat="38.834479982033372" lon="-0.339000038802624">
        <ele>271.875</ele>
        <time>2017-12-21T13:58:23Z</time>
      </trkpt>
      <trkpt lat="38.834370011463761" lon="-0.339240012690425">
        <ele>272.71875</ele>
        <time>2017-12-21T14:00:23Z</time>
      </trkpt>
      <trkpt lat="38.834309997037053" lon="-0.339370016008615">
        <ele>272.9375</ele>
        <time>2017-12-21T14:02:23Z</time>
      </trkpt>
      <trkpt lat="38.834289964288473" lon="-0.339419972151518">
        <ele>273.08984375</ele>
        <time>2017-12-21T14:04:23Z</time>
      </trkpt>
      <trkpt lat="38.834270015358925" lon="-0.339479986578226">
        <ele>273.09765625</ele>
        <time>2017-12-21T14:06:23Z</time>
      </trkpt>
      <trkpt lat="38.834260040894151" lon="-0.33950999379158">
        <ele>273.09765625</ele>
        <time>2017-12-21T14:08:23Z</time>
      </trkpt>
      <trkpt lat="38.834230033680797" lon="-0.339600015431643">
        <ele>273.09765625</ele>
        <time>2017-12-21T14:10:23Z</time>
      </trkpt>
      <trkpt lat="38.834210000932217" lon="-0.339679978787899">
        <ele>273.09765625</ele>
        <time>2017-12-21T14:12:23Z</time>
      </trkpt>
      <trkpt lat="38.834170019254088" lon="-0.33980998210609">
        <ele>273.09765625</ele>
        <time>2017-12-21T14:14:23Z</time>
      </trkpt>
      <trkpt lat="38.834140012040734" lon="-0.33996001817286">
        <ele>273.09765625</ele>
        <time>2017-12-21T14:16:23Z</time>
      </trkpt>
      <trkpt lat="38.83411000482738" lon="-0.340109970420599">
        <ele>273.0546875</ele>
        <time>2017-12-21T14:18:23Z</time>
      </trkpt>
      <trkpt lat="38.83398000150919" lon="-0.340789994224906">
        <ele>272.8828125</ele>
        <time>2017-12-21T14:20:23Z</time>
      </trkpt>
      <trkpt lat="38.833940019831061" lon="-0.340970037505031">
        <ele>274.16796875</ele>
        <time>2017-12-21T14:22:23Z</time>
      </trkpt>
      <trkpt lat="38.833880005404353" lon="-0.341310007497668">
        <ele>274.96484375</ele>
        <time>2017-12-21T14:24:23Z</time>
      </trkpt>
      <trkpt lat="38.833829965442419" lon="-0.341540006920695">
        <ele>276.13671875</ele>
        <time>2017-12-21T14:26:23Z</time>
      </trkpt>
      <trkpt lat="38.833789983764291" lon="-0.341670010238886">
        <ele>276.59375</ele>
        <time>2017-12-21T14:28:23Z</time>
      </trkpt>
      <trkpt lat="38.833759976550937" lon="-0.341770006343722">
        <ele>276.78515625</ele>
        <time>2017-12-21T14:30:23Z</time>
      </trkpt>
      <trkpt lat="38.833719994872808" lon="-0.341890035197139">
        <ele>278.16796875</ele>
        <time>2017-12-21T14:32:23Z</time>
      </trkpt>
      <trkpt lat="38.833670038729906" lon="-0.342030012980103">
        <ele>279.5625</ele>
        <time>2017-12-21T14:34:23Z</time>
      </trkpt>
      <trkpt lat="38.833610024303198" lon="-0.342169990763068">
        <ele>280.8515625</ele>
        <time>2017-12-21T14:36:23Z</time>
      </trkpt>
      <trkpt lat="38.833380024880171" lon="-0.342699978500605">
        <ele>281.8515625</ele>
        <time>2017-12-21T14:38:23Z</time>
      </trkpt>
      <trkpt lat="38.833199981600046" lon="-0.343180010095239">
        <ele>286.3046875</ele>
        <time>2017-12-21T14:40:23Z</time>
      </trkpt>
      <trkpt lat="38.833090011030436" lon="-0.343519980087876">
        <ele>286.421875</ele>
        <time>2017-12-21T14:42:23Z</time>
      </trkpt>
      <trkpt lat="38.833050029352307" lon="-0.343640008941293">
        <ele>285.9375</ele>
        <time>2017-12-21T14:44:23Z</time>
      </trkpt>
      <trkpt lat="38.832990014925599" lon="-0.343749979510903">
        <ele>284.640625</ele>
        <time>2017-12-21T14:46:23Z</time>
      </trkpt>
      <trkpt lat="38.832960007712245" lon="-0.343800019472837">
        <ele>284.36328125</ele>
        <time>2017-12-21T14:48:23Z</time>
      </trkpt>
      <trkpt lat="38.832909967750311" lon="-0.3438900411129">
        <ele>284.5234375</ele>
        <time>2017-12-21T14:50:23Z</time>
      </trkpt>
      <trkpt lat="38.832850037142634" lon="-0.34397997893393">
        <ele>284.62890625</ele>
        <time>2017-12-21T14:52:23Z</time>
      </trkpt>
      <trkpt lat="38.832760015502572" lon="-0.344120040535927">
        <ele>283.734375</ele>
        <time>2017-12-21T14:54:23Z</time>
      </trkpt>
      <trkpt lat="38.832309991121292" lon="-0.344780031591654">
        <ele>278.953125</ele>
        <time>2017-12-21T14:56:23Z</time>
      </trkpt>
      <trkpt lat="38.832070017233491" lon="-0.345099968835711">
        <ele>277.2734375</ele>
        <time>2017-12-21T14:58:23Z</time>
      </trkpt>
      <trkpt lat="38.831780003383756" lon="-0.345510011538863">
        <ele>279.3515625</ele>
        <time>2017-12-21T15:00:23Z</time>
      </trkpt>
      <trkpt lat="38.831250015646219" lon="-0.346230017021298">
        <ele>281.4453125</ele>
        <time>2017-12-21T15:02:23Z</time>
      </trkpt>
      <trkpt lat="38.830839972943068" lon="-0.346809960901737">
        <ele>282.609375</ele>
        <time>2017-12-21T15:04:23Z</time>
      </trkpt>
      <trkpt lat="38.830760009586811" lon="-0.346929989755154">
        <ele>282.28125</ele>
        <time>2017-12-21T15:06:23Z</time>
      </trkpt>
      <trkpt lat="38.829310024157166" lon="-0.348929995670915">
        <ele>287.08203125</ele>
        <time>2017-12-21T15:08:23Z</time>
      </trkpt>
      <trkpt lat="38.829259984195232" lon="-0.349009959027171">
        <ele>287.1171875</ele>
        <time>2017-12-21T15:10:23Z</time>
      </trkpt>
      <trkpt lat="38.828269997611642" lon="-0.350349973887205">
        <ele>290.80078125</ele>
        <time>2017-12-21T15:12:23Z</time>
      </trkpt>
      <trkpt lat="38.828139994293451" lon="-0.350519958883524">
        <ele>291.078125</ele>
        <time>2017-12-21T15:14:23Z</time>
      </trkpt>
      <trkpt lat="38.828139994293451" lon="-0.350519958883524">
        <ele>291.078125</ele>
        <time>2017-12-21T15:16:23Z</time>
      </trkpt>
      <trkpt lat="38.828139994293451" lon="-0.350519958883524">
        <ele>291.078125</ele>
        <time>2017-12-21T17:02:23Z</time>
      </trkpt>
      <trkpt lat="38.828139994293451" lon="-0.350519958883524">
        <ele>291.078125</ele>
        <time>2017-12-21T17:04:23Z</time>
      </trkpt>
      <trkpt lat="38.827679995447397" lon="-0.351139968261123">
        <ele>292.2890625</ele>
        <time>2017-12-21T17:06:23Z</time>
      </trkpt>
      <trkpt lat="38.827349999919534" lon="-0.351599967107177">
        <ele>293.20703125</ele>
        <time>2017-12-21T17:08:23Z</time>
      </trkpt>
      <trkpt lat="38.827349999919534" lon="-0.351599967107177">
        <ele>293.20703125</ele>
        <time>2017-12-21T17:10:23Z</time>
      </trkpt>
      <trkpt lat="38.827489977702498" lon="-0.351680014282465">
        <ele>293.77734375</ele>
        <time>2017-12-21T17:12:23Z</time>
      </trkpt>
      <trkpt lat="38.827489977702498" lon="-0.351680014282465">
        <ele>293.77734375</ele>
        <time>2017-12-21T17:14:23Z</time>
      </trkpt>
      <trkpt lat="38.827529959380627" lon="-0.351740028709173">
        <ele>293.90234375</ele>
        <time>2017-12-21T17:16:23Z</time>
      </trkpt>
      <trkpt lat="38.82774998433888" lon="-0.352019984275103">
        <ele>294.125</ele>
        <time>2017-12-21T17:18:23Z</time>
      </trkpt>
      <trkpt lat="38.827889962121844" lon="-0.352240009233356">
        <ele>294.65234375</ele>
        <time>2017-12-21T17:20:23Z</time>
      </trkpt>
      <trkpt lat="38.828119961544871" lon="-0.352649968117476">
        <ele>295.95703125</ele>
        <time>2017-12-21T17:22:23Z</time>
      </trkpt>
      <trkpt lat="38.828320037573576" lon="-0.353079959750175">
        <ele>296.87109375</ele>
        <time>2017-12-21T17:24:23Z</time>
      </trkpt>
      <trkpt lat="38.828509971499443" lon="-0.353520009666681">
        <ele>298.08984375</ele>
        <time>2017-12-21T17:26:23Z</time>
      </trkpt>
      <trkpt lat="38.828569985926151" lon="-0.353720001876354">
        <ele>298.12890625</ele>
        <time>2017-12-21T17:28:23Z</time>
      </trkpt>
      <trkpt lat="38.828579960390925" lon="-0.353789990767837">
        <ele>298.28515625</ele>
        <time>2017-12-21T17:30:23Z</time>
      </trkpt>
      <trkpt lat="38.828579960390925" lon="-0.353950001299381">
        <ele>299.40234375</ele>
        <time>2017-12-21T17:32:23Z</time>
      </trkpt>
      <trkpt lat="38.828579960390925" lon="-0.354189975187182">
        <ele>299.06640625</ele>
        <time>2017-12-21T17:34:23Z</time>
      </trkpt>
      <trkpt lat="38.828579960390925" lon="-0.354489963501692">
        <ele>299.9765625</ele>
        <time>2017-12-21T17:36:23Z</time>
      </trkpt>
      <trkpt lat="38.828579960390925" lon="-0.354770002886653">
        <ele>300.3046875</ele>
        <time>2017-12-21T17:38:23Z</time>
      </trkpt>
      <trkpt lat="38.82860996760428" lon="-0.355190020054579">
        <ele>303.203125</ele>
        <time>2017-12-21T17:40:23Z</time>
      </trkpt>
      <trkpt lat="38.828620025888085" lon="-0.35545002669096">
        <ele>305.828125</ele>
        <time>2017-12-21T17:42:23Z</time>
      </trkpt>
      <trkpt lat="38.828620025888085" lon="-0.355499982833862">
        <ele>306.15625</ele>
        <time>2017-12-21T17:44:23Z</time>
      </trkpt>
      <trkpt lat="38.828630000352859" lon="-0.355529990047216">
        <ele>306.359375</ele>
        <time>2017-12-21T17:46:23Z</time>
      </trkpt>
      <trkpt lat="38.828630000352859" lon="-0.355569971725345">
        <ele>306.640625</ele>
        <time>2017-12-21T17:48:23Z</time>
      </trkpt>
      <trkpt lat="38.828660007566214" lon="-0.355699975043535">
        <ele>307.28515625</ele>
        <time>2017-12-21T17:50:23Z</time>
      </trkpt>
      <trkpt lat="38.828709963709116" lon="-0.355929974466562">
        <ele>308.83203125</ele>
        <time>2017-12-21T17:52:23Z</time>
      </trkpt>
      <trkpt lat="38.82873997092247" lon="-0.356050003319979">
        <ele>309.59765625</ele>
        <time>2017-12-21T17:54:23Z</time>
      </trkpt>
      <trkpt lat="38.828769978135824" lon="-0.356159973889589">
        <ele>309.9375</ele>
        <time>2017-12-21T17:56:23Z</time>
      </trkpt>
      <trkpt lat="38.82878003641963" lon="-0.356189981102943">
        <ele>309.87890625</ele>
        <time>2017-12-21T17:58:23Z</time>
      </trkpt>
      <trkpt lat="38.828799985349178" lon="-0.356249995529652">
        <ele>309.6015625</ele>
        <time>2017-12-21T18:00:23Z</time>
      </trkpt>
      <trkpt lat="38.828820018097758" lon="-0.356300035491586">
        <ele>309.80859375</ele>
        <time>2017-12-21T18:02:23Z</time>
      </trkpt>
      <trkpt lat="38.828850025311112" lon="-0.356349991634488">
        <ele>310.34375</ele>
        <time>2017-12-21T18:04:23Z</time>
      </trkpt>
      <trkpt lat="38.828890006989241" lon="-0.35641998052597">
        <ele>311.3203125</ele>
        <time>2017-12-21T18:06:23Z</time>
      </trkpt>
      <trkpt lat="38.828920014202595" lon="-0.356470020487905">
        <ele>311.7890625</ele>
        <time>2017-12-21T18:08:23Z</time>
      </trkpt>
      <trkpt lat="38.828950021415949" lon="-0.356510002166033">
        <ele>312.10546875</ele>
        <time>2017-12-21T18:10:23Z</time>
      </trkpt>
      <trkpt lat="38.829029984772205" lon="-0.356600023806095">
        <ele>313.609375</ele>
        <time>2017-12-21T18:12:23Z</time>
      </trkpt>
      <trkpt lat="38.829069966450334" lon="-0.356649979948997">
        <ele>314.20703125</ele>
        <time>2017-12-21T18:14:23Z</time>
      </trkpt>
      <trkpt lat="38.829080024734139" lon="-0.356670012697577">
        <ele>314.39453125</ele>
        <time>2017-12-21T18:16:23Z</time>
      </trkpt>
      <trkpt lat="38.829089999198914" lon="-0.356689961627126">
        <ele>314.56640625</ele>
        <time>2017-12-21T18:18:23Z</time>
      </trkpt>
      <trkpt lat="38.829129980877042" lon="-0.356770008802414">
        <ele>315.1484375</ele>
        <time>2017-12-21T18:20:23Z</time>
      </trkpt>
      <trkpt lat="38.829150013625622" lon="-0.356800016015768">
        <ele>315.46875</ele>
        <time>2017-12-21T18:22:23Z</time>
      </trkpt>
      <trkpt lat="38.82916996255517" lon="-0.356839997693896">
        <ele>316.0625</ele>
        <time>2017-12-21T18:24:23Z</time>
      </trkpt>
      <trkpt lat="38.82918999530375" lon="-0.35687000490725">
        <ele>316.58984375</ele>
        <time>2017-12-21T18:26:23Z</time>
      </trkpt>
      <trkpt lat="38.829229976981878" lon="-0.356900012120605">
        <ele>316.9765625</ele>
        <time>2017-12-21T18:28:23Z</time>
      </trkpt>
      <trkpt lat="38.829250009730458" lon="-0.356909986585379">
        <ele>316.89453125</ele>
        <time>2017-12-21T18:30:23Z</time>
      </trkpt>
      <trkpt lat="38.829289991408587" lon="-0.356939993798733">
        <ele>316.51953125</ele>
        <time>2017-12-21T18:32:23Z</time>
      </trkpt>
      <trkpt lat="38.829500041902065" lon="-0.357030015438795">
        <ele>317.609375</ele>
        <time>2017-12-21T18:34:23Z</time>
      </trkpt>
      <trkpt lat="38.829600038006902" lon="-0.357090029865503">
        <ele>318.75390625</ele>
        <time>2017-12-21T18:36:23Z</time>
      </trkpt>
      <trkpt lat="38.82964001968503" lon="-0.357109978795052">
        <ele>318.94140625</ele>
        <time>2017-12-21T18:38:23Z</time>
      </trkpt>
      <trkpt lat="38.829680001363158" lon="-0.35714996047318">
        <ele>319.34375</ele>
        <time>2017-12-21T18:40:23Z</time>
      </trkpt>
      <trkpt lat="38.829700034111738" lon="-0.357179967686534">
        <ele>319.640625</ele>
        <time>2017-12-21T18:42:23Z</time>
      </trkpt>
      <trkpt lat="38.829740015789866" lon="-0.357230007648468">
        <ele>320.08984375</ele>
        <time>2017-12-21T18:44:23Z</time>
      </trkpt>
      <trkpt lat="38.829789971932769" lon="-0.35732002928853">
        <ele>320.90625</ele>
        <time>2017-12-21T18:46:23Z</time>
      </trkpt>
      <trkpt lat="38.829840011894703" lon="-0.357409967109561">
        <ele>321.24609375</ele>
        <time>2017-12-21T18:48:23Z</time>
      </trkpt>
      <trkpt lat="38.829840011894703" lon="-0.357409967109561">
        <ele>321.24609375</ele>
        <time>2017-12-21T18:50:23Z</time>
      </trkpt>
      <trkpt lat="38.829749990254641" lon="-0.357529995962977">
        <ele>322.19921875</ele>
        <time>2017-12-21T18:52:23Z</time>
      </trkpt>
      <trkpt lat="38.829570030793548" lon="-0.357710039243102">
        <ele>321.875</ele>
        <time>2017-12-21T18:54:23Z</time>
      </trkpt>
      <trkpt lat="38.829289991408587" lon="-0.357920005917549">
        <ele>323.28125</ele>
        <time>2017-12-21T18:56:23Z</time>
      </trkpt>
      <trkpt lat="38.828750029206276" lon="-0.358270034193993">
        <ele>324.3125</ele>
        <time>2017-12-21T18:58:23Z</time>
      </trkpt>
      <trkpt lat="38.828430008143187" lon="-0.358489975333214">
        <ele>325.6484375</ele>
        <time>2017-12-21T19:00:23Z</time>
      </trkpt>
      <trkpt lat="38.828300004824996" lon="-0.358600029721856">
        <ele>325.5234375</ele>
        <time>2017-12-21T19:02:23Z</time>
      </trkpt>
      <trkpt lat="38.828160027042031" lon="-0.358749981969595">
        <ele>325.828125</ele>
        <time>2017-12-21T19:04:23Z</time>
      </trkpt>
      <trkpt lat="38.828060030937195" lon="-0.35888995975256">
        <ele>326.27734375</ele>
        <time>2017-12-21T19:06:23Z</time>
      </trkpt>
      <trkpt lat="38.827989958226681" lon="-0.35901996307075">
        <ele>326.95703125</ele>
        <time>2017-12-21T19:08:23Z</time>
      </trkpt>
      <trkpt lat="38.827909994870424" lon="-0.359190031886101">
        <ele>327.078125</ele>
        <time>2017-12-21T19:10:23Z</time>
      </trkpt>
      <trkpt lat="38.827860038727522" lon="-0.359309976920485">
        <ele>327.640625</ele>
        <time>2017-12-21T19:12:23Z</time>
      </trkpt>
      <trkpt lat="38.827830031514168" lon="-0.359450038522482">
        <ele>329.01171875</ele>
        <time>2017-12-21T19:14:23Z</time>
      </trkpt>
      <trkpt lat="38.827789966017008" lon="-0.359660005196929">
        <ele>330.47265625</ele>
        <time>2017-12-21T19:16:23Z</time>
      </trkpt>
      <trkpt lat="38.82774998433888" lon="-0.360059989616275">
        <ele>331.3125</ele>
        <time>2017-12-21T19:18:23Z</time>
      </trkpt>
      <trkpt lat="38.827719977125525" lon="-0.360519988462329">
        <ele>331.04296875</ele>
        <time>2017-12-21T19:20:23Z</time>
      </trkpt>
      <trkpt lat="38.827689969912171" lon="-0.360849983990192">
        <ele>331.7109375</ele>
        <time>2017-12-21T19:22:23Z</time>
      </trkpt>
      <trkpt lat="38.827659962698817" lon="-0.361009994521737">
        <ele>331.35546875</ele>
        <time>2017-12-21T19:24:23Z</time>
      </trkpt>
      <trkpt lat="38.827619981020689" lon="-0.361149972304702">
        <ele>330.43359375</ele>
        <time>2017-12-21T19:26:23Z</time>
      </trkpt>
      <trkpt lat="38.827540017664433" lon="-0.361349964514375">
        <ele>329.3515625</ele>
        <time>2017-12-21T19:28:23Z</time>
      </trkpt>
      <trkpt lat="38.82744999602437" lon="-0.361539982259274">
        <ele>330.0546875</ele>
        <time>2017-12-21T19:30:23Z</time>
      </trkpt>
      <trkpt lat="38.827359974384308" lon="-0.361669985577464">
        <ele>330.58984375</ele>
        <time>2017-12-21T19:32:23Z</time>
      </trkpt>
      <trkpt lat="38.827270036563277" lon="-0.361780039966106">
        <ele>331.4375</ele>
        <time>2017-12-21T19:34:23Z</time>
      </trkpt>
      <trkpt lat="38.827140033245087" lon="-0.361899985000491">
        <ele>333.921875</ele>
        <time>2017-12-21T19:36:23Z</time>
      </trkpt>
      <trkpt lat="38.826980022713542" lon="-0.362029988318682">
        <ele>334.49609375</ele>
        <time>2017-12-21T19:38:23Z</time>
      </trkpt>
      <trkpt lat="38.826839961111546" lon="-0.36211003549397">
        <ele>336.20703125</ele>
        <time>2017-12-21T19:40:23Z</time>
      </trkpt>
      <trkpt lat="38.826550031080842" lon="-0.36224003881216">
        <ele>340.80078125</ele>
        <time>2017-12-21T19:42:23Z</time>
      </trkpt>
      <trkpt lat="38.825890040025115" lon="-0.362559976056218">
        <ele>339.23828125</ele>
        <time>2017-12-21T19:44:23Z</time>
      </trkpt>
      <trkpt lat="38.825619975104928" lon="-0.362710012122989">
        <ele>338.06640625</ele>
        <time>2017-12-21T19:46:23Z</time>
      </trkpt>
      <trkpt lat="38.825389975681901" lon="-0.362879997119308">
        <ele>340.171875</ele>
        <time>2017-12-21T19:48:23Z</time>
      </trkpt>
      <trkpt lat="38.825249997898936" lon="-0.363010000437498">
        <ele>340.30859375</ele>
        <time>2017-12-21T19:50:23Z</time>
      </trkpt>
      <trkpt lat="38.825070038437843" lon="-0.363239999860525">
        <ele>342.171875</ele>
        <time>2017-12-21T19:52:23Z</time>
      </trkpt>
      <trkpt lat="38.824959984049201" lon="-0.363409984856844">
        <ele>340.69921875</ele>
        <time>2017-12-21T19:54:23Z</time>
      </trkpt>
      <trkpt lat="38.824869962409139" lon="-0.363600002601743">
        <ele>341.0859375</ele>
        <time>2017-12-21T19:56:23Z</time>
      </trkpt>
      <trkpt lat="38.824750017374754" lon="-0.363890016451478">
        <ele>340.80859375</ele>
        <time>2017-12-21T19:58:23Z</time>
      </trkpt>
      <trkpt lat="38.824680028483272" lon="-0.364139964804053">
        <ele>344.23828125</ele>
        <time>2017-12-21T20:00:23Z</time>
      </trkpt>
      <trkpt lat="38.824650021269917" lon="-0.364350015297532">
        <ele>343.89453125</ele>
        <time>2017-12-21T20:02:23Z</time>
      </trkpt>
      <trkpt lat="38.824610039591789" lon="-0.364659978076816">
        <ele>340.88671875</ele>
        <time>2017-12-21T20:04:23Z</time>
      </trkpt>
      <trkpt lat="38.824550025165081" lon="-0.365000031888485">
        <ele>342.29296875</ele>
        <time>2017-12-21T20:06:23Z</time>
      </trkpt>
      <trkpt lat="38.824469977989793" lon="-0.365279987454414">
        <ele>342.2421875</ele>
        <time>2017-12-21T20:08:23Z</time>
      </trkpt>
      <trkpt lat="38.824390014633536" lon="-0.365500012412667">
        <ele>343.1796875</ele>
        <time>2017-12-21T20:10:23Z</time>
      </trkpt>
      <trkpt lat="38.824330000206828" lon="-0.365639990195632">
        <ele>345.44140625</ele>
        <time>2017-12-21T20:12:23Z</time>
      </trkpt>
      <trkpt lat="38.824239978566766" lon="-0.365800000727177">
        <ele>347.60546875</ele>
        <time>2017-12-21T20:14:23Z</time>
      </trkpt>
      <trkpt lat="38.824069993570447" lon="-0.366039974614978">
        <ele>348.87890625</ele>
        <time>2017-12-21T20:16:23Z</time>
      </trkpt>
      <trkpt lat="38.823879975825548" lon="-0.366290006786585">
        <ele>348.5</ele>
        <time>2017-12-21T20:18:23Z</time>
      </trkpt>
      <trkpt lat="38.823730023577809" lon="-0.366489998996258">
        <ele>348.0625</ele>
        <time>2017-12-21T20:20:23Z</time>
      </trkpt>
      <trkpt lat="38.823649976402521" lon="-0.366589995101094">
        <ele>348.01953125</ele>
        <time>2017-12-21T20:22:23Z</time>
      </trkpt>
      <trkpt lat="38.823519973084331" lon="-0.366799961775541">
        <ele>349.515625</ele>
        <time>2017-12-21T20:24:23Z</time>
      </trkpt>
      <trkpt lat="38.8234300352633" lon="-0.366970030590892">
        <ele>350.84375</ele>
        <time>2017-12-21T20:26:23Z</time>
      </trkpt>
      <trkpt lat="38.823349988088012" lon="-0.367159964516759">
        <ele>352.49609375</ele>
        <time>2017-12-21T20:28:23Z</time>
      </trkpt>
      <trkpt lat="38.823270024731755" lon="-0.367409996688366">
        <ele>352.953125</ele>
        <time>2017-12-21T20:30:23Z</time>
      </trkpt>
      <trkpt lat="38.823219984769821" lon="-0.367660028859973">
        <ele>351.83203125</ele>
        <time>2017-12-21T20:32:23Z</time>
      </trkpt>
      <trkpt lat="38.823189977556467" lon="-0.36784996278584">
        <ele>351.515625</ele>
        <time>2017-12-21T20:34:23Z</time>
      </trkpt>
      <trkpt lat="38.823170028626919" lon="-0.368030006065965">
        <ele>353.52734375</ele>
        <time>2017-12-21T20:36:23Z</time>
      </trkpt>
      <trkpt lat="38.823170028626919" lon="-0.368250031024218">
        <ele>354.6640625</ele>
        <time>2017-12-21T20:38:23Z</time>
      </trkpt>
      <trkpt lat="38.823180003091693" lon="-0.368610033765435">
        <ele>354.37109375</ele>
        <time>2017-12-21T20:40:23Z</time>
      </trkpt>
      <trkpt lat="38.823159970343113" lon="-0.368970036506653">
        <ele>354.86328125</ele>
        <time>2017-12-21T20:42:23Z</time>
      </trkpt>
      <trkpt lat="38.823129963129759" lon="-0.369100039824843">
        <ele>356.04296875</ele>
        <time>2017-12-21T20:44:23Z</time>
      </trkpt>
      <trkpt lat="38.823110014200211" lon="-0.369219984859228">
        <ele>356.78515625</ele>
        <time>2017-12-21T20:46:23Z</time>
      </trkpt>
      <trkpt lat="38.823100039735436" lon="-0.369279999285936">
        <ele>356.484375</ele>
        <time>2017-12-21T20:48:23Z</time>
      </trkpt>
      <trkpt lat="38.823070032522082" lon="-0.369379995390773">
        <ele>355.55859375</ele>
        <time>2017-12-21T20:50:23Z</time>
      </trkpt>
      <trkpt lat="38.823019992560148" lon="-0.369509998708963">
        <ele>356.23828125</ele>
        <time>2017-12-21T20:52:23Z</time>
      </trkpt>
      <trkpt lat="38.822970036417246" lon="-0.36963002756238">
        <ele>357.12109375</ele>
        <time>2017-12-21T20:54:23Z</time>
      </trkpt>
      <trkpt lat="38.822940029203892" lon="-0.369700016453862">
        <ele>357.109375</ele>
        <time>2017-12-21T20:56:23Z</time>
      </trkpt>
      <trkpt lat="38.822919996455312" lon="-0.36973999813199">
        <ele>357.15625</ele>
        <time>2017-12-21T20:58:23Z</time>
      </trkpt>
      <trkpt lat="38.822910021990538" lon="-0.36976003088057">
        <ele>357.1875</ele>
        <time>2017-12-21T21:00:23Z</time>
      </trkpt>
      <trkpt lat="38.822899963706732" lon="-0.36976003088057">
        <ele>356.81640625</ele>
        <time>2017-12-21T21:02:23Z</time>
      </trkpt>
      <trkpt lat="38.822889989241958" lon="-0.369770005345345">
        <ele>356.66015625</ele>
        <time>2017-12-21T21:04:23Z</time>
      </trkpt>
      <trkpt lat="38.822880014777184" lon="-0.369770005345345">
        <ele>356.296875</ele>
        <time>2017-12-21T21:06:23Z</time>
      </trkpt>
      <trkpt lat="38.822870040312409" lon="-0.369779979810119">
        <ele>356.10546875</ele>
        <time>2017-12-21T21:08:23Z</time>
      </trkpt>
      <trkpt lat="38.822840033099055" lon="-0.369779979810119">
        <ele>355.0546875</ele>
        <time>2017-12-21T21:10:23Z</time>
      </trkpt>
      <trkpt lat="38.822840033099055" lon="-0.369779979810119">
        <ele>355.0546875</ele>
        <time>2017-12-21T21:12:23Z</time>
      </trkpt>
      <trkpt lat="38.822829974815249" lon="-0.369809987023473">
        <ele>355.375</ele>
        <time>2017-12-21T21:14:23Z</time>
      </trkpt>
      <trkpt lat="38.822820000350475" lon="-0.369839994236827">
        <ele>355.734375</ele>
        <time>2017-12-21T21:16:23Z</time>
      </trkpt>
      <trkpt lat="38.822799967601895" lon="-0.369870001450181">
        <ele>355.76953125</ele>
        <time>2017-12-21T21:18:23Z</time>
      </trkpt>
      <trkpt lat="38.822780018672347" lon="-0.369920041412115">
        <ele>356.19921875</ele>
        <time>2017-12-21T21:20:23Z</time>
      </trkpt>
      <trkpt lat="38.822740036994219" lon="-0.369960023090243">
        <ele>356.40234375</ele>
        <time>2017-12-21T21:22:23Z</time>
      </trkpt>
      <trkpt lat="38.822590000927448" lon="-0.37016998976469">
        <ele>358.75390625</ele>
        <time>2017-12-21T21:24:23Z</time>
      </trkpt>
      <trkpt lat="38.822539960965514" lon="-0.370239978656173">
        <ele>359.29296875</ele>
        <time>2017-12-21T21:26:23Z</time>
      </trkpt>
      <trkpt lat="38.822220023721457" lon="-0.370720010250807">
        <ele>364.1484375</ele>
        <time>2017-12-21T21:28:23Z</time>
      </trkpt>
      <trkpt lat="38.82207996211946" lon="-0.37094003520906">
        <ele>367.57421875</ele>
        <time>2017-12-21T21:30:23Z</time>
      </trkpt>
      <trkpt lat="38.821990024298429" lon="-0.371089987456799">
        <ele>369.328125</ele>
        <time>2017-12-21T21:32:23Z</time>
      </trkpt>
      <trkpt lat="38.821960017085075" lon="-0.371159976348281">
        <ele>370.21875</ele>
        <time>2017-12-21T21:34:23Z</time>
      </trkpt>
      <trkpt lat="38.82194995880127" lon="-0.371189983561635">
        <ele>370.44921875</ele>
        <time>2017-12-21T21:36:23Z</time>
      </trkpt>
      <trkpt lat="38.821920035406947" lon="-0.371249997988343">
        <ele>370.8515625</ele>
        <time>2017-12-21T21:38:23Z</time>
      </trkpt>
      <trkpt lat="38.821709984913468" lon="-0.371740004047751">
        <ele>373.5859375</ele>
        <time>2017-12-21T21:40:23Z</time>
      </trkpt>
      <trkpt lat="38.821570007130504" lon="-0.372039992362261">
        <ele>375.5703125</ele>
        <time>2017-12-21T21:42:23Z</time>
      </trkpt>
      <trkpt lat="38.821409996598959" lon="-0.372409969568253">
        <ele>376.92578125</ele>
        <time>2017-12-21T21:44:23Z</time>
      </trkpt>
      <trkpt lat="38.821349982172251" lon="-0.372560005635023">
        <ele>378.1953125</ele>
        <time>2017-12-21T21:46:23Z</time>
      </trkpt>
      <trkpt lat="38.821289967745543" lon="-0.372690008953214">
        <ele>378.93359375</ele>
        <time>2017-12-21T21:48:23Z</time>
      </trkpt>
      <trkpt lat="38.821249986067414" lon="-0.372759997844696">
        <ele>378.578125</ele>
        <time>2017-12-21T21:50:23Z</time>
      </trkpt>
      <trkpt lat="38.821159964427352" lon="-0.372920008376241">
        <ele>379.1484375</ele>
        <time>2017-12-21T21:52:23Z</time>
      </trkpt>
      <trkpt lat="38.821080001071095" lon="-0.373040037229657">
        <ele>380.2109375</ele>
        <time>2017-12-21T21:54:23Z</time>
      </trkpt>
      <trkpt lat="38.821080001071095" lon="-0.373050011694431">
        <ele>380.36328125</ele>
        <time>2017-12-21T21:56:23Z</time>
      </trkpt>
      <trkpt lat="38.821000037714839" lon="-0.373159982264042">
        <ele>381.20703125</ele>
        <time>2017-12-21T21:58:23Z</time>
      </trkpt>
      <trkpt lat="38.820870034396648" lon="-0.373329967260361">
        <ele>381.8828125</ele>
        <time>2017-12-21T22:00:23Z</time>
      </trkpt>
      <trkpt lat="38.820819994434714" lon="-0.373419988900423">
        <ele>383.00390625</ele>
        <time>2017-12-21T22:02:23Z</time>
      </trkpt>
      <trkpt lat="38.82078998722136" lon="-0.373459970578551">
        <ele>383.390625</ele>
        <time>2017-12-21T22:04:23Z</time>
      </trkpt>
      <trkpt lat="38.820750005543232" lon="-0.37351998500526">
        <ele>383.640625</ele>
        <time>2017-12-21T22:06:23Z</time>
      </trkpt>
      <trkpt lat="38.820729972794652" lon="-0.373589973896742">
        <ele>384.3046875</ele>
        <time>2017-12-21T22:08:23Z</time>
      </trkpt>
      <trkpt lat="38.820699965581298" lon="-0.373640013858676">
        <ele>384.39453125</ele>
        <time>2017-12-21T22:10:23Z</time>
      </trkpt>
      <trkpt lat="38.820669958367944" lon="-0.373749984428287">
        <ele>384.953125</ele>
        <time>2017-12-21T22:12:23Z</time>
      </trkpt>
      <trkpt lat="38.820580020546913" lon="-0.374009991064668">
        <ele>386.8515625</ele>
        <time>2017-12-21T22:14:23Z</time>
      </trkpt>
      <trkpt lat="38.820499973371625" lon="-0.374309979379177">
        <ele>389.0078125</ele>
        <time>2017-12-21T22:16:23Z</time>
      </trkpt>
      <trkpt lat="38.820429984480143" lon="-0.37453000433743">
        <ele>389.4609375</ele>
        <time>2017-12-21T22:18:23Z</time>
      </trkpt>
      <trkpt lat="38.820420010015368" lon="-0.374560011550784">
        <ele>389.203125</ele>
        <time>2017-12-21T22:20:23Z</time>
      </trkpt>
      <trkpt lat="38.820390002802014" lon="-0.374680040404201">
        <ele>389.23046875</ele>
        <time>2017-12-21T22:22:23Z</time>
      </trkpt>
      <trkpt lat="38.82038002833724" lon="-0.374780036509037">
        <ele>390.1484375</ele>
        <time>2017-12-21T22:24:23Z</time>
      </trkpt>
      <trkpt lat="38.820369970053434" lon="-0.374869974330068">
        <ele>390.359375</ele>
        <time>2017-12-21T22:26:23Z</time>
      </trkpt>
      <trkpt lat="38.820350021123886" lon="-0.375480009242892">
        <ele>393.19921875</ele>
        <time>2017-12-21T22:28:23Z</time>
      </trkpt>
      <trkpt lat="38.82033996284008" lon="-0.375960040837526">
        <ele>396.640625</ele>
        <time>2017-12-21T22:30:23Z</time>
      </trkpt>
      <trkpt lat="38.820350021123886" lon="-0.3759700153023">
        <ele>396.8046875</ele>
        <time>2017-12-21T22:32:23Z</time>
      </trkpt>
      <trkpt lat="38.820350021123886" lon="-0.375979989767075">
        <ele>396.83984375</ele>
        <time>2017-12-21T22:34:23Z</time>
      </trkpt>
      <trkpt lat="38.820350021123886" lon="-0.375989964231849">
        <ele>396.87109375</ele>
        <time>2017-12-21T22:36:23Z</time>
      </trkpt>
      <trkpt lat="38.820350021123886" lon="-0.376000022515655">
        <ele>396.90625</ele>
        <time>2017-12-21T22:38:23Z</time>
      </trkpt>
      <trkpt lat="38.820390002802014" lon="-0.376060036942363">
        <ele>397.62890625</ele>
        <time>2017-12-21T22:40:23Z</time>
      </trkpt>
      <trkpt lat="38.820390002802014" lon="-0.376060036942363">
        <ele>397.62890625</ele>
        <time>2017-12-21T22:42:23Z</time>
      </trkpt>
      <trkpt lat="38.820269973948598" lon="-0.376200014725327">
        <ele>397.1171875</ele>
        <time>2017-12-21T22:44:23Z</time>
      </trkpt>
      <trkpt lat="38.82020995952189" lon="-0.37624997086823">
        <ele>396.83984375</ele>
        <time>2017-12-21T22:46:23Z</time>
      </trkpt>
      <trkpt lat="38.820139970630407" lon="-0.37627000361681">
        <ele>396.828125</ele>
        <time>2017-12-21T22:48:23Z</time>
      </trkpt>
      <trkpt lat="38.820120021700859" lon="-0.37627000361681">
        <ele>396.75</ele>
        <time>2017-12-21T22:50:23Z</time>
      </trkpt>
      <trkpt lat="38.820009967312217" lon="-0.376279978081584">
        <ele>396.21875</ele>
        <time>2017-12-21T22:52:23Z</time>
      </trkpt>
      <trkpt lat="38.819879963994026" lon="-0.376200014725327">
        <ele>395.5234375</ele>
        <time>2017-12-21T22:54:23Z</time>
      </trkpt>
      <trkpt lat="38.819649964570999" lon="-0.376019971445203">
        <ele>394.859375</ele>
        <time>2017-12-21T22:56:23Z</time>
      </trkpt>
      <trkpt lat="38.819319969043136" lon="-0.375710008665919">
        <ele>393.8359375</ele>
        <time>2017-12-21T22:58:23Z</time>
      </trkpt>
      <trkpt lat="38.819159958511591" lon="-0.3755400236696">
        <ele>392.87890625</ele>
        <time>2017-12-21T23:00:23Z</time>
      </trkpt>
      <trkpt lat="38.81904998794198" lon="-0.375429969280958">
        <ele>392.140625</ele>
        <time>2017-12-21T23:02:23Z</time>
      </trkpt>
      <trkpt lat="38.818970024585724" lon="-0.375370038673282">
        <ele>391.96484375</ele>
        <time>2017-12-21T23:04:23Z</time>
      </trkpt>
      <trkpt lat="38.818880002945662" lon="-0.375310024246573">
        <ele>391.765625</ele>
        <time>2017-12-21T23:06:23Z</time>
      </trkpt>
      <trkpt lat="38.818810014054179" lon="-0.375259984284639">
        <ele>391.5</ele>
        <time>2017-12-21T23:08:23Z</time>
      </trkpt>
      <trkpt lat="38.818749999627471" lon="-0.375229977071285">
        <ele>391.3515625</ele>
        <time>2017-12-21T23:10:23Z</time>
      </trkpt>
      <trkpt lat="38.818710017949343" lon="-0.375210028141737">
        <ele>391.24609375</ele>
        <time>2017-12-21T23:12:23Z</time>
      </trkpt>
      <trkpt lat="38.81861999630928" lon="-0.375180020928383">
        <ele>391.05078125</ele>
        <time>2017-12-21T23:14:23Z</time>
      </trkpt>
      <trkpt lat="38.81861999630928" lon="-0.375180020928383">
        <ele>391.05078125</ele>
        <time>2017-12-21T23:16:23Z</time>
      </trkpt>
      <trkpt lat="38.818480018526316" lon="-0.375189995393157">
        <ele>391.05078125</ele>
        <time>2017-12-21T23:18:23Z</time>
      </trkpt>
      <trkpt lat="38.818399971351027" lon="-0.375199969857931">
        <ele>391.05078125</ele>
        <time>2017-12-21T23:20:23Z</time>
      </trkpt>
      <trkpt lat="38.818329982459545" lon="-0.375210028141737">
        <ele>391.05078125</ele>
        <time>2017-12-21T23:22:23Z</time>
      </trkpt>
      <trkpt lat="38.818099983036518" lon="-0.375280017033219">
        <ele>390.27734375</ele>
        <time>2017-12-21T23:24:23Z</time>
      </trkpt>
      <trkpt lat="38.817820027470589" lon="-0.37538998760283">
        <ele>389.0546875</ele>
        <time>2017-12-21T23:26:23Z</time>
      </trkpt>
      <trkpt lat="38.81776001304388" lon="-0.37541002035141">
        <ele>388.54296875</ele>
        <time>2017-12-21T23:28:23Z</time>
      </trkpt>
      <trkpt lat="38.817709973081946" lon="-0.375440027564764">
        <ele>388.1484375</ele>
        <time>2017-12-21T23:30:23Z</time>
      </trkpt>
      <trkpt lat="38.817669991403818" lon="-0.375459976494312">
        <ele>387.953125</ele>
        <time>2017-12-21T23:32:23Z</time>
      </trkpt>
      <trkpt lat="38.817660016939044" lon="-0.375470034778118">
        <ele>387.88671875</ele>
        <time>2017-12-21T23:34:23Z</time>
      </trkpt>
      <trkpt lat="38.817620035260916" lon="-0.375499958172441">
        <ele>387.50390625</ele>
        <time>2017-12-21T23:36:23Z</time>
      </trkpt>
      <trkpt lat="38.817590028047562" lon="-0.375519990921021">
        <ele>387.15625</ele>
        <time>2017-12-21T23:38:23Z</time>
      </trkpt>
      <trkpt lat="38.817549962550402" lon="-0.375559972599149">
        <ele>386.7734375</ele>
        <time>2017-12-21T23:40:23Z</time>
      </trkpt>
      <trkpt lat="38.817539988085628" lon="-0.375580005347729">
        <ele>386.71484375</ele>
        <time>2017-12-21T23:42:23Z</time>
      </trkpt>
      <trkpt lat="38.817539988085628" lon="-0.375580005347729">
        <ele>386.71484375</ele>
        <time>2017-12-21T23:44:23Z</time>
      </trkpt>
      <trkpt lat="38.817049982026219" lon="-0.375099973753095">
        <ele>385.2734375</ele>
        <time>2017-12-21T23:46:23Z</time>
      </trkpt>
      <trkpt lat="38.816849989816546" lon="-0.374910039827228">
        <ele>385.5703125</ele>
        <time>2017-12-21T23:48:23Z</time>
      </trkpt>
      <trkpt lat="38.816759968176484" lon="-0.374829992651939">
        <ele>386.03125</ele>
        <time>2017-12-21T23:50:23Z</time>
      </trkpt>
      <trkpt lat="38.816619990393519" lon="-0.374729996547103">
        <ele>386.13671875</ele>
        <time>2017-12-21T23:52:23Z</time>
      </trkpt>
      <trkpt lat="38.816419998183846" lon="-0.374650033190846">
        <ele>385.96484375</ele>
        <time>2017-12-21T23:54:23Z</time>
      </trkpt>
      <trkpt lat="38.816350009292364" lon="-0.374639974907041">
        <ele>385.77734375</ele>
        <time>2017-12-21T23:56:23Z</time>
      </trkpt>
      <trkpt lat="38.81632000207901" lon="-0.374639974907041">
        <ele>385.734375</ele>
        <time>2017-12-21T23:58:23Z</time>
      </trkpt>
      <trkpt lat="38.816289994865656" lon="-0.374639974907041">
        <ele>385.6953125</ele>
        <time>2017-12-22T00:00:23Z</time>
      </trkpt>
      <trkpt lat="38.816259987652302" lon="-0.374660007655621">
        <ele>385.453125</ele>
        <time>2017-12-22T00:02:23Z</time>
      </trkpt>
      <trkpt lat="38.816229980438948" lon="-0.374669982120395">
        <ele>385.34375</ele>
        <time>2017-12-22T00:04:23Z</time>
      </trkpt>
      <trkpt lat="38.816189998760819" lon="-0.374720022082329">
        <ele>385.03125</ele>
        <time>2017-12-22T00:06:23Z</time>
      </trkpt>
      <trkpt lat="38.816020013764501" lon="-0.37493996322155">
        <ele>383.37109375</ele>
        <time>2017-12-22T00:08:23Z</time>
      </trkpt>
      <trkpt lat="38.815999981015921" lon="-0.374950021505356">
        <ele>383.23828125</ele>
        <time>2017-12-22T00:10:23Z</time>
      </trkpt>
      <trkpt lat="38.815990006551147" lon="-0.37495999597013">
        <ele>383.125</ele>
        <time>2017-12-22T00:12:23Z</time>
      </trkpt>
      <trkpt lat="38.815980032086372" lon="-0.37495999597013">
        <ele>383.09375</ele>
        <time>2017-12-22T00:14:23Z</time>
      </trkpt>
      <trkpt lat="38.815959999337792" lon="-0.37495999597013">
        <ele>382.90625</ele>
        <time>2017-12-22T00:16:23Z</time>
      </trkpt>
      <trkpt lat="38.815950024873018" lon="-0.37495999597013">
        <ele>382.80859375</ele>
        <time>2017-12-22T00:18:23Z</time>
      </trkpt>
      <trkpt lat="38.815929992124438" lon="-0.374950021505356">
        <ele>382.69140625</ele>
        <time>2017-12-22T00:20:23Z</time>
      </trkpt>
      <trkpt lat="38.81589001044631" lon="-0.37493996322155">
        <ele>382.40625</ele>
        <time>2017-12-22T00:22:23Z</time>
      </trkpt>
      <trkpt lat="38.815679959952831" lon="-0.374750029295683">
        <ele>383.1953125</ele>
        <time>2017-12-22T00:24:23Z</time>
      </trkpt>
      <trkpt lat="38.815639978274703" lon="-0.374739971011877">
        <ele>383.23046875</ele>
        <time>2017-12-22T00:26:23Z</time>
      </trkpt>
      <trkpt lat="38.815609971061349" lon="-0.374739971011877">
        <ele>383.23046875</ele>
        <time>2017-12-22T00:28:23Z</time>
      </trkpt>
      <trkpt lat="38.815579963847995" lon="-0.374750029295683">
        <ele>383.31640625</ele>
        <time>2017-12-22T00:30:23Z</time>
      </trkpt>
      <trkpt lat="38.815539982169867" lon="-0.374769978225231">
        <ele>383.36328125</ele>
        <time>2017-12-22T00:32:23Z</time>
      </trkpt>
      <trkpt lat="38.815469993278384" lon="-0.374829992651939">
        <ele>382.66015625</ele>
        <time>2017-12-22T00:34:23Z</time>
      </trkpt>
      <trkpt lat="38.815219961106777" lon="-0.375210028141737">
        <ele>378.47265625</ele>
        <time>2017-12-22T00:36:23Z</time>
      </trkpt>
      <trkpt lat="38.814919972792268" lon="-0.375619987025857">
        <ele>374.57421875</ele>
        <time>2017-12-22T00:38:23Z</time>
      </trkpt>
      <trkpt lat="38.814919972792268" lon="-0.375619987025857">
        <ele>374.57421875</ele>
        <time>2017-12-22T00:40:23Z</time>
      </trkpt>
      <trkpt lat="38.814730038866401" lon="-0.375519990921021">
        <ele>374.84375</ele>
        <time>2017-12-22T00:42:23Z</time>
      </trkpt>
      <trkpt lat="38.814570028334856" lon="-0.375450002029538">
        <ele>374.015625</ele>
        <time>2017-12-22T00:44:23Z</time>
      </trkpt>
      <trkpt lat="38.814480006694794" lon="-0.375399962067604">
        <ele>373.9921875</ele>
        <time>2017-12-22T00:46:23Z</time>
      </trkpt>
      <trkpt lat="38.814370036125183" lon="-0.375340031459928">
        <ele>373.59765625</ele>
        <time>2017-12-22T00:48:23Z</time>
      </trkpt>
      <trkpt lat="38.814280014485121" lon="-0.375280017033219">
        <ele>373.72265625</ele>
        <time>2017-12-22T00:50:23Z</time>
      </trkpt>
      <trkpt lat="38.814120003953576" lon="-0.375140039250255">
        <ele>373.0703125</ele>
        <time>2017-12-22T00:52:23Z</time>
      </trkpt>
      <trkpt lat="38.81404004059732" lon="-0.375069966539741">
        <ele>373.078125</ele>
        <time>2017-12-22T00:54:23Z</time>
      </trkpt>
      <trkpt lat="38.81399997510016" lon="-0.375050017610192">
        <ele>372.94921875</ele>
        <time>2017-12-22T00:56:23Z</time>
      </trkpt>
      <trkpt lat="38.813959993422031" lon="-0.375029984861612">
        <ele>372.9296875</ele>
        <time>2017-12-22T00:58:23Z</time>
      </trkpt>
      <trkpt lat="38.813920011743903" lon="-0.375010035932064">
        <ele>372.94140625</ele>
        <time>2017-12-22T01:00:23Z</time>
      </trkpt>
      <trkpt lat="38.813880030065775" lon="-0.374999977648258">
        <ele>372.87890625</ele>
        <time>2017-12-22T01:02:23Z</time>
      </trkpt>
      <trkpt lat="38.813820015639067" lon="-0.374999977648258">
        <ele>372.828125</ele>
        <time>2017-12-22T01:04:23Z</time>
      </trkpt>
      <trkpt lat="38.813729993999004" lon="-0.375010035932064">
        <ele>372.875</ele>
        <time>2017-12-22T01:06:23Z</time>
      </trkpt>
      <trkpt lat="38.813680037856102" lon="-0.375020010396838">
        <ele>372.76171875</ele>
        <time>2017-12-22T01:08:23Z</time>
      </trkpt>
      <trkpt lat="38.81359001621604" lon="-0.375039959326386">
        <ele>372.55078125</ele>
        <time>2017-12-22T01:10:23Z</time>
      </trkpt>
      <trkpt lat="38.813239987939596" lon="-0.375120006501675">
        <ele>371.66796875</ele>
        <time>2017-12-22T01:12:23Z</time>
      </trkpt>
      <trkpt lat="38.812879985198379" lon="-0.375199969857931">
        <ele>369.1640625</ele>
        <time>2017-12-22T01:14:23Z</time>
      </trkpt>
      <trkpt lat="38.81268996745348" lon="-0.375250009819865">
        <ele>368.25390625</ele>
        <time>2017-12-22T01:16:23Z</time>
      </trkpt>
      <trkpt lat="38.812649985775352" lon="-0.375259984284639">
        <ele>367.90234375</ele>
        <time>2017-12-22T01:18:23Z</time>
      </trkpt>
      <trkpt lat="38.812559964135289" lon="-0.375289991497993">
        <ele>367.88671875</ele>
        <time>2017-12-22T01:20:23Z</time>
      </trkpt>
      <trkpt lat="38.812500033527613" lon="-0.375329973176122">
        <ele>367.69140625</ele>
        <time>2017-12-22T01:22:23Z</time>
      </trkpt>
      <trkpt lat="38.812440019100904" lon="-0.375380013138056">
        <ele>367.25390625</ele>
        <time>2017-12-22T01:24:23Z</time>
      </trkpt>
      <trkpt lat="38.812089990824461" lon="-0.375629961490631">
        <ele>364.43359375</ele>
        <time>2017-12-22T01:26:23Z</time>
      </trkpt>
      <trkpt lat="38.811910031363368" lon="-0.375779997557402">
        <ele>362.76171875</ele>
        <time>2017-12-22T01:28:23Z</time>
      </trkpt>
      <trkpt lat="38.811720013618469" lon="-0.375919975340366">
        <ele>361.76171875</ele>
        <time>2017-12-22T01:30:23Z</time>
      </trkpt>
      <trkpt lat="38.811539970338345" lon="-0.376060036942363">
        <ele>360.6015625</ele>
        <time>2017-12-22T01:32:23Z</time>
      </trkpt>
      <trkpt lat="38.81150996312499" lon="-0.376079985871911">
        <ele>360.44140625</ele>
        <time>2017-12-22T01:34:23Z</time>
      </trkpt>
      <trkpt lat="38.811469981446862" lon="-0.376089960336685">
        <ele>360.25390625</ele>
        <time>2017-12-22T01:36:23Z</time>
      </trkpt>
      <trkpt lat="38.811439974233508" lon="-0.376100018620491">
        <ele>360.15625</ele>
        <time>2017-12-22T01:38:23Z</time>
      </trkpt>
      <trkpt lat="38.811409967020154" lon="-0.376100018620491">
        <ele>360.01953125</ele>
        <time>2017-12-22T01:40:23Z</time>
      </trkpt>
      <trkpt lat="38.811369985342026" lon="-0.376100018620491">
        <ele>359.84375</ele>
        <time>2017-12-22T01:42:23Z</time>
      </trkpt>
      <trkpt lat="38.811339978128672" lon="-0.376100018620491">
        <ele>359.640625</ele>
        <time>2017-12-22T01:44:23Z</time>
      </trkpt>
      <trkpt lat="38.811320029199123" lon="-0.376089960336685">
        <ele>359.41015625</ele>
        <time>2017-12-22T01:46:23Z</time>
      </trkpt>
      <trkpt lat="38.811260014772415" lon="-0.376049978658557">
        <ele>358.796875</ele>
        <time>2017-12-22T01:48:23Z</time>
      </trkpt>
      <trkpt lat="38.811109978705645" lon="-0.375960040837526">
        <ele>358.234375</ele>
        <time>2017-12-22T01:50:23Z</time>
      </trkpt>
      <trkpt lat="38.81107997149229" lon="-0.375930033624172">
        <ele>358.15625</ele>
        <time>2017-12-22T01:52:23Z</time>
      </trkpt>
      <trkpt lat="38.811039989814162" lon="-0.375910000875592">
        <ele>358.30078125</ele>
        <time>2017-12-22T01:54:23Z</time>
      </trkpt>
      <trkpt lat="38.811000008136034" lon="-0.375900026410818">
        <ele>358.46875</ele>
        <time>2017-12-22T01:56:23Z</time>
      </trkpt>
      <trkpt lat="38.810930019244552" lon="-0.375889968127012">
        <ele>358.96875</ele>
        <time>2017-12-22T01:58:23Z</time>
      </trkpt>
      <trkpt lat="38.810890037566423" lon="-0.375889968127012">
        <ele>359.22265625</ele>
        <time>2017-12-22T02:00:23Z</time>
      </trkpt>
      <trkpt lat="38.810839997604489" lon="-0.375889968127012">
        <ele>359.55078125</ele>
        <time>2017-12-22T02:02:23Z</time>
      </trkpt>
      <trkpt lat="38.810809990391135" lon="-0.375889968127012">
        <ele>359.74609375</ele>
        <time>2017-12-22T02:04:23Z</time>
      </trkpt>
      <trkpt lat="38.810760034248233" lon="-0.375910000875592">
        <ele>359.7109375</ele>
        <time>2017-12-22T02:06:23Z</time>
      </trkpt>
      <trkpt lat="38.810689961537719" lon="-0.375940008088946">
        <ele>359.48828125</ele>
        <time>2017-12-22T02:08:23Z</time>
      </trkpt>
      <trkpt lat="38.810379998758435" lon="-0.376130025833845">
        <ele>358.11328125</ele>
        <time>2017-12-22T02:10:23Z</time>
      </trkpt>
      <trkpt lat="38.810280002653599" lon="-0.376190040260553">
        <ele>357.5234375</ele>
        <time>2017-12-22T02:12:23Z</time>
      </trkpt>
      <trkpt lat="38.810059977695346" lon="-0.376330018043518">
        <ele>357.265625</ele>
        <time>2017-12-22T02:14:23Z</time>
      </trkpt>
      <trkpt lat="38.809829978272319" lon="-0.376469995826483">
        <ele>358.7734375</ele>
        <time>2017-12-22T02:16:23Z</time>
      </trkpt>
      <trkpt lat="38.809690000489354" lon="-0.376560017466545">
        <ele>359.32421875</ele>
        <time>2017-12-22T02:18:23Z</time>
      </trkpt>
      <trkpt lat="38.809590004384518" lon="-0.376609973609447">
        <ele>359.47265625</ele>
        <time>2017-12-22T02:20:23Z</time>
      </trkpt>
      <trkpt lat="38.809559997171164" lon="-0.376630006358027">
        <ele>359.27734375</ele>
        <time>2017-12-22T02:22:23Z</time>
      </trkpt>
      <trkpt lat="38.809520015493035" lon="-0.376639980822802">
        <ele>359.17578125</ele>
        <time>2017-12-22T02:24:23Z</time>
      </trkpt>
      <trkpt lat="38.809480033814907" lon="-0.376639980822802">
        <ele>359.17578125</ele>
        <time>2017-12-22T02:26:23Z</time>
      </trkpt>
      <trkpt lat="38.809429993852973" lon="-0.376639980822802">
        <ele>359.17578125</ele>
        <time>2017-12-22T02:28:23Z</time>
      </trkpt>
      <trkpt lat="38.809369979426265" lon="-0.376620031893253">
        <ele>359.375</ele>
        <time>2017-12-22T02:30:23Z</time>
      </trkpt>
      <trkpt lat="38.809179961681366" lon="-0.376549959182739">
        <ele>359.0859375</ele>
        <time>2017-12-22T02:32:23Z</time>
      </trkpt>
      <trkpt lat="38.808819958940148" lon="-0.376390032470226">
        <ele>358.90625</ele>
        <time>2017-12-22T02:34:23Z</time>
      </trkpt>
      <trkpt lat="38.808770002797246" lon="-0.376369999721646">
        <ele>359.1015625</ele>
        <time>2017-12-22T02:36:23Z</time>
      </trkpt>
      <trkpt lat="38.808570010587573" lon="-0.37629003636539">
        <ele>360.0234375</ele>
        <time>2017-12-22T02:38:23Z</time>
      </trkpt>
      <trkpt lat="38.808259963989258" lon="-0.376140000298619">
        <ele>360.83984375</ele>
        <time>2017-12-22T02:40:23Z</time>
      </trkpt>
      <trkpt lat="38.807959975674748" lon="-0.376009996980429">
        <ele>360.875</ele>
        <time>2017-12-22T02:42:23Z</time>
      </trkpt>
      <trkpt lat="38.80789996124804" lon="-0.375979989767075">
        <ele>360.875</ele>
        <time>2017-12-22T02:44:23Z</time>
      </trkpt>
      <trkpt lat="38.807870037853718" lon="-0.375960040837526">
        <ele>360.875</ele>
        <time>2017-12-22T02:46:23Z</time>
      </trkpt>
      <trkpt lat="38.807840030640364" lon="-0.375919975340366">
        <ele>360.875</ele>
        <time>2017-12-22T02:48:23Z</time>
      </trkpt>
      <trkpt lat="38.807799965143204" lon="-0.375879993662238">
        <ele>360.875</ele>
        <time>2017-12-22T02:50:23Z</time>
      </trkpt>
      <trkpt lat="38.807729976251721" lon="-0.375789972022176">
        <ele>360.83203125</ele>
        <time>2017-12-22T02:52:23Z</time>
      </trkpt>
      <trkpt lat="38.807450020685792" lon="-0.37538998760283">
        <ele>357.96484375</ele>
        <time>2017-12-22T02:54:23Z</time>
      </trkpt>
      <trkpt lat="38.807420013472438" lon="-0.375350005924702">
        <ele>357.640625</ele>
        <time>2017-12-22T02:56:23Z</time>
      </trkpt>
      <trkpt lat="38.807320017367601" lon="-0.375169962644577">
        <ele>356.2578125</ele>
        <time>2017-12-22T02:58:23Z</time>
      </trkpt>
      <trkpt lat="38.807129999622703" lon="-0.374799985438585">
        <ele>354.8515625</ele>
        <time>2017-12-22T03:00:23Z</time>
      </trkpt>
      <trkpt lat="38.807020029053092" lon="-0.374599993228912">
        <ele>353.92578125</ele>
        <time>2017-12-22T03:02:23Z</time>
      </trkpt>
      <trkpt lat="38.806590037420392" lon="-0.373809998854995">
        <ele>352.21484375</ele>
        <time>2017-12-22T03:04:23Z</time>
      </trkpt>
      <trkpt lat="38.806539997458458" lon="-0.373719977214932">
        <ele>351.94140625</ele>
        <time>2017-12-22T03:06:23Z</time>
      </trkpt>
      <trkpt lat="38.806460034102201" lon="-0.373579999431968">
        <ele>351.015625</ele>
        <time>2017-12-22T03:08:23Z</time>
      </trkpt>
      <trkpt lat="38.806379986926913" lon="-0.373410014435649">
        <ele>349.6875</ele>
        <time>2017-12-22T03:10:23Z</time>
      </trkpt>
      <trkpt lat="38.806319972500205" lon="-0.373289985582232">
        <ele>348.484375</ele>
        <time>2017-12-22T03:12:23Z</time>
      </trkpt>
      <trkpt lat="38.806230034679174" lon="-0.373050011694431">
        <ele>349.1484375</ele>
        <time>2017-12-22T03:14:23Z</time>
      </trkpt>
      <trkpt lat="38.806170020252466" lon="-0.372880026698112">
        <ele>348.1953125</ele>
        <time>2017-12-22T03:16:23Z</time>
      </trkpt>
      <trkpt lat="38.806149987503886" lon="-0.372829986736178">
        <ele>347.765625</ele>
        <time>2017-12-22T03:18:23Z</time>
      </trkpt>
      <trkpt lat="38.806140013039112" lon="-0.372780030593276">
        <ele>347.7421875</ele>
        <time>2017-12-22T03:20:23Z</time>
      </trkpt>
      <trkpt lat="38.806130038574338" lon="-0.372699983417988">
        <ele>347.82421875</ele>
        <time>2017-12-22T03:22:23Z</time>
      </trkpt>
      <trkpt lat="38.806130038574338" lon="-0.372590012848377">
        <ele>348.26953125</ele>
        <time>2017-12-22T03:24:23Z</time>
      </trkpt>
      <trkpt lat="38.806140013039112" lon="-0.372439976781607">
        <ele>347.66015625</ele>
        <time>2017-12-22T03:26:23Z</time>
      </trkpt>
      <trkpt lat="38.80615996196866" lon="-0.372030017897487">
        <ele>347.05078125</ele>
        <time>2017-12-22T03:28:23Z</time>
      </trkpt>
      <trkpt lat="38.806189969182014" lon="-0.371649982407689">
        <ele>344.7578125</ele>
        <time>2017-12-22T03:30:23Z</time>
      </trkpt>
      <trkpt lat="38.80620002746582" lon="-0.371579993516207">
        <ele>344.24609375</ele>
        <time>2017-12-22T03:32:23Z</time>
      </trkpt>
      <trkpt lat="38.806210001930594" lon="-0.371540011838078">
        <ele>344.05078125</ele>
        <time>2017-12-22T03:34:23Z</time>
      </trkpt>
      <trkpt lat="38.806219976395369" lon="-0.37147999741137">
        <ele>343.65234375</ele>
        <time>2017-12-22T03:36:23Z</time>
      </trkpt>
      <trkpt lat="38.806360037997365" lon="-0.371019998565316">
        <ele>343.25</ele>
        <time>2017-12-22T03:38:23Z</time>
      </trkpt>
      <trkpt lat="38.806400019675493" lon="-0.3708999697119">
        <ele>342.45703125</ele>
        <time>2017-12-22T03:40:23Z</time>
      </trkpt>
      <trkpt lat="38.806430026888847" lon="-0.370850013568997">
        <ele>342.125</ele>
        <time>2017-12-22T03:42:23Z</time>
      </trkpt>
      <trkpt lat="38.806460034102201" lon="-0.370799973607063">
        <ele>341.69140625</ele>
        <time>2017-12-22T03:44:23Z</time>
      </trkpt>
      <trkpt lat="38.806490041315556" lon="-0.370759991928935">
        <ele>341.69921875</ele>
        <time>2017-12-22T03:46:23Z</time>
      </trkpt>
      <trkpt lat="38.806519964709878" lon="-0.370720010250807">
        <ele>341.51953125</ele>
        <time>2017-12-22T03:48:23Z</time>
      </trkpt>
      <trkpt lat="38.806539997458458" lon="-0.370699977502227">
        <ele>341.3671875</ele>
        <time>2017-12-22T03:50:23Z</time>
      </trkpt>
      <trkpt lat="38.806579979136586" lon="-0.370669970288873">
        <ele>341.6953125</ele>
        <time>2017-12-22T03:52:23Z</time>
      </trkpt>
      <trkpt lat="38.806619960814714" lon="-0.370639963075519">
        <ele>341.7734375</ele>
        <time>2017-12-22T03:54:23Z</time>
      </trkpt>
      <trkpt lat="38.806809978559613" lon="-0.370559999719262">
        <ele>342.34765625</ele>
        <time>2017-12-22T03:56:23Z</time>
      </trkpt>
      <trkpt lat="38.806939981877804" lon="-0.370499985292554">
        <ele>341.4921875</ele>
        <time>2017-12-22T03:58:23Z</time>
      </trkpt>
      <trkpt lat="38.806979963555932" lon="-0.370480036363006">
        <ele>341.30078125</ele>
        <time>2017-12-22T04:00:23Z</time>
      </trkpt>
      <trkpt lat="38.807020029053092" lon="-0.370450029149652">
        <ele>341.14453125</ele>
        <time>2017-12-22T04:02:23Z</time>
      </trkpt>
      <trkpt lat="38.80703997798264" lon="-0.370429996401072">
        <ele>341.078125</ele>
        <time>2017-12-22T04:04:23Z</time>
      </trkpt>
      <trkpt lat="38.807069985195994" lon="-0.370399989187717">
        <ele>340.95703125</ele>
        <time>2017-12-22T04:06:23Z</time>
      </trkpt>
      <trkpt lat="38.807090017944574" lon="-0.370380040258169">
        <ele>340.90625</ele>
        <time>2017-12-22T04:08:23Z</time>
      </trkpt>
      <trkpt lat="38.807109966874123" lon="-0.370339974761009">
        <ele>340.73046875</ele>
        <time>2017-12-22T04:10:23Z</time>
      </trkpt>
      <trkpt lat="38.807129999622703" lon="-0.370279960334301">
        <ele>340.53125</ele>
        <time>2017-12-22T04:12:23Z</time>
      </trkpt>
      <trkpt lat="38.807139974087477" lon="-0.370250036939979">
        <ele>340.49609375</ele>
        <time>2017-12-22T04:14:23Z</time>
      </trkpt>
      <trkpt lat="38.807150032371283" lon="-0.370199996978045">
        <ele>340.48828125</ele>
        <time>2017-12-22T04:16:23Z</time>
      </trkpt>
      <trkpt lat="38.807150032371283" lon="-0.370160015299916">
        <ele>340.35546875</ele>
        <time>2017-12-22T04:18:23Z</time>
      </trkpt>
      <trkpt lat="38.807150032371283" lon="-0.370150040835142">
        <ele>340.32421875</ele>
        <time>2017-12-22T04:20:23Z</time>
      </trkpt>
      <trkpt lat="38.807150032371283" lon="-0.370069993659854">
        <ele>340.01953125</ele>
        <time>2017-12-22T04:22:23Z</time>
      </trkpt>
      <trkpt lat="38.807150032371283" lon="-0.369920041412115">
        <ele>340.0859375</ele>
        <time>2017-12-22T04:24:23Z</time>
      </trkpt>
      <trkpt lat="38.807150032371283" lon="-0.369870001450181">
        <ele>340.4140625</ele>
        <time>2017-12-22T04:26:23Z</time>
      </trkpt>
      <trkpt lat="38.807150032371283" lon="-0.369830019772053">
        <ele>340.33203125</ele>
        <time>2017-12-22T04:28:23Z</time>
      </trkpt>
      <trkpt lat="38.807150032371283" lon="-0.369790038093925">
        <ele>340.22265625</ele>
        <time>2017-12-22T04:30:23Z</time>
      </trkpt>
      <trkpt lat="38.807160006836057" lon="-0.36973999813199">
        <ele>339.98828125</ele>
        <time>2017-12-22T04:32:23Z</time>
      </trkpt>
      <trkpt lat="38.807169981300831" lon="-0.369700016453862">
        <ele>339.703125</ele>
        <time>2017-12-22T04:34:23Z</time>
      </trkpt>
      <trkpt lat="38.807180039584637" lon="-0.369660034775734">
        <ele>339.33203125</ele>
        <time>2017-12-22T04:36:23Z</time>
      </trkpt>
      <trkpt lat="38.807209962978959" lon="-0.369600020349026">
        <ele>338.84765625</ele>
        <time>2017-12-22T04:38:23Z</time>
      </trkpt>
      <trkpt lat="38.807239970192313" lon="-0.369549980387092">
        <ele>338.6328125</ele>
        <time>2017-12-22T04:40:23Z</time>
      </trkpt>
      <trkpt lat="38.807250028476119" lon="-0.369519973173738">
        <ele>338.33984375</ele>
        <time>2017-12-22T04:42:23Z</time>
      </trkpt>
      <trkpt lat="38.807299984619021" lon="-0.369449984282255">
        <ele>338.35546875</ele>
        <time>2017-12-22T04:44:23Z</time>
      </trkpt>
      <trkpt lat="38.80733996629715" lon="-0.369400028139353">
        <ele>338.64453125</ele>
        <time>2017-12-22T04:46:23Z</time>
      </trkpt>
      <trkpt lat="38.807629980146885" lon="-0.369040025398135">
        <ele>337.9765625</ele>
        <time>2017-12-22T04:48:23Z</time>
      </trkpt>
      <trkpt lat="38.807989982888103" lon="-0.368620008230209">
        <ele>336.47265625</ele>
        <time>2017-12-22T04:50:23Z</time>
      </trkpt>
      <trkpt lat="38.80834998562932" lon="-0.368250031024218">
        <ele>335.22265625</ele>
        <time>2017-12-22T04:52:23Z</time>
      </trkpt>
      <trkpt lat="38.808600017800927" lon="-0.368009973317385">
        <ele>333.7421875</ele>
        <time>2017-12-22T04:54:23Z</time>
      </trkpt>
      <trkpt lat="38.808960020542145" lon="-0.367660028859973">
        <ele>333.3203125</ele>
        <time>2017-12-22T04:56:23Z</time>
      </trkpt>
      <trkpt lat="38.809179961681366" lon="-0.367449978366494">
        <ele>332.76953125</ele>
        <time>2017-12-22T04:58:23Z</time>
      </trkpt>
      <trkpt lat="38.809260008856654" lon="-0.367370015010238">
        <ele>333.43359375</ele>
        <time>2017-12-22T05:00:23Z</time>
      </trkpt>
      <trkpt lat="38.809290016070008" lon="-0.367349982261658">
        <ele>333.59375</ele>
        <time>2017-12-22T05:02:23Z</time>
      </trkpt>
      <trkpt lat="38.809320023283362" lon="-0.367310000583529">
        <ele>333.43359375</ele>
        <time>2017-12-22T05:04:23Z</time>
      </trkpt>
      <trkpt lat="38.809339972212911" lon="-0.367270018905401">
        <ele>333.125</ele>
        <time>2017-12-22T05:06:23Z</time>
      </trkpt>
      <trkpt lat="38.809360004961491" lon="-0.367230037227273">
        <ele>332.9296875</ele>
        <time>2017-12-22T05:08:23Z</time>
      </trkpt>
      <trkpt lat="38.809369979426265" lon="-0.367219978943467">
        <ele>333</ele>
        <time>2017-12-22T05:10:23Z</time>
      </trkpt>
      <trkpt lat="38.809399986639619" lon="-0.367130041122437">
        <ele>333.21484375</ele>
        <time>2017-12-22T05:12:23Z</time>
      </trkpt>
      <trkpt lat="38.809469975531101" lon="-0.366910016164184">
        <ele>333.2578125</ele>
        <time>2017-12-22T05:14:23Z</time>
      </trkpt>
      <trkpt lat="38.809520015493035" lon="-0.366780012845993">
        <ele>333.91796875</ele>
        <time>2017-12-22T05:16:23Z</time>
      </trkpt>
      <trkpt lat="38.809539964422584" lon="-0.366729972884059">
        <ele>333.98828125</ele>
        <time>2017-12-22T05:18:23Z</time>
      </trkpt>
      <trkpt lat="38.809569971635938" lon="-0.366680016741157">
        <ele>334.20703125</ele>
        <time>2017-12-22T05:20:23Z</time>
      </trkpt>
      <trkpt lat="38.809610037133098" lon="-0.366640035063028">
        <ele>334.56640625</ele>
        <time>2017-12-22T05:22:23Z</time>
      </trkpt>
      <trkpt lat="38.809659993276" lon="-0.366589995101094">
        <ele>334.6640625</ele>
        <time>2017-12-22T05:24:23Z</time>
      </trkpt>
      <trkpt lat="38.809780022129416" lon="-0.366480024531484">
        <ele>334.9140625</ele>
        <time>2017-12-22T05:26:23Z</time>
      </trkpt>
      <trkpt lat="38.809919999912381" lon="-0.366380028426647">
        <ele>335.87890625</ele>
        <time>2017-12-22T05:28:23Z</time>
      </trkpt>
      <trkpt lat="38.810050003230572" lon="-0.366299981251359">
        <ele>336.125</ele>
        <time>2017-12-22T05:30:23Z</time>
      </trkpt>
      <trkpt lat="38.810099959373474" lon="-0.366290006786585">
        <ele>336.140625</ele>
        <time>2017-12-22T05:32:23Z</time>
      </trkpt>
      <trkpt lat="38.810140024870634" lon="-0.366269974038005">
        <ele>335.9921875</ele>
        <time>2017-12-22T05:34:23Z</time>
      </trkpt>
      <trkpt lat="38.810310009866953" lon="-0.366239966824651">
        <ele>335.4921875</ele>
        <time>2017-12-22T05:36:23Z</time>
      </trkpt>
      <trkpt lat="38.810379998758435" lon="-0.366220017895103">
        <ele>334.83984375</ele>
        <time>2017-12-22T05:38:23Z</time>
      </trkpt>
      <trkpt lat="38.810489969328046" lon="-0.366209959611297">
        <ele>334.1328125</ele>
        <time>2017-12-22T05:40:23Z</time>
      </trkpt>
      <trkpt lat="38.810570016503334" lon="-0.366199985146523">
        <ele>333.9765625</ele>
        <time>2017-12-22T05:42:23Z</time>
      </trkpt>
      <trkpt lat="38.810609998181462" lon="-0.366190010681748">
        <ele>333.91015625</ele>
        <time>2017-12-22T05:44:23Z</time>
      </trkpt>
      <trkpt lat="38.810660038143396" lon="-0.366180036216974">
        <ele>334.16015625</ele>
        <time>2017-12-22T05:46:23Z</time>
      </trkpt>
      <trkpt lat="38.810719968751073" lon="-0.366160003468394">
        <ele>334.3671875</ele>
        <time>2017-12-22T05:48:23Z</time>
      </trkpt>
      <trkpt lat="38.810900012031198" lon="-0.366069981828332">
        <ele>334.42578125</ele>
        <time>2017-12-22T05:50:23Z</time>
      </trkpt>
      <trkpt lat="38.810979975387454" lon="-0.366039974614978">
        <ele>334.70703125</ele>
        <time>2017-12-22T05:52:23Z</time>
      </trkpt>
      <trkpt lat="38.811049964278936" lon="-0.366009967401624">
        <ele>334.23046875</ele>
        <time>2017-12-22T05:54:23Z</time>
      </trkpt>
      <trkpt lat="38.81110000424087" lon="-0.365990018472075">
        <ele>334.06640625</ele>
        <time>2017-12-22T05:56:23Z</time>
      </trkpt>
      <trkpt lat="38.81112003698945" lon="-0.365990018472075">
        <ele>334.19921875</ele>
        <time>2017-12-22T05:58:23Z</time>
      </trkpt>
      <trkpt lat="38.811230007559061" lon="-0.365960011258721">
        <ele>334.4296875</ele>
        <time>2017-12-22T06:00:23Z</time>
      </trkpt>
      <trkpt lat="38.811279963701963" lon="-0.365950036793947">
        <ele>334.4609375</ele>
        <time>2017-12-22T06:02:23Z</time>
      </trkpt>
      <trkpt lat="38.811339978128672" lon="-0.365950036793947">
        <ele>334.4609375</ele>
        <time>2017-12-22T06:04:23Z</time>
      </trkpt>
      <trkpt lat="38.811390018090606" lon="-0.365950036793947">
        <ele>334.421875</ele>
        <time>2017-12-22T06:06:23Z</time>
      </trkpt>
      <trkpt lat="38.811469981446862" lon="-0.365960011258721">
        <ele>334.44140625</ele>
        <time>2017-12-22T06:08:23Z</time>
      </trkpt>
      <trkpt lat="38.81155002862215" lon="-0.36597996018827">
        <ele>334.5703125</ele>
        <time>2017-12-22T06:10:23Z</time>
      </trkpt>
      <trkpt lat="38.811620017513633" lon="-0.36599999293685">
        <ele>334.3125</ele>
        <time>2017-12-22T06:12:23Z</time>
      </trkpt>
      <trkpt lat="38.811680031940341" lon="-0.366009967401624">
        <ele>333.8515625</ele>
        <time>2017-12-22T06:14:23Z</time>
      </trkpt>
      <trkpt lat="38.811720013618469" lon="-0.36602002568543">
        <ele>333.5546875</ele>
        <time>2017-12-22T06:16:23Z</time>
      </trkpt>
      <trkpt lat="38.811769969761372" lon="-0.36602002568543">
        <ele>333.28515625</ele>
        <time>2017-12-22T06:18:23Z</time>
      </trkpt>
      <trkpt lat="38.811799976974726" lon="-0.366009967401624">
        <ele>333</ele>
        <time>2017-12-22T06:20:23Z</time>
      </trkpt>
      <trkpt lat="38.81182998418808" lon="-0.366009967401624">
        <ele>333.046875</ele>
        <time>2017-12-22T06:22:23Z</time>
      </trkpt>
      <trkpt lat="38.811859991401434" lon="-0.365990018472075">
        <ele>333.08203125</ele>
        <time>2017-12-22T06:24:23Z</time>
      </trkpt>
      <trkpt lat="38.811880024150014" lon="-0.365969985723495">
        <ele>333.0390625</ele>
        <time>2017-12-22T06:26:23Z</time>
      </trkpt>
      <trkpt lat="38.811920005828142" lon="-0.365939978510141">
        <ele>333.12890625</ele>
        <time>2017-12-22T06:28:23Z</time>
      </trkpt>
      <trkpt lat="38.81195998750627" lon="-0.365890022367239">
        <ele>333.27734375</ele>
        <time>2017-12-22T06:30:23Z</time>
      </trkpt>
      <trkpt lat="38.811989994719625" lon="-0.365830007940531">
        <ele>333.0859375</ele>
        <time>2017-12-22T06:32:23Z</time>
      </trkpt>
      <trkpt lat="38.812080016359687" lon="-0.36567997187376">
        <ele>333.4140625</ele>
        <time>2017-12-22T06:34:23Z</time>
      </trkpt>
      <trkpt lat="38.812110023573041" lon="-0.365630015730858">
        <ele>333.36328125</ele>
        <time>2017-12-22T06:36:23Z</time>
      </trkpt>
      <trkpt lat="38.812140030786395" lon="-0.36559003405273">
        <ele>333.41015625</ele>
        <time>2017-12-22T06:38:23Z</time>
      </trkpt>
      <trkpt lat="38.812180012464523" lon="-0.36554996855557">
        <ele>333.671875</ele>
        <time>2017-12-22T06:40:23Z</time>
      </trkpt>
      <trkpt lat="38.812219994142652" lon="-0.365509986877441">
        <ele>333.6640625</ele>
        <time>2017-12-22T06:42:23Z</time>
      </trkpt>
      <trkpt lat="38.81225997582078" lon="-0.365490037947893">
        <ele>333.796875</ele>
        <time>2017-12-22T06:44:23Z</time>
      </trkpt>
      <trkpt lat="38.812319990247488" lon="-0.365449972450733">
        <ele>333.67578125</ele>
        <time>2017-12-22T06:46:23Z</time>
      </trkpt>
      <trkpt lat="38.812340022996068" lon="-0.365439997985959">
        <ele>333.6015625</ele>
        <time>2017-12-22T06:48:23Z</time>
      </trkpt>
      <trkpt lat="38.812540015205741" lon="-0.365340001881123">
        <ele>334.1796875</ele>
        <time>2017-12-22T06:50:23Z</time>
      </trkpt>
      <trkpt lat="38.812640011310577" lon="-0.365300020202994">
        <ele>334.75</ele>
        <time>2017-12-22T06:52:23Z</time>
      </trkpt>
      <trkpt lat="38.812800021842122" lon="-0.365230031311512">
        <ele>335.35546875</ele>
        <time>2017-12-22T06:54:23Z</time>
      </trkpt>
      <trkpt lat="38.812889959663153" lon="-0.365170016884804">
        <ele>334.7421875</ele>
        <time>2017-12-22T06:56:23Z</time>
      </trkpt>
      <trkpt lat="38.813220039010048" lon="-0.365030039101839">
        <ele>335.21875</ele>
        <time>2017-12-22T06:58:23Z</time>
      </trkpt>
      <trkpt lat="38.813349958509207" lon="-0.364970024675131">
        <ele>333.94921875</ele>
        <time>2017-12-22T07:00:23Z</time>
      </trkpt>
      <trkpt lat="38.813560009002686" lon="-0.364870028570294">
        <ele>332.1796875</ele>
        <time>2017-12-22T07:02:23Z</time>
      </trkpt>
      <trkpt lat="38.813620023429394" lon="-0.364829963073134">
        <ele>332.375</ele>
        <time>2017-12-22T07:04:23Z</time>
      </trkpt>
      <trkpt lat="38.814029982313514" lon="-0.364650003612041">
        <ele>334.19140625</ele>
        <time>2017-12-22T07:06:23Z</time>
      </trkpt>
      <trkpt lat="38.814089996740222" lon="-0.364619996398687">
        <ele>333.859375</ele>
        <time>2017-12-22T07:08:23Z</time>
      </trkpt>
      <trkpt lat="38.814169960096478" lon="-0.364589989185333">
        <ele>333.65625</ele>
        <time>2017-12-22T07:10:23Z</time>
      </trkpt>
      <trkpt lat="38.814749987795949" lon="-0.364329982548952">
        <ele>333.23828125</ele>
        <time>2017-12-22T07:12:23Z</time>
      </trkpt>
      <trkpt lat="38.814930031076074" lon="-0.36423996090889">
        <ele>333.0546875</ele>
        <time>2017-12-22T07:14:23Z</time>
      </trkpt>
      <trkpt lat="38.814970012754202" lon="-0.364210037514567">
        <ele>333.171875</ele>
        <time>2017-12-22T07:16:23Z</time>
      </trkpt>
      <trkpt lat="38.815000019967556" lon="-0.364190004765987">
        <ele>333.3125</ele>
        <time>2017-12-22T07:18:23Z</time>
      </trkpt>
      <trkpt lat="38.81503002718091" lon="-0.364159997552633">
        <ele>333.51953125</ele>
        <time>2017-12-22T07:20:23Z</time>
      </trkpt>
      <trkpt lat="38.815049976110458" lon="-0.364110041409731">
        <ele>333.6484375</ele>
        <time>2017-12-22T07:22:23Z</time>
      </trkpt>
      <trkpt lat="38.815070008859038" lon="-0.364080034196377">
        <ele>333.66796875</ele>
        <time>2017-12-22T07:24:23Z</time>
      </trkpt>
      <trkpt lat="38.815079983323812" lon="-0.364050026983023">
        <ele>333.64453125</ele>
        <time>2017-12-22T07:26:23Z</time>
      </trkpt>
      <trkpt lat="38.815079983323812" lon="-0.364009961485863">
        <ele>333.6171875</ele>
        <time>2017-12-22T07:28:23Z</time>
      </trkpt>
      <trkpt lat="38.815079983323812" lon="-0.36396000534296">
        <ele>333.6171875</ele>
        <time>2017-12-22T07:30:23Z</time>
      </trkpt>
      <trkpt lat="38.815079983323812" lon="-0.363899990916252">
        <ele>333.69921875</ele>
        <time>2017-12-22T07:32:23Z</time>
      </trkpt>
      <trkpt lat="38.815070008859038" lon="-0.363869983702898">
        <ele>333.63671875</ele>
        <time>2017-12-22T07:34:23Z</time>
      </trkpt>
      <trkpt lat="38.815060034394264" lon="-0.363839976489544">
        <ele>333.5234375</ele>
        <time>2017-12-22T07:36:23Z</time>
      </trkpt>
      <trkpt lat="38.815049976110458" lon="-0.363799994811416">
        <ele>333.375</ele>
        <time>2017-12-22T07:38:23Z</time>
      </trkpt>
      <trkpt lat="38.815019968897104" lon="-0.363769987598062">
        <ele>332.9609375</ele>
        <time>2017-12-22T07:40:23Z</time>
      </trkpt>
      <trkpt lat="38.81498996168375" lon="-0.363730005919933">
        <ele>333.0625</ele>
        <time>2017-12-22T07:42:23Z</time>
      </trkpt>
      <trkpt lat="38.814619984477758" lon="-0.363419959321618">
        <ele>334.51953125</ele>
        <time>2017-12-22T07:44:23Z</time>
      </trkpt>
      <trkpt lat="38.814310021698475" lon="-0.363189959898591">
        <ele>338.11328125</ele>
        <time>2017-12-22T07:46:23Z</time>
      </trkpt>
      <trkpt lat="38.814099971204996" lon="-0.363010000437498">
        <ele>337.4921875</ele>
        <time>2017-12-22T07:48:23Z</time>
      </trkpt>
      <trkpt lat="38.814069963991642" lon="-0.36297001875937">
        <ele>337.2734375</ele>
        <time>2017-12-22T07:50:23Z</time>
      </trkpt>
      <trkpt lat="38.814029982313514" lon="-0.362910004332662">
        <ele>336.71484375</ele>
        <time>2017-12-22T07:52:23Z</time>
      </trkpt>
      <trkpt lat="38.81399997510016" lon="-0.362859964370728">
        <ele>336.22265625</ele>
        <time>2017-12-22T07:54:23Z</time>
      </trkpt>
      <trkpt lat="38.813980026170611" lon="-0.362789975479245">
        <ele>336.87109375</ele>
        <time>2017-12-22T07:56:23Z</time>
      </trkpt>
      <trkpt lat="38.813969967886806" lon="-0.362749993801117">
        <ele>337.57421875</ele>
        <time>2017-12-22T07:58:23Z</time>
      </trkpt>
      <trkpt lat="38.813959993422031" lon="-0.362719986587763">
        <ele>337.97265625</ele>
        <time>2017-12-22T08:00:23Z</time>
      </trkpt>
      <trkpt lat="38.813950018957257" lon="-0.362640023231506">
        <ele>339.0546875</ele>
        <time>2017-12-22T08:02:23Z</time>
      </trkpt>
      <trkpt lat="38.813950018957257" lon="-0.362450005486608">
        <ele>339.24609375</ele>
        <time>2017-12-22T08:04:23Z</time>
      </trkpt>
      <trkpt lat="38.813959993422031" lon="-0.362389991059899">
        <ele>339.06640625</ele>
        <time>2017-12-22T08:06:23Z</time>
      </trkpt>
      <trkpt lat="38.813959993422031" lon="-0.362340034916997">
        <ele>338.56640625</ele>
        <time>2017-12-22T08:08:23Z</time>
      </trkpt>
      <trkpt lat="38.813959993422031" lon="-0.362310027703643">
        <ele>338.171875</ele>
        <time>2017-12-22T08:10:23Z</time>
      </trkpt>
      <trkpt lat="38.813980026170611" lon="-0.362259987741709">
        <ele>337.41015625</ele>
        <time>2017-12-22T08:12:23Z</time>
      </trkpt>
      <trkpt lat="38.81399997510016" lon="-0.362229980528355">
        <ele>336.859375</ele>
        <time>2017-12-22T08:14:23Z</time>
      </trkpt>
      <trkpt lat="38.81402000784874" lon="-0.362199973315001">
        <ele>336.3515625</ele>
        <time>2017-12-22T08:16:23Z</time>
      </trkpt>
      <trkpt lat="38.814029982313514" lon="-0.362199973315001">
        <ele>336.41015625</ele>
        <time>2017-12-22T08:18:23Z</time>
      </trkpt>
      <trkpt lat="38.814050015062094" lon="-0.362169966101646">
        <ele>335.8828125</ele>
        <time>2017-12-22T08:20:23Z</time>
      </trkpt>
      <trkpt lat="38.814099971204996" lon="-0.362139958888292">
        <ele>335.421875</ele>
        <time>2017-12-22T08:22:23Z</time>
      </trkpt>
      <trkpt lat="38.814140036702156" lon="-0.362120009958744">
        <ele>335.05859375</ele>
        <time>2017-12-22T08:24:23Z</time>
      </trkpt>
      <trkpt lat="38.814199967309833" lon="-0.362099977210164">
        <ele>334.54296875</ele>
        <time>2017-12-22T08:26:23Z</time>
      </trkpt>
      <trkpt lat="38.814220000058413" lon="-0.362099977210164">
        <ele>334.55078125</ele>
        <time>2017-12-22T08:28:23Z</time>
      </trkpt>
      <trkpt lat="38.814679998904467" lon="-0.362059995532036">
        <ele>336.96484375</ele>
        <time>2017-12-22T08:30:23Z</time>
      </trkpt>
      <trkpt lat="38.814740013331175" lon="-0.362050021067262">
        <ele>337.578125</ele>
        <time>2017-12-22T08:32:23Z</time>
      </trkpt>
      <trkpt lat="38.814779995009303" lon="-0.362039962783456">
        <ele>337.87109375</ele>
        <time>2017-12-22T08:34:23Z</time>
      </trkpt>
      <trkpt lat="38.814819976687431" lon="-0.362029988318682">
        <ele>337.8046875</ele>
        <time>2017-12-22T08:36:23Z</time>
      </trkpt>
      <trkpt lat="38.814849983900785" lon="-0.362010039389133">
        <ele>337.5078125</ele>
        <time>2017-12-22T08:38:23Z</time>
      </trkpt>
      <trkpt lat="38.81487999111414" lon="-0.361999981105328">
        <ele>337.4453125</ele>
        <time>2017-12-22T08:40:23Z</time>
      </trkpt>
      <trkpt lat="38.81490002386272" lon="-0.361980032175779">
        <ele>337.20703125</ele>
        <time>2017-12-22T08:42:23Z</time>
      </trkpt>
      <trkpt lat="38.814919972792268" lon="-0.361950024962425">
        <ele>336.81640625</ele>
        <time>2017-12-22T08:44:23Z</time>
      </trkpt>
      <trkpt lat="38.814940005540848" lon="-0.361920017749071">
        <ele>336.46875</ele>
        <time>2017-12-22T08:46:23Z</time>
      </trkpt>
      <trkpt lat="38.814949980005622" lon="-0.361899985000491">
        <ele>336.37109375</ele>
        <time>2017-12-22T08:48:23Z</time>
      </trkpt>
      <trkpt lat="38.814970012754202" lon="-0.361860003322363">
        <ele>336.5625</ele>
        <time>2017-12-22T08:50:23Z</time>
      </trkpt>
      <trkpt lat="38.814979987218976" lon="-0.361809963360429">
        <ele>336.57421875</ele>
        <time>2017-12-22T08:52:23Z</time>
      </trkpt>
      <trkpt lat="38.81498996168375" lon="-0.361760007217526">
        <ele>336.36328125</ele>
        <time>2017-12-22T08:54:23Z</time>
      </trkpt>
      <trkpt lat="38.815000019967556" lon="-0.361699992790818">
        <ele>336.13671875</ele>
        <time>2017-12-22T08:56:23Z</time>
      </trkpt>
      <trkpt lat="38.815000019967556" lon="-0.361620029434562">
        <ele>335.72265625</ele>
        <time>2017-12-22T08:58:23Z</time>
      </trkpt>
      <trkpt lat="38.81500999443233" lon="-0.361500000581145">
        <ele>335.328125</ele>
        <time>2017-12-22T09:00:23Z</time>
      </trkpt>
      <trkpt lat="38.815000019967556" lon="-0.361409978941083">
        <ele>334.9453125</ele>
        <time>2017-12-22T09:02:23Z</time>
      </trkpt>
      <trkpt lat="38.815000019967556" lon="-0.361369997262955">
        <ele>334.8359375</ele>
        <time>2017-12-22T09:04:23Z</time>
      </trkpt>
      <trkpt lat="38.81498996168375" lon="-0.361339990049601">
        <ele>334.7578125</ele>
        <time>2017-12-22T09:06:23Z</time>
      </trkpt>
      <trkpt lat="38.814970012754202" lon="-0.361279975622892">
        <ele>334.69140625</ele>
        <time>2017-12-22T09:08:23Z</time>
      </trkpt>
      <trkpt lat="38.814940005540848" lon="-0.36123001947999">
        <ele>334.70703125</ele>
        <time>2017-12-22T09:10:23Z</time>
      </trkpt>
      <trkpt lat="38.814909998327494" lon="-0.36120998673141">
        <ele>334.68359375</ele>
        <time>2017-12-22T09:12:23Z</time>
      </trkpt>
      <trkpt lat="38.814889965578914" lon="-0.361190037801862">
        <ele>334.7890625</ele>
        <time>2017-12-22T09:14:23Z</time>
      </trkpt>
      <trkpt lat="38.81485995836556" lon="-0.361170005053282">
        <ele>334.953125</ele>
        <time>2017-12-22T09:16:23Z</time>
      </trkpt>
      <trkpt lat="38.814819976687431" lon="-0.361160030588508">
        <ele>335.2421875</ele>
        <time>2017-12-22T09:18:23Z</time>
      </trkpt>
      <trkpt lat="38.814749987795949" lon="-0.361149972304702">
        <ele>335.31640625</ele>
        <time>2017-12-22T09:20:23Z</time>
      </trkpt>
      <trkpt lat="38.814689973369241" lon="-0.361149972304702">
        <ele>334.84375</ele>
        <time>2017-12-22T09:22:23Z</time>
      </trkpt>
      <trkpt lat="38.814640017226338" lon="-0.361149972304702">
        <ele>334.390625</ele>
        <time>2017-12-22T09:24:23Z</time>
      </trkpt>
      <trkpt lat="38.81458000279963" lon="-0.361139997839928">
        <ele>334.140625</ele>
        <time>2017-12-22T09:26:23Z</time>
      </trkpt>
      <trkpt lat="38.814540021121502" lon="-0.361130023375154">
        <ele>334.19921875</ele>
        <time>2017-12-22T09:28:23Z</time>
      </trkpt>
      <trkpt lat="38.814500039443374" lon="-0.361119965091348">
        <ele>334.2890625</ele>
        <time>2017-12-22T09:30:23Z</time>
      </trkpt>
      <trkpt lat="38.814459973946214" lon="-0.361100016161799">
        <ele>334.5234375</ele>
        <time>2017-12-22T09:32:23Z</time>
      </trkpt>
      <trkpt lat="38.814410017803311" lon="-0.361079983413219">
        <ele>334.60546875</ele>
        <time>2017-12-22T09:34:23Z</time>
      </trkpt>
      <trkpt lat="38.814340028911829" lon="-0.361040001735091">
        <ele>335</ele>
        <time>2017-12-22T09:36:23Z</time>
      </trkpt>
      <trkpt lat="38.814270040020347" lon="-0.361000020056963">
        <ele>335.3515625</ele>
        <time>2017-12-22T09:38:23Z</time>
      </trkpt>
      <trkpt lat="38.814099971204996" lon="-0.360879991203547">
        <ele>336.25390625</ele>
        <time>2017-12-22T09:40:23Z</time>
      </trkpt>
      <trkpt lat="38.813859997317195" lon="-0.360740013420582">
        <ele>336.81640625</ele>
        <time>2017-12-22T09:42:23Z</time>
      </trkpt>
      <trkpt lat="38.813820015639067" lon="-0.360710006207228">
        <ele>336.9296875</ele>
        <time>2017-12-22T09:44:23Z</time>
      </trkpt>
      <trkpt lat="38.813790008425713" lon="-0.360689973458648">
        <ele>336.8515625</ele>
        <time>2017-12-22T09:46:23Z</time>
      </trkpt>
      <trkpt lat="38.813760001212358" lon="-0.360659966245294">
        <ele>336.8203125</ele>
        <time>2017-12-22T09:48:23Z</time>
      </trkpt>
      <trkpt lat="38.813729993999004" lon="-0.36062995903194">
        <ele>336.56640625</ele>
        <time>2017-12-22T09:50:23Z</time>
      </trkpt>
      <trkpt lat="38.813620023429394" lon="-0.360459974035621">
        <ele>335.17578125</ele>
        <time>2017-12-22T09:52:23Z</time>
      </trkpt>
      <trkpt lat="38.813479961827397" lon="-0.360210025683045">
        <ele>333.6484375</ele>
        <time>2017-12-22T09:54:23Z</time>
      </trkpt>
      <trkpt lat="38.813239987939596" lon="-0.359799982979894">
        <ele>334.1015625</ele>
        <time>2017-12-22T09:56:23Z</time>
      </trkpt>
      <trkpt lat="38.813169999048114" lon="-0.359669979661703">
        <ele>335.1953125</ele>
        <time>2017-12-22T09:58:23Z</time>
      </trkpt>
      <trkpt lat="38.813049970194697" lon="-0.35946998745203">
        <ele>335.72265625</ele>
        <time>2017-12-22T10:00:23Z</time>
      </trkpt>
      <trkpt lat="38.812979981303215" lon="-0.35936001688242">
        <ele>335.421875</ele>
        <time>2017-12-22T10:02:23Z</time>
      </trkpt>
      <trkpt lat="38.812939999625087" lon="-0.359269995242357">
        <ele>335.3125</ele>
        <time>2017-12-22T10:04:23Z</time>
      </trkpt>
      <trkpt lat="38.812919966876507" lon="-0.359190031886101">
        <ele>335.1953125</ele>
        <time>2017-12-22T10:06:23Z</time>
      </trkpt>
      <trkpt lat="38.812909992411733" lon="-0.359160024672747">
        <ele>334.9375</ele>
        <time>2017-12-22T10:08:23Z</time>
      </trkpt>
      <trkpt lat="38.812889959663153" lon="-0.359049970284104">
        <ele>333.96875</ele>
        <time>2017-12-22T10:10:23Z</time>
      </trkpt>
      <trkpt lat="38.812879985198379" lon="-0.358949974179268">
        <ele>333.32421875</ele>
        <time>2017-12-22T10:12:23Z</time>
      </trkpt>
      <trkpt lat="38.812879985198379" lon="-0.35888995975256">
        <ele>332.84765625</ele>
        <time>2017-12-22T10:14:23Z</time>
      </trkpt>
      <trkpt lat="38.812879985198379" lon="-0.358830029144883">
        <ele>332.3125</ele>
        <time>2017-12-22T10:16:23Z</time>
      </trkpt>
      <trkpt lat="38.812889959663153" lon="-0.358789963647723">
        <ele>332.44140625</ele>
        <time>2017-12-22T10:18:23Z</time>
      </trkpt>
      <trkpt lat="38.812909992411733" lon="-0.358740007504821">
        <ele>332.98828125</ele>
        <time>2017-12-22T10:20:23Z</time>
      </trkpt>
      <trkpt lat="38.812919966876507" lon="-0.358700025826693">
        <ele>333.12109375</ele>
        <time>2017-12-22T10:22:23Z</time>
      </trkpt>
      <trkpt lat="38.812949974089861" lon="-0.358670018613338">
        <ele>334.09765625</ele>
        <time>2017-12-22T10:24:23Z</time>
      </trkpt>
      <trkpt lat="38.812970006838441" lon="-0.358640011399984">
        <ele>334.64453125</ele>
        <time>2017-12-22T10:26:23Z</time>
      </trkpt>
      <trkpt lat="38.813009988516569" lon="-0.35861000418663">
        <ele>335.89453125</ele>
        <time>2017-12-22T10:28:23Z</time>
      </trkpt>
      <trkpt lat="38.813039995729923" lon="-0.358600029721856">
        <ele>336.44140625</ele>
        <time>2017-12-22T10:30:23Z</time>
      </trkpt>
      <trkpt lat="38.813079977408051" lon="-0.35858997143805">
        <ele>336.8984375</ele>
        <time>2017-12-22T10:32:23Z</time>
      </trkpt>
      <trkpt lat="38.813680037856102" lon="-0.358619978651404">
        <ele>336.3984375</ele>
        <time>2017-12-22T10:34:23Z</time>
      </trkpt>
      <trkpt lat="38.813820015639067" lon="-0.358619978651404">
        <ele>335.65625</ele>
        <time>2017-12-22T10:36:23Z</time>
      </trkpt>
      <trkpt lat="38.813950018957257" lon="-0.35861000418663">
        <ele>335.12109375</ele>
        <time>2017-12-22T10:38:23Z</time>
      </trkpt>
      <trkpt lat="38.814010033383965" lon="-0.358600029721856">
        <ele>334.6484375</ele>
        <time>2017-12-22T10:40:23Z</time>
      </trkpt>
      <trkpt lat="38.81415001116693" lon="-0.358570022508502">
        <ele>334.28125</ele>
        <time>2017-12-22T10:42:23Z</time>
      </trkpt>
      <trkpt lat="38.814380010589957" lon="-0.358510008081794">
        <ele>333.54296875</ele>
        <time>2017-12-22T10:44:23Z</time>
      </trkpt>
      <trkpt lat="38.81460003554821" lon="-0.35845996811986">
        <ele>330.609375</ele>
        <time>2017-12-22T10:46:23Z</time>
      </trkpt>
      <trkpt lat="38.814740013331175" lon="-0.358440019190311">
        <ele>329.02734375</ele>
        <time>2017-12-22T10:48:23Z</time>
      </trkpt>
      <trkpt lat="38.814819976687431" lon="-0.358429960906506">
        <ele>328.6015625</ele>
        <time>2017-12-22T10:50:23Z</time>
      </trkpt>
      <trkpt lat="38.814919972792268" lon="-0.358419986441731">
        <ele>328.171875</ele>
        <time>2017-12-22T10:52:23Z</time>
      </trkpt>
      <trkpt lat="38.815049976110458" lon="-0.358410011976957">
        <ele>326.0234375</ele>
        <time>2017-12-22T10:54:23Z</time>
      </trkpt>
      <trkpt lat="38.815290033817291" lon="-0.358429960906506">
        <ele>323.60546875</ele>
        <time>2017-12-22T10:56:23Z</time>
      </trkpt>
      <trkpt lat="38.815339989960194" lon="-0.358440019190311">
        <ele>323.9375</ele>
        <time>2017-12-22T10:58:23Z</time>
      </trkpt>
      <trkpt lat="38.815379971638322" lon="-0.358429960906506">
        <ele>323.98828125</ele>
        <time>2017-12-22T11:00:23Z</time>
      </trkpt>
      <trkpt lat="38.815409978851676" lon="-0.358429960906506">
        <ele>324.203125</ele>
        <time>2017-12-22T11:02:23Z</time>
      </trkpt>
      <trkpt lat="38.815449960529804" lon="-0.358419986441731">
        <ele>324.22265625</ele>
        <time>2017-12-22T11:04:23Z</time>
      </trkpt>
      <trkpt lat="38.815490026026964" lon="-0.358410011976957">
        <ele>324.20703125</ele>
        <time>2017-12-22T11:06:23Z</time>
      </trkpt>
      <trkpt lat="38.815500000491738" lon="-0.358400037512183">
        <ele>323.87890625</ele>
        <time>2017-12-22T11:08:23Z</time>
      </trkpt>
      <trkpt lat="38.815520033240318" lon="-0.358389979228377">
        <ele>323.66796875</ele>
        <time>2017-12-22T11:10:23Z</time>
      </trkpt>
      <trkpt lat="38.815590022131801" lon="-0.358349997550249">
        <ele>323.703125</ele>
        <time>2017-12-22T11:12:23Z</time>
      </trkpt>
      <trkpt lat="38.815590022131801" lon="-0.358349997550249">
        <ele>323.703125</ele>
        <time>2017-12-22T11:14:23Z</time>
      </trkpt>
      <trkpt lat="38.815500000491738" lon="-0.358119998127222">
        <ele>321.859375</ele>
        <time>2017-12-22T11:16:23Z</time>
      </trkpt>
      <trkpt lat="38.815270001068711" lon="-0.357629992067814">
        <ele>319.265625</ele>
        <time>2017-12-22T11:18:23Z</time>
      </trkpt>
      <trkpt lat="38.81503002718091" lon="-0.357069997116923">
        <ele>316.15234375</ele>
        <time>2017-12-22T11:20:23Z</time>
      </trkpt>
      <trkpt lat="38.81498996168375" lon="-0.356960026547313">
        <ele>314.484375</ele>
        <time>2017-12-22T11:22:23Z</time>
      </trkpt>
      <trkpt lat="38.814970012754202" lon="-0.356900012120605">
        <ele>314.06640625</ele>
        <time>2017-12-22T11:24:23Z</time>
      </trkpt>
      <trkpt lat="38.814949980005622" lon="-0.356830023229122">
        <ele>315.5</ele>
        <time>2017-12-22T11:26:23Z</time>
      </trkpt>
      <trkpt lat="38.814940005540848" lon="-0.356779983267188">
        <ele>316.51953125</ele>
        <time>2017-12-22T11:28:23Z</time>
      </trkpt>
      <trkpt lat="38.814930031076074" lon="-0.35674000158906">
        <ele>317.5625</ele>
        <time>2017-12-22T11:30:23Z</time>
      </trkpt>
      <trkpt lat="38.814930031076074" lon="-0.356660038232803">
        <ele>319.20703125</ele>
        <time>2017-12-22T11:32:23Z</time>
      </trkpt>
      <trkpt lat="38.814919972792268" lon="-0.35644001327455">
        <ele>322.22265625</ele>
        <time>2017-12-22T11:34:23Z</time>
      </trkpt>
      <trkpt lat="38.814909998327494" lon="-0.355899967253208">
        <ele>319.0625</ele>
        <time>2017-12-22T11:36:23Z</time>
      </trkpt>
      <trkpt lat="38.814909998327494" lon="-0.355769963935018">
        <ele>319.76953125</ele>
        <time>2017-12-22T11:38:23Z</time>
      </trkpt>
      <trkpt lat="38.814919972792268" lon="-0.355729982256889">
        <ele>319.62890625</ele>
        <time>2017-12-22T11:40:23Z</time>
      </trkpt>
      <trkpt lat="38.814919972792268" lon="-0.355690000578761">
        <ele>319.734375</ele>
        <time>2017-12-22T11:42:23Z</time>
      </trkpt>
      <trkpt lat="38.814930031076074" lon="-0.355650018900633">
        <ele>319.5625</ele>
        <time>2017-12-22T11:44:23Z</time>
      </trkpt>
      <trkpt lat="38.814949980005622" lon="-0.355610037222505">
        <ele>319.42578125</ele>
        <time>2017-12-22T11:46:23Z</time>
      </trkpt>
      <trkpt lat="38.814970012754202" lon="-0.355569971725345">
        <ele>318.8671875</ele>
        <time>2017-12-22T11:48:23Z</time>
      </trkpt>
      <trkpt lat="38.81498996168375" lon="-0.355539964511991">
        <ele>318.6171875</ele>
        <time>2017-12-22T11:50:23Z</time>
      </trkpt>
      <trkpt lat="38.815019968897104" lon="-0.355499982833862">
        <ele>318.5</ele>
        <time>2017-12-22T11:52:23Z</time>
      </trkpt>
      <trkpt lat="38.815060034394264" lon="-0.355460001155734">
        <ele>318.65234375</ele>
        <time>2017-12-22T11:54:23Z</time>
      </trkpt>
      <trkpt lat="38.81530998274684" lon="-0.355239976197481">
        <ele>319.54296875</ele>
        <time>2017-12-22T11:56:23Z</time>
      </trkpt>
      <trkpt lat="38.815509974956512" lon="-0.355060016736388">
        <ele>321.8359375</ele>
        <time>2017-12-22T11:58:23Z</time>
      </trkpt>
      <trkpt lat="38.815530007705092" lon="-0.355039983987808">
        <ele>321.703125</ele>
        <time>2017-12-22T12:00:23Z</time>
      </trkpt>
      <trkpt lat="38.815560014918447" lon="-0.355009976774454">
        <ele>321.58203125</ele>
        <time>2017-12-22T12:02:23Z</time>
      </trkpt>
      <trkpt lat="38.815569989383221" lon="-0.354990027844906">
        <ele>321.64453125</ele>
        <time>2017-12-22T12:04:23Z</time>
      </trkpt>
      <trkpt lat="38.815569989383221" lon="-0.354969995096326">
        <ele>321.73046875</ele>
        <time>2017-12-22T12:06:23Z</time>
      </trkpt>
      <trkpt lat="38.815579963847995" lon="-0.354930013418198">
        <ele>321.765625</ele>
        <time>2017-12-22T12:08:23Z</time>
      </trkpt>
      <trkpt lat="38.815579963847995" lon="-0.354909980669618">
        <ele>321.765625</ele>
        <time>2017-12-22T12:10:23Z</time>
      </trkpt>
      <trkpt lat="38.815569989383221" lon="-0.354860024526715">
        <ele>321.734375</ele>
        <time>2017-12-22T12:12:23Z</time>
      </trkpt>
      <trkpt lat="38.815560014918447" lon="-0.354760028421879">
        <ele>321.703125</ele>
        <time>2017-12-22T12:14:23Z</time>
      </trkpt>
      <trkpt lat="38.815539982169867" lon="-0.354660032317042">
        <ele>321.73828125</ele>
        <time>2017-12-22T12:16:23Z</time>
      </trkpt>
      <trkpt lat="38.815500000491738" lon="-0.354500021785498">
        <ele>322.19140625</ele>
        <time>2017-12-22T12:18:23Z</time>
      </trkpt>
      <trkpt lat="38.815490026026964" lon="-0.354460040107369">
        <ele>322.3359375</ele>
        <time>2017-12-22T12:20:23Z</time>
      </trkpt>
      <trkpt lat="38.81543998606503" lon="-0.354310004040599">
        <ele>323.54296875</ele>
        <time>2017-12-22T12:22:23Z</time>
      </trkpt>
      <trkpt lat="38.815300008282065" lon="-0.353929968550801">
        <ele>329.41015625</ele>
        <time>2017-12-22T12:24:23Z</time>
      </trkpt>
      <trkpt lat="38.815230019390583" lon="-0.353720001876354">
        <ele>332.63671875</ele>
        <time>2017-12-22T12:26:23Z</time>
      </trkpt>
      <trkpt lat="38.815179979428649" lon="-0.353629980236292">
        <ele>333.140625</ele>
        <time>2017-12-22T12:28:23Z</time>
      </trkpt>
      <trkpt lat="38.815149972215295" lon="-0.353569965809584">
        <ele>333.37109375</ele>
        <time>2017-12-22T12:30:23Z</time>
      </trkpt>
      <trkpt lat="38.815090041607618" lon="-0.353499976918101">
        <ele>333.35546875</ele>
        <time>2017-12-22T12:32:23Z</time>
      </trkpt>
      <trkpt lat="38.81498996168375" lon="-0.353380031883717">
        <ele>334.5625</ele>
        <time>2017-12-22T12:34:23Z</time>
      </trkpt>
      <trkpt lat="38.814919972792268" lon="-0.353299984708428">
        <ele>335.8203125</ele>
        <time>2017-12-22T12:36:23Z</time>
      </trkpt>
      <trkpt lat="38.814870016649365" lon="-0.353250028565526">
        <ele>336.65625</ele>
        <time>2017-12-22T12:38:23Z</time>
      </trkpt>
      <trkpt lat="38.814800027757883" lon="-0.353180039674044">
        <ele>337.3125</ele>
        <time>2017-12-22T12:40:23Z</time>
      </trkpt>
      <trkpt lat="38.814759962260723" lon="-0.353139974176884">
        <ele>337.24609375</ele>
        <time>2017-12-22T12:42:23Z</time>
      </trkpt>
      <trkpt lat="38.814730038866401" lon="-0.353099992498755">
        <ele>337.3046875</ele>
        <time>2017-12-22T12:44:23Z</time>
      </trkpt>
      <trkpt lat="38.814689973369241" lon="-0.353039978072047">
        <ele>337.52734375</ele>
        <time>2017-12-22T12:46:23Z</time>
      </trkpt>
      <trkpt lat="38.814589977264404" lon="-0.352860018610954">
        <ele>339.22265625</ele>
        <time>2017-12-22T12:48:23Z</time>
      </trkpt>
      <trkpt lat="38.814570028334856" lon="-0.3528300113976">
        <ele>339.6796875</ele>
        <time>2017-12-22T12:50:23Z</time>
      </trkpt>
      <trkpt lat="38.814540021121502" lon="-0.352800004184246">
        <ele>339.9765625</ele>
        <time>2017-12-22T12:52:23Z</time>
      </trkpt>
      <trkpt lat="38.814510013908148" lon="-0.352790029719472">
        <ele>340.140625</ele>
        <time>2017-12-22T12:54:23Z</time>
      </trkpt>
      <trkpt lat="38.814489981159568" lon="-0.352779971435666">
        <ele>340.2734375</ele>
        <time>2017-12-22T12:56:23Z</time>
      </trkpt>
      <trkpt lat="38.814459973946214" lon="-0.352779971435666">
        <ele>340.375</ele>
        <time>2017-12-22T12:58:23Z</time>
      </trkpt>
      <trkpt lat="38.814410017803311" lon="-0.352779971435666">
        <ele>340.5390625</ele>
        <time>2017-12-22T13:00:23Z</time>
      </trkpt>
      <trkpt lat="38.814319996163249" lon="-0.352800004184246">
        <ele>340.79296875</ele>
        <time>2017-12-22T13:02:23Z</time>
      </trkpt>
      <trkpt lat="38.814250007271767" lon="-0.35280997864902">
        <ele>340.7265625</ele>
        <time>2017-12-22T13:04:23Z</time>
      </trkpt>
      <trkpt lat="38.814199967309833" lon="-0.35280997864902">
        <ele>340.70703125</ele>
        <time>2017-12-22T13:06:23Z</time>
      </trkpt>
      <trkpt lat="38.814159985631704" lon="-0.35280997864902">
        <ele>340.6171875</ele>
        <time>2017-12-22T13:08:23Z</time>
      </trkpt>
      <trkpt lat="38.814110029488802" lon="-0.352800004184246">
        <ele>340.9921875</ele>
        <time>2017-12-22T13:10:23Z</time>
      </trkpt>
      <trkpt lat="38.813950018957257" lon="-0.352760022506118">
        <ele>343.3515625</ele>
        <time>2017-12-22T13:12:23Z</time>
      </trkpt>
      <trkpt lat="38.813880030065775" lon="-0.352760022506118">
        <ele>343.58203125</ele>
        <time>2017-12-22T13:14:23Z</time>
      </trkpt>
      <trkpt lat="38.813750026747584" lon="-0.352749964222312">
        <ele>343.9765625</ele>
        <time>2017-12-22T13:16:23Z</time>
      </trkpt>
      <trkpt lat="38.81369998678565" lon="-0.352749964222312">
        <ele>343.6484375</ele>
        <time>2017-12-22T13:18:23Z</time>
      </trkpt>
      <trkpt lat="38.813660005107522" lon="-0.352739989757538">
        <ele>343.6640625</ele>
        <time>2017-12-22T13:20:23Z</time>
      </trkpt>
      <trkpt lat="38.813620023429394" lon="-0.35272004082799">
        <ele>343.73046875</ele>
        <time>2017-12-22T13:22:23Z</time>
      </trkpt>
      <trkpt lat="38.813520027324557" lon="-0.35267997533083">
        <ele>343.0703125</ele>
        <time>2017-12-22T13:24:23Z</time>
      </trkpt>
      <trkpt lat="38.813479961827397" lon="-0.352649968117476">
        <ele>342.9921875</ele>
        <time>2017-12-22T13:26:23Z</time>
      </trkpt>
      <trkpt lat="38.813239987939596" lon="-0.352519964799285">
        <ele>343.6796875</ele>
        <time>2017-12-22T13:28:23Z</time>
      </trkpt>
      <trkpt lat="38.813030021265149" lon="-0.352409994229674">
        <ele>342.74609375</ele>
        <time>2017-12-22T13:30:23Z</time>
      </trkpt>
      <trkpt lat="38.813000014051795" lon="-0.352389961481094">
        <ele>342.3515625</ele>
        <time>2017-12-22T13:32:23Z</time>
      </trkpt>
      <trkpt lat="38.812970006838441" lon="-0.352370012551546">
        <ele>341.95703125</ele>
        <time>2017-12-22T13:34:23Z</time>
      </trkpt>
      <trkpt lat="38.812939999625087" lon="-0.352340005338192">
        <ele>341.55859375</ele>
        <time>2017-12-22T13:36:23Z</time>
      </trkpt>
      <trkpt lat="38.812900017946959" lon="-0.352309998124838">
        <ele>340.77734375</ele>
        <time>2017-12-22T13:38:23Z</time>
      </trkpt>
      <trkpt lat="38.81286003626883" lon="-0.35227001644671">
        <ele>339.890625</ele>
        <time>2017-12-22T13:40:23Z</time>
      </trkpt>
      <trkpt lat="38.812830029055476" lon="-0.352230034768581">
        <ele>339.34375</ele>
        <time>2017-12-22T13:42:23Z</time>
      </trkpt>
      <trkpt lat="38.812800021842122" lon="-0.352179994806647">
        <ele>338.83203125</ele>
        <time>2017-12-22T13:44:23Z</time>
      </trkpt>
      <trkpt lat="38.812779989093542" lon="-0.352110005915165">
        <ele>338.546875</ele>
        <time>2017-12-22T13:46:23Z</time>
      </trkpt>
      <trkpt lat="38.812740007415414" lon="-0.352019984275103">
        <ele>337.921875</ele>
        <time>2017-12-22T13:48:23Z</time>
      </trkpt>
      <trkpt lat="38.812719974666834" lon="-0.351900039240718">
        <ele>337.5</ele>
        <time>2017-12-22T13:50:23Z</time>
      </trkpt>
      <trkpt lat="38.812700025737286" lon="-0.351849999278784">
        <ele>336.9609375</ele>
        <time>2017-12-22T13:52:23Z</time>
      </trkpt>
      <trkpt lat="38.812700025737286" lon="-0.351810017600656">
        <ele>336.8671875</ele>
        <time>2017-12-22T13:54:23Z</time>
      </trkpt>
      <trkpt lat="38.812700025737286" lon="-0.351789984852076">
        <ele>336.80078125</ele>
        <time>2017-12-22T13:56:23Z</time>
      </trkpt>
      <trkpt lat="38.812700025737286" lon="-0.351759977638721">
        <ele>336.703125</ele>
        <time>2017-12-22T13:58:23Z</time>
      </trkpt>
      <trkpt lat="38.812700025737286" lon="-0.351699963212013">
        <ele>336.4609375</ele>
        <time>2017-12-22T14:00:23Z</time>
      </trkpt>
      <trkpt lat="38.81271000020206" lon="-0.351640032604337">
        <ele>336.40625</ele>
        <time>2017-12-22T14:02:23Z</time>
      </trkpt>
      <trkpt lat="38.81273003295064" lon="-0.351559985429049">
        <ele>336.34765625</ele>
        <time>2017-12-22T14:04:23Z</time>
      </trkpt>
      <trkpt lat="38.812770014628768" lon="-0.351469963788986">
        <ele>336.94140625</ele>
        <time>2017-12-22T14:06:23Z</time>
      </trkpt>
      <trkpt lat="38.812919966876507" lon="-0.351180033758283">
        <ele>338.01953125</ele>
        <time>2017-12-22T14:08:23Z</time>
      </trkpt>
      <trkpt lat="38.812939999625087" lon="-0.351129993796349">
        <ele>338.17578125</ele>
        <time>2017-12-22T14:10:23Z</time>
      </trkpt>
      <trkpt lat="38.812960032373667" lon="-0.35109001211822">
        <ele>338.328125</ele>
        <time>2017-12-22T14:12:23Z</time>
      </trkpt>
      <trkpt lat="38.812970006838441" lon="-0.351039972156286">
        <ele>338.58203125</ele>
        <time>2017-12-22T14:14:23Z</time>
      </trkpt>
      <trkpt lat="38.812970006838441" lon="-0.351009964942932">
        <ele>338.6796875</ele>
        <time>2017-12-22T14:16:23Z</time>
      </trkpt>
      <trkpt lat="38.812979981303215" lon="-0.350969983264804">
        <ele>338.9765625</ele>
        <time>2017-12-22T14:18:23Z</time>
      </trkpt>
      <trkpt lat="38.812970006838441" lon="-0.35093997605145">
        <ele>338.91015625</ele>
        <time>2017-12-22T14:20:23Z</time>
      </trkpt>
      <trkpt lat="38.812970006838441" lon="-0.350909968838096">
        <ele>339.0078125</ele>
        <time>2017-12-22T14:22:23Z</time>
      </trkpt>
      <trkpt lat="38.812960032373667" lon="-0.350869987159967">
        <ele>339.06640625</ele>
        <time>2017-12-22T14:24:23Z</time>
      </trkpt>
      <trkpt lat="38.812919966876507" lon="-0.350779965519905">
        <ele>339.03515625</ele>
        <time>2017-12-22T14:26:23Z</time>
      </trkpt>
      <trkpt lat="38.81273003295064" lon="-0.350390039384365">
        <ele>338.203125</ele>
        <time>2017-12-22T14:28:23Z</time>
      </trkpt>
      <trkpt lat="38.812630036845803" lon="-0.35020999610424">
        <ele>337.74609375</ele>
        <time>2017-12-22T14:30:23Z</time>
      </trkpt>
      <trkpt lat="38.812610004097223" lon="-0.350170014426112">
        <ele>337.828125</ele>
        <time>2017-12-22T14:32:23Z</time>
      </trkpt>
      <trkpt lat="38.812579996883869" lon="-0.350140007212758">
        <ele>337.890625</ele>
        <time>2017-12-22T14:34:23Z</time>
      </trkpt>
      <trkpt lat="38.812549989670515" lon="-0.350109999999404">
        <ele>338.00390625</ele>
        <time>2017-12-22T14:36:23Z</time>
      </trkpt>
      <trkpt lat="38.812519982457161" lon="-0.35010002553463">
        <ele>337.99609375</ele>
        <time>2017-12-22T14:38:23Z</time>
      </trkpt>
      <trkpt lat="38.812489975243807" lon="-0.35007999278605">
        <ele>338.14453125</ele>
        <time>2017-12-22T14:40:23Z</time>
      </trkpt>
      <trkpt lat="38.812449993565679" lon="-0.35007999278605">
        <ele>337.98828125</ele>
        <time>2017-12-22T14:42:23Z</time>
      </trkpt>
      <trkpt lat="38.81241001188755" lon="-0.35007999278605">
        <ele>337.59375</ele>
        <time>2017-12-22T14:44:23Z</time>
      </trkpt>
      <trkpt lat="38.812359971925616" lon="-0.35007999278605">
        <ele>337.21875</ele>
        <time>2017-12-22T14:46:23Z</time>
      </trkpt>
      <trkpt lat="38.812210019677877" lon="-0.350140007212758">
        <ele>336.1953125</ele>
        <time>2017-12-22T14:48:23Z</time>
      </trkpt>
      <trkpt lat="38.811989994719625" lon="-0.35018996335566">
        <ele>334.7734375</ele>
        <time>2017-12-22T14:50:23Z</time>
      </trkpt>
      <trkpt lat="38.811799976974726" lon="-0.350219970569015">
        <ele>333.30078125</ele>
        <time>2017-12-22T14:52:23Z</time>
      </trkpt>
      <trkpt lat="38.811750020831823" lon="-0.35023002885282">
        <ele>332.8125</ele>
        <time>2017-12-22T14:54:23Z</time>
      </trkpt>
      <trkpt lat="38.811720013618469" lon="-0.35023002885282">
        <ele>332.55859375</ele>
        <time>2017-12-22T14:56:23Z</time>
      </trkpt>
      <trkpt lat="38.811490014195442" lon="-0.35023002885282">
        <ele>329.22265625</ele>
        <time>2017-12-22T14:58:23Z</time>
      </trkpt>
      <trkpt lat="38.811299996450543" lon="-0.350240003317595">
        <ele>327.9453125</ele>
        <time>2017-12-22T15:00:23Z</time>
      </trkpt>
      <trkpt lat="38.811260014772415" lon="-0.350249977782369">
        <ele>327.95703125</ele>
        <time>2017-12-22T15:02:23Z</time>
      </trkpt>
      <trkpt lat="38.811230007559061" lon="-0.350260036066175">
        <ele>328.1328125</ele>
        <time>2017-12-22T15:04:23Z</time>
      </trkpt>
      <trkpt lat="38.811149960383773" lon="-0.350319966673851">
        <ele>329</ele>
        <time>2017-12-22T15:06:23Z</time>
      </trkpt>
      <trkpt lat="38.81112003698945" lon="-0.350349973887205">
        <ele>329.6484375</ele>
        <time>2017-12-22T15:08:23Z</time>
      </trkpt>
      <trkpt lat="38.81107997149229" lon="-0.350400013849139">
        <ele>330.578125</ele>
        <time>2017-12-22T15:10:23Z</time>
      </trkpt>
      <trkpt lat="38.811039989814162" lon="-0.350449969992042">
        <ele>331.375</ele>
        <time>2017-12-22T15:12:23Z</time>
      </trkpt>
      <trkpt lat="38.811020040884614" lon="-0.350500009953976">
        <ele>331.44921875</ele>
        <time>2017-12-22T15:14:23Z</time>
      </trkpt>
      <trkpt lat="38.81099003367126" lon="-0.350549966096878">
        <ele>331.80078125</ele>
        <time>2017-12-22T15:16:23Z</time>
      </trkpt>
      <trkpt lat="38.81097000092268" lon="-0.35063998773694">
        <ele>331.4140625</ele>
        <time>2017-12-22T15:18:23Z</time>
      </trkpt>
      <trkpt lat="38.810939993709326" lon="-0.350779965519905">
        <ele>331.25</ele>
        <time>2017-12-22T15:20:23Z</time>
      </trkpt>
      <trkpt lat="38.810930019244552" lon="-0.350930001586676">
        <ele>331.47265625</ele>
        <time>2017-12-22T15:22:23Z</time>
      </trkpt>
      <trkpt lat="38.810919960960746" lon="-0.351050030440092">
        <ele>331.73828125</ele>
        <time>2017-12-22T15:24:23Z</time>
      </trkpt>
      <trkpt lat="38.810919960960746" lon="-0.351160001009703">
        <ele>331.8203125</ele>
        <time>2017-12-22T15:26:23Z</time>
      </trkpt>
      <trkpt lat="38.810909986495972" lon="-0.351250022649765">
        <ele>332.12109375</ele>
        <time>2017-12-22T15:28:23Z</time>
      </trkpt>
      <trkpt lat="38.810890037566423" lon="-0.351380025967956">
        <ele>332.09375</ele>
        <time>2017-12-22T15:30:23Z</time>
      </trkpt>
      <trkpt lat="38.810879979282618" lon="-0.351469963788986">
        <ele>331.59375</ele>
        <time>2017-12-22T15:32:23Z</time>
      </trkpt>
      <trkpt lat="38.810849972069263" lon="-0.351580018177629">
        <ele>331.171875</ele>
        <time>2017-12-22T15:34:23Z</time>
      </trkpt>
      <trkpt lat="38.810839997604489" lon="-0.351650007069111">
        <ele>331.0078125</ele>
        <time>2017-12-22T15:36:23Z</time>
      </trkpt>
      <trkpt lat="38.810819964855909" lon="-0.351710021495819">
        <ele>331.0078125</ele>
        <time>2017-12-22T15:38:23Z</time>
      </trkpt>
      <trkpt lat="38.810790041461587" lon="-0.351780010387301">
        <ele>330.66796875</ele>
        <time>2017-12-22T15:40:23Z</time>
      </trkpt>
      <trkpt lat="38.810770008713007" lon="-0.351829966530204">
        <ele>330.2109375</ele>
        <time>2017-12-22T15:42:23Z</time>
      </trkpt>
      <trkpt lat="38.810730027034879" lon="-0.351889980956912">
        <ele>329.2890625</ele>
        <time>2017-12-22T15:44:23Z</time>
      </trkpt>
      <trkpt lat="38.810689961537719" lon="-0.35194999538362">
        <ele>328.56640625</ele>
        <time>2017-12-22T15:46:23Z</time>
      </trkpt>
      <trkpt lat="38.810600023716688" lon="-0.352040017023683">
        <ele>327.703125</ele>
        <time>2017-12-22T15:48:23Z</time>
      </trkpt>
      <trkpt lat="38.81054000928998" lon="-0.352079998701811">
        <ele>327.2421875</ele>
        <time>2017-12-22T15:50:23Z</time>
      </trkpt>
      <trkpt lat="38.810500027611852" lon="-0.352119980379939">
        <ele>326.84765625</ele>
        <time>2017-12-22T15:52:23Z</time>
      </trkpt>
      <trkpt lat="38.810430038720369" lon="-0.352149987593293">
        <ele>326.55078125</ele>
        <time>2017-12-22T15:54:23Z</time>
      </trkpt>
      <trkpt lat="38.810349991545081" lon="-0.352179994806647">
        <ele>326.73046875</ele>
        <time>2017-12-22T15:56:23Z</time>
      </trkpt>
      <trkpt lat="38.809659993276" lon="-0.352440001443028">
        <ele>326.8203125</ele>
        <time>2017-12-22T15:58:23Z</time>
      </trkpt>
      <trkpt lat="38.809590004384518" lon="-0.352470008656383">
        <ele>326.1328125</ele>
        <time>2017-12-22T16:00:23Z</time>
      </trkpt>
      <trkpt lat="38.809550022706389" lon="-0.352490041404963">
        <ele>325.93359375</ele>
        <time>2017-12-22T16:02:23Z</time>
      </trkpt>
      <trkpt lat="38.809510041028261" lon="-0.352500015869737">
        <ele>325.8359375</ele>
        <time>2017-12-22T16:04:23Z</time>
      </trkpt>
      <trkpt lat="38.809450026601553" lon="-0.352509990334511">
        <ele>325.73828125</ele>
        <time>2017-12-22T16:06:23Z</time>
      </trkpt>
      <trkpt lat="38.809390012174845" lon="-0.352509990334511">
        <ele>325.703125</ele>
        <time>2017-12-22T16:08:23Z</time>
      </trkpt>
      <trkpt lat="38.809350030496716" lon="-0.352509990334511">
        <ele>325.625</ele>
        <time>2017-12-22T16:10:23Z</time>
      </trkpt>
      <trkpt lat="38.809290016070008" lon="-0.352500015869737">
        <ele>325.39453125</ele>
        <time>2017-12-22T16:12:23Z</time>
      </trkpt>
      <trkpt lat="38.809220027178526" lon="-0.352479983121157">
        <ele>324.8359375</ele>
        <time>2017-12-22T16:14:23Z</time>
      </trkpt>
      <trkpt lat="38.809139980003238" lon="-0.352449975907803">
        <ele>324.28125</ele>
        <time>2017-12-22T16:16:23Z</time>
      </trkpt>
      <trkpt lat="38.809069991111755" lon="-0.352419968694448">
        <ele>323.99609375</ele>
        <time>2017-12-22T16:18:23Z</time>
      </trkpt>
      <trkpt lat="38.809000002220273" lon="-0.352370012551546">
        <ele>324.04296875</ele>
        <time>2017-12-22T16:20:23Z</time>
      </trkpt>
      <trkpt lat="38.808939987793565" lon="-0.352319972589612">
        <ele>324.25390625</ele>
        <time>2017-12-22T16:22:23Z</time>
      </trkpt>
      <trkpt lat="38.808860024437308" lon="-0.352240009233356">
        <ele>324.35546875</ele>
        <time>2017-12-22T16:24:23Z</time>
      </trkpt>
      <trkpt lat="38.808639999479055" lon="-0.352029958739877">
        <ele>325.69140625</ele>
        <time>2017-12-22T16:26:23Z</time>
      </trkpt>
      <trkpt lat="38.808500021696091" lon="-0.35192996263504">
        <ele>326.0390625</ele>
        <time>2017-12-22T16:28:23Z</time>
      </trkpt>
      <trkpt lat="38.808330036699772" lon="-0.35181999206543">
        <ele>327.05078125</ele>
        <time>2017-12-22T16:30:23Z</time>
      </trkpt>
      <trkpt lat="38.808159967884421" lon="-0.351719995960593">
        <ele>327.85546875</ele>
        <time>2017-12-22T16:32:23Z</time>
      </trkpt>
      <trkpt lat="38.808029964566231" lon="-0.351619999855757">
        <ele>328.90234375</ele>
        <time>2017-12-22T16:34:23Z</time>
      </trkpt>
      <trkpt lat="38.807970033958554" lon="-0.351559985429049">
        <ele>329.30078125</ele>
        <time>2017-12-22T16:36:23Z</time>
      </trkpt>
      <trkpt lat="38.807910019531846" lon="-0.35149997100234">
        <ele>329.875</ele>
        <time>2017-12-22T16:38:23Z</time>
      </trkpt>
      <trkpt lat="38.807799965143204" lon="-0.35139000043273">
        <ele>331.09375</ele>
        <time>2017-12-22T16:40:23Z</time>
      </trkpt>
      <trkpt lat="38.807729976251721" lon="-0.351299978792667">
        <ele>331.98046875</ele>
        <time>2017-12-22T16:42:23Z</time>
      </trkpt>
      <trkpt lat="38.807669961825013" lon="-0.351250022649765">
        <ele>332.94140625</ele>
        <time>2017-12-22T16:44:23Z</time>
      </trkpt>
      <trkpt lat="38.807620005682111" lon="-0.351199982687831">
        <ele>333.75390625</ele>
        <time>2017-12-22T16:46:23Z</time>
      </trkpt>
      <trkpt lat="38.807559991255403" lon="-0.351160001009703">
        <ele>334.10546875</ele>
        <time>2017-12-22T16:48:23Z</time>
      </trkpt>
      <trkpt lat="38.807520009577274" lon="-0.351129993796349">
        <ele>334.203125</ele>
        <time>2017-12-22T16:50:23Z</time>
      </trkpt>
      <trkpt lat="38.80746996961534" lon="-0.351109961047769">
        <ele>334.26953125</ele>
        <time>2017-12-22T16:52:23Z</time>
      </trkpt>
      <trkpt lat="38.807399980723858" lon="-0.351080037653446">
        <ele>334.59765625</ele>
        <time>2017-12-22T16:54:23Z</time>
      </trkpt>
      <trkpt lat="38.80733996629715" lon="-0.351060004904866">
        <ele>335.21484375</ele>
        <time>2017-12-22T16:56:23Z</time>
      </trkpt>
      <trkpt lat="38.807269977405667" lon="-0.351039972156286">
        <ele>336.10546875</ele>
        <time>2017-12-22T16:58:23Z</time>
      </trkpt>
      <trkpt lat="38.807169981300831" lon="-0.351039972156286">
        <ele>337.09375</ele>
        <time>2017-12-22T17:00:23Z</time>
      </trkpt>
      <trkpt lat="38.807030003517866" lon="-0.351029997691512">
        <ele>338.48046875</ele>
        <time>2017-12-22T17:02:23Z</time>
      </trkpt>
      <trkpt lat="38.806830011308193" lon="-0.351050030440092">
        <ele>340.1953125</ele>
        <time>2017-12-22T17:04:23Z</time>
      </trkpt>
      <trkpt lat="38.806690033525229" lon="-0.351060004904866">
        <ele>340.85546875</ele>
        <time>2017-12-22T17:06:23Z</time>
      </trkpt>
      <trkpt lat="38.806240009143949" lon="-0.351109961047769">
        <ele>340.87890625</ele>
        <time>2017-12-22T17:08:23Z</time>
      </trkpt>
      <trkpt lat="38.805740028619766" lon="-0.351150026544929">
        <ele>340.75</ele>
        <time>2017-12-22T17:10:23Z</time>
      </trkpt>
      <trkpt lat="38.805659981444478" lon="-0.351150026544929">
        <ele>340.328125</ele>
        <time>2017-12-22T17:12:23Z</time>
      </trkpt>
      <trkpt lat="38.805610025301576" lon="-0.351139968261123">
        <ele>340.23046875</ele>
        <time>2017-12-22T17:14:23Z</time>
      </trkpt>
      <trkpt lat="38.805559985339642" lon="-0.351129993796349">
        <ele>340.4296875</ele>
        <time>2017-12-22T17:16:23Z</time>
      </trkpt>
      <trkpt lat="38.805459989234805" lon="-0.351109961047769">
        <ele>340.6796875</ele>
        <time>2017-12-22T17:18:23Z</time>
      </trkpt>
      <trkpt lat="38.805020023137331" lon="-0.350969983264804">
        <ele>342.00390625</ele>
        <time>2017-12-22T17:20:23Z</time>
      </trkpt>
      <trkpt lat="38.804980041459203" lon="-0.35096000880003">
        <ele>342.16796875</ele>
        <time>2017-12-22T17:22:23Z</time>
      </trkpt>
      <trkpt lat="38.80486998707056" lon="-0.35093997605145">
        <ele>342.78515625</ele>
        <time>2017-12-22T17:24:23Z</time>
      </trkpt>
      <trkpt lat="38.804649962112308" lon="-0.350909968838096">
        <ele>344.47265625</ele>
        <time>2017-12-22T17:26:23Z</time>
      </trkpt>
      <trkpt lat="38.804409988224506" lon="-0.350890019908547">
        <ele>344.609375</ele>
        <time>2017-12-22T17:28:23Z</time>
      </trkpt>
      <trkpt lat="38.804349973797798" lon="-0.350869987159967">
        <ele>345.13671875</ele>
        <time>2017-12-22T17:30:23Z</time>
      </trkpt>
      <trkpt lat="38.804179988801479" lon="-0.350830005481839">
        <ele>345.90625</ele>
        <time>2017-12-22T17:32:23Z</time>
      </trkpt>
      <trkpt lat="38.804059959948063" lon="-0.350790023803711">
        <ele>346.828125</ele>
        <time>2017-12-22T17:34:23Z</time>
      </trkpt>
      <trkpt lat="38.803789978846908" lon="-0.350700002163649">
        <ele>347.08984375</ele>
        <time>2017-12-22T17:36:23Z</time>
      </trkpt>
      <trkpt lat="38.803680008277297" lon="-0.35066002048552">
        <ele>346.28125</ele>
        <time>2017-12-22T17:38:23Z</time>
      </trkpt>
      <trkpt lat="38.803599961102009" lon="-0.350649962201715">
        <ele>345.44140625</ele>
        <time>2017-12-22T17:40:23Z</time>
      </trkpt>
      <trkpt lat="38.80347004160285" lon="-0.350620038807392">
        <ele>343.76953125</ele>
        <time>2017-12-22T17:42:23Z</time>
      </trkpt>
      <trkpt lat="38.803169969469309" lon="-0.350569998845458">
        <ele>343.5234375</ele>
        <time>2017-12-22T17:44:23Z</time>
      </trkpt>
      <trkpt lat="38.803099980577826" lon="-0.350560024380684">
        <ele>344.0546875</ele>
        <time>2017-12-22T17:46:23Z</time>
      </trkpt>
      <trkpt lat="38.80299998447299" lon="-0.350549966096878">
        <ele>344.96484375</ele>
        <time>2017-12-22T17:48:23Z</time>
      </trkpt>
      <trkpt lat="38.802799992263317" lon="-0.350549966096878">
        <ele>343.921875</ele>
        <time>2017-12-22T17:50:23Z</time>
      </trkpt>
      <trkpt lat="38.802730003371835" lon="-0.350549966096878">
        <ele>343.08203125</ele>
        <time>2017-12-22T17:52:23Z</time>
      </trkpt>
      <trkpt lat="38.802660014480352" lon="-0.350539991632104">
        <ele>341.8125</ele>
        <time>2017-12-22T17:54:23Z</time>
      </trkpt>
      <trkpt lat="38.802600000053644" lon="-0.350539991632104">
        <ele>340.71875</ele>
        <time>2017-12-22T17:56:23Z</time>
      </trkpt>
      <trkpt lat="38.802509978413582" lon="-0.350519958883524">
        <ele>340.18359375</ele>
        <time>2017-12-22T17:58:23Z</time>
      </trkpt>
      <trkpt lat="38.802390033379197" lon="-0.350490035489202">
        <ele>339.984375</ele>
        <time>2017-12-22T18:00:23Z</time>
      </trkpt>
      <trkpt lat="38.802319960668683" lon="-0.350470002740622">
        <ele>339.94921875</ele>
        <time>2017-12-22T18:02:23Z</time>
      </trkpt>
      <trkpt lat="38.802300011739135" lon="-0.350460028275847">
        <ele>340.08203125</ele>
        <time>2017-12-22T18:04:23Z</time>
      </trkpt>
      <trkpt lat="38.802270004525781" lon="-0.350460028275847">
        <ele>339.84375</ele>
        <time>2017-12-22T18:06:23Z</time>
      </trkpt>
      <trkpt lat="38.802089961245656" lon="-0.350409988313913">
        <ele>339.75390625</ele>
        <time>2017-12-22T18:08:23Z</time>
      </trkpt>
      <trkpt lat="38.801970016211271" lon="-0.350390039384365">
        <ele>339.44140625</ele>
        <time>2017-12-22T18:10:23Z</time>
      </trkpt>
      <trkpt lat="38.801840012893081" lon="-0.350370006635785">
        <ele>339.2421875</ele>
        <time>2017-12-22T18:12:23Z</time>
      </trkpt>
      <trkpt lat="38.801779998466372" lon="-0.350349973887205">
        <ele>339.4140625</ele>
        <time>2017-12-22T18:14:23Z</time>
      </trkpt>
      <trkpt lat="38.801700035110116" lon="-0.350330024957657">
        <ele>339.015625</ele>
        <time>2017-12-22T18:16:23Z</time>
      </trkpt>
      <trkpt lat="38.801670027896762" lon="-0.350309992209077">
        <ele>338.796875</ele>
        <time>2017-12-22T18:18:23Z</time>
      </trkpt>
      <trkpt lat="38.801629962399602" lon="-0.350289959460497">
        <ele>338.30859375</ele>
        <time>2017-12-22T18:20:23Z</time>
      </trkpt>
      <trkpt lat="38.801570031791925" lon="-0.350260036066175">
        <ele>336.796875</ele>
        <time>2017-12-22T18:22:23Z</time>
      </trkpt>
      <trkpt lat="38.801470035687089" lon="-0.350170014426112">
        <ele>334.98046875</ele>
        <time>2017-12-22T18:24:23Z</time>
      </trkpt>
      <trkpt lat="38.801380014047027" lon="-0.350109999999404">
        <ele>333.83984375</ele>
        <time>2017-12-22T18:26:23Z</time>
      </trkpt>
      <trkpt lat="38.801340032368898" lon="-0.350070018321276">
        <ele>333.7421875</ele>
        <time>2017-12-22T18:28:23Z</time>
      </trkpt>
      <trkpt lat="38.801189996302128" lon="-0.349970022216439">
        <ele>332.7578125</ele>
        <time>2017-12-22T18:30:23Z</time>
      </trkpt>
      <trkpt lat="38.801059992983937" lon="-0.349900033324957">
        <ele>331.2734375</ele>
        <time>2017-12-22T18:32:23Z</time>
      </trkpt>
      <trkpt lat="38.800890007987618" lon="-0.349810011684895">
        <ele>329.9765625</ele>
        <time>2017-12-22T18:34:23Z</time>
      </trkpt>
      <trkpt lat="38.800799986347556" lon="-0.34975997172296">
        <ele>329.58984375</ele>
        <time>2017-12-22T18:36:23Z</time>
      </trkpt>
      <trkpt lat="38.800769979134202" lon="-0.349749997258186">
        <ele>329.73828125</ele>
        <time>2017-12-22T18:38:23Z</time>
      </trkpt>
      <trkpt lat="38.800750030204654" lon="-0.349740022793412">
        <ele>329.8125</ele>
        <time>2017-12-22T18:40:23Z</time>
      </trkpt>
      <trkpt lat="38.800690015777946" lon="-0.349729964509606">
        <ele>329.90625</ele>
        <time>2017-12-22T18:42:23Z</time>
      </trkpt>
      <trkpt lat="38.800579961389303" lon="-0.349729964509606">
        <ele>330.109375</ele>
        <time>2017-12-22T18:44:23Z</time>
      </trkpt>
      <trkpt lat="38.800530005246401" lon="-0.349729964509606">
        <ele>330.375</ele>
        <time>2017-12-22T18:46:23Z</time>
      </trkpt>
      <trkpt lat="38.800460016354918" lon="-0.349740022793412">
        <ele>330.94140625</ele>
        <time>2017-12-22T18:48:23Z</time>
      </trkpt>
      <trkpt lat="38.80037996917963" lon="-0.34975997172296">
        <ele>331.5</ele>
        <time>2017-12-22T18:50:23Z</time>
      </trkpt>
      <trkpt lat="38.800320038571954" lon="-0.349789978936315">
        <ele>331.734375</ele>
        <time>2017-12-22T18:52:23Z</time>
      </trkpt>
      <trkpt lat="38.800279973074794" lon="-0.349810011684895">
        <ele>331.86328125</ele>
        <time>2017-12-22T18:54:23Z</time>
      </trkpt>
      <trkpt lat="38.800219958648086" lon="-0.349840018898249">
        <ele>332.0234375</ele>
        <time>2017-12-22T18:56:23Z</time>
      </trkpt>
      <trkpt lat="38.800049973651767" lon="-0.349959963932633">
        <ele>332.3828125</ele>
        <time>2017-12-22T18:58:23Z</time>
      </trkpt>
      <trkpt lat="38.799989959225059" lon="-0.349989971145988">
        <ele>332.39453125</ele>
        <time>2017-12-22T19:00:23Z</time>
      </trkpt>
      <trkpt lat="38.799960035830736" lon="-0.350000029429793">
        <ele>332.51953125</ele>
        <time>2017-12-22T19:02:23Z</time>
      </trkpt>
      <trkpt lat="38.799940003082156" lon="-0.350010003894567">
        <ele>332.6484375</ele>
        <time>2017-12-22T19:04:23Z</time>
      </trkpt>
      <trkpt lat="38.799909995868802" lon="-0.350010003894567">
        <ele>332.88671875</ele>
        <time>2017-12-22T19:06:23Z</time>
      </trkpt>
      <trkpt lat="38.799879988655448" lon="-0.350010003894567">
        <ele>333.125</ele>
        <time>2017-12-22T19:08:23Z</time>
      </trkpt>
      <trkpt lat="38.799849981442094" lon="-0.350010003894567">
        <ele>333.3046875</ele>
        <time>2017-12-22T19:10:23Z</time>
      </trkpt>
      <trkpt lat="38.799800025299191" lon="-0.350010003894567">
        <ele>333.59375</ele>
        <time>2017-12-22T19:12:23Z</time>
      </trkpt>
      <trkpt lat="38.799770018085837" lon="-0.350000029429793">
        <ele>333.86328125</ele>
        <time>2017-12-22T19:14:23Z</time>
      </trkpt>
      <trkpt lat="38.799640014767647" lon="-0.349959963932633">
        <ele>335.58203125</ele>
        <time>2017-12-22T19:16:23Z</time>
      </trkpt>
      <trkpt lat="38.799570025876164" lon="-0.349930040538311">
        <ele>336.91015625</ele>
        <time>2017-12-22T19:18:23Z</time>
      </trkpt>
      <trkpt lat="38.79951998591423" lon="-0.349900033324957">
        <ele>337.83203125</ele>
        <time>2017-12-22T19:20:23Z</time>
      </trkpt>
      <trkpt lat="38.799470029771328" lon="-0.349870026111603">
        <ele>338.45703125</ele>
        <time>2017-12-22T19:22:23Z</time>
      </trkpt>
      <trkpt lat="38.799429964274168" lon="-0.349840018898249">
        <ele>338.94921875</ele>
        <time>2017-12-22T19:24:23Z</time>
      </trkpt>
      <trkpt lat="38.79938998259604" lon="-0.34980003722012">
        <ele>339.29296875</ele>
        <time>2017-12-22T19:26:23Z</time>
      </trkpt>
      <trkpt lat="38.799350000917912" lon="-0.349749997258186">
        <ele>339.58984375</ele>
        <time>2017-12-22T19:28:23Z</time>
      </trkpt>
      <trkpt lat="38.799299960955977" lon="-0.349680008366704">
        <ele>340.28515625</ele>
        <time>2017-12-22T19:30:23Z</time>
      </trkpt>
      <trkpt lat="38.799229972064495" lon="-0.349580012261868">
        <ele>341.7265625</ele>
        <time>2017-12-22T19:32:23Z</time>
      </trkpt>
      <trkpt lat="38.799170041456819" lon="-0.349510023370385">
        <ele>342.48828125</ele>
        <time>2017-12-22T19:34:23Z</time>
      </trkpt>
      <trkpt lat="38.799050012603402" lon="-0.349389994516969">
        <ele>343.16796875</ele>
        <time>2017-12-22T19:36:23Z</time>
      </trkpt>
      <trkpt lat="38.79893995821476" lon="-0.349289998412132">
        <ele>343.67578125</ele>
        <time>2017-12-22T19:38:23Z</time>
      </trkpt>
      <trkpt lat="38.798739966005087" lon="-0.349120013415813">
        <ele>346.84765625</ele>
        <time>2017-12-22T19:40:23Z</time>
      </trkpt>
      <trkpt lat="38.798590013757348" lon="-0.348960002884269">
        <ele>349.72265625</ele>
        <time>2017-12-22T19:42:23Z</time>
      </trkpt>
      <trkpt lat="38.798390021547675" lon="-0.348779959604144">
        <ele>354.59765625</ele>
        <time>2017-12-22T19:44:23Z</time>
      </trkpt>
      <trkpt lat="38.798220036551356" lon="-0.348630007356405">
        <ele>358.9609375</ele>
        <time>2017-12-22T19:46:23Z</time>
      </trkpt>
      <trkpt lat="38.79820997826755" lon="-0.348620032891631">
        <ele>359.21484375</ele>
        <time>2017-12-22T19:48:23Z</time>
      </trkpt>
      <trkpt lat="38.797949971631169" lon="-0.348420040681958">
        <ele>364.89453125</ele>
        <time>2017-12-22T19:50:23Z</time>
      </trkpt>
      <trkpt lat="38.797949971631169" lon="-0.348420040681958">
        <ele>364.89453125</ele>
        <time>2017-12-22T19:52:23Z</time>
      </trkpt>
      <trkpt lat="38.797830026596785" lon="-0.348330019041896">
        <ele>366.44140625</ele>
        <time>2017-12-22T19:54:23Z</time>
      </trkpt>
      <trkpt lat="38.797740004956722" lon="-0.348260030150414">
        <ele>367.71875</ele>
        <time>2017-12-22T19:56:23Z</time>
      </trkpt>
      <trkpt lat="38.79767001606524" lon="-0.348200015723705">
        <ele>368.8046875</ele>
        <time>2017-12-22T19:58:23Z</time>
      </trkpt>
      <trkpt lat="38.797619976103306" lon="-0.348140001296997">
        <ele>370.07421875</ele>
        <time>2017-12-22T20:00:23Z</time>
      </trkpt>
      <trkpt lat="38.797570019960403" lon="-0.348079986870289">
        <ele>371.4140625</ele>
        <time>2017-12-22T20:02:23Z</time>
      </trkpt>
      <trkpt lat="38.797449991106987" lon="-0.34788996912539">
        <ele>376.03125</ele>
        <time>2017-12-22T20:04:23Z</time>
      </trkpt>
      <trkpt lat="38.79724002443254" lon="-0.347519991919398">
        <ele>382.21484375</ele>
        <time>2017-12-22T20:06:23Z</time>
      </trkpt>
      <trkpt lat="38.79719995893538" lon="-0.347450003027916">
        <ele>383.16796875</ele>
        <time>2017-12-22T20:08:23Z</time>
      </trkpt>
      <trkpt lat="38.797140028327703" lon="-0.3473299741745">
        <ele>384.94921875</ele>
        <time>2017-12-22T20:10:23Z</time>
      </trkpt>
      <trkpt lat="38.797050006687641" lon="-0.347150014713407">
        <ele>387.84765625</ele>
        <time>2017-12-22T20:12:23Z</time>
      </trkpt>
      <trkpt lat="38.797019999474287" lon="-0.347099974751472">
        <ele>388.6328125</ele>
        <time>2017-12-22T20:14:23Z</time>
      </trkpt>
      <trkpt lat="38.796959985047579" lon="-0.347020011395216">
        <ele>389.984375</ele>
        <time>2017-12-22T20:16:23Z</time>
      </trkpt>
      <trkpt lat="38.796840040013194" lon="-0.346860000863671">
        <ele>391.8984375</ele>
        <time>2017-12-22T20:18:23Z</time>
      </trkpt>
      <trkpt lat="38.796750018373132" lon="-0.346760004758835">
        <ele>393.1640625</ele>
        <time>2017-12-22T20:20:23Z</time>
      </trkpt>
      <trkpt lat="38.796680029481649" lon="-0.346680041402578">
        <ele>394.5234375</ele>
        <time>2017-12-22T20:22:23Z</time>
      </trkpt>
      <trkpt lat="38.796520018950105" lon="-0.346530005335808">
        <ele>396.91015625</ele>
        <time>2017-12-22T20:24:23Z</time>
      </trkpt>
      <trkpt lat="38.796409964561462" lon="-0.346409976482391">
        <ele>398.81640625</ele>
        <time>2017-12-22T20:26:23Z</time>
      </trkpt>
      <trkpt lat="38.796299993991852" lon="-0.346300005912781">
        <ele>399.69921875</ele>
        <time>2017-12-22T20:28:23Z</time>
      </trkpt>
      <trkpt lat="38.796179965138435" lon="-0.34614996984601">
        <ele>400.8671875</ele>
        <time>2017-12-22T20:30:23Z</time>
      </trkpt>
      <trkpt lat="38.796109976246953" lon="-0.346070006489754">
        <ele>402.01171875</ele>
        <time>2017-12-22T20:32:23Z</time>
      </trkpt>
      <trkpt lat="38.796020038425922" lon="-0.345970010384917">
        <ele>404.3359375</ele>
        <time>2017-12-22T20:34:23Z</time>
      </trkpt>
      <trkpt lat="38.795739999040961" lon="-0.345689970999956">
        <ele>411.1171875</ele>
        <time>2017-12-22T20:36:23Z</time>
      </trkpt>
      <trkpt lat="38.795589962974191" lon="-0.345559967681766">
        <ele>414.859375</ele>
        <time>2017-12-22T20:38:23Z</time>
      </trkpt>
      <trkpt lat="38.795489966869354" lon="-0.345480004325509">
        <ele>416.9140625</ele>
        <time>2017-12-22T20:40:23Z</time>
      </trkpt>
      <trkpt lat="38.795359963551164" lon="-0.345389982685447">
        <ele>418.6328125</ele>
        <time>2017-12-22T20:42:23Z</time>
      </trkpt>
      <trkpt lat="38.795210011303425" lon="-0.345329968258739">
        <ele>420.51171875</ele>
        <time>2017-12-22T20:44:23Z</time>
      </trkpt>
      <trkpt lat="38.795189978554845" lon="-0.345319993793964">
        <ele>420.96875</ele>
        <time>2017-12-22T20:46:23Z</time>
      </trkpt>
      <trkpt lat="38.7945999763906" lon="-0.345099968835711">
        <ele>430.12890625</ele>
        <time>2017-12-22T20:48:23Z</time>
      </trkpt>
      <trkpt lat="38.794229999184608" lon="-0.344959991052747">
        <ele>429.3515625</ele>
        <time>2017-12-22T20:50:23Z</time>
      </trkpt>
      <trkpt lat="38.794020032510161" lon="-0.344899976626039">
        <ele>428.21484375</ele>
        <time>2017-12-22T20:52:23Z</time>
      </trkpt>
      <trkpt lat="38.793920036405325" lon="-0.344890002161264">
        <ele>427.78125</ele>
        <time>2017-12-22T20:54:23Z</time>
      </trkpt>
      <trkpt lat="38.793040020391345" lon="-0.344820013269782">
        <ele>435.74609375</ele>
        <time>2017-12-22T20:56:23Z</time>
      </trkpt>
      <trkpt lat="38.792269974946976" lon="-0.3447500243783">
        <ele>430.09375</ele>
        <time>2017-12-22T20:58:23Z</time>
      </trkpt>
      <trkpt lat="38.792160004377365" lon="-0.344739966094494">
        <ele>430.54296875</ele>
        <time>2017-12-22T21:00:23Z</time>
      </trkpt>
      <trkpt lat="38.791800001636147" lon="-0.34470995888114">
        <ele>438.1953125</ele>
        <time>2017-12-22T21:02:23Z</time>
      </trkpt>
      <trkpt lat="38.791509987786412" lon="-0.344690009951591">
        <ele>440.19140625</ele>
        <time>2017-12-22T21:04:23Z</time>
      </trkpt>
      <trkpt lat="38.791370010003448" lon="-0.344699984416366">
        <ele>441.265625</ele>
        <time>2017-12-22T21:06:23Z</time>
      </trkpt>
      <trkpt lat="38.791209999471903" lon="-0.344739966094494">
        <ele>441.68359375</ele>
        <time>2017-12-22T21:08:23Z</time>
      </trkpt>
      <trkpt lat="38.791059963405132" lon="-0.344799980521202">
        <ele>442.0078125</ele>
        <time>2017-12-22T21:10:23Z</time>
      </trkpt>
      <trkpt lat="38.790810015052557" lon="-0.344929983839393">
        <ele>442.38671875</ele>
        <time>2017-12-22T21:12:23Z</time>
      </trkpt>
      <trkpt lat="38.790719993412495" lon="-0.344980023801327">
        <ele>442.43359375</ele>
        <time>2017-12-22T21:14:23Z</time>
      </trkpt>
      <trkpt lat="38.790159998461604" lon="-0.345359975472093">
        <ele>445.33984375</ele>
        <time>2017-12-22T21:16:23Z</time>
      </trkpt>
      <trkpt lat="38.789980039000511" lon="-0.345480004325509">
        <ele>444.60546875</ele>
        <time>2017-12-22T21:18:23Z</time>
      </trkpt>
      <trkpt lat="38.789969980716705" lon="-0.345489978790283">
        <ele>444.40234375</ele>
        <time>2017-12-22T21:20:23Z</time>
      </trkpt>
      <trkpt lat="38.789929999038577" lon="-0.345510011538863">
        <ele>443.94140625</ele>
        <time>2017-12-22T21:22:23Z</time>
      </trkpt>
      <trkpt lat="38.789850035682321" lon="-0.345540018752217">
        <ele>443.44921875</ele>
        <time>2017-12-22T21:24:23Z</time>
      </trkpt>
      <trkpt lat="38.789809970185161" lon="-0.345559967681766">
        <ele>443.25</ele>
        <time>2017-12-22T21:26:23Z</time>
      </trkpt>
      <trkpt lat="38.789750039577484" lon="-0.345570025965571">
        <ele>443.26171875</ele>
        <time>2017-12-22T21:28:23Z</time>
      </trkpt>
      <trkpt lat="38.78969999961555" lon="-0.345580000430346">
        <ele>443.26171875</ele>
        <time>2017-12-22T21:30:23Z</time>
      </trkpt>
      <trkpt lat="38.789620036259294" lon="-0.345580000430346">
        <ele>442.625</ele>
        <time>2017-12-22T21:32:23Z</time>
      </trkpt>
      <trkpt lat="38.789560021832585" lon="-0.345580000430346">
        <ele>442.0546875</ele>
        <time>2017-12-22T21:34:23Z</time>
      </trkpt>
      <trkpt lat="38.789500007405877" lon="-0.345580000430346">
        <ele>441.46484375</ele>
        <time>2017-12-22T21:36:23Z</time>
      </trkpt>
      <trkpt lat="38.789449967443943" lon="-0.345580000430346">
        <ele>440.96875</ele>
        <time>2017-12-22T21:38:23Z</time>
      </trkpt>
      <trkpt lat="38.789370004087687" lon="-0.345559967681766">
        <ele>440.55859375</ele>
        <time>2017-12-22T21:40:23Z</time>
      </trkpt>
      <trkpt lat="38.789300015196204" lon="-0.345540018752217">
        <ele>440.46875</ele>
        <time>2017-12-22T21:42:23Z</time>
      </trkpt>
      <trkpt lat="38.789170011878014" lon="-0.345519986003637">
        <ele>440.51171875</ele>
        <time>2017-12-22T21:44:23Z</time>
      </trkpt>
      <trkpt lat="38.789100022986531" lon="-0.345500037074089">
        <ele>441.44921875</ele>
        <time>2017-12-22T21:46:23Z</time>
      </trkpt>
      <trkpt lat="38.788519995287061" lon="-0.345419989898801">
        <ele>444.73828125</ele>
        <time>2017-12-22T21:48:23Z</time>
      </trkpt>
      <trkpt lat="38.788329977542162" lon="-0.345359975472093">
        <ele>445.18359375</ele>
        <time>2017-12-22T21:50:23Z</time>
      </trkpt>
      <trkpt lat="38.788220006972551" lon="-0.34528998658061">
        <ele>444.8984375</ele>
        <time>2017-12-22T21:52:23Z</time>
      </trkpt>
      <trkpt lat="38.788169967010617" lon="-0.345240030437708">
        <ele>443.87890625</ele>
        <time>2017-12-22T21:54:23Z</time>
      </trkpt>
      <trkpt lat="38.788120010867715" lon="-0.345170041546226">
        <ele>443.0390625</ele>
        <time>2017-12-22T21:56:23Z</time>
      </trkpt>
      <trkpt lat="38.788090003654361" lon="-0.345120001584291">
        <ele>442.375</ele>
        <time>2017-12-22T21:58:23Z</time>
      </trkpt>
      <trkpt lat="38.788069970905781" lon="-0.345080019906163">
        <ele>441.890625</ele>
        <time>2017-12-22T22:00:23Z</time>
      </trkpt>
      <trkpt lat="38.788050021976233" lon="-0.345029979944229">
        <ele>441.3671875</ele>
        <time>2017-12-22T22:02:23Z</time>
      </trkpt>
      <trkpt lat="38.788039963692427" lon="-0.344959991052747">
        <ele>441.53125</ele>
        <time>2017-12-22T22:04:23Z</time>
      </trkpt>
      <trkpt lat="38.788029989227653" lon="-0.34483996219933">
        <ele>442.16015625</ele>
        <time>2017-12-22T22:06:23Z</time>
      </trkpt>
      <trkpt lat="38.788039963692427" lon="-0.34440997056663">
        <ele>442.7578125</ele>
        <time>2017-12-22T22:08:23Z</time>
      </trkpt>
      <trkpt lat="38.788039963692427" lon="-0.344339981675148">
        <ele>442.3125</ele>
        <time>2017-12-22T22:10:23Z</time>
      </trkpt>
      <trkpt lat="38.788050021976233" lon="-0.344269992783666">
        <ele>442.1640625</ele>
        <time>2017-12-22T22:12:23Z</time>
      </trkpt>
      <trkpt lat="38.788039963692427" lon="-0.344200003892183">
        <ele>441.46875</ele>
        <time>2017-12-22T22:14:23Z</time>
      </trkpt>
      <trkpt lat="38.788029989227653" lon="-0.344120040535927">
        <ele>441.53515625</ele>
        <time>2017-12-22T22:16:23Z</time>
      </trkpt>
      <trkpt lat="38.788020014762878" lon="-0.344039993360639">
        <ele>442.33984375</ele>
        <time>2017-12-22T22:18:23Z</time>
      </trkpt>
      <trkpt lat="38.788010040298104" lon="-0.344009986147285">
        <ele>442.5</ele>
        <time>2017-12-22T22:20:23Z</time>
      </trkpt>
      <trkpt lat="38.787999982014298" lon="-0.343970004469156">
        <ele>442.82421875</ele>
        <time>2017-12-22T22:22:23Z</time>
      </trkpt>
      <trkpt lat="38.78796000033617" lon="-0.3438900411129">
        <ele>443.23828125</ele>
        <time>2017-12-22T22:24:23Z</time>
      </trkpt>
      <trkpt lat="38.78793996758759" lon="-0.343860033899546">
        <ele>443.2734375</ele>
        <time>2017-12-22T22:26:23Z</time>
      </trkpt>
      <trkpt lat="38.787909960374236" lon="-0.343819968402386">
        <ele>443.83203125</ele>
        <time>2017-12-22T22:28:23Z</time>
      </trkpt>
      <trkpt lat="38.787880036979914" lon="-0.343789961189032">
        <ele>444.2578125</ele>
        <time>2017-12-22T22:30:23Z</time>
      </trkpt>
      <trkpt lat="38.78782999701798" lon="-0.343760037794709">
        <ele>444.57421875</ele>
        <time>2017-12-22T22:32:23Z</time>
      </trkpt>
      <trkpt lat="38.787630004808307" lon="-0.343670016154647">
        <ele>442.171875</ele>
        <time>2017-12-22T22:34:23Z</time>
      </trkpt>
      <trkpt lat="38.787579964846373" lon="-0.343640008941293">
        <ele>440.66015625</ele>
        <time>2017-12-22T22:36:23Z</time>
      </trkpt>
      <trkpt lat="38.78755004145205" lon="-0.343630034476519">
        <ele>439.56640625</ele>
        <time>2017-12-22T22:38:23Z</time>
      </trkpt>
      <trkpt lat="38.78753000870347" lon="-0.343610001727939">
        <ele>439.296875</ele>
        <time>2017-12-22T22:40:23Z</time>
      </trkpt>
      <trkpt lat="38.78750997595489" lon="-0.343589968979359">
        <ele>439.140625</ele>
        <time>2017-12-22T22:42:23Z</time>
      </trkpt>
      <trkpt lat="38.787490027025342" lon="-0.343559961766005">
        <ele>439.078125</ele>
        <time>2017-12-22T22:44:23Z</time>
      </trkpt>
      <trkpt lat="38.787439987063408" lon="-0.343470023944974">
        <ele>438.921875</ele>
        <time>2017-12-22T22:46:23Z</time>
      </trkpt>
      <trkpt lat="38.787360023707151" lon="-0.343349995091558">
        <ele>438.63671875</ele>
        <time>2017-12-22T22:48:23Z</time>
      </trkpt>
      <trkpt lat="38.787349965423346" lon="-0.343319987878203">
        <ele>439.13671875</ele>
        <time>2017-12-22T22:50:23Z</time>
      </trkpt>
      <trkpt lat="38.787260027602315" lon="-0.343170035630465">
        <ele>438.14453125</ele>
        <time>2017-12-22T22:52:23Z</time>
      </trkpt>
      <trkpt lat="38.787190038710833" lon="-0.343029974028468">
        <ele>436.9609375</ele>
        <time>2017-12-22T22:54:23Z</time>
      </trkpt>
      <trkpt lat="38.787160031497478" lon="-0.342959985136986">
        <ele>437.1640625</ele>
        <time>2017-12-22T22:56:23Z</time>
      </trkpt>
      <trkpt lat="38.787119966000319" lon="-0.342859989032149">
        <ele>437.06640625</ele>
        <time>2017-12-22T22:58:23Z</time>
      </trkpt>
      <trkpt lat="38.787049977108836" lon="-0.342629989609122">
        <ele>436.15625</ele>
        <time>2017-12-22T23:00:23Z</time>
      </trkpt>
      <trkpt lat="38.787030028179288" lon="-0.34256000071764">
        <ele>435.8515625</ele>
        <time>2017-12-22T23:02:23Z</time>
      </trkpt>
      <trkpt lat="38.787000020965934" lon="-0.342499986290932">
        <ele>435.4921875</ele>
        <time>2017-12-22T23:04:23Z</time>
      </trkpt>
      <trkpt lat="38.78697001375258" lon="-0.342460004612803">
        <ele>435.22265625</ele>
        <time>2017-12-22T23:06:23Z</time>
      </trkpt>
      <trkpt lat="38.786930032074451" lon="-0.342409964650869">
        <ele>435.10546875</ele>
        <time>2017-12-22T23:08:23Z</time>
      </trkpt>
      <trkpt lat="38.786870017647743" lon="-0.342339975759387">
        <ele>434.109375</ele>
        <time>2017-12-22T23:10:23Z</time>
      </trkpt>
      <trkpt lat="38.786849984899163" lon="-0.342299994081259">
        <ele>433.63671875</ele>
        <time>2017-12-22T23:12:23Z</time>
      </trkpt>
      <trkpt lat="38.786819977685809" lon="-0.342209972441196">
        <ele>432.36328125</ele>
        <time>2017-12-22T23:14:23Z</time>
      </trkpt>
      <trkpt lat="38.786789970472455" lon="-0.342139983549714">
        <ele>430.6171875</ele>
        <time>2017-12-22T23:16:23Z</time>
      </trkpt>
      <trkpt lat="38.786779996007681" lon="-0.342079969123006">
        <ele>430.05859375</ele>
        <time>2017-12-22T23:18:23Z</time>
      </trkpt>
      <trkpt lat="38.786770021542907" lon="-0.342009980231524">
        <ele>429.23828125</ele>
        <time>2017-12-22T23:20:23Z</time>
      </trkpt>
      <trkpt lat="38.786759963259101" lon="-0.341930016875267">
        <ele>428.1796875</ele>
        <time>2017-12-22T23:22:23Z</time>
      </trkpt>
      <trkpt lat="38.786749988794327" lon="-0.341870002448559">
        <ele>427.609375</ele>
        <time>2017-12-22T23:24:23Z</time>
      </trkpt>
      <trkpt lat="38.786730039864779" lon="-0.341809988021851">
        <ele>426.78125</ele>
        <time>2017-12-22T23:26:23Z</time>
      </trkpt>
      <trkpt lat="38.786700032651424" lon="-0.341709991917014">
        <ele>426.24609375</ele>
        <time>2017-12-22T23:28:23Z</time>
      </trkpt>
      <trkpt lat="38.786659967154264" lon="-0.341640003025532">
        <ele>425.48046875</ele>
        <time>2017-12-22T23:30:23Z</time>
      </trkpt>
      <trkpt lat="38.786640018224716" lon="-0.341589963063598">
        <ele>425.83984375</ele>
        <time>2017-12-22T23:32:23Z</time>
      </trkpt>
      <trkpt lat="38.786610011011362" lon="-0.341540006920695">
        <ele>426.12109375</ele>
        <time>2017-12-22T23:34:23Z</time>
      </trkpt>
      <trkpt lat="38.786559971049428" lon="-0.341489966958761">
        <ele>425.62890625</ele>
        <time>2017-12-22T23:36:23Z</time>
      </trkpt>
      <trkpt lat="38.7865199893713" lon="-0.341440010815859">
        <ele>425.22265625</ele>
        <time>2017-12-22T23:38:23Z</time>
      </trkpt>
      <trkpt lat="38.786510014906526" lon="-0.341419978067279">
        <ele>425.19140625</ele>
        <time>2017-12-22T23:40:23Z</time>
      </trkpt>
      <trkpt lat="38.786500040441751" lon="-0.341400029137731">
        <ele>425.16015625</ele>
        <time>2017-12-22T23:42:23Z</time>
      </trkpt>
      <trkpt lat="38.786489982157946" lon="-0.341389970853925">
        <ele>425.02734375</ele>
        <time>2017-12-22T23:44:23Z</time>
      </trkpt>
      <trkpt lat="38.786470033228397" lon="-0.341349989175797">
        <ele>424.859375</ele>
        <time>2017-12-22T23:46:23Z</time>
      </trkpt>
      <trkpt lat="38.786399960517883" lon="-0.341200036928058">
        <ele>424.1015625</ele>
        <time>2017-12-22T23:48:23Z</time>
      </trkpt>
      <trkpt lat="38.786340029910207" lon="-0.341050000861287">
        <ele>423.109375</ele>
        <time>2017-12-22T23:50:23Z</time>
      </trkpt>
      <trkpt lat="38.786299964413047" lon="-0.340899964794517">
        <ele>422.359375</ele>
        <time>2017-12-22T23:52:23Z</time>
      </trkpt>
      <trkpt lat="38.786270041018724" lon="-0.340789994224906">
        <ele>421.5625</ele>
        <time>2017-12-22T23:54:23Z</time>
      </trkpt>
      <trkpt lat="38.786259982734919" lon="-0.340740038082004">
        <ele>420.96875</ele>
        <time>2017-12-22T23:56:23Z</time>
      </trkpt>
      <trkpt lat="38.78624003380537" lon="-0.340680023655295">
        <ele>420.22265625</ele>
        <time>2017-12-22T23:58:23Z</time>
      </trkpt>
      <trkpt lat="38.786229975521564" lon="-0.34066996537149">
        <ele>419.953125</ele>
        <time>2017-12-23T00:00:23Z</time>
      </trkpt>
      <trkpt lat="38.786210026592016" lon="-0.340629983693361">
        <ele>419.421875</ele>
        <time>2017-12-23T00:02:23Z</time>
      </trkpt>
      <trkpt lat="38.786180019378662" lon="-0.340599976480007">
        <ele>418.87109375</ele>
        <time>2017-12-23T00:04:23Z</time>
      </trkpt>
      <trkpt lat="38.786140037700534" lon="-0.340559994801879">
        <ele>419.1640625</ele>
        <time>2017-12-23T00:06:23Z</time>
      </trkpt>
      <trkpt lat="38.785990001633763" lon="-0.340409958735108">
        <ele>422.9921875</ele>
        <time>2017-12-23T00:08:23Z</time>
      </trkpt>
      <trkpt lat="38.785969968885183" lon="-0.34036997705698">
        <ele>423.97265625</ele>
        <time>2017-12-23T00:10:23Z</time>
      </trkpt>
      <trkpt lat="38.785939961671829" lon="-0.340329995378852">
        <ele>425.12890625</ele>
        <time>2017-12-23T00:12:23Z</time>
      </trkpt>
      <trkpt lat="38.785910038277507" lon="-0.34026000648737">
        <ele>426.5234375</ele>
        <time>2017-12-23T00:14:23Z</time>
      </trkpt>
      <trkpt lat="38.785859998315573" lon="-0.340130003169179">
        <ele>428.37109375</ele>
        <time>2017-12-23T00:16:23Z</time>
      </trkpt>
      <trkpt lat="38.785799983888865" lon="-0.339979967102408">
        <ele>429.27734375</ele>
        <time>2017-12-23T00:18:23Z</time>
      </trkpt>
      <trkpt lat="38.785729994997382" lon="-0.339790033176541">
        <ele>429.97265625</ele>
        <time>2017-12-23T00:20:23Z</time>
      </trkpt>
      <trkpt lat="38.785699987784028" lon="-0.339700011536479">
        <ele>430.50390625</ele>
        <time>2017-12-23T00:22:23Z</time>
      </trkpt>
      <trkpt lat="38.785669980570674" lon="-0.339590040966868">
        <ele>431.15234375</ele>
        <time>2017-12-23T00:24:23Z</time>
      </trkpt>
      <trkpt lat="38.785650031641126" lon="-0.33953002654016">
        <ele>431.9375</ele>
        <time>2017-12-23T00:26:23Z</time>
      </trkpt>
      <trkpt lat="38.78563997335732" lon="-0.339479986578226">
        <ele>432.62109375</ele>
        <time>2017-12-23T00:28:23Z</time>
      </trkpt>
      <trkpt lat="38.785629998892546" lon="-0.339440004900098">
        <ele>433.20703125</ele>
        <time>2017-12-23T00:30:23Z</time>
      </trkpt>
      <trkpt lat="38.785629998892546" lon="-0.33937999047339">
        <ele>433.80078125</ele>
        <time>2017-12-23T00:32:23Z</time>
      </trkpt>
      <trkpt lat="38.785629998892546" lon="-0.339300027117133">
        <ele>434.58984375</ele>
        <time>2017-12-23T00:34:23Z</time>
      </trkpt>
      <trkpt lat="38.785629998892546" lon="-0.339249987155199">
        <ele>435.08203125</ele>
        <time>2017-12-23T00:36:23Z</time>
      </trkpt>
      <trkpt lat="38.78563997335732" lon="-0.339210005477071">
        <ele>435.31640625</ele>
        <time>2017-12-23T00:38:23Z</time>
      </trkpt>
      <trkpt lat="38.7856600061059" lon="-0.339149991050363">
        <ele>435.578125</ele>
        <time>2017-12-23T00:40:23Z</time>
      </trkpt>
      <trkpt lat="38.78568003885448" lon="-0.339089976623654">
        <ele>435.68359375</ele>
        <time>2017-12-23T00:42:23Z</time>
      </trkpt>
      <trkpt lat="38.785709962248802" lon="-0.339029962196946">
        <ele>435.94140625</ele>
        <time>2017-12-23T00:44:23Z</time>
      </trkpt>
      <trkpt lat="38.785739969462156" lon="-0.338980006054044">
        <ele>435.98046875</ele>
        <time>2017-12-23T00:46:23Z</time>
      </trkpt>
      <trkpt lat="38.785750027745962" lon="-0.338940024375916">
        <ele>436.265625</ele>
        <time>2017-12-23T00:48:23Z</time>
      </trkpt>
      <trkpt lat="38.785760002210736" lon="-0.338889984413981">
        <ele>436.73828125</ele>
        <time>2017-12-23T00:50:23Z</time>
      </trkpt>
      <trkpt lat="38.785760002210736" lon="-0.338850002735853">
        <ele>437.03515625</ele>
        <time>2017-12-23T00:52:23Z</time>
      </trkpt>
      <trkpt lat="38.785760002210736" lon="-0.338789988309145">
        <ele>436.921875</ele>
        <time>2017-12-23T00:54:23Z</time>
      </trkpt>
      <trkpt lat="38.785750027745962" lon="-0.338750006631017">
        <ele>436.6796875</ele>
        <time>2017-12-23T00:56:23Z</time>
      </trkpt>
      <trkpt lat="38.785739969462156" lon="-0.338710024952888">
        <ele>436.29296875</ele>
        <time>2017-12-23T00:58:23Z</time>
      </trkpt>
      <trkpt lat="38.785709962248802" lon="-0.338659984990954">
        <ele>436.44921875</ele>
        <time>2017-12-23T01:00:23Z</time>
      </trkpt>
      <trkpt lat="38.785669980570674" lon="-0.338620003312826">
        <ele>436.9453125</ele>
        <time>2017-12-23T01:02:23Z</time>
      </trkpt>
      <trkpt lat="38.785629998892546" lon="-0.338589996099472">
        <ele>437.625</ele>
        <time>2017-12-23T01:04:23Z</time>
      </trkpt>
      <trkpt lat="38.785560010001063" lon="-0.338529981672764">
        <ele>437.82421875</ele>
        <time>2017-12-23T01:06:23Z</time>
      </trkpt>
      <trkpt lat="38.785499995574355" lon="-0.338469967246056">
        <ele>438.22265625</ele>
        <time>2017-12-23T01:08:23Z</time>
      </trkpt>
      <trkpt lat="38.785490021109581" lon="-0.338450018316507">
        <ele>438.26953125</ele>
        <time>2017-12-23T01:10:23Z</time>
      </trkpt>
      <trkpt lat="38.785460013896227" lon="-0.338420011103153">
        <ele>438.6328125</ele>
        <time>2017-12-23T01:12:23Z</time>
      </trkpt>
      <trkpt lat="38.785430006682873" lon="-0.338359996676445">
        <ele>438.6640625</ele>
        <time>2017-12-23T01:14:23Z</time>
      </trkpt>
      <trkpt lat="38.785399999469519" lon="-0.338290007784963">
        <ele>438.7109375</ele>
        <time>2017-12-23T01:16:23Z</time>
      </trkpt>
      <trkpt lat="38.785379966720939" lon="-0.33822001889348">
        <ele>438.91015625</ele>
        <time>2017-12-23T01:18:23Z</time>
      </trkpt>
      <trkpt lat="38.785369992256165" lon="-0.338150030001998">
        <ele>438.95703125</ele>
        <time>2017-12-23T01:20:23Z</time>
      </trkpt>
      <trkpt lat="38.785369992256165" lon="-0.338050033897161">
        <ele>438.83203125</ele>
        <time>2017-12-23T01:22:23Z</time>
      </trkpt>
      <trkpt lat="38.785369992256165" lon="-0.337950037792325">
        <ele>439.08984375</ele>
        <time>2017-12-23T01:24:23Z</time>
      </trkpt>
      <trkpt lat="38.785379966720939" lon="-0.337879965081811">
        <ele>439.6015625</ele>
        <time>2017-12-23T01:26:23Z</time>
      </trkpt>
      <trkpt lat="38.785399999469519" lon="-0.337720038369298">
        <ele>440.56640625</ele>
        <time>2017-12-23T01:28:23Z</time>
      </trkpt>
      <trkpt lat="38.785430006682873" lon="-0.337609983980656">
        <ele>441.06640625</ele>
        <time>2017-12-23T01:30:23Z</time>
      </trkpt>
      <trkpt lat="38.785469988361001" lon="-0.337470006197691">
        <ele>442.171875</ele>
        <time>2017-12-23T01:32:23Z</time>
      </trkpt>
      <trkpt lat="38.785509970039129" lon="-0.33736003562808">
        <ele>443.08203125</ele>
        <time>2017-12-23T01:34:23Z</time>
      </trkpt>
      <trkpt lat="38.785539977252483" lon="-0.337289962917566">
        <ele>443.8046875</ele>
        <time>2017-12-23T01:36:23Z</time>
      </trkpt>
      <trkpt lat="38.785560010001063" lon="-0.33723003230989">
        <ele>444.59375</ele>
        <time>2017-12-23T01:38:23Z</time>
      </trkpt>
      <trkpt lat="38.785569984465837" lon="-0.33718996681273">
        <ele>445.140625</ele>
        <time>2017-12-23T01:40:23Z</time>
      </trkpt>
      <trkpt lat="38.785579958930612" lon="-0.337140010669827">
        <ele>445.78125</ele>
        <time>2017-12-23T01:42:23Z</time>
      </trkpt>
      <trkpt lat="38.785579958930612" lon="-0.337089970707893">
        <ele>446.5234375</ele>
        <time>2017-12-23T01:44:23Z</time>
      </trkpt>
      <trkpt lat="38.785579958930612" lon="-0.337040014564991">
        <ele>447.26171875</ele>
        <time>2017-12-23T01:46:23Z</time>
      </trkpt>
      <trkpt lat="38.785569984465837" lon="-0.337000032886863">
        <ele>447.734375</ele>
        <time>2017-12-23T01:48:23Z</time>
      </trkpt>
      <trkpt lat="38.785550035536289" lon="-0.336919985711575">
        <ele>448.15234375</ele>
        <time>2017-12-23T01:50:23Z</time>
      </trkpt>
      <trkpt lat="38.785509970039129" lon="-0.336810015141964">
        <ele>448.3828125</ele>
        <time>2017-12-23T01:52:23Z</time>
      </trkpt>
      <trkpt lat="38.785430006682873" lon="-0.336599964648485">
        <ele>448.9609375</ele>
        <time>2017-12-23T01:54:23Z</time>
      </trkpt>
      <trkpt lat="38.785369992256165" lon="-0.336450012400746">
        <ele>448.953125</ele>
        <time>2017-12-23T01:56:23Z</time>
      </trkpt>
      <trkpt lat="38.78533998504281" lon="-0.336380023509264">
        <ele>448.9609375</ele>
        <time>2017-12-23T01:58:23Z</time>
      </trkpt>
      <trkpt lat="38.785309977829456" lon="-0.336340041831136">
        <ele>448.90625</ele>
        <time>2017-12-23T02:00:23Z</time>
      </trkpt>
      <trkpt lat="38.785290028899908" lon="-0.336310034617782">
        <ele>448.890625</ele>
        <time>2017-12-23T02:02:23Z</time>
      </trkpt>
      <trkpt lat="38.785269996151328" lon="-0.336290001869202">
        <ele>448.92578125</ele>
        <time>2017-12-23T02:04:23Z</time>
      </trkpt>
      <trkpt lat="38.785179974511266" lon="-0.336190005764365">
        <ele>448.70703125</ele>
        <time>2017-12-23T02:06:23Z</time>
      </trkpt>
      <trkpt lat="38.785109985619783" lon="-0.336129991337657">
        <ele>448.015625</ele>
        <time>2017-12-23T02:08:23Z</time>
      </trkpt>
      <trkpt lat="38.784960033372045" lon="-0.335980039089918">
        <ele>446.73046875</ele>
        <time>2017-12-23T02:10:23Z</time>
      </trkpt>
      <trkpt lat="38.784710001200438" lon="-0.335739981383085">
        <ele>445.9921875</ele>
        <time>2017-12-23T02:12:23Z</time>
      </trkpt>
      <trkpt lat="38.784359972923994" lon="-0.335390036925673">
        <ele>447.015625</ele>
        <time>2017-12-23T02:14:23Z</time>
      </trkpt>
      <trkpt lat="38.784310016781092" lon="-0.335339996963739">
        <ele>447.53125</ele>
        <time>2017-12-23T02:16:23Z</time>
      </trkpt>
      <trkpt lat="38.784099966287613" lon="-0.335119972005486">
        <ele>448.7265625</ele>
        <time>2017-12-23T02:18:23Z</time>
      </trkpt>
      <trkpt lat="38.78389997407794" lon="-0.334930038079619">
        <ele>448.96875</ele>
        <time>2017-12-23T02:20:23Z</time>
      </trkpt>
      <trkpt lat="38.783820010721684" lon="-0.334840016439557">
        <ele>449.5859375</ele>
        <time>2017-12-23T02:22:23Z</time>
      </trkpt>
      <trkpt lat="38.783780029043555" lon="-0.334800034761429">
        <ele>449.84765625</ele>
        <time>2017-12-23T02:24:23Z</time>
      </trkpt>
      <trkpt lat="38.783750021830201" lon="-0.334780002012849">
        <ele>450.47265625</ele>
        <time>2017-12-23T02:26:23Z</time>
      </trkpt>
      <trkpt lat="38.783710040152073" lon="-0.334759969264269">
        <ele>451.33203125</ele>
        <time>2017-12-23T02:28:23Z</time>
      </trkpt>
      <trkpt lat="38.783669974654913" lon="-0.334740020334721">
        <ele>452.11328125</ele>
        <time>2017-12-23T02:30:23Z</time>
      </trkpt>
      <trkpt lat="38.783620018512011" lon="-0.334729962050915">
        <ele>452.75</ele>
        <time>2017-12-23T02:32:23Z</time>
      </trkpt>
      <trkpt lat="38.783580036833882" lon="-0.334729962050915">
        <ele>453.2578125</ele>
        <time>2017-12-23T02:34:23Z</time>
      </trkpt>
      <trkpt lat="38.783539971336722" lon="-0.334729962050915">
        <ele>453.95703125</ele>
        <time>2017-12-23T02:36:23Z</time>
      </trkpt>
      <trkpt lat="38.78349001519382" lon="-0.334729962050915">
        <ele>454.82421875</ele>
        <time>2017-12-23T02:38:23Z</time>
      </trkpt>
      <trkpt lat="38.783430000767112" lon="-0.334749994799495">
        <ele>455.85546875</ele>
        <time>2017-12-23T02:40:23Z</time>
      </trkpt>
      <trkpt lat="38.783379960805178" lon="-0.334780002012849">
        <ele>456.5390625</ele>
        <time>2017-12-23T02:42:23Z</time>
      </trkpt>
      <trkpt lat="38.783330004662275" lon="-0.334810009226203">
        <ele>457.01953125</ele>
        <time>2017-12-23T02:44:23Z</time>
      </trkpt>
      <trkpt lat="38.783290022984147" lon="-0.334849990904331">
        <ele>457.4765625</ele>
        <time>2017-12-23T02:46:23Z</time>
      </trkpt>
      <trkpt lat="38.783250041306019" lon="-0.334889972582459">
        <ele>458.04296875</ele>
        <time>2017-12-23T02:48:23Z</time>
      </trkpt>
      <trkpt lat="38.783200001344085" lon="-0.334949987009168">
        <ele>459.12109375</ele>
        <time>2017-12-23T02:50:23Z</time>
      </trkpt>
      <trkpt lat="38.783139986917377" lon="-0.335030034184456">
        <ele>460.3984375</ele>
        <time>2017-12-23T02:52:23Z</time>
      </trkpt>
      <trkpt lat="38.783100005239248" lon="-0.335070015862584">
        <ele>461.203125</ele>
        <time>2017-12-23T02:54:23Z</time>
      </trkpt>
      <trkpt lat="38.783079972490668" lon="-0.335100023075938">
        <ele>461.58203125</ele>
        <time>2017-12-23T02:56:23Z</time>
      </trkpt>
      <trkpt lat="38.783079972490668" lon="-0.335100023075938">
        <ele>461.58203125</ele>
        <time>2017-12-23T02:58:23Z</time>
      </trkpt>
      <trkpt lat="38.782730028033257" lon="-0.334410024806857">
        <ele>461.9140625</ele>
        <time>2017-12-23T03:00:23Z</time>
      </trkpt>
      <trkpt lat="38.78260999917984" lon="-0.33415999263525">
        <ele>466.0234375</ele>
        <time>2017-12-23T03:02:23Z</time>
      </trkpt>
      <trkpt lat="38.782579991966486" lon="-0.334069970995188">
        <ele>468.07421875</ele>
        <time>2017-12-23T03:04:23Z</time>
      </trkpt>
      <trkpt lat="38.782540010288358" lon="-0.333969974890351">
        <ele>469.0234375</ele>
        <time>2017-12-23T03:06:23Z</time>
      </trkpt>
      <trkpt lat="38.782510003075004" lon="-0.333880037069321">
        <ele>469.51953125</ele>
        <time>2017-12-23T03:08:23Z</time>
      </trkpt>
      <trkpt lat="38.782470021396875" lon="-0.33370996825397">
        <ele>468.8671875</ele>
        <time>2017-12-23T03:10:23Z</time>
      </trkpt>
      <trkpt lat="38.782430039718747" lon="-0.333530008792877">
        <ele>469.85546875</ele>
        <time>2017-12-23T03:12:23Z</time>
      </trkpt>
      <trkpt lat="38.782359967008233" lon="-0.333130024373531">
        <ele>472.08203125</ele>
        <time>2017-12-23T03:14:23Z</time>
      </trkpt>
      <trkpt lat="38.782319985330105" lon="-0.332919973880053">
        <ele>472.875</ele>
        <time>2017-12-23T03:16:23Z</time>
      </trkpt>
      <trkpt lat="38.782300036400557" lon="-0.332810003310442">
        <ele>473.1328125</ele>
        <time>2017-12-23T03:18:23Z</time>
      </trkpt>
      <trkpt lat="38.782289978116751" lon="-0.33274001441896">
        <ele>472.90234375</ele>
        <time>2017-12-23T03:20:23Z</time>
      </trkpt>
      <trkpt lat="38.782289978116751" lon="-0.332670025527477">
        <ele>472.2109375</ele>
        <time>2017-12-23T03:22:23Z</time>
      </trkpt>
      <trkpt lat="38.782280003651977" lon="-0.332610011100769">
        <ele>471.71484375</ele>
        <time>2017-12-23T03:24:23Z</time>
      </trkpt>
      <trkpt lat="38.782289978116751" lon="-0.332559971138835">
        <ele>471.2265625</ele>
        <time>2017-12-23T03:26:23Z</time>
      </trkpt>
      <trkpt lat="38.782300036400557" lon="-0.332510014995933">
        <ele>470.96484375</ele>
        <time>2017-12-23T03:28:23Z</time>
      </trkpt>
      <trkpt lat="38.782319985330105" lon="-0.332429967820644">
        <ele>470.32421875</ele>
        <time>2017-12-23T03:30:23Z</time>
      </trkpt>
      <trkpt lat="38.782340018078685" lon="-0.332359978929162">
        <ele>469.95703125</ele>
        <time>2017-12-23T03:32:23Z</time>
      </trkpt>
      <trkpt lat="38.782370025292039" lon="-0.332299964502454">
        <ele>470.0390625</ele>
        <time>2017-12-23T03:34:23Z</time>
      </trkpt>
      <trkpt lat="38.782430039718747" lon="-0.332210026681423">
        <ele>469.71875</ele>
        <time>2017-12-23T03:36:23Z</time>
      </trkpt>
      <trkpt lat="38.78247999586165" lon="-0.332129979506135">
        <ele>469.87890625</ele>
        <time>2017-12-23T03:38:23Z</time>
      </trkpt>
      <trkpt lat="38.782559959217906" lon="-0.332020008936524">
        <ele>469.9921875</ele>
        <time>2017-12-23T03:40:23Z</time>
      </trkpt>
      <trkpt lat="38.782660039141774" lon="-0.331890005618334">
        <ele>470.14453125</ele>
        <time>2017-12-23T03:42:23Z</time>
      </trkpt>
      <trkpt lat="38.782909987494349" lon="-0.331550035625696">
        <ele>473.0390625</ele>
        <time>2017-12-23T03:44:23Z</time>
      </trkpt>
      <trkpt lat="38.783190026879311" lon="-0.331139992922544">
        <ele>475.02734375</ele>
        <time>2017-12-23T03:46:23Z</time>
      </trkpt>
      <trkpt lat="38.783409968018532" lon="-0.330849979072809">
        <ele>477.90625</ele>
        <time>2017-12-23T03:48:23Z</time>
      </trkpt>
      <trkpt lat="38.783430000767112" lon="-0.330809997394681">
        <ele>478.2734375</ele>
        <time>2017-12-23T03:50:23Z</time>
      </trkpt>
      <trkpt lat="38.78349001519382" lon="-0.330710001289845">
        <ele>479.109375</ele>
        <time>2017-12-23T03:52:23Z</time>
      </trkpt>
      <trkpt lat="38.783529996871948" lon="-0.330640012398362">
        <ele>478.83203125</ele>
        <time>2017-12-23T03:54:23Z</time>
      </trkpt>
      <trkpt lat="38.783560004085302" lon="-0.330559965223074">
        <ele>478.53515625</ele>
        <time>2017-12-23T03:56:23Z</time>
      </trkpt>
      <trkpt lat="38.783569978550076" lon="-0.330480001866817">
        <ele>478.91796875</ele>
        <time>2017-12-23T03:58:23Z</time>
      </trkpt>
      <trkpt lat="38.783590011298656" lon="-0.330419987440109">
        <ele>479.03515625</ele>
        <time>2017-12-23T04:00:23Z</time>
      </trkpt>
      <trkpt lat="38.783590011298656" lon="-0.330319991335273">
        <ele>479.46875</ele>
        <time>2017-12-23T04:02:23Z</time>
      </trkpt>
      <trkpt lat="38.783590011298656" lon="-0.330180013552308">
        <ele>479.47265625</ele>
        <time>2017-12-23T04:04:23Z</time>
      </trkpt>
      <trkpt lat="38.783580036833882" lon="-0.329910032451153">
        <ele>480.84375</ele>
        <time>2017-12-23T04:06:23Z</time>
      </trkpt>
      <trkpt lat="38.783580036833882" lon="-0.32982001081109">
        <ele>480.99609375</ele>
        <time>2017-12-23T04:08:23Z</time>
      </trkpt>
      <trkpt lat="38.783580036833882" lon="-0.329759996384382">
        <ele>481.00390625</ele>
        <time>2017-12-23T04:10:23Z</time>
      </trkpt>
      <trkpt lat="38.783560004085302" lon="-0.32971004024148">
        <ele>481.59765625</ele>
        <time>2017-12-23T04:12:23Z</time>
      </trkpt>
      <trkpt lat="38.783550029620528" lon="-0.329629993066192">
        <ele>481.89453125</ele>
        <time>2017-12-23T04:14:23Z</time>
      </trkpt>
      <trkpt lat="38.783480040729046" lon="-0.329469982534647">
        <ele>482.8046875</ele>
        <time>2017-12-23T04:16:23Z</time>
      </trkpt>
      <trkpt lat="38.783350037410855" lon="-0.329149961471558">
        <ele>483.91796875</ele>
        <time>2017-12-23T04:18:23Z</time>
      </trkpt>
      <trkpt lat="38.783220034092665" lon="-0.328849973157048">
        <ele>483.578125</ele>
        <time>2017-12-23T04:20:23Z</time>
      </trkpt>
      <trkpt lat="38.783209975808859" lon="-0.328800017014146">
        <ele>482.79296875</ele>
        <time>2017-12-23T04:22:23Z</time>
      </trkpt>
      <trkpt lat="38.783200001344085" lon="-0.328740002587438">
        <ele>482.171875</ele>
        <time>2017-12-23T04:24:23Z</time>
      </trkpt>
      <trkpt lat="38.783190026879311" lon="-0.328679988160729">
        <ele>481.76953125</ele>
        <time>2017-12-23T04:26:23Z</time>
      </trkpt>
      <trkpt lat="38.783200001344085" lon="-0.328609999269247">
        <ele>481.50390625</ele>
        <time>2017-12-23T04:28:23Z</time>
      </trkpt>
      <trkpt lat="38.783209975808859" lon="-0.328549984842539">
        <ele>481.1953125</ele>
        <time>2017-12-23T04:30:23Z</time>
      </trkpt>
      <trkpt lat="38.783230008557439" lon="-0.328510003164411">
        <ele>480.98046875</ele>
        <time>2017-12-23T04:32:23Z</time>
      </trkpt>
      <trkpt lat="38.783250041306019" lon="-0.328459963202477">
        <ele>481.0078125</ele>
        <time>2017-12-23T04:34:23Z</time>
      </trkpt>
      <trkpt lat="38.783290022984147" lon="-0.328419981524348">
        <ele>481.16796875</ele>
        <time>2017-12-23T04:36:23Z</time>
      </trkpt>
      <trkpt lat="38.783339979127049" lon="-0.328370025381446">
        <ele>481.48046875</ele>
        <time>2017-12-23T04:38:23Z</time>
      </trkpt>
      <trkpt lat="38.783390019088984" lon="-0.328340018168092">
        <ele>481.8125</ele>
        <time>2017-12-23T04:40:23Z</time>
      </trkpt>
      <trkpt lat="38.783430000767112" lon="-0.328319985419512">
        <ele>482.234375</ele>
        <time>2017-12-23T04:42:23Z</time>
      </trkpt>
      <trkpt lat="38.783480040729046" lon="-0.328310010954738">
        <ele>482.55859375</ele>
        <time>2017-12-23T04:44:23Z</time>
      </trkpt>
      <trkpt lat="38.783539971336722" lon="-0.328310010954738">
        <ele>482.65234375</ele>
        <time>2017-12-23T04:46:23Z</time>
      </trkpt>
      <trkpt lat="38.783580036833882" lon="-0.328319985419512">
        <ele>482.453125</ele>
        <time>2017-12-23T04:48:23Z</time>
      </trkpt>
      <trkpt lat="38.783629992976785" lon="-0.328349992632866">
        <ele>482.390625</ele>
        <time>2017-12-23T04:50:23Z</time>
      </trkpt>
      <trkpt lat="38.783660000190139" lon="-0.328370025381446">
        <ele>482.42578125</ele>
        <time>2017-12-23T04:52:23Z</time>
      </trkpt>
      <trkpt lat="38.783699981868267" lon="-0.3284000325948">
        <ele>482.5078125</ele>
        <time>2017-12-23T04:54:23Z</time>
      </trkpt>
      <trkpt lat="38.783750021830201" lon="-0.328449988737702">
        <ele>482.09375</ele>
        <time>2017-12-23T04:56:23Z</time>
      </trkpt>
      <trkpt lat="38.783869966864586" lon="-0.328619973734021">
        <ele>480.0625</ele>
        <time>2017-12-23T04:58:23Z</time>
      </trkpt>
      <trkpt lat="38.783910032361746" lon="-0.328670013695955">
        <ele>480.6171875</ele>
        <time>2017-12-23T05:00:23Z</time>
      </trkpt>
      <trkpt lat="38.783950014039874" lon="-0.328709995374084">
        <ele>481.390625</ele>
        <time>2017-12-23T05:02:23Z</time>
      </trkpt>
      <trkpt lat="38.783989995718002" lon="-0.328730028122663">
        <ele>482.375</ele>
        <time>2017-12-23T05:04:23Z</time>
      </trkpt>
      <trkpt lat="38.784020002931356" lon="-0.328740002587438">
        <ele>483.13671875</ele>
        <time>2017-12-23T05:06:23Z</time>
      </trkpt>
      <trkpt lat="38.784040035679936" lon="-0.328749977052212">
        <ele>483.53515625</ele>
        <time>2017-12-23T05:08:23Z</time>
      </trkpt>
      <trkpt lat="38.784080017358065" lon="-0.328749977052212">
        <ele>484.69921875</ele>
        <time>2017-12-23T05:10:23Z</time>
      </trkpt>
      <trkpt lat="38.784150006249547" lon="-0.328749977052212">
        <ele>486.4921875</ele>
        <time>2017-12-23T05:12:23Z</time>
      </trkpt>
      <trkpt lat="38.784189987927675" lon="-0.328740002587438">
        <ele>487.09765625</ele>
        <time>2017-12-23T05:14:23Z</time>
      </trkpt>
      <trkpt lat="38.784240027889609" lon="-0.328719969838858">
        <ele>487.86328125</ele>
        <time>2017-12-23T05:16:23Z</time>
      </trkpt>
      <trkpt lat="38.784280009567738" lon="-0.328689962625504">
        <ele>487.9921875</ele>
        <time>2017-12-23T05:18:23Z</time>
      </trkpt>
      <trkpt lat="38.784319991245866" lon="-0.328640006482601">
        <ele>488.7109375</ele>
        <time>2017-12-23T05:20:23Z</time>
      </trkpt>
      <trkpt lat="38.784359972923994" lon="-0.328589966520667">
        <ele>489.10546875</ele>
        <time>2017-12-23T05:22:23Z</time>
      </trkpt>
      <trkpt lat="38.784389980137348" lon="-0.328530035912991">
        <ele>489.33203125</ele>
        <time>2017-12-23T05:24:23Z</time>
      </trkpt>
      <trkpt lat="38.784419987350702" lon="-0.328470021486282">
        <ele>489.4765625</ele>
        <time>2017-12-23T05:26:23Z</time>
      </trkpt>
      <trkpt lat="38.784429961815476" lon="-0.328419981524348">
        <ele>489.65625</ele>
        <time>2017-12-23T05:28:23Z</time>
      </trkpt>
      <trkpt lat="38.784440020099282" lon="-0.328329959884286">
        <ele>490.0390625</ele>
        <time>2017-12-23T05:30:23Z</time>
      </trkpt>
      <trkpt lat="38.784440020099282" lon="-0.328210014849901">
        <ele>490.109375</ele>
        <time>2017-12-23T05:32:23Z</time>
      </trkpt>
      <trkpt lat="38.784440020099282" lon="-0.3279700409621">
        <ele>490.28515625</ele>
        <time>2017-12-23T05:34:23Z</time>
      </trkpt>
      <trkpt lat="38.784419987350702" lon="-0.327250035479665">
        <ele>495.328125</ele>
        <time>2017-12-23T05:36:23Z</time>
      </trkpt>
      <trkpt lat="38.784419987350702" lon="-0.326830018311739">
        <ele>496.04296875</ele>
        <time>2017-12-23T05:38:23Z</time>
      </trkpt>
      <trkpt lat="38.784410012885928" lon="-0.326349986717105">
        <ele>493.2421875</ele>
        <time>2017-12-23T05:40:23Z</time>
      </trkpt>
      <trkpt lat="38.784400038421154" lon="-0.325910020619631">
        <ele>492.046875</ele>
        <time>2017-12-23T05:42:23Z</time>
      </trkpt>
      <trkpt lat="38.784410012885928" lon="-0.325769959017634">
        <ele>492.55078125</ele>
        <time>2017-12-23T05:44:23Z</time>
      </trkpt>
      <trkpt lat="38.784429961815476" lon="-0.325689995661378">
        <ele>493.26171875</ele>
        <time>2017-12-23T05:46:23Z</time>
      </trkpt>
      <trkpt lat="38.784459969028831" lon="-0.325640039518476">
        <ele>494.046875</ele>
        <time>2017-12-23T05:48:23Z</time>
      </trkpt>
      <trkpt lat="38.78450003452599" lon="-0.325589999556541">
        <ele>494.9140625</ele>
        <time>2017-12-23T05:50:23Z</time>
      </trkpt>
      <trkpt lat="38.784519983455539" lon="-0.325569966807961">
        <ele>495.25390625</ele>
        <time>2017-12-23T05:52:23Z</time>
      </trkpt>
      <trkpt lat="38.784559965133667" lon="-0.325539959594607">
        <ele>495.82421875</ele>
        <time>2017-12-23T05:54:23Z</time>
      </trkpt>
      <trkpt lat="38.784619979560375" lon="-0.325520010665059">
        <ele>496.125</ele>
        <time>2017-12-23T05:56:23Z</time>
      </trkpt>
      <trkpt lat="38.784719975665212" lon="-0.325480028986931">
        <ele>496.27734375</ele>
        <time>2017-12-23T05:58:23Z</time>
      </trkpt>
      <trkpt lat="38.784840004518628" lon="-0.325429989024997">
        <ele>497.1015625</ele>
        <time>2017-12-23T06:00:23Z</time>
      </trkpt>
      <trkpt lat="38.78490999341011" lon="-0.325380032882094">
        <ele>498.125</ele>
        <time>2017-12-23T06:02:23Z</time>
      </trkpt>
      <trkpt lat="38.784940000623465" lon="-0.32535002566874">
        <ele>498.62890625</ele>
        <time>2017-12-23T06:04:23Z</time>
      </trkpt>
      <trkpt lat="38.784960033372045" lon="-0.325320018455386">
        <ele>499.23828125</ele>
        <time>2017-12-23T06:06:23Z</time>
      </trkpt>
      <trkpt lat="38.785000015050173" lon="-0.325260004028678">
        <ele>500.00390625</ele>
        <time>2017-12-23T06:08:23Z</time>
      </trkpt>
      <trkpt lat="38.785039996728301" lon="-0.325180040672421">
        <ele>500.18359375</ele>
        <time>2017-12-23T06:10:23Z</time>
      </trkpt>
      <trkpt lat="38.785079978406429" lon="-0.325090019032359">
        <ele>499.59375</ele>
        <time>2017-12-23T06:12:23Z</time>
      </trkpt>
      <trkpt lat="38.785109985619783" lon="-0.325030004605651">
        <ele>499.2734375</ele>
        <time>2017-12-23T06:14:23Z</time>
      </trkpt>
      <trkpt lat="38.785139992833138" lon="-0.324979964643717">
        <ele>499.140625</ele>
        <time>2017-12-23T06:16:23Z</time>
      </trkpt>
      <trkpt lat="38.785179974511266" lon="-0.32492003403604">
        <ele>498.42578125</ele>
        <time>2017-12-23T06:18:23Z</time>
      </trkpt>
      <trkpt lat="38.7852300144732" lon="-0.324869994074106">
        <ele>498.359375</ele>
        <time>2017-12-23T06:20:23Z</time>
      </trkpt>
      <trkpt lat="38.785309977829456" lon="-0.324800005182624">
        <ele>498.93359375</ele>
        <time>2017-12-23T06:22:23Z</time>
      </trkpt>
      <trkpt lat="38.785460013896227" lon="-0.324679976329207">
        <ele>500.0546875</ele>
        <time>2017-12-23T06:24:23Z</time>
      </trkpt>
      <trkpt lat="38.785599991679192" lon="-0.324570005759597">
        <ele>501.65625</ele>
        <time>2017-12-23T06:26:23Z</time>
      </trkpt>
      <trkpt lat="38.785709962248802" lon="-0.324489958584309">
        <ele>502.4140625</ele>
        <time>2017-12-23T06:28:23Z</time>
      </trkpt>
      <trkpt lat="38.785859998315573" lon="-0.32436003908515">
        <ele>503.55859375</ele>
        <time>2017-12-23T06:30:23Z</time>
      </trkpt>
      <trkpt lat="38.786010034382343" lon="-0.324240010231733">
        <ele>504.75</ele>
        <time>2017-12-23T06:32:23Z</time>
      </trkpt>
      <trkpt lat="38.786140037700534" lon="-0.324130039662123">
        <ele>505.91796875</ele>
        <time>2017-12-23T06:34:23Z</time>
      </trkpt>
      <trkpt lat="38.786340029910207" lon="-0.323959970846772">
        <ele>507.3125</ele>
        <time>2017-12-23T06:36:23Z</time>
      </trkpt>
      <trkpt lat="38.786559971049428" lon="-0.323799960315228">
        <ele>508.2734375</ele>
        <time>2017-12-23T06:38:23Z</time>
      </trkpt>
      <trkpt lat="38.78667002543807" lon="-0.323710022494197">
        <ele>509.37109375</ele>
        <time>2017-12-23T06:40:23Z</time>
      </trkpt>
      <trkpt lat="38.786919973790646" lon="-0.323510030284524">
        <ele>511.140625</ele>
        <time>2017-12-23T06:42:23Z</time>
      </trkpt>
      <trkpt lat="38.787049977108836" lon="-0.323410034179688">
        <ele>510.671875</ele>
        <time>2017-12-23T06:44:23Z</time>
      </trkpt>
      <trkpt lat="38.787200013175607" lon="-0.323280030861497">
        <ele>508.62890625</ele>
        <time>2017-12-23T06:46:23Z</time>
      </trkpt>
      <trkpt lat="38.787290034815669" lon="-0.323190009221435">
        <ele>507.9921875</ele>
        <time>2017-12-23T06:48:23Z</time>
      </trkpt>
      <trkpt lat="38.787339990958571" lon="-0.323139969259501">
        <ele>508.765625</ele>
        <time>2017-12-23T06:50:23Z</time>
      </trkpt>
      <trkpt lat="38.7873799726367" lon="-0.323099987581372">
        <ele>508.953125</ele>
        <time>2017-12-23T06:52:23Z</time>
      </trkpt>
      <trkpt lat="38.78740000538528" lon="-0.32305003143847">
        <ele>508.265625</ele>
        <time>2017-12-23T06:54:23Z</time>
      </trkpt>
      <trkpt lat="38.78742003813386" lon="-0.323020024225116">
        <ele>507.890625</ele>
        <time>2017-12-23T06:56:23Z</time>
      </trkpt>
      <trkpt lat="38.787430012598634" lon="-0.322969984263182">
        <ele>506.62890625</ele>
        <time>2017-12-23T06:58:23Z</time>
      </trkpt>
      <trkpt lat="38.787430012598634" lon="-0.322930002585053">
        <ele>505.51953125</ele>
        <time>2017-12-23T07:00:23Z</time>
      </trkpt>
      <trkpt lat="38.787430012598634" lon="-0.322890020906925">
        <ele>504.4765625</ele>
        <time>2017-12-23T07:02:23Z</time>
      </trkpt>
      <trkpt lat="38.787430012598634" lon="-0.322860013693571">
        <ele>503.6953125</ele>
        <time>2017-12-23T07:04:23Z</time>
      </trkpt>
      <trkpt lat="38.787409979850054" lon="-0.322830006480217">
        <ele>502.671875</ele>
        <time>2017-12-23T07:06:23Z</time>
      </trkpt>
      <trkpt lat="38.78740000538528" lon="-0.322820032015443">
        <ele>502.35546875</ele>
        <time>2017-12-23T07:08:23Z</time>
      </trkpt>
      <trkpt lat="38.787360023707151" lon="-0.322749959304929">
        <ele>500.875</ele>
        <time>2017-12-23T07:10:23Z</time>
      </trkpt>
      <trkpt lat="38.787330016493797" lon="-0.322730010375381">
        <ele>501.0546875</ele>
        <time>2017-12-23T07:12:23Z</time>
      </trkpt>
      <trkpt lat="38.787300009280443" lon="-0.322700003162026">
        <ele>501.21875</ele>
        <time>2017-12-23T07:14:23Z</time>
      </trkpt>
      <trkpt lat="38.787249969318509" lon="-0.322669995948672">
        <ele>501.296875</ele>
        <time>2017-12-23T07:16:23Z</time>
      </trkpt>
      <trkpt lat="38.787170005962253" lon="-0.322630014270544">
        <ele>500.9765625</ele>
        <time>2017-12-23T07:18:23Z</time>
      </trkpt>
      <trkpt lat="38.78707998432219" lon="-0.322590032592416">
        <ele>500.64453125</ele>
        <time>2017-12-23T07:20:23Z</time>
      </trkpt>
      <trkpt lat="38.787000020965934" lon="-0.322549967095256">
        <ele>499.95703125</ele>
        <time>2017-12-23T07:22:23Z</time>
      </trkpt>
      <trkpt lat="38.786940006539226" lon="-0.322519959881902">
        <ele>499.7578125</ele>
        <time>2017-12-23T07:24:23Z</time>
      </trkpt>
      <trkpt lat="38.786889966577291" lon="-0.322490036487579">
        <ele>499.93359375</ele>
        <time>2017-12-23T07:26:23Z</time>
      </trkpt>
      <trkpt lat="38.786859959363937" lon="-0.322470003738999">
        <ele>500.16796875</ele>
        <time>2017-12-23T07:28:23Z</time>
      </trkpt>
      <trkpt lat="38.786819977685809" lon="-0.322430022060871">
        <ele>500.1640625</ele>
        <time>2017-12-23T07:30:23Z</time>
      </trkpt>
      <trkpt lat="38.786800028756261" lon="-0.322400014847517">
        <ele>500.03125</ele>
        <time>2017-12-23T07:32:23Z</time>
      </trkpt>
      <trkpt lat="38.786779996007681" lon="-0.322370007634163">
        <ele>500.02734375</ele>
        <time>2017-12-23T07:34:23Z</time>
      </trkpt>
      <trkpt lat="38.786770021542907" lon="-0.322330025956035">
        <ele>499.6328125</ele>
        <time>2017-12-23T07:36:23Z</time>
      </trkpt>
      <trkpt lat="38.786759963259101" lon="-0.322279985994101">
        <ele>499.390625</ele>
        <time>2017-12-23T07:38:23Z</time>
      </trkpt>
      <trkpt lat="38.786759963259101" lon="-0.322209997102618">
        <ele>499.27734375</ele>
        <time>2017-12-23T07:40:23Z</time>
      </trkpt>
      <trkpt lat="38.786770021542907" lon="-0.322130033746362">
        <ele>498.66796875</ele>
        <time>2017-12-23T07:42:23Z</time>
      </trkpt>
      <trkpt lat="38.786770021542907" lon="-0.322089968249202">
        <ele>498.3046875</ele>
        <time>2017-12-23T07:44:23Z</time>
      </trkpt>
      <trkpt lat="38.786770021542907" lon="-0.322049986571074">
        <ele>497.86328125</ele>
        <time>2017-12-23T07:46:23Z</time>
      </trkpt>
      <trkpt lat="38.786779996007681" lon="-0.322000030428171">
        <ele>497.24609375</ele>
        <time>2017-12-23T07:48:23Z</time>
      </trkpt>
      <trkpt lat="38.786779996007681" lon="-0.321970023214817">
        <ele>497.1015625</ele>
        <time>2017-12-23T07:50:23Z</time>
      </trkpt>
      <trkpt lat="38.786770021542907" lon="-0.321930041536689">
        <ele>497.16015625</ele>
        <time>2017-12-23T07:52:23Z</time>
      </trkpt>
      <trkpt lat="38.786759963259101" lon="-0.321880001574755">
        <ele>497.0078125</ele>
        <time>2017-12-23T07:54:23Z</time>
      </trkpt>
      <trkpt lat="38.786749988794327" lon="-0.321849994361401">
        <ele>496.96484375</ele>
        <time>2017-12-23T07:56:23Z</time>
      </trkpt>
      <trkpt lat="38.786730039864779" lon="-0.321819987148046">
        <ele>497.01953125</ele>
        <time>2017-12-23T07:58:23Z</time>
      </trkpt>
      <trkpt lat="38.786719981580973" lon="-0.321800038218498">
        <ele>496.953125</ele>
        <time>2017-12-23T08:00:23Z</time>
      </trkpt>
      <trkpt lat="38.786710007116199" lon="-0.321780005469918">
        <ele>496.88671875</ele>
        <time>2017-12-23T08:02:23Z</time>
      </trkpt>
      <trkpt lat="38.78664999268949" lon="-0.32171999104321">
        <ele>497.171875</ele>
        <time>2017-12-23T08:04:23Z</time>
      </trkpt>
      <trkpt lat="38.786619985476136" lon="-0.321680009365082">
        <ele>497.26953125</ele>
        <time>2017-12-23T08:06:23Z</time>
      </trkpt>
      <trkpt lat="38.786580003798008" lon="-0.321640027686954">
        <ele>497.1875</ele>
        <time>2017-12-23T08:08:23Z</time>
      </trkpt>
      <trkpt lat="38.786510014906526" lon="-0.321550006046891">
        <ele>497.0625</ele>
        <time>2017-12-23T08:10:23Z</time>
      </trkpt>
      <trkpt lat="38.786480007693172" lon="-0.321489991620183">
        <ele>497.16015625</ele>
        <time>2017-12-23T08:12:23Z</time>
      </trkpt>
      <trkpt lat="38.786459974944592" lon="-0.321440035477281">
        <ele>497.02734375</ele>
        <time>2017-12-23T08:14:23Z</time>
      </trkpt>
      <trkpt lat="38.786470033228397" lon="-0.321359988301992">
        <ele>495.94140625</ele>
        <time>2017-12-23T08:16:23Z</time>
      </trkpt>
      <trkpt lat="38.786470033228397" lon="-0.32131003215909">
        <ele>495.73828125</ele>
        <time>2017-12-23T08:18:23Z</time>
      </trkpt>
      <trkpt lat="38.786489982157946" lon="-0.321229984983802">
        <ele>495.1171875</ele>
        <time>2017-12-23T08:20:23Z</time>
      </trkpt>
      <trkpt lat="38.78654002211988" lon="-0.321159996092319">
        <ele>494.046875</ele>
        <time>2017-12-23T08:22:23Z</time>
      </trkpt>
      <trkpt lat="38.786589978262782" lon="-0.321120014414191">
        <ele>493.2109375</ele>
        <time>2017-12-23T08:24:23Z</time>
      </trkpt>
      <trkpt lat="38.786679999902844" lon="-0.321059999987483">
        <ele>491.94140625</ele>
        <time>2017-12-23T08:26:23Z</time>
      </trkpt>
      <trkpt lat="38.786740014329553" lon="-0.321009960025549">
        <ele>491.2890625</ele>
        <time>2017-12-23T08:28:23Z</time>
      </trkpt>
      <trkpt lat="38.786849984899163" lon="-0.320929996669292">
        <ele>490.15234375</ele>
        <time>2017-12-23T08:30:23Z</time>
      </trkpt>
      <trkpt lat="38.786930032074451" lon="-0.32083997502923">
        <ele>489.69140625</ele>
        <time>2017-12-23T08:32:23Z</time>
      </trkpt>
      <trkpt lat="38.786989962682128" lon="-0.320760011672974">
        <ele>489.04296875</ele>
        <time>2017-12-23T08:34:23Z</time>
      </trkpt>
      <trkpt lat="38.787049977108836" lon="-0.320679964497685">
        <ele>487.91796875</ele>
        <time>2017-12-23T08:36:23Z</time>
      </trkpt>
      <trkpt lat="38.787170005962253" lon="-0.320520037785172">
        <ele>485.73046875</ele>
        <time>2017-12-23T08:38:23Z</time>
      </trkpt>
      <trkpt lat="38.787309983745217" lon="-0.320309987291694">
        <ele>487.29296875</ele>
        <time>2017-12-23T08:40:23Z</time>
      </trkpt>
      <trkpt lat="38.787409979850054" lon="-0.320179983973503">
        <ele>489.3828125</ele>
        <time>2017-12-23T08:42:23Z</time>
      </trkpt>
      <trkpt lat="38.787520034238696" lon="-0.320040006190538">
        <ele>489.12890625</ele>
        <time>2017-12-23T08:44:23Z</time>
      </trkpt>
      <trkpt lat="38.787569990381598" lon="-0.319949984550476">
        <ele>489.86328125</ele>
        <time>2017-12-23T08:46:23Z</time>
      </trkpt>
      <trkpt lat="38.787630004808307" lon="-0.31984998844564">
        <ele>490.78125</ele>
        <time>2017-12-23T08:48:23Z</time>
      </trkpt>
      <trkpt lat="38.787690019235015" lon="-0.319729959592223">
        <ele>491.78125</ele>
        <time>2017-12-23T08:50:23Z</time>
      </trkpt>
      <trkpt lat="38.787730000913143" lon="-0.319649996235967">
        <ele>491.84765625</ele>
        <time>2017-12-23T08:52:23Z</time>
      </trkpt>
      <trkpt lat="38.787799989804626" lon="-0.319499960169196">
        <ele>492.7265625</ele>
        <time>2017-12-23T08:54:23Z</time>
      </trkpt>
      <trkpt lat="38.787880036979914" lon="-0.319310026243329">
        <ele>494.48046875</ele>
        <time>2017-12-23T08:56:23Z</time>
      </trkpt>
      <trkpt lat="38.787950025871396" lon="-0.31914004124701">
        <ele>495.91796875</ele>
        <time>2017-12-23T08:58:23Z</time>
      </trkpt>
      <trkpt lat="38.788029989227653" lon="-0.31896997243166">
        <ele>496.94140625</ele>
        <time>2017-12-23T09:00:23Z</time>
      </trkpt>
      <trkpt lat="38.788139959797263" lon="-0.318709965795279">
        <ele>498.09375</ele>
        <time>2017-12-23T09:02:23Z</time>
      </trkpt>
      <trkpt lat="38.78825998865068" lon="-0.318430010229349">
        <ele>499.5</ele>
        <time>2017-12-23T09:04:23Z</time>
      </trkpt>
      <trkpt lat="38.788399966433644" lon="-0.31810998916626">
        <ele>501.7265625</ele>
        <time>2017-12-23T09:06:23Z</time>
      </trkpt>
      <trkpt lat="38.788540028035641" lon="-0.317800026386976">
        <ele>503.20703125</ele>
        <time>2017-12-23T09:08:23Z</time>
      </trkpt>
      <trkpt lat="38.788570035248995" lon="-0.317710004746914">
        <ele>504.15234375</ele>
        <time>2017-12-23T09:10:23Z</time>
      </trkpt>
      <trkpt lat="38.788580009713769" lon="-0.31765996478498">
        <ele>504.71875</ele>
        <time>2017-12-23T09:12:23Z</time>
      </trkpt>
      <trkpt lat="38.788589984178543" lon="-0.317580001428723">
        <ele>505.359375</ele>
        <time>2017-12-23T09:14:23Z</time>
      </trkpt>
      <trkpt lat="38.788589984178543" lon="-0.317500038072467">
        <ele>506.41796875</ele>
        <time>2017-12-23T09:16:23Z</time>
      </trkpt>
      <trkpt lat="38.788559976965189" lon="-0.317350002005696">
        <ele>508.63671875</ele>
        <time>2017-12-23T09:18:23Z</time>
      </trkpt>
      <trkpt lat="38.788529969751835" lon="-0.317219998687506">
        <ele>509.42578125</ele>
        <time>2017-12-23T09:20:23Z</time>
      </trkpt>
      <trkpt lat="38.788499962538481" lon="-0.317080020904541">
        <ele>511.0078125</ele>
        <time>2017-12-23T09:22:23Z</time>
      </trkpt>
      <trkpt lat="38.788489988073707" lon="-0.316920010372996">
        <ele>512.0625</ele>
        <time>2017-12-23T09:24:23Z</time>
      </trkpt>
      <trkpt lat="38.788470039144158" lon="-0.316759999841452">
        <ele>512.5859375</ele>
        <time>2017-12-23T09:26:23Z</time>
      </trkpt>
      <trkpt lat="38.788459980860353" lon="-0.316580040380359">
        <ele>509.6953125</ele>
        <time>2017-12-23T09:28:23Z</time>
      </trkpt>
      <trkpt lat="38.788450006395578" lon="-0.316439978778362">
        <ele>510.8828125</ele>
        <time>2017-12-23T09:30:23Z</time>
      </trkpt>
      <trkpt lat="38.788429973646998" lon="-0.316260019317269">
        <ele>512.67578125</ele>
        <time>2017-12-23T09:32:23Z</time>
      </trkpt>
      <trkpt lat="38.788419999182224" lon="-0.316169997677207">
        <ele>513.3203125</ele>
        <time>2017-12-23T09:34:23Z</time>
      </trkpt>
      <trkpt lat="38.78841002471745" lon="-0.316109983250499">
        <ele>513.84765625</ele>
        <time>2017-12-23T09:36:23Z</time>
      </trkpt>
      <trkpt lat="38.78838999196887" lon="-0.316049968823791">
        <ele>514.53125</ele>
        <time>2017-12-23T09:38:23Z</time>
      </trkpt>
      <trkpt lat="38.788350010290742" lon="-0.315930023789406">
        <ele>513.9609375</ele>
        <time>2017-12-23T09:40:23Z</time>
      </trkpt>
      <trkpt lat="38.788310028612614" lon="-0.315800020471215">
        <ele>514.61328125</ele>
        <time>2017-12-23T09:42:23Z</time>
      </trkpt>
      <trkpt lat="38.788269963115454" lon="-0.315679991617799">
        <ele>516.24609375</ele>
        <time>2017-12-23T09:44:23Z</time>
      </trkpt>
      <trkpt lat="38.78825998865068" lon="-0.315640009939671">
        <ele>516.7109375</ele>
        <time>2017-12-23T09:46:23Z</time>
      </trkpt>
      <trkpt lat="38.78825998865068" lon="-0.315600028261542">
        <ele>516.6640625</ele>
        <time>2017-12-23T09:48:23Z</time>
      </trkpt>
      <trkpt lat="38.788240039721131" lon="-0.3154899738729">
        <ele>517.9375</ele>
        <time>2017-12-23T09:50:23Z</time>
      </trkpt>
      <trkpt lat="38.788220006972551" lon="-0.315349996089935">
        <ele>519.234375</ele>
        <time>2017-12-23T09:52:23Z</time>
      </trkpt>
      <trkpt lat="38.788199974223971" lon="-0.315189985558391">
        <ele>519.73828125</ele>
        <time>2017-12-23T09:54:23Z</time>
      </trkpt>
      <trkpt lat="38.788169967010617" lon="-0.315020000562072">
        <ele>520.7734375</ele>
        <time>2017-12-23T09:56:23Z</time>
      </trkpt>
      <trkpt lat="38.788150018081069" lon="-0.314880022779107">
        <ele>520.2109375</ele>
        <time>2017-12-23T09:58:23Z</time>
      </trkpt>
      <trkpt lat="38.788139959797263" lon="-0.314780026674271">
        <ele>520.4765625</ele>
        <time>2017-12-23T10:00:23Z</time>
      </trkpt>
      <trkpt lat="38.788129985332489" lon="-0.314710037782788">
        <ele>520.77734375</ele>
        <time>2017-12-23T10:02:23Z</time>
      </trkpt>
      <trkpt lat="38.788129985332489" lon="-0.314680030569434">
        <ele>521.07421875</ele>
        <time>2017-12-23T10:04:23Z</time>
      </trkpt>
      <trkpt lat="38.788139959797263" lon="-0.314639965072274">
        <ele>521.04296875</ele>
        <time>2017-12-23T10:06:23Z</time>
      </trkpt>
      <trkpt lat="38.788139959797263" lon="-0.314610041677952">
        <ele>521.2890625</ele>
        <time>2017-12-23T10:08:23Z</time>
      </trkpt>
      <trkpt lat="38.788150018081069" lon="-0.314590008929372">
        <ele>520.96875</ele>
        <time>2017-12-23T10:10:23Z</time>
      </trkpt>
      <trkpt lat="38.788159992545843" lon="-0.314569976180792">
        <ele>520.63671875</ele>
        <time>2017-12-23T10:12:23Z</time>
      </trkpt>
      <trkpt lat="38.788159992545843" lon="-0.314569976180792">
        <ele>520.63671875</ele>
        <time>2017-12-23T10:14:23Z</time>
      </trkpt>
      <trkpt lat="38.788139959797263" lon="-0.314520020037889">
        <ele>521.75390625</ele>
        <time>2017-12-23T10:16:23Z</time>
      </trkpt>
      <trkpt lat="38.788129985332489" lon="-0.314480038359761">
        <ele>522.0859375</ele>
        <time>2017-12-23T10:18:23Z</time>
      </trkpt>
      <trkpt lat="38.788120010867715" lon="-0.314429998397827">
        <ele>522.328125</ele>
        <time>2017-12-23T10:20:23Z</time>
      </trkpt>
      <trkpt lat="38.788110036402941" lon="-0.314390016719699">
        <ele>522.421875</ele>
        <time>2017-12-23T10:22:23Z</time>
      </trkpt>
      <trkpt lat="38.788110036402941" lon="-0.314360009506345">
        <ele>522.15625</ele>
        <time>2017-12-23T10:24:23Z</time>
      </trkpt>
      <trkpt lat="38.788099978119135" lon="-0.314339976757765">
        <ele>522.296875</ele>
        <time>2017-12-23T10:26:23Z</time>
      </trkpt>
      <trkpt lat="38.788090003654361" lon="-0.314330002292991">
        <ele>522.5234375</ele>
        <time>2017-12-23T10:28:23Z</time>
      </trkpt>
      <trkpt lat="38.788080029189587" lon="-0.314309969544411">
        <ele>522.6640625</ele>
        <time>2017-12-23T10:30:23Z</time>
      </trkpt>
      <trkpt lat="38.788059996441007" lon="-0.314279962331057">
        <ele>523.12109375</ele>
        <time>2017-12-23T10:32:23Z</time>
      </trkpt>
      <trkpt lat="38.788039963692427" lon="-0.314239980652928">
        <ele>523.6328125</ele>
        <time>2017-12-23T10:34:23Z</time>
      </trkpt>
      <trkpt lat="38.788020014762878" lon="-0.3141999989748">
        <ele>524.453125</ele>
        <time>2017-12-23T10:36:23Z</time>
      </trkpt>
      <trkpt lat="38.788010040298104" lon="-0.314160017296672">
        <ele>524.87109375</ele>
        <time>2017-12-23T10:38:23Z</time>
      </trkpt>
      <trkpt lat="38.787999982014298" lon="-0.314109977334738">
        <ele>525.4921875</ele>
        <time>2017-12-23T10:40:23Z</time>
      </trkpt>
      <trkpt lat="38.787990007549524" lon="-0.314060021191835">
        <ele>526.0546875</ele>
        <time>2017-12-23T10:42:23Z</time>
      </trkpt>
      <trkpt lat="38.787990007549524" lon="-0.314000006765127">
        <ele>526.765625</ele>
        <time>2017-12-23T10:44:23Z</time>
      </trkpt>
      <trkpt lat="38.787990007549524" lon="-0.313960025086999">
        <ele>527.109375</ele>
        <time>2017-12-23T10:46:23Z</time>
      </trkpt>
      <trkpt lat="38.787990007549524" lon="-0.313900010660291">
        <ele>527.3203125</ele>
        <time>2017-12-23T10:48:23Z</time>
      </trkpt>
      <trkpt lat="38.787990007549524" lon="-0.313809989020228">
        <ele>527.5078125</ele>
        <time>2017-12-23T10:50:23Z</time>
      </trkpt>
      <trkpt lat="38.787990007549524" lon="-0.3137700073421">
        <ele>527.61328125</ele>
        <time>2017-12-23T10:52:23Z</time>
      </trkpt>
      <trkpt lat="38.78798003308475" lon="-0.313740000128746">
        <ele>527.87890625</ele>
        <time>2017-12-23T10:54:23Z</time>
      </trkpt>
      <trkpt lat="38.78798003308475" lon="-0.313719967380166">
        <ele>527.93359375</ele>
        <time>2017-12-23T10:56:23Z</time>
      </trkpt>
      <trkpt lat="38.787969974800944" lon="-0.313700018450618">
        <ele>528.125</ele>
        <time>2017-12-23T10:58:23Z</time>
      </trkpt>
      <trkpt lat="38.787969974800944" lon="-0.313689960166812">
        <ele>528.12890625</ele>
        <time>2017-12-23T11:00:23Z</time>
      </trkpt>
      <trkpt lat="38.78796000033617" lon="-0.313689960166812">
        <ele>528.26171875</ele>
        <time>2017-12-23T11:02:23Z</time>
      </trkpt>
      <trkpt lat="38.787950025871396" lon="-0.313679985702038">
        <ele>528.390625</ele>
        <time>2017-12-23T11:04:23Z</time>
      </trkpt>
      <trkpt lat="38.787920018658042" lon="-0.313679985702038">
        <ele>528.91015625</ele>
        <time>2017-12-23T11:06:23Z</time>
      </trkpt>
      <trkpt lat="38.787899985909462" lon="-0.313689960166812">
        <ele>529.30859375</ele>
        <time>2017-12-23T11:08:23Z</time>
      </trkpt>
      <trkpt lat="38.787880036979914" lon="-0.313700018450618">
        <ele>529.71484375</ele>
        <time>2017-12-23T11:10:23Z</time>
      </trkpt>
      <trkpt lat="38.78785002976656" lon="-0.313730025663972">
        <ele>530.30859375</ele>
        <time>2017-12-23T11:12:23Z</time>
      </trkpt>
      <trkpt lat="38.787820022553205" lon="-0.313740000128746">
        <ele>530.75</ele>
        <time>2017-12-23T11:14:23Z</time>
      </trkpt>
      <trkpt lat="38.787790015339851" lon="-0.313760032877326">
        <ele>531.30859375</ele>
        <time>2017-12-23T11:16:23Z</time>
      </trkpt>
      <trkpt lat="38.787769982591271" lon="-0.3137700073421">
        <ele>531.72265625</ele>
        <time>2017-12-23T11:18:23Z</time>
      </trkpt>
      <trkpt lat="38.787739975377917" lon="-0.313779981806874">
        <ele>532.23046875</ele>
        <time>2017-12-23T11:20:23Z</time>
      </trkpt>
      <trkpt lat="38.787720026448369" lon="-0.31379004009068">
        <ele>532.5234375</ele>
        <time>2017-12-23T11:22:23Z</time>
      </trkpt>
      <trkpt lat="38.787709968164563" lon="-0.31379004009068">
        <ele>532.62109375</ele>
        <time>2017-12-23T11:24:23Z</time>
      </trkpt>
      <trkpt lat="38.787699993699789" lon="-0.31379004009068">
        <ele>532.72265625</ele>
        <time>2017-12-23T11:26:23Z</time>
      </trkpt>
      <trkpt lat="38.787679960951209" lon="-0.31379004009068">
        <ele>532.91796875</ele>
        <time>2017-12-23T11:28:23Z</time>
      </trkpt>
      <trkpt lat="38.787660012021661" lon="-0.313779981806874">
        <ele>533.07421875</ele>
        <time>2017-12-23T11:30:23Z</time>
      </trkpt>
      <trkpt lat="38.787630004808307" lon="-0.313760032877326">
        <ele>533.46875</ele>
        <time>2017-12-23T11:32:23Z</time>
      </trkpt>
      <trkpt lat="38.787620030343533" lon="-0.313740000128746">
        <ele>533.54296875</ele>
        <time>2017-12-23T11:34:23Z</time>
      </trkpt>
      <trkpt lat="38.787599997594953" lon="-0.313709992915392">
        <ele>533.78125</ele>
        <time>2017-12-23T11:36:23Z</time>
      </trkpt>
      <trkpt lat="38.787590023130178" lon="-0.313649978488684">
        <ele>533.95703125</ele>
        <time>2017-12-23T11:38:23Z</time>
      </trkpt>
      <trkpt lat="38.787569990381598" lon="-0.313570015132427">
        <ele>534.30859375</ele>
        <time>2017-12-23T11:40:23Z</time>
      </trkpt>
      <trkpt lat="38.787560015916824" lon="-0.313530033454299">
        <ele>534.33984375</ele>
        <time>2017-12-23T11:42:23Z</time>
      </trkpt>
      <trkpt lat="38.787539983168244" lon="-0.313440011814237">
        <ele>534.64453125</ele>
        <time>2017-12-23T11:44:23Z</time>
      </trkpt>
      <trkpt lat="38.78753000870347" lon="-0.313400030136108">
        <ele>535.015625</ele>
        <time>2017-12-23T11:46:23Z</time>
      </trkpt>
      <trkpt lat="38.787520034238696" lon="-0.313330041244626">
        <ele>535.93359375</ele>
        <time>2017-12-23T11:48:23Z</time>
      </trkpt>
      <trkpt lat="38.787520034238696" lon="-0.313300034031272">
        <ele>536.23828125</ele>
        <time>2017-12-23T11:50:23Z</time>
      </trkpt>
      <trkpt lat="38.787520034238696" lon="-0.313259968534112">
        <ele>536.6328125</ele>
        <time>2017-12-23T11:52:23Z</time>
      </trkpt>
      <trkpt lat="38.787539983168244" lon="-0.313200037926435">
        <ele>537.3671875</ele>
        <time>2017-12-23T11:54:23Z</time>
      </trkpt>
      <trkpt lat="38.787569990381598" lon="-0.313059976324439">
        <ele>539.3515625</ele>
        <time>2017-12-23T11:56:23Z</time>
      </trkpt>
      <trkpt lat="38.787590023130178" lon="-0.312989987432957">
        <ele>540.671875</ele>
        <time>2017-12-23T11:58:23Z</time>
      </trkpt>
      <trkpt lat="38.787599997594953" lon="-0.312950005754828">
        <ele>541.44921875</ele>
        <time>2017-12-23T12:00:23Z</time>
      </trkpt>
      <trkpt lat="38.787609972059727" lon="-0.312899965792894">
        <ele>542.29296875</ele>
        <time>2017-12-23T12:02:23Z</time>
      </trkpt>
      <trkpt lat="38.787620030343533" lon="-0.312840035185218">
        <ele>543.06640625</ele>
        <time>2017-12-23T12:04:23Z</time>
      </trkpt>
      <trkpt lat="38.787630004808307" lon="-0.31278002075851">
        <ele>543.59375</ele>
        <time>2017-12-23T12:06:23Z</time>
      </trkpt>
      <trkpt lat="38.787639979273081" lon="-0.312710031867027">
        <ele>544.26953125</ele>
        <time>2017-12-23T12:08:23Z</time>
      </trkpt>
      <trkpt lat="38.787660012021661" lon="-0.312639959156513">
        <ele>544.92578125</ele>
        <time>2017-12-23T12:10:23Z</time>
      </trkpt>
      <trkpt lat="38.787669986486435" lon="-0.312539963051677">
        <ele>546.0625</ele>
        <time>2017-12-23T12:12:23Z</time>
      </trkpt>
      <trkpt lat="38.787699993699789" lon="-0.31243996694684">
        <ele>546.85546875</ele>
        <time>2017-12-23T12:14:23Z</time>
      </trkpt>
      <trkpt lat="38.787720026448369" lon="-0.312369978055358">
        <ele>547.42578125</ele>
        <time>2017-12-23T12:16:23Z</time>
      </trkpt>
      <trkpt lat="38.787750033661723" lon="-0.312260007485747">
        <ele>548.5703125</ele>
        <time>2017-12-23T12:18:23Z</time>
      </trkpt>
      <trkpt lat="38.787780040875077" lon="-0.312169985845685">
        <ele>549.3046875</ele>
        <time>2017-12-23T12:20:23Z</time>
      </trkpt>
      <trkpt lat="38.787790015339851" lon="-0.312120029702783">
        <ele>549.640625</ele>
        <time>2017-12-23T12:22:23Z</time>
      </trkpt>
      <trkpt lat="38.787799989804626" lon="-0.312090022489429">
        <ele>549.8203125</ele>
        <time>2017-12-23T12:24:23Z</time>
      </trkpt>
      <trkpt lat="38.787799989804626" lon="-0.312069989740849">
        <ele>550.05078125</ele>
        <time>2017-12-23T12:26:23Z</time>
      </trkpt>
      <trkpt lat="38.7878099642694" lon="-0.31203000806272">
        <ele>550.37109375</ele>
        <time>2017-12-23T12:28:23Z</time>
      </trkpt>
      <trkpt lat="38.7878099642694" lon="-0.311930011957884">
        <ele>551.08984375</ele>
        <time>2017-12-23T12:30:23Z</time>
      </trkpt>
      <trkpt lat="38.787820022553205" lon="-0.311869997531176">
        <ele>550.92578125</ele>
        <time>2017-12-23T12:32:23Z</time>
      </trkpt>
      <trkpt lat="38.787820022553205" lon="-0.311800008639693">
        <ele>551.03125</ele>
        <time>2017-12-23T12:34:23Z</time>
      </trkpt>
      <trkpt lat="38.787820022553205" lon="-0.311719961464405">
        <ele>551.4765625</ele>
        <time>2017-12-23T12:36:23Z</time>
      </trkpt>
      <trkpt lat="38.787820022553205" lon="-0.311639998108149">
        <ele>552.26953125</ele>
        <time>2017-12-23T12:38:23Z</time>
      </trkpt>
      <trkpt lat="38.787820022553205" lon="-0.311560034751892">
        <ele>552.9765625</ele>
        <time>2017-12-23T12:40:23Z</time>
      </trkpt>
      <trkpt lat="38.78782999701798" lon="-0.311519969254732">
        <ele>552.8671875</ele>
        <time>2017-12-23T12:42:23Z</time>
      </trkpt>
      <trkpt lat="38.78782999701798" lon="-0.31147001311183">
        <ele>552.953125</ele>
        <time>2017-12-23T12:44:23Z</time>
      </trkpt>
      <trkpt lat="38.787839971482754" lon="-0.311430031433702">
        <ele>553.16796875</ele>
        <time>2017-12-23T12:46:23Z</time>
      </trkpt>
      <trkpt lat="38.787860004231334" lon="-0.311379991471767">
        <ele>553.3203125</ele>
        <time>2017-12-23T12:48:23Z</time>
      </trkpt>
      <trkpt lat="38.787899985909462" lon="-0.311319977045059">
        <ele>553.2421875</ele>
        <time>2017-12-23T12:50:23Z</time>
      </trkpt>
      <trkpt lat="38.787920018658042" lon="-0.311270020902157">
        <ele>553.6015625</ele>
        <time>2017-12-23T12:52:23Z</time>
      </trkpt>
      <trkpt lat="38.78793996758759" lon="-0.311230039224029">
        <ele>553.9296875</ele>
        <time>2017-12-23T12:54:23Z</time>
      </trkpt>
      <trkpt lat="38.787950025871396" lon="-0.311189973726869">
        <ele>554.3984375</ele>
        <time>2017-12-23T12:56:23Z</time>
      </trkpt>
      <trkpt lat="38.78796000033617" lon="-0.31114999204874">
        <ele>554.7890625</ele>
        <time>2017-12-23T12:58:23Z</time>
      </trkpt>
      <trkpt lat="38.787969974800944" lon="-0.311089977622032">
        <ele>555.421875</ele>
        <time>2017-12-23T13:00:23Z</time>
      </trkpt>
      <trkpt lat="38.78798003308475" lon="-0.311059970408678">
        <ele>555.5859375</ele>
        <time>2017-12-23T13:02:23Z</time>
      </trkpt>
      <trkpt lat="38.78798003308475" lon="-0.31104002147913">
        <ele>555.78515625</ele>
        <time>2017-12-23T13:04:23Z</time>
      </trkpt>
      <trkpt lat="38.78798003308475" lon="-0.310989981517196">
        <ele>556.359375</ele>
        <time>2017-12-23T13:06:23Z</time>
      </trkpt>
      <trkpt lat="38.787969974800944" lon="-0.310940025374293">
        <ele>557.1484375</ele>
        <time>2017-12-23T13:08:23Z</time>
      </trkpt>
      <trkpt lat="38.787969974800944" lon="-0.310910018160939">
        <ele>557.59375</ele>
        <time>2017-12-23T13:10:23Z</time>
      </trkpt>
      <trkpt lat="38.78798003308475" lon="-0.310880010947585">
        <ele>558</ele>
        <time>2017-12-23T13:12:23Z</time>
      </trkpt>
      <trkpt lat="38.78798003308475" lon="-0.310840029269457">
        <ele>558.71484375</ele>
        <time>2017-12-23T13:14:23Z</time>
      </trkpt>
      <trkpt lat="38.787990007549524" lon="-0.310810022056103">
        <ele>558.8125</ele>
        <time>2017-12-23T13:16:23Z</time>
      </trkpt>
      <trkpt lat="38.787999982014298" lon="-0.310780014842749">
        <ele>558.71484375</ele>
        <time>2017-12-23T13:18:23Z</time>
      </trkpt>
      <trkpt lat="38.788010040298104" lon="-0.310750007629395">
        <ele>558.61328125</ele>
        <time>2017-12-23T13:20:23Z</time>
      </trkpt>
      <trkpt lat="38.788010040298104" lon="-0.31072000041604">
        <ele>558.65625</ele>
        <time>2017-12-23T13:22:23Z</time>
      </trkpt>
      <trkpt lat="38.788010040298104" lon="-0.310689993202686">
        <ele>558.73046875</ele>
        <time>2017-12-23T13:24:23Z</time>
      </trkpt>
      <trkpt lat="38.788010040298104" lon="-0.310650011524558">
        <ele>558.828125</ele>
        <time>2017-12-23T13:26:23Z</time>
      </trkpt>
      <trkpt lat="38.788020014762878" lon="-0.310580022633076">
        <ele>558.6796875</ele>
        <time>2017-12-23T13:28:23Z</time>
      </trkpt>
      <trkpt lat="38.788010040298104" lon="-0.310540040954947">
        <ele>558.921875</ele>
        <time>2017-12-23T13:30:23Z</time>
      </trkpt>
      <trkpt lat="38.788010040298104" lon="-0.310480026528239">
        <ele>558.921875</ele>
        <time>2017-12-23T13:32:23Z</time>
      </trkpt>
      <trkpt lat="38.788010040298104" lon="-0.310439961031079">
        <ele>558.984375</ele>
        <time>2017-12-23T13:34:23Z</time>
      </trkpt>
      <trkpt lat="38.787999982014298" lon="-0.310399979352951">
        <ele>559.34765625</ele>
        <time>2017-12-23T13:36:23Z</time>
      </trkpt>
      <trkpt lat="38.787990007549524" lon="-0.310320015996695">
        <ele>560.07421875</ele>
        <time>2017-12-23T13:38:23Z</time>
      </trkpt>
      <trkpt lat="38.787990007549524" lon="-0.31026997603476">
        <ele>560.4609375</ele>
        <time>2017-12-23T13:40:23Z</time>
      </trkpt>
      <trkpt lat="38.78798003308475" lon="-0.310199987143278">
        <ele>560.65625</ele>
        <time>2017-12-23T13:42:23Z</time>
      </trkpt>
      <trkpt lat="38.787969974800944" lon="-0.310099991038442">
        <ele>561.4765625</ele>
        <time>2017-12-23T13:44:23Z</time>
      </trkpt>
      <trkpt lat="38.78796000033617" lon="-0.310050034895539">
        <ele>562.0078125</ele>
        <time>2017-12-23T13:46:23Z</time>
      </trkpt>
      <trkpt lat="38.787950025871396" lon="-0.310009969398379">
        <ele>562.43359375</ele>
        <time>2017-12-23T13:48:23Z</time>
      </trkpt>
      <trkpt lat="38.78793996758759" lon="-0.309969987720251">
        <ele>562.92578125</ele>
        <time>2017-12-23T13:50:23Z</time>
      </trkpt>
      <trkpt lat="38.787929993122816" lon="-0.309920031577349">
        <ele>563.5625</ele>
        <time>2017-12-23T13:52:23Z</time>
      </trkpt>
      <trkpt lat="38.787929993122816" lon="-0.309899998828769">
        <ele>563.734375</ele>
        <time>2017-12-23T13:54:23Z</time>
      </trkpt>
      <trkpt lat="38.787920018658042" lon="-0.30986001715064">
        <ele>564.16015625</ele>
        <time>2017-12-23T13:56:23Z</time>
      </trkpt>
      <trkpt lat="38.787920018658042" lon="-0.309800002723932">
        <ele>564.59375</ele>
        <time>2017-12-23T13:58:23Z</time>
      </trkpt>
      <trkpt lat="38.787920018658042" lon="-0.309760021045804">
        <ele>564.85546875</ele>
        <time>2017-12-23T14:00:23Z</time>
      </trkpt>
      <trkpt lat="38.787920018658042" lon="-0.309690032154322">
        <ele>565.2734375</ele>
        <time>2017-12-23T14:02:23Z</time>
      </trkpt>
      <trkpt lat="38.787920018658042" lon="-0.309660024940968">
        <ele>565.4296875</ele>
        <time>2017-12-23T14:04:23Z</time>
      </trkpt>
      <trkpt lat="38.787909960374236" lon="-0.309619959443808">
        <ele>565.75390625</ele>
        <time>2017-12-23T14:06:23Z</time>
      </trkpt>
      <trkpt lat="38.787909960374236" lon="-0.309600010514259">
        <ele>565.9296875</ele>
        <time>2017-12-23T14:08:23Z</time>
      </trkpt>
      <trkpt lat="38.787890011444688" lon="-0.309560028836131">
        <ele>566.4296875</ele>
        <time>2017-12-23T14:10:23Z</time>
      </trkpt>
      <trkpt lat="38.787860004231334" lon="-0.309500014409423">
        <ele>566.98046875</ele>
        <time>2017-12-23T14:12:23Z</time>
      </trkpt>
      <trkpt lat="38.787820022553205" lon="-0.309400018304586">
        <ele>567.5859375</ele>
        <time>2017-12-23T14:14:23Z</time>
      </trkpt>
      <trkpt lat="38.787799989804626" lon="-0.309340003877878">
        <ele>567.9765625</ele>
        <time>2017-12-23T14:16:23Z</time>
      </trkpt>
      <trkpt lat="38.787790015339851" lon="-0.309309996664524">
        <ele>567.9453125</ele>
        <time>2017-12-23T14:18:23Z</time>
      </trkpt>
      <trkpt lat="38.787790015339851" lon="-0.30927998945117">
        <ele>567.9453125</ele>
        <time>2017-12-23T14:20:23Z</time>
      </trkpt>
      <trkpt lat="38.787790015339851" lon="-0.309249982237816">
        <ele>567.9140625</ele>
        <time>2017-12-23T14:22:23Z</time>
      </trkpt>
      <trkpt lat="38.787799989804626" lon="-0.309219975024462">
        <ele>567.796875</ele>
        <time>2017-12-23T14:24:23Z</time>
      </trkpt>
      <trkpt lat="38.787820022553205" lon="-0.309179993346334">
        <ele>567.71484375</ele>
        <time>2017-12-23T14:26:23Z</time>
      </trkpt>
      <trkpt lat="38.787839971482754" lon="-0.309159960597754">
        <ele>567.76171875</ele>
        <time>2017-12-23T14:28:23Z</time>
      </trkpt>
      <trkpt lat="38.787860004231334" lon="-0.309130037203431">
        <ele>567.78515625</ele>
        <time>2017-12-23T14:30:23Z</time>
      </trkpt>
      <trkpt lat="38.787890011444688" lon="-0.309089971706271">
        <ele>567.75390625</ele>
        <time>2017-12-23T14:32:23Z</time>
      </trkpt>
      <trkpt lat="38.787909960374236" lon="-0.309070022776723">
        <ele>567.7265625</ele>
        <time>2017-12-23T14:34:23Z</time>
      </trkpt>
      <trkpt lat="38.787920018658042" lon="-0.309059964492917">
        <ele>567.7109375</ele>
        <time>2017-12-23T14:36:23Z</time>
      </trkpt>
      <trkpt lat="38.787950025871396" lon="-0.309049990028143">
        <ele>567.859375</ele>
        <time>2017-12-23T14:38:23Z</time>
      </trkpt>
      <trkpt lat="38.787990007549524" lon="-0.309030041098595">
        <ele>568.25390625</ele>
        <time>2017-12-23T14:40:23Z</time>
      </trkpt>
      <trkpt lat="38.788020014762878" lon="-0.309010008350015">
        <ele>568.5859375</ele>
        <time>2017-12-23T14:42:23Z</time>
      </trkpt>
      <trkpt lat="38.788039963692427" lon="-0.308989975601435">
        <ele>568.76953125</ele>
        <time>2017-12-23T14:44:23Z</time>
      </trkpt>
      <trkpt lat="38.788080029189587" lon="-0.308959968388081">
        <ele>568.8984375</ele>
        <time>2017-12-23T14:46:23Z</time>
      </trkpt>
      <trkpt lat="38.788110036402941" lon="-0.308929961174726">
        <ele>569</ele>
        <time>2017-12-23T14:48:23Z</time>
      </trkpt>
      <trkpt lat="38.788139959797263" lon="-0.308910012245178">
        <ele>569.1171875</ele>
        <time>2017-12-23T14:50:23Z</time>
      </trkpt>
      <trkpt lat="38.788159992545843" lon="-0.308889979496598">
        <ele>569.265625</ele>
        <time>2017-12-23T14:52:23Z</time>
      </trkpt>
      <trkpt lat="38.788180025294423" lon="-0.308880005031824">
        <ele>569.40625</ele>
        <time>2017-12-23T14:54:23Z</time>
      </trkpt>
      <trkpt lat="38.788210032507777" lon="-0.30887003056705">
        <ele>569.60546875</ele>
        <time>2017-12-23T14:56:23Z</time>
      </trkpt>
      <trkpt lat="38.788229981437325" lon="-0.30887003056705">
        <ele>569.7734375</ele>
        <time>2017-12-23T14:58:23Z</time>
      </trkpt>
      <trkpt lat="38.78825998865068" lon="-0.30887003056705">
        <ele>570.0703125</ele>
        <time>2017-12-23T15:00:23Z</time>
      </trkpt>
      <trkpt lat="38.788320003077388" lon="-0.30887003056705">
        <ele>570.60546875</ele>
        <time>2017-12-23T15:02:23Z</time>
      </trkpt>
      <trkpt lat="38.78836995922029" lon="-0.308880005031824">
        <ele>570.76953125</ele>
        <time>2017-12-23T15:04:23Z</time>
      </trkpt>
      <trkpt lat="38.788440031930804" lon="-0.308889979496598">
        <ele>570.8515625</ele>
        <time>2017-12-23T15:06:23Z</time>
      </trkpt>
      <trkpt lat="38.788499962538481" lon="-0.308910012245178">
        <ele>570.7265625</ele>
        <time>2017-12-23T15:08:23Z</time>
      </trkpt>
      <trkpt lat="38.788540028035641" lon="-0.308919986709952">
        <ele>570.76171875</ele>
        <time>2017-12-23T15:10:23Z</time>
      </trkpt>
      <trkpt lat="38.788589984178543" lon="-0.308929961174726">
        <ele>570.87890625</ele>
        <time>2017-12-23T15:12:23Z</time>
      </trkpt>
      <trkpt lat="38.788629965856671" lon="-0.308940019458532">
        <ele>570.87890625</ele>
        <time>2017-12-23T15:14:23Z</time>
      </trkpt>
      <trkpt lat="38.788659973070025" lon="-0.308940019458532">
        <ele>570.87890625</ele>
        <time>2017-12-23T15:16:23Z</time>
      </trkpt>
      <trkpt lat="38.788700038567185" lon="-0.308949993923306">
        <ele>570.96484375</ele>
        <time>2017-12-23T15:18:23Z</time>
      </trkpt>
      <trkpt lat="38.788719987496734" lon="-0.308949993923306">
        <ele>571.0546875</ele>
        <time>2017-12-23T15:20:23Z</time>
      </trkpt>
      <trkpt lat="38.788749994710088" lon="-0.308949993923306">
        <ele>571.19140625</ele>
        <time>2017-12-23T15:22:23Z</time>
      </trkpt>
      <trkpt lat="38.788789976388216" lon="-0.308949993923306">
        <ele>571.37109375</ele>
        <time>2017-12-23T15:24:23Z</time>
      </trkpt>
      <trkpt lat="38.788830041885376" lon="-0.308949993923306">
        <ele>571.54296875</ele>
        <time>2017-12-23T15:26:23Z</time>
      </trkpt>
      <trkpt lat="38.788859965279698" lon="-0.308940019458532">
        <ele>571.63671875</ele>
        <time>2017-12-23T15:28:23Z</time>
      </trkpt>
      <trkpt lat="38.788910005241632" lon="-0.308929961174726">
        <ele>572.06640625</ele>
        <time>2017-12-23T15:30:23Z</time>
      </trkpt>
      <trkpt lat="38.788949986919761" lon="-0.308910012245178">
        <ele>572.39453125</ele>
        <time>2017-12-23T15:32:23Z</time>
      </trkpt>
      <trkpt lat="38.788989968597889" lon="-0.308900037780404">
        <ele>572.84375</ele>
        <time>2017-12-23T15:34:23Z</time>
      </trkpt>
      <trkpt lat="38.789019975811243" lon="-0.308889979496598">
        <ele>573.2109375</ele>
        <time>2017-12-23T15:36:23Z</time>
      </trkpt>
      <trkpt lat="38.789070015773177" lon="-0.30887003056705">
        <ele>573.875</ele>
        <time>2017-12-23T15:38:23Z</time>
      </trkpt>
      <trkpt lat="38.789100022986531" lon="-0.308859972283244">
        <ele>574.37109375</ele>
        <time>2017-12-23T15:40:23Z</time>
      </trkpt>
      <trkpt lat="38.789130030199885" lon="-0.308840023353696">
        <ele>574.75</ele>
        <time>2017-12-23T15:42:23Z</time>
      </trkpt>
      <trkpt lat="38.789179986342788" lon="-0.308810016140342">
        <ele>575.41796875</ele>
        <time>2017-12-23T15:44:23Z</time>
      </trkpt>
      <trkpt lat="38.789219968020916" lon="-0.308789983391762">
        <ele>575.99609375</ele>
        <time>2017-12-23T15:46:23Z</time>
      </trkpt>
      <trkpt lat="38.78927000798285" lon="-0.308740027248859">
        <ele>576.59765625</ele>
        <time>2017-12-23T15:48:23Z</time>
      </trkpt>
      <trkpt lat="38.789279982447624" lon="-0.308729968965054">
        <ele>576.7265625</ele>
        <time>2017-12-23T15:50:23Z</time>
      </trkpt>
      <trkpt lat="38.789309989660978" lon="-0.308710020035505">
        <ele>577.234375</ele>
        <time>2017-12-23T15:52:23Z</time>
      </trkpt>
      <trkpt lat="38.789339996874332" lon="-0.308699961751699">
        <ele>577.7421875</ele>
        <time>2017-12-23T15:54:23Z</time>
      </trkpt>
      <trkpt lat="38.789349971339107" lon="-0.308699961751699">
        <ele>577.90625</ele>
        <time>2017-12-23T15:56:23Z</time>
      </trkpt>
      <trkpt lat="38.789360029622912" lon="-0.308699961751699">
        <ele>578.0703125</ele>
        <time>2017-12-23T15:58:23Z</time>
      </trkpt>
      <trkpt lat="38.789379978552461" lon="-0.308699961751699">
        <ele>578.3984375</ele>
        <time>2017-12-23T16:00:23Z</time>
      </trkpt>
      <trkpt lat="38.789379978552461" lon="-0.308699961751699">
        <ele>578.3984375</ele>
        <time>2017-12-23T16:02:23Z</time>
      </trkpt>
      <trkpt lat="38.789460025727749" lon="-0.308619998395443">
        <ele>577.2890625</ele>
        <time>2017-12-23T16:04:23Z</time>
      </trkpt>
      <trkpt lat="38.789530014619231" lon="-0.308550009503961">
        <ele>577.234375</ele>
        <time>2017-12-23T16:06:23Z</time>
      </trkpt>
      <trkpt lat="38.789609977975488" lon="-0.308459987863898">
        <ele>577.90234375</ele>
        <time>2017-12-23T16:08:23Z</time>
      </trkpt>
      <trkpt lat="38.78967996686697" lon="-0.308380024507642">
        <ele>578.84765625</ele>
        <time>2017-12-23T16:10:23Z</time>
      </trkpt>
      <trkpt lat="38.789730006828904" lon="-0.308299977332354">
        <ele>579.21875</ele>
        <time>2017-12-23T16:12:23Z</time>
      </trkpt>
      <trkpt lat="38.789750039577484" lon="-0.308269970118999">
        <ele>579.484375</ele>
        <time>2017-12-23T16:14:23Z</time>
      </trkpt>
      <trkpt lat="38.789769988507032" lon="-0.308220013976097">
        <ele>579.54296875</ele>
        <time>2017-12-23T16:16:23Z</time>
      </trkpt>
      <trkpt lat="38.789799995720387" lon="-0.308129992336035">
        <ele>580.00390625</ele>
        <time>2017-12-23T16:18:23Z</time>
      </trkpt>
      <trkpt lat="38.789839977398515" lon="-0.308039970695972">
        <ele>581.25</ele>
        <time>2017-12-23T16:20:23Z</time>
      </trkpt>
      <trkpt lat="38.789869984611869" lon="-0.307939974591136">
        <ele>581.57421875</ele>
        <time>2017-12-23T16:22:23Z</time>
      </trkpt>
      <trkpt lat="38.789890017360449" lon="-0.307869985699654">
        <ele>581.7734375</ele>
        <time>2017-12-23T16:24:23Z</time>
      </trkpt>
      <trkpt lat="38.789909966289997" lon="-0.307820029556751">
        <ele>582.12109375</ele>
        <time>2017-12-23T16:26:23Z</time>
      </trkpt>
      <trkpt lat="38.789950031787157" lon="-0.307750040665269">
        <ele>582.87890625</ele>
        <time>2017-12-23T16:28:23Z</time>
      </trkpt>
      <trkpt lat="38.789980039000511" lon="-0.307690026238561">
        <ele>583.25390625</ele>
        <time>2017-12-23T16:30:23Z</time>
      </trkpt>
      <trkpt lat="38.790050027891994" lon="-0.307590030133724">
        <ele>584.32421875</ele>
        <time>2017-12-23T16:32:23Z</time>
      </trkpt>
      <trkpt lat="38.790120016783476" lon="-0.307520041242242">
        <ele>585.7265625</ele>
        <time>2017-12-23T16:34:23Z</time>
      </trkpt>
      <trkpt lat="38.790229987353086" lon="-0.307400012388825">
        <ele>586.21875</ele>
        <time>2017-12-23T16:36:23Z</time>
      </trkpt>
      <trkpt lat="38.790340041741729" lon="-0.307270009070635">
        <ele>584.2734375</ele>
        <time>2017-12-23T16:38:23Z</time>
      </trkpt>
      <trkpt lat="38.790440037846565" lon="-0.307179987430573">
        <ele>584.77734375</ele>
        <time>2017-12-23T16:40:23Z</time>
      </trkpt>
      <trkpt lat="38.79055998288095" lon="-0.307049984112382">
        <ele>585.86328125</ele>
        <time>2017-12-23T16:42:23Z</time>
      </trkpt>
      <trkpt lat="38.79058001562953" lon="-0.307030035182834">
        <ele>586.04296875</ele>
        <time>2017-12-23T16:44:23Z</time>
      </trkpt>
      <trkpt lat="38.790599964559078" lon="-0.307019976899028">
        <ele>586.4140625</ele>
        <time>2017-12-23T16:46:23Z</time>
      </trkpt>
      <trkpt lat="38.790610022842884" lon="-0.30700002796948">
        <ele>586.1640625</ele>
        <time>2017-12-23T16:48:23Z</time>
      </trkpt>
      <trkpt lat="38.790640030056238" lon="-0.3069799952209">
        <ele>586.3671875</ele>
        <time>2017-12-23T16:50:23Z</time>
      </trkpt>
      <trkpt lat="38.790680011734366" lon="-0.30695996247232">
        <ele>586.6953125</ele>
        <time>2017-12-23T16:52:23Z</time>
      </trkpt>
      <trkpt lat="38.790710018947721" lon="-0.306949988007545">
        <ele>587.09375</ele>
        <time>2017-12-23T16:54:23Z</time>
      </trkpt>
      <trkpt lat="38.790740026161075" lon="-0.306940013542771">
        <ele>587.2890625</ele>
        <time>2017-12-23T16:56:23Z</time>
      </trkpt>
      <trkpt lat="38.790770033374429" lon="-0.306940013542771">
        <ele>587.68359375</ele>
        <time>2017-12-23T16:58:23Z</time>
      </trkpt>
      <trkpt lat="38.790800040587783" lon="-0.306940013542771">
        <ele>588.078125</ele>
        <time>2017-12-23T17:00:23Z</time>
      </trkpt>
      <trkpt lat="38.790840022265911" lon="-0.306949988007545">
        <ele>588.6328125</ele>
        <time>2017-12-23T17:02:23Z</time>
      </trkpt>
      <trkpt lat="38.790900036692619" lon="-0.306970020756125">
        <ele>589.39453125</ele>
        <time>2017-12-23T17:04:23Z</time>
      </trkpt>
      <trkpt lat="38.790940018370748" lon="-0.3069799952209">
        <ele>589.52734375</ele>
        <time>2017-12-23T17:06:23Z</time>
      </trkpt>
      <trkpt lat="38.790970025584102" lon="-0.306989969685674">
        <ele>589.69140625</ele>
        <time>2017-12-23T17:08:23Z</time>
      </trkpt>
      <trkpt lat="38.79101000726223" lon="-0.307010002434254">
        <ele>590.046875</ele>
        <time>2017-12-23T17:10:23Z</time>
      </trkpt>
      <trkpt lat="38.791049988940358" lon="-0.307019976899028">
        <ele>590.12890625</ele>
        <time>2017-12-23T17:12:23Z</time>
      </trkpt>
      <trkpt lat="38.791149985045195" lon="-0.307059958577156">
        <ele>590.95703125</ele>
        <time>2017-12-23T17:14:23Z</time>
      </trkpt>
      <trkpt lat="38.791249981150031" lon="-0.30710999853909">
        <ele>591.6484375</ele>
        <time>2017-12-23T17:16:23Z</time>
      </trkpt>
      <trkpt lat="38.791340002790093" lon="-0.307140005752444">
        <ele>591.49609375</ele>
        <time>2017-12-23T17:18:23Z</time>
      </trkpt>
      <trkpt lat="38.791430024430156" lon="-0.307160038501024">
        <ele>591.28125</ele>
        <time>2017-12-23T17:20:23Z</time>
      </trkpt>
      <trkpt lat="38.791500013321638" lon="-0.307160038501024">
        <ele>591.1328125</ele>
        <time>2017-12-23T17:22:23Z</time>
      </trkpt>
      <trkpt lat="38.79154996946454" lon="-0.307160038501024">
        <ele>591.1328125</ele>
        <time>2017-12-23T17:24:23Z</time>
      </trkpt>
      <trkpt lat="38.791600009426475" lon="-0.307160038501024">
        <ele>591.35546875</ele>
        <time>2017-12-23T17:26:23Z</time>
      </trkpt>
      <trkpt lat="38.791679972782731" lon="-0.307140005752444">
        <ele>591.28125</ele>
        <time>2017-12-23T17:28:23Z</time>
      </trkpt>
      <trkpt lat="38.791790027171373" lon="-0.30710999853909">
        <ele>591.7890625</ele>
        <time>2017-12-23T17:30:23Z</time>
      </trkpt>
      <trkpt lat="38.791879964992404" lon="-0.30708996579051">
        <ele>592.453125</ele>
        <time>2017-12-23T17:32:23Z</time>
      </trkpt>
      <trkpt lat="38.792139971628785" lon="-0.307030035182834">
        <ele>592.7578125</ele>
        <time>2017-12-23T17:34:23Z</time>
      </trkpt>
      <trkpt lat="38.79229998216033" lon="-0.3069799952209">
        <ele>594.35546875</ele>
        <time>2017-12-23T17:36:23Z</time>
      </trkpt>
      <trkpt lat="38.792369971051812" lon="-0.30695996247232">
        <ele>595.4765625</ele>
        <time>2017-12-23T17:38:23Z</time>
      </trkpt>
      <trkpt lat="38.79242998547852" lon="-0.306919980794191">
        <ele>596.2578125</ele>
        <time>2017-12-23T17:40:23Z</time>
      </trkpt>
      <trkpt lat="38.792489999905229" lon="-0.306879999116063">
        <ele>597.078125</ele>
        <time>2017-12-23T17:42:23Z</time>
      </trkpt>
      <trkpt lat="38.792529981583357" lon="-0.306859966367483">
        <ele>597.4765625</ele>
        <time>2017-12-23T17:44:23Z</time>
      </trkpt>
      <trkpt lat="38.792569963261485" lon="-0.306819984689355">
        <ele>597.47265625</ele>
        <time>2017-12-23T17:46:23Z</time>
      </trkpt>
      <trkpt lat="38.792620003223419" lon="-0.306759970262647">
        <ele>597.2734375</ele>
        <time>2017-12-23T17:48:23Z</time>
      </trkpt>
      <trkpt lat="38.792659984901547" lon="-0.30670003965497">
        <ele>596.86328125</ele>
        <time>2017-12-23T17:50:23Z</time>
      </trkpt>
      <trkpt lat="38.792689992114902" lon="-0.306629966944456">
        <ele>596.63671875</ele>
        <time>2017-12-23T17:52:23Z</time>
      </trkpt>
      <trkpt lat="38.792719999328256" lon="-0.306559978052974">
        <ele>596.51953125</ele>
        <time>2017-12-23T17:54:23Z</time>
      </trkpt>
      <trkpt lat="38.792740032076836" lon="-0.306459981948137">
        <ele>596.3046875</ele>
        <time>2017-12-23T17:56:23Z</time>
      </trkpt>
      <trkpt lat="38.792740032076836" lon="-0.306389993056655">
        <ele>596.69921875</ele>
        <time>2017-12-23T17:58:23Z</time>
      </trkpt>
      <trkpt lat="38.792740032076836" lon="-0.306320004165173">
        <ele>596.9375</ele>
        <time>2017-12-23T18:00:23Z</time>
      </trkpt>
      <trkpt lat="38.79272997379303" lon="-0.30625001527369">
        <ele>597.1640625</ele>
        <time>2017-12-23T18:02:23Z</time>
      </trkpt>
      <trkpt lat="38.792699966579676" lon="-0.3061200119555">
        <ele>597.83203125</ele>
        <time>2017-12-23T18:04:23Z</time>
      </trkpt>
      <trkpt lat="38.792580021545291" lon="-0.305860005319118">
        <ele>598.44140625</ele>
        <time>2017-12-23T18:06:23Z</time>
      </trkpt>
      <trkpt lat="38.792480025440454" lon="-0.30566998757422">
        <ele>598.06640625</ele>
        <time>2017-12-23T18:08:23Z</time>
      </trkpt>
      <trkpt lat="38.79242998547852" lon="-0.305560017004609">
        <ele>598.546875</ele>
        <time>2017-12-23T18:10:23Z</time>
      </trkpt>
      <trkpt lat="38.792399978265166" lon="-0.305500002577901">
        <ele>599.078125</ele>
        <time>2017-12-23T18:12:23Z</time>
      </trkpt>
      <trkpt lat="38.792380029335618" lon="-0.305430013686419">
        <ele>599.875</ele>
        <time>2017-12-23T18:14:23Z</time>
      </trkpt>
      <trkpt lat="38.792359996587038" lon="-0.305360024794936">
        <ele>600.25390625</ele>
        <time>2017-12-23T18:16:23Z</time>
      </trkpt>
      <trkpt lat="38.792359996587038" lon="-0.305270003154874">
        <ele>601.28125</ele>
        <time>2017-12-23T18:18:23Z</time>
      </trkpt>
      <trkpt lat="38.792369971051812" lon="-0.30521996319294">
        <ele>602.5</ele>
        <time>2017-12-23T18:20:23Z</time>
      </trkpt>
      <trkpt lat="38.792380029335618" lon="-0.305179981514812">
        <ele>603.43359375</ele>
        <time>2017-12-23T18:22:23Z</time>
      </trkpt>
      <trkpt lat="38.792390003800392" lon="-0.305139999836683">
        <ele>603.58984375</ele>
        <time>2017-12-23T18:24:23Z</time>
      </trkpt>
      <trkpt lat="38.792410036548972" lon="-0.305119967088103">
        <ele>603.8515625</ele>
        <time>2017-12-23T18:26:23Z</time>
      </trkpt>
      <trkpt lat="38.7924500182271" lon="-0.305049978196621">
        <ele>604.59375</ele>
        <time>2017-12-23T18:28:23Z</time>
      </trkpt>
      <trkpt lat="38.792480025440454" lon="-0.305030029267073">
        <ele>604.953125</ele>
        <time>2017-12-23T18:30:23Z</time>
      </trkpt>
      <trkpt lat="38.792499974370003" lon="-0.305009996518493">
        <ele>605.15234375</ele>
        <time>2017-12-23T18:32:23Z</time>
      </trkpt>
      <trkpt lat="38.792540039867163" lon="-0.304979989305139">
        <ele>605.44140625</ele>
        <time>2017-12-23T18:34:23Z</time>
      </trkpt>
      <trkpt lat="38.792580021545291" lon="-0.30496004037559">
        <ele>605.7109375</ele>
        <time>2017-12-23T18:36:23Z</time>
      </trkpt>
      <trkpt lat="38.79285997711122" lon="-0.304800029844046">
        <ele>606.234375</ele>
        <time>2017-12-23T18:38:23Z</time>
      </trkpt>
      <trkpt lat="38.793230038136244" lon="-0.304580004885793">
        <ele>608.22265625</ele>
        <time>2017-12-23T18:40:23Z</time>
      </trkpt>
      <trkpt lat="38.793540000915527" lon="-0.304399961605668">
        <ele>609.50390625</ele>
        <time>2017-12-23T18:42:23Z</time>
      </trkpt>
      <trkpt lat="38.79360998980701" lon="-0.304340030997992">
        <ele>609.171875</ele>
        <time>2017-12-23T18:44:23Z</time>
      </trkpt>
      <trkpt lat="38.793670004233718" lon="-0.304280016571283">
        <ele>609.38671875</ele>
        <time>2017-12-23T18:46:23Z</time>
      </trkpt>
      <trkpt lat="38.79371996037662" lon="-0.304199969395995">
        <ele>609.734375</ele>
        <time>2017-12-23T18:48:23Z</time>
      </trkpt>
      <trkpt lat="38.7937399931252" lon="-0.304150013253093">
        <ele>609.8671875</ele>
        <time>2017-12-23T18:50:23Z</time>
      </trkpt>
      <trkpt lat="38.793770000338554" lon="-0.30405999161303">
        <ele>609.59375</ele>
        <time>2017-12-23T18:52:23Z</time>
      </trkpt>
      <trkpt lat="38.793790033087134" lon="-0.303969969972968">
        <ele>608.7421875</ele>
        <time>2017-12-23T18:54:23Z</time>
      </trkpt>
      <trkpt lat="38.793800007551908" lon="-0.303869973868132">
        <ele>609.66796875</ele>
        <time>2017-12-23T18:56:23Z</time>
      </trkpt>
      <trkpt lat="38.793809982016683" lon="-0.303669981658459">
        <ele>611.9296875</ele>
        <time>2017-12-23T18:58:23Z</time>
      </trkpt>
      <trkpt lat="38.793800007551908" lon="-0.30349999666214">
        <ele>611.87109375</ele>
        <time>2017-12-23T19:00:23Z</time>
      </trkpt>
      <trkpt lat="38.793790033087134" lon="-0.303309978917241">
        <ele>611.51171875</ele>
        <time>2017-12-23T19:02:23Z</time>
      </trkpt>
      <trkpt lat="38.793790033087134" lon="-0.303139993920922">
        <ele>611.97265625</ele>
        <time>2017-12-23T19:04:23Z</time>
      </trkpt>
      <trkpt lat="38.793800007551908" lon="-0.303000016137958">
        <ele>613.76953125</ele>
        <time>2017-12-23T19:06:23Z</time>
      </trkpt>
      <trkpt lat="38.793809982016683" lon="-0.302879987284541">
        <ele>615.1953125</ele>
        <time>2017-12-23T19:08:23Z</time>
      </trkpt>
      <trkpt lat="38.793820040300488" lon="-0.302809998393059">
        <ele>615.94140625</ele>
        <time>2017-12-23T19:10:23Z</time>
      </trkpt>
      <trkpt lat="38.793830014765263" lon="-0.302759958431125">
        <ele>616.03515625</ele>
        <time>2017-12-23T19:12:23Z</time>
      </trkpt>
      <trkpt lat="38.793860021978617" lon="-0.302679995074868">
        <ele>614.89453125</ele>
        <time>2017-12-23T19:14:23Z</time>
      </trkpt>
      <trkpt lat="38.793879970908165" lon="-0.30261998064816">
        <ele>614.1171875</ele>
        <time>2017-12-23T19:16:23Z</time>
      </trkpt>
      <trkpt lat="38.793909978121519" lon="-0.302570024505258">
        <ele>613.70703125</ele>
        <time>2017-12-23T19:18:23Z</time>
      </trkpt>
      <trkpt lat="38.793960018083453" lon="-0.302510010078549">
        <ele>613.5234375</ele>
        <time>2017-12-23T19:20:23Z</time>
      </trkpt>
      <trkpt lat="38.794030006974936" lon="-0.302480002865195">
        <ele>614.86328125</ele>
        <time>2017-12-23T19:22:23Z</time>
      </trkpt>
      <trkpt lat="38.79406001418829" lon="-0.302459970116615">
        <ele>615.45703125</ele>
        <time>2017-12-23T19:24:23Z</time>
      </trkpt>
      <trkpt lat="38.794139977544546" lon="-0.302419988438487">
        <ele>616.66015625</ele>
        <time>2017-12-23T19:26:23Z</time>
      </trkpt>
      <trkpt lat="38.794209966436028" lon="-0.302359974011779">
        <ele>616.6015625</ele>
        <time>2017-12-23T19:28:23Z</time>
      </trkpt>
      <trkpt lat="38.794239973649383" lon="-0.302319992333651">
        <ele>616.390625</ele>
        <time>2017-12-23T19:30:23Z</time>
      </trkpt>
      <trkpt lat="38.794250031933188" lon="-0.302299959585071">
        <ele>616.015625</ele>
        <time>2017-12-23T19:32:23Z</time>
      </trkpt>
      <trkpt lat="38.794299988076091" lon="-0.30218998901546">
        <ele>614.390625</ele>
        <time>2017-12-23T19:34:23Z</time>
      </trkpt>
      <trkpt lat="38.794320020824671" lon="-0.302110025659204">
        <ele>613.9140625</ele>
        <time>2017-12-23T19:36:23Z</time>
      </trkpt>
      <trkpt lat="38.794339969754219" lon="-0.302010029554367">
        <ele>614.1328125</ele>
        <time>2017-12-23T19:38:23Z</time>
      </trkpt>
      <trkpt lat="38.794360002502799" lon="-0.301950015127659">
        <ele>614.53125</ele>
        <time>2017-12-23T19:40:23Z</time>
      </trkpt>
      <trkpt lat="38.794380035251379" lon="-0.301899975165725">
        <ele>615.1640625</ele>
        <time>2017-12-23T19:42:23Z</time>
      </trkpt>
      <trkpt lat="38.794409958645701" lon="-0.301839960739017">
        <ele>616.09375</ele>
        <time>2017-12-23T19:44:23Z</time>
      </trkpt>
      <trkpt lat="38.794429991394281" lon="-0.301799979060888">
        <ele>616.41796875</ele>
        <time>2017-12-23T19:46:23Z</time>
      </trkpt>
      <trkpt lat="38.79446997307241" lon="-0.30173996463418">
        <ele>617.28515625</ele>
        <time>2017-12-23T19:48:23Z</time>
      </trkpt>
      <trkpt lat="38.794550020247698" lon="-0.301629994064569">
        <ele>619.85546875</ele>
        <time>2017-12-23T19:50:23Z</time>
      </trkpt>
      <trkpt lat="38.794550020247698" lon="-0.301629994064569">
        <ele>619.85546875</ele>
        <time>2017-12-23T19:52:23Z</time>
      </trkpt>
      <trkpt lat="38.79462000913918" lon="-0.301650026813149">
        <ele>620.61328125</ele>
        <time>2017-12-23T19:54:23Z</time>
      </trkpt>
      <trkpt lat="38.794659990817308" lon="-0.301660001277924">
        <ele>621.1953125</ele>
        <time>2017-12-23T19:56:23Z</time>
      </trkpt>
      <trkpt lat="38.794689998030663" lon="-0.301669975742698">
        <ele>621.6171875</ele>
        <time>2017-12-23T19:58:23Z</time>
      </trkpt>
      <trkpt lat="38.794720005244017" lon="-0.301690008491278">
        <ele>621.6484375</ele>
        <time>2017-12-23T20:00:23Z</time>
      </trkpt>
      <trkpt lat="38.794750012457371" lon="-0.301720015704632">
        <ele>621.59375</ele>
        <time>2017-12-23T20:02:23Z</time>
      </trkpt>
      <trkpt lat="38.794789994135499" lon="-0.30175999738276">
        <ele>621.8359375</ele>
        <time>2017-12-23T20:04:23Z</time>
      </trkpt>
      <trkpt lat="38.794810026884079" lon="-0.301799979060888">
        <ele>621.8984375</ele>
        <time>2017-12-23T20:06:23Z</time>
      </trkpt>
      <trkpt lat="38.794829975813627" lon="-0.301850019022822">
        <ele>621.9375</ele>
        <time>2017-12-23T20:08:23Z</time>
      </trkpt>
      <trkpt lat="38.794840034097433" lon="-0.301899975165725">
        <ele>622.39453125</ele>
        <time>2017-12-23T20:10:23Z</time>
      </trkpt>
      <trkpt lat="38.794850008562207" lon="-0.301950015127659">
        <ele>623.0078125</ele>
        <time>2017-12-23T20:12:23Z</time>
      </trkpt>
      <trkpt lat="38.794850008562207" lon="-0.302029978483915">
        <ele>623.35546875</ele>
        <time>2017-12-23T20:14:23Z</time>
      </trkpt>
      <trkpt lat="38.794859983026981" lon="-0.302400039508939">
        <ele>625.74609375</ele>
        <time>2017-12-23T20:16:23Z</time>
      </trkpt>
      <trkpt lat="38.794859983026981" lon="-0.302459970116615">
        <ele>626.00390625</ele>
        <time>2017-12-23T20:18:23Z</time>
      </trkpt>
      <trkpt lat="38.794870041310787" lon="-0.302489977329969">
        <ele>626.5078125</ele>
        <time>2017-12-23T20:20:23Z</time>
      </trkpt>
      <trkpt lat="38.794880015775561" lon="-0.302529959008098">
        <ele>627.11328125</ele>
        <time>2017-12-23T20:22:23Z</time>
      </trkpt>
      <trkpt lat="38.79489996470511" lon="-0.302610006183386">
        <ele>628.3125</ele>
        <time>2017-12-23T20:24:23Z</time>
      </trkpt>
      <trkpt lat="38.794910022988915" lon="-0.30264001339674">
        <ele>628.79296875</ele>
        <time>2017-12-23T20:26:23Z</time>
      </trkpt>
      <trkpt lat="38.794929971918464" lon="-0.302670020610094">
        <ele>629.40625</ele>
        <time>2017-12-23T20:28:23Z</time>
      </trkpt>
      <trkpt lat="38.794950004667044" lon="-0.302689969539642">
        <ele>629.828125</ele>
        <time>2017-12-23T20:30:23Z</time>
      </trkpt>
      <trkpt lat="38.795010019093752" lon="-0.302730035036802">
        <ele>630.56640625</ele>
        <time>2017-12-23T20:32:23Z</time>
      </trkpt>
      <trkpt lat="38.79505000077188" lon="-0.302749983966351">
        <ele>630.9765625</ele>
        <time>2017-12-23T20:34:23Z</time>
      </trkpt>
      <trkpt lat="38.795080007985234" lon="-0.302749983966351">
        <ele>631.265625</ele>
        <time>2017-12-23T20:36:23Z</time>
      </trkpt>
      <trkpt lat="38.795129964128137" lon="-0.302749983966351">
        <ele>631.48046875</ele>
        <time>2017-12-23T20:38:23Z</time>
      </trkpt>
      <trkpt lat="38.795240018516779" lon="-0.302719976752996">
        <ele>631.3671875</ele>
        <time>2017-12-23T20:40:23Z</time>
      </trkpt>
      <trkpt lat="38.795330040156841" lon="-0.302679995074868">
        <ele>630.796875</ele>
        <time>2017-12-23T20:42:23Z</time>
      </trkpt>
      <trkpt lat="38.795430036261678" lon="-0.302610006183386">
        <ele>630.46484375</ele>
        <time>2017-12-23T20:44:23Z</time>
      </trkpt>
      <trkpt lat="38.79550002515316" lon="-0.302559966221452">
        <ele>629.75390625</ele>
        <time>2017-12-23T20:46:23Z</time>
      </trkpt>
      <trkpt lat="38.795570014044642" lon="-0.302489977329969">
        <ele>628.65625</ele>
        <time>2017-12-23T20:48:23Z</time>
      </trkpt>
      <trkpt lat="38.795630028471351" lon="-0.302429962903261">
        <ele>627.7890625</ele>
        <time>2017-12-23T20:50:23Z</time>
      </trkpt>
      <trkpt lat="38.795700017362833" lon="-0.302359974011779">
        <ele>627.0390625</ele>
        <time>2017-12-23T20:52:23Z</time>
      </trkpt>
      <trkpt lat="38.795749973505735" lon="-0.302289985120296">
        <ele>626.390625</ele>
        <time>2017-12-23T20:54:23Z</time>
      </trkpt>
      <trkpt lat="38.795790039002895" lon="-0.302219996228814">
        <ele>625.87890625</ele>
        <time>2017-12-23T20:56:23Z</time>
      </trkpt>
      <trkpt lat="38.795819962397218" lon="-0.302150007337332">
        <ele>626.546875</ele>
        <time>2017-12-23T20:58:23Z</time>
      </trkpt>
      <trkpt lat="38.795860027894378" lon="-0.302089992910624">
        <ele>626.62109375</ele>
        <time>2017-12-23T21:00:23Z</time>
      </trkpt>
      <trkpt lat="38.795890035107732" lon="-0.302050011232495">
        <ele>626.23046875</ele>
        <time>2017-12-23T21:02:23Z</time>
      </trkpt>
      <trkpt lat="38.795919958502054" lon="-0.301999971270561">
        <ele>627.6484375</ele>
        <time>2017-12-23T21:04:23Z</time>
      </trkpt>
      <trkpt lat="38.795979972928762" lon="-0.301959989592433">
        <ele>628.109375</ele>
        <time>2017-12-23T21:06:23Z</time>
      </trkpt>
      <trkpt lat="38.796030012890697" lon="-0.301950015127659">
        <ele>627.02734375</ele>
        <time>2017-12-23T21:08:23Z</time>
      </trkpt>
      <trkpt lat="38.796090027317405" lon="-0.301929982379079">
        <ele>625.9765625</ele>
        <time>2017-12-23T21:10:23Z</time>
      </trkpt>
      <trkpt lat="38.796139983460307" lon="-0.301940040662885">
        <ele>624.52734375</ele>
        <time>2017-12-23T21:12:23Z</time>
      </trkpt>
      <trkpt lat="38.796209972351789" lon="-0.301950015127659">
        <ele>623.92578125</ele>
        <time>2017-12-23T21:14:23Z</time>
      </trkpt>
      <trkpt lat="38.796290019527078" lon="-0.301989996805787">
        <ele>623.36328125</ele>
        <time>2017-12-23T21:16:23Z</time>
      </trkpt>
      <trkpt lat="38.796350033953786" lon="-0.302010029554367">
        <ele>622.92578125</ele>
        <time>2017-12-23T21:18:23Z</time>
      </trkpt>
      <trkpt lat="38.796420022845268" lon="-0.302059985697269">
        <ele>620.96484375</ele>
        <time>2017-12-23T21:20:23Z</time>
      </trkpt>
      <trkpt lat="38.796469978988171" lon="-0.302099967375398">
        <ele>619.75</ele>
        <time>2017-12-23T21:22:23Z</time>
      </trkpt>
      <trkpt lat="38.796550026163459" lon="-0.302159981802106">
        <ele>619.28125</ele>
        <time>2017-12-23T21:24:23Z</time>
      </trkpt>
      <trkpt lat="38.796650022268295" lon="-0.302229970693588">
        <ele>619.36328125</ele>
        <time>2017-12-23T21:26:23Z</time>
      </trkpt>
      <trkpt lat="38.796739960089326" lon="-0.302259977906942">
        <ele>619.51171875</ele>
        <time>2017-12-23T21:28:23Z</time>
      </trkpt>
      <trkpt lat="38.796799974516034" lon="-0.302280010655522">
        <ele>618.7265625</ele>
        <time>2017-12-23T21:30:23Z</time>
      </trkpt>
      <trkpt lat="38.796869963407516" lon="-0.302289985120296">
        <ele>618.0703125</ele>
        <time>2017-12-23T21:32:23Z</time>
      </trkpt>
      <trkpt lat="38.797010025009513" lon="-0.302310017868876">
        <ele>617.20703125</ele>
        <time>2017-12-23T21:34:23Z</time>
      </trkpt>
      <trkpt lat="38.797099962830544" lon="-0.302340025082231">
        <ele>615.328125</ele>
        <time>2017-12-23T21:36:23Z</time>
      </trkpt>
      <trkpt lat="38.797180010005832" lon="-0.302370032295585">
        <ele>616.61328125</ele>
        <time>2017-12-23T21:38:23Z</time>
      </trkpt>
      <trkpt lat="38.79721999168396" lon="-0.302389981225133">
        <ele>617.3828125</ele>
        <time>2017-12-23T21:40:23Z</time>
      </trkpt>
      <trkpt lat="38.797310013324022" lon="-0.302400039508939">
        <ele>619.95703125</ele>
        <time>2017-12-23T21:42:23Z</time>
      </trkpt>
      <trkpt lat="38.797359969466925" lon="-0.302400039508939">
        <ele>619.8515625</ele>
        <time>2017-12-23T21:44:23Z</time>
      </trkpt>
      <trkpt lat="38.797419983893633" lon="-0.302380006760359">
        <ele>619.73828125</ele>
        <time>2017-12-23T21:46:23Z</time>
      </trkpt>
      <trkpt lat="38.797530038282275" lon="-0.302329966798425">
        <ele>619.078125</ele>
        <time>2017-12-23T21:48:23Z</time>
      </trkpt>
      <trkpt lat="38.797630034387112" lon="-0.302280010655522">
        <ele>618.92578125</ele>
        <time>2017-12-23T21:50:23Z</time>
      </trkpt>
      <trkpt lat="38.797730030491948" lon="-0.302219996228814">
        <ele>618.95703125</ele>
        <time>2017-12-23T21:52:23Z</time>
      </trkpt>
      <trkpt lat="38.79780001938343" lon="-0.302170040085912">
        <ele>619.47265625</ele>
        <time>2017-12-23T21:54:23Z</time>
      </trkpt>
      <trkpt lat="38.797870008274913" lon="-0.302110025659204">
        <ele>620.07421875</ele>
        <time>2017-12-23T21:56:23Z</time>
      </trkpt>
      <trkpt lat="38.797919964417815" lon="-0.302059985697269">
        <ele>620.0234375</ele>
        <time>2017-12-23T21:58:23Z</time>
      </trkpt>
      <trkpt lat="38.797960029914975" lon="-0.301980022341013">
        <ele>619.8984375</ele>
        <time>2017-12-23T22:00:23Z</time>
      </trkpt>
      <trkpt lat="38.798000011593103" lon="-0.301869967952371">
        <ele>618.87890625</ele>
        <time>2017-12-23T22:02:23Z</time>
      </trkpt>
      <trkpt lat="38.798030018806458" lon="-0.30175999738276">
        <ele>617.14453125</ele>
        <time>2017-12-23T22:04:23Z</time>
      </trkpt>
      <trkpt lat="38.798109982162714" lon="-0.301379961892962">
        <ele>620.75390625</ele>
        <time>2017-12-23T22:06:23Z</time>
      </trkpt>
      <trkpt lat="38.798239985480905" lon="-0.300640007480979">
        <ele>621.4140625</ele>
        <time>2017-12-23T22:08:23Z</time>
      </trkpt>
      <trkpt lat="38.798309974372387" lon="-0.300270030274987">
        <ele>618.265625</ele>
        <time>2017-12-23T22:10:23Z</time>
      </trkpt>
      <trkpt lat="38.798379963263869" lon="-0.299880020320415">
        <ele>620.2265625</ele>
        <time>2017-12-23T22:12:23Z</time>
      </trkpt>
      <trkpt lat="38.798399996012449" lon="-0.299729984253645">
        <ele>619.86328125</ele>
        <time>2017-12-23T22:14:23Z</time>
      </trkpt>
      <trkpt lat="38.798420028761029" lon="-0.299599980935454">
        <ele>618.34765625</ele>
        <time>2017-12-23T22:16:23Z</time>
      </trkpt>
      <trkpt lat="38.798450035974383" lon="-0.299320025369525">
        <ele>617.71484375</ele>
        <time>2017-12-23T22:18:23Z</time>
      </trkpt>
      <trkpt lat="38.798460010439157" lon="-0.299279959872365">
        <ele>617.359375</ele>
        <time>2017-12-23T22:20:23Z</time>
      </trkpt>
      <trkpt lat="38.798469984903932" lon="-0.299209970980883">
        <ele>616.90625</ele>
        <time>2017-12-23T22:22:23Z</time>
      </trkpt>
      <trkpt lat="38.798469984903932" lon="-0.2991399820894">
        <ele>616.52734375</ele>
        <time>2017-12-23T22:24:23Z</time>
      </trkpt>
      <trkpt lat="38.798479959368706" lon="-0.299079967662692">
        <ele>615.671875</ele>
        <time>2017-12-23T22:26:23Z</time>
      </trkpt>
      <trkpt lat="38.798479959368706" lon="-0.299060018733144">
        <ele>615.48046875</ele>
        <time>2017-12-23T22:28:23Z</time>
      </trkpt>
      <trkpt lat="38.798479959368706" lon="-0.298930015414953">
        <ele>615.16015625</ele>
        <time>2017-12-23T22:30:23Z</time>
      </trkpt>
      <trkpt lat="38.798479959368706" lon="-0.298779979348183">
        <ele>617.30859375</ele>
        <time>2017-12-23T22:32:23Z</time>
      </trkpt>
      <trkpt lat="38.798479959368706" lon="-0.298660034313798">
        <ele>618.2265625</ele>
        <time>2017-12-23T22:34:23Z</time>
      </trkpt>
      <trkpt lat="38.798490017652512" lon="-0.298560038208961">
        <ele>617.51171875</ele>
        <time>2017-12-23T22:36:23Z</time>
      </trkpt>
      <trkpt lat="38.798499992117286" lon="-0.298389969393611">
        <ele>616.9296875</ele>
        <time>2017-12-23T22:38:23Z</time>
      </trkpt>
      <trkpt lat="38.798520024865866" lon="-0.298240017145872">
        <ele>615.96484375</ele>
        <time>2017-12-23T22:40:23Z</time>
      </trkpt>
      <trkpt lat="38.798539973795414" lon="-0.298080006614327">
        <ele>616.328125</ele>
        <time>2017-12-23T22:42:23Z</time>
      </trkpt>
      <trkpt lat="38.798580039292574" lon="-0.297729978337884">
        <ele>613.7734375</ele>
        <time>2017-12-23T22:44:23Z</time>
      </trkpt>
      <trkpt lat="38.798599988222122" lon="-0.297669963911176">
        <ele>612.67578125</ele>
        <time>2017-12-23T22:46:23Z</time>
      </trkpt>
      <trkpt lat="38.79863996990025" lon="-0.297459997236729">
        <ele>614.1953125</ele>
        <time>2017-12-23T22:48:23Z</time>
      </trkpt>
      <trkpt lat="38.798720017075539" lon="-0.297160008922219">
        <ele>614.54296875</ele>
        <time>2017-12-23T22:50:23Z</time>
      </trkpt>
      <trkpt lat="38.798739966005087" lon="-0.297079961746931">
        <ele>613.30859375</ele>
        <time>2017-12-23T22:52:23Z</time>
      </trkpt>
      <trkpt lat="38.798739966005087" lon="-0.297039980068803">
        <ele>613.265625</ele>
        <time>2017-12-23T22:54:23Z</time>
      </trkpt>
      <trkpt lat="38.798750024288893" lon="-0.2969900239259">
        <ele>612.4765625</ele>
        <time>2017-12-23T22:56:23Z</time>
      </trkpt>
      <trkpt lat="38.798750024288893" lon="-0.296920035034418">
        <ele>611.984375</ele>
        <time>2017-12-23T22:58:23Z</time>
      </trkpt>
      <trkpt lat="38.798750024288893" lon="-0.296879969537258">
        <ele>611.56640625</ele>
        <time>2017-12-23T23:00:23Z</time>
      </trkpt>
      <trkpt lat="38.798750024288893" lon="-0.296820038929582">
        <ele>611.10546875</ele>
        <time>2017-12-23T23:02:23Z</time>
      </trkpt>
      <trkpt lat="38.798739966005087" lon="-0.296769998967648">
        <ele>611.15625</ele>
        <time>2017-12-23T23:04:23Z</time>
      </trkpt>
      <trkpt lat="38.798720017075539" lon="-0.296709984540939">
        <ele>610.69140625</ele>
        <time>2017-12-23T23:06:23Z</time>
      </trkpt>
      <trkpt lat="38.798699984326959" lon="-0.296660028398037">
        <ele>609.921875</ele>
        <time>2017-12-23T23:08:23Z</time>
      </trkpt>
      <trkpt lat="38.79868003539741" lon="-0.296609988436103">
        <ele>609.03125</ele>
        <time>2017-12-23T23:10:23Z</time>
      </trkpt>
      <trkpt lat="38.798629995435476" lon="-0.296539999544621">
        <ele>609.21875</ele>
        <time>2017-12-23T23:12:23Z</time>
      </trkpt>
      <trkpt lat="38.798560006543994" lon="-0.296440003439784">
        <ele>610.15625</ele>
        <time>2017-12-23T23:14:23Z</time>
      </trkpt>
      <trkpt lat="38.798420028761029" lon="-0.296259960159659">
        <ele>609.8203125</ele>
        <time>2017-12-23T23:16:23Z</time>
      </trkpt>
      <trkpt lat="38.798369988799095" lon="-0.296179996803403">
        <ele>608.796875</ele>
        <time>2017-12-23T23:18:23Z</time>
      </trkpt>
      <trkpt lat="38.798360014334321" lon="-0.296170022338629">
        <ele>608.6953125</ele>
        <time>2017-12-23T23:20:23Z</time>
      </trkpt>
      <trkpt lat="38.798330007120967" lon="-0.296130040660501">
        <ele>608.0859375</ele>
        <time>2017-12-23T23:22:23Z</time>
      </trkpt>
      <trkpt lat="38.798309974372387" lon="-0.296070026233792">
        <ele>607.33203125</ele>
        <time>2017-12-23T23:24:23Z</time>
      </trkpt>
      <trkpt lat="38.798279967159033" lon="-0.29600003734231">
        <ele>607.50390625</ele>
        <time>2017-12-23T23:26:23Z</time>
      </trkpt>
      <trkpt lat="38.798239985480905" lon="-0.295880008488894">
        <ele>608.7421875</ele>
        <time>2017-12-23T23:28:23Z</time>
      </trkpt>
      <trkpt lat="38.798200003802776" lon="-0.295719997957349">
        <ele>610.46875</ele>
        <time>2017-12-23T23:30:23Z</time>
      </trkpt>
      <trkpt lat="38.798190029338002" lon="-0.295650009065866">
        <ele>611.234375</ele>
        <time>2017-12-23T23:32:23Z</time>
      </trkpt>
      <trkpt lat="38.798179971054196" lon="-0.295589994639158">
        <ele>612.015625</ele>
        <time>2017-12-23T23:34:23Z</time>
      </trkpt>
      <trkpt lat="38.798179971054196" lon="-0.29555001296103">
        <ele>612.09375</ele>
        <time>2017-12-23T23:36:23Z</time>
      </trkpt>
      <trkpt lat="38.798179971054196" lon="-0.295499972999096">
        <ele>612.03515625</ele>
        <time>2017-12-23T23:38:23Z</time>
      </trkpt>
      <trkpt lat="38.798190029338002" lon="-0.295450016856194">
        <ele>611.61328125</ele>
        <time>2017-12-23T23:40:23Z</time>
      </trkpt>
      <trkpt lat="38.798200003802776" lon="-0.295399976894259">
        <ele>611.43359375</ele>
        <time>2017-12-23T23:42:23Z</time>
      </trkpt>
      <trkpt lat="38.798220036551356" lon="-0.295359995216131">
        <ele>611.015625</ele>
        <time>2017-12-23T23:44:23Z</time>
      </trkpt>
      <trkpt lat="38.798239985480905" lon="-0.295310039073229">
        <ele>610.8515625</ele>
        <time>2017-12-23T23:46:23Z</time>
      </trkpt>
      <trkpt lat="38.798269992694259" lon="-0.295269973576069">
        <ele>610.33984375</ele>
        <time>2017-12-23T23:48:23Z</time>
      </trkpt>
      <trkpt lat="38.798379963263869" lon="-0.29512002132833">
        <ele>609.515625</ele>
        <time>2017-12-23T23:50:23Z</time>
      </trkpt>
      <trkpt lat="38.798479959368706" lon="-0.294999992474914">
        <ele>608.5234375</ele>
        <time>2017-12-23T23:52:23Z</time>
      </trkpt>
      <trkpt lat="38.798560006543994" lon="-0.294890021905303">
        <ele>608.6953125</ele>
        <time>2017-12-23T23:54:23Z</time>
      </trkpt>
      <trkpt lat="38.79866000264883" lon="-0.294790025800467">
        <ele>607.76171875</ele>
        <time>2017-12-23T23:56:23Z</time>
      </trkpt>
      <trkpt lat="38.798739966005087" lon="-0.294709978625178">
        <ele>608.21484375</ele>
        <time>2017-12-23T23:58:23Z</time>
      </trkpt>
      <trkpt lat="38.798820013180375" lon="-0.294639989733696">
        <ele>608.45703125</ele>
        <time>2017-12-24T00:00:23Z</time>
      </trkpt>
      <trkpt lat="38.798920009285212" lon="-0.294549968093634">
        <ele>608.36328125</ele>
        <time>2017-12-24T00:02:23Z</time>
      </trkpt>
      <trkpt lat="38.799029979854822" lon="-0.294470004737377">
        <ele>608.5</ele>
        <time>2017-12-24T00:04:23Z</time>
      </trkpt>
      <trkpt lat="38.799229972064495" lon="-0.294349975883961">
        <ele>607.0546875</ele>
        <time>2017-12-24T00:06:23Z</time>
      </trkpt>
      <trkpt lat="38.799480004236102" lon="-0.294179990887642">
        <ele>606.3125</ele>
        <time>2017-12-24T00:08:23Z</time>
      </trkpt>
      <trkpt lat="38.799679996445775" lon="-0.294040013104677">
        <ele>604.0859375</ele>
        <time>2017-12-24T00:10:23Z</time>
      </trkpt>
      <trkpt lat="38.799849981442094" lon="-0.293929958716035">
        <ele>602.72265625</ele>
        <time>2017-12-24T00:12:23Z</time>
      </trkpt>
      <trkpt lat="38.800090039148927" lon="-0.293749999254942">
        <ele>601.71875</ele>
        <time>2017-12-24T00:14:23Z</time>
      </trkpt>
      <trkpt lat="38.800390027463436" lon="-0.293519999831915">
        <ele>601.1015625</ele>
        <time>2017-12-24T00:16:23Z</time>
      </trkpt>
      <trkpt lat="38.800639975816011" lon="-0.293320007622242">
        <ele>601.8984375</ele>
        <time>2017-12-24T00:18:23Z</time>
      </trkpt>
      <trkpt lat="38.800929989665747" lon="-0.293120015412569">
        <ele>603.06640625</ele>
        <time>2017-12-24T00:20:23Z</time>
      </trkpt>
      <trkpt lat="38.801250010728836" lon="-0.292899990454316">
        <ele>603.3359375</ele>
        <time>2017-12-24T00:22:23Z</time>
      </trkpt>
      <trkpt lat="38.801319999620318" lon="-0.292850034311414">
        <ele>603.9375</ele>
        <time>2017-12-24T00:24:23Z</time>
      </trkpt>
      <trkpt lat="38.801340032368898" lon="-0.292839976027608">
        <ele>604.10546875</ele>
        <time>2017-12-24T00:26:23Z</time>
      </trkpt>
      <trkpt lat="38.801389988511801" lon="-0.292809968814254">
        <ele>604.52734375</ele>
        <time>2017-12-24T00:28:23Z</time>
      </trkpt>
      <trkpt lat="38.801429970189929" lon="-0.29279999434948">
        <ele>604.49609375</ele>
        <time>2017-12-24T00:30:23Z</time>
      </trkpt>
      <trkpt lat="38.801459977403283" lon="-0.29279999434948">
        <ele>604.328125</ele>
        <time>2017-12-24T00:32:23Z</time>
      </trkpt>
      <trkpt lat="38.801510017365217" lon="-0.29279999434948">
        <ele>604.16015625</ele>
        <time>2017-12-24T00:34:23Z</time>
      </trkpt>
      <trkpt lat="38.801540024578571" lon="-0.29279999434948">
        <ele>604.0625</ele>
        <time>2017-12-24T00:36:23Z</time>
      </trkpt>
      <trkpt lat="38.801570031791925" lon="-0.29282002709806">
        <ele>603.90234375</ele>
        <time>2017-12-24T00:38:23Z</time>
      </trkpt>
      <trkpt lat="38.801610013470054" lon="-0.292839976027608">
        <ele>603.87109375</ele>
        <time>2017-12-24T00:40:23Z</time>
      </trkpt>
      <trkpt lat="38.801649995148182" lon="-0.292869983240962">
        <ele>603.69140625</ele>
        <time>2017-12-24T00:42:23Z</time>
      </trkpt>
      <trkpt lat="38.801949983462691" lon="-0.293190004304051">
        <ele>602.52734375</ele>
        <time>2017-12-24T00:44:23Z</time>
      </trkpt>
      <trkpt lat="38.802060037851334" lon="-0.293329982087016">
        <ele>602.1015625</ele>
        <time>2017-12-24T00:46:23Z</time>
      </trkpt>
      <trkpt lat="38.802100019529462" lon="-0.29338002204895">
        <ele>601.59765625</ele>
        <time>2017-12-24T00:48:23Z</time>
      </trkpt>
      <trkpt lat="38.80214000120759" lon="-0.293429978191853">
        <ele>601.40234375</ele>
        <time>2017-12-24T00:50:23Z</time>
      </trkpt>
      <trkpt lat="38.802179982885718" lon="-0.293510025367141">
        <ele>601.75</ele>
        <time>2017-12-24T00:52:23Z</time>
      </trkpt>
      <trkpt lat="38.802239997312427" lon="-0.293650003150105">
        <ele>602.69921875</ele>
        <time>2017-12-24T00:54:23Z</time>
      </trkpt>
      <trkpt lat="38.802309986203909" lon="-0.293840020895004">
        <ele>603.16796875</ele>
        <time>2017-12-24T00:56:23Z</time>
      </trkpt>
      <trkpt lat="38.802460022270679" lon="-0.294270012527704">
        <ele>604.53125</ele>
        <time>2017-12-24T00:58:23Z</time>
      </trkpt>
      <trkpt lat="38.802639981731772" lon="-0.294809974730015">
        <ele>604.56640625</ele>
        <time>2017-12-24T01:00:23Z</time>
      </trkpt>
      <trkpt lat="38.802650040015578" lon="-0.294860014691949">
        <ele>604.19140625</ele>
        <time>2017-12-24T01:02:23Z</time>
      </trkpt>
      <trkpt lat="38.802679963409901" lon="-0.294909970834851">
        <ele>604.13671875</ele>
        <time>2017-12-24T01:04:23Z</time>
      </trkpt>
      <trkpt lat="38.802709970623255" lon="-0.294960010796785">
        <ele>604.09765625</ele>
        <time>2017-12-24T01:06:23Z</time>
      </trkpt>
      <trkpt lat="38.802739977836609" lon="-0.294999992474914">
        <ele>604.30078125</ele>
        <time>2017-12-24T01:08:23Z</time>
      </trkpt>
      <trkpt lat="38.802760010585189" lon="-0.295029999688268">
        <ele>604.34765625</ele>
        <time>2017-12-24T01:10:23Z</time>
      </trkpt>
      <trkpt lat="38.802799992263317" lon="-0.295060006901622">
        <ele>604.43359375</ele>
        <time>2017-12-24T01:12:23Z</time>
      </trkpt>
      <trkpt lat="38.802839973941445" lon="-0.295080039650202">
        <ele>604.45703125</ele>
        <time>2017-12-24T01:14:23Z</time>
      </trkpt>
      <trkpt lat="38.802880039438605" lon="-0.295090014114976">
        <ele>604.39453125</ele>
        <time>2017-12-24T01:16:23Z</time>
      </trkpt>
      <trkpt lat="38.802929995581508" lon="-0.295090014114976">
        <ele>604.55859375</ele>
        <time>2017-12-24T01:18:23Z</time>
      </trkpt>
      <trkpt lat="38.802960002794862" lon="-0.295090014114976">
        <ele>604.4609375</ele>
        <time>2017-12-24T01:20:23Z</time>
      </trkpt>
      <trkpt lat="38.80299998447299" lon="-0.295069981366396">
        <ele>604.66796875</ele>
        <time>2017-12-24T01:22:23Z</time>
      </trkpt>
      <trkpt lat="38.803029991686344" lon="-0.295050032436848">
        <ele>604.796875</ele>
        <time>2017-12-24T01:24:23Z</time>
      </trkpt>
      <trkpt lat="38.803069973364472" lon="-0.295020025223494">
        <ele>604.53125</ele>
        <time>2017-12-24T01:26:23Z</time>
      </trkpt>
      <trkpt lat="38.803099980577826" lon="-0.294969985261559">
        <ele>604.6171875</ele>
        <time>2017-12-24T01:28:23Z</time>
      </trkpt>
      <trkpt lat="38.803129987791181" lon="-0.294930003583431">
        <ele>604.47265625</ele>
        <time>2017-12-24T01:30:23Z</time>
      </trkpt>
      <trkpt lat="38.803150020539761" lon="-0.294860014691949">
        <ele>604.8828125</ele>
        <time>2017-12-24T01:32:23Z</time>
      </trkpt>
      <trkpt lat="38.803169969469309" lon="-0.294779967516661">
        <ele>605.42578125</ele>
        <time>2017-12-24T01:34:23Z</time>
      </trkpt>
      <trkpt lat="38.803180027753115" lon="-0.294709978625178">
        <ele>605.98046875</ele>
        <time>2017-12-24T01:36:23Z</time>
      </trkpt>
      <trkpt lat="38.803190002217889" lon="-0.294700004160404">
        <ele>605.71875</ele>
        <time>2017-12-24T01:38:23Z</time>
      </trkpt>
      <trkpt lat="38.803199976682663" lon="-0.294570000842214">
        <ele>606.3046875</ele>
        <time>2017-12-24T01:40:23Z</time>
      </trkpt>
      <trkpt lat="38.803220009431243" lon="-0.294470004737377">
        <ele>606.4453125</ele>
        <time>2017-12-24T01:42:23Z</time>
      </trkpt>
      <trkpt lat="38.803229983896017" lon="-0.294400015845895">
        <ele>606.90234375</ele>
        <time>2017-12-24T01:44:23Z</time>
      </trkpt>
      <trkpt lat="38.803239958360791" lon="-0.294349975883961">
        <ele>607.29296875</ele>
        <time>2017-12-24T01:46:23Z</time>
      </trkpt>
      <trkpt lat="38.803259991109371" lon="-0.294309994205832">
        <ele>607.53125</ele>
        <time>2017-12-24T01:48:23Z</time>
      </trkpt>
      <trkpt lat="38.803289998322725" lon="-0.29426003806293">
        <ele>607.55859375</ele>
        <time>2017-12-24T01:50:23Z</time>
      </trkpt>
      <trkpt lat="38.803320005536079" lon="-0.294200023636222">
        <ele>608.09765625</ele>
        <time>2017-12-24T01:52:23Z</time>
      </trkpt>
      <trkpt lat="38.803350012749434" lon="-0.294179990887642">
        <ele>607.89453125</ele>
        <time>2017-12-24T01:54:23Z</time>
      </trkpt>
      <trkpt lat="38.803369961678982" lon="-0.294149983674288">
        <ele>608.359375</ele>
        <time>2017-12-24T01:56:23Z</time>
      </trkpt>
      <trkpt lat="38.803399968892336" lon="-0.294140009209514">
        <ele>608.1640625</ele>
        <time>2017-12-24T01:58:23Z</time>
      </trkpt>
      <trkpt lat="38.80342997610569" lon="-0.29413003474474">
        <ele>608.1484375</ele>
        <time>2017-12-24T02:00:23Z</time>
      </trkpt>
      <trkpt lat="38.803459983319044" lon="-0.294119976460934">
        <ele>608.11328125</ele>
        <time>2017-12-24T02:02:23Z</time>
      </trkpt>
      <trkpt lat="38.803489990532398" lon="-0.294119976460934">
        <ele>607.8046875</ele>
        <time>2017-12-24T02:04:23Z</time>
      </trkpt>
      <trkpt lat="38.803519997745752" lon="-0.29413003474474">
        <ele>607.60546875</ele>
        <time>2017-12-24T02:06:23Z</time>
      </trkpt>
      <trkpt lat="38.803550004959106" lon="-0.294140009209514">
        <ele>607.41015625</ele>
        <time>2017-12-24T02:08:23Z</time>
      </trkpt>
      <trkpt lat="38.803589986637235" lon="-0.294170016422868">
        <ele>606.75390625</ele>
        <time>2017-12-24T02:10:23Z</time>
      </trkpt>
      <trkpt lat="38.803629968315363" lon="-0.294200023636222">
        <ele>606.8046875</ele>
        <time>2017-12-24T02:12:23Z</time>
      </trkpt>
      <trkpt lat="38.803749997168779" lon="-0.294349975883961">
        <ele>606.42578125</ele>
        <time>2017-12-24T02:14:23Z</time>
      </trkpt>
      <trkpt lat="38.803819986060262" lon="-0.294439997524023">
        <ele>605.05859375</ele>
        <time>2017-12-24T02:16:23Z</time>
      </trkpt>
      <trkpt lat="38.803840018808842" lon="-0.294479979202151">
        <ele>604.0625</ele>
        <time>2017-12-24T02:18:23Z</time>
      </trkpt>
      <trkpt lat="38.803889974951744" lon="-0.29451996088028">
        <ele>604.48046875</ele>
        <time>2017-12-24T02:20:23Z</time>
      </trkpt>
      <trkpt lat="38.803930040448904" lon="-0.294560026377439">
        <ele>604.83984375</ele>
        <time>2017-12-24T02:22:23Z</time>
      </trkpt>
      <trkpt lat="38.803970022127032" lon="-0.294590033590794">
        <ele>605.25</ele>
        <time>2017-12-24T02:24:23Z</time>
      </trkpt>
      <trkpt lat="38.804030036553741" lon="-0.294620040804148">
        <ele>606.02734375</ele>
        <time>2017-12-24T02:26:23Z</time>
      </trkpt>
      <trkpt lat="38.804079992696643" lon="-0.294639989733696">
        <ele>606.00390625</ele>
        <time>2017-12-24T02:28:23Z</time>
      </trkpt>
      <trkpt lat="38.804140007123351" lon="-0.29464996419847">
        <ele>606.10546875</ele>
        <time>2017-12-24T02:30:23Z</time>
      </trkpt>
      <trkpt lat="38.804200021550059" lon="-0.29464996419847">
        <ele>606.10546875</ele>
        <time>2017-12-24T02:32:23Z</time>
      </trkpt>
      <trkpt lat="38.804270010441542" lon="-0.294639989733696">
        <ele>605.67578125</ele>
        <time>2017-12-24T02:34:23Z</time>
      </trkpt>
      <trkpt lat="38.804349973797798" lon="-0.294620040804148">
        <ele>605.2734375</ele>
        <time>2017-12-24T02:36:23Z</time>
      </trkpt>
      <trkpt lat="38.80443999543786" lon="-0.294600008055568">
        <ele>605.03515625</ele>
        <time>2017-12-24T02:38:23Z</time>
      </trkpt>
      <trkpt lat="38.804509984329343" lon="-0.294579975306988">
        <ele>605.2421875</ele>
        <time>2017-12-24T02:40:23Z</time>
      </trkpt>
      <trkpt lat="38.804579973220825" lon="-0.294570000842214">
        <ele>605.60546875</ele>
        <time>2017-12-24T02:42:23Z</time>
      </trkpt>
      <trkpt lat="38.804630013182759" lon="-0.294570000842214">
        <ele>605.359375</ele>
        <time>2017-12-24T02:44:23Z</time>
      </trkpt>
      <trkpt lat="38.804679969325662" lon="-0.294579975306988">
        <ele>604.640625</ele>
        <time>2017-12-24T02:46:23Z</time>
      </trkpt>
      <trkpt lat="38.804709976539016" lon="-0.294600008055568">
        <ele>603.87109375</ele>
        <time>2017-12-24T02:48:23Z</time>
      </trkpt>
      <trkpt lat="38.80473998375237" lon="-0.294630015268922">
        <ele>602.9140625</ele>
        <time>2017-12-24T02:50:23Z</time>
      </trkpt>
      <trkpt lat="38.80476001650095" lon="-0.294660022482276">
        <ele>602.16015625</ele>
        <time>2017-12-24T02:52:23Z</time>
      </trkpt>
      <trkpt lat="38.804790023714304" lon="-0.294700004160404">
        <ele>601.69140625</ele>
        <time>2017-12-24T02:54:23Z</time>
      </trkpt>
      <trkpt lat="38.804809972643852" lon="-0.294749960303307">
        <ele>601.38671875</ele>
        <time>2017-12-24T02:56:23Z</time>
      </trkpt>
      <trkpt lat="38.804820030927658" lon="-0.294820033013821">
        <ele>600.17578125</ele>
        <time>2017-12-24T02:58:23Z</time>
      </trkpt>
      <trkpt lat="38.804850038141012" lon="-0.294999992474914">
        <ele>597.87890625</ele>
        <time>2017-12-24T03:00:23Z</time>
      </trkpt>
      <trkpt lat="38.804879961535335" lon="-0.29509998857975">
        <ele>597.86328125</ele>
        <time>2017-12-24T03:02:23Z</time>
      </trkpt>
      <trkpt lat="38.804899994283915" lon="-0.295139970257878">
        <ele>597.9609375</ele>
        <time>2017-12-24T03:04:23Z</time>
      </trkpt>
      <trkpt lat="38.804909968748689" lon="-0.295169977471232">
        <ele>597.80859375</ele>
        <time>2017-12-24T03:06:23Z</time>
      </trkpt>
      <trkpt lat="38.804930001497269" lon="-0.295209959149361">
        <ele>597.74609375</ele>
        <time>2017-12-24T03:08:23Z</time>
      </trkpt>
      <trkpt lat="38.804960008710623" lon="-0.295250024646521">
        <ele>597.90234375</ele>
        <time>2017-12-24T03:10:23Z</time>
      </trkpt>
      <trkpt lat="38.804999990388751" lon="-0.295290006324649">
        <ele>597.83984375</ele>
        <time>2017-12-24T03:12:23Z</time>
      </trkpt>
      <trkpt lat="38.805039972066879" lon="-0.295329988002777">
        <ele>597.55859375</ele>
        <time>2017-12-24T03:14:23Z</time>
      </trkpt>
      <trkpt lat="38.805090012028813" lon="-0.295359995216131">
        <ele>597.578125</ele>
        <time>2017-12-24T03:16:23Z</time>
      </trkpt>
      <trkpt lat="38.80516997538507" lon="-0.295410035178065">
        <ele>597.40625</ele>
        <time>2017-12-24T03:18:23Z</time>
      </trkpt>
      <trkpt lat="38.805310036987066" lon="-0.295480024069548">
        <ele>596.8359375</ele>
        <time>2017-12-24T03:20:23Z</time>
      </trkpt>
      <trkpt lat="38.805380025878549" lon="-0.295499972999096">
        <ele>596.1875</ele>
        <time>2017-12-24T03:22:23Z</time>
      </trkpt>
      <trkpt lat="38.805429982021451" lon="-0.295510031282902">
        <ele>595.87890625</ele>
        <time>2017-12-24T03:24:23Z</time>
      </trkpt>
      <trkpt lat="38.805480021983385" lon="-0.295520005747676">
        <ele>595.79296875</ele>
        <time>2017-12-24T03:26:23Z</time>
      </trkpt>
      <trkpt lat="38.805550010874867" lon="-0.295520005747676">
        <ele>596.078125</ele>
        <time>2017-12-24T03:28:23Z</time>
      </trkpt>
      <trkpt lat="38.80564003251493" lon="-0.295520005747676">
        <ele>596.19921875</ele>
        <time>2017-12-24T03:30:23Z</time>
      </trkpt>
      <trkpt lat="38.80577003583312" lon="-0.295499972999096">
        <ele>596.1171875</ele>
        <time>2017-12-24T03:32:23Z</time>
      </trkpt>
      <trkpt lat="38.805949995294213" lon="-0.295459991320968">
        <ele>595.55078125</ele>
        <time>2017-12-24T03:34:23Z</time>
      </trkpt>
      <trkpt lat="38.806000035256147" lon="-0.295450016856194">
        <ele>595.5234375</ele>
        <time>2017-12-24T03:36:23Z</time>
      </trkpt>
      <trkpt lat="38.80607002414763" lon="-0.295420009642839">
        <ele>595.65625</ele>
        <time>2017-12-24T03:38:23Z</time>
      </trkpt>
      <trkpt lat="38.806140013039112" lon="-0.295390002429485">
        <ele>595.51953125</ele>
        <time>2017-12-24T03:40:23Z</time>
      </trkpt>
      <trkpt lat="38.806309998035431" lon="-0.295290006324649">
        <ele>594.95703125</ele>
        <time>2017-12-24T03:42:23Z</time>
      </trkpt>
      <trkpt lat="38.806560030207038" lon="-0.29512002132833">
        <ele>595.109375</ele>
        <time>2017-12-24T03:44:23Z</time>
      </trkpt>
      <trkpt lat="38.806720040738583" lon="-0.295020025223494">
        <ele>595.0234375</ele>
        <time>2017-12-24T03:46:23Z</time>
      </trkpt>
      <trkpt lat="38.806939981877804" lon="-0.294879963621497">
        <ele>591.671875</ele>
        <time>2017-12-24T03:48:23Z</time>
      </trkpt>
      <trkpt lat="38.807199988514185" lon="-0.294720036908984">
        <ele>589.48828125</ele>
        <time>2017-12-24T03:50:23Z</time>
      </trkpt>
      <trkpt lat="38.807229995727539" lon="-0.294700004160404">
        <ele>589.51953125</ele>
        <time>2017-12-24T03:52:23Z</time>
      </trkpt>
      <trkpt lat="38.807260002940893" lon="-0.294679971411824">
        <ele>589.5546875</ele>
        <time>2017-12-24T03:54:23Z</time>
      </trkpt>
      <trkpt lat="38.807290010154247" lon="-0.29466999694705">
        <ele>589.5</ele>
        <time>2017-12-24T03:56:23Z</time>
      </trkpt>
      <trkpt lat="38.807320017367601" lon="-0.29466999694705">
        <ele>589.4609375</ele>
        <time>2017-12-24T03:58:23Z</time>
      </trkpt>
      <trkpt lat="38.807350024580956" lon="-0.294660022482276">
        <ele>589.61328125</ele>
        <time>2017-12-24T04:00:23Z</time>
      </trkpt>
      <trkpt lat="38.807390006259084" lon="-0.29466999694705">
        <ele>589.3984375</ele>
        <time>2017-12-24T04:02:23Z</time>
      </trkpt>
      <trkpt lat="38.807420013472438" lon="-0.29466999694705">
        <ele>589.3984375</ele>
        <time>2017-12-24T04:04:23Z</time>
      </trkpt>
      <trkpt lat="38.807450020685792" lon="-0.29469002969563">
        <ele>589</ele>
        <time>2017-12-24T04:06:23Z</time>
      </trkpt>
      <trkpt lat="38.807480027899146" lon="-0.294709978625178">
        <ele>588.69140625</ele>
        <time>2017-12-24T04:08:23Z</time>
      </trkpt>
      <trkpt lat="38.8075100351125" lon="-0.294730011373758">
        <ele>588.5</ele>
        <time>2017-12-24T04:10:23Z</time>
      </trkpt>
      <trkpt lat="38.807539958506823" lon="-0.294769993051887">
        <ele>587.90625</ele>
        <time>2017-12-24T04:12:23Z</time>
      </trkpt>
      <trkpt lat="38.807580024003983" lon="-0.294830007478595">
        <ele>587.38671875</ele>
        <time>2017-12-24T04:14:23Z</time>
      </trkpt>
      <trkpt lat="38.807620005682111" lon="-0.294920029118657">
        <ele>587.19140625</ele>
        <time>2017-12-24T04:16:23Z</time>
      </trkpt>
      <trkpt lat="38.807659987360239" lon="-0.294990018010139">
        <ele>587.0234375</ele>
        <time>2017-12-24T04:18:23Z</time>
      </trkpt>
      <trkpt lat="38.807689994573593" lon="-0.295050032436848">
        <ele>586.91015625</ele>
        <time>2017-12-24T04:20:23Z</time>
      </trkpt>
      <trkpt lat="38.807710027322173" lon="-0.295080039650202">
        <ele>586.98046875</ele>
        <time>2017-12-24T04:22:23Z</time>
      </trkpt>
      <trkpt lat="38.807729976251721" lon="-0.295109963044524">
        <ele>587.0078125</ele>
        <time>2017-12-24T04:24:23Z</time>
      </trkpt>
      <trkpt lat="38.807759983465075" lon="-0.295129995793104">
        <ele>587.37109375</ele>
        <time>2017-12-24T04:26:23Z</time>
      </trkpt>
      <trkpt lat="38.80778999067843" lon="-0.295150028541684">
        <ele>587.59765625</ele>
        <time>2017-12-24T04:28:23Z</time>
      </trkpt>
      <trkpt lat="38.807829972356558" lon="-0.295169977471232">
        <ele>587.9921875</ele>
        <time>2017-12-24T04:30:23Z</time>
      </trkpt>
      <trkpt lat="38.807880012318492" lon="-0.295169977471232">
        <ele>588.6953125</ele>
        <time>2017-12-24T04:32:23Z</time>
      </trkpt>
      <trkpt lat="38.8079400267452" lon="-0.295169977471232">
        <ele>589.2734375</ele>
        <time>2017-12-24T04:34:23Z</time>
      </trkpt>
      <trkpt lat="38.807989982888103" lon="-0.295160003006458">
        <ele>589.1640625</ele>
        <time>2017-12-24T04:36:23Z</time>
      </trkpt>
      <trkpt lat="38.808049997314811" lon="-0.295129995793104">
        <ele>589.04296875</ele>
        <time>2017-12-24T04:38:23Z</time>
      </trkpt>
      <trkpt lat="38.808129960671067" lon="-0.295080039650202">
        <ele>588.83984375</ele>
        <time>2017-12-24T04:40:23Z</time>
      </trkpt>
      <trkpt lat="38.8083700183779" lon="-0.294939978048205">
        <ele>587.51171875</ele>
        <time>2017-12-24T04:42:23Z</time>
      </trkpt>
      <trkpt lat="38.808600017800927" lon="-0.294809974730015">
        <ele>586.296875</ele>
        <time>2017-12-24T04:44:23Z</time>
      </trkpt>
      <trkpt lat="38.808849966153502" lon="-0.29466999694705">
        <ele>585.20703125</ele>
        <time>2017-12-24T04:46:23Z</time>
      </trkpt>
      <trkpt lat="38.809049958363175" lon="-0.294560026377439">
        <ele>584.421875</ele>
        <time>2017-12-24T04:48:23Z</time>
      </trkpt>
      <trkpt lat="38.8092300016433" lon="-0.294449971988797">
        <ele>583.94921875</ele>
        <time>2017-12-24T04:50:23Z</time>
      </trkpt>
      <trkpt lat="38.809539964422584" lon="-0.294230030849576">
        <ele>582.2734375</ele>
        <time>2017-12-24T04:52:23Z</time>
      </trkpt>
      <trkpt lat="38.809599978849292" lon="-0.294189965352416">
        <ele>582.1171875</ele>
        <time>2017-12-24T04:54:23Z</time>
      </trkpt>
      <trkpt lat="38.809810029342771" lon="-0.294040013104677">
        <ele>581.65234375</ele>
        <time>2017-12-24T04:56:23Z</time>
      </trkpt>
      <trkpt lat="38.809919999912381" lon="-0.293959965929389">
        <ele>580.85546875</ele>
        <time>2017-12-24T04:58:23Z</time>
      </trkpt>
      <trkpt lat="38.810149999335408" lon="-0.293800039216876">
        <ele>579.44140625</ele>
        <time>2017-12-24T05:00:23Z</time>
      </trkpt>
      <trkpt lat="38.810270028188825" lon="-0.293710017576814">
        <ele>579.13671875</ele>
        <time>2017-12-24T05:02:23Z</time>
      </trkpt>
      <trkpt lat="38.810300035402179" lon="-0.293689984828234">
        <ele>579.0625</ele>
        <time>2017-12-24T05:04:23Z</time>
      </trkpt>
      <trkpt lat="38.810340017080307" lon="-0.293650003150105">
        <ele>579.02734375</ele>
        <time>2017-12-24T05:06:23Z</time>
      </trkpt>
      <trkpt lat="38.810370024293661" lon="-0.293599963188171">
        <ele>579.2265625</ele>
        <time>2017-12-24T05:08:23Z</time>
      </trkpt>
      <trkpt lat="38.810410005971789" lon="-0.293540032580495">
        <ele>579.06640625</ele>
        <time>2017-12-24T05:10:23Z</time>
      </trkpt>
      <trkpt lat="38.810440013185143" lon="-0.293489992618561">
        <ele>578.8203125</ele>
        <time>2017-12-24T05:12:23Z</time>
      </trkpt>
      <trkpt lat="38.810449987649918" lon="-0.293440036475658">
        <ele>578.98046875</ele>
        <time>2017-12-24T05:14:23Z</time>
      </trkpt>
      <trkpt lat="38.810470020398498" lon="-0.29338002204895">
        <ele>578.96484375</ele>
        <time>2017-12-24T05:16:23Z</time>
      </trkpt>
      <trkpt lat="38.810479994863272" lon="-0.293310033157468">
        <ele>579.06640625</ele>
        <time>2017-12-24T05:18:23Z</time>
      </trkpt>
      <trkpt lat="38.810489969328046" lon="-0.29325001873076">
        <ele>578.7734375</ele>
        <time>2017-12-24T05:20:23Z</time>
      </trkpt>
      <trkpt lat="38.810500027611852" lon="-0.293169971555471">
        <ele>578.52734375</ele>
        <time>2017-12-24T05:22:23Z</time>
      </trkpt>
      <trkpt lat="38.810510002076626" lon="-0.293120015412569">
        <ele>578.4140625</ele>
        <time>2017-12-24T05:24:23Z</time>
      </trkpt>
      <trkpt lat="38.810530034825206" lon="-0.293020019307733">
        <ele>578.3828125</ele>
        <time>2017-12-24T05:26:23Z</time>
      </trkpt>
      <trkpt lat="38.81054000928998" lon="-0.292980037629604">
        <ele>578.296875</ele>
        <time>2017-12-24T05:28:23Z</time>
      </trkpt>
      <trkpt lat="38.810559958219528" lon="-0.292939972132444">
        <ele>578.0859375</ele>
        <time>2017-12-24T05:30:23Z</time>
      </trkpt>
      <trkpt lat="38.810579990968108" lon="-0.292899990454316">
        <ele>577.8046875</ele>
        <time>2017-12-24T05:32:23Z</time>
      </trkpt>
      <trkpt lat="38.810619972646236" lon="-0.292860008776188">
        <ele>576.91796875</ele>
        <time>2017-12-24T05:34:23Z</time>
      </trkpt>
      <trkpt lat="38.810649979859591" lon="-0.292830001562834">
        <ele>576.48046875</ele>
        <time>2017-12-24T05:36:23Z</time>
      </trkpt>
      <trkpt lat="38.810689961537719" lon="-0.292809968814254">
        <ele>575.8125</ele>
        <time>2017-12-24T05:38:23Z</time>
      </trkpt>
      <trkpt lat="38.810760034248233" lon="-0.292769987136126">
        <ele>574.67578125</ele>
        <time>2017-12-24T05:40:23Z</time>
      </trkpt>
      <trkpt lat="38.811009982600808" lon="-0.292669991031289">
        <ele>573.3203125</ele>
        <time>2017-12-24T05:42:23Z</time>
      </trkpt>
      <trkpt lat="38.811209974810481" lon="-0.292600002139807">
        <ele>572.13671875</ele>
        <time>2017-12-24T05:44:23Z</time>
      </trkpt>
      <trkpt lat="38.811490014195442" lon="-0.292490031570196">
        <ele>570.70703125</ele>
        <time>2017-12-24T05:46:23Z</time>
      </trkpt>
      <trkpt lat="38.81182998418808" lon="-0.29237000271678">
        <ele>569.57421875</ele>
        <time>2017-12-24T05:48:23Z</time>
      </trkpt>
      <trkpt lat="38.811869965866208" lon="-0.2923499699682">
        <ele>569.47265625</ele>
        <time>2017-12-24T05:50:23Z</time>
      </trkpt>
      <trkpt lat="38.811910031363368" lon="-0.292330021038651">
        <ele>569.3203125</ele>
        <time>2017-12-24T05:52:23Z</time>
      </trkpt>
      <trkpt lat="38.81195998750627" lon="-0.292290039360523">
        <ele>569.3359375</ele>
        <time>2017-12-24T05:54:23Z</time>
      </trkpt>
      <trkpt lat="38.811999969184399" lon="-0.292239999398589">
        <ele>569.32421875</ele>
        <time>2017-12-24T05:56:23Z</time>
      </trkpt>
      <trkpt lat="38.812029976397753" lon="-0.292200017720461">
        <ele>569.2578125</ele>
        <time>2017-12-24T05:58:23Z</time>
      </trkpt>
      <trkpt lat="38.812050009146333" lon="-0.292149977758527">
        <ele>569.19140625</ele>
        <time>2017-12-24T06:00:23Z</time>
      </trkpt>
      <trkpt lat="38.812110023573041" lon="-0.292019974440336">
        <ele>569.1875</ele>
        <time>2017-12-24T06:02:23Z</time>
      </trkpt>
      <trkpt lat="38.812189986929297" lon="-0.291800033301115">
        <ele>568.37890625</ele>
        <time>2017-12-24T06:04:23Z</time>
      </trkpt>
      <trkpt lat="38.812210019677877" lon="-0.291740018874407">
        <ele>568.1171875</ele>
        <time>2017-12-24T06:06:23Z</time>
      </trkpt>
      <trkpt lat="38.812250001356006" lon="-0.29164002276957">
        <ele>567.46875</ele>
        <time>2017-12-24T06:08:23Z</time>
      </trkpt>
      <trkpt lat="38.812589971348643" lon="-0.290799988433719">
        <ele>561.859375</ele>
        <time>2017-12-24T06:10:23Z</time>
      </trkpt>
      <trkpt lat="38.812630036845803" lon="-0.290669985115528">
        <ele>561.16015625</ele>
        <time>2017-12-24T06:12:23Z</time>
      </trkpt>
      <trkpt lat="38.812659960240126" lon="-0.290590021759272">
        <ele>561.03125</ele>
        <time>2017-12-24T06:14:23Z</time>
      </trkpt>
      <trkpt lat="38.812679992988706" lon="-0.290520032867789">
        <ele>560.46484375</ele>
        <time>2017-12-24T06:16:23Z</time>
      </trkpt>
      <trkpt lat="38.812700025737286" lon="-0.290439985692501">
        <ele>559.71484375</ele>
        <time>2017-12-24T06:18:23Z</time>
      </trkpt>
      <trkpt lat="38.812719974666834" lon="-0.290339989587665">
        <ele>559.06640625</ele>
        <time>2017-12-24T06:20:23Z</time>
      </trkpt>
      <trkpt lat="38.812740007415414" lon="-0.290230019018054">
        <ele>558.6953125</ele>
        <time>2017-12-24T06:22:23Z</time>
      </trkpt>
      <trkpt lat="38.812749981880188" lon="-0.290070008486509">
        <ele>557.8203125</ele>
        <time>2017-12-24T06:24:23Z</time>
      </trkpt>
      <trkpt lat="38.812770014628768" lon="-0.289810001850128">
        <ele>557.23046875</ele>
        <time>2017-12-24T06:26:23Z</time>
      </trkpt>
      <trkpt lat="38.812789963558316" lon="-0.289640016853809">
        <ele>556.35546875</ele>
        <time>2017-12-24T06:28:23Z</time>
      </trkpt>
      <trkpt lat="38.812800021842122" lon="-0.289489980787039">
        <ele>556.578125</ele>
        <time>2017-12-24T06:30:23Z</time>
      </trkpt>
      <trkpt lat="38.812809996306896" lon="-0.289429966360331">
        <ele>556.25</ele>
        <time>2017-12-24T06:32:23Z</time>
      </trkpt>
      <trkpt lat="38.812809996306896" lon="-0.289359977468848">
        <ele>555.5625</ele>
        <time>2017-12-24T06:34:23Z</time>
      </trkpt>
      <trkpt lat="38.812849977985024" lon="-0.289080021902919">
        <ele>553.81640625</ele>
        <time>2017-12-24T06:36:23Z</time>
      </trkpt>
      <trkpt lat="38.812870010733604" lon="-0.28889000415802">
        <ele>552.9609375</ele>
        <time>2017-12-24T06:38:23Z</time>
      </trkpt>
      <trkpt lat="38.812889959663153" lon="-0.288760000839829">
        <ele>552.5</ele>
        <time>2017-12-24T06:40:23Z</time>
      </trkpt>
      <trkpt lat="38.812990039587021" lon="-0.287700025364757">
        <ele>554.58203125</ele>
        <time>2017-12-24T06:42:23Z</time>
      </trkpt>
      <trkpt lat="38.813030021265149" lon="-0.287380004301667">
        <ele>554.78125</ele>
        <time>2017-12-24T06:44:23Z</time>
      </trkpt>
      <trkpt lat="38.813039995729923" lon="-0.287319989874959">
        <ele>554.375</ele>
        <time>2017-12-24T06:46:23Z</time>
      </trkpt>
      <trkpt lat="38.813090035691857" lon="-0.287140030413866">
        <ele>551.109375</ele>
        <time>2017-12-24T06:48:23Z</time>
      </trkpt>
      <trkpt lat="38.81313999183476" lon="-0.286940038204193">
        <ele>549.109375</ele>
        <time>2017-12-24T06:50:23Z</time>
      </trkpt>
      <trkpt lat="38.813169999048114" lon="-0.286799976602197">
        <ele>548.6953125</ele>
        <time>2017-12-24T06:52:23Z</time>
      </trkpt>
      <trkpt lat="38.813200006261468" lon="-0.286639966070652">
        <ele>549.53125</ele>
        <time>2017-12-24T06:54:23Z</time>
      </trkpt>
      <trkpt lat="38.81329002790153" lon="-0.286299996078014">
        <ele>546.48046875</ele>
        <time>2017-12-24T06:56:23Z</time>
      </trkpt>
      <trkpt lat="38.813399998471141" lon="-0.285800015553832">
        <ele>544.19921875</ele>
        <time>2017-12-24T06:58:23Z</time>
      </trkpt>
      <trkpt lat="38.813460012897849" lon="-0.285530034452677">
        <ele>544.74609375</ele>
        <time>2017-12-24T07:00:23Z</time>
      </trkpt>
      <trkpt lat="38.813499994575977" lon="-0.285400031134486">
        <ele>544.0234375</ele>
        <time>2017-12-24T07:02:23Z</time>
      </trkpt>
      <trkpt lat="38.81356998346746" lon="-0.285240020602942">
        <ele>541.2734375</ele>
        <time>2017-12-24T07:04:23Z</time>
      </trkpt>
      <trkpt lat="38.813599990680814" lon="-0.285149998962879">
        <ele>540.22265625</ele>
        <time>2017-12-24T07:06:23Z</time>
      </trkpt>
      <trkpt lat="38.813620023429394" lon="-0.285080010071397">
        <ele>539.78125</ele>
        <time>2017-12-24T07:08:23Z</time>
      </trkpt>
      <trkpt lat="38.813629997894168" lon="-0.285019995644689">
        <ele>539.51953125</ele>
        <time>2017-12-24T07:10:23Z</time>
      </trkpt>
      <trkpt lat="38.813650030642748" lon="-0.28495998121798">
        <ele>538.9609375</ele>
        <time>2017-12-24T07:12:23Z</time>
      </trkpt>
      <trkpt lat="38.813650030642748" lon="-0.284910025075078">
        <ele>538.9296875</ele>
        <time>2017-12-24T07:14:23Z</time>
      </trkpt>
      <trkpt lat="38.813650030642748" lon="-0.284759989008307">
        <ele>538.5390625</ele>
        <time>2017-12-24T07:16:23Z</time>
      </trkpt>
      <trkpt lat="38.813650030642748" lon="-0.284699974581599">
        <ele>538.23828125</ele>
        <time>2017-12-24T07:18:23Z</time>
      </trkpt>
      <trkpt lat="38.813639972358942" lon="-0.284650018438697">
        <ele>538.125</ele>
        <time>2017-12-24T07:20:23Z</time>
      </trkpt>
      <trkpt lat="38.813629997894168" lon="-0.284590004011989">
        <ele>537.703125</ele>
        <time>2017-12-24T07:22:23Z</time>
      </trkpt>
      <trkpt lat="38.813360016793013" lon="-0.283379992470145">
        <ele>532.296875</ele>
        <time>2017-12-24T07:24:23Z</time>
      </trkpt>
      <trkpt lat="38.813300002366304" lon="-0.283119985833764">
        <ele>529.328125</ele>
        <time>2017-12-24T07:26:23Z</time>
      </trkpt>
      <trkpt lat="38.813179973512888" lon="-0.282610030844808">
        <ele>531.19921875</ele>
        <time>2017-12-24T07:28:23Z</time>
      </trkpt>
      <trkpt lat="38.81316002458334" lon="-0.282529983669519">
        <ele>531.62890625</ele>
        <time>2017-12-24T07:30:23Z</time>
      </trkpt>
      <trkpt lat="38.813079977408051" lon="-0.282190013676882">
        <ele>530.75390625</ele>
        <time>2017-12-24T07:32:23Z</time>
      </trkpt>
      <trkpt lat="38.813049970194697" lon="-0.282060010358691">
        <ele>530.93359375</ele>
        <time>2017-12-24T07:34:23Z</time>
      </trkpt>
      <trkpt lat="38.813039995729923" lon="-0.281969988718629">
        <ele>531.1328125</ele>
        <time>2017-12-24T07:36:23Z</time>
      </trkpt>
      <trkpt lat="38.813030021265149" lon="-0.281860018149018">
        <ele>531.328125</ele>
        <time>2017-12-24T07:38:23Z</time>
      </trkpt>
      <trkpt lat="38.813030021265149" lon="-0.281790029257536">
        <ele>531.296875</ele>
        <time>2017-12-24T07:40:23Z</time>
      </trkpt>
      <trkpt lat="38.813039995729923" lon="-0.281660025939345">
        <ele>529.9453125</ele>
        <time>2017-12-24T07:42:23Z</time>
      </trkpt>
      <trkpt lat="38.813079977408051" lon="-0.28137001208961">
        <ele>526.640625</ele>
        <time>2017-12-24T07:44:23Z</time>
      </trkpt>
      <trkpt lat="38.81311995908618" lon="-0.281119979918003">
        <ele>524.88671875</ele>
        <time>2017-12-24T07:46:23Z</time>
      </trkpt>
      <trkpt lat="38.813200006261468" lon="-0.280610024929047">
        <ele>524.6328125</ele>
        <time>2017-12-24T07:48:23Z</time>
      </trkpt>
      <trkpt lat="38.81324996240437" lon="-0.280259996652603">
        <ele>522.4921875</ele>
        <time>2017-12-24T07:50:23Z</time>
      </trkpt>
      <trkpt lat="38.81326999515295" lon="-0.280099986121058">
        <ele>521.03515625</ele>
        <time>2017-12-24T07:52:23Z</time>
      </trkpt>
      <trkpt lat="38.813279969617724" lon="-0.279999990016222">
        <ele>520.390625</ele>
        <time>2017-12-24T07:54:23Z</time>
      </trkpt>
      <trkpt lat="38.813279969617724" lon="-0.279899993911386">
        <ele>519.64453125</ele>
        <time>2017-12-24T07:56:23Z</time>
      </trkpt>
      <trkpt lat="38.813279969617724" lon="-0.279809972271323">
        <ele>519.0859375</ele>
        <time>2017-12-24T07:58:23Z</time>
      </trkpt>
      <trkpt lat="38.813279969617724" lon="-0.279730008915067">
        <ele>518.35546875</ele>
        <time>2017-12-24T08:00:23Z</time>
      </trkpt>
      <trkpt lat="38.81326999515295" lon="-0.279649961739779">
        <ele>519.1484375</ele>
        <time>2017-12-24T08:02:23Z</time>
      </trkpt>
      <trkpt lat="38.81324996240437" lon="-0.279579972848296">
        <ele>519.43359375</ele>
        <time>2017-12-24T08:04:23Z</time>
      </trkpt>
      <trkpt lat="38.813230013474822" lon="-0.27950000949204">
        <ele>518.8203125</ele>
        <time>2017-12-24T08:06:23Z</time>
      </trkpt>
      <trkpt lat="38.813179973512888" lon="-0.279400013387203">
        <ele>517.51953125</ele>
        <time>2017-12-24T08:08:23Z</time>
      </trkpt>
      <trkpt lat="38.81311995908618" lon="-0.279209995642304">
        <ele>516.1171875</ele>
        <time>2017-12-24T08:10:23Z</time>
      </trkpt>
      <trkpt lat="38.813049970194697" lon="-0.279010003432631">
        <ele>515.390625</ele>
        <time>2017-12-24T08:12:23Z</time>
      </trkpt>
      <trkpt lat="38.813030021265149" lon="-0.278949989005923">
        <ele>515.34375</ele>
        <time>2017-12-24T08:14:23Z</time>
      </trkpt>
      <trkpt lat="38.813009988516569" lon="-0.278870025649667">
        <ele>515.3125</ele>
        <time>2017-12-24T08:16:23Z</time>
      </trkpt>
      <trkpt lat="38.813000014051795" lon="-0.278810011222959">
        <ele>515.03125</ele>
        <time>2017-12-24T08:18:23Z</time>
      </trkpt>
      <trkpt lat="38.812990039587021" lon="-0.27874999679625">
        <ele>515.265625</ele>
        <time>2017-12-24T08:20:23Z</time>
      </trkpt>
      <trkpt lat="38.812990039587021" lon="-0.278700040653348">
        <ele>515.15234375</ele>
        <time>2017-12-24T08:22:23Z</time>
      </trkpt>
      <trkpt lat="38.813000014051795" lon="-0.27864002622664">
        <ele>514.66015625</ele>
        <time>2017-12-24T08:24:23Z</time>
      </trkpt>
      <trkpt lat="38.813009988516569" lon="-0.278589986264706">
        <ele>514.16796875</ele>
        <time>2017-12-24T08:26:23Z</time>
      </trkpt>
      <trkpt lat="38.813109984621406" lon="-0.278250016272068">
        <ele>512.078125</ele>
        <time>2017-12-24T08:28:23Z</time>
      </trkpt>
      <trkpt lat="38.813230013474822" lon="-0.277860006317496">
        <ele>510.34375</ele>
        <time>2017-12-24T08:30:23Z</time>
      </trkpt>
      <trkpt lat="38.813320035114884" lon="-0.277579966932535">
        <ele>509.9921875</ele>
        <time>2017-12-24T08:32:23Z</time>
      </trkpt>
      <trkpt lat="38.813450038433075" lon="-0.277140000835061">
        <ele>507.07421875</ele>
        <time>2017-12-24T08:34:23Z</time>
      </trkpt>
      <trkpt lat="38.813490020111203" lon="-0.27700999751687">
        <ele>505.8046875</ele>
        <time>2017-12-24T08:36:23Z</time>
      </trkpt>
      <trkpt lat="38.813560009002686" lon="-0.276810005307198">
        <ele>505.00390625</ele>
        <time>2017-12-24T08:38:23Z</time>
      </trkpt>
      <trkpt lat="38.813580041751266" lon="-0.276740016415715">
        <ele>504.828125</ele>
        <time>2017-12-24T08:40:23Z</time>
      </trkpt>
      <trkpt lat="38.813599990680814" lon="-0.276680001989007">
        <ele>504.8046875</ele>
        <time>2017-12-24T08:42:23Z</time>
      </trkpt>
      <trkpt lat="38.813639972358942" lon="-0.276610013097525">
        <ele>503.72265625</ele>
        <time>2017-12-24T08:44:23Z</time>
      </trkpt>
      <trkpt lat="38.813669979572296" lon="-0.276549998670816">
        <ele>503.1484375</ele>
        <time>2017-12-24T08:46:23Z</time>
      </trkpt>
      <trkpt lat="38.81372001953423" lon="-0.276489984244108">
        <ele>502.32421875</ele>
        <time>2017-12-24T08:48:23Z</time>
      </trkpt>
      <trkpt lat="38.813769975677133" lon="-0.276419995352626">
        <ele>501.60546875</ele>
        <time>2017-12-24T08:50:23Z</time>
      </trkpt>
      <trkpt lat="38.813799982890487" lon="-0.276389988139272">
        <ele>501.5</ele>
        <time>2017-12-24T08:52:23Z</time>
      </trkpt>
      <trkpt lat="38.813829990103841" lon="-0.276329973712564">
        <ele>501.52734375</ele>
        <time>2017-12-24T08:54:23Z</time>
      </trkpt>
      <trkpt lat="38.813850022852421" lon="-0.276269959285855">
        <ele>501.25390625</ele>
        <time>2017-12-24T08:56:23Z</time>
      </trkpt>
      <trkpt lat="38.813859997317195" lon="-0.276240035891533">
        <ele>501.046875</ele>
        <time>2017-12-24T08:58:23Z</time>
      </trkpt>
      <trkpt lat="38.813859997317195" lon="-0.276199970394373">
        <ele>500.7265625</ele>
        <time>2017-12-24T09:00:23Z</time>
      </trkpt>
      <trkpt lat="38.813859997317195" lon="-0.276140039786696">
        <ele>499.95703125</ele>
        <time>2017-12-24T09:02:23Z</time>
      </trkpt>
      <trkpt lat="38.813850022852421" lon="-0.276110032573342">
        <ele>499.5703125</ele>
        <time>2017-12-24T09:04:23Z</time>
      </trkpt>
      <trkpt lat="38.813829990103841" lon="-0.276069967076182">
        <ele>499.01953125</ele>
        <time>2017-12-24T09:06:23Z</time>
      </trkpt>
      <trkpt lat="38.813820015639067" lon="-0.276050018146634">
        <ele>498.765625</ele>
        <time>2017-12-24T09:08:23Z</time>
      </trkpt>
      <trkpt lat="38.813780033960938" lon="-0.276010036468506">
        <ele>498.47265625</ele>
        <time>2017-12-24T09:10:23Z</time>
      </trkpt>
      <trkpt lat="38.813750026747584" lon="-0.275980029255152">
        <ele>498.21875</ele>
        <time>2017-12-24T09:12:23Z</time>
      </trkpt>
      <trkpt lat="38.81372001953423" lon="-0.275959996506572">
        <ele>497.953125</ele>
        <time>2017-12-24T09:14:23Z</time>
      </trkpt>
      <trkpt lat="38.813530001789331" lon="-0.275899982079864">
        <ele>496.5625</ele>
        <time>2017-12-24T09:16:23Z</time>
      </trkpt>
      <trkpt lat="38.813420031219721" lon="-0.275860000401735">
        <ele>496.17578125</ele>
        <time>2017-12-24T09:18:23Z</time>
      </trkpt>
      <trkpt lat="38.813379965722561" lon="-0.275839967653155">
        <ele>496.1171875</ele>
        <time>2017-12-24T09:20:23Z</time>
      </trkpt>
      <trkpt lat="38.813339984044433" lon="-0.275820018723607">
        <ele>496.18359375</ele>
        <time>2017-12-24T09:22:23Z</time>
      </trkpt>
      <trkpt lat="38.813300002366304" lon="-0.275799985975027">
        <ele>496.24609375</ele>
        <time>2017-12-24T09:24:23Z</time>
      </trkpt>
      <trkpt lat="38.81326999515295" lon="-0.275769978761673">
        <ele>496.29296875</ele>
        <time>2017-12-24T09:26:23Z</time>
      </trkpt>
      <trkpt lat="38.813230013474822" lon="-0.275729997083545">
        <ele>496.54296875</ele>
        <time>2017-12-24T09:28:23Z</time>
      </trkpt>
      <trkpt lat="38.813200006261468" lon="-0.275669982656837">
        <ele>496.61328125</ele>
        <time>2017-12-24T09:30:23Z</time>
      </trkpt>
      <trkpt lat="38.813179973512888" lon="-0.275599993765354">
        <ele>495.9765625</ele>
        <time>2017-12-24T09:32:23Z</time>
      </trkpt>
      <trkpt lat="38.81316002458334" lon="-0.275520030409098">
        <ele>495.3359375</ele>
        <time>2017-12-24T09:34:23Z</time>
      </trkpt>
      <trkpt lat="38.813149966299534" lon="-0.275379968807101">
        <ele>494.79296875</ele>
        <time>2017-12-24T09:36:23Z</time>
      </trkpt>
      <trkpt lat="38.813149966299534" lon="-0.275209983810782">
        <ele>493.75</ele>
        <time>2017-12-24T09:38:23Z</time>
      </trkpt>
      <trkpt lat="38.813149966299534" lon="-0.27511996217072">
        <ele>493.09765625</ele>
        <time>2017-12-24T09:40:23Z</time>
      </trkpt>
      <trkpt lat="38.813149966299534" lon="-0.275049973279238">
        <ele>492.74609375</ele>
        <time>2017-12-24T09:42:23Z</time>
      </trkpt>
      <trkpt lat="38.813149966299534" lon="-0.27500999160111">
        <ele>492.5546875</ele>
        <time>2017-12-24T09:44:23Z</time>
      </trkpt>
      <trkpt lat="38.813130017369986" lon="-0.274970009922981">
        <ele>492.4453125</ele>
        <time>2017-12-24T09:46:23Z</time>
      </trkpt>
      <trkpt lat="38.813109984621406" lon="-0.274919969961047">
        <ele>492.17578125</ele>
        <time>2017-12-24T09:48:23Z</time>
      </trkpt>
      <trkpt lat="38.813079977408051" lon="-0.274870013818145">
        <ele>491.6796875</ele>
        <time>2017-12-24T09:50:23Z</time>
      </trkpt>
      <trkpt lat="38.813049970194697" lon="-0.274830032140017">
        <ele>491.375</ele>
        <time>2017-12-24T09:52:23Z</time>
      </trkpt>
      <trkpt lat="38.813009988516569" lon="-0.274809999391437">
        <ele>491.125</ele>
        <time>2017-12-24T09:54:23Z</time>
      </trkpt>
      <trkpt lat="38.812949974089861" lon="-0.274789966642857">
        <ele>490.4296875</ele>
        <time>2017-12-24T09:56:23Z</time>
      </trkpt>
      <trkpt lat="38.812879985198379" lon="-0.274770017713308">
        <ele>489.90234375</ele>
        <time>2017-12-24T09:58:23Z</time>
      </trkpt>
      <trkpt lat="38.81284000352025" lon="-0.274770017713308">
        <ele>489.7265625</ele>
        <time>2017-12-24T10:00:23Z</time>
      </trkpt>
      <trkpt lat="38.812749981880188" lon="-0.274749984964728">
        <ele>489.046875</ele>
        <time>2017-12-24T10:02:23Z</time>
      </trkpt>
      <trkpt lat="38.812619978561997" lon="-0.274749984964728">
        <ele>488.98828125</ele>
        <time>2017-12-24T10:04:23Z</time>
      </trkpt>
      <trkpt lat="38.812370030209422" lon="-0.274759959429502">
        <ele>489.28515625</ele>
        <time>2017-12-24T10:06:23Z</time>
      </trkpt>
      <trkpt lat="38.812319990247488" lon="-0.274749984964728">
        <ele>489.2734375</ele>
        <time>2017-12-24T10:08:23Z</time>
      </trkpt>
      <trkpt lat="38.812270034104586" lon="-0.274740010499954">
        <ele>489.2734375</ele>
        <time>2017-12-24T10:10:23Z</time>
      </trkpt>
      <trkpt lat="38.812219994142652" lon="-0.27473003603518">
        <ele>489.515625</ele>
        <time>2017-12-24T10:12:23Z</time>
      </trkpt>
      <trkpt lat="38.812140030786395" lon="-0.27468997053802">
        <ele>489.16015625</ele>
        <time>2017-12-24T10:14:23Z</time>
      </trkpt>
      <trkpt lat="38.812070041894913" lon="-0.274649988859892">
        <ele>488.80078125</ele>
        <time>2017-12-24T10:16:23Z</time>
      </trkpt>
      <trkpt lat="38.812020001932979" lon="-0.274610007181764">
        <ele>488.56640625</ele>
        <time>2017-12-24T10:18:23Z</time>
      </trkpt>
      <trkpt lat="38.811969961971045" lon="-0.274570025503635">
        <ele>487.92578125</ele>
        <time>2017-12-24T10:20:23Z</time>
      </trkpt>
      <trkpt lat="38.811920005828142" lon="-0.274519985541701">
        <ele>487.4296875</ele>
        <time>2017-12-24T10:22:23Z</time>
      </trkpt>
      <trkpt lat="38.811839958652854" lon="-0.274429963901639">
        <ele>487.39453125</ele>
        <time>2017-12-24T10:24:23Z</time>
      </trkpt>
      <trkpt lat="38.811739962548018" lon="-0.2742800116539">
        <ele>486.81640625</ele>
        <time>2017-12-24T10:26:23Z</time>
      </trkpt>
      <trkpt lat="38.811669973656535" lon="-0.274189990013838">
        <ele>485.859375</ele>
        <time>2017-12-24T10:28:23Z</time>
      </trkpt>
      <trkpt lat="38.811599984765053" lon="-0.274099968373775">
        <ele>485.23046875</ele>
        <time>2017-12-24T10:30:23Z</time>
      </trkpt>
      <trkpt lat="38.81155002862215" lon="-0.274020005017519">
        <ele>485.19921875</ele>
        <time>2017-12-24T10:32:23Z</time>
      </trkpt>
      <trkpt lat="38.81152999587357" lon="-0.273980023339391">
        <ele>484.87109375</ele>
        <time>2017-12-24T10:34:23Z</time>
      </trkpt>
      <trkpt lat="38.811520021408796" lon="-0.273940041661263">
        <ele>484.14453125</ele>
        <time>2017-12-24T10:36:23Z</time>
      </trkpt>
      <trkpt lat="38.811499988660216" lon="-0.273910034447908">
        <ele>483.8984375</ele>
        <time>2017-12-24T10:38:23Z</time>
      </trkpt>
      <trkpt lat="38.811499988660216" lon="-0.273859994485974">
        <ele>483.46875</ele>
        <time>2017-12-24T10:40:23Z</time>
      </trkpt>
      <trkpt lat="38.811499988660216" lon="-0.273799980059266">
        <ele>483.1484375</ele>
        <time>2017-12-24T10:42:23Z</time>
      </trkpt>
      <trkpt lat="38.811499988660216" lon="-0.273739965632558">
        <ele>483.30859375</ele>
        <time>2017-12-24T10:44:23Z</time>
      </trkpt>
      <trkpt lat="38.81150996312499" lon="-0.273660002276301">
        <ele>483.33203125</ele>
        <time>2017-12-24T10:46:23Z</time>
      </trkpt>
      <trkpt lat="38.81152999587357" lon="-0.273550031706691">
        <ele>483.03515625</ele>
        <time>2017-12-24T10:48:23Z</time>
      </trkpt>
      <trkpt lat="38.811560003086925" lon="-0.273409970104694">
        <ele>482.2265625</ele>
        <time>2017-12-24T10:50:23Z</time>
      </trkpt>
      <trkpt lat="38.811590010300279" lon="-0.273230010643601">
        <ele>481.04296875</ele>
        <time>2017-12-24T10:52:23Z</time>
      </trkpt>
      <trkpt lat="38.811590010300279" lon="-0.273209977895021">
        <ele>481.078125</ele>
        <time>2017-12-24T10:54:23Z</time>
      </trkpt>
      <trkpt lat="38.811609959229827" lon="-0.273139989003539">
        <ele>480.4453125</ele>
        <time>2017-12-24T10:56:23Z</time>
      </trkpt>
      <trkpt lat="38.811620017513633" lon="-0.273070000112057">
        <ele>480.41796875</ele>
        <time>2017-12-24T10:58:23Z</time>
      </trkpt>
      <trkpt lat="38.811650024726987" lon="-0.273009985685349">
        <ele>479.2265625</ele>
        <time>2017-12-24T11:00:23Z</time>
      </trkpt>
      <trkpt lat="38.811680031940341" lon="-0.272930022329092">
        <ele>478.6953125</ele>
        <time>2017-12-24T11:02:23Z</time>
      </trkpt>
      <trkpt lat="38.811729988083243" lon="-0.272830026224256">
        <ele>478.08984375</ele>
        <time>2017-12-24T11:04:23Z</time>
      </trkpt>
      <trkpt lat="38.811759995296597" lon="-0.272749979048967">
        <ele>477.73046875</ele>
        <time>2017-12-24T11:06:23Z</time>
      </trkpt>
      <trkpt lat="38.811810035258532" lon="-0.272670015692711">
        <ele>476.59765625</ele>
        <time>2017-12-24T11:08:23Z</time>
      </trkpt>
      <trkpt lat="38.811859991401434" lon="-0.272589968517423">
        <ele>476.33203125</ele>
        <time>2017-12-24T11:10:23Z</time>
      </trkpt>
      <trkpt lat="38.811899973079562" lon="-0.27254001237452">
        <ele>476.03515625</ele>
        <time>2017-12-24T11:12:23Z</time>
      </trkpt>
      <trkpt lat="38.81195998750627" lon="-0.272470023483038">
        <ele>475.12890625</ele>
        <time>2017-12-24T11:14:23Z</time>
      </trkpt>
      <trkpt lat="38.812080016359687" lon="-0.272349994629622">
        <ele>474.328125</ele>
        <time>2017-12-24T11:16:23Z</time>
      </trkpt>
      <trkpt lat="38.812119998037815" lon="-0.272300038486719">
        <ele>474.07421875</ele>
        <time>2017-12-24T11:18:23Z</time>
      </trkpt>
      <trkpt lat="38.812150005251169" lon="-0.272249998524785">
        <ele>473.96484375</ele>
        <time>2017-12-24T11:20:23Z</time>
      </trkpt>
      <trkpt lat="38.812170037999749" lon="-0.272219991311431">
        <ele>473.8359375</ele>
        <time>2017-12-24T11:22:23Z</time>
      </trkpt>
      <trkpt lat="38.812180012464523" lon="-0.272189984098077">
        <ele>474.0390625</ele>
        <time>2017-12-24T11:24:23Z</time>
      </trkpt>
      <trkpt lat="38.812189986929297" lon="-0.272180009633303">
        <ele>473.9296875</ele>
        <time>2017-12-24T11:26:23Z</time>
      </trkpt>
      <trkpt lat="38.812199961394072" lon="-0.272150002419949">
        <ele>474.1171875</ele>
        <time>2017-12-24T11:28:23Z</time>
      </trkpt>
      <trkpt lat="38.812199961394072" lon="-0.27211002074182">
        <ele>473.85546875</ele>
        <time>2017-12-24T11:30:23Z</time>
      </trkpt>
      <trkpt lat="38.812210019677877" lon="-0.272070039063692">
        <ele>473.24609375</ele>
        <time>2017-12-24T11:32:23Z</time>
      </trkpt>
      <trkpt lat="38.812199961394072" lon="-0.271999966353178">
        <ele>472.91796875</ele>
        <time>2017-12-24T11:34:23Z</time>
      </trkpt>
      <trkpt lat="38.812199961394072" lon="-0.271929977461696">
        <ele>472.20703125</ele>
        <time>2017-12-24T11:36:23Z</time>
      </trkpt>
      <trkpt lat="38.812159979715943" lon="-0.271769966930151">
        <ele>472.64453125</ele>
        <time>2017-12-24T11:38:23Z</time>
      </trkpt>
      <trkpt lat="38.812140030786395" lon="-0.27163996361196">
        <ele>471.8671875</ele>
        <time>2017-12-24T11:40:23Z</time>
      </trkpt>
      <trkpt lat="38.812129972502589" lon="-0.271599981933832">
        <ele>471.70703125</ele>
        <time>2017-12-24T11:42:23Z</time>
      </trkpt>
      <trkpt lat="38.812070041894913" lon="-0.271279960870743">
        <ele>470.6953125</ele>
        <time>2017-12-24T11:44:23Z</time>
      </trkpt>
      <trkpt lat="38.812029976397753" lon="-0.271060019731522">
        <ele>469.3671875</ele>
        <time>2017-12-24T11:46:23Z</time>
      </trkpt>
      <trkpt lat="38.811989994719625" lon="-0.270830020308495">
        <ele>468.03515625</ele>
        <time>2017-12-24T11:48:23Z</time>
      </trkpt>
      <trkpt lat="38.811989994719625" lon="-0.270739998668432">
        <ele>467.23046875</ele>
        <time>2017-12-24T11:50:23Z</time>
      </trkpt>
      <trkpt lat="38.811989994719625" lon="-0.270619969815016">
        <ele>466.6171875</ele>
        <time>2017-12-24T11:52:23Z</time>
      </trkpt>
      <trkpt lat="38.811999969184399" lon="-0.270500024780631">
        <ele>465.33984375</ele>
        <time>2017-12-24T11:54:23Z</time>
      </trkpt>
      <trkpt lat="38.812070041894913" lon="-0.270149996504188">
        <ele>459.00390625</ele>
        <time>2017-12-24T11:56:23Z</time>
      </trkpt>
      <trkpt lat="38.812110023573041" lon="-0.269999960437417">
        <ele>460.3984375</ele>
        <time>2017-12-24T11:58:23Z</time>
      </trkpt>
      <trkpt lat="38.812129972502589" lon="-0.269970037043095">
        <ele>461.0546875</ele>
        <time>2017-12-24T12:00:23Z</time>
      </trkpt>
      <trkpt lat="38.812140030786395" lon="-0.269929971545935">
        <ele>461.87890625</ele>
        <time>2017-12-24T12:02:23Z</time>
      </trkpt>
      <trkpt lat="38.812180012464523" lon="-0.269889989867806">
        <ele>462.9296875</ele>
        <time>2017-12-24T12:04:23Z</time>
      </trkpt>
      <trkpt lat="38.812210019677877" lon="-0.269859982654452">
        <ele>463.43359375</ele>
        <time>2017-12-24T12:06:23Z</time>
      </trkpt>
      <trkpt lat="38.812240026891232" lon="-0.269829975441098">
        <ele>463.9453125</ele>
        <time>2017-12-24T12:08:23Z</time>
      </trkpt>
      <trkpt lat="38.81230004131794" lon="-0.269799968227744">
        <ele>463.88671875</ele>
        <time>2017-12-24T12:10:23Z</time>
      </trkpt>
      <trkpt lat="38.812440019100904" lon="-0.269750012084842">
        <ele>462.57421875</ele>
        <time>2017-12-24T12:12:23Z</time>
      </trkpt>
      <trkpt lat="38.812559964135289" lon="-0.269699972122908">
        <ele>461.62109375</ele>
        <time>2017-12-24T12:14:23Z</time>
      </trkpt>
      <trkpt lat="38.812619978561997" lon="-0.269669964909554">
        <ele>461.0625</ele>
        <time>2017-12-24T12:16:23Z</time>
      </trkpt>
      <trkpt lat="38.812670018523932" lon="-0.269629983231425">
        <ele>460.875</ele>
        <time>2017-12-24T12:18:23Z</time>
      </trkpt>
      <trkpt lat="38.81271000020206" lon="-0.269590001553297">
        <ele>460.890625</ele>
        <time>2017-12-24T12:20:23Z</time>
      </trkpt>
      <trkpt lat="38.812749981880188" lon="-0.269550019875169">
        <ele>460.7109375</ele>
        <time>2017-12-24T12:22:23Z</time>
      </trkpt>
      <trkpt lat="38.812770014628768" lon="-0.269499979913235">
        <ele>460.7421875</ele>
        <time>2017-12-24T12:24:23Z</time>
      </trkpt>
      <trkpt lat="38.812800021842122" lon="-0.269439965486526">
        <ele>460.56640625</ele>
        <time>2017-12-24T12:26:23Z</time>
      </trkpt>
      <trkpt lat="38.812809996306896" lon="-0.269369976595044">
        <ele>460.7109375</ele>
        <time>2017-12-24T12:28:23Z</time>
      </trkpt>
      <trkpt lat="38.812830029055476" lon="-0.269280038774014">
        <ele>460.36328125</ele>
        <time>2017-12-24T12:30:23Z</time>
      </trkpt>
      <trkpt lat="38.81284000352025" lon="-0.269229998812079">
        <ele>460.14453125</ele>
        <time>2017-12-24T12:32:23Z</time>
      </trkpt>
      <trkpt lat="38.812849977985024" lon="-0.269199991598725">
        <ele>459.84375</ele>
        <time>2017-12-24T12:34:23Z</time>
      </trkpt>
      <trkpt lat="38.812870010733604" lon="-0.269150035455823">
        <ele>459.484375</ele>
        <time>2017-12-24T12:36:23Z</time>
      </trkpt>
      <trkpt lat="38.812889959663153" lon="-0.269120028242469">
        <ele>458.91796875</ele>
        <time>2017-12-24T12:38:23Z</time>
      </trkpt>
      <trkpt lat="38.812909992411733" lon="-0.269079962745309">
        <ele>458.453125</ele>
        <time>2017-12-24T12:40:23Z</time>
      </trkpt>
      <trkpt lat="38.812930025160313" lon="-0.269069988280535">
        <ele>457.8125</ele>
        <time>2017-12-24T12:42:23Z</time>
      </trkpt>
      <trkpt lat="38.812960032373667" lon="-0.269050039350986">
        <ele>457.44921875</ele>
        <time>2017-12-24T12:44:23Z</time>
      </trkpt>
      <trkpt lat="38.812979981303215" lon="-0.269039981067181">
        <ele>457.15625</ele>
        <time>2017-12-24T12:46:23Z</time>
      </trkpt>
      <trkpt lat="38.813009988516569" lon="-0.269039981067181">
        <ele>456.46484375</ele>
        <time>2017-12-24T12:48:23Z</time>
      </trkpt>
      <trkpt lat="38.813049970194697" lon="-0.269039981067181">
        <ele>456.0234375</ele>
        <time>2017-12-24T12:50:23Z</time>
      </trkpt>
      <trkpt lat="38.813079977408051" lon="-0.269050039350986">
        <ele>455.59765625</ele>
        <time>2017-12-24T12:52:23Z</time>
      </trkpt>
      <trkpt lat="38.813109984621406" lon="-0.269069988280535">
        <ele>454.95703125</ele>
        <time>2017-12-24T12:54:23Z</time>
      </trkpt>
      <trkpt lat="38.81313999183476" lon="-0.269099995493889">
        <ele>454.3046875</ele>
        <time>2017-12-24T12:56:23Z</time>
      </trkpt>
      <trkpt lat="38.813149966299534" lon="-0.269099995493889">
        <ele>454.2734375</ele>
        <time>2017-12-24T12:58:23Z</time>
      </trkpt>
      <trkpt lat="38.813300002366304" lon="-0.269239973276854">
        <ele>452.70703125</ele>
        <time>2017-12-24T13:00:23Z</time>
      </trkpt>
      <trkpt lat="38.813460012897849" lon="-0.269409958273172">
        <ele>451.01171875</ele>
        <time>2017-12-24T13:02:23Z</time>
      </trkpt>
      <trkpt lat="38.813499994575977" lon="-0.269450023770332">
        <ele>450.88671875</ele>
        <time>2017-12-24T13:04:23Z</time>
      </trkpt>
      <trkpt lat="38.813609965145588" lon="-0.269539961591363">
        <ele>450.7578125</ele>
        <time>2017-12-24T13:06:23Z</time>
      </trkpt>
      <trkpt lat="38.813650030642748" lon="-0.269590001553297">
        <ele>449.83984375</ele>
        <time>2017-12-24T13:08:23Z</time>
      </trkpt>
      <trkpt lat="38.81369998678565" lon="-0.269629983231425">
        <ele>449.35546875</ele>
        <time>2017-12-24T13:10:23Z</time>
      </trkpt>
      <trkpt lat="38.813750026747584" lon="-0.269659990444779">
        <ele>448.8984375</ele>
        <time>2017-12-24T13:12:23Z</time>
      </trkpt>
      <trkpt lat="38.813799982890487" lon="-0.269680023193359">
        <ele>448.015625</ele>
        <time>2017-12-24T13:14:23Z</time>
      </trkpt>
      <trkpt lat="38.813859997317195" lon="-0.269699972122908">
        <ele>447.23046875</ele>
        <time>2017-12-24T13:16:23Z</time>
      </trkpt>
      <trkpt lat="38.813920011743903" lon="-0.269699972122908">
        <ele>447.34765625</ele>
        <time>2017-12-24T13:18:23Z</time>
      </trkpt>
      <trkpt lat="38.813969967886806" lon="-0.269699972122908">
        <ele>447.44140625</ele>
        <time>2017-12-24T13:20:23Z</time>
      </trkpt>
      <trkpt lat="38.814029982313514" lon="-0.269689997658134">
        <ele>447.6484375</ele>
        <time>2017-12-24T13:22:23Z</time>
      </trkpt>
      <trkpt lat="38.814089996740222" lon="-0.269659990444779">
        <ele>447.1875</ele>
        <time>2017-12-24T13:24:23Z</time>
      </trkpt>
      <trkpt lat="38.814140036702156" lon="-0.269620008766651">
        <ele>447.09375</ele>
        <time>2017-12-24T13:26:23Z</time>
      </trkpt>
      <trkpt lat="38.814199967309833" lon="-0.269569968804717">
        <ele>446.91796875</ele>
        <time>2017-12-24T13:28:23Z</time>
      </trkpt>
      <trkpt lat="38.814250007271767" lon="-0.269499979913235">
        <ele>446.75</ele>
        <time>2017-12-24T13:30:23Z</time>
      </trkpt>
      <trkpt lat="38.814310021698475" lon="-0.269409958273172">
        <ele>446.05078125</ele>
        <time>2017-12-24T13:32:23Z</time>
      </trkpt>
      <trkpt lat="38.814370036125183" lon="-0.269290013238788">
        <ele>446.43359375</ele>
        <time>2017-12-24T13:34:23Z</time>
      </trkpt>
      <trkpt lat="38.81444999948144" lon="-0.269150035455823">
        <ele>447.96484375</ele>
        <time>2017-12-24T13:36:23Z</time>
      </trkpt>
      <trkpt lat="38.814570028334856" lon="-0.268920036032796">
        <ele>448.1328125</ele>
        <time>2017-12-24T13:38:23Z</time>
      </trkpt>
      <trkpt lat="38.814649991691113" lon="-0.268760025501251">
        <ele>447.32421875</ele>
        <time>2017-12-24T13:40:23Z</time>
      </trkpt>
      <trkpt lat="38.814689973369241" lon="-0.268649971112609">
        <ele>447.484375</ele>
        <time>2017-12-24T13:42:23Z</time>
      </trkpt>
      <trkpt lat="38.814730038866401" lon="-0.268560033291578">
        <ele>446.515625</ele>
        <time>2017-12-24T13:44:23Z</time>
      </trkpt>
      <trkpt lat="38.814770020544529" lon="-0.268419971689582">
        <ele>443.90234375</ele>
        <time>2017-12-24T13:46:23Z</time>
      </trkpt>
      <trkpt lat="38.814800027757883" lon="-0.268300026655197">
        <ele>443.48828125</ele>
        <time>2017-12-24T13:48:23Z</time>
      </trkpt>
      <trkpt lat="38.814830034971237" lon="-0.268219979479909">
        <ele>443.1796875</ele>
        <time>2017-12-24T13:50:23Z</time>
      </trkpt>
      <trkpt lat="38.81487999111414" lon="-0.268119983375072">
        <ele>442.31640625</ele>
        <time>2017-12-24T13:52:23Z</time>
      </trkpt>
      <trkpt lat="38.814889965578914" lon="-0.268080001696944">
        <ele>442.36328125</ele>
        <time>2017-12-24T13:54:23Z</time>
      </trkpt>
      <trkpt lat="38.814919972792268" lon="-0.26802996173501">
        <ele>441.93359375</ele>
        <time>2017-12-24T13:56:23Z</time>
      </trkpt>
      <trkpt lat="38.814960038289428" lon="-0.267980005592108">
        <ele>441.38671875</ele>
        <time>2017-12-24T13:58:23Z</time>
      </trkpt>
      <trkpt lat="38.815000019967556" lon="-0.26789995841682">
        <ele>441.10546875</ele>
        <time>2017-12-24T14:00:23Z</time>
      </trkpt>
      <trkpt lat="38.815019968897104" lon="-0.267850002273917">
        <ele>441.0703125</ele>
        <time>2017-12-24T14:02:23Z</time>
      </trkpt>
      <trkpt lat="38.815040001645684" lon="-0.267799962311983">
        <ele>440.96484375</ele>
        <time>2017-12-24T14:04:23Z</time>
      </trkpt>
      <trkpt lat="38.815049976110458" lon="-0.267759980633855">
        <ele>440.8046875</ele>
        <time>2017-12-24T14:06:23Z</time>
      </trkpt>
      <trkpt lat="38.815060034394264" lon="-0.267689991742373">
        <ele>440.54296875</ele>
        <time>2017-12-24T14:08:23Z</time>
      </trkpt>
      <trkpt lat="38.815060034394264" lon="-0.267629977315664">
        <ele>440.35546875</ele>
        <time>2017-12-24T14:10:23Z</time>
      </trkpt>
      <trkpt lat="38.815049976110458" lon="-0.267569962888956">
        <ele>440.078125</ele>
        <time>2017-12-24T14:12:23Z</time>
      </trkpt>
      <trkpt lat="38.815040001645684" lon="-0.267499973997474">
        <ele>439.60546875</ele>
        <time>2017-12-24T14:14:23Z</time>
      </trkpt>
      <trkpt lat="38.815040001645684" lon="-0.267459992319345">
        <ele>439.19140625</ele>
        <time>2017-12-24T14:16:23Z</time>
      </trkpt>
      <trkpt lat="38.815049976110458" lon="-0.267420010641217">
        <ele>438.64453125</ele>
        <time>2017-12-24T14:18:23Z</time>
      </trkpt>
      <trkpt lat="38.815049976110458" lon="-0.267390003427863">
        <ele>438.53515625</ele>
        <time>2017-12-24T14:20:23Z</time>
      </trkpt>
      <trkpt lat="38.815049976110458" lon="-0.267369970679283">
        <ele>438.46484375</ele>
        <time>2017-12-24T14:22:23Z</time>
      </trkpt>
      <trkpt lat="38.815060034394264" lon="-0.267339963465929">
        <ele>438.2421875</ele>
        <time>2017-12-24T14:24:23Z</time>
      </trkpt>
      <trkpt lat="38.815070008859038" lon="-0.267299981787801">
        <ele>438.17578125</ele>
        <time>2017-12-24T14:26:23Z</time>
      </trkpt>
      <trkpt lat="38.815090041607618" lon="-0.267269974574447">
        <ele>438.109375</ele>
        <time>2017-12-24T14:28:23Z</time>
      </trkpt>
      <trkpt lat="38.815109990537167" lon="-0.267239967361093">
        <ele>438.16796875</ele>
        <time>2017-12-24T14:30:23Z</time>
      </trkpt>
      <trkpt lat="38.815139997750521" lon="-0.267209960147738">
        <ele>438.46484375</ele>
        <time>2017-12-24T14:32:23Z</time>
      </trkpt>
      <trkpt lat="38.815179979428649" lon="-0.267180036753416">
        <ele>438.3203125</ele>
        <time>2017-12-24T14:34:23Z</time>
      </trkpt>
      <trkpt lat="38.81543998606503" lon="-0.267030000686646">
        <ele>437.19140625</ele>
        <time>2017-12-24T14:36:23Z</time>
      </trkpt>
      <trkpt lat="38.815679959952831" lon="-0.266890022903681">
        <ele>434.9140625</ele>
        <time>2017-12-24T14:38:23Z</time>
      </trkpt>
      <trkpt lat="38.815750032663345" lon="-0.266850041225553">
        <ele>434.484375</ele>
        <time>2017-12-24T14:40:23Z</time>
      </trkpt>
      <trkpt lat="38.815929992124438" lon="-0.266749961301684">
        <ele>433.90625</ele>
        <time>2017-12-24T14:42:23Z</time>
      </trkpt>
      <trkpt lat="38.815999981015921" lon="-0.266709979623556">
        <ele>433.1171875</ele>
        <time>2017-12-24T14:44:23Z</time>
      </trkpt>
      <trkpt lat="38.816029988229275" lon="-0.266679972410202">
        <ele>432.6875</ele>
        <time>2017-12-24T14:46:23Z</time>
      </trkpt>
      <trkpt lat="38.816069969907403" lon="-0.266639990732074">
        <ele>431.8984375</ele>
        <time>2017-12-24T14:48:23Z</time>
      </trkpt>
      <trkpt lat="38.816090002655983" lon="-0.266620041802526">
        <ele>431.3984375</ele>
        <time>2017-12-24T14:50:23Z</time>
      </trkpt>
      <trkpt lat="38.816110035404563" lon="-0.266590034589171">
        <ele>430.82421875</ele>
        <time>2017-12-24T14:52:23Z</time>
      </trkpt>
      <trkpt lat="38.816129984334111" lon="-0.266560027375817">
        <ele>430.3984375</ele>
        <time>2017-12-24T14:54:23Z</time>
      </trkpt>
      <trkpt lat="38.816150017082691" lon="-0.266509987413883">
        <ele>430.00390625</ele>
        <time>2017-12-24T14:56:23Z</time>
      </trkpt>
      <trkpt lat="38.816159991547465" lon="-0.266460031270981">
        <ele>429.68359375</ele>
        <time>2017-12-24T14:58:23Z</time>
      </trkpt>
      <trkpt lat="38.816169966012239" lon="-0.266400016844273">
        <ele>429.3125</ele>
        <time>2017-12-24T15:00:23Z</time>
      </trkpt>
      <trkpt lat="38.816169966012239" lon="-0.26633002795279">
        <ele>429.09375</ele>
        <time>2017-12-24T15:02:23Z</time>
      </trkpt>
      <trkpt lat="38.816169966012239" lon="-0.266219973564148">
        <ele>428.1328125</ele>
        <time>2017-12-24T15:04:23Z</time>
      </trkpt>
      <trkpt lat="38.816139958798885" lon="-0.265970025211573">
        <ele>428.109375</ele>
        <time>2017-12-24T15:06:23Z</time>
      </trkpt>
      <trkpt lat="38.816139958798885" lon="-0.265870029106736">
        <ele>428.109375</ele>
        <time>2017-12-24T15:08:23Z</time>
      </trkpt>
      <trkpt lat="38.816139958798885" lon="-0.265800040215254">
        <ele>428.16015625</ele>
        <time>2017-12-24T15:10:23Z</time>
      </trkpt>
      <trkpt lat="38.816139958798885" lon="-0.265740025788546">
        <ele>428.19140625</ele>
        <time>2017-12-24T15:12:23Z</time>
      </trkpt>
      <trkpt lat="38.816150017082691" lon="-0.265670036897063">
        <ele>427.96484375</ele>
        <time>2017-12-24T15:14:23Z</time>
      </trkpt>
      <trkpt lat="38.816159991547465" lon="-0.265610022470355">
        <ele>428.11328125</ele>
        <time>2017-12-24T15:16:23Z</time>
      </trkpt>
      <trkpt lat="38.816180024296045" lon="-0.265550008043647">
        <ele>428.05859375</ele>
        <time>2017-12-24T15:18:23Z</time>
      </trkpt>
      <trkpt lat="38.816180024296045" lon="-0.265529975295067">
        <ele>428.11328125</ele>
        <time>2017-12-24T15:20:23Z</time>
      </trkpt>
      <trkpt lat="38.816250013187528" lon="-0.265290001407266">
        <ele>426.78515625</ele>
        <time>2017-12-24T15:22:23Z</time>
      </trkpt>
      <trkpt lat="38.816459979861975" lon="-0.26459002867341">
        <ele>426.2109375</ele>
        <time>2017-12-24T15:24:23Z</time>
      </trkpt>
      <trkpt lat="38.816529968753457" lon="-0.264390036463737">
        <ele>425.22265625</ele>
        <time>2017-12-24T15:26:23Z</time>
      </trkpt>
      <trkpt lat="38.816559975966811" lon="-0.264249974861741">
        <ele>424.4453125</ele>
        <time>2017-12-24T15:28:23Z</time>
      </trkpt>
      <trkpt lat="38.816589983180165" lon="-0.264130029827356">
        <ele>423.73046875</ele>
        <time>2017-12-24T15:30:23Z</time>
      </trkpt>
      <trkpt lat="38.816610015928745" lon="-0.26398996822536">
        <ele>423.5625</ele>
        <time>2017-12-24T15:32:23Z</time>
      </trkpt>
      <trkpt lat="38.816629964858294" lon="-0.263919979333878">
        <ele>423.60546875</ele>
        <time>2017-12-24T15:34:23Z</time>
      </trkpt>
      <trkpt lat="38.816640023142099" lon="-0.263859964907169">
        <ele>424.6484375</ele>
        <time>2017-12-24T15:36:23Z</time>
      </trkpt>
      <trkpt lat="38.816710012033582" lon="-0.263619991019368">
        <ele>427.08984375</ele>
        <time>2017-12-24T15:38:23Z</time>
      </trkpt>
      <trkpt lat="38.81674999371171" lon="-0.263480013236403">
        <ele>427.1640625</ele>
        <time>2017-12-24T15:40:23Z</time>
      </trkpt>
      <trkpt lat="38.816789975389838" lon="-0.263369958847761">
        <ele>427.16796875</ele>
        <time>2017-12-24T15:42:23Z</time>
      </trkpt>
      <trkpt lat="38.816830040886998" lon="-0.263289995491505">
        <ele>427.421875</ele>
        <time>2017-12-24T15:44:23Z</time>
      </trkpt>
      <trkpt lat="38.816859964281321" lon="-0.263229981064796">
        <ele>427.55859375</ele>
        <time>2017-12-24T15:46:23Z</time>
      </trkpt>
      <trkpt lat="38.816930036991835" lon="-0.263139959424734">
        <ele>427.0859375</ele>
        <time>2017-12-24T15:48:23Z</time>
      </trkpt>
      <trkpt lat="38.816970018669963" lon="-0.263090003281832">
        <ele>427.1484375</ele>
        <time>2017-12-24T15:50:23Z</time>
      </trkpt>
      <trkpt lat="38.817010000348091" lon="-0.263050021603703">
        <ele>426.81640625</ele>
        <time>2017-12-24T15:52:23Z</time>
      </trkpt>
      <trkpt lat="38.817079989239573" lon="-0.262990007176995">
        <ele>425.99609375</ele>
        <time>2017-12-24T15:54:23Z</time>
      </trkpt>
      <trkpt lat="38.81720001809299" lon="-0.262899985536933">
        <ele>424.53515625</ele>
        <time>2017-12-24T15:56:23Z</time>
      </trkpt>
      <trkpt lat="38.817260032519698" lon="-0.262860003858805">
        <ele>424.08984375</ele>
        <time>2017-12-24T15:58:23Z</time>
      </trkpt>
      <trkpt lat="38.817319963127375" lon="-0.262829996645451">
        <ele>423.7734375</ele>
        <time>2017-12-24T16:00:23Z</time>
      </trkpt>
      <trkpt lat="38.817400010302663" lon="-0.262809963896871">
        <ele>423.34765625</ele>
        <time>2017-12-24T16:02:23Z</time>
      </trkpt>
      <trkpt lat="38.817490031942725" lon="-0.262790014967322">
        <ele>423.20703125</ele>
        <time>2017-12-24T16:04:23Z</time>
      </trkpt>
      <trkpt lat="38.817569995298982" lon="-0.262780040502548">
        <ele>423.05078125</ele>
        <time>2017-12-24T16:06:23Z</time>
      </trkpt>
      <trkpt lat="38.817750038579106" lon="-0.262750033289194">
        <ele>422.44921875</ele>
        <time>2017-12-24T16:08:23Z</time>
      </trkpt>
      <trkpt lat="38.818129990249872" lon="-0.262709967792034">
        <ele>420.4765625</ele>
        <time>2017-12-24T16:10:23Z</time>
      </trkpt>
      <trkpt lat="38.81821003742516" lon="-0.26269999332726">
        <ele>420.24609375</ele>
        <time>2017-12-24T16:12:23Z</time>
      </trkpt>
      <trkpt lat="38.818250019103289" lon="-0.262690018862486">
        <ele>420.4765625</ele>
        <time>2017-12-24T16:14:23Z</time>
      </trkpt>
      <trkpt lat="38.818280026316643" lon="-0.26267996057868">
        <ele>420.70703125</ele>
        <time>2017-12-24T16:16:23Z</time>
      </trkpt>
      <trkpt lat="38.818329982459545" lon="-0.262660011649132">
        <ele>421.03515625</ele>
        <time>2017-12-24T16:18:23Z</time>
      </trkpt>
      <trkpt lat="38.818369964137673" lon="-0.262630004435778">
        <ele>421.41796875</ele>
        <time>2017-12-24T16:20:23Z</time>
      </trkpt>
      <trkpt lat="38.818420004099607" lon="-0.262599997222424">
        <ele>421.45703125</ele>
        <time>2017-12-24T16:22:23Z</time>
      </trkpt>
      <trkpt lat="38.818529974669218" lon="-0.262509975582361">
        <ele>421.0234375</ele>
        <time>2017-12-24T16:24:23Z</time>
      </trkpt>
      <trkpt lat="38.818680010735989" lon="-0.262369997799397">
        <ele>421.59765625</ele>
        <time>2017-12-24T16:26:23Z</time>
      </trkpt>
      <trkpt lat="38.818770032376051" lon="-0.26227000169456">
        <ele>421.7890625</ele>
        <time>2017-12-24T16:28:23Z</time>
      </trkpt>
      <trkpt lat="38.819430023431778" lon="-0.261640017852187">
        <ele>423.78125</ele>
        <time>2017-12-24T16:30:23Z</time>
      </trkpt>
      <trkpt lat="38.819609982892871" lon="-0.261459974572062">
        <ele>422.93359375</ele>
        <time>2017-12-24T16:32:23Z</time>
      </trkpt>
      <trkpt lat="38.819639990106225" lon="-0.261440025642514">
        <ele>422.734375</ele>
        <time>2017-12-24T16:34:23Z</time>
      </trkpt>
      <trkpt lat="38.819760018959641" lon="-0.261340029537678">
        <ele>423.23828125</ele>
        <time>2017-12-24T16:36:23Z</time>
      </trkpt>
      <trkpt lat="38.819890022277832" lon="-0.261210026219487">
        <ele>423.15625</ele>
        <time>2017-12-24T16:38:23Z</time>
      </trkpt>
      <trkpt lat="38.820060007274151" lon="-0.261050015687943">
        <ele>423.859375</ele>
        <time>2017-12-24T16:40:23Z</time>
      </trkpt>
      <trkpt lat="38.820299981161952" lon="-0.260839965194464">
        <ele>422.7265625</ele>
        <time>2017-12-24T16:42:23Z</time>
      </trkpt>
      <trkpt lat="38.820320013910532" lon="-0.260810041800141">
        <ele>422.53125</ele>
        <time>2017-12-24T16:44:23Z</time>
      </trkpt>
      <trkpt lat="38.820350021123886" lon="-0.260780034586787">
        <ele>422.1640625</ele>
        <time>2017-12-24T16:46:23Z</time>
      </trkpt>
      <trkpt lat="38.82035999558866" lon="-0.260750027373433">
        <ele>422.03125</ele>
        <time>2017-12-24T16:48:23Z</time>
      </trkpt>
      <trkpt lat="38.82038002833724" lon="-0.260720020160079">
        <ele>421.765625</ele>
        <time>2017-12-24T16:50:23Z</time>
      </trkpt>
      <trkpt lat="38.820390002802014" lon="-0.260680038481951">
        <ele>421.63671875</ele>
        <time>2017-12-24T16:52:23Z</time>
      </trkpt>
      <trkpt lat="38.820399977266788" lon="-0.260639972984791">
        <ele>421.50390625</ele>
        <time>2017-12-24T16:54:23Z</time>
      </trkpt>
      <trkpt lat="38.820420010015368" lon="-0.260569984093308">
        <ele>421.23828125</ele>
        <time>2017-12-24T16:56:23Z</time>
      </trkpt>
      <trkpt lat="38.820420010015368" lon="-0.260520027950406">
        <ele>421.234375</ele>
        <time>2017-12-24T16:58:23Z</time>
      </trkpt>
      <trkpt lat="38.820420010015368" lon="-0.260469987988472">
        <ele>421.16796875</ele>
        <time>2017-12-24T17:00:23Z</time>
      </trkpt>
      <trkpt lat="38.820420010015368" lon="-0.260439980775118">
        <ele>421.0703125</ele>
        <time>2017-12-24T17:02:23Z</time>
      </trkpt>
      <trkpt lat="38.820399977266788" lon="-0.26037996634841">
        <ele>420.90625</ele>
        <time>2017-12-24T17:04:23Z</time>
      </trkpt>
      <trkpt lat="38.82038002833724" lon="-0.260330010205507">
        <ele>420.8125</ele>
        <time>2017-12-24T17:06:23Z</time>
      </trkpt>
      <trkpt lat="38.82035999558866" lon="-0.260309977456927">
        <ele>420.9296875</ele>
        <time>2017-12-24T17:08:23Z</time>
      </trkpt>
      <trkpt lat="38.820290006697178" lon="-0.260190032422543">
        <ele>421.390625</ele>
        <time>2017-12-24T17:10:23Z</time>
      </trkpt>
      <trkpt lat="38.82022999227047" lon="-0.260119959712029">
        <ele>421.29296875</ele>
        <time>2017-12-24T17:12:23Z</time>
      </trkpt>
      <trkpt lat="38.820220017805696" lon="-0.260109985247254">
        <ele>421.29296875</ele>
        <time>2017-12-24T17:14:23Z</time>
      </trkpt>
      <trkpt lat="38.820069981738925" lon="-0.259979981929064">
        <ele>421.4921875</ele>
        <time>2017-12-24T17:16:23Z</time>
      </trkpt>
      <trkpt lat="38.819720037281513" lon="-0.259760040789843">
        <ele>421.8828125</ele>
        <time>2017-12-24T17:18:23Z</time>
      </trkpt>
      <trkpt lat="38.819679971784353" lon="-0.259730033576488">
        <ele>421.89453125</ele>
        <time>2017-12-24T17:20:23Z</time>
      </trkpt>
      <trkpt lat="38.819639990106225" lon="-0.259700026363134">
        <ele>421.75390625</ele>
        <time>2017-12-24T17:22:23Z</time>
      </trkpt>
      <trkpt lat="38.819600008428097" lon="-0.2596499864012">
        <ele>421.12109375</ele>
        <time>2017-12-24T17:24:23Z</time>
      </trkpt>
      <trkpt lat="38.819560026749969" lon="-0.259600030258298">
        <ele>421.1328125</ele>
        <time>2017-12-24T17:26:23Z</time>
      </trkpt>
      <trkpt lat="38.819519961252809" lon="-0.259559964761138">
        <ele>421.44140625</ele>
        <time>2017-12-24T17:28:23Z</time>
      </trkpt>
      <trkpt lat="38.819490037858486" lon="-0.259510008618236">
        <ele>422.15625</ele>
        <time>2017-12-24T17:30:23Z</time>
      </trkpt>
      <trkpt lat="38.819470005109906" lon="-0.259470026940107">
        <ele>422.81640625</ele>
        <time>2017-12-24T17:32:23Z</time>
      </trkpt>
      <trkpt lat="38.819470005109906" lon="-0.259459968656301">
        <ele>422.80078125</ele>
        <time>2017-12-24T17:34:23Z</time>
      </trkpt>
      <trkpt lat="38.819419965147972" lon="-0.259319990873337">
        <ele>424.26171875</ele>
        <time>2017-12-24T17:36:23Z</time>
      </trkpt>
      <trkpt lat="38.819230031222105" lon="-0.25876997038722">
        <ele>419.125</ele>
        <time>2017-12-24T17:38:23Z</time>
      </trkpt>
      <trkpt lat="38.819189965724945" lon="-0.25865999981761">
        <ele>418.12109375</ele>
        <time>2017-12-24T17:40:23Z</time>
      </trkpt>
      <trkpt lat="38.819149984046817" lon="-0.258569978177547">
        <ele>418.07421875</ele>
        <time>2017-12-24T17:42:23Z</time>
      </trkpt>
      <trkpt lat="38.819119976833463" lon="-0.258520022034645">
        <ele>418.2109375</ele>
        <time>2017-12-24T17:44:23Z</time>
      </trkpt>
      <trkpt lat="38.819079995155334" lon="-0.258450033143163">
        <ele>418.41796875</ele>
        <time>2017-12-24T17:46:23Z</time>
      </trkpt>
      <trkpt lat="38.819059962406754" lon="-0.258420025929809">
        <ele>418.6640625</ele>
        <time>2017-12-24T17:48:23Z</time>
      </trkpt>
      <trkpt lat="38.819030039012432" lon="-0.258390018716455">
        <ele>419.04296875</ele>
        <time>2017-12-24T17:50:23Z</time>
      </trkpt>
      <trkpt lat="38.819000031799078" lon="-0.25833997875452">
        <ele>418.75390625</ele>
        <time>2017-12-24T17:52:23Z</time>
      </trkpt>
      <trkpt lat="38.818929959088564" lon="-0.258290022611618">
        <ele>419.30859375</ele>
        <time>2017-12-24T17:54:23Z</time>
      </trkpt>
      <trkpt lat="38.818880002945662" lon="-0.25825004093349">
        <ele>419.2265625</ele>
        <time>2017-12-24T17:56:23Z</time>
      </trkpt>
      <trkpt lat="38.818840021267533" lon="-0.258220033720136">
        <ele>419.21484375</ele>
        <time>2017-12-24T17:58:23Z</time>
      </trkpt>
      <trkpt lat="38.818789981305599" lon="-0.258179968222976">
        <ele>419.21875</ele>
        <time>2017-12-24T18:00:23Z</time>
      </trkpt>
      <trkpt lat="38.818740025162697" lon="-0.258120037615299">
        <ele>418.5546875</ele>
        <time>2017-12-24T18:02:23Z</time>
      </trkpt>
      <trkpt lat="38.818689985200763" lon="-0.258060023188591">
        <ele>418.01953125</ele>
        <time>2017-12-24T18:04:23Z</time>
      </trkpt>
      <trkpt lat="38.818629970774055" lon="-0.257979976013303">
        <ele>417.078125</ele>
        <time>2017-12-24T18:06:23Z</time>
      </trkpt>
      <trkpt lat="38.818580014631152" lon="-0.257939994335175">
        <ele>417.765625</ele>
        <time>2017-12-24T18:08:23Z</time>
      </trkpt>
      <trkpt lat="38.818529974669218" lon="-0.257900012657046">
        <ele>418.046875</ele>
        <time>2017-12-24T18:10:23Z</time>
      </trkpt>
      <trkpt lat="38.81846996024251" lon="-0.257860030978918">
        <ele>418.29296875</ele>
        <time>2017-12-24T18:12:23Z</time>
      </trkpt>
      <trkpt lat="38.818310033529997" lon="-0.257770009338856">
        <ele>418.43359375</ele>
        <time>2017-12-24T18:14:23Z</time>
      </trkpt>
      <trkpt lat="38.818169971928" lon="-0.257709994912148">
        <ele>417.84375</ele>
        <time>2017-12-24T18:16:23Z</time>
      </trkpt>
      <trkpt lat="38.818029994145036" lon="-0.257649980485439">
        <ele>416.5546875</ele>
        <time>2017-12-24T18:18:23Z</time>
      </trkpt>
      <trkpt lat="38.817909965291619" lon="-0.257589966058731">
        <ele>417.3359375</ele>
        <time>2017-12-24T18:20:23Z</time>
      </trkpt>
      <trkpt lat="38.817699998617172" lon="-0.257459962740541">
        <ele>417.09765625</ele>
        <time>2017-12-24T18:22:23Z</time>
      </trkpt>
      <trkpt lat="38.817660016939044" lon="-0.257430039346218">
        <ele>417.09375</ele>
        <time>2017-12-24T18:24:23Z</time>
      </trkpt>
      <trkpt lat="38.817620035260916" lon="-0.257389973849058">
        <ele>417.00390625</ele>
        <time>2017-12-24T18:26:23Z</time>
      </trkpt>
      <trkpt lat="38.817560020834208" lon="-0.257340017706156">
        <ele>417.0078125</ele>
        <time>2017-12-24T18:28:23Z</time>
      </trkpt>
      <trkpt lat="38.817460024729371" lon="-0.257240021601319">
        <ele>414.91796875</ele>
        <time>2017-12-24T18:30:23Z</time>
      </trkpt>
      <trkpt lat="38.817379977554083" lon="-0.257170032709837">
        <ele>414.39453125</ele>
        <time>2017-12-24T18:32:23Z</time>
      </trkpt>
      <trkpt lat="38.817249974235892" lon="-0.257070036605">
        <ele>413.9765625</ele>
        <time>2017-12-24T18:34:23Z</time>
      </trkpt>
      <trkpt lat="38.817230025306344" lon="-0.257059978321195">
        <ele>413.7890625</ele>
        <time>2017-12-24T18:36:23Z</time>
      </trkpt>
      <trkpt lat="38.817119970917702" lon="-0.256980014964938">
        <ele>412.41015625</ele>
        <time>2017-12-24T18:38:23Z</time>
      </trkpt>
      <trkpt lat="38.817079989239573" lon="-0.256950007751584">
        <ele>412.1640625</ele>
        <time>2017-12-24T18:40:23Z</time>
      </trkpt>
      <trkpt lat="38.817049982026219" lon="-0.256929975003004">
        <ele>412.203125</ele>
        <time>2017-12-24T18:42:23Z</time>
      </trkpt>
      <trkpt lat="38.817030033096671" lon="-0.25689996778965">
        <ele>412.12890625</ele>
        <time>2017-12-24T18:44:23Z</time>
      </trkpt>
      <trkpt lat="38.817010000348091" lon="-0.256880018860102">
        <ele>412.21875</ele>
        <time>2017-12-24T18:46:23Z</time>
      </trkpt>
      <trkpt lat="38.817000025883317" lon="-0.256840037181973">
        <ele>412.34375</ele>
        <time>2017-12-24T18:48:23Z</time>
      </trkpt>
      <trkpt lat="38.817000025883317" lon="-0.256789997220039">
        <ele>412.33203125</ele>
        <time>2017-12-24T18:50:23Z</time>
      </trkpt>
      <trkpt lat="38.817000025883317" lon="-0.256759990006685">
        <ele>412.51171875</ele>
        <time>2017-12-24T18:52:23Z</time>
      </trkpt>
      <trkpt lat="38.817000025883317" lon="-0.256740041077137">
        <ele>412.63671875</ele>
        <time>2017-12-24T18:54:23Z</time>
      </trkpt>
      <trkpt lat="38.817000025883317" lon="-0.256690001115203">
        <ele>413.01171875</ele>
        <time>2017-12-24T18:56:23Z</time>
      </trkpt>
      <trkpt lat="38.817019974812865" lon="-0.256639961153269">
        <ele>413.17578125</ele>
        <time>2017-12-24T18:58:23Z</time>
      </trkpt>
      <trkpt lat="38.817040007561445" lon="-0.256590005010366">
        <ele>413.1875</ele>
        <time>2017-12-24T19:00:23Z</time>
      </trkpt>
      <trkpt lat="38.817070014774799" lon="-0.256550023332238">
        <ele>412.65625</ele>
        <time>2017-12-24T19:02:23Z</time>
      </trkpt>
      <trkpt lat="38.817130029201508" lon="-0.256499983370304">
        <ele>411.796875</ele>
        <time>2017-12-24T19:04:23Z</time>
      </trkpt>
      <trkpt lat="38.81717998534441" lon="-0.256480034440756">
        <ele>411.203125</ele>
        <time>2017-12-24T19:06:23Z</time>
      </trkpt>
      <trkpt lat="38.817260032519698" lon="-0.256450027227402">
        <ele>410.5625</ele>
        <time>2017-12-24T19:08:23Z</time>
      </trkpt>
      <trkpt lat="38.817349970340729" lon="-0.256420020014048">
        <ele>409.6015625</ele>
        <time>2017-12-24T19:10:23Z</time>
      </trkpt>
      <trkpt lat="38.817460024729371" lon="-0.256390012800694">
        <ele>408.515625</ele>
        <time>2017-12-24T19:12:23Z</time>
      </trkpt>
      <trkpt lat="38.817720031365752" lon="-0.256329998373985">
        <ele>406.328125</ele>
        <time>2017-12-24T19:14:23Z</time>
      </trkpt>
      <trkpt lat="38.817880041897297" lon="-0.256299991160631">
        <ele>405.421875</ele>
        <time>2017-12-24T19:16:23Z</time>
      </trkpt>
      <trkpt lat="38.817939972504973" lon="-0.256279958412051">
        <ele>405.18359375</ele>
        <time>2017-12-24T19:18:23Z</time>
      </trkpt>
      <trkpt lat="38.818009961396456" lon="-0.256250035017729">
        <ele>405.0859375</ele>
        <time>2017-12-24T19:20:23Z</time>
      </trkpt>
      <trkpt lat="38.818090008571744" lon="-0.256199995055795">
        <ele>404.5078125</ele>
        <time>2017-12-24T19:22:23Z</time>
      </trkpt>
      <trkpt lat="38.818150022998452" lon="-0.256160013377666">
        <ele>403.984375</ele>
        <time>2017-12-24T19:24:23Z</time>
      </trkpt>
      <trkpt lat="38.818229986354709" lon="-0.256099998950958">
        <ele>403.9921875</ele>
        <time>2017-12-24T19:26:23Z</time>
      </trkpt>
      <trkpt lat="38.818520000204444" lon="-0.255819959565997">
        <ele>404.15234375</ele>
        <time>2017-12-24T19:28:23Z</time>
      </trkpt>
      <trkpt lat="38.818559981882572" lon="-0.255770003423095">
        <ele>404.3984375</ele>
        <time>2017-12-24T19:30:23Z</time>
      </trkpt>
      <trkpt lat="38.8185999635607" lon="-0.255730021744967">
        <ele>404</ele>
        <time>2017-12-24T19:32:23Z</time>
      </trkpt>
      <trkpt lat="38.818629970774055" lon="-0.255670007318258">
        <ele>403.703125</ele>
        <time>2017-12-24T19:34:23Z</time>
      </trkpt>
      <trkpt lat="38.818650003522635" lon="-0.25560999289155">
        <ele>403.50390625</ele>
        <time>2017-12-24T19:36:23Z</time>
      </trkpt>
      <trkpt lat="38.818670036271214" lon="-0.255560036748648">
        <ele>403.36328125</ele>
        <time>2017-12-24T19:38:23Z</time>
      </trkpt>
      <trkpt lat="38.818680010735989" lon="-0.255500022321939">
        <ele>403.7578125</ele>
        <time>2017-12-24T19:40:23Z</time>
      </trkpt>
      <trkpt lat="38.818680010735989" lon="-0.255410000681877">
        <ele>403.5</ele>
        <time>2017-12-24T19:42:23Z</time>
      </trkpt>
      <trkpt lat="38.818680010735989" lon="-0.255319979041815">
        <ele>403.2421875</ele>
        <time>2017-12-24T19:44:23Z</time>
      </trkpt>
      <trkpt lat="38.818670036271214" lon="-0.255189975723624">
        <ele>402.28515625</ele>
        <time>2017-12-24T19:46:23Z</time>
      </trkpt>
      <trkpt lat="38.818659977987409" lon="-0.255040023475885">
        <ele>400.41015625</ele>
        <time>2017-12-24T19:48:23Z</time>
      </trkpt>
      <trkpt lat="38.818659977987409" lon="-0.254929969087243">
        <ele>398.73046875</ele>
        <time>2017-12-24T19:50:23Z</time>
      </trkpt>
      <trkpt lat="38.818659977987409" lon="-0.254850005730987">
        <ele>398.72265625</ele>
        <time>2017-12-24T19:52:23Z</time>
      </trkpt>
      <trkpt lat="38.818659977987409" lon="-0.254780016839504">
        <ele>398.71484375</ele>
        <time>2017-12-24T19:54:23Z</time>
      </trkpt>
      <trkpt lat="38.818670036271214" lon="-0.25472997687757">
        <ele>398.68359375</ele>
        <time>2017-12-24T19:56:23Z</time>
      </trkpt>
      <trkpt lat="38.818680010735989" lon="-0.254659987986088">
        <ele>398.99609375</ele>
        <time>2017-12-24T19:58:23Z</time>
      </trkpt>
      <trkpt lat="38.818710017949343" lon="-0.254559991881251">
        <ele>399.640625</ele>
        <time>2017-12-24T20:00:23Z</time>
      </trkpt>
      <trkpt lat="38.818740025162697" lon="-0.254469970241189">
        <ele>399.53125</ele>
        <time>2017-12-24T20:02:23Z</time>
      </trkpt>
      <trkpt lat="38.818780006840825" lon="-0.254399981349707">
        <ele>399.30859375</ele>
        <time>2017-12-24T20:04:23Z</time>
      </trkpt>
      <trkpt lat="38.818849995732307" lon="-0.254250029101968">
        <ele>399.375</ele>
        <time>2017-12-24T20:06:23Z</time>
      </trkpt>
      <trkpt lat="38.818900035694242" lon="-0.254150032997131">
        <ele>399.08984375</ele>
        <time>2017-12-24T20:08:23Z</time>
      </trkpt>
      <trkpt lat="38.81894001737237" lon="-0.254050036892295">
        <ele>399.21875</ele>
        <time>2017-12-24T20:10:23Z</time>
      </trkpt>
      <trkpt lat="38.818970024585724" lon="-0.253960015252233">
        <ele>399.6328125</ele>
        <time>2017-12-24T20:12:23Z</time>
      </trkpt>
      <trkpt lat="38.818989973515272" lon="-0.253879968076944">
        <ele>400.375</ele>
        <time>2017-12-24T20:14:23Z</time>
      </trkpt>
      <trkpt lat="38.819010006263852" lon="-0.253769997507334">
        <ele>401.69140625</ele>
        <time>2017-12-24T20:16:23Z</time>
      </trkpt>
      <trkpt lat="38.819030039012432" lon="-0.253630019724369">
        <ele>402.8984375</ele>
        <time>2017-12-24T20:18:23Z</time>
      </trkpt>
      <trkpt lat="38.81904998794198" lon="-0.253470009192824">
        <ele>404.07421875</ele>
        <time>2017-12-24T20:20:23Z</time>
      </trkpt>
      <trkpt lat="38.819059962406754" lon="-0.253319973126054">
        <ele>402.94921875</ele>
        <time>2017-12-24T20:22:23Z</time>
      </trkpt>
      <trkpt lat="38.819079995155334" lon="-0.253089973703027">
        <ele>402.75390625</ele>
        <time>2017-12-24T20:24:23Z</time>
      </trkpt>
      <trkpt lat="38.819089969620109" lon="-0.253000035881996">
        <ele>402.3984375</ele>
        <time>2017-12-24T20:26:23Z</time>
      </trkpt>
      <trkpt lat="38.819100027903914" lon="-0.252949995920062">
        <ele>402.1640625</ele>
        <time>2017-12-24T20:28:23Z</time>
      </trkpt>
      <trkpt lat="38.819110002368689" lon="-0.252910014241934">
        <ele>402.0390625</ele>
        <time>2017-12-24T20:30:23Z</time>
      </trkpt>
      <trkpt lat="38.819130035117269" lon="-0.252849999815226">
        <ele>401.97265625</ele>
        <time>2017-12-24T20:32:23Z</time>
      </trkpt>
      <trkpt lat="38.819159958511591" lon="-0.252789985388517">
        <ele>402.02734375</ele>
        <time>2017-12-24T20:34:23Z</time>
      </trkpt>
      <trkpt lat="38.819179991260171" lon="-0.252750003710389">
        <ele>402.17578125</ele>
        <time>2017-12-24T20:36:23Z</time>
      </trkpt>
      <trkpt lat="38.819219972938299" lon="-0.252689989283681">
        <ele>402.28125</ele>
        <time>2017-12-24T20:38:23Z</time>
      </trkpt>
      <trkpt lat="38.819249980151653" lon="-0.252640033140779">
        <ele>402.7265625</ele>
        <time>2017-12-24T20:40:23Z</time>
      </trkpt>
      <trkpt lat="38.819300020113587" lon="-0.252599967643619">
        <ele>402.49609375</ele>
        <time>2017-12-24T20:42:23Z</time>
      </trkpt>
      <trkpt lat="38.819400016218424" lon="-0.252520004287362">
        <ele>402.640625</ele>
        <time>2017-12-24T20:44:23Z</time>
      </trkpt>
      <trkpt lat="38.819509986788034" lon="-0.252440040931106">
        <ele>403.23046875</ele>
        <time>2017-12-24T20:46:23Z</time>
      </trkpt>
      <trkpt lat="38.819860015064478" lon="-0.252190008759499">
        <ele>402.1015625</ele>
        <time>2017-12-24T20:48:23Z</time>
      </trkpt>
      <trkpt lat="38.819920029491186" lon="-0.252139968797565">
        <ele>402.00390625</ele>
        <time>2017-12-24T20:50:23Z</time>
      </trkpt>
      <trkpt lat="38.819960011169314" lon="-0.252099987119436">
        <ele>402.01171875</ele>
        <time>2017-12-24T20:52:23Z</time>
      </trkpt>
      <trkpt lat="38.820009967312217" lon="-0.252050030976534">
        <ele>402.16015625</ele>
        <time>2017-12-24T20:54:23Z</time>
      </trkpt>
      <trkpt lat="38.820060007274151" lon="-0.25197995826602">
        <ele>401.90625</ele>
        <time>2017-12-24T20:56:23Z</time>
      </trkpt>
      <trkpt lat="38.820099988952279" lon="-0.251899994909763">
        <ele>400.875</ele>
        <time>2017-12-24T20:58:23Z</time>
      </trkpt>
      <trkpt lat="38.820150028914213" lon="-0.251809973269701">
        <ele>400.35546875</ele>
        <time>2017-12-24T21:00:23Z</time>
      </trkpt>
      <trkpt lat="38.820190010592341" lon="-0.25170000270009">
        <ele>400.3359375</ele>
        <time>2017-12-24T21:02:23Z</time>
      </trkpt>
      <trkpt lat="38.82022999227047" lon="-0.251609981060028">
        <ele>400.5234375</ele>
        <time>2017-12-24T21:04:23Z</time>
      </trkpt>
      <trkpt lat="38.820269973948598" lon="-0.25154996663332">
        <ele>400.265625</ele>
        <time>2017-12-24T21:06:23Z</time>
      </trkpt>
      <trkpt lat="38.820310039445758" lon="-0.251479977741838">
        <ele>400.17578125</ele>
        <time>2017-12-24T21:08:23Z</time>
      </trkpt>
      <trkpt lat="38.82035999558866" lon="-0.251400014385581">
        <ele>400.31640625</ele>
        <time>2017-12-24T21:10:23Z</time>
      </trkpt>
      <trkpt lat="38.820420010015368" lon="-0.251339999958873">
        <ele>400.359375</ele>
        <time>2017-12-24T21:12:23Z</time>
      </trkpt>
      <trkpt lat="38.820459991693497" lon="-0.251279985532165">
        <ele>400.78515625</ele>
        <time>2017-12-24T21:14:23Z</time>
      </trkpt>
      <trkpt lat="38.820529980584979" lon="-0.251209996640682">
        <ele>400.8046875</ele>
        <time>2017-12-24T21:16:23Z</time>
      </trkpt>
      <trkpt lat="38.820780012756586" lon="-0.250970022752881">
        <ele>400.42578125</ele>
        <time>2017-12-24T21:18:23Z</time>
      </trkpt>
      <trkpt lat="38.820929965004325" lon="-0.25081998668611">
        <ele>401.18359375</ele>
        <time>2017-12-24T21:20:23Z</time>
      </trkpt>
      <trkpt lat="38.820980004966259" lon="-0.250759972259402">
        <ele>401.15234375</ele>
        <time>2017-12-24T21:22:23Z</time>
      </trkpt>
      <trkpt lat="38.821049993857741" lon="-0.250680008903146">
        <ele>401.17578125</ele>
        <time>2017-12-24T21:24:23Z</time>
      </trkpt>
      <trkpt lat="38.82111000828445" lon="-0.250589987263083">
        <ele>401.73828125</ele>
        <time>2017-12-24T21:26:23Z</time>
      </trkpt>
      <trkpt lat="38.821149989962578" lon="-0.250510023906827">
        <ele>402.26171875</ele>
        <time>2017-12-24T21:28:23Z</time>
      </trkpt>
      <trkpt lat="38.821170022711158" lon="-0.250450009480119">
        <ele>402.69140625</ele>
        <time>2017-12-24T21:30:23Z</time>
      </trkpt>
      <trkpt lat="38.821189971640706" lon="-0.250380020588636">
        <ele>402.78515625</ele>
        <time>2017-12-24T21:32:23Z</time>
      </trkpt>
      <trkpt lat="38.821200029924512" lon="-0.250299973413348">
        <ele>402.08203125</ele>
        <time>2017-12-24T21:34:23Z</time>
      </trkpt>
      <trkpt lat="38.821210004389286" lon="-0.250229984521866">
        <ele>401.57421875</ele>
        <time>2017-12-24T21:36:23Z</time>
      </trkpt>
      <trkpt lat="38.821210004389286" lon="-0.250169970095158">
        <ele>401.26953125</ele>
        <time>2017-12-24T21:38:23Z</time>
      </trkpt>
      <trkpt lat="38.821210004389286" lon="-0.250120013952255">
        <ele>400.9609375</ele>
        <time>2017-12-24T21:40:23Z</time>
      </trkpt>
      <trkpt lat="38.821200029924512" lon="-0.250050025060773">
        <ele>400.02734375</ele>
        <time>2017-12-24T21:42:23Z</time>
      </trkpt>
      <trkpt lat="38.821179997175932" lon="-0.249980036169291">
        <ele>399.57421875</ele>
        <time>2017-12-24T21:44:23Z</time>
      </trkpt>
      <trkpt lat="38.821149989962578" lon="-0.249909963458776">
        <ele>399.125</ele>
        <time>2017-12-24T21:46:23Z</time>
      </trkpt>
      <trkpt lat="38.821100033819675" lon="-0.249779960140586">
        <ele>398.046875</ele>
        <time>2017-12-24T21:48:23Z</time>
      </trkpt>
      <trkpt lat="38.821080001071095" lon="-0.249730003997684">
        <ele>398.33984375</ele>
        <time>2017-12-24T21:50:23Z</time>
      </trkpt>
      <trkpt lat="38.821070026606321" lon="-0.249679964035749">
        <ele>398.63671875</ele>
        <time>2017-12-24T21:52:23Z</time>
      </trkpt>
      <trkpt lat="38.821070026606321" lon="-0.249620033428073">
        <ele>399.05859375</ele>
        <time>2017-12-24T21:54:23Z</time>
      </trkpt>
      <trkpt lat="38.821070026606321" lon="-0.249560019001365">
        <ele>399.6875</ele>
        <time>2017-12-24T21:56:23Z</time>
      </trkpt>
      <trkpt lat="38.821080001071095" lon="-0.249509979039431">
        <ele>400.0625</ele>
        <time>2017-12-24T21:58:23Z</time>
      </trkpt>
      <trkpt lat="38.82108997553587" lon="-0.249449964612722">
        <ele>400.21875</ele>
        <time>2017-12-24T22:00:23Z</time>
      </trkpt>
      <trkpt lat="38.821119982749224" lon="-0.249360026791692">
        <ele>399.78125</ele>
        <time>2017-12-24T22:02:23Z</time>
      </trkpt>
      <trkpt lat="38.821330033242702" lon="-0.248789973556995">
        <ele>396.62109375</ele>
        <time>2017-12-24T22:04:23Z</time>
      </trkpt>
      <trkpt lat="38.821349982172251" lon="-0.248729959130287">
        <ele>395.76953125</ele>
        <time>2017-12-24T22:06:23Z</time>
      </trkpt>
      <trkpt lat="38.821360040456057" lon="-0.248680002987385">
        <ele>395.3671875</ele>
        <time>2017-12-24T22:08:23Z</time>
      </trkpt>
      <trkpt lat="38.821360040456057" lon="-0.248629963025451">
        <ele>395.3046875</ele>
        <time>2017-12-24T22:10:23Z</time>
      </trkpt>
      <trkpt lat="38.821349982172251" lon="-0.248580006882548">
        <ele>395.33984375</ele>
        <time>2017-12-24T22:12:23Z</time>
      </trkpt>
      <trkpt lat="38.821349982172251" lon="-0.24854002520442">
        <ele>395.1640625</ele>
        <time>2017-12-24T22:14:23Z</time>
      </trkpt>
      <trkpt lat="38.821340007707477" lon="-0.24849995970726">
        <ele>395.0703125</ele>
        <time>2017-12-24T22:16:23Z</time>
      </trkpt>
      <trkpt lat="38.821319974958897" lon="-0.248459978029132">
        <ele>395.14453125</ele>
        <time>2017-12-24T22:18:23Z</time>
      </trkpt>
      <trkpt lat="38.821300026029348" lon="-0.24841002188623">
        <ele>394.8984375</ele>
        <time>2017-12-24T22:20:23Z</time>
      </trkpt>
      <trkpt lat="38.821259960532188" lon="-0.248359981924295">
        <ele>395.05859375</ele>
        <time>2017-12-24T22:22:23Z</time>
      </trkpt>
      <trkpt lat="38.82121997885406" lon="-0.248310025781393">
        <ele>394.84375</ele>
        <time>2017-12-24T22:24:23Z</time>
      </trkpt>
      <trkpt lat="38.821179997175932" lon="-0.248269960284233">
        <ele>395.07421875</ele>
        <time>2017-12-24T22:26:23Z</time>
      </trkpt>
      <trkpt lat="38.82111000828445" lon="-0.248210029676557">
        <ele>394.52734375</ele>
        <time>2017-12-24T22:28:23Z</time>
      </trkpt>
      <trkpt lat="38.821040019392967" lon="-0.248169964179397">
        <ele>393.7265625</ele>
        <time>2017-12-24T22:30:23Z</time>
      </trkpt>
      <trkpt lat="38.820980004966259" lon="-0.248140040785074">
        <ele>392.6015625</ele>
        <time>2017-12-24T22:32:23Z</time>
      </trkpt>
      <trkpt lat="38.820929965004325" lon="-0.248129982501268">
        <ele>391.78125</ele>
        <time>2017-12-24T22:34:23Z</time>
      </trkpt>
      <trkpt lat="38.820870034396648" lon="-0.248120008036494">
        <ele>390.83984375</ele>
        <time>2017-12-24T22:36:23Z</time>
      </trkpt>
      <trkpt lat="38.820669958367944" lon="-0.248120008036494">
        <ele>390.4453125</ele>
        <time>2017-12-24T22:38:23Z</time>
      </trkpt>
      <trkpt lat="38.820520006120205" lon="-0.248129982501268">
        <ele>391.66015625</ele>
        <time>2017-12-24T22:40:23Z</time>
      </trkpt>
      <trkpt lat="38.820459991693497" lon="-0.248129982501268">
        <ele>391.75</ele>
        <time>2017-12-24T22:42:23Z</time>
      </trkpt>
      <trkpt lat="38.820439958944917" lon="-0.248129982501268">
        <ele>391.76953125</ele>
        <time>2017-12-24T22:44:23Z</time>
      </trkpt>
      <trkpt lat="38.820410035550594" lon="-0.248140040785074">
        <ele>392.23046875</ele>
        <time>2017-12-24T22:46:23Z</time>
      </trkpt>
      <trkpt lat="38.820369970053434" lon="-0.248150015249848">
        <ele>392.3984375</ele>
        <time>2017-12-24T22:48:23Z</time>
      </trkpt>
      <trkpt lat="38.820160003378987" lon="-0.248250011354685">
        <ele>393.66015625</ele>
        <time>2017-12-24T22:50:23Z</time>
      </trkpt>
      <trkpt lat="38.820080040022731" lon="-0.248269960284233">
        <ele>393.38671875</ele>
        <time>2017-12-24T22:52:23Z</time>
      </trkpt>
      <trkpt lat="38.820020025596023" lon="-0.248280018568039">
        <ele>392.83984375</ele>
        <time>2017-12-24T22:54:23Z</time>
      </trkpt>
      <trkpt lat="38.819979960098863" lon="-0.248289993032813">
        <ele>392.44140625</ele>
        <time>2017-12-24T22:56:23Z</time>
      </trkpt>
      <trkpt lat="38.819920029491186" lon="-0.248289993032813">
        <ele>391.76953125</ele>
        <time>2017-12-24T22:58:23Z</time>
      </trkpt>
      <trkpt lat="38.819790026172996" lon="-0.248280018568039">
        <ele>391.1875</ele>
        <time>2017-12-24T23:00:23Z</time>
      </trkpt>
      <trkpt lat="38.819669997319579" lon="-0.248269960284233">
        <ele>391.74609375</ele>
        <time>2017-12-24T23:02:23Z</time>
      </trkpt>
      <trkpt lat="38.819470005109906" lon="-0.248250011354685">
        <ele>390.30078125</ele>
        <time>2017-12-24T23:04:23Z</time>
      </trkpt>
      <trkpt lat="38.819360034540296" lon="-0.248240036889911">
        <ele>389.51953125</ele>
        <time>2017-12-24T23:06:23Z</time>
      </trkpt>
      <trkpt lat="38.819279987365007" lon="-0.248220004141331">
        <ele>388.90625</ele>
        <time>2017-12-24T23:08:23Z</time>
      </trkpt>
      <trkpt lat="38.819249980151653" lon="-0.248210029676557">
        <ele>388.87109375</ele>
        <time>2017-12-24T23:10:23Z</time>
      </trkpt>
      <trkpt lat="38.819219972938299" lon="-0.248199971392751">
        <ele>388.875</ele>
        <time>2017-12-24T23:12:23Z</time>
      </trkpt>
      <trkpt lat="38.819189965724945" lon="-0.248169964179397">
        <ele>388.2265625</ele>
        <time>2017-12-24T23:14:23Z</time>
      </trkpt>
      <trkpt lat="38.819159958511591" lon="-0.248150015249848">
        <ele>388.01953125</ele>
        <time>2017-12-24T23:16:23Z</time>
      </trkpt>
      <trkpt lat="38.819140009582043" lon="-0.248120008036494">
        <ele>387.5625</ele>
        <time>2017-12-24T23:18:23Z</time>
      </trkpt>
      <trkpt lat="38.819130035117269" lon="-0.24806996807456">
        <ele>386.78515625</ele>
        <time>2017-12-24T23:20:23Z</time>
      </trkpt>
      <trkpt lat="38.819119976833463" lon="-0.248020011931658">
        <ele>386.20703125</ele>
        <time>2017-12-24T23:22:23Z</time>
      </trkpt>
      <trkpt lat="38.819110002368689" lon="-0.247969971969724">
        <ele>385.97265625</ele>
        <time>2017-12-24T23:24:23Z</time>
      </trkpt>
      <trkpt lat="38.819110002368689" lon="-0.247910041362047">
        <ele>385.97265625</ele>
        <time>2017-12-24T23:26:23Z</time>
      </trkpt>
      <trkpt lat="38.819130035117269" lon="-0.247869975864887">
        <ele>386.0390625</ele>
        <time>2017-12-24T23:28:23Z</time>
      </trkpt>
      <trkpt lat="38.819140009582043" lon="-0.247829994186759">
        <ele>386.171875</ele>
        <time>2017-12-24T23:30:23Z</time>
      </trkpt>
      <trkpt lat="38.819159958511591" lon="-0.247799986973405">
        <ele>386.27734375</ele>
        <time>2017-12-24T23:32:23Z</time>
      </trkpt>
      <trkpt lat="38.819189965724945" lon="-0.247769979760051">
        <ele>386.55859375</ele>
        <time>2017-12-24T23:34:23Z</time>
      </trkpt>
      <trkpt lat="38.819240005686879" lon="-0.247750030830503">
        <ele>386.328125</ele>
        <time>2017-12-24T23:36:23Z</time>
      </trkpt>
      <trkpt lat="38.81939004175365" lon="-0.247690016403794">
        <ele>384.98046875</ele>
        <time>2017-12-24T23:38:23Z</time>
      </trkpt>
      <trkpt lat="38.819560026749969" lon="-0.24763997644186">
        <ele>383.4453125</ele>
        <time>2017-12-24T23:40:23Z</time>
      </trkpt>
      <trkpt lat="38.819649964570999" lon="-0.247599994763732">
        <ele>384.11328125</ele>
        <time>2017-12-24T23:42:23Z</time>
      </trkpt>
      <trkpt lat="38.819700004532933" lon="-0.247579962015152">
        <ele>384.44921875</ele>
        <time>2017-12-24T23:44:23Z</time>
      </trkpt>
      <trkpt lat="38.819769993424416" lon="-0.247539980337024">
        <ele>384.57421875</ele>
        <time>2017-12-24T23:46:23Z</time>
      </trkpt>
      <trkpt lat="38.819809975102544" lon="-0.247499998658895">
        <ele>384.85546875</ele>
        <time>2017-12-24T23:48:23Z</time>
      </trkpt>
      <trkpt lat="38.819899996742606" lon="-0.247430009767413">
        <ele>384.1796875</ele>
        <time>2017-12-24T23:50:23Z</time>
      </trkpt>
      <trkpt lat="38.819979960098863" lon="-0.247360020875931">
        <ele>382.9921875</ele>
        <time>2017-12-24T23:52:23Z</time>
      </trkpt>
      <trkpt lat="38.820090014487505" lon="-0.247249966487288">
        <ele>382.20703125</ele>
        <time>2017-12-24T23:54:23Z</time>
      </trkpt>
      <trkpt lat="38.820180036127567" lon="-0.247160028666258">
        <ele>381.79296875</ele>
        <time>2017-12-24T23:56:23Z</time>
      </trkpt>
      <trkpt lat="38.82025002501905" lon="-0.24710001423955">
        <ele>381.84375</ele>
        <time>2017-12-24T23:58:23Z</time>
      </trkpt>
      <trkpt lat="38.820299981161952" lon="-0.247070007026196">
        <ele>381.82421875</ele>
        <time>2017-12-25T00:00:23Z</time>
      </trkpt>
      <trkpt lat="38.82033996284008" lon="-0.247049974277616">
        <ele>381.6015625</ele>
        <time>2017-12-25T00:02:23Z</time>
      </trkpt>
      <trkpt lat="38.820420010015368" lon="-0.247009992599487">
        <ele>380.4140625</ele>
        <time>2017-12-25T00:04:23Z</time>
      </trkpt>
      <trkpt lat="38.820480024442077" lon="-0.246970010921359">
        <ele>379.7109375</ele>
        <time>2017-12-25T00:06:23Z</time>
      </trkpt>
      <trkpt lat="38.820589995011687" lon="-0.246919970959425">
        <ele>379.046875</ele>
        <time>2017-12-25T00:08:23Z</time>
      </trkpt>
      <trkpt lat="38.82065998390317" lon="-0.246889963746071">
        <ele>379.23046875</ele>
        <time>2017-12-25T00:10:23Z</time>
      </trkpt>
      <trkpt lat="38.820710023865104" lon="-0.246860040351748">
        <ele>379.26953125</ele>
        <time>2017-12-25T00:12:23Z</time>
      </trkpt>
      <trkpt lat="38.820759980008006" lon="-0.246819974854589">
        <ele>378.72265625</ele>
        <time>2017-12-25T00:14:23Z</time>
      </trkpt>
      <trkpt lat="38.820799961686134" lon="-0.246789967641234">
        <ele>378.4140625</ele>
        <time>2017-12-25T00:16:23Z</time>
      </trkpt>
      <trkpt lat="38.820889983326197" lon="-0.246700029820204">
        <ele>379.06640625</ele>
        <time>2017-12-25T00:18:23Z</time>
      </trkpt>
      <trkpt lat="38.820970030501485" lon="-0.246610008180141">
        <ele>380.25</ele>
        <time>2017-12-25T00:20:23Z</time>
      </trkpt>
      <trkpt lat="38.821059968322515" lon="-0.246510012075305">
        <ele>380.91015625</ele>
        <time>2017-12-25T00:22:23Z</time>
      </trkpt>
      <trkpt lat="38.821119982749224" lon="-0.246429964900017">
        <ele>380.1640625</ele>
        <time>2017-12-25T00:24:23Z</time>
      </trkpt>
      <trkpt lat="38.821159964427352" lon="-0.246380008757114">
        <ele>379.765625</ele>
        <time>2017-12-25T00:26:23Z</time>
      </trkpt>
      <trkpt lat="38.821200029924512" lon="-0.246280012652278">
        <ele>379.97265625</ele>
        <time>2017-12-25T00:28:23Z</time>
      </trkpt>
      <trkpt lat="38.82121997885406" lon="-0.24624003097415">
        <ele>379.578125</ele>
        <time>2017-12-25T00:30:23Z</time>
      </trkpt>
      <trkpt lat="38.82124001160264" lon="-0.246189991012216">
        <ele>378.58984375</ele>
        <time>2017-12-25T00:32:23Z</time>
      </trkpt>
      <trkpt lat="38.821249986067414" lon="-0.246140034869313">
        <ele>378.07421875</ele>
        <time>2017-12-25T00:34:23Z</time>
      </trkpt>
      <trkpt lat="38.821259960532188" lon="-0.246099969372153">
        <ele>377.7265625</ele>
        <time>2017-12-25T00:36:23Z</time>
      </trkpt>
      <trkpt lat="38.821270018815994" lon="-0.246050013229251">
        <ele>377.265625</ele>
        <time>2017-12-25T00:38:23Z</time>
      </trkpt>
      <trkpt lat="38.821259960532188" lon="-0.245999973267317">
        <ele>377.03125</ele>
        <time>2017-12-25T00:40:23Z</time>
      </trkpt>
      <trkpt lat="38.821249986067414" lon="-0.245969966053963">
        <ele>376.9375</ele>
        <time>2017-12-25T00:42:23Z</time>
      </trkpt>
      <trkpt lat="38.82124001160264" lon="-0.245929984375834">
        <ele>376.5</ele>
        <time>2017-12-25T00:44:23Z</time>
      </trkpt>
      <trkpt lat="38.821230037137866" lon="-0.245910035446286">
        <ele>376.34765625</ele>
        <time>2017-12-25T00:46:23Z</time>
      </trkpt>
      <trkpt lat="38.82121997885406" lon="-0.245880028232932">
        <ele>375.9765625</ele>
        <time>2017-12-25T00:48:23Z</time>
      </trkpt>
      <trkpt lat="38.821189971640706" lon="-0.245839962735772">
        <ele>375.53515625</ele>
        <time>2017-12-25T00:50:23Z</time>
      </trkpt>
      <trkpt lat="38.821029961109161" lon="-0.245639970526099">
        <ele>374.421875</ele>
        <time>2017-12-25T00:52:23Z</time>
      </trkpt>
      <trkpt lat="38.821000037714839" lon="-0.245599988847971">
        <ele>374.046875</ele>
        <time>2017-12-25T00:54:23Z</time>
      </trkpt>
      <trkpt lat="38.820970030501485" lon="-0.245550032705069">
        <ele>373.72265625</ele>
        <time>2017-12-25T00:56:23Z</time>
      </trkpt>
      <trkpt lat="38.820959972217679" lon="-0.245520025491714">
        <ele>373.45703125</ele>
        <time>2017-12-25T00:58:23Z</time>
      </trkpt>
      <trkpt lat="38.820949997752905" lon="-0.245479959994555">
        <ele>373.2734375</ele>
        <time>2017-12-25T01:00:23Z</time>
      </trkpt>
      <trkpt lat="38.820929965004325" lon="-0.245379963889718">
        <ele>373.55078125</ele>
        <time>2017-12-25T01:02:23Z</time>
      </trkpt>
      <trkpt lat="38.820919990539551" lon="-0.245320033282042">
        <ele>373.6796875</ele>
        <time>2017-12-25T01:04:23Z</time>
      </trkpt>
      <trkpt lat="38.820929965004325" lon="-0.245290026068687">
        <ele>373.03125</ele>
        <time>2017-12-25T01:06:23Z</time>
      </trkpt>
      <trkpt lat="38.820919990539551" lon="-0.245269993320107">
        <ele>373.30859375</ele>
        <time>2017-12-25T01:08:23Z</time>
      </trkpt>
      <trkpt lat="38.820929965004325" lon="-0.245139990001917">
        <ele>372.328125</ele>
        <time>2017-12-25T01:10:23Z</time>
      </trkpt>
      <trkpt lat="38.820929965004325" lon="-0.245100008323789">
        <ele>372.078125</ele>
        <time>2017-12-25T01:12:23Z</time>
      </trkpt>
      <trkpt lat="38.820919990539551" lon="-0.24506002664566">
        <ele>372.19921875</ele>
        <time>2017-12-25T01:14:23Z</time>
      </trkpt>
      <trkpt lat="38.820910016074777" lon="-0.245000012218952">
        <ele>371.91015625</ele>
        <time>2017-12-25T01:16:23Z</time>
      </trkpt>
      <trkpt lat="38.820889983326197" lon="-0.244949972257018">
        <ele>371.99609375</ele>
        <time>2017-12-25T01:18:23Z</time>
      </trkpt>
      <trkpt lat="38.820859976112843" lon="-0.244879983365536">
        <ele>371.84375</ele>
        <time>2017-12-25T01:20:23Z</time>
      </trkpt>
      <trkpt lat="38.820780012756586" lon="-0.244700023904443">
        <ele>370.56640625</ele>
        <time>2017-12-25T01:22:23Z</time>
      </trkpt>
      <trkpt lat="38.820729972794652" lon="-0.2445899695158">
        <ele>370.87109375</ele>
        <time>2017-12-25T01:24:23Z</time>
      </trkpt>
      <trkpt lat="38.820569962263107" lon="-0.244310013949871">
        <ele>371.125</ele>
        <time>2017-12-25T01:26:23Z</time>
      </trkpt>
      <trkpt lat="38.820510031655431" lon="-0.244210017845035">
        <ele>370.37890625</ele>
        <time>2017-12-25T01:28:23Z</time>
      </trkpt>
      <trkpt lat="38.820480024442077" lon="-0.244170036166906">
        <ele>370.01171875</ele>
        <time>2017-12-25T01:30:23Z</time>
      </trkpt>
      <trkpt lat="38.820450017228723" lon="-0.244140028953552">
        <ele>370.1171875</ele>
        <time>2017-12-25T01:32:23Z</time>
      </trkpt>
      <trkpt lat="38.820399977266788" lon="-0.244099963456392">
        <ele>370.70703125</ele>
        <time>2017-12-25T01:34:23Z</time>
      </trkpt>
      <trkpt lat="38.820030000060797" lon="-0.243790000677109">
        <ele>367.59765625</ele>
        <time>2017-12-25T01:36:23Z</time>
      </trkpt>
      <trkpt lat="38.819979960098863" lon="-0.243739960715175">
        <ele>366.28515625</ele>
        <time>2017-12-25T01:38:23Z</time>
      </trkpt>
      <trkpt lat="38.819969985634089" lon="-0.243710037320852">
        <ele>365.83984375</ele>
        <time>2017-12-25T01:40:23Z</time>
      </trkpt>
      <trkpt lat="38.819969985634089" lon="-0.243699979037046">
        <ele>365.67578125</ele>
        <time>2017-12-25T01:42:23Z</time>
      </trkpt>
      <trkpt lat="38.819960011169314" lon="-0.243669971823692">
        <ele>365.203125</ele>
        <time>2017-12-25T01:44:23Z</time>
      </trkpt>
      <trkpt lat="38.819960011169314" lon="-0.243639964610338">
        <ele>364.7890625</ele>
        <time>2017-12-25T01:46:23Z</time>
      </trkpt>
      <trkpt lat="38.819969985634089" lon="-0.243610041216016">
        <ele>364.60546875</ele>
        <time>2017-12-25T01:48:23Z</time>
      </trkpt>
      <trkpt lat="38.819969985634089" lon="-0.243580034002662">
        <ele>364.421875</ele>
        <time>2017-12-25T01:50:23Z</time>
      </trkpt>
      <trkpt lat="38.819990018382668" lon="-0.243539968505502">
        <ele>364.50390625</ele>
        <time>2017-12-25T01:52:23Z</time>
      </trkpt>
      <trkpt lat="38.819999992847443" lon="-0.243529994040728">
        <ele>364.625</ele>
        <time>2017-12-25T01:54:23Z</time>
      </trkpt>
      <trkpt lat="38.820009967312217" lon="-0.243509961292148">
        <ele>364.83203125</ele>
        <time>2017-12-25T01:56:23Z</time>
      </trkpt>
      <trkpt lat="38.820039974525571" lon="-0.243480037897825">
        <ele>365.0546875</ele>
        <time>2017-12-25T01:58:23Z</time>
      </trkpt>
      <trkpt lat="38.820080040022731" lon="-0.243460005149245">
        <ele>365.38671875</ele>
        <time>2017-12-25T02:00:23Z</time>
      </trkpt>
      <trkpt lat="38.820120021700859" lon="-0.243450030684471">
        <ele>365.7890625</ele>
        <time>2017-12-25T02:02:23Z</time>
      </trkpt>
      <trkpt lat="38.820120021700859" lon="-0.243439972400665">
        <ele>365.9375</ele>
        <time>2017-12-25T02:04:23Z</time>
      </trkpt>
      <trkpt lat="38.820139970630407" lon="-0.243439972400665">
        <ele>366.03515625</ele>
        <time>2017-12-25T02:06:23Z</time>
      </trkpt>
      <trkpt lat="38.820160003378987" lon="-0.243429997935891">
        <ele>366.15234375</ele>
        <time>2017-12-25T02:08:23Z</time>
      </trkpt>
      <trkpt lat="38.820199985057116" lon="-0.243429997935891">
        <ele>366.06640625</ele>
        <time>2017-12-25T02:10:23Z</time>
      </trkpt>
      <trkpt lat="38.820469966158271" lon="-0.243409965187311">
        <ele>364.234375</ele>
        <time>2017-12-25T02:12:23Z</time>
      </trkpt>
      <trkpt lat="38.820569962263107" lon="-0.243390016257763">
        <ele>364.51953125</ele>
        <time>2017-12-25T02:14:23Z</time>
      </trkpt>
      <trkpt lat="38.820640034973621" lon="-0.243369983509183">
        <ele>365.37109375</ele>
        <time>2017-12-25T02:16:23Z</time>
      </trkpt>
      <trkpt lat="38.820669958367944" lon="-0.243350034579635">
        <ele>365.96484375</ele>
        <time>2017-12-25T02:18:23Z</time>
      </trkpt>
      <trkpt lat="38.820710023865104" lon="-0.243320027366281">
        <ele>366.67578125</ele>
        <time>2017-12-25T02:20:23Z</time>
      </trkpt>
      <trkpt lat="38.820740031078458" lon="-0.243290020152926">
        <ele>367.16796875</ele>
        <time>2017-12-25T02:22:23Z</time>
      </trkpt>
      <trkpt lat="38.82078998722136" lon="-0.243230005726218">
        <ele>367.59375</ele>
        <time>2017-12-25T02:24:23Z</time>
      </trkpt>
      <trkpt lat="38.820829968899488" lon="-0.24314995855093">
        <ele>367.53515625</ele>
        <time>2017-12-25T02:26:23Z</time>
      </trkpt>
      <trkpt lat="38.820850001648068" lon="-0.243100002408028">
        <ele>367.66796875</ele>
        <time>2017-12-25T02:28:23Z</time>
      </trkpt>
      <trkpt lat="38.820870034396648" lon="-0.243030013516545">
        <ele>367.3203125</ele>
        <time>2017-12-25T02:30:23Z</time>
      </trkpt>
      <trkpt lat="38.820889983326197" lon="-0.242960024625063">
        <ele>366.80859375</ele>
        <time>2017-12-25T02:32:23Z</time>
      </trkpt>
      <trkpt lat="38.820889983326197" lon="-0.242890035733581">
        <ele>366.63671875</ele>
        <time>2017-12-25T02:34:23Z</time>
      </trkpt>
      <trkpt lat="38.820889983326197" lon="-0.242800014093518">
        <ele>365.78515625</ele>
        <time>2017-12-25T02:36:23Z</time>
      </trkpt>
      <trkpt lat="38.820889983326197" lon="-0.242689959704876">
        <ele>365.2109375</ele>
        <time>2017-12-25T02:38:23Z</time>
      </trkpt>
      <trkpt lat="38.820889983326197" lon="-0.242519974708557">
        <ele>365.18359375</ele>
        <time>2017-12-25T02:40:23Z</time>
      </trkpt>
      <trkpt lat="38.820880008861423" lon="-0.242410004138947">
        <ele>365.59765625</ele>
        <time>2017-12-25T02:42:23Z</time>
      </trkpt>
      <trkpt lat="38.820870034396648" lon="-0.242059975862503">
        <ele>364.859375</ele>
        <time>2017-12-25T02:44:23Z</time>
      </trkpt>
      <trkpt lat="38.820850001648068" lon="-0.24172998033464">
        <ele>362.43359375</ele>
        <time>2017-12-25T02:46:23Z</time>
      </trkpt>
      <trkpt lat="38.820840027183294" lon="-0.241569969803095">
        <ele>361.9296875</ele>
        <time>2017-12-25T02:48:23Z</time>
      </trkpt>
      <trkpt lat="38.820829968899488" lon="-0.241510039195418">
        <ele>362.1328125</ele>
        <time>2017-12-25T02:50:23Z</time>
      </trkpt>
      <trkpt lat="38.820819994434714" lon="-0.241459999233484">
        <ele>361.9765625</ele>
        <time>2017-12-25T02:52:23Z</time>
      </trkpt>
      <trkpt lat="38.82081001996994" lon="-0.241420017555356">
        <ele>361.80078125</ele>
        <time>2017-12-25T02:54:23Z</time>
      </trkpt>
      <trkpt lat="38.82081001996994" lon="-0.241399984806776">
        <ele>361.49609375</ele>
        <time>2017-12-25T02:56:23Z</time>
      </trkpt>
      <trkpt lat="38.820799961686134" lon="-0.241380035877228">
        <ele>361.42578125</ele>
        <time>2017-12-25T02:58:23Z</time>
      </trkpt>
      <trkpt lat="38.82078998722136" lon="-0.241350028663874">
        <ele>361.13671875</ele>
        <time>2017-12-25T03:00:23Z</time>
      </trkpt>
      <trkpt lat="38.820780012756586" lon="-0.241339970380068">
        <ele>361.01171875</ele>
        <time>2017-12-25T03:02:23Z</time>
      </trkpt>
      <trkpt lat="38.820770038291812" lon="-0.24132002145052">
        <ele>360.5390625</ele>
        <time>2017-12-25T03:04:23Z</time>
      </trkpt>
      <trkpt lat="38.820759980008006" lon="-0.24129998870194">
        <ele>360.03515625</ele>
        <time>2017-12-25T03:06:23Z</time>
      </trkpt>
      <trkpt lat="38.820750005543232" lon="-0.241280039772391">
        <ele>359.55859375</ele>
        <time>2017-12-25T03:08:23Z</time>
      </trkpt>
      <trkpt lat="38.820740031078458" lon="-0.241269981488585">
        <ele>359.3671875</ele>
        <time>2017-12-25T03:10:23Z</time>
      </trkpt>
      <trkpt lat="38.820710023865104" lon="-0.241239974275231">
        <ele>358.87109375</ele>
        <time>2017-12-25T03:12:23Z</time>
      </trkpt>
      <trkpt lat="38.820669958367944" lon="-0.241220025345683">
        <ele>358.328125</ele>
        <time>2017-12-25T03:14:23Z</time>
      </trkpt>
      <trkpt lat="38.820650009438396" lon="-0.241209967061877">
        <ele>357.99609375</ele>
        <time>2017-12-25T03:16:23Z</time>
      </trkpt>
      <trkpt lat="38.820610027760267" lon="-0.241199992597103">
        <ele>357.66796875</ele>
        <time>2017-12-25T03:18:23Z</time>
      </trkpt>
      <trkpt lat="38.820569962263107" lon="-0.241190018132329">
        <ele>357.51171875</ele>
        <time>2017-12-25T03:20:23Z</time>
      </trkpt>
      <trkpt lat="38.820190010592341" lon="-0.241220025345683">
        <ele>359.27734375</ele>
        <time>2017-12-25T03:22:23Z</time>
      </trkpt>
      <trkpt lat="38.820169977843761" lon="-0.241220025345683">
        <ele>359.29296875</ele>
        <time>2017-12-25T03:24:23Z</time>
      </trkpt>
      <trkpt lat="38.820120021700859" lon="-0.241209967061877">
        <ele>359.06640625</ele>
        <time>2017-12-25T03:26:23Z</time>
      </trkpt>
      <trkpt lat="38.820080040022731" lon="-0.241209967061877">
        <ele>359.16015625</ele>
        <time>2017-12-25T03:28:23Z</time>
      </trkpt>
      <trkpt lat="38.820050032809377" lon="-0.241209967061877">
        <ele>359.2265625</ele>
        <time>2017-12-25T03:30:23Z</time>
      </trkpt>
      <trkpt lat="38.819999992847443" lon="-0.241190018132329">
        <ele>358.83984375</ele>
        <time>2017-12-25T03:32:23Z</time>
      </trkpt>
      <trkpt lat="38.819969985634089" lon="-0.241179959848523">
        <ele>358.62109375</ele>
        <time>2017-12-25T03:34:23Z</time>
      </trkpt>
      <trkpt lat="38.819939978420734" lon="-0.241160010918975">
        <ele>358.2890625</ele>
        <time>2017-12-25T03:36:23Z</time>
      </trkpt>
      <trkpt lat="38.819920029491186" lon="-0.241150036454201">
        <ele>358.2265625</ele>
        <time>2017-12-25T03:38:23Z</time>
      </trkpt>
      <trkpt lat="38.819890022277832" lon="-0.241099996492267">
        <ele>357.32421875</ele>
        <time>2017-12-25T03:40:23Z</time>
      </trkpt>
      <trkpt lat="38.819860015064478" lon="-0.241060014814138">
        <ele>356.796875</ele>
        <time>2017-12-25T03:42:23Z</time>
      </trkpt>
      <trkpt lat="38.819850040599704" lon="-0.24102003313601">
        <ele>356.55859375</ele>
        <time>2017-12-25T03:44:23Z</time>
      </trkpt>
      <trkpt lat="38.819850040599704" lon="-0.24097996763885">
        <ele>356.1640625</ele>
        <time>2017-12-25T03:46:23Z</time>
      </trkpt>
      <trkpt lat="38.819850040599704" lon="-0.240949960425496">
        <ele>355.9453125</ele>
        <time>2017-12-25T03:48:23Z</time>
      </trkpt>
      <trkpt lat="38.819850040599704" lon="-0.240939985960722">
        <ele>355.90234375</ele>
        <time>2017-12-25T03:50:23Z</time>
      </trkpt>
      <trkpt lat="38.819850040599704" lon="-0.24086999706924">
        <ele>355.58984375</ele>
        <time>2017-12-25T03:52:23Z</time>
      </trkpt>
      <trkpt lat="38.819850040599704" lon="-0.240760026499629">
        <ele>355.10546875</ele>
        <time>2017-12-25T03:54:23Z</time>
      </trkpt>
      <trkpt lat="38.819869989529252" lon="-0.240619964897633">
        <ele>355.1171875</ele>
        <time>2017-12-25T03:56:23Z</time>
      </trkpt>
      <trkpt lat="38.819879963994026" lon="-0.240519968792796">
        <ele>355.30078125</ele>
        <time>2017-12-25T03:58:23Z</time>
      </trkpt>
      <trkpt lat="38.819899996742606" lon="-0.240400023758411">
        <ele>355.84765625</ele>
        <time>2017-12-25T04:00:23Z</time>
      </trkpt>
      <trkpt lat="38.819920029491186" lon="-0.240219980478287">
        <ele>356.16015625</ele>
        <time>2017-12-25T04:02:23Z</time>
      </trkpt>
      <trkpt lat="38.81993000395596" lon="-0.240040021017194">
        <ele>357.6015625</ele>
        <time>2017-12-25T04:04:23Z</time>
      </trkpt>
      <trkpt lat="38.819969985634089" lon="-0.23966995999217">
        <ele>355.921875</ele>
        <time>2017-12-25T04:06:23Z</time>
      </trkpt>
      <trkpt lat="38.819969985634089" lon="-0.239589996635914">
        <ele>355.6953125</ele>
        <time>2017-12-25T04:08:23Z</time>
      </trkpt>
      <trkpt lat="38.819979960098863" lon="-0.239499974995852">
        <ele>354.48046875</ele>
        <time>2017-12-25T04:10:23Z</time>
      </trkpt>
      <trkpt lat="38.819979960098863" lon="-0.238899998366833">
        <ele>351.37109375</ele>
        <time>2017-12-25T04:12:23Z</time>
      </trkpt>
      <trkpt lat="38.819969985634089" lon="-0.238709980621934">
        <ele>350.81640625</ele>
        <time>2017-12-25T04:14:23Z</time>
      </trkpt>
      <trkpt lat="38.819969985634089" lon="-0.238669998943806">
        <ele>350.5859375</ele>
        <time>2017-12-25T04:16:23Z</time>
      </trkpt>
      <trkpt lat="38.819969985634089" lon="-0.238630017265677">
        <ele>350.0390625</ele>
        <time>2017-12-25T04:18:23Z</time>
      </trkpt>
      <trkpt lat="38.819960011169314" lon="-0.238590035587549">
        <ele>349.6484375</ele>
        <time>2017-12-25T04:20:23Z</time>
      </trkpt>
      <trkpt lat="38.81995003670454" lon="-0.238549970090389">
        <ele>348.98828125</ele>
        <time>2017-12-25T04:22:23Z</time>
      </trkpt>
      <trkpt lat="38.81993000395596" lon="-0.238509988412261">
        <ele>348.33203125</ele>
        <time>2017-12-25T04:24:23Z</time>
      </trkpt>
      <trkpt lat="38.81990997120738" lon="-0.238470006734133">
        <ele>347.67578125</ele>
        <time>2017-12-25T04:26:23Z</time>
      </trkpt>
      <trkpt lat="38.819869989529252" lon="-0.238419966772199">
        <ele>347.35546875</ele>
        <time>2017-12-25T04:28:23Z</time>
      </trkpt>
      <trkpt lat="38.819839982315898" lon="-0.238389959558845">
        <ele>347.2734375</ele>
        <time>2017-12-25T04:30:23Z</time>
      </trkpt>
      <trkpt lat="38.81980000063777" lon="-0.238360036164522">
        <ele>347.328125</ele>
        <time>2017-12-25T04:32:23Z</time>
      </trkpt>
      <trkpt lat="38.819749960675836" lon="-0.238330028951168">
        <ele>347.25390625</ele>
        <time>2017-12-25T04:34:23Z</time>
      </trkpt>
      <trkpt lat="38.819690030068159" lon="-0.238300021737814">
        <ele>347.13671875</ele>
        <time>2017-12-25T04:36:23Z</time>
      </trkpt>
      <trkpt lat="38.81947997957468" lon="-0.238200025632977">
        <ele>347.3671875</ele>
        <time>2017-12-25T04:38:23Z</time>
      </trkpt>
      <trkpt lat="38.819360034540296" lon="-0.238149985671043">
        <ele>347.16796875</ele>
        <time>2017-12-25T04:40:23Z</time>
      </trkpt>
      <trkpt lat="38.819219972938299" lon="-0.238100029528141">
        <ele>346.4140625</ele>
        <time>2017-12-25T04:42:23Z</time>
      </trkpt>
      <trkpt lat="38.819100027903914" lon="-0.238059964030981">
        <ele>346.390625</ele>
        <time>2017-12-25T04:44:23Z</time>
      </trkpt>
      <trkpt lat="38.81904998794198" lon="-0.238030040636659">
        <ele>346.078125</ele>
        <time>2017-12-25T04:46:23Z</time>
      </trkpt>
      <trkpt lat="38.819019980728626" lon="-0.238010007888079">
        <ele>345.640625</ele>
        <time>2017-12-25T04:48:23Z</time>
      </trkpt>
      <trkpt lat="38.818989973515272" lon="-0.237980000674725">
        <ele>344.7109375</ele>
        <time>2017-12-25T04:50:23Z</time>
      </trkpt>
      <trkpt lat="38.818970024585724" lon="-0.237959967926145">
        <ele>344.1171875</ele>
        <time>2017-12-25T04:52:23Z</time>
      </trkpt>
      <trkpt lat="38.81894001737237" lon="-0.23792996071279">
        <ele>343.2265625</ele>
        <time>2017-12-25T04:54:23Z</time>
      </trkpt>
      <trkpt lat="38.81891998462379" lon="-0.237900037318468">
        <ele>342.23046875</ele>
        <time>2017-12-25T04:56:23Z</time>
      </trkpt>
      <trkpt lat="38.818910010159016" lon="-0.237859971821308">
        <ele>341.15234375</ele>
        <time>2017-12-25T04:58:23Z</time>
      </trkpt>
      <trkpt lat="38.818900035694242" lon="-0.237829964607954">
        <ele>340.4140625</ele>
        <time>2017-12-25T05:00:23Z</time>
      </trkpt>
      <trkpt lat="38.818889977410436" lon="-0.237780008465052">
        <ele>340.234375</ele>
        <time>2017-12-25T05:02:23Z</time>
      </trkpt>
      <trkpt lat="38.818889977410436" lon="-0.237740026786923">
        <ele>340.296875</ele>
        <time>2017-12-25T05:04:23Z</time>
      </trkpt>
      <trkpt lat="38.818889977410436" lon="-0.237699961289763">
        <ele>340.49609375</ele>
        <time>2017-12-25T05:06:23Z</time>
      </trkpt>
      <trkpt lat="38.818900035694242" lon="-0.237659979611635">
        <ele>340.69140625</ele>
        <time>2017-12-25T05:08:23Z</time>
      </trkpt>
      <trkpt lat="38.818910010159016" lon="-0.237619997933507">
        <ele>340.84375</ele>
        <time>2017-12-25T05:10:23Z</time>
      </trkpt>
      <trkpt lat="38.818949991837144" lon="-0.23754003457725">
        <ele>340.546875</ele>
        <time>2017-12-25T05:12:23Z</time>
      </trkpt>
      <trkpt lat="38.818979999050498" lon="-0.237480020150542">
        <ele>340.703125</ele>
        <time>2017-12-25T05:14:23Z</time>
      </trkpt>
      <trkpt lat="38.819019980728626" lon="-0.237420005723834">
        <ele>341.03515625</ele>
        <time>2017-12-25T05:16:23Z</time>
      </trkpt>
      <trkpt lat="38.819110002368689" lon="-0.237290002405643">
        <ele>341.921875</ele>
        <time>2017-12-25T05:18:23Z</time>
      </trkpt>
      <trkpt lat="38.819230031222105" lon="-0.237139966338873">
        <ele>341.36328125</ele>
        <time>2017-12-25T05:20:23Z</time>
      </trkpt>
      <trkpt lat="38.819260038435459" lon="-0.237099984660745">
        <ele>341.45703125</ele>
        <time>2017-12-25T05:22:23Z</time>
      </trkpt>
      <trkpt lat="38.819319969043136" lon="-0.237039970234036">
        <ele>340.99609375</ele>
        <time>2017-12-25T05:24:23Z</time>
      </trkpt>
      <trkpt lat="38.819400016218424" lon="-0.23696000687778">
        <ele>340.20703125</ele>
        <time>2017-12-25T05:26:23Z</time>
      </trkpt>
      <trkpt lat="38.819490037858486" lon="-0.236879959702492">
        <ele>339.96875</ele>
        <time>2017-12-25T05:28:23Z</time>
      </trkpt>
      <trkpt lat="38.819749960675836" lon="-0.236700000241399">
        <ele>337.92578125</ele>
        <time>2017-12-25T05:30:23Z</time>
      </trkpt>
      <trkpt lat="38.819979960098863" lon="-0.236549964174628">
        <ele>337.33984375</ele>
        <time>2017-12-25T05:32:23Z</time>
      </trkpt>
      <trkpt lat="38.820030000060797" lon="-0.2365099824965">
        <ele>337.46875</ele>
        <time>2017-12-25T05:34:23Z</time>
      </trkpt>
      <trkpt lat="38.820080040022731" lon="-0.236470000818372">
        <ele>337.328125</ele>
        <time>2017-12-25T05:36:23Z</time>
      </trkpt>
      <trkpt lat="38.820109963417053" lon="-0.236439993605018">
        <ele>337.58984375</ele>
        <time>2017-12-25T05:38:23Z</time>
      </trkpt>
      <trkpt lat="38.820139970630407" lon="-0.236400011926889">
        <ele>337.55859375</ele>
        <time>2017-12-25T05:40:23Z</time>
      </trkpt>
      <trkpt lat="38.820160003378987" lon="-0.236370004713535">
        <ele>337.3515625</ele>
        <time>2017-12-25T05:42:23Z</time>
      </trkpt>
      <trkpt lat="38.820169977843761" lon="-0.236319964751601">
        <ele>337.31640625</ele>
        <time>2017-12-25T05:44:23Z</time>
      </trkpt>
      <trkpt lat="38.820180036127567" lon="-0.236279983073473">
        <ele>337.22265625</ele>
        <time>2017-12-25T05:46:23Z</time>
      </trkpt>
      <trkpt lat="38.820190010592341" lon="-0.236240001395345">
        <ele>337.12890625</ele>
        <time>2017-12-25T05:48:23Z</time>
      </trkpt>
      <trkpt lat="38.820180036127567" lon="-0.236189961433411">
        <ele>337.65625</ele>
        <time>2017-12-25T05:50:23Z</time>
      </trkpt>
      <trkpt lat="38.820169977843761" lon="-0.236140005290508">
        <ele>337.9375</ele>
        <time>2017-12-25T05:52:23Z</time>
      </trkpt>
      <trkpt lat="38.820160003378987" lon="-0.23610002361238">
        <ele>337.609375</ele>
        <time>2017-12-25T05:54:23Z</time>
      </trkpt>
      <trkpt lat="38.820129996165633" lon="-0.23605995811522">
        <ele>337.5390625</ele>
        <time>2017-12-25T05:56:23Z</time>
      </trkpt>
      <trkpt lat="38.820099988952279" lon="-0.236000027507544">
        <ele>336.43359375</ele>
        <time>2017-12-25T05:58:23Z</time>
      </trkpt>
      <trkpt lat="38.820020025596023" lon="-0.235910005867481">
        <ele>336.50390625</ele>
        <time>2017-12-25T06:00:23Z</time>
      </trkpt>
      <trkpt lat="38.81990997120738" lon="-0.235780002549291">
        <ele>336.66796875</ele>
        <time>2017-12-25T06:02:23Z</time>
      </trkpt>
      <trkpt lat="38.819869989529252" lon="-0.235710013657808">
        <ele>337.109375</ele>
        <time>2017-12-25T06:04:23Z</time>
      </trkpt>
      <trkpt lat="38.819839982315898" lon="-0.2356499992311">
        <ele>336.98828125</ele>
        <time>2017-12-25T06:06:23Z</time>
      </trkpt>
      <trkpt lat="38.81982003338635" lon="-0.235599959269166">
        <ele>336.5390625</ele>
        <time>2017-12-25T06:08:23Z</time>
      </trkpt>
      <trkpt lat="38.81980000063777" lon="-0.235550003126264">
        <ele>336.78125</ele>
        <time>2017-12-25T06:10:23Z</time>
      </trkpt>
      <trkpt lat="38.81980000063777" lon="-0.23549996316433">
        <ele>336.4296875</ele>
        <time>2017-12-25T06:12:23Z</time>
      </trkpt>
      <trkpt lat="38.81980000063777" lon="-0.235450007021427">
        <ele>336.3125</ele>
        <time>2017-12-25T06:14:23Z</time>
      </trkpt>
      <trkpt lat="38.81980000063777" lon="-0.235399967059493">
        <ele>336.22265625</ele>
        <time>2017-12-25T06:16:23Z</time>
      </trkpt>
      <trkpt lat="38.819809975102544" lon="-0.235359985381365">
        <ele>335.89453125</ele>
        <time>2017-12-25T06:18:23Z</time>
      </trkpt>
      <trkpt lat="38.819830007851124" lon="-0.235289996489882">
        <ele>335.234375</ele>
        <time>2017-12-25T06:20:23Z</time>
      </trkpt>
      <trkpt lat="38.819879963994026" lon="-0.23519997484982">
        <ele>333.859375</ele>
        <time>2017-12-25T06:22:23Z</time>
      </trkpt>
      <trkpt lat="38.819990018382668" lon="-0.234999982640147">
        <ele>332.72265625</ele>
        <time>2017-12-25T06:24:23Z</time>
      </trkpt>
      <trkpt lat="38.820090014487505" lon="-0.2347900159657">
        <ele>331.80859375</ele>
        <time>2017-12-25T06:26:23Z</time>
      </trkpt>
      <trkpt lat="38.82025002501905" lon="-0.234490027651191">
        <ele>331.41796875</ele>
        <time>2017-12-25T06:28:23Z</time>
      </trkpt>
      <trkpt lat="38.820290006697178" lon="-0.234409980475903">
        <ele>331.15625</ele>
        <time>2017-12-25T06:30:23Z</time>
      </trkpt>
      <trkpt lat="38.820320013910532" lon="-0.234349966049194">
        <ele>331.0625</ele>
        <time>2017-12-25T06:32:23Z</time>
      </trkpt>
      <trkpt lat="38.820350021123886" lon="-0.234290035441518">
        <ele>331.1953125</ele>
        <time>2017-12-25T06:34:23Z</time>
      </trkpt>
      <trkpt lat="38.82035999558866" lon="-0.23423002101481">
        <ele>330.91015625</ele>
        <time>2017-12-25T06:36:23Z</time>
      </trkpt>
      <trkpt lat="38.820369970053434" lon="-0.234190039336681">
        <ele>330.64453125</ele>
        <time>2017-12-25T06:38:23Z</time>
      </trkpt>
      <trkpt lat="38.82038002833724" lon="-0.234149973839521">
        <ele>330.55078125</ele>
        <time>2017-12-25T06:40:23Z</time>
      </trkpt>
      <trkpt lat="38.82038002833724" lon="-0.234089959412813">
        <ele>330.6953125</ele>
        <time>2017-12-25T06:42:23Z</time>
      </trkpt>
      <trkpt lat="38.82038002833724" lon="-0.234040003269911">
        <ele>330.625</ele>
        <time>2017-12-25T06:44:23Z</time>
      </trkpt>
      <trkpt lat="38.820369970053434" lon="-0.233989963307977">
        <ele>330.41015625</ele>
        <time>2017-12-25T06:46:23Z</time>
      </trkpt>
      <trkpt lat="38.82035999558866" lon="-0.233940007165074">
        <ele>330.0703125</ele>
        <time>2017-12-25T06:48:23Z</time>
      </trkpt>
      <trkpt lat="38.820329988375306" lon="-0.233870018273592">
        <ele>330.0625</ele>
        <time>2017-12-25T06:50:23Z</time>
      </trkpt>
      <trkpt lat="38.820290006697178" lon="-0.233740014955401">
        <ele>329.55859375</ele>
        <time>2017-12-25T06:52:23Z</time>
      </trkpt>
      <trkpt lat="38.820259999483824" lon="-0.233629960566759">
        <ele>330.0390625</ele>
        <time>2017-12-25T06:54:23Z</time>
      </trkpt>
      <trkpt lat="38.82025002501905" lon="-0.233580004423857">
        <ele>330.0234375</ele>
        <time>2017-12-25T06:56:23Z</time>
      </trkpt>
      <trkpt lat="38.82025002501905" lon="-0.233519989997149">
        <ele>329.890625</ele>
        <time>2017-12-25T06:58:23Z</time>
      </trkpt>
      <trkpt lat="38.820239966735244" lon="-0.233440026640892">
        <ele>330.25390625</ele>
        <time>2017-12-25T07:00:23Z</time>
      </trkpt>
      <trkpt lat="38.82025002501905" lon="-0.23337003774941">
        <ele>329.953125</ele>
        <time>2017-12-25T07:02:23Z</time>
      </trkpt>
      <trkpt lat="38.820259999483824" lon="-0.233299965038896">
        <ele>330.28515625</ele>
        <time>2017-12-25T07:04:23Z</time>
      </trkpt>
      <trkpt lat="38.820269973948598" lon="-0.233240034431219">
        <ele>330.515625</ele>
        <time>2017-12-25T07:06:23Z</time>
      </trkpt>
      <trkpt lat="38.82033996284008" lon="-0.233010035008192">
        <ele>329.71875</ele>
        <time>2017-12-25T07:08:23Z</time>
      </trkpt>
      <trkpt lat="38.820390002802014" lon="-0.232869973406196">
        <ele>329.4140625</ele>
        <time>2017-12-25T07:10:23Z</time>
      </trkpt>
      <trkpt lat="38.820450017228723" lon="-0.232709962874651">
        <ele>329.28125</ele>
        <time>2017-12-25T07:12:23Z</time>
      </trkpt>
      <trkpt lat="38.820499973371625" lon="-0.232560010626912">
        <ele>328.07421875</ele>
        <time>2017-12-25T07:14:23Z</time>
      </trkpt>
      <trkpt lat="38.820510031655431" lon="-0.23249002173543">
        <ele>327.40234375</ele>
        <time>2017-12-25T07:16:23Z</time>
      </trkpt>
      <trkpt lat="38.820520006120205" lon="-0.232409974560142">
        <ele>326.85546875</ele>
        <time>2017-12-25T07:18:23Z</time>
      </trkpt>
      <trkpt lat="38.820529980584979" lon="-0.232330011203885">
        <ele>326.39453125</ele>
        <time>2017-12-25T07:20:23Z</time>
      </trkpt>
      <trkpt lat="38.820550013333559" lon="-0.232119960710406">
        <ele>324.37890625</ele>
        <time>2017-12-25T07:22:23Z</time>
      </trkpt>
      <trkpt lat="38.820550013333559" lon="-0.231990041211247">
        <ele>323.484375</ele>
        <time>2017-12-25T07:24:23Z</time>
      </trkpt>
      <trkpt lat="38.820559987798333" lon="-0.231819972395897">
        <ele>323.078125</ele>
        <time>2017-12-25T07:26:23Z</time>
      </trkpt>
      <trkpt lat="38.820569962263107" lon="-0.231659961864352">
        <ele>324.0234375</ele>
        <time>2017-12-25T07:28:23Z</time>
      </trkpt>
      <trkpt lat="38.820569962263107" lon="-0.231549991294742">
        <ele>324.1015625</ele>
        <time>2017-12-25T07:30:23Z</time>
      </trkpt>
      <trkpt lat="38.820569962263107" lon="-0.231489976868033">
        <ele>323.81640625</ele>
        <time>2017-12-25T07:32:23Z</time>
      </trkpt>
      <trkpt lat="38.820569962263107" lon="-0.231449995189905">
        <ele>323.421875</ele>
        <time>2017-12-25T07:34:23Z</time>
      </trkpt>
      <trkpt lat="38.820569962263107" lon="-0.231419987976551">
        <ele>323.00390625</ele>
        <time>2017-12-25T07:36:23Z</time>
      </trkpt>
      <trkpt lat="38.820550013333559" lon="-0.231370031833649">
        <ele>322.2265625</ele>
        <time>2017-12-25T07:38:23Z</time>
      </trkpt>
      <trkpt lat="38.820540038868785" lon="-0.231329966336489">
        <ele>321.578125</ele>
        <time>2017-12-25T07:40:23Z</time>
      </trkpt>
      <trkpt lat="38.820510031655431" lon="-0.231299959123135">
        <ele>321.3125</ele>
        <time>2017-12-25T07:42:23Z</time>
      </trkpt>
      <trkpt lat="38.820469966158271" lon="-0.231270035728812">
        <ele>320.60546875</ele>
        <time>2017-12-25T07:44:23Z</time>
      </trkpt>
      <trkpt lat="38.820450017228723" lon="-0.231250002980232">
        <ele>320.0546875</ele>
        <time>2017-12-25T07:46:23Z</time>
      </trkpt>
      <trkpt lat="38.820410035550594" lon="-0.231229970231652">
        <ele>319.2734375</ele>
        <time>2017-12-25T07:48:23Z</time>
      </trkpt>
      <trkpt lat="38.82035999558866" lon="-0.231219995766878">
        <ele>318.34375</ele>
        <time>2017-12-25T07:50:23Z</time>
      </trkpt>
      <trkpt lat="38.820310039445758" lon="-0.231219995766878">
        <ele>317.58203125</ele>
        <time>2017-12-25T07:52:23Z</time>
      </trkpt>
      <trkpt lat="38.820280032232404" lon="-0.231229970231652">
        <ele>317.390625</ele>
        <time>2017-12-25T07:54:23Z</time>
      </trkpt>
      <trkpt lat="38.82022999227047" lon="-0.231240028515458">
        <ele>316.95703125</ele>
        <time>2017-12-25T07:56:23Z</time>
      </trkpt>
      <trkpt lat="38.820190010592341" lon="-0.231259977445006">
        <ele>316.7890625</ele>
        <time>2017-12-25T07:58:23Z</time>
      </trkpt>
      <trkpt lat="38.820129996165633" lon="-0.231299959123135">
        <ele>316.61328125</ele>
        <time>2017-12-25T08:00:23Z</time>
      </trkpt>
      <trkpt lat="38.819990018382668" lon="-0.231400039047003">
        <ele>316.34765625</ele>
        <time>2017-12-25T08:02:23Z</time>
      </trkpt>
      <trkpt lat="38.819879963994026" lon="-0.231470027938485">
        <ele>315.5546875</ele>
        <time>2017-12-25T08:04:23Z</time>
      </trkpt>
      <trkpt lat="38.819760018959641" lon="-0.231559965759516">
        <ele>315.19140625</ele>
        <time>2017-12-25T08:06:23Z</time>
      </trkpt>
      <trkpt lat="38.819679971784353" lon="-0.231619980186224">
        <ele>315.4609375</ele>
        <time>2017-12-25T08:08:23Z</time>
      </trkpt>
      <trkpt lat="38.819490037858486" lon="-0.231770016252995">
        <ele>314.1640625</ele>
        <time>2017-12-25T08:10:23Z</time>
      </trkpt>
      <trkpt lat="38.819289961829782" lon="-0.231909994035959">
        <ele>313.625</ele>
        <time>2017-12-25T08:12:23Z</time>
      </trkpt>
      <trkpt lat="38.819209998473525" lon="-0.231970008462667">
        <ele>313.81640625</ele>
        <time>2017-12-25T08:14:23Z</time>
      </trkpt>
      <trkpt lat="38.819159958511591" lon="-0.232000015676022">
        <ele>313.4140625</ele>
        <time>2017-12-25T08:16:23Z</time>
      </trkpt>
      <trkpt lat="38.819130035117269" lon="-0.23201996460557">
        <ele>313.109375</ele>
        <time>2017-12-25T08:18:23Z</time>
      </trkpt>
      <trkpt lat="38.819100027903914" lon="-0.23203999735415">
        <ele>313.0625</ele>
        <time>2017-12-25T08:20:23Z</time>
      </trkpt>
      <trkpt lat="38.819059962406754" lon="-0.232049971818924">
        <ele>312.89453125</ele>
        <time>2017-12-25T08:22:23Z</time>
      </trkpt>
      <trkpt lat="38.819030039012432" lon="-0.232049971818924">
        <ele>312.71875</ele>
        <time>2017-12-25T08:24:23Z</time>
      </trkpt>
      <trkpt lat="38.818989973515272" lon="-0.232049971818924">
        <ele>312.71875</ele>
        <time>2017-12-25T08:26:23Z</time>
      </trkpt>
      <trkpt lat="38.818959966301918" lon="-0.232049971818924">
        <ele>312.71875</ele>
        <time>2017-12-25T08:28:23Z</time>
      </trkpt>
      <trkpt lat="38.81891998462379" lon="-0.23203999735415">
        <ele>312.62109375</ele>
        <time>2017-12-25T08:30:23Z</time>
      </trkpt>
      <trkpt lat="38.818880002945662" lon="-0.232009990140796">
        <ele>312.32421875</ele>
        <time>2017-12-25T08:32:23Z</time>
      </trkpt>
      <trkpt lat="38.818849995732307" lon="-0.231990041211247">
        <ele>312.125</ele>
        <time>2017-12-25T08:34:23Z</time>
      </trkpt>
      <trkpt lat="38.818800039589405" lon="-0.231940001249313">
        <ele>312.0390625</ele>
        <time>2017-12-25T08:36:23Z</time>
      </trkpt>
      <trkpt lat="38.818770032376051" lon="-0.231889961287379">
        <ele>312.1796875</ele>
        <time>2017-12-25T08:38:23Z</time>
      </trkpt>
      <trkpt lat="38.818749999627471" lon="-0.231849979609251">
        <ele>312.19140625</ele>
        <time>2017-12-25T08:40:23Z</time>
      </trkpt>
      <trkpt lat="38.818710017949343" lon="-0.231800023466349">
        <ele>312.55078125</ele>
        <time>2017-12-25T08:42:23Z</time>
      </trkpt>
      <trkpt lat="38.818689985200763" lon="-0.23176004178822">
        <ele>312.8828125</ele>
        <time>2017-12-25T08:44:23Z</time>
      </trkpt>
      <trkpt lat="38.818659977987409" lon="-0.23171997629106">
        <ele>313.359375</ele>
        <time>2017-12-25T08:46:23Z</time>
      </trkpt>
      <trkpt lat="38.81864002905786" lon="-0.231670020148158">
        <ele>313.5859375</ele>
        <time>2017-12-25T08:48:23Z</time>
      </trkpt>
      <trkpt lat="38.818629970774055" lon="-0.231619980186224">
        <ele>313.76171875</ele>
        <time>2017-12-25T08:50:23Z</time>
      </trkpt>
      <trkpt lat="38.81861999630928" lon="-0.231579998508096">
        <ele>314.1953125</ele>
        <time>2017-12-25T08:52:23Z</time>
      </trkpt>
      <trkpt lat="38.81861999630928" lon="-0.231519984081388">
        <ele>314.62109375</ele>
        <time>2017-12-25T08:54:23Z</time>
      </trkpt>
      <trkpt lat="38.81861999630928" lon="-0.231470027938485">
        <ele>314.62109375</ele>
        <time>2017-12-25T08:56:23Z</time>
      </trkpt>
      <trkpt lat="38.818629970774055" lon="-0.231419987976551">
        <ele>314.59375</ele>
        <time>2017-12-25T08:58:23Z</time>
      </trkpt>
      <trkpt lat="38.818650003522635" lon="-0.231359973549843">
        <ele>314.9609375</ele>
        <time>2017-12-25T09:00:23Z</time>
      </trkpt>
      <trkpt lat="38.818680010735989" lon="-0.231259977445006">
        <ele>315.83984375</ele>
        <time>2017-12-25T09:02:23Z</time>
      </trkpt>
      <trkpt lat="38.818829962983727" lon="-0.230890000239015">
        <ele>316.01171875</ele>
        <time>2017-12-25T09:04:23Z</time>
      </trkpt>
      <trkpt lat="38.818970024585724" lon="-0.230529997497797">
        <ele>315.94921875</ele>
        <time>2017-12-25T09:06:23Z</time>
      </trkpt>
      <trkpt lat="38.819219972938299" lon="-0.229900013655424">
        <ele>316.64453125</ele>
        <time>2017-12-25T09:08:23Z</time>
      </trkpt>
      <trkpt lat="38.819249980151653" lon="-0.229809992015362">
        <ele>315.83984375</ele>
        <time>2017-12-25T09:10:23Z</time>
      </trkpt>
      <trkpt lat="38.819270012900233" lon="-0.229770010337234">
        <ele>315.265625</ele>
        <time>2017-12-25T09:12:23Z</time>
      </trkpt>
      <trkpt lat="38.819279987365007" lon="-0.229719970375299">
        <ele>314.89453125</ele>
        <time>2017-12-25T09:14:23Z</time>
      </trkpt>
      <trkpt lat="38.819279987365007" lon="-0.229670014232397">
        <ele>314.765625</ele>
        <time>2017-12-25T09:16:23Z</time>
      </trkpt>
      <trkpt lat="38.819279987365007" lon="-0.229630032554269">
        <ele>314.109375</ele>
        <time>2017-12-25T09:18:23Z</time>
      </trkpt>
      <trkpt lat="38.819270012900233" lon="-0.229579992592335">
        <ele>313.5</ele>
        <time>2017-12-25T09:20:23Z</time>
      </trkpt>
      <trkpt lat="38.819270012900233" lon="-0.229540010914207">
        <ele>313.10546875</ele>
        <time>2017-12-25T09:22:23Z</time>
      </trkpt>
      <trkpt lat="38.819249980151653" lon="-0.229489970952272">
        <ele>313.00390625</ele>
        <time>2017-12-25T09:24:23Z</time>
      </trkpt>
      <trkpt lat="38.819230031222105" lon="-0.229459963738918">
        <ele>312.8203125</ele>
        <time>2017-12-25T09:26:23Z</time>
      </trkpt>
      <trkpt lat="38.819200024008751" lon="-0.22941998206079">
        <ele>312.56640625</ele>
        <time>2017-12-25T09:28:23Z</time>
      </trkpt>
      <trkpt lat="38.819170016795397" lon="-0.229380000382662">
        <ele>312.13671875</ele>
        <time>2017-12-25T09:30:23Z</time>
      </trkpt>
      <trkpt lat="38.819119976833463" lon="-0.229340018704534">
        <ele>311.51171875</ele>
        <time>2017-12-25T09:32:23Z</time>
      </trkpt>
      <trkpt lat="38.81904998794198" lon="-0.229289978742599">
        <ele>311.08984375</ele>
        <time>2017-12-25T09:34:23Z</time>
      </trkpt>
      <trkpt lat="38.818959966301918" lon="-0.229240022599697">
        <ele>311.37109375</ele>
        <time>2017-12-25T09:36:23Z</time>
      </trkpt>
      <trkpt lat="38.81894001737237" lon="-0.229229964315891">
        <ele>311.43359375</ele>
        <time>2017-12-25T09:38:23Z</time>
      </trkpt>
      <trkpt lat="38.818829962983727" lon="-0.229159975424409">
        <ele>311.14453125</ele>
        <time>2017-12-25T09:40:23Z</time>
      </trkpt>
      <trkpt lat="38.818749999627471" lon="-0.229099960997701">
        <ele>310.71484375</ele>
        <time>2017-12-25T09:42:23Z</time>
      </trkpt>
      <trkpt lat="38.818689985200763" lon="-0.229040030390024">
        <ele>310.3203125</ele>
        <time>2017-12-25T09:44:23Z</time>
      </trkpt>
      <trkpt lat="38.818650003522635" lon="-0.228999964892864">
        <ele>310.39453125</ele>
        <time>2017-12-25T09:46:23Z</time>
      </trkpt>
      <trkpt lat="38.818610021844506" lon="-0.228959983214736">
        <ele>310.67578125</ele>
        <time>2017-12-25T09:48:23Z</time>
      </trkpt>
      <trkpt lat="38.818580014631152" lon="-0.228920001536608">
        <ele>310.7265625</ele>
        <time>2017-12-25T09:50:23Z</time>
      </trkpt>
      <trkpt lat="38.818559981882572" lon="-0.228869961574674">
        <ele>310.546875</ele>
        <time>2017-12-25T09:52:23Z</time>
      </trkpt>
      <trkpt lat="38.818540032953024" lon="-0.228840038180351">
        <ele>310.5859375</ele>
        <time>2017-12-25T09:54:23Z</time>
      </trkpt>
      <trkpt lat="38.818540032953024" lon="-0.228829979896545">
        <ele>310.60546875</ele>
        <time>2017-12-25T09:56:23Z</time>
      </trkpt>
      <trkpt lat="38.818529974669218" lon="-0.228789998218417">
        <ele>310.828125</ele>
        <time>2017-12-25T09:58:23Z</time>
      </trkpt>
      <trkpt lat="38.818529974669218" lon="-0.228739958256483">
        <ele>311.0390625</ele>
        <time>2017-12-25T10:00:23Z</time>
      </trkpt>
      <trkpt lat="38.818529974669218" lon="-0.228699976578355">
        <ele>311.4375</ele>
        <time>2017-12-25T10:02:23Z</time>
      </trkpt>
      <trkpt lat="38.818540032953024" lon="-0.228650020435452">
        <ele>311.75390625</ele>
        <time>2017-12-25T10:04:23Z</time>
      </trkpt>
      <trkpt lat="38.818570040166378" lon="-0.228599980473518">
        <ele>311.578125</ele>
        <time>2017-12-25T10:06:23Z</time>
      </trkpt>
      <trkpt lat="38.8185999635607" lon="-0.228569973260164">
        <ele>311.28125</ele>
        <time>2017-12-25T10:08:23Z</time>
      </trkpt>
      <trkpt lat="38.818629970774055" lon="-0.228529991582036">
        <ele>311.1640625</ele>
        <time>2017-12-25T10:10:23Z</time>
      </trkpt>
      <trkpt lat="38.818670036271214" lon="-0.228490009903908">
        <ele>310.9453125</ele>
        <time>2017-12-25T10:12:23Z</time>
      </trkpt>
      <trkpt lat="38.818729966878891" lon="-0.22845002822578">
        <ele>310.76953125</ele>
        <time>2017-12-25T10:14:23Z</time>
      </trkpt>
      <trkpt lat="38.818870028480887" lon="-0.228369981050491">
        <ele>310.40234375</ele>
        <time>2017-12-25T10:16:23Z</time>
      </trkpt>
      <trkpt lat="38.819200024008751" lon="-0.228190021589398">
        <ele>312.67578125</ele>
        <time>2017-12-25T10:18:23Z</time>
      </trkpt>
      <trkpt lat="38.819249980151653" lon="-0.228139981627464">
        <ele>313.0078125</ele>
        <time>2017-12-25T10:20:23Z</time>
      </trkpt>
      <trkpt lat="38.819260038435459" lon="-0.228120032697916">
        <ele>313.21875</ele>
        <time>2017-12-25T10:22:23Z</time>
      </trkpt>
      <trkpt lat="38.819300020113587" lon="-0.228049959987402">
        <ele>313.4453125</ele>
        <time>2017-12-25T10:24:23Z</time>
      </trkpt>
      <trkpt lat="38.819330027326941" lon="-0.227990029379725">
        <ele>313.46484375</ele>
        <time>2017-12-25T10:26:23Z</time>
      </trkpt>
      <trkpt lat="38.81934997625649" lon="-0.227909982204437">
        <ele>313.6875</ele>
        <time>2017-12-25T10:28:23Z</time>
      </trkpt>
      <trkpt lat="38.81934997625649" lon="-0.227849967777729">
        <ele>313.6875</ele>
        <time>2017-12-25T10:30:23Z</time>
      </trkpt>
      <trkpt lat="38.81934997625649" lon="-0.227770004421473">
        <ele>313.890625</ele>
        <time>2017-12-25T10:32:23Z</time>
      </trkpt>
      <trkpt lat="38.819340001791716" lon="-0.227709989994764">
        <ele>314.4453125</ele>
        <time>2017-12-25T10:34:23Z</time>
      </trkpt>
      <trkpt lat="38.819200024008751" lon="-0.227029966190457">
        <ele>317.47265625</ele>
        <time>2017-12-25T10:36:23Z</time>
      </trkpt>
      <trkpt lat="38.819159958511591" lon="-0.226780017837882">
        <ele>316.9765625</ele>
        <time>2017-12-25T10:38:23Z</time>
      </trkpt>
      <trkpt lat="38.819130035117269" lon="-0.226640040054917">
        <ele>315.87890625</ele>
        <time>2017-12-25T10:40:23Z</time>
      </trkpt>
      <trkpt lat="38.819100027903914" lon="-0.226529985666275">
        <ele>315.15234375</ele>
        <time>2017-12-25T10:42:23Z</time>
      </trkpt>
      <trkpt lat="38.81907002069056" lon="-0.226459996774793">
        <ele>315.1484375</ele>
        <time>2017-12-25T10:44:23Z</time>
      </trkpt>
      <trkpt lat="38.819030039012432" lon="-0.226360000669956">
        <ele>315.828125</ele>
        <time>2017-12-25T10:46:23Z</time>
      </trkpt>
      <trkpt lat="38.81894001737237" lon="-0.226190015673637">
        <ele>316.2890625</ele>
        <time>2017-12-25T10:48:23Z</time>
      </trkpt>
      <trkpt lat="38.818889977410436" lon="-0.226099994033575">
        <ele>317.4140625</ele>
        <time>2017-12-25T10:50:23Z</time>
      </trkpt>
      <trkpt lat="38.818870028480887" lon="-0.226039979606867">
        <ele>317.8828125</ele>
        <time>2017-12-25T10:52:23Z</time>
      </trkpt>
      <trkpt lat="38.818849995732307" lon="-0.225990023463964">
        <ele>318.18359375</ele>
        <time>2017-12-25T10:54:23Z</time>
      </trkpt>
      <trkpt lat="38.818829962983727" lon="-0.225930009037256">
        <ele>318.4453125</ele>
        <time>2017-12-25T10:56:23Z</time>
      </trkpt>
      <trkpt lat="38.818810014054179" lon="-0.225860020145774">
        <ele>318.70703125</ele>
        <time>2017-12-25T10:58:23Z</time>
      </trkpt>
      <trkpt lat="38.818800039589405" lon="-0.225790031254292">
        <ele>318.83984375</ele>
        <time>2017-12-25T11:00:23Z</time>
      </trkpt>
      <trkpt lat="38.818789981305599" lon="-0.225730016827583">
        <ele>318.8515625</ele>
        <time>2017-12-25T11:02:23Z</time>
      </trkpt>
      <trkpt lat="38.818800039589405" lon="-0.225670002400875">
        <ele>318.46484375</ele>
        <time>2017-12-25T11:04:23Z</time>
      </trkpt>
      <trkpt lat="38.818800039589405" lon="-0.225609987974167">
        <ele>317.95703125</ele>
        <time>2017-12-25T11:06:23Z</time>
      </trkpt>
      <trkpt lat="38.818819988518953" lon="-0.225460035726428">
        <ele>318.9375</ele>
        <time>2017-12-25T11:08:23Z</time>
      </trkpt>
      <trkpt lat="38.818840021267533" lon="-0.225300025194883">
        <ele>319.08203125</ele>
        <time>2017-12-25T11:10:23Z</time>
      </trkpt>
      <trkpt lat="38.818849995732307" lon="-0.225200029090047">
        <ele>319.2421875</ele>
        <time>2017-12-25T11:12:23Z</time>
      </trkpt>
      <trkpt lat="38.818849995732307" lon="-0.225189970806241">
        <ele>319.2734375</ele>
        <time>2017-12-25T11:14:23Z</time>
      </trkpt>
      <trkpt lat="38.818870028480887" lon="-0.225049993023276">
        <ele>321.14453125</ele>
        <time>2017-12-25T11:16:23Z</time>
      </trkpt>
      <trkpt lat="38.818900035694242" lon="-0.224919989705086">
        <ele>322.140625</ele>
        <time>2017-12-25T11:18:23Z</time>
      </trkpt>
      <trkpt lat="38.81894001737237" lon="-0.224750004708767">
        <ele>320.859375</ele>
        <time>2017-12-25T11:20:23Z</time>
      </trkpt>
      <trkpt lat="38.818989973515272" lon="-0.224620001390576">
        <ele>320.671875</ele>
        <time>2017-12-25T11:22:23Z</time>
      </trkpt>
      <trkpt lat="38.819010006263852" lon="-0.224550012499094">
        <ele>320.78515625</ele>
        <time>2017-12-25T11:24:23Z</time>
      </trkpt>
      <trkpt lat="38.819030039012432" lon="-0.22449997253716">
        <ele>320.94140625</ele>
        <time>2017-12-25T11:26:23Z</time>
      </trkpt>
      <trkpt lat="38.81904998794198" lon="-0.224439958110452">
        <ele>320.8515625</ele>
        <time>2017-12-25T11:28:23Z</time>
      </trkpt>
      <trkpt lat="38.81907002069056" lon="-0.224410034716129">
        <ele>320.51953125</ele>
        <time>2017-12-25T11:30:23Z</time>
      </trkpt>
      <trkpt lat="38.819089969620109" lon="-0.224380027502775">
        <ele>320.05859375</ele>
        <time>2017-12-25T11:32:23Z</time>
      </trkpt>
      <trkpt lat="38.819119976833463" lon="-0.224350020289421">
        <ele>319.26953125</ele>
        <time>2017-12-25T11:34:23Z</time>
      </trkpt>
      <trkpt lat="38.819149984046817" lon="-0.224329987540841">
        <ele>318.63671875</ele>
        <time>2017-12-25T11:36:23Z</time>
      </trkpt>
      <trkpt lat="38.819179991260171" lon="-0.224320013076067">
        <ele>318.04296875</ele>
        <time>2017-12-25T11:38:23Z</time>
      </trkpt>
      <trkpt lat="38.819219972938299" lon="-0.224320013076067">
        <ele>317.26953125</ele>
        <time>2017-12-25T11:40:23Z</time>
      </trkpt>
      <trkpt lat="38.819270012900233" lon="-0.224329987540841">
        <ele>316.77734375</ele>
        <time>2017-12-25T11:42:23Z</time>
      </trkpt>
      <trkpt lat="38.819300020113587" lon="-0.224339962005615">
        <ele>316.48046875</ele>
        <time>2017-12-25T11:44:23Z</time>
      </trkpt>
      <trkpt lat="38.81934997625649" lon="-0.224359994754195">
        <ele>316.50390625</ele>
        <time>2017-12-25T11:46:23Z</time>
      </trkpt>
      <trkpt lat="38.819460030645132" lon="-0.224410034716129">
        <ele>316.78125</ele>
        <time>2017-12-25T11:48:23Z</time>
      </trkpt>
      <trkpt lat="38.819739986211061" lon="-0.224550012499094">
        <ele>314.8203125</ele>
        <time>2017-12-25T11:50:23Z</time>
      </trkpt>
      <trkpt lat="38.819860015064478" lon="-0.224599968641996">
        <ele>312.4140625</ele>
        <time>2017-12-25T11:52:23Z</time>
      </trkpt>
      <trkpt lat="38.81990997120738" lon="-0.224610026925802">
        <ele>311.6328125</ele>
        <time>2017-12-25T11:54:23Z</time>
      </trkpt>
      <trkpt lat="38.819960011169314" lon="-0.224620001390576">
        <ele>310.89453125</ele>
        <time>2017-12-25T11:56:23Z</time>
      </trkpt>
      <trkpt lat="38.820009967312217" lon="-0.22462997585535">
        <ele>310.7109375</ele>
        <time>2017-12-25T11:58:23Z</time>
      </trkpt>
      <trkpt lat="38.820069981738925" lon="-0.22462997585535">
        <ele>310.83984375</ele>
        <time>2017-12-25T12:00:23Z</time>
      </trkpt>
      <trkpt lat="38.820139970630407" lon="-0.22462997585535">
        <ele>311.0703125</ele>
        <time>2017-12-25T12:02:23Z</time>
      </trkpt>
      <trkpt lat="38.820150028914213" lon="-0.22462997585535">
        <ele>311.05078125</ele>
        <time>2017-12-25T12:04:23Z</time>
      </trkpt>
      <trkpt lat="38.820190010592341" lon="-0.224620001390576">
        <ele>311.1015625</ele>
        <time>2017-12-25T12:06:23Z</time>
      </trkpt>
      <trkpt lat="38.82025002501905" lon="-0.224589994177222">
        <ele>311.5859375</ele>
        <time>2017-12-25T12:08:23Z</time>
      </trkpt>
      <trkpt lat="38.820269973948598" lon="-0.224580019712448">
        <ele>311.71484375</ele>
        <time>2017-12-25T12:10:23Z</time>
      </trkpt>
      <trkpt lat="38.820320013910532" lon="-0.224550012499094">
        <ele>312.078125</ele>
        <time>2017-12-25T12:12:23Z</time>
      </trkpt>
      <trkpt lat="38.820450017228723" lon="-0.224469965323806">
        <ele>311.43359375</ele>
        <time>2017-12-25T12:14:23Z</time>
      </trkpt>
      <trkpt lat="38.820640034973621" lon="-0.224339962005615">
        <ele>309.78125</ele>
        <time>2017-12-25T12:16:23Z</time>
      </trkpt>
      <trkpt lat="38.820799961686134" lon="-0.224239965900779">
        <ele>308.8125</ele>
        <time>2017-12-25T12:18:23Z</time>
      </trkpt>
      <trkpt lat="38.820970030501485" lon="-0.224129995331168">
        <ele>308.92578125</ele>
        <time>2017-12-25T12:20:23Z</time>
      </trkpt>
      <trkpt lat="38.821289967745543" lon="-0.223930003121495">
        <ele>309.36328125</ele>
        <time>2017-12-25T12:22:23Z</time>
      </trkpt>
      <trkpt lat="38.821449978277087" lon="-0.223839981481433">
        <ele>309.953125</ele>
        <time>2017-12-25T12:24:23Z</time>
      </trkpt>
      <trkpt lat="38.82151996716857" lon="-0.223790025338531">
        <ele>309.98828125</ele>
        <time>2017-12-25T12:26:23Z</time>
      </trkpt>
      <trkpt lat="38.821549974381924" lon="-0.223749959841371">
        <ele>310.2421875</ele>
        <time>2017-12-25T12:28:23Z</time>
      </trkpt>
      <trkpt lat="38.821590039879084" lon="-0.223709978163242">
        <ele>310.33203125</ele>
        <time>2017-12-25T12:30:23Z</time>
      </trkpt>
      <trkpt lat="38.821630021557212" lon="-0.22366002202034">
        <ele>310.22265625</ele>
        <time>2017-12-25T12:32:23Z</time>
      </trkpt>
      <trkpt lat="38.82164997048676" lon="-0.223609982058406">
        <ele>310.02734375</ele>
        <time>2017-12-25T12:34:23Z</time>
      </trkpt>
      <trkpt lat="38.82167000323534" lon="-0.223570000380278">
        <ele>309.828125</ele>
        <time>2017-12-25T12:36:23Z</time>
      </trkpt>
      <trkpt lat="38.82169003598392" lon="-0.223500011488795">
        <ele>310.296875</ele>
        <time>2017-12-25T12:38:23Z</time>
      </trkpt>
      <trkpt lat="38.821709984913468" lon="-0.223409989848733">
        <ele>310.60546875</ele>
        <time>2017-12-25T12:40:23Z</time>
      </trkpt>
      <trkpt lat="38.821739992126822" lon="-0.223249979317188">
        <ele>310.125</ele>
        <time>2017-12-25T12:42:23Z</time>
      </trkpt>
      <trkpt lat="38.821749966591597" lon="-0.223119975998998">
        <ele>309.92578125</ele>
        <time>2017-12-25T12:44:23Z</time>
      </trkpt>
      <trkpt lat="38.821769999340177" lon="-0.223030038177967">
        <ele>309.24609375</ele>
        <time>2017-12-25T12:46:23Z</time>
      </trkpt>
      <trkpt lat="38.821769999340177" lon="-0.222959965467453">
        <ele>309.1796875</ele>
        <time>2017-12-25T12:48:23Z</time>
      </trkpt>
      <trkpt lat="38.821760024875402" lon="-0.222889976575971">
        <ele>309.1953125</ele>
        <time>2017-12-25T12:50:23Z</time>
      </trkpt>
      <trkpt lat="38.821749966591597" lon="-0.222840020433068">
        <ele>309.015625</ele>
        <time>2017-12-25T12:52:23Z</time>
      </trkpt>
      <trkpt lat="38.821739992126822" lon="-0.22278000600636">
        <ele>308.55078125</ele>
        <time>2017-12-25T12:54:23Z</time>
      </trkpt>
      <trkpt lat="38.821719959378242" lon="-0.222740024328232">
        <ele>308.45703125</ele>
        <time>2017-12-25T12:56:23Z</time>
      </trkpt>
      <trkpt lat="38.821679977700114" lon="-0.222680009901524">
        <ele>307.59765625</ele>
        <time>2017-12-25T12:58:23Z</time>
      </trkpt>
      <trkpt lat="38.821630021557212" lon="-0.22262996993959">
        <ele>307.7109375</ele>
        <time>2017-12-25T13:00:23Z</time>
      </trkpt>
      <trkpt lat="38.821579981595278" lon="-0.222580013796687">
        <ele>308.0703125</ele>
        <time>2017-12-25T13:02:23Z</time>
      </trkpt>
      <trkpt lat="38.821500018239021" lon="-0.222519999369979">
        <ele>308.13671875</ele>
        <time>2017-12-25T13:04:23Z</time>
      </trkpt>
      <trkpt lat="38.821230037137866" lon="-0.222289999946952">
        <ele>302.890625</ele>
        <time>2017-12-25T13:06:23Z</time>
      </trkpt>
      <trkpt lat="38.82111000828445" lon="-0.222180029377341">
        <ele>302.1328125</ele>
        <time>2017-12-25T13:08:23Z</time>
      </trkpt>
      <trkpt lat="38.821100033819675" lon="-0.222169971093535">
        <ele>302.125</ele>
        <time>2017-12-25T13:10:23Z</time>
      </trkpt>
      <trkpt lat="38.821070026606321" lon="-0.222139963880181">
        <ele>302.25</ele>
        <time>2017-12-25T13:12:23Z</time>
      </trkpt>
      <trkpt lat="38.821049993857741" lon="-0.222110040485859">
        <ele>302.31640625</ele>
        <time>2017-12-25T13:14:23Z</time>
      </trkpt>
      <trkpt lat="38.821029961109161" lon="-0.222090007737279">
        <ele>302.42578125</ele>
        <time>2017-12-25T13:16:23Z</time>
      </trkpt>
      <trkpt lat="38.821010012179613" lon="-0.222060000523925">
        <ele>302.44921875</ele>
        <time>2017-12-25T13:18:23Z</time>
      </trkpt>
      <trkpt lat="38.820989979431033" lon="-0.222009960561991">
        <ele>302.28515625</ele>
        <time>2017-12-25T13:20:23Z</time>
      </trkpt>
      <trkpt lat="38.820980004966259" lon="-0.221960004419088">
        <ele>301.94921875</ele>
        <time>2017-12-25T13:22:23Z</time>
      </trkpt>
      <trkpt lat="38.820980004966259" lon="-0.221929997205734">
        <ele>301.65234375</ele>
        <time>2017-12-25T13:24:23Z</time>
      </trkpt>
      <trkpt lat="38.820980004966259" lon="-0.221909964457154">
        <ele>301.44921875</ele>
        <time>2017-12-25T13:26:23Z</time>
      </trkpt>
      <trkpt lat="38.820989979431033" lon="-0.221869982779026">
        <ele>300.796875</ele>
        <time>2017-12-25T13:28:23Z</time>
      </trkpt>
      <trkpt lat="38.821000037714839" lon="-0.221820026636124">
        <ele>300.1015625</ele>
        <time>2017-12-25T13:30:23Z</time>
      </trkpt>
      <trkpt lat="38.821040019392967" lon="-0.221730004996061">
        <ele>299.16796875</ele>
        <time>2017-12-25T13:32:23Z</time>
      </trkpt>
      <trkpt lat="38.82111000828445" lon="-0.221600001677871">
        <ele>297.96484375</ele>
        <time>2017-12-25T13:34:23Z</time>
      </trkpt>
      <trkpt lat="38.821159964427352" lon="-0.221530012786388">
        <ele>297.7734375</ele>
        <time>2017-12-25T13:36:23Z</time>
      </trkpt>
      <trkpt lat="38.821379989385605" lon="-0.221249973401427">
        <ele>298.11328125</ele>
        <time>2017-12-25T13:38:23Z</time>
      </trkpt>
      <trkpt lat="38.821400022134185" lon="-0.221219966188073">
        <ele>298.25</ele>
        <time>2017-12-25T13:40:23Z</time>
      </trkpt>
      <trkpt lat="38.821419971063733" lon="-0.221209991723299">
        <ele>298.265625</ele>
        <time>2017-12-25T13:42:23Z</time>
      </trkpt>
      <trkpt lat="38.821440003812313" lon="-0.221189958974719">
        <ele>298.30078125</ele>
        <time>2017-12-25T13:44:23Z</time>
      </trkpt>
      <trkpt lat="38.821479985490441" lon="-0.221179984509945">
        <ele>298.28125</ele>
        <time>2017-12-25T13:46:23Z</time>
      </trkpt>
      <trkpt lat="38.82151996716857" lon="-0.221170010045171">
        <ele>298.171875</ele>
        <time>2017-12-25T13:48:23Z</time>
      </trkpt>
      <trkpt lat="38.821570007130504" lon="-0.221170010045171">
        <ele>298.38671875</ele>
        <time>2017-12-25T13:50:23Z</time>
      </trkpt>
      <trkpt lat="38.821609988808632" lon="-0.221170010045171">
        <ele>298.63671875</ele>
        <time>2017-12-25T13:52:23Z</time>
      </trkpt>
      <trkpt lat="38.82164997048676" lon="-0.221170010045171">
        <ele>298.8046875</ele>
        <time>2017-12-25T13:54:23Z</time>
      </trkpt>
      <trkpt lat="38.821700010448694" lon="-0.221179984509945">
        <ele>298.9609375</ele>
        <time>2017-12-25T13:56:23Z</time>
      </trkpt>
      <trkpt lat="38.821760024875402" lon="-0.221209991723299">
        <ele>299.00390625</ele>
        <time>2017-12-25T13:58:23Z</time>
      </trkpt>
      <trkpt lat="38.821830013766885" lon="-0.221230024471879">
        <ele>299.00390625</ele>
        <time>2017-12-25T14:00:23Z</time>
      </trkpt>
      <trkpt lat="38.821879969909787" lon="-0.221230024471879">
        <ele>299.00390625</ele>
        <time>2017-12-25T14:02:23Z</time>
      </trkpt>
      <trkpt lat="38.821900002658367" lon="-0.221219966188073">
        <ele>299.00390625</ele>
        <time>2017-12-25T14:04:23Z</time>
      </trkpt>
      <trkpt lat="38.821930009871721" lon="-0.221200017258525">
        <ele>299.19140625</ele>
        <time>2017-12-25T14:06:23Z</time>
      </trkpt>
      <trkpt lat="38.82194995880127" lon="-0.221179984509945">
        <ele>299.3203125</ele>
        <time>2017-12-25T14:08:23Z</time>
      </trkpt>
      <trkpt lat="38.821979966014624" lon="-0.221149977296591">
        <ele>299.6328125</ele>
        <time>2017-12-25T14:10:23Z</time>
      </trkpt>
      <trkpt lat="38.821999998763204" lon="-0.221109995618463">
        <ele>300.140625</ele>
        <time>2017-12-25T14:12:23Z</time>
      </trkpt>
      <trkpt lat="38.822039980441332" lon="-0.221030032262206">
        <ele>300.87109375</ele>
        <time>2017-12-25T14:14:23Z</time>
      </trkpt>
      <trkpt lat="38.822069987654686" lon="-0.220940010622144">
        <ele>301.27734375</ele>
        <time>2017-12-25T14:16:23Z</time>
      </trkpt>
      <trkpt lat="38.822069987654686" lon="-0.22093003615737">
        <ele>301.31640625</ele>
        <time>2017-12-25T14:18:23Z</time>
      </trkpt>
      <trkpt lat="38.82207996211946" lon="-0.220870021730661">
        <ele>301.41796875</ele>
        <time>2017-12-25T14:20:23Z</time>
      </trkpt>
      <trkpt lat="38.82207996211946" lon="-0.220810007303953">
        <ele>301.21875</ele>
        <time>2017-12-25T14:22:23Z</time>
      </trkpt>
      <trkpt lat="38.822069987654686" lon="-0.220759967342019">
        <ele>300.9375</ele>
        <time>2017-12-25T14:24:23Z</time>
      </trkpt>
      <trkpt lat="38.822060013189912" lon="-0.220719985663891">
        <ele>300.72265625</ele>
        <time>2017-12-25T14:26:23Z</time>
      </trkpt>
      <trkpt lat="38.822039980441332" lon="-0.220670029520988">
        <ele>300.50390625</ele>
        <time>2017-12-25T14:28:23Z</time>
      </trkpt>
      <trkpt lat="38.822009973227978" lon="-0.220600040629506">
        <ele>299.99609375</ele>
        <time>2017-12-25T14:30:23Z</time>
      </trkpt>
      <trkpt lat="38.82196999154985" lon="-0.220499960705638">
        <ele>299.640625</ele>
        <time>2017-12-25T14:32:23Z</time>
      </trkpt>
      <trkpt lat="38.821920035406947" lon="-0.220399964600801">
        <ele>300.296875</ele>
        <time>2017-12-25T14:34:23Z</time>
      </trkpt>
      <trkpt lat="38.821900002658367" lon="-0.220340033993125">
        <ele>300.32421875</ele>
        <time>2017-12-25T14:36:23Z</time>
      </trkpt>
      <trkpt lat="38.821869995445013" lon="-0.220259986817837">
        <ele>300.3671875</ele>
        <time>2017-12-25T14:38:23Z</time>
      </trkpt>
      <trkpt lat="38.821869995445013" lon="-0.220159990713">
        <ele>299.90234375</ele>
        <time>2017-12-25T14:40:23Z</time>
      </trkpt>
      <trkpt lat="38.821879969909787" lon="-0.220110034570098">
        <ele>299.6640625</ele>
        <time>2017-12-25T14:42:23Z</time>
      </trkpt>
      <trkpt lat="38.821890028193593" lon="-0.220059994608164">
        <ele>299.5</ele>
        <time>2017-12-25T14:44:23Z</time>
      </trkpt>
      <trkpt lat="38.821920035406947" lon="-0.220020012930036">
        <ele>299.16796875</ele>
        <time>2017-12-25T14:46:23Z</time>
      </trkpt>
      <trkpt lat="38.82194995880127" lon="-0.219980031251907">
        <ele>299.07421875</ele>
        <time>2017-12-25T14:48:23Z</time>
      </trkpt>
      <trkpt lat="38.821979966014624" lon="-0.219959998503327">
        <ele>299.04296875</ele>
        <time>2017-12-25T14:50:23Z</time>
      </trkpt>
      <trkpt lat="38.822009973227978" lon="-0.219950024038553">
        <ele>299.03515625</ele>
        <time>2017-12-25T14:52:23Z</time>
      </trkpt>
      <trkpt lat="38.822060013189912" lon="-0.219950024038553">
        <ele>299.05078125</ele>
        <time>2017-12-25T14:54:23Z</time>
      </trkpt>
      <trkpt lat="38.82209999486804" lon="-0.219950024038553">
        <ele>299.07421875</ele>
        <time>2017-12-25T14:56:23Z</time>
      </trkpt>
      <trkpt lat="38.822150034829974" lon="-0.219969972968102">
        <ele>298.890625</ele>
        <time>2017-12-25T14:58:23Z</time>
      </trkpt>
      <trkpt lat="38.822190016508102" lon="-0.219990005716681">
        <ele>298.8125</ele>
        <time>2017-12-25T15:00:23Z</time>
      </trkpt>
      <trkpt lat="38.822260005399585" lon="-0.220020012930036">
        <ele>299.10546875</ele>
        <time>2017-12-25T15:02:23Z</time>
      </trkpt>
      <trkpt lat="38.822290012612939" lon="-0.220039961859584">
        <ele>298.96484375</ele>
        <time>2017-12-25T15:04:23Z</time>
      </trkpt>
      <trkpt lat="38.822320019826293" lon="-0.22005002014339">
        <ele>298.8828125</ele>
        <time>2017-12-25T15:06:23Z</time>
      </trkpt>
      <trkpt lat="38.822350027039647" lon="-0.22005002014339">
        <ele>298.984375</ele>
        <time>2017-12-25T15:08:23Z</time>
      </trkpt>
      <trkpt lat="38.822399983182549" lon="-0.220059994608164">
        <ele>298.56640625</ele>
        <time>2017-12-25T15:10:23Z</time>
      </trkpt>
      <trkpt lat="38.822480030357838" lon="-0.220059994608164">
        <ele>297.890625</ele>
        <time>2017-12-25T15:12:23Z</time>
      </trkpt>
      <trkpt lat="38.822629982605577" lon="-0.220059994608164">
        <ele>296.1796875</ele>
        <time>2017-12-25T15:14:23Z</time>
      </trkpt>
      <trkpt lat="38.822769960388541" lon="-0.220059994608164">
        <ele>295.5390625</ele>
        <time>2017-12-25T15:16:23Z</time>
      </trkpt>
      <trkpt lat="38.822840033099055" lon="-0.220059994608164">
        <ele>295.23828125</ele>
        <time>2017-12-25T15:18:23Z</time>
      </trkpt>
      <trkpt lat="38.822899963706732" lon="-0.220069969072938">
        <ele>295.2265625</ele>
        <time>2017-12-25T15:20:23Z</time>
      </trkpt>
      <trkpt lat="38.82298001088202" lon="-0.220080027356744">
        <ele>296.22265625</ele>
        <time>2017-12-25T15:22:23Z</time>
      </trkpt>
      <trkpt lat="38.823100039735436" lon="-0.220099976286292">
        <ele>297.453125</ele>
        <time>2017-12-25T15:24:23Z</time>
      </trkpt>
      <trkpt lat="38.823170028626919" lon="-0.220110034570098">
        <ele>296.875</ele>
        <time>2017-12-25T15:26:23Z</time>
      </trkpt>
      <trkpt lat="38.823219984769821" lon="-0.220110034570098">
        <ele>296.53125</ele>
        <time>2017-12-25T15:28:23Z</time>
      </trkpt>
      <trkpt lat="38.823229959234595" lon="-0.220110034570098">
        <ele>296.421875</ele>
        <time>2017-12-25T15:30:23Z</time>
      </trkpt>
      <trkpt lat="38.823270024731755" lon="-0.220099976286292">
        <ele>296.3828125</ele>
        <time>2017-12-25T15:32:23Z</time>
      </trkpt>
      <trkpt lat="38.823310006409883" lon="-0.220099976286292">
        <ele>295.859375</ele>
        <time>2017-12-25T15:34:23Z</time>
      </trkpt>
      <trkpt lat="38.823349988088012" lon="-0.220080027356744">
        <ele>296.015625</ele>
        <time>2017-12-25T15:36:23Z</time>
      </trkpt>
      <trkpt lat="38.82338996976614" lon="-0.220059994608164">
        <ele>296.09765625</ele>
        <time>2017-12-25T15:38:23Z</time>
      </trkpt>
      <trkpt lat="38.823449984192848" lon="-0.220020012930036">
        <ele>295.921875</ele>
        <time>2017-12-25T15:40:23Z</time>
      </trkpt>
      <trkpt lat="38.823519973084331" lon="-0.219959998503327">
        <ele>295.34375</ele>
        <time>2017-12-25T15:42:23Z</time>
      </trkpt>
      <trkpt lat="38.823660034686327" lon="-0.219820020720363">
        <ele>296.09375</ele>
        <time>2017-12-25T15:44:23Z</time>
      </trkpt>
      <trkpt lat="38.823830019682646" lon="-0.219639977440238">
        <ele>294.3125</ele>
        <time>2017-12-25T15:46:23Z</time>
      </trkpt>
      <trkpt lat="38.823939990252256" lon="-0.219520032405853">
        <ele>293.546875</ele>
        <time>2017-12-25T15:48:23Z</time>
      </trkpt>
      <trkpt lat="38.824030011892319" lon="-0.219390029087663">
        <ele>294.82421875</ele>
        <time>2017-12-25T15:50:23Z</time>
      </trkpt>
      <trkpt lat="38.824090026319027" lon="-0.2193000074476">
        <ele>294.87890625</ele>
        <time>2017-12-25T15:52:23Z</time>
      </trkpt>
      <trkpt lat="38.824130007997155" lon="-0.219200011342764">
        <ele>295.29296875</ele>
        <time>2017-12-25T15:54:23Z</time>
      </trkpt>
      <trkpt lat="38.824150040745735" lon="-0.219139996916056">
        <ele>296.05859375</ele>
        <time>2017-12-25T15:56:23Z</time>
      </trkpt>
      <trkpt lat="38.824169989675283" lon="-0.219060033559799">
        <ele>296.62890625</ele>
        <time>2017-12-25T15:58:23Z</time>
      </trkpt>
      <trkpt lat="38.824190022423863" lon="-0.218960037454963">
        <ele>296.40625</ele>
        <time>2017-12-25T16:00:23Z</time>
      </trkpt>
      <trkpt lat="38.824209971353412" lon="-0.21884998306632">
        <ele>296.4609375</ele>
        <time>2017-12-25T16:02:23Z</time>
      </trkpt>
      <trkpt lat="38.824239978566766" lon="-0.218730038031936">
        <ele>295.13671875</ele>
        <time>2017-12-25T16:04:23Z</time>
      </trkpt>
      <trkpt lat="38.824330000206828" lon="-0.217999974265695">
        <ele>292.05078125</ele>
        <time>2017-12-25T16:06:23Z</time>
      </trkpt>
      <trkpt lat="38.824390014633536" lon="-0.217469986528158">
        <ele>290.0859375</ele>
        <time>2017-12-25T16:08:23Z</time>
      </trkpt>
      <trkpt lat="38.82442002184689" lon="-0.217269994318485">
        <ele>289.29296875</ele>
        <time>2017-12-25T16:10:23Z</time>
      </trkpt>
      <trkpt lat="38.824450029060245" lon="-0.217149965465069">
        <ele>289.00390625</ele>
        <time>2017-12-25T16:12:23Z</time>
      </trkpt>
      <trkpt lat="38.824460003525019" lon="-0.217109983786941">
        <ele>289.00390625</ele>
        <time>2017-12-25T16:14:23Z</time>
      </trkpt>
      <trkpt lat="38.824480036273599" lon="-0.217060027644038">
        <ele>288.8671875</ele>
        <time>2017-12-25T16:16:23Z</time>
      </trkpt>
      <trkpt lat="38.824499985203147" lon="-0.217009987682104">
        <ele>288.84765625</ele>
        <time>2017-12-25T16:18:23Z</time>
      </trkpt>
      <trkpt lat="38.824529992416501" lon="-0.216970006003976">
        <ele>288.69921875</ele>
        <time>2017-12-25T16:20:23Z</time>
      </trkpt>
      <trkpt lat="38.824569974094629" lon="-0.216909991577268">
        <ele>288.4375</ele>
        <time>2017-12-25T16:22:23Z</time>
      </trkpt>
      <trkpt lat="38.824659995734692" lon="-0.216800021007657">
        <ele>287.671875</ele>
        <time>2017-12-25T16:24:23Z</time>
      </trkpt>
      <trkpt lat="38.824899969622493" lon="-0.216500032693148">
        <ele>287.85546875</ele>
        <time>2017-12-25T16:26:23Z</time>
      </trkpt>
      <trkpt lat="38.825019998475909" lon="-0.216349996626377">
        <ele>287.6953125</ele>
        <time>2017-12-25T16:28:23Z</time>
      </trkpt>
      <trkpt lat="38.825059980154037" lon="-0.216300040483475">
        <ele>287.7734375</ele>
        <time>2017-12-25T16:30:23Z</time>
      </trkpt>
      <trkpt lat="38.825089987367392" lon="-0.216259974986315">
        <ele>287.88671875</ele>
        <time>2017-12-25T16:32:23Z</time>
      </trkpt>
      <trkpt lat="38.825119994580746" lon="-0.216210018843412">
        <ele>288.08984375</ele>
        <time>2017-12-25T16:34:23Z</time>
      </trkpt>
      <trkpt lat="38.825140027329326" lon="-0.216159978881478">
        <ele>288.33984375</ele>
        <time>2017-12-25T16:36:23Z</time>
      </trkpt>
      <trkpt lat="38.825159976258874" lon="-0.21611999720335">
        <ele>288.015625</ele>
        <time>2017-12-25T16:38:23Z</time>
      </trkpt>
      <trkpt lat="38.825180009007454" lon="-0.216070041060448">
        <ele>287.6953125</ele>
        <time>2017-12-25T16:40:23Z</time>
      </trkpt>
      <trkpt lat="38.825189983472228" lon="-0.216010026633739">
        <ele>287.83203125</ele>
        <time>2017-12-25T16:42:23Z</time>
      </trkpt>
      <trkpt lat="38.825200041756034" lon="-0.21596996113658">
        <ele>287.85546875</ele>
        <time>2017-12-25T16:44:23Z</time>
      </trkpt>
      <trkpt lat="38.825200041756034" lon="-0.215920004993677">
        <ele>287.85546875</ele>
        <time>2017-12-25T16:46:23Z</time>
      </trkpt>
      <trkpt lat="38.825200041756034" lon="-0.215869965031743">
        <ele>287.85546875</ele>
        <time>2017-12-25T16:48:23Z</time>
      </trkpt>
      <trkpt lat="38.825200041756034" lon="-0.215810034424067">
        <ele>287.85546875</ele>
        <time>2017-12-25T16:50:23Z</time>
      </trkpt>
      <trkpt lat="38.825189983472228" lon="-0.21571003831923">
        <ele>287.28515625</ele>
        <time>2017-12-25T16:52:23Z</time>
      </trkpt>
      <trkpt lat="38.825159976258874" lon="-0.215520020574331">
        <ele>286.5234375</ele>
        <time>2017-12-25T16:54:23Z</time>
      </trkpt>
      <trkpt lat="38.82512996904552" lon="-0.215309970080853">
        <ele>284.1484375</ele>
        <time>2017-12-25T16:56:23Z</time>
      </trkpt>
      <trkpt lat="38.825110020115972" lon="-0.215120036154985">
        <ele>282.7734375</ele>
        <time>2017-12-25T16:58:23Z</time>
      </trkpt>
      <trkpt lat="38.825089987367392" lon="-0.214979974552989">
        <ele>281.85546875</ele>
        <time>2017-12-25T17:00:23Z</time>
      </trkpt>
      <trkpt lat="38.825080012902617" lon="-0.214819964021444">
        <ele>280.92578125</ele>
        <time>2017-12-25T17:02:23Z</time>
      </trkpt>
      <trkpt lat="38.825080012902617" lon="-0.214770007878542">
        <ele>281.09765625</ele>
        <time>2017-12-25T17:04:23Z</time>
      </trkpt>
      <trkpt lat="38.825080012902617" lon="-0.214719967916608">
        <ele>281.69921875</ele>
        <time>2017-12-25T17:06:23Z</time>
      </trkpt>
      <trkpt lat="38.825089987367392" lon="-0.214660037308931">
        <ele>282.546875</ele>
        <time>2017-12-25T17:08:23Z</time>
      </trkpt>
      <trkpt lat="38.825099961832166" lon="-0.214619971811771">
        <ele>283.1875</ele>
        <time>2017-12-25T17:10:23Z</time>
      </trkpt>
      <trkpt lat="38.825099961832166" lon="-0.214600022882223">
        <ele>283.5390625</ele>
        <time>2017-12-25T17:12:23Z</time>
      </trkpt>
      <trkpt lat="38.825110020115972" lon="-0.214579990133643">
        <ele>283.70703125</ele>
        <time>2017-12-25T17:14:23Z</time>
      </trkpt>
      <trkpt lat="38.825119994580746" lon="-0.214549982920289">
        <ele>283.96875</ele>
        <time>2017-12-25T17:16:23Z</time>
      </trkpt>
      <trkpt lat="38.8251500017941" lon="-0.214510001242161">
        <ele>284.10546875</ele>
        <time>2017-12-25T17:18:23Z</time>
      </trkpt>
      <trkpt lat="38.825180009007454" lon="-0.214459961280227">
        <ele>284.29296875</ele>
        <time>2017-12-25T17:20:23Z</time>
      </trkpt>
      <trkpt lat="38.825219990685582" lon="-0.214419979602098">
        <ele>284.33203125</ele>
        <time>2017-12-25T17:22:23Z</time>
      </trkpt>
      <trkpt lat="38.82528000511229" lon="-0.21435996517539">
        <ele>284.29296875</ele>
        <time>2017-12-25T17:24:23Z</time>
      </trkpt>
      <trkpt lat="38.825359968468547" lon="-0.214289976283908">
        <ele>284.4453125</ele>
        <time>2017-12-25T17:26:23Z</time>
      </trkpt>
      <trkpt lat="38.825779985636473" lon="-0.21392997354269">
        <ele>284.06640625</ele>
        <time>2017-12-25T17:28:23Z</time>
      </trkpt>
      <trkpt lat="38.825939996168017" lon="-0.213789995759726">
        <ele>283.20703125</ele>
        <time>2017-12-25T17:30:23Z</time>
      </trkpt>
      <trkpt lat="38.826019959524274" lon="-0.213710032403469">
        <ele>282.625</ele>
        <time>2017-12-25T17:32:23Z</time>
      </trkpt>
      <trkpt lat="38.826100006699562" lon="-0.213620010763407">
        <ele>281.99609375</ele>
        <time>2017-12-25T17:34:23Z</time>
      </trkpt>
      <trkpt lat="38.826149962842464" lon="-0.213550021871924">
        <ele>281.66796875</ele>
        <time>2017-12-25T17:36:23Z</time>
      </trkpt>
      <trkpt lat="38.826230010017753" lon="-0.213450025767088">
        <ele>281.53125</ele>
        <time>2017-12-25T17:38:23Z</time>
      </trkpt>
      <trkpt lat="38.826279966160655" lon="-0.2133699785918">
        <ele>281.03515625</ele>
        <time>2017-12-25T17:40:23Z</time>
      </trkpt>
      <trkpt lat="38.826320031657815" lon="-0.213309964165092">
        <ele>280.640625</ele>
        <time>2017-12-25T17:42:23Z</time>
      </trkpt>
      <trkpt lat="38.826369987800717" lon="-0.213230000808835">
        <ele>280.6484375</ele>
        <time>2017-12-25T17:44:23Z</time>
      </trkpt>
      <trkpt lat="38.826390020549297" lon="-0.213199993595481">
        <ele>280.58984375</ele>
        <time>2017-12-25T17:46:23Z</time>
      </trkpt>
      <trkpt lat="38.826409969478846" lon="-0.213160011917353">
        <ele>280.65625</ele>
        <time>2017-12-25T17:48:23Z</time>
      </trkpt>
      <trkpt lat="38.826430002227426" lon="-0.213109971955419">
        <ele>280.8125</ele>
        <time>2017-12-25T17:50:23Z</time>
      </trkpt>
      <trkpt lat="38.8264399766922" lon="-0.21306999027729">
        <ele>280.62109375</ele>
        <time>2017-12-25T17:52:23Z</time>
      </trkpt>
      <trkpt lat="38.8264399766922" lon="-0.213009975850582">
        <ele>280.70703125</ele>
        <time>2017-12-25T17:54:23Z</time>
      </trkpt>
      <trkpt lat="38.8264399766922" lon="-0.212969994172454">
        <ele>281.10546875</ele>
        <time>2017-12-25T17:56:23Z</time>
      </trkpt>
      <trkpt lat="38.8264399766922" lon="-0.212920038029552">
        <ele>281.56640625</ele>
        <time>2017-12-25T17:58:23Z</time>
      </trkpt>
      <trkpt lat="38.826430002227426" lon="-0.212849965319037">
        <ele>282.01171875</ele>
        <time>2017-12-25T18:00:23Z</time>
      </trkpt>
      <trkpt lat="38.826420027762651" lon="-0.212790034711361">
        <ele>282.30078125</ele>
        <time>2017-12-25T18:02:23Z</time>
      </trkpt>
      <trkpt lat="38.826399995014071" lon="-0.212709987536073">
        <ele>282.31640625</ele>
        <time>2017-12-25T18:04:23Z</time>
      </trkpt>
      <trkpt lat="38.826350038871169" lon="-0.212549977004528">
        <ele>281.1640625</ele>
        <time>2017-12-25T18:06:23Z</time>
      </trkpt>
      <trkpt lat="38.826309973374009" lon="-0.212430031970143">
        <ele>280.09375</ele>
        <time>2017-12-25T18:08:23Z</time>
      </trkpt>
      <trkpt lat="38.826290024444461" lon="-0.212359959259629">
        <ele>279.67578125</ele>
        <time>2017-12-25T18:10:23Z</time>
      </trkpt>
      <trkpt lat="38.826279966160655" lon="-0.212300028651953">
        <ele>279.30859375</ele>
        <time>2017-12-25T18:12:23Z</time>
      </trkpt>
      <trkpt lat="38.826279966160655" lon="-0.212240014225245">
        <ele>278.65234375</ele>
        <time>2017-12-25T18:14:23Z</time>
      </trkpt>
      <trkpt lat="38.826269991695881" lon="-0.212200032547116">
        <ele>278.26953125</ele>
        <time>2017-12-25T18:16:23Z</time>
      </trkpt>
      <trkpt lat="38.826279966160655" lon="-0.212140018120408">
        <ele>277.5390625</ele>
        <time>2017-12-25T18:18:23Z</time>
      </trkpt>
      <trkpt lat="38.826290024444461" lon="-0.212070029228926">
        <ele>276.75</ele>
        <time>2017-12-25T18:20:23Z</time>
      </trkpt>
      <trkpt lat="38.826299998909235" lon="-0.212000040337443">
        <ele>275.9609375</ele>
        <time>2017-12-25T18:22:23Z</time>
      </trkpt>
      <trkpt lat="38.826320031657815" lon="-0.211919993162155">
        <ele>275.5</ele>
        <time>2017-12-25T18:24:23Z</time>
      </trkpt>
      <trkpt lat="38.826350038871169" lon="-0.211850004270673">
        <ele>275.578125</ele>
        <time>2017-12-25T18:26:23Z</time>
      </trkpt>
      <trkpt lat="38.826369987800717" lon="-0.211799964308739">
        <ele>275.73828125</ele>
        <time>2017-12-25T18:28:23Z</time>
      </trkpt>
      <trkpt lat="38.826409969478846" lon="-0.211740033701062">
        <ele>275.5390625</ele>
        <time>2017-12-25T18:30:23Z</time>
      </trkpt>
      <trkpt lat="38.826450034976006" lon="-0.211689993739128">
        <ele>275.18359375</ele>
        <time>2017-12-25T18:32:23Z</time>
      </trkpt>
      <trkpt lat="38.826479958370328" lon="-0.211659986525774">
        <ele>274.90625</ele>
        <time>2017-12-25T18:34:23Z</time>
      </trkpt>
      <trkpt lat="38.826520023867488" lon="-0.211620004847646">
        <ele>274.53125</ele>
        <time>2017-12-25T18:36:23Z</time>
      </trkpt>
      <trkpt lat="38.826580038294196" lon="-0.211580023169518">
        <ele>274.3046875</ele>
        <time>2017-12-25T18:38:23Z</time>
      </trkpt>
      <trkpt lat="38.826710041612387" lon="-0.211510034278035">
        <ele>273.80859375</ele>
        <time>2017-12-25T18:40:23Z</time>
      </trkpt>
      <trkpt lat="38.826940041035414" lon="-0.211390005424619">
        <ele>273.2109375</ele>
        <time>2017-12-25T18:42:23Z</time>
      </trkpt>
      <trkpt lat="38.827110026031733" lon="-0.211309958249331">
        <ele>271.953125</ele>
        <time>2017-12-25T18:44:23Z</time>
      </trkpt>
      <trkpt lat="38.827210022136569" lon="-0.211250027641654">
        <ele>271.93359375</ele>
        <time>2017-12-25T18:46:23Z</time>
      </trkpt>
      <trkpt lat="38.827289985492826" lon="-0.211190013214946">
        <ele>272.05078125</ele>
        <time>2017-12-25T18:48:23Z</time>
      </trkpt>
      <trkpt lat="38.827349999919534" lon="-0.211160006001592">
        <ele>271.16015625</ele>
        <time>2017-12-25T18:50:23Z</time>
      </trkpt>
      <trkpt lat="38.827370032668114" lon="-0.211129998788238">
        <ele>271.48828125</ele>
        <time>2017-12-25T18:52:23Z</time>
      </trkpt>
      <trkpt lat="38.827410014346242" lon="-0.211090017110109">
        <ele>271.5234375</ele>
        <time>2017-12-25T18:54:23Z</time>
      </trkpt>
      <trkpt lat="38.82744999602437" lon="-0.211039977148175">
        <ele>271.11328125</ele>
        <time>2017-12-25T18:56:23Z</time>
      </trkpt>
      <trkpt lat="38.827480003237724" lon="-0.210990021005273">
        <ele>270.97265625</ele>
        <time>2017-12-25T18:58:23Z</time>
      </trkpt>
      <trkpt lat="38.827510010451078" lon="-0.210930006578565">
        <ele>271.42578125</ele>
        <time>2017-12-25T19:00:23Z</time>
      </trkpt>
      <trkpt lat="38.827549992129207" lon="-0.210839984938502">
        <ele>271.359375</ele>
        <time>2017-12-25T19:02:23Z</time>
      </trkpt>
      <trkpt lat="38.827589973807335" lon="-0.210739988833666">
        <ele>271.25390625</ele>
        <time>2017-12-25T19:04:23Z</time>
      </trkpt>
      <trkpt lat="38.827619981020689" lon="-0.210660025477409">
        <ele>270.703125</ele>
        <time>2017-12-25T19:06:23Z</time>
      </trkpt>
      <trkpt lat="38.827630039304495" lon="-0.210579978302121">
        <ele>270.5078125</ele>
        <time>2017-12-25T19:08:23Z</time>
      </trkpt>
      <trkpt lat="38.827649988234043" lon="-0.210509989410639">
        <ele>269.95703125</ele>
        <time>2017-12-25T19:10:23Z</time>
      </trkpt>
      <trkpt lat="38.827649988234043" lon="-0.210400018841028">
        <ele>269.9453125</ele>
        <time>2017-12-25T19:12:23Z</time>
      </trkpt>
      <trkpt lat="38.827659962698817" lon="-0.210249982774258">
        <ele>269.4921875</ele>
        <time>2017-12-25T19:14:23Z</time>
      </trkpt>
      <trkpt lat="38.827670020982623" lon="-0.210089972242713">
        <ele>267.85546875</ele>
        <time>2017-12-25T19:16:23Z</time>
      </trkpt>
      <trkpt lat="38.827670020982623" lon="-0.20991001278162">
        <ele>266.37109375</ele>
        <time>2017-12-25T19:18:23Z</time>
      </trkpt>
      <trkpt lat="38.827679995447397" lon="-0.209799958392978">
        <ele>265.06640625</ele>
        <time>2017-12-25T19:20:23Z</time>
      </trkpt>
      <trkpt lat="38.827679995447397" lon="-0.209629973396659">
        <ele>264.45703125</ele>
        <time>2017-12-25T19:22:23Z</time>
      </trkpt>
      <trkpt lat="38.827700028195977" lon="-0.209489995613694">
        <ele>264.0078125</ele>
        <time>2017-12-25T19:24:23Z</time>
      </trkpt>
      <trkpt lat="38.827710002660751" lon="-0.209429981186986">
        <ele>263.640625</ele>
        <time>2017-12-25T19:26:23Z</time>
      </trkpt>
      <trkpt lat="38.827719977125525" lon="-0.209369966760278">
        <ele>263.62109375</ele>
        <time>2017-12-25T19:28:23Z</time>
      </trkpt>
      <trkpt lat="38.827740009874105" lon="-0.209320010617375">
        <ele>263.46875</ele>
        <time>2017-12-25T19:30:23Z</time>
      </trkpt>
      <trkpt lat="38.82774998433888" lon="-0.209290003404021">
        <ele>263.51171875</ele>
        <time>2017-12-25T19:32:23Z</time>
      </trkpt>
      <trkpt lat="38.827779991552234" lon="-0.209250021725893">
        <ele>263.1171875</ele>
        <time>2017-12-25T19:34:23Z</time>
      </trkpt>
      <trkpt lat="38.827809998765588" lon="-0.209220014512539">
        <ele>262.51953125</ele>
        <time>2017-12-25T19:36:23Z</time>
      </trkpt>
      <trkpt lat="38.827889962121844" lon="-0.209139967337251">
        <ele>261.17578125</ele>
        <time>2017-12-25T19:38:23Z</time>
      </trkpt>
      <trkpt lat="38.828000016510487" lon="-0.209039971232414">
        <ele>261.83203125</ele>
        <time>2017-12-25T19:40:23Z</time>
      </trkpt>
      <trkpt lat="38.828249964863062" lon="-0.208839979022741">
        <ele>262.859375</ele>
        <time>2017-12-25T19:42:23Z</time>
      </trkpt>
      <trkpt lat="38.828320037573576" lon="-0.208769990131259">
        <ele>262.3671875</ele>
        <time>2017-12-25T19:44:23Z</time>
      </trkpt>
      <trkpt lat="38.828349960967898" lon="-0.208739982917905">
        <ele>262.3671875</ele>
        <time>2017-12-25T19:46:23Z</time>
      </trkpt>
      <trkpt lat="38.828420033678412" lon="-0.208660019561648">
        <ele>262.6015625</ele>
        <time>2017-12-25T19:48:23Z</time>
      </trkpt>
      <trkpt lat="38.82860996760428" lon="-0.208439994603395">
        <ele>263.5390625</ele>
        <time>2017-12-25T19:50:23Z</time>
      </trkpt>
      <trkpt lat="38.828699989244342" lon="-0.208339998498559">
        <ele>263.8828125</ele>
        <time>2017-12-25T19:52:23Z</time>
      </trkpt>
      <trkpt lat="38.82878003641963" lon="-0.208240002393723">
        <ele>263.9140625</ele>
        <time>2017-12-25T19:54:23Z</time>
      </trkpt>
      <trkpt lat="38.828839967027307" lon="-0.208160039037466">
        <ele>263.71484375</ele>
        <time>2017-12-25T19:56:23Z</time>
      </trkpt>
      <trkpt lat="38.828869974240661" lon="-0.208109999075532">
        <ele>263.640625</ele>
        <time>2017-12-25T19:58:23Z</time>
      </trkpt>
      <trkpt lat="38.828899981454015" lon="-0.208059959113598">
        <ele>263.34375</ele>
        <time>2017-12-25T20:00:23Z</time>
      </trkpt>
      <trkpt lat="38.828929988667369" lon="-0.207940014079213">
        <ele>263.98828125</ele>
        <time>2017-12-25T20:02:23Z</time>
      </trkpt>
      <trkpt lat="38.828969970345497" lon="-0.207819985225797">
        <ele>262.43359375</ele>
        <time>2017-12-25T20:04:23Z</time>
      </trkpt>
      <trkpt lat="38.828990003094077" lon="-0.207689981907606">
        <ele>262.2578125</ele>
        <time>2017-12-25T20:06:23Z</time>
      </trkpt>
      <trkpt lat="38.829039959236979" lon="-0.207450008019805">
        <ele>260.48046875</ele>
        <time>2017-12-25T20:08:23Z</time>
      </trkpt>
      <trkpt lat="38.829089999198914" lon="-0.207190001383424">
        <ele>258.39453125</ele>
        <time>2017-12-25T20:10:23Z</time>
      </trkpt>
      <trkpt lat="38.829250009730458" lon="-0.206390032544732">
        <ele>258.328125</ele>
        <time>2017-12-25T20:12:23Z</time>
      </trkpt>
      <trkpt lat="38.829250009730458" lon="-0.206390032544732">
        <ele>258.328125</ele>
        <time>2017-12-25T20:14:23Z</time>
      </trkpt>
      <trkpt lat="38.829370038583875" lon="-0.205830037593842">
        <ele>253.6796875</ele>
        <time>2017-12-25T20:16:23Z</time>
      </trkpt>
      <trkpt lat="38.829570030793548" lon="-0.204809959977865">
        <ele>247.11328125</ele>
        <time>2017-12-25T20:18:23Z</time>
      </trkpt>
      <trkpt lat="38.829719983041286" lon="-0.204049972817302">
        <ele>247.59375</ele>
        <time>2017-12-25T20:20:23Z</time>
      </trkpt>
      <trkpt lat="38.829749990254641" lon="-0.203889962285757">
        <ele>246.40625</ele>
        <time>2017-12-25T20:22:23Z</time>
      </trkpt>
      <trkpt lat="38.829810004681349" lon="-0.203630039468408">
        <ele>246.1328125</ele>
        <time>2017-12-25T20:24:23Z</time>
      </trkpt>
      <trkpt lat="38.829840011894703" lon="-0.203529959544539">
        <ele>246.48828125</ele>
        <time>2017-12-25T20:26:23Z</time>
      </trkpt>
      <trkpt lat="38.829859960824251" lon="-0.203480003401637">
        <ele>246.8828125</ele>
        <time>2017-12-25T20:28:23Z</time>
      </trkpt>
      <trkpt lat="38.829870019108057" lon="-0.203429963439703">
        <ele>246.81640625</ele>
        <time>2017-12-25T20:30:23Z</time>
      </trkpt>
      <trkpt lat="38.829900026321411" lon="-0.203380007296801">
        <ele>246.76171875</ele>
        <time>2017-12-25T20:32:23Z</time>
      </trkpt>
      <trkpt lat="38.829930033534765" lon="-0.203340025618672">
        <ele>246.9609375</ele>
        <time>2017-12-25T20:34:23Z</time>
      </trkpt>
      <trkpt lat="38.829960040748119" lon="-0.203299960121512">
        <ele>247.16015625</ele>
        <time>2017-12-25T20:36:23Z</time>
      </trkpt>
      <trkpt lat="38.830000022426248" lon="-0.203259978443384">
        <ele>247.61328125</ele>
        <time>2017-12-25T20:38:23Z</time>
      </trkpt>
      <trkpt lat="38.830089960247278" lon="-0.203199964016676">
        <ele>247.875</ele>
        <time>2017-12-25T20:40:23Z</time>
      </trkpt>
      <trkpt lat="38.830200014635921" lon="-0.203140033408999">
        <ele>248.015625</ele>
        <time>2017-12-25T20:42:23Z</time>
      </trkpt>
      <trkpt lat="38.830260029062629" lon="-0.203089993447065">
        <ele>247.9609375</ele>
        <time>2017-12-25T20:44:23Z</time>
      </trkpt>
      <trkpt lat="38.830339992418885" lon="-0.203020004555583">
        <ele>247.5390625</ele>
        <time>2017-12-25T20:46:23Z</time>
      </trkpt>
      <trkpt lat="38.83052003569901" lon="-0.202790005132556">
        <ele>247.73046875</ele>
        <time>2017-12-25T20:48:23Z</time>
      </trkpt>
      <trkpt lat="38.8306500390172" lon="-0.202620020136237">
        <ele>247.171875</ele>
        <time>2017-12-25T20:50:23Z</time>
      </trkpt>
      <trkpt lat="38.830809965729713" lon="-0.202409969642758">
        <ele>247.0859375</ele>
        <time>2017-12-25T20:52:23Z</time>
      </trkpt>
      <trkpt lat="38.830899987369776" lon="-0.202269991859794">
        <ele>246.79296875</ele>
        <time>2017-12-25T20:54:23Z</time>
      </trkpt>
      <trkpt lat="38.830939969047904" lon="-0.202160021290183">
        <ele>247.015625</ele>
        <time>2017-12-25T20:56:23Z</time>
      </trkpt>
      <trkpt lat="38.830960001796484" lon="-0.202090032398701">
        <ele>246.98046875</ele>
        <time>2017-12-25T20:58:23Z</time>
      </trkpt>
      <trkpt lat="38.830980034545064" lon="-0.201979978010058">
        <ele>247.16796875</ele>
        <time>2017-12-25T21:00:23Z</time>
      </trkpt>
      <trkpt lat="38.830999983474612" lon="-0.201749978587031">
        <ele>247.1015625</ele>
        <time>2017-12-25T21:02:23Z</time>
      </trkpt>
      <trkpt lat="38.831020016223192" lon="-0.201410008594394">
        <ele>245.625</ele>
        <time>2017-12-25T21:04:23Z</time>
      </trkpt>
      <trkpt lat="38.83103996515274" lon="-0.201189983636141">
        <ele>244.52734375</ele>
        <time>2017-12-25T21:06:23Z</time>
      </trkpt>
      <trkpt lat="38.831050023436546" lon="-0.201019998639822">
        <ele>244.52734375</ele>
        <time>2017-12-25T21:08:23Z</time>
      </trkpt>
      <trkpt lat="38.831050023436546" lon="-0.200910028070211">
        <ele>245.01171875</ele>
        <time>2017-12-25T21:10:23Z</time>
      </trkpt>
      <trkpt lat="38.831069972366095" lon="-0.200829980894923">
        <ele>245.2421875</ele>
        <time>2017-12-25T21:12:23Z</time>
      </trkpt>
      <trkpt lat="38.8310800306499" lon="-0.200769966468215">
        <ele>245.50390625</ele>
        <time>2017-12-25T21:14:23Z</time>
      </trkpt>
      <trkpt lat="38.831099979579449" lon="-0.200710035860538">
        <ele>245.7265625</ele>
        <time>2017-12-25T21:16:23Z</time>
      </trkpt>
      <trkpt lat="38.831129986792803" lon="-0.200639963150024">
        <ele>245.9296875</ele>
        <time>2017-12-25T21:18:23Z</time>
      </trkpt>
      <trkpt lat="38.831180026754737" lon="-0.200550025328994">
        <ele>246.48046875</ele>
        <time>2017-12-25T21:20:23Z</time>
      </trkpt>
      <trkpt lat="38.831259990110993" lon="-0.200429996475577">
        <ele>246.5390625</ele>
        <time>2017-12-25T21:22:23Z</time>
      </trkpt>
      <trkpt lat="38.831399967893958" lon="-0.200260011479259">
        <ele>246.12109375</ele>
        <time>2017-12-25T21:24:23Z</time>
      </trkpt>
      <trkpt lat="38.831629967316985" lon="-0.199960023164749">
        <ele>246.23046875</ele>
        <time>2017-12-25T21:26:23Z</time>
      </trkpt>
      <trkpt lat="38.831829959526658" lon="-0.199719965457916">
        <ele>246.83203125</ele>
        <time>2017-12-25T21:28:23Z</time>
      </trkpt>
      <trkpt lat="38.831900032237172" lon="-0.19964000210166">
        <ele>247.37890625</ele>
        <time>2017-12-25T21:30:23Z</time>
      </trkpt>
      <trkpt lat="38.831979995593429" lon="-0.199579987674952">
        <ele>247.51953125</ele>
        <time>2017-12-25T21:32:23Z</time>
      </trkpt>
      <trkpt lat="38.832040010020137" lon="-0.199540005996823">
        <ele>247.359375</ele>
        <time>2017-12-25T21:34:23Z</time>
      </trkpt>
      <trkpt lat="38.832100024446845" lon="-0.199500024318695">
        <ele>247.24609375</ele>
        <time>2017-12-25T21:36:23Z</time>
      </trkpt>
      <trkpt lat="38.832140006124973" lon="-0.199479991570115">
        <ele>247.3359375</ele>
        <time>2017-12-25T21:38:23Z</time>
      </trkpt>
      <trkpt lat="38.832179987803102" lon="-0.199470017105341">
        <ele>247.2578125</ele>
        <time>2017-12-25T21:40:23Z</time>
      </trkpt>
      <trkpt lat="38.832330023869872" lon="-0.199430035427213">
        <ele>247.5546875</ele>
        <time>2017-12-25T21:42:23Z</time>
      </trkpt>
      <trkpt lat="38.832539990544319" lon="-0.199400028213859">
        <ele>246.203125</ele>
        <time>2017-12-25T21:44:23Z</time>
      </trkpt>
      <trkpt lat="38.83269002661109" lon="-0.199370021000504">
        <ele>247.375</ele>
        <time>2017-12-25T21:46:23Z</time>
      </trkpt>
      <trkpt lat="38.832760015502572" lon="-0.199349988251925">
        <ele>247.81640625</ele>
        <time>2017-12-25T21:48:23Z</time>
      </trkpt>
      <trkpt lat="38.832809971645474" lon="-0.199330039322376">
        <ele>248.015625</ele>
        <time>2017-12-25T21:50:23Z</time>
      </trkpt>
      <trkpt lat="38.832839978858829" lon="-0.199300032109022">
        <ele>248.640625</ele>
        <time>2017-12-25T21:52:23Z</time>
      </trkpt>
      <trkpt lat="38.832869986072183" lon="-0.199279999360442">
        <ele>248.8828125</ele>
        <time>2017-12-25T21:54:23Z</time>
      </trkpt>
      <trkpt lat="38.832890018820763" lon="-0.199249992147088">
        <ele>249.46484375</ele>
        <time>2017-12-25T21:56:23Z</time>
      </trkpt>
      <trkpt lat="38.832909967750311" lon="-0.19921001046896">
        <ele>249.890625</ele>
        <time>2017-12-25T21:58:23Z</time>
      </trkpt>
      <trkpt lat="38.832939974963665" lon="-0.199159970507026">
        <ele>249.6015625</ele>
        <time>2017-12-25T22:00:23Z</time>
      </trkpt>
      <trkpt lat="38.832950033247471" lon="-0.199119988828897">
        <ele>249.82421875</ele>
        <time>2017-12-25T22:02:23Z</time>
      </trkpt>
      <trkpt lat="38.833039971068501" lon="-0.198820000514388">
        <ele>249.484375</ele>
        <time>2017-12-25T22:04:23Z</time>
      </trkpt>
      <trkpt lat="38.833139967173338" lon="-0.198420016095042">
        <ele>245.71875</ele>
        <time>2017-12-25T22:06:23Z</time>
      </trkpt>
      <trkpt lat="38.83325002156198" lon="-0.19805003888905">
        <ele>242.421875</ele>
        <time>2017-12-25T22:08:23Z</time>
      </trkpt>
      <trkpt lat="38.833380024880171" lon="-0.197600014507771">
        <ele>243.58984375</ele>
        <time>2017-12-25T22:10:23Z</time>
      </trkpt>
      <trkpt lat="38.83355000987649" lon="-0.196989979594946">
        <ele>241.16796875</ele>
        <time>2017-12-25T22:12:23Z</time>
      </trkpt>
      <trkpt lat="38.833689987659454" lon="-0.196499973535538">
        <ele>245.765625</ele>
        <time>2017-12-25T22:14:23Z</time>
      </trkpt>
      <trkpt lat="38.833859972655773" lon="-0.195860015228391">
        <ele>242.62890625</ele>
        <time>2017-12-25T22:16:23Z</time>
      </trkpt>
      <trkpt lat="38.833929961547256" lon="-0.19562004134059">
        <ele>239.56640625</ele>
        <time>2017-12-25T22:18:23Z</time>
      </trkpt>
      <trkpt lat="38.83400003425777" lon="-0.195349976420403">
        <ele>239</ele>
        <time>2017-12-25T22:20:23Z</time>
      </trkpt>
      <trkpt lat="38.8340899720788" lon="-0.195100028067827">
        <ele>240.72265625</ele>
        <time>2017-12-25T22:22:23Z</time>
      </trkpt>
      <trkpt lat="38.834179993718863" lon="-0.194880003109574">
        <ele>241.36328125</ele>
        <time>2017-12-25T22:24:23Z</time>
      </trkpt>
      <trkpt lat="38.834230033680797" lon="-0.19474002532661">
        <ele>240.23046875</ele>
        <time>2017-12-25T22:26:23Z</time>
      </trkpt>
      <trkpt lat="38.834270015358925" lon="-0.194670036435127">
        <ele>238.9765625</ele>
        <time>2017-12-25T22:28:23Z</time>
      </trkpt>
      <trkpt lat="38.834509989246726" lon="-0.194220012053847">
        <ele>235.0703125</ele>
        <time>2017-12-25T22:30:23Z</time>
      </trkpt>
      <trkpt lat="38.834600010886788" lon="-0.194050027057528">
        <ele>234.94140625</ele>
        <time>2017-12-25T22:32:23Z</time>
      </trkpt>
      <trkpt lat="38.834660025313497" lon="-0.193929998204112">
        <ele>234.26171875</ele>
        <time>2017-12-25T22:34:23Z</time>
      </trkpt>
      <trkpt lat="38.83483998477459" lon="-0.193609977141023">
        <ele>232.515625</ele>
        <time>2017-12-25T22:36:23Z</time>
      </trkpt>
      <trkpt lat="38.835160005837679" lon="-0.193040007725358">
        <ele>231.4765625</ele>
        <time>2017-12-25T22:38:23Z</time>
      </trkpt>
      <trkpt lat="38.835229994729161" lon="-0.192900029942393">
        <ele>231.29296875</ele>
        <time>2017-12-25T22:40:23Z</time>
      </trkpt>
      <trkpt lat="38.83539997972548" lon="-0.192580008879304">
        <ele>231.33984375</ele>
        <time>2017-12-25T22:42:23Z</time>
      </trkpt>
      <trkpt lat="38.835410038009286" lon="-0.192559976130724">
        <ele>231.359375</ele>
        <time>2017-12-25T22:44:23Z</time>
      </trkpt>
      <trkpt lat="38.835689993575215" lon="-0.192080028355122">
        <ele>229.7578125</ele>
        <time>2017-12-25T22:46:23Z</time>
      </trkpt>
      <trkpt lat="38.835940025746822" lon="-0.191650036722422">
        <ele>229.84375</ele>
        <time>2017-12-25T22:48:23Z</time>
      </trkpt>
      <trkpt lat="38.835980007424951" lon="-0.191579964011908">
        <ele>229.9609375</ele>
        <time>2017-12-25T22:50:23Z</time>
      </trkpt>
      <trkpt lat="38.836000040173531" lon="-0.191509975120425">
        <ele>229.9453125</ele>
        <time>2017-12-25T22:52:23Z</time>
      </trkpt>
      <trkpt lat="38.836010014638305" lon="-0.191430011764169">
        <ele>229.5390625</ele>
        <time>2017-12-25T22:54:23Z</time>
      </trkpt>
      <trkpt lat="38.836000040173531" lon="-0.191349964588881">
        <ele>229.125</ele>
        <time>2017-12-25T22:56:23Z</time>
      </trkpt>
      <trkpt lat="38.835980007424951" lon="-0.191279975697398">
        <ele>228.765625</ele>
        <time>2017-12-25T22:58:23Z</time>
      </trkpt>
      <trkpt lat="38.835950000211596" lon="-0.191200012341142">
        <ele>228.5234375</ele>
        <time>2017-12-25T23:00:23Z</time>
      </trkpt>
      <trkpt lat="38.835919992998242" lon="-0.191130023449659">
        <ele>228.34765625</ele>
        <time>2017-12-25T23:02:23Z</time>
      </trkpt>
      <trkpt lat="38.835880011320114" lon="-0.191070009022951">
        <ele>228.44140625</ele>
        <time>2017-12-25T23:04:23Z</time>
      </trkpt>
      <trkpt lat="38.83585000410676" lon="-0.191019969061017">
        <ele>227.9765625</ele>
        <time>2017-12-25T23:06:23Z</time>
      </trkpt>
      <trkpt lat="38.835819996893406" lon="-0.190970012918115">
        <ele>227.46875</ele>
        <time>2017-12-25T23:08:23Z</time>
      </trkpt>
      <trkpt lat="38.835799964144826" lon="-0.190940005704761">
        <ele>227.109375</ele>
        <time>2017-12-25T23:10:23Z</time>
      </trkpt>
      <trkpt lat="38.835770040750504" lon="-0.190900024026632">
        <ele>226.63671875</ele>
        <time>2017-12-25T23:12:23Z</time>
      </trkpt>
      <trkpt lat="38.835729975253344" lon="-0.190840009599924">
        <ele>226.58984375</ele>
        <time>2017-12-25T23:14:23Z</time>
      </trkpt>
      <trkpt lat="38.835680019110441" lon="-0.190759962424636">
        <ele>226.49609375</ele>
        <time>2017-12-25T23:16:23Z</time>
      </trkpt>
      <trkpt lat="38.835650011897087" lon="-0.190689973533154">
        <ele>226.55859375</ele>
        <time>2017-12-25T23:18:23Z</time>
      </trkpt>
      <trkpt lat="38.835640037432313" lon="-0.190629959106445">
        <ele>226.24609375</ele>
        <time>2017-12-25T23:20:23Z</time>
      </trkpt>
      <trkpt lat="38.835629979148507" lon="-0.190600035712123">
        <ele>226.25</ele>
        <time>2017-12-25T23:22:23Z</time>
      </trkpt>
      <trkpt lat="38.835620004683733" lon="-0.190570028498769">
        <ele>226.28515625</ele>
        <time>2017-12-25T23:24:23Z</time>
      </trkpt>
      <trkpt lat="38.835620004683733" lon="-0.190529963001609">
        <ele>226.14453125</ele>
        <time>2017-12-25T23:26:23Z</time>
      </trkpt>
      <trkpt lat="38.835620004683733" lon="-0.190500039607286">
        <ele>225.921875</ele>
        <time>2017-12-25T23:28:23Z</time>
      </trkpt>
      <trkpt lat="38.835620004683733" lon="-0.190459974110126">
        <ele>225.625</ele>
        <time>2017-12-25T23:30:23Z</time>
      </trkpt>
      <trkpt lat="38.835629979148507" lon="-0.190399959683418">
        <ele>225.2265625</ele>
        <time>2017-12-25T23:32:23Z</time>
      </trkpt>
      <trkpt lat="38.835640037432313" lon="-0.190329970791936">
        <ele>224.89453125</ele>
        <time>2017-12-25T23:34:23Z</time>
      </trkpt>
      <trkpt lat="38.835680019110441" lon="-0.190199967473745">
        <ele>223.7578125</ele>
        <time>2017-12-25T23:36:23Z</time>
      </trkpt>
      <trkpt lat="38.835770040750504" lon="-0.189890004694462">
        <ele>224.0625</ele>
        <time>2017-12-25T23:38:23Z</time>
      </trkpt>
      <trkpt lat="38.835889985784888" lon="-0.189539976418018">
        <ele>224.359375</ele>
        <time>2017-12-25T23:40:23Z</time>
      </trkpt>
      <trkpt lat="38.835910018533468" lon="-0.189490020275116">
        <ele>224.35546875</ele>
        <time>2017-12-25T23:42:23Z</time>
      </trkpt>
      <trkpt lat="38.835919992998242" lon="-0.189460013061762">
        <ele>224.48046875</ele>
        <time>2017-12-25T23:44:23Z</time>
      </trkpt>
      <trkpt lat="38.835940025746822" lon="-0.189420031383634">
        <ele>224.61328125</ele>
        <time>2017-12-25T23:46:23Z</time>
      </trkpt>
      <trkpt lat="38.835970032960176" lon="-0.189379965886474">
        <ele>224.7265625</ele>
        <time>2017-12-25T23:48:23Z</time>
      </trkpt>
      <trkpt lat="38.835989981889725" lon="-0.189339984208345">
        <ele>225.05078125</ele>
        <time>2017-12-25T23:50:23Z</time>
      </trkpt>
      <trkpt lat="38.836019989103079" lon="-0.189300002530217">
        <ele>225.20703125</ele>
        <time>2017-12-25T23:52:23Z</time>
      </trkpt>
      <trkpt lat="38.836059970781207" lon="-0.189260020852089">
        <ele>225.1640625</ele>
        <time>2017-12-25T23:54:23Z</time>
      </trkpt>
      <trkpt lat="38.836089977994561" lon="-0.189220039173961">
        <ele>225.1796875</ele>
        <time>2017-12-25T23:56:23Z</time>
      </trkpt>
      <trkpt lat="38.836129959672689" lon="-0.189200006425381">
        <ele>225.1953125</ele>
        <time>2017-12-25T23:58:23Z</time>
      </trkpt>
      <trkpt lat="38.836149992421269" lon="-0.189179973676801">
        <ele>225.30859375</ele>
        <time>2017-12-26T00:00:23Z</time>
      </trkpt>
      <trkpt lat="38.836179999634624" lon="-0.189169999212027">
        <ele>225.44140625</ele>
        <time>2017-12-26T00:02:23Z</time>
      </trkpt>
      <trkpt lat="38.836189974099398" lon="-0.189160024747252">
        <ele>225.54296875</ele>
        <time>2017-12-26T00:04:23Z</time>
      </trkpt>
      <trkpt lat="38.83630002848804" lon="-0.189160024747252">
        <ele>225.6953125</ele>
        <time>2017-12-26T00:06:23Z</time>
      </trkpt>
      <trkpt lat="38.836370017379522" lon="-0.189190031960607">
        <ele>225.61328125</ele>
        <time>2017-12-26T00:08:23Z</time>
      </trkpt>
      <trkpt lat="38.836470013484359" lon="-0.189249962568283">
        <ele>225.37109375</ele>
        <time>2017-12-26T00:10:23Z</time>
      </trkpt>
      <trkpt lat="38.836530027911067" lon="-0.189300002530217">
        <ele>224.4375</ele>
        <time>2017-12-26T00:12:23Z</time>
      </trkpt>
      <trkpt lat="38.836619965732098" lon="-0.1893699914217">
        <ele>223.578125</ele>
        <time>2017-12-26T00:14:23Z</time>
      </trkpt>
      <trkpt lat="38.836770001798868" lon="-0.18947996199131">
        <ele>222.68359375</ele>
        <time>2017-12-26T00:16:23Z</time>
      </trkpt>
      <trkpt lat="38.836820041760802" lon="-0.18952002748847">
        <ele>222.01171875</ele>
        <time>2017-12-26T00:18:23Z</time>
      </trkpt>
      <trkpt lat="38.836849965155125" lon="-0.189539976418018">
        <ele>221.86328125</ele>
        <time>2017-12-26T00:20:23Z</time>
      </trkpt>
      <trkpt lat="38.836869997903705" lon="-0.189550034701824">
        <ele>221.80859375</ele>
        <time>2017-12-26T00:22:23Z</time>
      </trkpt>
      <trkpt lat="38.836909979581833" lon="-0.189560009166598">
        <ele>222.01171875</ele>
        <time>2017-12-26T00:24:23Z</time>
      </trkpt>
      <trkpt lat="38.836939986795187" lon="-0.189569983631372">
        <ele>222.109375</ele>
        <time>2017-12-26T00:26:23Z</time>
      </trkpt>
      <trkpt lat="38.836979968473315" lon="-0.189579958096147">
        <ele>222.2734375</ele>
        <time>2017-12-26T00:28:23Z</time>
      </trkpt>
      <trkpt lat="38.837030008435249" lon="-0.189590016379952">
        <ele>222.48046875</ele>
        <time>2017-12-26T00:30:23Z</time>
      </trkpt>
      <trkpt lat="38.837079964578152" lon="-0.189599990844727">
        <ele>222.7421875</ele>
        <time>2017-12-26T00:32:23Z</time>
      </trkpt>
      <trkpt lat="38.83716001175344" lon="-0.189609965309501">
        <ele>223.23828125</ele>
        <time>2017-12-26T00:34:23Z</time>
      </trkpt>
      <trkpt lat="38.837179960682988" lon="-0.189609965309501">
        <ele>223.37109375</ele>
        <time>2017-12-26T00:36:23Z</time>
      </trkpt>
      <trkpt lat="38.837220026180148" lon="-0.189609965309501">
        <ele>223.49609375</ele>
        <time>2017-12-26T00:38:23Z</time>
      </trkpt>
      <trkpt lat="38.837260007858276" lon="-0.189620023593307">
        <ele>223.359375</ele>
        <time>2017-12-26T00:40:23Z</time>
      </trkpt>
      <trkpt lat="38.837299989536405" lon="-0.189629998058081">
        <ele>222.796875</ele>
        <time>2017-12-26T00:42:23Z</time>
      </trkpt>
      <trkpt lat="38.837320022284985" lon="-0.189629998058081">
        <ele>222.6328125</ele>
        <time>2017-12-26T00:44:23Z</time>
      </trkpt>
      <trkpt lat="38.837360003963113" lon="-0.189629998058081">
        <ele>222.3046875</ele>
        <time>2017-12-26T00:46:23Z</time>
      </trkpt>
      <trkpt lat="38.837390011176467" lon="-0.189620023593307">
        <ele>222.359375</ele>
        <time>2017-12-26T00:48:23Z</time>
      </trkpt>
      <trkpt lat="38.837420018389821" lon="-0.189620023593307">
        <ele>222.09375</ele>
        <time>2017-12-26T00:50:23Z</time>
      </trkpt>
      <trkpt lat="38.837439967319369" lon="-0.189609965309501">
        <ele>222.18359375</ele>
        <time>2017-12-26T00:52:23Z</time>
      </trkpt>
      <trkpt lat="38.837460000067949" lon="-0.189599990844727">
        <ele>222.265625</ele>
        <time>2017-12-26T00:54:23Z</time>
      </trkpt>
      <trkpt lat="38.837490007281303" lon="-0.189590016379952">
        <ele>222.22265625</ele>
        <time>2017-12-26T00:56:23Z</time>
      </trkpt>
      <trkpt lat="38.837520014494658" lon="-0.189579958096147">
        <ele>222.13671875</ele>
        <time>2017-12-26T00:58:23Z</time>
      </trkpt>
      <trkpt lat="38.837559996172786" lon="-0.189560009166598">
        <ele>222.03125</ele>
        <time>2017-12-26T01:00:23Z</time>
      </trkpt>
      <trkpt lat="38.837650017812848" lon="-0.189490020275116">
        <ele>221.80859375</ele>
        <time>2017-12-26T01:02:23Z</time>
      </trkpt>
      <trkpt lat="38.837750013917685" lon="-0.189430005848408">
        <ele>221.1640625</ele>
        <time>2017-12-26T01:04:23Z</time>
      </trkpt>
      <trkpt lat="38.837850010022521" lon="-0.189360016956925">
        <ele>220.18359375</ele>
        <time>2017-12-26T01:06:23Z</time>
      </trkpt>
      <trkpt lat="38.837940031662583" lon="-0.189290028065443">
        <ele>219.44921875</ele>
        <time>2017-12-26T01:08:23Z</time>
      </trkpt>
      <trkpt lat="38.838029969483614" lon="-0.189200006425381">
        <ele>219.05078125</ele>
        <time>2017-12-26T01:10:23Z</time>
      </trkpt>
      <trkpt lat="38.838070034980774" lon="-0.189130017533898">
        <ele>218.7578125</ele>
        <time>2017-12-26T01:12:23Z</time>
      </trkpt>
      <trkpt lat="38.838110016658902" lon="-0.18904997035861">
        <ele>218.6171875</ele>
        <time>2017-12-26T01:14:23Z</time>
      </trkpt>
      <trkpt lat="38.838159972801805" lon="-0.188930025324225">
        <ele>218.55859375</ele>
        <time>2017-12-26T01:16:23Z</time>
      </trkpt>
      <trkpt lat="38.838200038298965" lon="-0.188809996470809">
        <ele>218.890625</ele>
        <time>2017-12-26T01:18:23Z</time>
      </trkpt>
      <trkpt lat="38.838249994441867" lon="-0.188649985939264">
        <ele>219.01171875</ele>
        <time>2017-12-26T01:20:23Z</time>
      </trkpt>
      <trkpt lat="38.838300034403801" lon="-0.188459968194366">
        <ele>218.91796875</ele>
        <time>2017-12-26T01:22:23Z</time>
      </trkpt>
      <trkpt lat="38.838340016081929" lon="-0.188359972089529">
        <ele>218.609375</ele>
        <time>2017-12-26T01:24:23Z</time>
      </trkpt>
      <trkpt lat="38.838379997760057" lon="-0.188240027055144">
        <ele>218.71484375</ele>
        <time>2017-12-26T01:26:23Z</time>
      </trkpt>
      <trkpt lat="38.838410004973412" lon="-0.188170038163662">
        <ele>219.01953125</ele>
        <time>2017-12-26T01:28:23Z</time>
      </trkpt>
      <trkpt lat="38.83844998665154" lon="-0.188119998201728">
        <ele>217.984375</ele>
        <time>2017-12-26T01:30:23Z</time>
      </trkpt>
      <trkpt lat="38.838489968329668" lon="-0.18805998377502">
        <ele>217.78515625</ele>
        <time>2017-12-26T01:32:23Z</time>
      </trkpt>
      <trkpt lat="38.838549982756376" lon="-0.187999969348311">
        <ele>217.49609375</ele>
        <time>2017-12-26T01:34:23Z</time>
      </trkpt>
      <trkpt lat="38.838630029931664" lon="-0.187940038740635">
        <ele>217.52734375</ele>
        <time>2017-12-26T01:36:23Z</time>
      </trkpt>
      <trkpt lat="38.838709993287921" lon="-0.187869966030121">
        <ele>218.5546875</ele>
        <time>2017-12-26T01:38:23Z</time>
      </trkpt>
      <trkpt lat="38.838779982179403" lon="-0.187820009887218">
        <ele>218.47265625</ele>
        <time>2017-12-26T01:40:23Z</time>
      </trkpt>
      <trkpt lat="38.838849971070886" lon="-0.187790002673864">
        <ele>217.6484375</ele>
        <time>2017-12-26T01:42:23Z</time>
      </trkpt>
      <trkpt lat="38.838909985497594" lon="-0.18775999546051">
        <ele>217.74609375</ele>
        <time>2017-12-26T01:44:23Z</time>
      </trkpt>
      <trkpt lat="38.838960025459528" lon="-0.18775999546051">
        <ele>217.515625</ele>
        <time>2017-12-26T01:46:23Z</time>
      </trkpt>
      <trkpt lat="38.83900998160243" lon="-0.187769969925284">
        <ele>217.2890625</ele>
        <time>2017-12-26T01:48:23Z</time>
      </trkpt>
      <trkpt lat="38.839060021564364" lon="-0.187790002673864">
        <ele>217.7265625</ele>
        <time>2017-12-26T01:50:23Z</time>
      </trkpt>
      <trkpt lat="38.839090028777719" lon="-0.187799977138638">
        <ele>218.10546875</ele>
        <time>2017-12-26T01:52:23Z</time>
      </trkpt>
      <trkpt lat="38.839139984920621" lon="-0.187829984351993">
        <ele>218.62109375</ele>
        <time>2017-12-26T01:54:23Z</time>
      </trkpt>
      <trkpt lat="38.839179966598749" lon="-0.187850017100573">
        <ele>219.140625</ele>
        <time>2017-12-26T01:56:23Z</time>
      </trkpt>
      <trkpt lat="38.839250039309263" lon="-0.187889998778701">
        <ele>219.234375</ele>
        <time>2017-12-26T01:58:23Z</time>
      </trkpt>
      <trkpt lat="38.83930996991694" lon="-0.187929980456829">
        <ele>217.72265625</ele>
        <time>2017-12-26T02:00:23Z</time>
      </trkpt>
      <trkpt lat="38.8393500354141" lon="-0.187959987670183">
        <ele>216.4375</ele>
        <time>2017-12-26T02:02:23Z</time>
      </trkpt>
      <trkpt lat="38.839420024305582" lon="-0.187999969348311">
        <ele>215.32421875</ele>
        <time>2017-12-26T02:04:23Z</time>
      </trkpt>
      <trkpt lat="38.83948003873229" lon="-0.188029976561666">
        <ele>215.26953125</ele>
        <time>2017-12-26T02:06:23Z</time>
      </trkpt>
      <trkpt lat="38.839529994875193" lon="-0.18805998377502">
        <ele>216.21484375</ele>
        <time>2017-12-26T02:08:23Z</time>
      </trkpt>
      <trkpt lat="38.839569976553321" lon="-0.1880800165236">
        <ele>216.8046875</ele>
        <time>2017-12-26T02:10:23Z</time>
      </trkpt>
      <trkpt lat="38.839650023728609" lon="-0.188129972666502">
        <ele>214.75</ele>
        <time>2017-12-26T02:12:23Z</time>
      </trkpt>
      <trkpt lat="38.839710038155317" lon="-0.188159979879856">
        <ele>213.94921875</ele>
        <time>2017-12-26T02:14:23Z</time>
      </trkpt>
      <trkpt lat="38.839750019833446" lon="-0.188180012628436">
        <ele>213.52734375</ele>
        <time>2017-12-26T02:16:23Z</time>
      </trkpt>
      <trkpt lat="38.839799975976348" lon="-0.18821001984179">
        <ele>213.09375</ele>
        <time>2017-12-26T02:18:23Z</time>
      </trkpt>
      <trkpt lat="38.83988999761641" lon="-0.188250001519918">
        <ele>213.09375</ele>
        <time>2017-12-26T02:20:23Z</time>
      </trkpt>
      <trkpt lat="38.839969960972667" lon="-0.188289983198047">
        <ele>212.95703125</ele>
        <time>2017-12-26T02:22:23Z</time>
      </trkpt>
      <trkpt lat="38.840040033683181" lon="-0.188329964876175">
        <ele>212.5078125</ele>
        <time>2017-12-26T02:24:23Z</time>
      </trkpt>
      <trkpt lat="38.840099964290857" lon="-0.188359972089529">
        <ele>212.61328125</ele>
        <time>2017-12-26T02:26:23Z</time>
      </trkpt>
      <trkpt lat="38.840159978717566" lon="-0.188380004838109">
        <ele>212.84375</ele>
        <time>2017-12-26T02:28:23Z</time>
      </trkpt>
      <trkpt lat="38.840229967609048" lon="-0.188400037586689">
        <ele>212.8203125</ele>
        <time>2017-12-26T02:30:23Z</time>
      </trkpt>
      <trkpt lat="38.840300040319562" lon="-0.188419986516237">
        <ele>212.42578125</ele>
        <time>2017-12-26T02:32:23Z</time>
      </trkpt>
      <trkpt lat="38.840359970927238" lon="-0.188419986516237">
        <ele>212.13671875</ele>
        <time>2017-12-26T02:34:23Z</time>
      </trkpt>
      <trkpt lat="38.840410010889173" lon="-0.188419986516237">
        <ele>211.8125</ele>
        <time>2017-12-26T02:36:23Z</time>
      </trkpt>
      <trkpt lat="38.840470025315881" lon="-0.188419986516237">
        <ele>211.61328125</ele>
        <time>2017-12-26T02:38:23Z</time>
      </trkpt>
      <trkpt lat="38.840510006994009" lon="-0.188410012051463">
        <ele>211.70703125</ele>
        <time>2017-12-26T02:40:23Z</time>
      </trkpt>
      <trkpt lat="38.840559963136911" lon="-0.188380004838109">
        <ele>212.07421875</ele>
        <time>2017-12-26T02:42:23Z</time>
      </trkpt>
      <trkpt lat="38.840589970350266" lon="-0.188359972089529">
        <ele>212.140625</ele>
        <time>2017-12-26T02:44:23Z</time>
      </trkpt>
      <trkpt lat="38.84061997756362" lon="-0.188310015946627">
        <ele>212.28125</ele>
        <time>2017-12-26T02:46:23Z</time>
      </trkpt>
      <trkpt lat="38.840649984776974" lon="-0.188250001519918">
        <ele>212.5546875</ele>
        <time>2017-12-26T02:48:23Z</time>
      </trkpt>
      <trkpt lat="38.840679991990328" lon="-0.18818998709321">
        <ele>212.7890625</ele>
        <time>2017-12-26T02:50:23Z</time>
      </trkpt>
      <trkpt lat="38.840760039165616" lon="-0.188010027632117">
        <ele>212.64453125</ele>
        <time>2017-12-26T02:52:23Z</time>
      </trkpt>
      <trkpt lat="38.840830028057098" lon="-0.187839958816767">
        <ele>212.90234375</ele>
        <time>2017-12-26T02:54:23Z</time>
      </trkpt>
      <trkpt lat="38.840909991413355" lon="-0.187690006569028">
        <ele>212.60546875</ele>
        <time>2017-12-26T02:56:23Z</time>
      </trkpt>
      <trkpt lat="38.840930024161935" lon="-0.1876500248909">
        <ele>212.8359375</ele>
        <time>2017-12-26T02:58:23Z</time>
      </trkpt>
      <trkpt lat="38.840970005840063" lon="-0.18760995939374">
        <ele>213.12109375</ele>
        <time>2017-12-26T03:00:23Z</time>
      </trkpt>
      <trkpt lat="38.840990038588643" lon="-0.187569977715611">
        <ele>213.8359375</ele>
        <time>2017-12-26T03:02:23Z</time>
      </trkpt>
      <trkpt lat="38.841030020266771" lon="-0.187529996037483">
        <ele>213.9296875</ele>
        <time>2017-12-26T03:04:23Z</time>
      </trkpt>
      <trkpt lat="38.841060027480125" lon="-0.187499988824129">
        <ele>214.08203125</ele>
        <time>2017-12-26T03:06:23Z</time>
      </trkpt>
      <trkpt lat="38.841100009158254" lon="-0.187469981610775">
        <ele>214.1484375</ele>
        <time>2017-12-26T03:08:23Z</time>
      </trkpt>
      <trkpt lat="38.841139990836382" lon="-0.187439974397421">
        <ele>214.6796875</ele>
        <time>2017-12-26T03:10:23Z</time>
      </trkpt>
      <trkpt lat="38.841169998049736" lon="-0.187420025467873">
        <ele>214.92578125</ele>
        <time>2017-12-26T03:12:23Z</time>
      </trkpt>
      <trkpt lat="38.841209979727864" lon="-0.187399992719293">
        <ele>214.80078125</ele>
        <time>2017-12-26T03:14:23Z</time>
      </trkpt>
      <trkpt lat="38.841260019689798" lon="-0.187379959970713">
        <ele>214.44140625</ele>
        <time>2017-12-26T03:16:23Z</time>
      </trkpt>
      <trkpt lat="38.841300001367927" lon="-0.187360011041164">
        <ele>214.6875</ele>
        <time>2017-12-26T03:18:23Z</time>
      </trkpt>
      <trkpt lat="38.841330008581281" lon="-0.187360011041164">
        <ele>213.82421875</ele>
        <time>2017-12-26T03:20:23Z</time>
      </trkpt>
      <trkpt lat="38.841369990259409" lon="-0.18735003657639">
        <ele>213.71875</ele>
        <time>2017-12-26T03:22:23Z</time>
      </trkpt>
      <trkpt lat="38.841420030221343" lon="-0.18735003657639">
        <ele>212.73046875</ele>
        <time>2017-12-26T03:24:23Z</time>
      </trkpt>
      <trkpt lat="38.841460011899471" lon="-0.18735003657639">
        <ele>212.40234375</ele>
        <time>2017-12-26T03:26:23Z</time>
      </trkpt>
      <trkpt lat="38.8414999935776" lon="-0.18735003657639">
        <ele>212.16796875</ele>
        <time>2017-12-26T03:28:23Z</time>
      </trkpt>
      <trkpt lat="38.841550033539534" lon="-0.187360011041164">
        <ele>211.57421875</ele>
        <time>2017-12-26T03:30:23Z</time>
      </trkpt>
      <trkpt lat="38.841580040752888" lon="-0.187369985505939">
        <ele>211.109375</ele>
        <time>2017-12-26T03:32:23Z</time>
      </trkpt>
      <trkpt lat="38.841620022431016" lon="-0.187390018254519">
        <ele>210.2109375</ele>
        <time>2017-12-26T03:34:23Z</time>
      </trkpt>
      <trkpt lat="38.841660004109144" lon="-0.187420025467873">
        <ele>209.453125</ele>
        <time>2017-12-26T03:36:23Z</time>
      </trkpt>
      <trkpt lat="38.841699985787272" lon="-0.187450032681227">
        <ele>208.6953125</ele>
        <time>2017-12-26T03:38:23Z</time>
      </trkpt>
      <trkpt lat="38.841739967465401" lon="-0.187490014359355">
        <ele>208.4140625</ele>
        <time>2017-12-26T03:40:23Z</time>
      </trkpt>
      <trkpt lat="38.841769974678755" lon="-0.187529996037483">
        <ele>208.29296875</ele>
        <time>2017-12-26T03:42:23Z</time>
      </trkpt>
      <trkpt lat="38.841810040175915" lon="-0.187599984928966">
        <ele>207.5078125</ele>
        <time>2017-12-26T03:44:23Z</time>
      </trkpt>
      <trkpt lat="38.841829989105463" lon="-0.187639966607094">
        <ele>206.9765625</ele>
        <time>2017-12-26T03:46:23Z</time>
      </trkpt>
      <trkpt lat="38.841850021854043" lon="-0.187680032104254">
        <ele>206.6796875</ele>
        <time>2017-12-26T03:48:23Z</time>
      </trkpt>
      <trkpt lat="38.841869970783591" lon="-0.18773996271193">
        <ele>206.5078125</ele>
        <time>2017-12-26T03:50:23Z</time>
      </trkpt>
      <trkpt lat="38.841880029067397" lon="-0.187790002673864">
        <ele>206.39453125</ele>
        <time>2017-12-26T03:52:23Z</time>
      </trkpt>
      <trkpt lat="38.841880029067397" lon="-0.187839958816767">
        <ele>206.24609375</ele>
        <time>2017-12-26T03:54:23Z</time>
      </trkpt>
      <trkpt lat="38.841890003532171" lon="-0.187920005992055">
        <ele>206.3671875</ele>
        <time>2017-12-26T03:56:23Z</time>
      </trkpt>
      <trkpt lat="38.841880029067397" lon="-0.188010027632117">
        <ele>206.14453125</ele>
        <time>2017-12-26T03:58:23Z</time>
      </trkpt>
      <trkpt lat="38.841869970783591" lon="-0.188089990988374">
        <ele>206.15234375</ele>
        <time>2017-12-26T04:00:23Z</time>
      </trkpt>
      <trkpt lat="38.841859996318817" lon="-0.188170038163662">
        <ele>205.9375</ele>
        <time>2017-12-26T04:02:23Z</time>
      </trkpt>
      <trkpt lat="38.841859996318817" lon="-0.188250001519918">
        <ele>205.578125</ele>
        <time>2017-12-26T04:04:23Z</time>
      </trkpt>
      <trkpt lat="38.841850021854043" lon="-0.188310015946627">
        <ele>204.62109375</ele>
        <time>2017-12-26T04:06:23Z</time>
      </trkpt>
      <trkpt lat="38.841850021854043" lon="-0.188370030373335">
        <ele>204.52734375</ele>
        <time>2017-12-26T04:08:23Z</time>
      </trkpt>
      <trkpt lat="38.841839963570237" lon="-0.188440019264817">
        <ele>203.921875</ele>
        <time>2017-12-26T04:10:23Z</time>
      </trkpt>
      <trkpt lat="38.841839963570237" lon="-0.188500033691525">
        <ele>203.6640625</ele>
        <time>2017-12-26T04:12:23Z</time>
      </trkpt>
      <trkpt lat="38.841850021854043" lon="-0.188570022583008">
        <ele>203.45703125</ele>
        <time>2017-12-26T04:14:23Z</time>
      </trkpt>
      <trkpt lat="38.841859996318817" lon="-0.188610004261136">
        <ele>203.359375</ele>
        <time>2017-12-26T04:16:23Z</time>
      </trkpt>
      <trkpt lat="38.841880029067397" lon="-0.188649985939264">
        <ele>203.359375</ele>
        <time>2017-12-26T04:18:23Z</time>
      </trkpt>
      <trkpt lat="38.841910036280751" lon="-0.188689967617393">
        <ele>203.578125</ele>
        <time>2017-12-26T04:20:23Z</time>
      </trkpt>
      <trkpt lat="38.841939959675074" lon="-0.188719974830747">
        <ele>203.87890625</ele>
        <time>2017-12-26T04:22:23Z</time>
      </trkpt>
      <trkpt lat="38.841980025172234" lon="-0.188740007579327">
        <ele>204.1171875</ele>
        <time>2017-12-26T04:24:23Z</time>
      </trkpt>
      <trkpt lat="38.841999974101782" lon="-0.188749982044101">
        <ele>204.109375</ele>
        <time>2017-12-26T04:26:23Z</time>
      </trkpt>
      <trkpt lat="38.842040039598942" lon="-0.188760040327907">
        <ele>204.08203125</ele>
        <time>2017-12-26T04:28:23Z</time>
      </trkpt>
      <trkpt lat="38.84208002127707" lon="-0.188760040327907">
        <ele>204.1015625</ele>
        <time>2017-12-26T04:30:23Z</time>
      </trkpt>
      <trkpt lat="38.842120002955198" lon="-0.188749982044101">
        <ele>204.0390625</ele>
        <time>2017-12-26T04:32:23Z</time>
      </trkpt>
      <trkpt lat="38.842159984633327" lon="-0.188740007579327">
        <ele>204.00390625</ele>
        <time>2017-12-26T04:34:23Z</time>
      </trkpt>
      <trkpt lat="38.842189991846681" lon="-0.188719974830747">
        <ele>204.13671875</ele>
        <time>2017-12-26T04:36:23Z</time>
      </trkpt>
      <trkpt lat="38.842229973524809" lon="-0.188700025901198">
        <ele>204.1328125</ele>
        <time>2017-12-26T04:38:23Z</time>
      </trkpt>
      <trkpt lat="38.842270039021969" lon="-0.188670018687844">
        <ele>204.21875</ele>
        <time>2017-12-26T04:40:23Z</time>
      </trkpt>
      <trkpt lat="38.842319995164871" lon="-0.18864001147449">
        <ele>203.71875</ele>
        <time>2017-12-26T04:42:23Z</time>
      </trkpt>
      <trkpt lat="38.842350002378225" lon="-0.188610004261136">
        <ele>203.4375</ele>
        <time>2017-12-26T04:44:23Z</time>
      </trkpt>
      <trkpt lat="38.842399958521128" lon="-0.188570022583008">
        <ele>202.58984375</ele>
        <time>2017-12-26T04:46:23Z</time>
      </trkpt>
      <trkpt lat="38.842419991269708" lon="-0.188549989834428">
        <ele>202.265625</ele>
        <time>2017-12-26T04:48:23Z</time>
      </trkpt>
      <trkpt lat="38.842440024018288" lon="-0.188519982621074">
        <ele>201.9921875</ele>
        <time>2017-12-26T04:50:23Z</time>
      </trkpt>
      <trkpt lat="38.842449998483062" lon="-0.188480000942945">
        <ele>202.1484375</ele>
        <time>2017-12-26T04:52:23Z</time>
      </trkpt>
      <trkpt lat="38.842470031231642" lon="-0.188449993729591">
        <ele>201.9375</ele>
        <time>2017-12-26T04:54:23Z</time>
      </trkpt>
      <trkpt lat="38.842470031231642" lon="-0.188419986516237">
        <ele>202.27734375</ele>
        <time>2017-12-26T04:56:23Z</time>
      </trkpt>
      <trkpt lat="38.842480005696416" lon="-0.188400037586689">
        <ele>202.18359375</ele>
        <time>2017-12-26T04:58:23Z</time>
      </trkpt>
      <trkpt lat="38.84248998016119" lon="-0.188359972089529">
        <ele>202.3828125</ele>
        <time>2017-12-26T05:00:23Z</time>
      </trkpt>
      <trkpt lat="38.84248998016119" lon="-0.188310015946627">
        <ele>203.0390625</ele>
        <time>2017-12-26T05:02:23Z</time>
      </trkpt>
      <trkpt lat="38.84251001290977" lon="-0.188199961557984">
        <ele>203.53125</ele>
        <time>2017-12-26T05:04:23Z</time>
      </trkpt>
      <trkpt lat="38.842529961839318" lon="-0.188029976561666">
        <ele>202.953125</ele>
        <time>2017-12-26T05:06:23Z</time>
      </trkpt>
      <trkpt lat="38.842540020123124" lon="-0.187920005992055">
        <ele>202.62109375</ele>
        <time>2017-12-26T05:08:23Z</time>
      </trkpt>
      <trkpt lat="38.842570027336478" lon="-0.187680032104254">
        <ele>202.57421875</ele>
        <time>2017-12-26T05:10:23Z</time>
      </trkpt>
      <trkpt lat="38.842589976266026" lon="-0.187490014359355">
        <ele>201.76171875</ele>
        <time>2017-12-26T05:12:23Z</time>
      </trkpt>
      <trkpt lat="38.842640016227961" lon="-0.187149960547686">
        <ele>199.9140625</ele>
        <time>2017-12-26T05:14:23Z</time>
      </trkpt>
      <trkpt lat="38.842670023441315" lon="-0.186960026621819">
        <ele>199.19921875</ele>
        <time>2017-12-26T05:16:23Z</time>
      </trkpt>
      <trkpt lat="38.842670023441315" lon="-0.186949968338013">
        <ele>199.21875</ele>
        <time>2017-12-26T05:18:23Z</time>
      </trkpt>
      <trkpt lat="38.842689972370863" lon="-0.18677000887692">
        <ele>199.79296875</ele>
        <time>2017-12-26T05:20:23Z</time>
      </trkpt>
      <trkpt lat="38.842710005119443" lon="-0.186670012772083">
        <ele>199.49609375</ele>
        <time>2017-12-26T05:22:23Z</time>
      </trkpt>
      <trkpt lat="38.842719979584217" lon="-0.186630031093955">
        <ele>199.29296875</ele>
        <time>2017-12-26T05:24:23Z</time>
      </trkpt>
      <trkpt lat="38.842730037868023" lon="-0.186579991132021">
        <ele>199.46484375</ele>
        <time>2017-12-26T05:26:23Z</time>
      </trkpt>
      <trkpt lat="38.842740012332797" lon="-0.186540009453893">
        <ele>199.6171875</ele>
        <time>2017-12-26T05:28:23Z</time>
      </trkpt>
      <trkpt lat="38.842749986797571" lon="-0.186489969491959">
        <ele>200.0390625</ele>
        <time>2017-12-26T05:30:23Z</time>
      </trkpt>
      <trkpt lat="38.842759961262345" lon="-0.18644998781383">
        <ele>200.2421875</ele>
        <time>2017-12-26T05:32:23Z</time>
      </trkpt>
      <trkpt lat="38.842779994010925" lon="-0.186410006135702">
        <ele>199.859375</ele>
        <time>2017-12-26T05:34:23Z</time>
      </trkpt>
      <trkpt lat="38.842800026759505" lon="-0.186359966173768">
        <ele>199.34375</ele>
        <time>2017-12-26T05:36:23Z</time>
      </trkpt>
      <trkpt lat="38.842810001224279" lon="-0.186310010030866">
        <ele>199.65234375</ele>
        <time>2017-12-26T05:38:23Z</time>
      </trkpt>
      <trkpt lat="38.842830033972859" lon="-0.186270028352737">
        <ele>199.51171875</ele>
        <time>2017-12-26T05:40:23Z</time>
      </trkpt>
      <trkpt lat="38.842849982902408" lon="-0.186229962855577">
        <ele>199.60546875</ele>
        <time>2017-12-26T05:42:23Z</time>
      </trkpt>
      <trkpt lat="38.842870015650988" lon="-0.186189981177449">
        <ele>199.58203125</ele>
        <time>2017-12-26T05:44:23Z</time>
      </trkpt>
      <trkpt lat="38.842889964580536" lon="-0.186149999499321">
        <ele>199.5078125</ele>
        <time>2017-12-26T05:46:23Z</time>
      </trkpt>
      <trkpt lat="38.84291997179389" lon="-0.186110017821193">
        <ele>198.85546875</ele>
        <time>2017-12-26T05:48:23Z</time>
      </trkpt>
      <trkpt lat="38.84294000454247" lon="-0.186080010607839">
        <ele>198.69140625</ele>
        <time>2017-12-26T05:50:23Z</time>
      </trkpt>
      <trkpt lat="38.842970011755824" lon="-0.18604002892971">
        <ele>198.65234375</ele>
        <time>2017-12-26T05:52:23Z</time>
      </trkpt>
      <trkpt lat="38.843000018969178" lon="-0.18599996343255">
        <ele>198.36328125</ele>
        <time>2017-12-26T05:54:23Z</time>
      </trkpt>
      <trkpt lat="38.843030026182532" lon="-0.185970040038228">
        <ele>198.56640625</ele>
        <time>2017-12-26T05:56:23Z</time>
      </trkpt>
      <trkpt lat="38.843070007860661" lon="-0.185940032824874">
        <ele>198.33984375</ele>
        <time>2017-12-26T05:58:23Z</time>
      </trkpt>
      <trkpt lat="38.843100015074015" lon="-0.18591002561152">
        <ele>198.49609375</ele>
        <time>2017-12-26T06:00:23Z</time>
      </trkpt>
      <trkpt lat="38.843139996752143" lon="-0.18588999286294">
        <ele>198.984375</ele>
        <time>2017-12-26T06:02:23Z</time>
      </trkpt>
      <trkpt lat="38.843170003965497" lon="-0.185880018398166">
        <ele>199.08203125</ele>
        <time>2017-12-26T06:04:23Z</time>
      </trkpt>
      <trkpt lat="38.843200011178851" lon="-0.18586996011436">
        <ele>199.20703125</ele>
        <time>2017-12-26T06:06:23Z</time>
      </trkpt>
      <trkpt lat="38.843239992856979" lon="-0.185859985649586">
        <ele>199.30078125</ele>
        <time>2017-12-26T06:08:23Z</time>
      </trkpt>
      <trkpt lat="38.843279974535108" lon="-0.185850011184812">
        <ele>199.36328125</ele>
        <time>2017-12-26T06:10:23Z</time>
      </trkpt>
      <trkpt lat="38.843330014497042" lon="-0.185850011184812">
        <ele>198.8671875</ele>
        <time>2017-12-26T06:12:23Z</time>
      </trkpt>
      <trkpt lat="38.843360021710396" lon="-0.185859985649586">
        <ele>198.17578125</ele>
        <time>2017-12-26T06:14:23Z</time>
      </trkpt>
      <trkpt lat="38.843400003388524" lon="-0.18586996011436">
        <ele>197.5234375</ele>
        <time>2017-12-26T06:16:23Z</time>
      </trkpt>
      <trkpt lat="38.843439985066652" lon="-0.185880018398166">
        <ele>196.88671875</ele>
        <time>2017-12-26T06:18:23Z</time>
      </trkpt>
      <trkpt lat="38.843479966744781" lon="-0.18588999286294">
        <ele>196.33203125</ele>
        <time>2017-12-26T06:20:23Z</time>
      </trkpt>
      <trkpt lat="38.843579962849617" lon="-0.185950007289648">
        <ele>194.62109375</ele>
        <time>2017-12-26T06:22:23Z</time>
      </trkpt>
      <trkpt lat="38.843699991703033" lon="-0.18601999618113">
        <ele>193.52734375</ele>
        <time>2017-12-26T06:24:23Z</time>
      </trkpt>
      <trkpt lat="38.843809962272644" lon="-0.186080010607839">
        <ele>192.8828125</ele>
        <time>2017-12-26T06:26:23Z</time>
      </trkpt>
      <trkpt lat="38.843909958377481" lon="-0.186129966750741">
        <ele>191.84375</ele>
        <time>2017-12-26T06:28:23Z</time>
      </trkpt>
      <trkpt lat="38.844020012766123" lon="-0.186180006712675">
        <ele>190.890625</ele>
        <time>2017-12-26T06:30:23Z</time>
      </trkpt>
      <trkpt lat="38.844180023297668" lon="-0.186249995604157">
        <ele>190.21875</ele>
        <time>2017-12-26T06:32:23Z</time>
      </trkpt>
      <trkpt lat="38.84422997944057" lon="-0.186259970068932">
        <ele>189.94921875</ele>
        <time>2017-12-26T06:34:23Z</time>
      </trkpt>
      <trkpt lat="38.844280019402504" lon="-0.186259970068932">
        <ele>189.78515625</ele>
        <time>2017-12-26T06:36:23Z</time>
      </trkpt>
      <trkpt lat="38.844329975545406" lon="-0.186249995604157">
        <ele>189.625</ele>
        <time>2017-12-26T06:38:23Z</time>
      </trkpt>
      <trkpt lat="38.844370041042566" lon="-0.186240021139383">
        <ele>189.40234375</ele>
        <time>2017-12-26T06:40:23Z</time>
      </trkpt>
      <trkpt lat="38.844410022720695" lon="-0.186210013926029">
        <ele>189.45703125</ele>
        <time>2017-12-26T06:42:23Z</time>
      </trkpt>
      <trkpt lat="38.844450004398823" lon="-0.186170032247901">
        <ele>189.55078125</ele>
        <time>2017-12-26T06:44:23Z</time>
      </trkpt>
      <trkpt lat="38.844480011612177" lon="-0.186140025034547">
        <ele>189.52734375</ele>
        <time>2017-12-26T06:46:23Z</time>
      </trkpt>
      <trkpt lat="38.844529967755079" lon="-0.186050003394485">
        <ele>189.53125</ele>
        <time>2017-12-26T06:48:23Z</time>
      </trkpt>
      <trkpt lat="38.844629963859916" lon="-0.18586996011436">
        <ele>189.85546875</ele>
        <time>2017-12-26T06:50:23Z</time>
      </trkpt>
      <trkpt lat="38.844689978286624" lon="-0.185729982331395">
        <ele>190.33203125</ele>
        <time>2017-12-26T06:52:23Z</time>
      </trkpt>
      <trkpt lat="38.844729959964752" lon="-0.185650018975139">
        <ele>189.609375</ele>
        <time>2017-12-26T06:54:23Z</time>
      </trkpt>
      <trkpt lat="38.844749992713332" lon="-0.185580030083656">
        <ele>189.48828125</ele>
        <time>2017-12-26T06:56:23Z</time>
      </trkpt>
      <trkpt lat="38.844770025461912" lon="-0.185529990121722">
        <ele>189.1796875</ele>
        <time>2017-12-26T06:58:23Z</time>
      </trkpt>
      <trkpt lat="38.84478997439146" lon="-0.185429994016886">
        <ele>188.8984375</ele>
        <time>2017-12-26T07:00:23Z</time>
      </trkpt>
      <trkpt lat="38.844800032675266" lon="-0.185339972376823">
        <ele>188.984375</ele>
        <time>2017-12-26T07:02:23Z</time>
      </trkpt>
      <trkpt lat="38.844819981604815" lon="-0.185179961845279">
        <ele>188.96484375</ele>
        <time>2017-12-26T07:04:23Z</time>
      </trkpt>
      <trkpt lat="38.844840014353395" lon="-0.184990027919412">
        <ele>188.55078125</ele>
        <time>2017-12-26T07:06:23Z</time>
      </trkpt>
      <trkpt lat="38.844859963282943" lon="-0.184819959104061">
        <ele>188.32421875</ele>
        <time>2017-12-26T07:08:23Z</time>
      </trkpt>
      <trkpt lat="38.844859963282943" lon="-0.184690039604902">
        <ele>188.3671875</ele>
        <time>2017-12-26T07:10:23Z</time>
      </trkpt>
      <trkpt lat="38.844870021566749" lon="-0.184570010751486">
        <ele>188.20703125</ele>
        <time>2017-12-26T07:12:23Z</time>
      </trkpt>
      <trkpt lat="38.844889970496297" lon="-0.184389967471361">
        <ele>187.41796875</ele>
        <time>2017-12-26T07:14:23Z</time>
      </trkpt>
      <trkpt lat="38.844900028780103" lon="-0.184219982475042">
        <ele>186.93359375</ele>
        <time>2017-12-26T07:16:23Z</time>
      </trkpt>
      <trkpt lat="38.844900028780103" lon="-0.184100037440658">
        <ele>187.5234375</ele>
        <time>2017-12-26T07:18:23Z</time>
      </trkpt>
      <trkpt lat="38.844919977709651" lon="-0.183880012482405">
        <ele>186.921875</ele>
        <time>2017-12-26T07:20:23Z</time>
      </trkpt>
      <trkpt lat="38.844910003244877" lon="-0.18374003469944">
        <ele>187.6875</ele>
        <time>2017-12-26T07:22:23Z</time>
      </trkpt>
      <trkpt lat="38.844919977709651" lon="-0.183620005846024">
        <ele>187.4296875</ele>
        <time>2017-12-26T07:24:23Z</time>
      </trkpt>
      <trkpt lat="38.844949984923005" lon="-0.183469969779253">
        <ele>185.79296875</ele>
        <time>2017-12-26T07:26:23Z</time>
      </trkpt>
      <trkpt lat="38.844970017671585" lon="-0.183320017531514">
        <ele>186.35546875</ele>
        <time>2017-12-26T07:28:23Z</time>
      </trkpt>
      <trkpt lat="38.845009999349713" lon="-0.183099992573261">
        <ele>189.51171875</ele>
        <time>2017-12-26T07:30:23Z</time>
      </trkpt>
      <trkpt lat="38.845019973814487" lon="-0.183020029217005">
        <ele>190.22265625</ele>
        <time>2017-12-26T07:32:23Z</time>
      </trkpt>
      <trkpt lat="38.845040006563067" lon="-0.182950040325522">
        <ele>189.52734375</ele>
        <time>2017-12-26T07:34:23Z</time>
      </trkpt>
      <trkpt lat="38.845079988241196" lon="-0.18283998593688">
        <ele>189.55859375</ele>
        <time>2017-12-26T07:36:23Z</time>
      </trkpt>
      <trkpt lat="38.845100020989776" lon="-0.182790029793978">
        <ele>189.95703125</ele>
        <time>2017-12-26T07:38:23Z</time>
      </trkpt>
      <trkpt lat="38.84513002820313" lon="-0.182739989832044">
        <ele>189.6953125</ele>
        <time>2017-12-26T07:40:23Z</time>
      </trkpt>
      <trkpt lat="38.845160035416484" lon="-0.182690033689141">
        <ele>190.12109375</ele>
        <time>2017-12-26T07:42:23Z</time>
      </trkpt>
      <trkpt lat="38.845200017094612" lon="-0.182660026475787">
        <ele>188.9453125</ele>
        <time>2017-12-26T07:44:23Z</time>
      </trkpt>
      <trkpt lat="38.84521996602416" lon="-0.182630019262433">
        <ele>188.94140625</ele>
        <time>2017-12-26T07:46:23Z</time>
      </trkpt>
      <trkpt lat="38.845249973237514" lon="-0.182619960978627">
        <ele>188.1328125</ele>
        <time>2017-12-26T07:48:23Z</time>
      </trkpt>
      <trkpt lat="38.845290038734674" lon="-0.182600012049079">
        <ele>187.140625</ele>
        <time>2017-12-26T07:50:23Z</time>
      </trkpt>
      <trkpt lat="38.845319962128997" lon="-0.182600012049079">
        <ele>186.0625</ele>
        <time>2017-12-26T07:52:23Z</time>
      </trkpt>
      <trkpt lat="38.845349969342351" lon="-0.182590037584305">
        <ele>185.875</ele>
        <time>2017-12-26T07:54:23Z</time>
      </trkpt>
      <trkpt lat="38.845379976555705" lon="-0.182590037584305">
        <ele>185.43359375</ele>
        <time>2017-12-26T07:56:23Z</time>
      </trkpt>
      <trkpt lat="38.845430016517639" lon="-0.182579979300499">
        <ele>184.984375</ele>
        <time>2017-12-26T07:58:23Z</time>
      </trkpt>
      <trkpt lat="38.845479972660542" lon="-0.182560030370951">
        <ele>184.8671875</ele>
        <time>2017-12-26T08:00:23Z</time>
      </trkpt>
      <trkpt lat="38.845520038157701" lon="-0.182539997622371">
        <ele>184.7890625</ele>
        <time>2017-12-26T08:02:23Z</time>
      </trkpt>
      <trkpt lat="38.845569994300604" lon="-0.182509990409017">
        <ele>184.72265625</ele>
        <time>2017-12-26T08:04:23Z</time>
      </trkpt>
      <trkpt lat="38.845600001513958" lon="-0.182479983195662">
        <ele>184.88671875</ele>
        <time>2017-12-26T08:06:23Z</time>
      </trkpt>
      <trkpt lat="38.845620034262538" lon="-0.182449975982308">
        <ele>185.08203125</ele>
        <time>2017-12-26T08:08:23Z</time>
      </trkpt>
      <trkpt lat="38.845639983192086" lon="-0.182419968768954">
        <ele>185.32421875</ele>
        <time>2017-12-26T08:10:23Z</time>
      </trkpt>
      <trkpt lat="38.845660015940666" lon="-0.1823899615556">
        <ele>185.60546875</ele>
        <time>2017-12-26T08:12:23Z</time>
      </trkpt>
      <trkpt lat="38.845679964870214" lon="-0.182349979877472">
        <ele>186.2734375</ele>
        <time>2017-12-26T08:14:23Z</time>
      </trkpt>
      <trkpt lat="38.84569002315402" lon="-0.182309998199344">
        <ele>186.96875</ele>
        <time>2017-12-26T08:16:23Z</time>
      </trkpt>
      <trkpt lat="38.845699997618794" lon="-0.182270016521215">
        <ele>187.40234375</ele>
        <time>2017-12-26T08:18:23Z</time>
      </trkpt>
      <trkpt lat="38.845699997618794" lon="-0.182230034843087">
        <ele>187.98828125</ele>
        <time>2017-12-26T08:20:23Z</time>
      </trkpt>
      <trkpt lat="38.845699997618794" lon="-0.182170020416379">
        <ele>188.55859375</ele>
        <time>2017-12-26T08:22:23Z</time>
      </trkpt>
      <trkpt lat="38.845699997618794" lon="-0.182110005989671">
        <ele>188.875</ele>
        <time>2017-12-26T08:24:23Z</time>
      </trkpt>
      <trkpt lat="38.84569002315402" lon="-0.182029958814383">
        <ele>189.265625</ele>
        <time>2017-12-26T08:26:23Z</time>
      </trkpt>
      <trkpt lat="38.845660015940666" lon="-0.181910013779998">
        <ele>190.04296875</ele>
        <time>2017-12-26T08:28:23Z</time>
      </trkpt>
      <trkpt lat="38.845650041475892" lon="-0.181859973818064">
        <ele>189.6484375</ele>
        <time>2017-12-26T08:30:23Z</time>
      </trkpt>
      <trkpt lat="38.845630008727312" lon="-0.181759977713227">
        <ele>189.4453125</ele>
        <time>2017-12-26T08:32:23Z</time>
      </trkpt>
      <trkpt lat="38.845569994300604" lon="-0.1815299782902">
        <ele>190.35546875</ele>
        <time>2017-12-26T08:34:23Z</time>
      </trkpt>
      <trkpt lat="38.845549961552024" lon="-0.181410033255816">
        <ele>191.8359375</ele>
        <time>2017-12-26T08:36:23Z</time>
      </trkpt>
      <trkpt lat="38.845530012622476" lon="-0.181339960545301">
        <ele>193.359375</ele>
        <time>2017-12-26T08:38:23Z</time>
      </trkpt>
      <trkpt lat="38.845520038157701" lon="-0.181280029937625">
        <ele>194.1796875</ele>
        <time>2017-12-26T08:40:23Z</time>
      </trkpt>
      <trkpt lat="38.845520038157701" lon="-0.181199982762337">
        <ele>194.51953125</ele>
        <time>2017-12-26T08:42:23Z</time>
      </trkpt>
      <trkpt lat="38.845520038157701" lon="-0.181139968335629">
        <ele>194.54296875</ele>
        <time>2017-12-26T08:44:23Z</time>
      </trkpt>
      <trkpt lat="38.845530012622476" lon="-0.180950034409761">
        <ele>194.08203125</ele>
        <time>2017-12-26T08:46:23Z</time>
      </trkpt>
      <trkpt lat="38.845549961552024" lon="-0.180739983916283">
        <ele>193.44140625</ele>
        <time>2017-12-26T08:48:23Z</time>
      </trkpt>
      <trkpt lat="38.84556001983583" lon="-0.18051995895803">
        <ele>193.14453125</ele>
        <time>2017-12-26T08:50:23Z</time>
      </trkpt>
      <trkpt lat="38.845600001513958" lon="-0.180170014500618">
        <ele>194.36328125</ele>
        <time>2017-12-26T08:52:23Z</time>
      </trkpt>
      <trkpt lat="38.845630008727312" lon="-0.179889975115657">
        <ele>193.23046875</ele>
        <time>2017-12-26T08:54:23Z</time>
      </trkpt>
      <trkpt lat="38.845630008727312" lon="-0.179749997332692">
        <ele>192.16796875</ele>
        <time>2017-12-26T08:56:23Z</time>
      </trkpt>
      <trkpt lat="38.845639983192086" lon="-0.179619994014502">
        <ele>191</ele>
        <time>2017-12-26T08:58:23Z</time>
      </trkpt>
      <trkpt lat="38.845650041475892" lon="-0.179529972374439">
        <ele>189.57421875</ele>
        <time>2017-12-26T09:00:23Z</time>
      </trkpt>
      <trkpt lat="38.845650041475892" lon="-0.179450009018183">
        <ele>188.8359375</ele>
        <time>2017-12-26T09:02:23Z</time>
      </trkpt>
      <trkpt lat="38.845650041475892" lon="-0.179410027340055">
        <ele>188.51953125</ele>
        <time>2017-12-26T09:04:23Z</time>
      </trkpt>
      <trkpt lat="38.845639983192086" lon="-0.179369961842895">
        <ele>188.51953125</ele>
        <time>2017-12-26T09:06:23Z</time>
      </trkpt>
      <trkpt lat="38.845639983192086" lon="-0.179329980164766">
        <ele>188.20703125</ele>
        <time>2017-12-26T09:08:23Z</time>
      </trkpt>
      <trkpt lat="38.845630008727312" lon="-0.179289998486638">
        <ele>187.78515625</ele>
        <time>2017-12-26T09:10:23Z</time>
      </trkpt>
      <trkpt lat="38.845630008727312" lon="-0.17925001680851">
        <ele>187.109375</ele>
        <time>2017-12-26T09:12:23Z</time>
      </trkpt>
      <trkpt lat="38.845620034262538" lon="-0.179210035130382">
        <ele>186.78515625</ele>
        <time>2017-12-26T09:14:23Z</time>
      </trkpt>
      <trkpt lat="38.845609975978732" lon="-0.179169969633222">
        <ele>186.46875</ele>
        <time>2017-12-26T09:16:23Z</time>
      </trkpt>
      <trkpt lat="38.845579968765378" lon="-0.179099980741739">
        <ele>186.203125</ele>
        <time>2017-12-26T09:18:23Z</time>
      </trkpt>
      <trkpt lat="38.845549961552024" lon="-0.179029991850257">
        <ele>185.83984375</ele>
        <time>2017-12-26T09:20:23Z</time>
      </trkpt>
      <trkpt lat="38.845520038157701" lon="-0.178960002958775">
        <ele>185.51953125</ele>
        <time>2017-12-26T09:22:23Z</time>
      </trkpt>
      <trkpt lat="38.845479972660542" lon="-0.178890014067292">
        <ele>185.48828125</ele>
        <time>2017-12-26T09:24:23Z</time>
      </trkpt>
      <trkpt lat="38.845339994877577" lon="-0.178630007430911">
        <ele>184.12890625</ele>
        <time>2017-12-26T09:26:23Z</time>
      </trkpt>
      <trkpt lat="38.845100020989776" lon="-0.178190041333437">
        <ele>179.94140625</ele>
        <time>2017-12-26T09:28:23Z</time>
      </trkpt>
      <trkpt lat="38.845049981027842" lon="-0.178100019693375">
        <ele>179.265625</ele>
        <time>2017-12-26T09:30:23Z</time>
      </trkpt>
      <trkpt lat="38.845009999349713" lon="-0.178030030801892">
        <ele>178.96875</ele>
        <time>2017-12-26T09:32:23Z</time>
      </trkpt>
      <trkpt lat="38.844970017671585" lon="-0.177979990839958">
        <ele>178.93359375</ele>
        <time>2017-12-26T09:34:23Z</time>
      </trkpt>
      <trkpt lat="38.844919977709651" lon="-0.17791997641325">
        <ele>178.5703125</ele>
        <time>2017-12-26T09:36:23Z</time>
      </trkpt>
      <trkpt lat="38.844870021566749" lon="-0.177859961986542">
        <ele>177.8125</ele>
        <time>2017-12-26T09:38:23Z</time>
      </trkpt>
      <trkpt lat="38.844800032675266" lon="-0.177789973095059">
        <ele>176.0859375</ele>
        <time>2017-12-26T09:40:23Z</time>
      </trkpt>
      <trkpt lat="38.844719985499978" lon="-0.177680002525449">
        <ele>175.28515625</ele>
        <time>2017-12-26T09:42:23Z</time>
      </trkpt>
      <trkpt lat="38.844670029357076" lon="-0.177580006420612">
        <ele>176.94921875</ele>
        <time>2017-12-26T09:44:23Z</time>
      </trkpt>
      <trkpt lat="38.84465997107327" lon="-0.177549999207258">
        <ele>177.5859375</ele>
        <time>2017-12-26T09:46:23Z</time>
      </trkpt>
      <trkpt lat="38.844649996608496" lon="-0.17751001752913">
        <ele>178.37890625</ele>
        <time>2017-12-26T09:48:23Z</time>
      </trkpt>
      <trkpt lat="38.844649996608496" lon="-0.177480010315776">
        <ele>178.640625</ele>
        <time>2017-12-26T09:50:23Z</time>
      </trkpt>
      <trkpt lat="38.844649996608496" lon="-0.177440028637648">
        <ele>178.859375</ele>
        <time>2017-12-26T09:52:23Z</time>
      </trkpt>
      <trkpt lat="38.84465997107327" lon="-0.177389988675714">
        <ele>178.8125</ele>
        <time>2017-12-26T09:54:23Z</time>
      </trkpt>
      <trkpt lat="38.844670029357076" lon="-0.177350006997585">
        <ele>178.90625</ele>
        <time>2017-12-26T09:56:23Z</time>
      </trkpt>
      <trkpt lat="38.84470003657043" lon="-0.177240036427975">
        <ele>179.32421875</ele>
        <time>2017-12-26T09:58:23Z</time>
      </trkpt>
      <trkpt lat="38.845049981027842" lon="-0.176290031522512">
        <ele>176.2578125</ele>
        <time>2017-12-26T10:00:23Z</time>
      </trkpt>
      <trkpt lat="38.845140002667904" lon="-0.176100013777614">
        <ele>176.5625</ele>
        <time>2017-12-26T10:02:23Z</time>
      </trkpt>
      <trkpt lat="38.845170009881258" lon="-0.176060032099485">
        <ele>176.33203125</ele>
        <time>2017-12-26T10:04:23Z</time>
      </trkpt>
      <trkpt lat="38.84521996602416" lon="-0.175989959388971">
        <ele>176.01953125</ele>
        <time>2017-12-26T10:06:23Z</time>
      </trkpt>
      <trkpt lat="38.84523999877274" lon="-0.175970010459423">
        <ele>175.88671875</ele>
        <time>2017-12-26T10:08:23Z</time>
      </trkpt>
      <trkpt lat="38.845279980450869" lon="-0.175949977710843">
        <ele>175.42578125</ele>
        <time>2017-12-26T10:10:23Z</time>
      </trkpt>
      <trkpt lat="38.845300013199449" lon="-0.175930028781295">
        <ele>175.29296875</ele>
        <time>2017-12-26T10:12:23Z</time>
      </trkpt>
      <trkpt lat="38.845330020412803" lon="-0.175919970497489">
        <ele>174.89453125</ele>
        <time>2017-12-26T10:14:23Z</time>
      </trkpt>
      <trkpt lat="38.845439990982413" lon="-0.175870014354587">
        <ele>173.90234375</ele>
        <time>2017-12-26T10:16:23Z</time>
      </trkpt>
      <trkpt lat="38.845630008727312" lon="-0.175819974392653">
        <ele>172.98046875</ele>
        <time>2017-12-26T10:18:23Z</time>
      </trkpt>
      <trkpt lat="38.845709972083569" lon="-0.175819974392653">
        <ele>172.8046875</ele>
        <time>2017-12-26T10:20:23Z</time>
      </trkpt>
      <trkpt lat="38.845779960975051" lon="-0.175830032676458">
        <ele>172.7109375</ele>
        <time>2017-12-26T10:22:23Z</time>
      </trkpt>
      <trkpt lat="38.845839975401759" lon="-0.175849981606007">
        <ele>172.65234375</ele>
        <time>2017-12-26T10:24:23Z</time>
      </trkpt>
      <trkpt lat="38.845920022577047" lon="-0.175900021567941">
        <ele>172.72265625</ele>
        <time>2017-12-26T10:26:23Z</time>
      </trkpt>
      <trkpt lat="38.845980037003756" lon="-0.175930028781295">
        <ele>172.390625</ele>
        <time>2017-12-26T10:28:23Z</time>
      </trkpt>
      <trkpt lat="38.846039967611432" lon="-0.175979984924197">
        <ele>171.234375</ele>
        <time>2017-12-26T10:30:23Z</time>
      </trkpt>
      <trkpt lat="38.84644003584981" lon="-0.176309980452061">
        <ele>170.296875</ele>
        <time>2017-12-26T10:32:23Z</time>
      </trkpt>
      <trkpt lat="38.84655000641942" lon="-0.176390027627349">
        <ele>170.4765625</ele>
        <time>2017-12-26T10:34:23Z</time>
      </trkpt>
      <trkpt lat="38.846619995310903" lon="-0.176430009305477">
        <ele>169.97265625</ele>
        <time>2017-12-26T10:36:23Z</time>
      </trkpt>
      <trkpt lat="38.846759973093867" lon="-0.17647996544838">
        <ele>167.78515625</ele>
        <time>2017-12-26T10:38:23Z</time>
      </trkpt>
      <trkpt lat="38.847460029646754" lon="-0.176750030368567">
        <ele>165.20703125</ele>
        <time>2017-12-26T10:40:23Z</time>
      </trkpt>
      <trkpt lat="38.847600007429719" lon="-0.176799986511469">
        <ele>165.5859375</ele>
        <time>2017-12-26T10:42:23Z</time>
      </trkpt>
      <trkpt lat="38.847660021856427" lon="-0.176809960976243">
        <ele>166.09765625</ele>
        <time>2017-12-26T10:44:23Z</time>
      </trkpt>
      <trkpt lat="38.847760017961264" lon="-0.176809960976243">
        <ele>166.85546875</ele>
        <time>2017-12-26T10:46:23Z</time>
      </trkpt>
      <trkpt lat="38.848390001803637" lon="-0.176639975979924">
        <ele>165.0390625</ele>
        <time>2017-12-26T10:48:23Z</time>
      </trkpt>
      <trkpt lat="38.848489997908473" lon="-0.176590019837022">
        <ele>165.37109375</ele>
        <time>2017-12-26T10:50:23Z</time>
      </trkpt>
      <trkpt lat="38.848520005121827" lon="-0.176550038158894">
        <ele>165.41015625</ele>
        <time>2017-12-26T10:52:23Z</time>
      </trkpt>
      <trkpt lat="38.848559986799955" lon="-0.176509972661734">
        <ele>165.1484375</ele>
        <time>2017-12-26T10:54:23Z</time>
      </trkpt>
      <trkpt lat="38.848580019548535" lon="-0.176469990983605">
        <ele>165.1015625</ele>
        <time>2017-12-26T10:56:23Z</time>
      </trkpt>
      <trkpt lat="38.848589994013309" lon="-0.176449958235025">
        <ele>164.9765625</ele>
        <time>2017-12-26T10:58:23Z</time>
      </trkpt>
      <trkpt lat="38.848599968478084" lon="-0.176430009305477">
        <ele>164.796875</ele>
        <time>2017-12-26T11:00:23Z</time>
      </trkpt>
      <trkpt lat="38.848620001226664" lon="-0.176349962130189">
        <ele>164.24609375</ele>
        <time>2017-12-26T11:02:23Z</time>
      </trkpt>
      <trkpt lat="38.848620001226664" lon="-0.176239991560578">
        <ele>164.3046875</ele>
        <time>2017-12-26T11:04:23Z</time>
      </trkpt>
      <trkpt lat="38.848610026761889" lon="-0.176079981029034">
        <ele>164.51171875</ele>
        <time>2017-12-26T11:06:23Z</time>
      </trkpt>
      <trkpt lat="38.848320012912154" lon="-0.172759993001819">
        <ele>162.7109375</ele>
        <time>2017-12-26T11:08:23Z</time>
      </trkpt>
      <trkpt lat="38.848329987376928" lon="-0.172620015218854">
        <ele>163.41796875</ele>
        <time>2017-12-26T11:10:23Z</time>
      </trkpt>
      <trkpt lat="38.848380027338862" lon="-0.172490011900663">
        <ele>161.80078125</ele>
        <time>2017-12-26T11:12:23Z</time>
      </trkpt>
      <trkpt lat="38.848380027338862" lon="-0.172480037435889">
        <ele>162.203125</ele>
        <time>2017-12-26T11:14:23Z</time>
      </trkpt>
      <trkpt lat="38.848459990695119" lon="-0.172369983047247">
        <ele>159.5625</ele>
        <time>2017-12-26T11:16:23Z</time>
      </trkpt>
      <trkpt lat="38.848620001226664" lon="-0.172209972515702">
        <ele>157.8984375</ele>
        <time>2017-12-26T11:18:23Z</time>
      </trkpt>
      <trkpt lat="38.849539998918772" lon="-0.171630028635263">
        <ele>152.15234375</ele>
        <time>2017-12-26T11:20:23Z</time>
      </trkpt>
      <trkpt lat="38.849630020558834" lon="-0.171519974246621">
        <ele>152.28125</ele>
        <time>2017-12-26T11:22:23Z</time>
      </trkpt>
      <trkpt lat="38.849730016663671" lon="-0.171330040320754">
        <ele>152.453125</ele>
        <time>2017-12-26T11:24:23Z</time>
      </trkpt>
      <trkpt lat="38.849849961698055" lon="-0.171019993722439">
        <ele>153.1328125</ele>
        <time>2017-12-26T11:26:23Z</time>
      </trkpt>
      <trkpt lat="38.849900001659989" lon="-0.170799968764186">
        <ele>152.63671875</ele>
        <time>2017-12-26T11:28:23Z</time>
      </trkpt>
      <trkpt lat="38.849909976124763" lon="-0.170620009303093">
        <ele>153.1015625</ele>
        <time>2017-12-26T11:30:23Z</time>
      </trkpt>
      <trkpt lat="38.849890027195215" lon="-0.170390009880066">
        <ele>152.94921875</ele>
        <time>2017-12-26T11:32:23Z</time>
      </trkpt>
      <trkpt lat="38.849779972806573" lon="-0.168989980593324">
        <ele>151.47265625</ele>
        <time>2017-12-26T11:34:23Z</time>
      </trkpt>
      <trkpt lat="38.849779972806573" lon="-0.168689992278814">
        <ele>153.63671875</ele>
        <time>2017-12-26T11:36:23Z</time>
      </trkpt>
      <trkpt lat="38.849820038303733" lon="-0.168480025604367">
        <ele>152.32421875</ele>
        <time>2017-12-26T11:38:23Z</time>
      </trkpt>
      <trkpt lat="38.849969990551472" lon="-0.167720038443804">
        <ele>153.984375</ele>
        <time>2017-12-26T11:40:23Z</time>
      </trkpt>
      <trkpt lat="38.850020030513406" lon="-0.167570002377033">
        <ele>154.44140625</ele>
        <time>2017-12-26T11:42:23Z</time>
      </trkpt>
      <trkpt lat="38.850130001083016" lon="-0.167300021275878">
        <ele>152.375</ele>
        <time>2017-12-26T11:44:23Z</time>
      </trkpt>
      <trkpt lat="38.850320018827915" lon="-0.166849996894598">
        <ele>150.640625</ele>
        <time>2017-12-26T11:46:23Z</time>
      </trkpt>
      <trkpt lat="38.850350026041269" lon="-0.16681001521647">
        <ele>150.1796875</ele>
        <time>2017-12-26T11:48:23Z</time>
      </trkpt>
      <trkpt lat="38.850369974970818" lon="-0.166800040751696">
        <ele>149.3984375</ele>
        <time>2017-12-26T11:50:23Z</time>
      </trkpt>
      <trkpt lat="38.85045999661088" lon="-0.166740026324987">
        <ele>147.609375</ele>
        <time>2017-12-26T11:52:23Z</time>
      </trkpt>
      <trkpt lat="38.850629981607199" lon="-0.166629971936345">
        <ele>146.3984375</ele>
        <time>2017-12-26T11:54:23Z</time>
      </trkpt>
      <trkpt lat="38.850880013778806" lon="-0.16648999415338">
        <ele>145.78125</ele>
        <time>2017-12-26T11:56:23Z</time>
      </trkpt>
      <trkpt lat="38.851049998775125" lon="-0.16638002358377">
        <ele>145.41015625</ele>
        <time>2017-12-26T11:58:23Z</time>
      </trkpt>
      <trkpt lat="38.851270023733377" lon="-0.166290001943707">
        <ele>145.6015625</ele>
        <time>2017-12-26T12:00:23Z</time>
      </trkpt>
      <trkpt lat="38.851570012047887" lon="-0.166109958663583">
        <ele>145.4140625</ele>
        <time>2017-12-26T12:02:23Z</time>
      </trkpt>
      <trkpt lat="38.851700015366077" lon="-0.166020020842552">
        <ele>145.515625</ele>
        <time>2017-12-26T12:04:23Z</time>
      </trkpt>
      <trkpt lat="38.85174997150898" lon="-0.16592999920249">
        <ele>145.91015625</ele>
        <time>2017-12-26T12:06:23Z</time>
      </trkpt>
      <trkpt lat="38.851809985935688" lon="-0.165860010311007">
        <ele>145.94921875</ele>
        <time>2017-12-26T12:08:23Z</time>
      </trkpt>
      <trkpt lat="38.851839993149042" lon="-0.165790021419525">
        <ele>145.99609375</ele>
        <time>2017-12-26T12:10:23Z</time>
      </trkpt>
      <trkpt lat="38.851949963718653" lon="-0.165590029209852">
        <ele>146.38671875</ele>
        <time>2017-12-26T12:12:23Z</time>
      </trkpt>
      <trkpt lat="38.852020036429167" lon="-0.165470000356436">
        <ele>146.15625</ele>
        <time>2017-12-26T12:14:23Z</time>
      </trkpt>
      <trkpt lat="38.852060018107295" lon="-0.165319964289665">
        <ele>146.44140625</ele>
        <time>2017-12-26T12:16:23Z</time>
      </trkpt>
      <trkpt lat="38.852120032534003" lon="-0.165119972079992">
        <ele>147.5390625</ele>
        <time>2017-12-26T12:18:23Z</time>
      </trkpt>
      <trkpt lat="38.852120032534003" lon="-0.164789976552129">
        <ele>151.11328125</ele>
        <time>2017-12-26T12:20:23Z</time>
      </trkpt>
      <trkpt lat="38.852120032534003" lon="-0.164700038731098">
        <ele>151.8359375</ele>
        <time>2017-12-26T12:22:23Z</time>
      </trkpt>
      <trkpt lat="38.852130006998777" lon="-0.164610017091036">
        <ele>151.92578125</ele>
        <time>2017-12-26T12:24:23Z</time>
      </trkpt>
      <trkpt lat="38.852120032534003" lon="-0.164350010454655">
        <ele>153.328125</ele>
        <time>2017-12-26T12:26:23Z</time>
      </trkpt>
      <trkpt lat="38.852099999785423" lon="-0.164059996604919">
        <ele>150.83984375</ele>
        <time>2017-12-26T12:28:23Z</time>
      </trkpt>
      <trkpt lat="38.852060018107295" lon="-0.163880037143826">
        <ele>148.9140625</ele>
        <time>2017-12-26T12:30:23Z</time>
      </trkpt>
      <trkpt lat="38.851660033687949" lon="-0.162659967318177">
        <ele>151.3671875</ele>
        <time>2017-12-26T12:32:23Z</time>
      </trkpt>
      <trkpt lat="38.851630026474595" lon="-0.162570029497147">
        <ele>151.2421875</ele>
        <time>2017-12-26T12:34:23Z</time>
      </trkpt>
      <trkpt lat="38.851589960977435" lon="-0.16245000064373">
        <ele>151.79296875</ele>
        <time>2017-12-26T12:36:23Z</time>
      </trkpt>
      <trkpt lat="38.851530030369759" lon="-0.162270041182637">
        <ele>152.33203125</ele>
        <time>2017-12-26T12:38:23Z</time>
      </trkpt>
      <trkpt lat="38.851519972085953" lon="-0.162240033969283">
        <ele>152.2421875</ele>
        <time>2017-12-26T12:40:23Z</time>
      </trkpt>
      <trkpt lat="38.851489964872599" lon="-0.162150012329221">
        <ele>151.51953125</ele>
        <time>2017-12-26T12:42:23Z</time>
      </trkpt>
      <trkpt lat="38.85147001594305" lon="-0.162089997902513">
        <ele>150.765625</ele>
        <time>2017-12-26T12:44:23Z</time>
      </trkpt>
      <trkpt lat="38.85144998319447" lon="-0.16204004175961">
        <ele>149.921875</ele>
        <time>2017-12-26T12:46:23Z</time>
      </trkpt>
      <trkpt lat="38.851440008729696" lon="-0.161990001797676">
        <ele>148.88671875</ele>
        <time>2017-12-26T12:48:23Z</time>
      </trkpt>
      <trkpt lat="38.851430034264922" lon="-0.161959994584322">
        <ele>148.140625</ele>
        <time>2017-12-26T12:50:23Z</time>
      </trkpt>
      <trkpt lat="38.851419975981116" lon="-0.161929987370968">
        <ele>147.43359375</ele>
        <time>2017-12-26T12:52:23Z</time>
      </trkpt>
      <trkpt lat="38.851410001516342" lon="-0.161850024014711">
        <ele>146.67578125</ele>
        <time>2017-12-26T12:54:23Z</time>
      </trkpt>
      <trkpt lat="38.851389968767762" lon="-0.16111996024847">
        <ele>142.7421875</ele>
        <time>2017-12-26T12:56:23Z</time>
      </trkpt>
      <trkpt lat="38.851389968767762" lon="-0.160719975829124">
        <ele>139.51171875</ele>
        <time>2017-12-26T12:58:23Z</time>
      </trkpt>
      <trkpt lat="38.851400027051568" lon="-0.16055996529758">
        <ele>138.5546875</ele>
        <time>2017-12-26T13:00:23Z</time>
      </trkpt>
      <trkpt lat="38.851400027051568" lon="-0.160299958661199">
        <ele>137.03515625</ele>
        <time>2017-12-26T13:02:23Z</time>
      </trkpt>
      <trkpt lat="38.851389968767762" lon="-0.160180013626814">
        <ele>137.0546875</ele>
        <time>2017-12-26T13:04:23Z</time>
      </trkpt>
      <trkpt lat="38.851389968767762" lon="-0.160119999200106">
        <ele>136.9921875</ele>
        <time>2017-12-26T13:06:23Z</time>
      </trkpt>
      <trkpt lat="38.851379994302988" lon="-0.160069959238172">
        <ele>136.609375</ele>
        <time>2017-12-26T13:08:23Z</time>
      </trkpt>
      <trkpt lat="38.851370019838214" lon="-0.159969963133335">
        <ele>135.8671875</ele>
        <time>2017-12-26T13:10:23Z</time>
      </trkpt>
      <trkpt lat="38.851349987089634" lon="-0.159889999777079">
        <ele>134.953125</ele>
        <time>2017-12-26T13:12:23Z</time>
      </trkpt>
      <trkpt lat="38.851330038160086" lon="-0.159810036420822">
        <ele>134.765625</ele>
        <time>2017-12-26T13:14:23Z</time>
      </trkpt>
      <trkpt lat="38.851300030946732" lon="-0.159680033102632">
        <ele>134.7421875</ele>
        <time>2017-12-26T13:16:23Z</time>
      </trkpt>
      <trkpt lat="38.851180002093315" lon="-0.159230008721352">
        <ele>130.41015625</ele>
        <time>2017-12-26T13:18:23Z</time>
      </trkpt>
      <trkpt lat="38.851049998775125" lon="-0.158670013770461">
        <ele>129.53125</ele>
        <time>2017-12-26T13:20:23Z</time>
      </trkpt>
      <trkpt lat="38.851029966026545" lon="-0.158600024878979">
        <ele>129.23828125</ele>
        <time>2017-12-26T13:22:23Z</time>
      </trkpt>
      <trkpt lat="38.851010017096996" lon="-0.158549984917045">
        <ele>128.734375</ele>
        <time>2017-12-26T13:24:23Z</time>
      </trkpt>
      <trkpt lat="38.85099995881319" lon="-0.158510003238916">
        <ele>128.39453125</ele>
        <time>2017-12-26T13:26:23Z</time>
      </trkpt>
      <trkpt lat="38.850970035418868" lon="-0.158440014347434">
        <ele>128.0546875</ele>
        <time>2017-12-26T13:28:23Z</time>
      </trkpt>
      <trkpt lat="38.850950002670288" lon="-0.1583899743855">
        <ele>128.125</ele>
        <time>2017-12-26T13:30:23Z</time>
      </trkpt>
      <trkpt lat="38.850929969921708" lon="-0.158359967172146">
        <ele>128.01953125</ele>
        <time>2017-12-26T13:32:23Z</time>
      </trkpt>
      <trkpt lat="38.850899962708354" lon="-0.158319985494018">
        <ele>127.6796875</ele>
        <time>2017-12-26T13:34:23Z</time>
      </trkpt>
      <trkpt lat="38.850859981030226" lon="-0.158270029351115">
        <ele>127.0078125</ele>
        <time>2017-12-26T13:36:23Z</time>
      </trkpt>
      <trkpt lat="38.850819999352098" lon="-0.158229963853955">
        <ele>126.39453125</ele>
        <time>2017-12-26T13:38:23Z</time>
      </trkpt>
      <trkpt lat="38.850740035995841" lon="-0.158159974962473">
        <ele>125.91796875</ele>
        <time>2017-12-26T13:40:23Z</time>
      </trkpt>
      <trkpt lat="38.850380033254623" lon="-0.157880019396544">
        <ele>123.609375</ele>
        <time>2017-12-26T13:42:23Z</time>
      </trkpt>
      <trkpt lat="38.850350026041269" lon="-0.157850012183189">
        <ele>123.1796875</ele>
        <time>2017-12-26T13:44:23Z</time>
      </trkpt>
      <trkpt lat="38.850309960544109" lon="-0.157799972221255">
        <ele>122.5234375</ele>
        <time>2017-12-26T13:46:23Z</time>
      </trkpt>
      <trkpt lat="38.850290011614561" lon="-0.157750016078353">
        <ele>122.39453125</ele>
        <time>2017-12-26T13:48:23Z</time>
      </trkpt>
      <trkpt lat="38.850269978865981" lon="-0.157710034400225">
        <ele>122.26171875</ele>
        <time>2017-12-26T13:50:23Z</time>
      </trkpt>
      <trkpt lat="38.850260004401207" lon="-0.157659994438291">
        <ele>122.1953125</ele>
        <time>2017-12-26T13:52:23Z</time>
      </trkpt>
      <trkpt lat="38.850250029936433" lon="-0.157610038295388">
        <ele>122.12890625</ele>
        <time>2017-12-26T13:54:23Z</time>
      </trkpt>
      <trkpt lat="38.850239971652627" lon="-0.15755002386868">
        <ele>122.125</ele>
        <time>2017-12-26T13:56:23Z</time>
      </trkpt>
      <trkpt lat="38.850229997187853" lon="-0.157320024445653">
        <ele>122.078125</ele>
        <time>2017-12-26T13:58:23Z</time>
      </trkpt>
      <trkpt lat="38.850209964439273" lon="-0.156839992851019">
        <ele>121.35546875</ele>
        <time>2017-12-26T14:00:23Z</time>
      </trkpt>
      <trkpt lat="38.850209964439273" lon="-0.156739996746182">
        <ele>121.3125</ele>
        <time>2017-12-26T14:02:23Z</time>
      </trkpt>
      <trkpt lat="38.850199989974499" lon="-0.156679982319474">
        <ele>120.3359375</ele>
        <time>2017-12-26T14:04:23Z</time>
      </trkpt>
      <trkpt lat="38.850190015509725" lon="-0.156619967892766">
        <ele>119.79296875</ele>
        <time>2017-12-26T14:06:23Z</time>
      </trkpt>
      <trkpt lat="38.85018004104495" lon="-0.156570011749864">
        <ele>119.47265625</ele>
        <time>2017-12-26T14:08:23Z</time>
      </trkpt>
      <trkpt lat="38.850169982761145" lon="-0.156530030071735">
        <ele>119.43359375</ele>
        <time>2017-12-26T14:10:23Z</time>
      </trkpt>
      <trkpt lat="38.850160008296371" lon="-0.156489964574575">
        <ele>119.33984375</ele>
        <time>2017-12-26T14:12:23Z</time>
      </trkpt>
      <trkpt lat="38.850139975547791" lon="-0.156449982896447">
        <ele>119.08203125</ele>
        <time>2017-12-26T14:14:23Z</time>
      </trkpt>
      <trkpt lat="38.850120026618242" lon="-0.156419975683093">
        <ele>118.87890625</ele>
        <time>2017-12-26T14:16:23Z</time>
      </trkpt>
      <trkpt lat="38.850099993869662" lon="-0.156370019540191">
        <ele>118.7734375</ele>
        <time>2017-12-26T14:18:23Z</time>
      </trkpt>
      <trkpt lat="38.850060012191534" lon="-0.156310005113482">
        <ele>118.27734375</ele>
        <time>2017-12-26T14:20:23Z</time>
      </trkpt>
      <trkpt lat="38.849900001659989" lon="-0.156129961833358">
        <ele>116.83984375</ele>
        <time>2017-12-26T14:22:23Z</time>
      </trkpt>
      <trkpt lat="38.849539998918772" lon="-0.155710028484464">
        <ele>116.13671875</ele>
        <time>2017-12-26T14:24:23Z</time>
      </trkpt>
      <trkpt lat="38.849389962852001" lon="-0.155510036274791">
        <ele>116.90234375</ele>
        <time>2017-12-26T14:26:23Z</time>
      </trkpt>
      <trkpt lat="38.849360039457679" lon="-0.155459996312857">
        <ele>117.01953125</ele>
        <time>2017-12-26T14:28:23Z</time>
      </trkpt>
      <trkpt lat="38.849130040034652" lon="-0.155090019106865">
        <ele>114.0625</ele>
        <time>2017-12-26T14:30:23Z</time>
      </trkpt>
      <trkpt lat="38.849019985646009" lon="-0.154890026897192">
        <ele>112.5390625</ele>
        <time>2017-12-26T14:32:23Z</time>
      </trkpt>
      <trkpt lat="38.848989978432655" lon="-0.15482003800571">
        <ele>112.1484375</ele>
        <time>2017-12-26T14:34:23Z</time>
      </trkpt>
      <trkpt lat="38.848970029503107" lon="-0.154760023579001">
        <ele>111.62109375</ele>
        <time>2017-12-26T14:36:23Z</time>
      </trkpt>
      <trkpt lat="38.848949996754527" lon="-0.154700009152293">
        <ele>111.05078125</ele>
        <time>2017-12-26T14:38:23Z</time>
      </trkpt>
      <trkpt lat="38.848929964005947" lon="-0.154649969190359">
        <ele>110.5546875</ele>
        <time>2017-12-26T14:40:23Z</time>
      </trkpt>
      <trkpt lat="38.848919989541173" lon="-0.154600013047457">
        <ele>110.3984375</ele>
        <time>2017-12-26T14:42:23Z</time>
      </trkpt>
      <trkpt lat="38.848910015076399" lon="-0.154530024155974">
        <ele>110.4609375</ele>
        <time>2017-12-26T14:44:23Z</time>
      </trkpt>
      <trkpt lat="38.848889982327819" lon="-0.154379988089204">
        <ele>110.01171875</ele>
        <time>2017-12-26T14:46:23Z</time>
      </trkpt>
      <trkpt lat="38.848880007863045" lon="-0.154309999197721">
        <ele>109.9453125</ele>
        <time>2017-12-26T14:48:23Z</time>
      </trkpt>
      <trkpt lat="38.848870033398271" lon="-0.154140014201403">
        <ele>109.22265625</ele>
        <time>2017-12-26T14:50:23Z</time>
      </trkpt>
      <trkpt lat="38.848840026184916" lon="-0.153829967603087">
        <ele>108.61328125</ele>
        <time>2017-12-26T14:52:23Z</time>
      </trkpt>
      <trkpt lat="38.848819993436337" lon="-0.153529979288578">
        <ele>107.4609375</ele>
        <time>2017-12-26T14:54:23Z</time>
      </trkpt>
      <trkpt lat="38.848780011758208" lon="-0.153220016509295">
        <ele>108.078125</ele>
        <time>2017-12-26T14:56:23Z</time>
      </trkpt>
      <trkpt lat="38.84869996458292" lon="-0.152690028771758">
        <ele>106.23828125</ele>
        <time>2017-12-26T14:58:23Z</time>
      </trkpt>
      <trkpt lat="38.848629975691438" lon="-0.152370007708669">
        <ele>105.6796875</ele>
        <time>2017-12-26T15:00:23Z</time>
      </trkpt>
      <trkpt lat="38.848529979586601" lon="-0.151910008862615">
        <ele>104.32421875</ele>
        <time>2017-12-26T15:02:23Z</time>
      </trkpt>
      <trkpt lat="38.848459990695119" lon="-0.151559980586171">
        <ele>103.6328125</ele>
        <time>2017-12-26T15:04:23Z</time>
      </trkpt>
      <trkpt lat="38.848450016230345" lon="-0.151489991694689">
        <ele>103.53515625</ele>
        <time>2017-12-26T15:06:23Z</time>
      </trkpt>
      <trkpt lat="38.848420009016991" lon="-0.151380021125078">
        <ele>103.25390625</ele>
        <time>2017-12-26T15:08:23Z</time>
      </trkpt>
      <trkpt lat="38.848410034552217" lon="-0.151310032233596">
        <ele>103.26171875</ele>
        <time>2017-12-26T15:10:23Z</time>
      </trkpt>
      <trkpt lat="38.848380027338862" lon="-0.151229985058308">
        <ele>103.13671875</ele>
        <time>2017-12-26T15:12:23Z</time>
      </trkpt>
      <trkpt lat="38.848359994590282" lon="-0.151169970631599">
        <ele>103.12890625</ele>
        <time>2017-12-26T15:14:23Z</time>
      </trkpt>
      <trkpt lat="38.848329987376928" lon="-0.151110040023923">
        <ele>103.01953125</ele>
        <time>2017-12-26T15:16:23Z</time>
      </trkpt>
      <trkpt lat="38.84831003844738" lon="-0.151069974526763">
        <ele>102.69140625</ele>
        <time>2017-12-26T15:18:23Z</time>
      </trkpt>
      <trkpt lat="38.848299980163574" lon="-0.151009960100055">
        <ele>102.546875</ele>
        <time>2017-12-26T15:20:23Z</time>
      </trkpt>
      <trkpt lat="38.848229991272092" lon="-0.150850033387542">
        <ele>102.1015625</ele>
        <time>2017-12-26T15:22:23Z</time>
      </trkpt>
      <trkpt lat="38.848009966313839" lon="-0.150319961830974">
        <ele>100.625</ele>
        <time>2017-12-26T15:24:23Z</time>
      </trkpt>
      <trkpt lat="38.847790025174618" lon="-0.149800032377243">
        <ele>98.1640625</ele>
        <time>2017-12-26T15:26:23Z</time>
      </trkpt>
      <trkpt lat="38.847679970785975" lon="-0.14947003684938">
        <ele>96.19921875</ele>
        <time>2017-12-26T15:28:23Z</time>
      </trkpt>
      <trkpt lat="38.847620040178299" lon="-0.149050019681454">
        <ele>97.72265625</ele>
        <time>2017-12-26T15:30:23Z</time>
      </trkpt>
      <trkpt lat="38.847600007429719" lon="-0.148850027471781">
        <ele>98.54296875</ele>
        <time>2017-12-26T15:32:23Z</time>
      </trkpt>
      <trkpt lat="38.847530018538237" lon="-0.147970011457801">
        <ele>99.03125</ele>
        <time>2017-12-26T15:34:23Z</time>
      </trkpt>
      <trkpt lat="38.8474300224334" lon="-0.146859996020794">
        <ele>96.46875</ele>
        <time>2017-12-26T15:36:23Z</time>
      </trkpt>
      <trkpt lat="38.847370008006692" lon="-0.146239986643195">
        <ele>93.80078125</ele>
        <time>2017-12-26T15:38:23Z</time>
      </trkpt>
      <trkpt lat="38.847360033541918" lon="-0.146019961684942">
        <ele>93.6796875</ele>
        <time>2017-12-26T15:40:23Z</time>
      </trkpt>
      <trkpt lat="38.847319968044758" lon="-0.145619977265596">
        <ele>93.28125</ele>
        <time>2017-12-26T15:42:23Z</time>
      </trkpt>
      <trkpt lat="38.847289960831404" lon="-0.145270032808185">
        <ele>92.52734375</ele>
        <time>2017-12-26T15:44:23Z</time>
      </trkpt>
      <trkpt lat="38.847260037437081" lon="-0.145010026171803">
        <ele>91.83984375</ele>
        <time>2017-12-26T15:46:23Z</time>
      </trkpt>
      <trkpt lat="38.847230030223727" lon="-0.144739961251616">
        <ele>91.5546875</ele>
        <time>2017-12-26T15:48:23Z</time>
      </trkpt>
      <trkpt lat="38.847179990261793" lon="-0.14425003901124">
        <ele>91.8984375</ele>
        <time>2017-12-26T15:50:23Z</time>
      </trkpt>
      <trkpt lat="38.847149983048439" lon="-0.144009981304407">
        <ele>91.171875</ele>
        <time>2017-12-26T15:52:23Z</time>
      </trkpt>
      <trkpt lat="38.847149983048439" lon="-0.143900010734797">
        <ele>91.0390625</ele>
        <time>2017-12-26T15:54:23Z</time>
      </trkpt>
      <trkpt lat="38.847149983048439" lon="-0.143790040165186">
        <ele>90.99609375</ele>
        <time>2017-12-26T15:56:23Z</time>
      </trkpt>
      <trkpt lat="38.847160041332245" lon="-0.143670011311769">
        <ele>90.66015625</ele>
        <time>2017-12-26T15:58:23Z</time>
      </trkpt>
      <trkpt lat="38.847179990261793" lon="-0.143549982458353">
        <ele>90.296875</ele>
        <time>2017-12-26T16:00:23Z</time>
      </trkpt>
      <trkpt lat="38.847209997475147" lon="-0.143449986353517">
        <ele>90.27734375</ele>
        <time>2017-12-26T16:02:23Z</time>
      </trkpt>
      <trkpt lat="38.84730001911521" lon="-0.143119990825653">
        <ele>90.95703125</ele>
        <time>2017-12-26T16:04:23Z</time>
      </trkpt>
      <trkpt lat="38.8474300224334" lon="-0.142689999192953">
        <ele>88.61328125</ele>
        <time>2017-12-26T16:06:23Z</time>
      </trkpt>
      <trkpt lat="38.847490036860108" lon="-0.1424699742347">
        <ele>87.90625</ele>
        <time>2017-12-26T16:08:23Z</time>
      </trkpt>
      <trkpt lat="38.847570000216365" lon="-0.142160011455417">
        <ele>86.4609375</ele>
        <time>2017-12-26T16:10:23Z</time>
      </trkpt>
      <trkpt lat="38.847660021856427" lon="-0.141809983178973">
        <ele>85.87109375</ele>
        <time>2017-12-26T16:12:23Z</time>
      </trkpt>
      <trkpt lat="38.84783998131752" lon="-0.141189973801374">
        <ele>83.28125</ele>
        <time>2017-12-26T16:14:23Z</time>
      </trkpt>
      <trkpt lat="38.847879962995648" lon="-0.14104999601841">
        <ele>83.10546875</ele>
        <time>2017-12-26T16:16:23Z</time>
      </trkpt>
      <trkpt lat="38.848050031810999" lon="-0.140380030497909">
        <ele>81.296875</ele>
        <time>2017-12-26T16:18:23Z</time>
      </trkpt>
      <trkpt lat="38.848069980740547" lon="-0.140280034393072">
        <ele>80.9453125</ele>
        <time>2017-12-26T16:20:23Z</time>
      </trkpt>
      <trkpt lat="38.84813996963203" lon="-0.140050034970045">
        <ele>80.625</ele>
        <time>2017-12-26T16:22:23Z</time>
      </trkpt>
      <trkpt lat="38.848280031234026" lon="-0.139570003375411">
        <ele>78.73828125</ele>
        <time>2017-12-26T16:24:23Z</time>
      </trkpt>
      <trkpt lat="38.8482900056988" lon="-0.139509988948703">
        <ele>78.48046875</ele>
        <time>2017-12-26T16:26:23Z</time>
      </trkpt>
      <trkpt lat="38.848610026761889" lon="-0.13842998072505">
        <ele>74.66015625</ele>
        <time>2017-12-26T16:28:23Z</time>
      </trkpt>
      <trkpt lat="38.848629975691438" lon="-0.138359991833568">
        <ele>74.55859375</ele>
        <time>2017-12-26T16:30:23Z</time>
      </trkpt>
      <trkpt lat="38.848750004544854" lon="-0.137879960238934">
        <ele>73.625</ele>
        <time>2017-12-26T16:32:23Z</time>
      </trkpt>
      <trkpt lat="38.848949996754527" lon="-0.137070016935468">
        <ele>68.7734375</ele>
        <time>2017-12-26T16:34:23Z</time>
      </trkpt>
      <trkpt lat="38.848980003967881" lon="-0.136979995295405">
        <ele>68.59765625</ele>
        <time>2017-12-26T16:36:23Z</time>
      </trkpt>
      <trkpt lat="38.848980003967881" lon="-0.136970020830631">
        <ele>68.53125</ele>
        <time>2017-12-26T16:38:23Z</time>
      </trkpt>
      <trkpt lat="38.849119981750846" lon="-0.136440033093095">
        <ele>64.98046875</ele>
        <time>2017-12-26T16:40:23Z</time>
      </trkpt>
      <trkpt lat="38.849159963428974" lon="-0.136329978704453">
        <ele>64.96875</ele>
        <time>2017-12-26T16:42:23Z</time>
      </trkpt>
      <trkpt lat="38.849200028926134" lon="-0.136159993708134">
        <ele>64.5703125</ele>
        <time>2017-12-26T16:44:23Z</time>
      </trkpt>
      <trkpt lat="38.849240010604262" lon="-0.135969975963235">
        <ele>63.7421875</ele>
        <time>2017-12-26T16:46:23Z</time>
      </trkpt>
      <trkpt lat="38.849259959533811" lon="-0.135890012606978">
        <ele>63.80859375</ele>
        <time>2017-12-26T16:48:23Z</time>
      </trkpt>
      <trkpt lat="38.849279992282391" lon="-0.135779958218336">
        <ele>64.21484375</ele>
        <time>2017-12-26T16:50:23Z</time>
      </trkpt>
      <trkpt lat="38.849300025030971" lon="-0.135690020397305">
        <ele>64.11328125</ele>
        <time>2017-12-26T16:52:23Z</time>
      </trkpt>
      <trkpt lat="38.849319973960519" lon="-0.135569991543889">
        <ele>64.0390625</ele>
        <time>2017-12-26T16:54:23Z</time>
      </trkpt>
      <trkpt lat="38.849340006709099" lon="-0.135460020974278">
        <ele>64.15625</ele>
        <time>2017-12-26T16:56:23Z</time>
      </trkpt>
      <trkpt lat="38.849349981173873" lon="-0.135339992120862">
        <ele>64.12109375</ele>
        <time>2017-12-26T16:58:23Z</time>
      </trkpt>
      <trkpt lat="38.849360039457679" lon="-0.134879993274808">
        <ele>64.13671875</ele>
        <time>2017-12-26T17:00:23Z</time>
      </trkpt>
      <trkpt lat="38.849360039457679" lon="-0.134649993851781">
        <ele>64.6328125</ele>
        <time>2017-12-26T17:02:23Z</time>
      </trkpt>
      <trkpt lat="38.849360039457679" lon="-0.134419994428754">
        <ele>65.0859375</ele>
        <time>2017-12-26T17:04:23Z</time>
      </trkpt>
      <trkpt lat="38.849349981173873" lon="-0.134189995005727">
        <ele>65.8203125</ele>
        <time>2017-12-26T17:06:23Z</time>
      </trkpt>
      <trkpt lat="38.849340006709099" lon="-0.134120006114244">
        <ele>65.9765625</ele>
        <time>2017-12-26T17:08:23Z</time>
      </trkpt>
      <trkpt lat="38.849340006709099" lon="-0.13406996615231">
        <ele>65.9765625</ele>
        <time>2017-12-26T17:10:23Z</time>
      </trkpt>
      <trkpt lat="38.849300025030971" lon="-0.133760003373027">
        <ele>67.05078125</ele>
        <time>2017-12-26T17:12:23Z</time>
      </trkpt>
      <trkpt lat="38.849289966747165" lon="-0.133720021694899">
        <ele>67.1015625</ele>
        <time>2017-12-26T17:14:23Z</time>
      </trkpt>
      <trkpt lat="38.849279992282391" lon="-0.133609967306256">
        <ele>66.6953125</ele>
        <time>2017-12-26T17:16:23Z</time>
      </trkpt>
      <trkpt lat="38.849259959533811" lon="-0.133499996736646">
        <ele>67.42578125</ele>
        <time>2017-12-26T17:18:23Z</time>
      </trkpt>
      <trkpt lat="38.849240010604262" lon="-0.133390026167035">
        <ele>67.95703125</ele>
        <time>2017-12-26T17:20:23Z</time>
      </trkpt>
      <trkpt lat="38.849159963428974" lon="-0.133049972355366">
        <ele>67.56640625</ele>
        <time>2017-12-26T17:22:23Z</time>
      </trkpt>
      <trkpt lat="38.848889982327819" lon="-0.131839960813522">
        <ele>65.7421875</ele>
        <time>2017-12-26T17:24:23Z</time>
      </trkpt>
      <trkpt lat="38.848650008440018" lon="-0.130730029195547">
        <ele>63.53515625</ele>
        <time>2017-12-26T17:26:23Z</time>
      </trkpt>
      <trkpt lat="38.848120020702481" lon="-0.128249991685152">
        <ele>66.0234375</ele>
        <time>2017-12-26T17:28:23Z</time>
      </trkpt>
      <trkpt lat="38.847969984635711" lon="-0.127550018951297">
        <ele>71.2421875</ele>
        <time>2017-12-26T17:30:23Z</time>
      </trkpt>
      <trkpt lat="38.847930002957582" lon="-0.127380033954978">
        <ele>70.9453125</ele>
        <time>2017-12-26T17:32:23Z</time>
      </trkpt>
      <trkpt lat="38.847879962995648" lon="-0.127120027318597">
        <ele>69.24609375</ele>
        <time>2017-12-26T17:34:23Z</time>
      </trkpt>
      <trkpt lat="38.847869988530874" lon="-0.127060012891889">
        <ele>68.48828125</ele>
        <time>2017-12-26T17:36:23Z</time>
      </trkpt>
      <trkpt lat="38.847850039601326" lon="-0.126960016787052">
        <ele>67.96875</ele>
        <time>2017-12-26T17:38:23Z</time>
      </trkpt>
      <trkpt lat="38.847799999639392" lon="-0.126790031790733">
        <ele>67.96875</ele>
        <time>2017-12-26T17:40:23Z</time>
      </trkpt>
      <trkpt lat="38.847749959677458" lon="-0.126679977402091">
        <ele>67.55078125</ele>
        <time>2017-12-26T17:42:23Z</time>
      </trkpt>
      <trkpt lat="38.847660021856427" lon="-0.126500017940998">
        <ele>66.37109375</ele>
        <time>2017-12-26T17:44:23Z</time>
      </trkpt>
      <trkpt lat="38.847539993003011" lon="-0.126289967447519">
        <ele>64.23828125</ele>
        <time>2017-12-26T17:46:23Z</time>
      </trkpt>
      <trkpt lat="38.847370008006692" lon="-0.126019986346364">
        <ele>63.328125</ele>
        <time>2017-12-26T17:48:23Z</time>
      </trkpt>
      <trkpt lat="38.847130034118891" lon="-0.125629976391792">
        <ele>61.1484375</ele>
        <time>2017-12-26T17:50:23Z</time>
      </trkpt>
      <trkpt lat="38.84697999805212" lon="-0.125380028039217">
        <ele>59.109375</ele>
        <time>2017-12-26T17:52:23Z</time>
      </trkpt>
      <trkpt lat="38.846940016373992" lon="-0.125310039147735">
        <ele>58.6640625</ele>
        <time>2017-12-26T17:54:23Z</time>
      </trkpt>
      <trkpt lat="38.846780005842447" lon="-0.125039974227548">
        <ele>57.875</ele>
        <time>2017-12-26T17:56:23Z</time>
      </trkpt>
      <trkpt lat="38.846719991415739" lon="-0.124939978122711">
        <ele>56.7109375</ele>
        <time>2017-12-26T17:58:23Z</time>
      </trkpt>
      <trkpt lat="38.846640028059483" lon="-0.124790025874972">
        <ele>55.71484375</ele>
        <time>2017-12-26T18:00:23Z</time>
      </trkpt>
      <trkpt lat="38.846559980884194" lon="-0.12467997148633">
        <ele>56.87109375</ele>
        <time>2017-12-26T18:02:23Z</time>
      </trkpt>
      <trkpt lat="38.846090007573366" lon="-0.123859969899058">
        <ele>59.3125</ele>
        <time>2017-12-26T18:04:23Z</time>
      </trkpt>
      <trkpt lat="38.845160035416484" lon="-0.122330021113157">
        <ele>62.16796875</ele>
        <time>2017-12-26T18:06:23Z</time>
      </trkpt>
      <trkpt lat="38.845070013776422" lon="-0.122160036116838">
        <ele>62.8671875</ele>
        <time>2017-12-26T18:08:23Z</time>
      </trkpt>
      <trkpt lat="38.844570033252239" lon="-0.121359983459115">
        <ele>63.09375</ele>
        <time>2017-12-26T18:10:23Z</time>
      </trkpt>
      <trkpt lat="38.844370041042566" lon="-0.121020013466477">
        <ele>62.44921875</ele>
        <time>2017-12-26T18:12:23Z</time>
      </trkpt>
      <trkpt lat="38.844320001080632" lon="-0.120950024574995">
        <ele>61.52734375</ele>
        <time>2017-12-26T18:14:23Z</time>
      </trkpt>
      <trkpt lat="38.844199972227216" lon="-0.120709966868162">
        <ele>60.6796875</ele>
        <time>2017-12-26T18:16:23Z</time>
      </trkpt>
      <trkpt lat="38.844169965013862" lon="-0.120650036260486">
        <ele>61.234375</ele>
        <time>2017-12-26T18:18:23Z</time>
      </trkpt>
      <trkpt lat="38.844169965013862" lon="-0.120650036260486">
        <ele>61.234375</ele>
        <time>2017-12-26T18:20:23Z</time>
      </trkpt>
      <trkpt lat="38.844169965013862" lon="-0.12066001072526">
        <ele>61.19921875</ele>
        <time>2017-12-26T18:22:23Z</time>
      </trkpt>
      <trkpt lat="38.844159990549088" lon="-0.12066001072526">
        <ele>61.2734375</ele>
        <time>2017-12-26T18:24:23Z</time>
      </trkpt>
      <trkpt lat="38.844150016084313" lon="-0.120669985190034">
        <ele>61.2734375</ele>
        <time>2017-12-26T18:26:23Z</time>
      </trkpt>
      <trkpt lat="38.844140041619539" lon="-0.120669985190034">
        <ele>61.3359375</ele>
        <time>2017-12-26T18:28:23Z</time>
      </trkpt>
      <trkpt lat="38.844129983335733" lon="-0.120669985190034">
        <ele>61.40234375</ele>
        <time>2017-12-26T18:30:23Z</time>
      </trkpt>
      <trkpt lat="38.844129983335733" lon="-0.120679959654808">
        <ele>61.2578125</ele>
        <time>2017-12-26T18:32:23Z</time>
      </trkpt>
      <trkpt lat="38.844120008870959" lon="-0.120679959654808">
        <ele>61.30859375</ele>
        <time>2017-12-26T18:34:23Z</time>
      </trkpt>
      <trkpt lat="38.844110034406185" lon="-0.120679959654808">
        <ele>61.3671875</ele>
        <time>2017-12-26T18:36:23Z</time>
      </trkpt>
      <trkpt lat="38.844099976122379" lon="-0.120679959654808">
        <ele>61.53125</ele>
        <time>2017-12-26T18:38:23Z</time>
      </trkpt>
      <trkpt lat="38.844099976122379" lon="-0.120669985190034">
        <ele>61.6953125</ele>
        <time>2017-12-26T18:40:23Z</time>
      </trkpt>
      <trkpt lat="38.844090001657605" lon="-0.120669985190034">
        <ele>61.859375</ele>
        <time>2017-12-26T18:42:23Z</time>
      </trkpt>
      <trkpt lat="38.844080027192831" lon="-0.120669985190034">
        <ele>62.0234375</ele>
        <time>2017-12-26T18:44:23Z</time>
      </trkpt>
      <trkpt lat="38.844069968909025" lon="-0.12066001072526">
        <ele>62.3046875</ele>
        <time>2017-12-26T18:46:23Z</time>
      </trkpt>
      <trkpt lat="38.844059994444251" lon="-0.12066001072526">
        <ele>62.47265625</ele>
        <time>2017-12-26T18:48:23Z</time>
      </trkpt>
      <trkpt lat="38.844059994444251" lon="-0.120650036260486">
        <ele>62.5703125</ele>
        <time>2017-12-26T18:50:23Z</time>
      </trkpt>
      <trkpt lat="38.844050019979477" lon="-0.120650036260486">
        <ele>62.734375</ele>
        <time>2017-12-26T18:52:23Z</time>
      </trkpt>
      <trkpt lat="38.844050019979477" lon="-0.12063997797668">
        <ele>62.83203125</ele>
        <time>2017-12-26T18:54:23Z</time>
      </trkpt>
      <trkpt lat="38.844039961695671" lon="-0.12063997797668">
        <ele>63</ele>
        <time>2017-12-26T18:56:23Z</time>
      </trkpt>
      <trkpt lat="38.844039961695671" lon="-0.120630003511906">
        <ele>63.09765625</ele>
        <time>2017-12-26T18:58:23Z</time>
      </trkpt>
      <trkpt lat="38.844039961695671" lon="-0.120620029047132">
        <ele>63.1953125</ele>
        <time>2017-12-26T19:00:23Z</time>
      </trkpt>
      <trkpt lat="38.844029987230897" lon="-0.120620029047132">
        <ele>63.359375</ele>
        <time>2017-12-26T19:02:23Z</time>
      </trkpt>
      <trkpt lat="38.844029987230897" lon="-0.120609970763326">
        <ele>63.4609375</ele>
        <time>2017-12-26T19:04:23Z</time>
      </trkpt>
      <trkpt lat="38.844029987230897" lon="-0.120599996298552">
        <ele>63.55859375</ele>
        <time>2017-12-26T19:06:23Z</time>
      </trkpt>
      <trkpt lat="38.844029987230897" lon="-0.120590021833777">
        <ele>63.65625</ele>
        <time>2017-12-26T19:08:23Z</time>
      </trkpt>
      <trkpt lat="38.844020012766123" lon="-0.120590021833777">
        <ele>63.8203125</ele>
        <time>2017-12-26T19:10:23Z</time>
      </trkpt>
      <trkpt lat="38.844020012766123" lon="-0.120579963549972">
        <ele>63.91796875</ele>
        <time>2017-12-26T19:12:23Z</time>
      </trkpt>
      <trkpt lat="38.844020012766123" lon="-0.120569989085197">
        <ele>64.01953125</ele>
        <time>2017-12-26T19:14:23Z</time>
      </trkpt>
      <trkpt lat="38.844020012766123" lon="-0.120560014620423">
        <ele>64.1171875</ele>
        <time>2017-12-26T19:16:23Z</time>
      </trkpt>
      <trkpt lat="38.844020012766123" lon="-0.120550040155649">
        <ele>64.21875</ele>
        <time>2017-12-26T19:18:23Z</time>
      </trkpt>
      <trkpt lat="38.844020012766123" lon="-0.120539981871843">
        <ele>64.3203125</ele>
        <time>2017-12-26T19:20:23Z</time>
      </trkpt>
      <trkpt lat="38.844020012766123" lon="-0.120530007407069">
        <ele>64.421875</ele>
        <time>2017-12-26T19:22:23Z</time>
      </trkpt>
      <trkpt lat="38.844020012766123" lon="-0.120520032942295">
        <ele>64.51953125</ele>
        <time>2017-12-26T19:24:23Z</time>
      </trkpt>
      <trkpt lat="38.844029987230897" lon="-0.120509974658489">
        <ele>64.50390625</ele>
        <time>2017-12-26T19:26:23Z</time>
      </trkpt>
      <trkpt lat="38.844029987230897" lon="-0.120500000193715">
        <ele>64.609375</ele>
        <time>2017-12-26T19:28:23Z</time>
      </trkpt>
      <trkpt lat="38.844029987230897" lon="-0.120490025728941">
        <ele>64.71875</ele>
        <time>2017-12-26T19:30:23Z</time>
      </trkpt>
      <trkpt lat="38.844039961695671" lon="-0.120479967445135">
        <ele>64.7109375</ele>
        <time>2017-12-26T19:32:23Z</time>
      </trkpt>
      <trkpt lat="38.844039961695671" lon="-0.120469992980361">
        <ele>64.7421875</ele>
        <time>2017-12-26T19:34:23Z</time>
      </trkpt>
      <trkpt lat="38.844050019979477" lon="-0.120469992980361">
        <ele>64.64453125</ele>
        <time>2017-12-26T19:36:23Z</time>
      </trkpt>
      <trkpt lat="38.844050019979477" lon="-0.120460018515587">
        <ele>64.67578125</ele>
        <time>2017-12-26T19:38:23Z</time>
      </trkpt>
      <trkpt lat="38.844059994444251" lon="-0.120460018515587">
        <ele>64.578125</ele>
        <time>2017-12-26T19:40:23Z</time>
      </trkpt>
      <trkpt lat="38.844059994444251" lon="-0.120449960231781">
        <ele>64.61328125</ele>
        <time>2017-12-26T19:42:23Z</time>
      </trkpt>
      <trkpt lat="38.844069968909025" lon="-0.120449960231781">
        <ele>64.51171875</ele>
        <time>2017-12-26T19:44:23Z</time>
      </trkpt>
      <trkpt lat="38.844080027192831" lon="-0.120449960231781">
        <ele>64.4140625</ele>
        <time>2017-12-26T19:46:23Z</time>
      </trkpt>
      <trkpt lat="38.844080027192831" lon="-0.120439985767007">
        <ele>64.4453125</ele>
        <time>2017-12-26T19:48:23Z</time>
      </trkpt>
      <trkpt lat="38.844090001657605" lon="-0.120439985767007">
        <ele>64.34765625</ele>
        <time>2017-12-26T19:50:23Z</time>
      </trkpt>
      <trkpt lat="38.844099976122379" lon="-0.120439985767007">
        <ele>64.25</ele>
        <time>2017-12-26T19:52:23Z</time>
      </trkpt>
      <trkpt lat="38.844110034406185" lon="-0.120439985767007">
        <ele>64.1484375</ele>
        <time>2017-12-26T19:54:23Z</time>
      </trkpt>
      <trkpt lat="38.844120008870959" lon="-0.120439985767007">
        <ele>63.96875</ele>
        <time>2017-12-26T19:56:23Z</time>
      </trkpt>
      <trkpt lat="38.844129983335733" lon="-0.120439985767007">
        <ele>63.78125</ele>
        <time>2017-12-26T19:58:23Z</time>
      </trkpt>
      <trkpt lat="38.844140041619539" lon="-0.120439985767007">
        <ele>63.59765625</ele>
        <time>2017-12-26T20:00:23Z</time>
      </trkpt>
      <trkpt lat="38.844150016084313" lon="-0.120439985767007">
        <ele>63.41015625</ele>
        <time>2017-12-26T20:02:23Z</time>
      </trkpt>
      <trkpt lat="38.844150016084313" lon="-0.120449960231781">
        <ele>63.3359375</ele>
        <time>2017-12-26T20:04:23Z</time>
      </trkpt>
      <trkpt lat="38.844159990549088" lon="-0.120449960231781">
        <ele>63.140625</ele>
        <time>2017-12-26T20:06:23Z</time>
      </trkpt>
      <trkpt lat="38.845249973237514" lon="-0.119250006973743">
        <ele>62.015625</ele>
        <time>2017-12-26T20:08:23Z</time>
      </trkpt>
      <trkpt lat="38.845590027049184" lon="-0.118890004232526">
        <ele>60.9609375</ele>
        <time>2017-12-26T20:10:23Z</time>
      </trkpt>
      <trkpt lat="38.845639983192086" lon="-0.118839964270592">
        <ele>60.6328125</ele>
        <time>2017-12-26T20:12:23Z</time>
      </trkpt>
      <trkpt lat="38.845929997041821" lon="-0.118539975956082">
        <ele>59.23046875</ele>
        <time>2017-12-26T20:14:23Z</time>
      </trkpt>
      <trkpt lat="38.846740024164319" lon="-0.117649985477328">
        <ele>55.109375</ele>
        <time>2017-12-26T20:16:23Z</time>
      </trkpt>
      <trkpt lat="38.846800038591027" lon="-0.117600029334426">
        <ele>54.86328125</ele>
        <time>2017-12-26T20:18:23Z</time>
      </trkpt>
      <trkpt lat="38.84697999805212" lon="-0.117419986054301">
        <ele>54.25</ele>
        <time>2017-12-26T20:20:23Z</time>
      </trkpt>
      <trkpt lat="38.847189964726567" lon="-0.117219993844628">
        <ele>53.03515625</ele>
        <time>2017-12-26T20:22:23Z</time>
      </trkpt>
      <trkpt lat="38.847549967467785" lon="-0.116869965568185">
        <ele>51.3984375</ele>
        <time>2017-12-26T20:24:23Z</time>
      </trkpt>
      <trkpt lat="38.847549967467785" lon="-0.116869965568185">
        <ele>51.3984375</ele>
        <time>2017-12-26T20:26:23Z</time>
      </trkpt>
      <trkpt lat="38.847879962995648" lon="-0.116469981148839">
        <ele>49.53515625</ele>
        <time>2017-12-26T20:28:23Z</time>
      </trkpt>
      <trkpt lat="38.847879962995648" lon="-0.116469981148839">
        <ele>49.53515625</ele>
        <time>2017-12-26T20:30:23Z</time>
      </trkpt>
      <trkpt lat="38.847639989107847" lon="-0.115990033373237">
        <ele>49.0703125</ele>
        <time>2017-12-26T20:32:23Z</time>
      </trkpt>
      <trkpt lat="38.847209997475147" lon="-0.114970039576292">
        <ele>51.2109375</ele>
        <time>2017-12-26T20:34:23Z</time>
      </trkpt>
      <trkpt lat="38.846819987520576" lon="-0.114120030775666">
        <ele>49.890625</ele>
        <time>2017-12-26T20:36:23Z</time>
      </trkpt>
      <trkpt lat="38.846819987520576" lon="-0.114120030775666">
        <ele>49.890625</ele>
        <time>2017-12-26T20:38:23Z</time>
      </trkpt>
      <trkpt lat="38.847530018538237" lon="-0.11357001028955">
        <ele>47.03125</ele>
        <time>2017-12-26T20:40:23Z</time>
      </trkpt>
      <trkpt lat="38.847909970209002" lon="-0.113279996439815">
        <ele>46.9375</ele>
        <time>2017-12-26T20:42:23Z</time>
      </trkpt>
      <trkpt lat="38.848390001803637" lon="-0.112889986485243">
        <ele>46.0234375</ele>
        <time>2017-12-26T20:44:23Z</time>
      </trkpt>
      <trkpt lat="38.848390001803637" lon="-0.112889986485243">
        <ele>46.0234375</ele>
        <time>2017-12-26T20:46:23Z</time>
      </trkpt>
      <trkpt lat="38.848569961264729" lon="-0.113170025870204">
        <ele>44.44921875</ele>
        <time>2017-12-26T20:48:23Z</time>
      </trkpt>
      <trkpt lat="38.848810018971562" lon="-0.113530028611422">
        <ele>45.109375</ele>
        <time>2017-12-26T20:50:23Z</time>
      </trkpt>
      <trkpt lat="38.848810018971562" lon="-0.113530028611422">
        <ele>45.109375</ele>
        <time>2017-12-26T20:52:23Z</time>
      </trkpt>
      <trkpt lat="38.848819993436337" lon="-0.113519970327616">
        <ele>45.109375</ele>
        <time>2017-12-26T20:54:23Z</time>
      </trkpt>
      <trkpt lat="38.848829967901111" lon="-0.113519970327616">
        <ele>45.109375</ele>
        <time>2017-12-26T20:56:23Z</time>
      </trkpt>
      <trkpt lat="38.848840026184916" lon="-0.113509995862842">
        <ele>45.04296875</ele>
        <time>2017-12-26T20:58:23Z</time>
      </trkpt>
      <trkpt lat="38.848850000649691" lon="-0.113509995862842">
        <ele>44.9765625</ele>
        <time>2017-12-26T21:00:23Z</time>
      </trkpt>
      <trkpt lat="38.848859975114465" lon="-0.113500021398067">
        <ele>44.91015625</ele>
        <time>2017-12-26T21:02:23Z</time>
      </trkpt>
      <trkpt lat="38.848870033398271" lon="-0.113500021398067">
        <ele>44.84375</ele>
        <time>2017-12-26T21:04:23Z</time>
      </trkpt>
      <trkpt lat="38.848880007863045" lon="-0.113500021398067">
        <ele>44.77734375</ele>
        <time>2017-12-26T21:06:23Z</time>
      </trkpt>
      <trkpt lat="38.848889982327819" lon="-0.113500021398067">
        <ele>44.7109375</ele>
        <time>2017-12-26T21:08:23Z</time>
      </trkpt>
      <trkpt lat="38.848900040611625" lon="-0.113500021398067">
        <ele>44.64453125</ele>
        <time>2017-12-26T21:10:23Z</time>
      </trkpt>
      <trkpt lat="38.848910015076399" lon="-0.113500021398067">
        <ele>44.58203125</ele>
        <time>2017-12-26T21:12:23Z</time>
      </trkpt>
      <trkpt lat="38.848919989541173" lon="-0.113500021398067">
        <ele>44.515625</ele>
        <time>2017-12-26T21:14:23Z</time>
      </trkpt>
      <trkpt lat="38.848929964005947" lon="-0.113509995862842">
        <ele>44.44921875</ele>
        <time>2017-12-26T21:16:23Z</time>
      </trkpt>
      <trkpt lat="38.848940022289753" lon="-0.113509995862842">
        <ele>44.3828125</ele>
        <time>2017-12-26T21:18:23Z</time>
      </trkpt>
      <trkpt lat="38.848940022289753" lon="-0.113519970327616">
        <ele>44.3828125</ele>
        <time>2017-12-26T21:20:23Z</time>
      </trkpt>
      <trkpt lat="38.848949996754527" lon="-0.113519970327616">
        <ele>44.31640625</ele>
        <time>2017-12-26T21:22:23Z</time>
      </trkpt>
      <trkpt lat="38.848959971219301" lon="-0.113530028611422">
        <ele>44.25</ele>
        <time>2017-12-26T21:24:23Z</time>
      </trkpt>
      <trkpt lat="38.848970029503107" lon="-0.113540003076196">
        <ele>44.18359375</ele>
        <time>2017-12-26T21:26:23Z</time>
      </trkpt>
      <trkpt lat="38.848980003967881" lon="-0.11354997754097">
        <ele>44.109375</ele>
        <time>2017-12-26T21:28:23Z</time>
      </trkpt>
      <trkpt lat="38.848980003967881" lon="-0.113560035824776">
        <ele>44.09765625</ele>
        <time>2017-12-26T21:30:23Z</time>
      </trkpt>
      <trkpt lat="38.849130040034652" lon="-0.113449981436133">
        <ele>43.7421875</ele>
        <time>2017-12-26T21:32:23Z</time>
      </trkpt>
      <trkpt lat="38.849440002813935" lon="-0.113210007548332">
        <ele>41.94921875</ele>
        <time>2017-12-26T21:34:23Z</time>
      </trkpt>
      <trkpt lat="38.850169982761145" lon="-0.112659987062216">
        <ele>38.41796875</ele>
        <time>2017-12-26T21:36:23Z</time>
      </trkpt>
      <trkpt lat="38.850539959967136" lon="-0.112390005961061">
        <ele>37.109375</ele>
        <time>2017-12-26T21:38:23Z</time>
      </trkpt>
      <trkpt lat="38.850750010460615" lon="-0.112220020964742">
        <ele>36.55078125</ele>
        <time>2017-12-26T21:40:23Z</time>
      </trkpt>
      <trkpt lat="38.851540004834533" lon="-0.111600011587143">
        <ele>34.046875</ele>
        <time>2017-12-26T21:42:23Z</time>
      </trkpt>
      <trkpt lat="38.852859986945987" lon="-0.110550010576844">
        <ele>29.33984375</ele>
        <time>2017-12-26T21:44:23Z</time>
      </trkpt>
      <trkpt lat="38.854160020127892" lon="-0.1095300167799">
        <ele>27.125</ele>
        <time>2017-12-26T21:46:23Z</time>
      </trkpt>
      <trkpt lat="38.854599986225367" lon="-0.109179988503456">
        <ele>26.83203125</ele>
        <time>2017-12-26T21:48:23Z</time>
      </trkpt>
      <trkpt lat="38.854899974539876" lon="-0.108930040150881">
        <ele>26.16796875</ele>
        <time>2017-12-26T21:50:23Z</time>
      </trkpt>
      <trkpt lat="38.855050010606647" lon="-0.108819985762239">
        <ele>26.1953125</ele>
        <time>2017-12-26T21:52:23Z</time>
      </trkpt>
      <trkpt lat="38.855210021138191" lon="-0.108700040727854">
        <ele>25.90234375</ele>
        <time>2017-12-26T21:54:23Z</time>
      </trkpt>
      <trkpt lat="38.855310017243028" lon="-0.108610019087791">
        <ele>25.90625</ele>
        <time>2017-12-26T21:56:23Z</time>
      </trkpt>
      <trkpt lat="38.855649987235665" lon="-0.10835001245141">
        <ele>25.4453125</ele>
        <time>2017-12-26T21:58:23Z</time>
      </trkpt>
      <trkpt lat="38.85626002214849" lon="-0.107869980856776">
        <ele>24.9921875</ele>
        <time>2017-12-26T22:00:23Z</time>
      </trkpt>
      <trkpt lat="38.856479963287711" lon="-0.107709970325232">
        <ele>24.9921875</ele>
        <time>2017-12-26T22:02:23Z</time>
      </trkpt>
      <trkpt lat="38.857470033690333" lon="-0.106940008699894">
        <ele>24.078125</ele>
        <time>2017-12-26T22:04:23Z</time>
      </trkpt>
      <trkpt lat="38.857510015368462" lon="-0.106900027021766">
        <ele>24.078125</ele>
        <time>2017-12-26T22:06:23Z</time>
      </trkpt>
      <trkpt lat="38.858669986948371" lon="-0.105990003794432">
        <ele>22.859375</ele>
        <time>2017-12-26T22:08:23Z</time>
      </trkpt>
      <trkpt lat="38.85888003744185" lon="-0.105839967727661">
        <ele>22.32421875</ele>
        <time>2017-12-26T22:10:23Z</time>
      </trkpt>
      <trkpt lat="38.858960000798106" lon="-0.105760004371405">
        <ele>21.9453125</ele>
        <time>2017-12-26T22:12:23Z</time>
      </trkpt>
      <trkpt lat="38.859900031238794" lon="-0.105019966140389">
        <ele>21.03125</ele>
        <time>2017-12-26T22:14:23Z</time>
      </trkpt>
      <trkpt lat="38.860549964010715" lon="-0.104489978402853">
        <ele>20.4921875</ele>
        <time>2017-12-26T22:16:23Z</time>
      </trkpt>
      <trkpt lat="38.86073000729084" lon="-0.104350000619888">
        <ele>19.9140625</ele>
        <time>2017-12-26T22:18:23Z</time>
      </trkpt>
      <trkpt lat="38.861810015514493" lon="-0.103499991819263">
        <ele>18.58203125</ele>
        <time>2017-12-26T22:20:23Z</time>
      </trkpt>
      <trkpt lat="38.861889978870749" lon="-0.10345003567636">
        <ele>18.3125</ele>
        <time>2017-12-26T22:22:23Z</time>
      </trkpt>
      <trkpt lat="38.862170018255711" lon="-0.103230010718107">
        <ele>17.984375</ele>
        <time>2017-12-26T22:24:23Z</time>
      </trkpt>
      <trkpt lat="38.862349977716804" lon="-0.103090032935143">
        <ele>17.09765625</ele>
        <time>2017-12-26T22:26:23Z</time>
      </trkpt>
      <trkpt lat="38.862400017678738" lon="-0.103060025721788">
        <ele>17.0703125</ele>
        <time>2017-12-26T22:28:23Z</time>
      </trkpt>
      <trkpt lat="38.862800002098083" lon="-0.102749979123473">
        <ele>17.0703125</ele>
        <time>2017-12-26T22:30:23Z</time>
      </trkpt>
      <trkpt lat="38.863169979304075" lon="-0.102430041879416">
        <ele>16.421875</ele>
        <time>2017-12-26T22:32:23Z</time>
      </trkpt>
      <trkpt lat="38.863610029220581" lon="-0.102089988067746">
        <ele>15.83984375</ele>
        <time>2017-12-26T22:34:23Z</time>
      </trkpt>
      <trkpt lat="38.86375998146832" lon="-0.10198999196291">
        <ele>16.18359375</ele>
        <time>2017-12-26T22:36:23Z</time>
      </trkpt>
      <trkpt lat="38.863870035856962" lon="-0.101910028606653">
        <ele>15.890625</ele>
        <time>2017-12-26T22:38:23Z</time>
      </trkpt>
      <trkpt lat="38.864489961415529" lon="-0.101429997012019">
        <ele>16.3203125</ele>
        <time>2017-12-26T22:40:23Z</time>
      </trkpt>
      <trkpt lat="38.864709986373782" lon="-0.101269986480474">
        <ele>16.28515625</ele>
        <time>2017-12-26T22:42:23Z</time>
      </trkpt>
      <trkpt lat="38.864800008013844" lon="-0.101209972053766">
        <ele>16.1796875</ele>
        <time>2017-12-26T22:44:23Z</time>
      </trkpt>
      <trkpt lat="38.864879971370101" lon="-0.101199997588992">
        <ele>16.015625</ele>
        <time>2017-12-26T22:46:23Z</time>
      </trkpt>
      <trkpt lat="38.864960018545389" lon="-0.101169990375638">
        <ele>15.8203125</ele>
        <time>2017-12-26T22:48:23Z</time>
      </trkpt>
      <trkpt lat="38.865079963579774" lon="-0.10115004144609">
        <ele>16.0234375</ele>
        <time>2017-12-26T22:50:23Z</time>
      </trkpt>
      <trkpt lat="38.865160010755062" lon="-0.10113000869751">
        <ele>16.3828125</ele>
        <time>2017-12-26T22:52:23Z</time>
      </trkpt>
      <trkpt lat="38.865209966897964" lon="-0.101120034232736">
        <ele>16.625</ele>
        <time>2017-12-26T22:54:23Z</time>
      </trkpt>
      <trkpt lat="38.865399984642863" lon="-0.10110997594893">
        <ele>15.90625</ele>
        <time>2017-12-26T22:56:23Z</time>
      </trkpt>
      <trkpt lat="38.865510039031506" lon="-0.101100001484156">
        <ele>15.32421875</ele>
        <time>2017-12-26T22:58:23Z</time>
      </trkpt>
      <trkpt lat="38.865639958530664" lon="-0.101090027019382">
        <ele>16.0859375</ele>
        <time>2017-12-26T23:00:23Z</time>
      </trkpt>
      <trkpt lat="38.865820001810789" lon="-0.101079968735576">
        <ele>17.796875</ele>
        <time>2017-12-26T23:02:23Z</time>
      </trkpt>
      <trkpt lat="38.866040026769042" lon="-0.101060019806027">
        <ele>17.88671875</ele>
        <time>2017-12-26T23:04:23Z</time>
      </trkpt>
      <trkpt lat="38.8663599640131" lon="-0.101039987057447">
        <ele>17.43359375</ele>
        <time>2017-12-26T23:06:23Z</time>
      </trkpt>
      <trkpt lat="38.866600021719933" lon="-0.101039987057447">
        <ele>16.99609375</ele>
        <time>2017-12-26T23:08:23Z</time>
      </trkpt>
      <trkpt lat="38.867069995030761" lon="-0.101000005379319">
        <ele>17.0703125</ele>
        <time>2017-12-26T23:10:23Z</time>
      </trkpt>
      <trkpt lat="38.867469979450107" lon="-0.100960023701191">
        <ele>16.5078125</ele>
        <time>2017-12-26T23:12:23Z</time>
      </trkpt>
      <trkpt lat="38.867620015516877" lon="-0.100930016487837">
        <ele>15.7421875</ele>
        <time>2017-12-26T23:14:23Z</time>
      </trkpt>
      <trkpt lat="38.867720011621714" lon="-0.100919958204031">
        <ele>15.3515625</ele>
        <time>2017-12-26T23:16:23Z</time>
      </trkpt>
      <trkpt lat="38.86782000772655" lon="-0.100900009274483">
        <ele>14.93359375</ele>
        <time>2017-12-26T23:18:23Z</time>
      </trkpt>
      <trkpt lat="38.867969959974289" lon="-0.100870002061129">
        <ele>14.93359375</ele>
        <time>2017-12-26T23:20:23Z</time>
      </trkpt>
      <trkpt lat="38.868080014362931" lon="-0.100819962099195">
        <ele>14.31640625</ele>
        <time>2017-12-26T23:22:23Z</time>
      </trkpt>
      <trkpt lat="38.868150003254414" lon="-0.100779980421066">
        <ele>14.0859375</ele>
        <time>2017-12-26T23:24:23Z</time>
      </trkpt>
      <trkpt lat="38.868340020999312" lon="-0.100660035386682">
        <ele>13.51953125</ele>
        <time>2017-12-26T23:26:23Z</time>
      </trkpt>
      <trkpt lat="38.868649983778596" lon="-0.100419977679849">
        <ele>13.140625</ele>
        <time>2017-12-26T23:28:23Z</time>
      </trkpt>
      <trkpt lat="38.86910998262465" lon="-0.100050000473857">
        <ele>12.07421875</ele>
        <time>2017-12-26T23:30:23Z</time>
      </trkpt>
      <trkpt lat="38.869320033118129" lon="-0.099899964407086">
        <ele>11.3203125</ele>
        <time>2017-12-26T23:32:23Z</time>
      </trkpt>
      <trkpt lat="38.869859995320439" lon="-0.099480031058192">
        <ele>10.05859375</ele>
        <time>2017-12-26T23:34:23Z</time>
      </trkpt>
      <trkpt lat="38.870099969208241" lon="-0.099309962242842">
        <ele>9.2578125</ele>
        <time>2017-12-26T23:36:23Z</time>
      </trkpt>
      <trkpt lat="38.870359975844622" lon="-0.099120028316975">
        <ele>8.97265625</ele>
        <time>2017-12-26T23:38:23Z</time>
      </trkpt>
      <trkpt lat="38.870519986376166" lon="-0.098999999463558">
        <ele>8.5625</ele>
        <time>2017-12-26T23:40:23Z</time>
      </trkpt>
      <trkpt lat="38.870840007439256" lon="-0.098770000040531">
        <ele>7.8984375</ele>
        <time>2017-12-26T23:42:23Z</time>
      </trkpt>
      <trkpt lat="38.871049974113703" lon="-0.098609989508986">
        <ele>7.546875</ele>
        <time>2017-12-26T23:44:23Z</time>
      </trkpt>
      <trkpt lat="38.871369995176792" lon="-0.098370015621185">
        <ele>7.0234375</ele>
        <time>2017-12-26T23:46:23Z</time>
      </trkpt>
      <trkpt lat="38.871639976277947" lon="-0.098170023411512">
        <ele>6.94140625</ele>
        <time>2017-12-26T23:48:23Z</time>
      </trkpt>
      <trkpt lat="38.871999979019165" lon="-0.097899958491325">
        <ele>6.390625</ele>
        <time>2017-12-26T23:50:23Z</time>
      </trkpt>
      <trkpt lat="38.872250011190772" lon="-0.097710024565458">
        <ele>6.34765625</ele>
        <time>2017-12-26T23:52:23Z</time>
      </trkpt>
      <trkpt lat="38.872529966756701" lon="-0.097489999607205">
        <ele>5.0390625</ele>
        <time>2017-12-26T23:54:23Z</time>
      </trkpt>
      <trkpt lat="38.872570032253861" lon="-0.097459992393851">
        <ele>4.9375</ele>
        <time>2017-12-26T23:56:23Z</time>
      </trkpt>
      <trkpt lat="38.872879995033145" lon="-0.097229992970824">
        <ele>4.875</ele>
        <time>2017-12-26T23:58:23Z</time>
      </trkpt>
      <trkpt lat="38.873179983347654" lon="-0.097009968012571">
        <ele>3.98828125</ele>
        <time>2017-12-27T00:00:23Z</time>
      </trkpt>
      <trkpt lat="38.873460022732615" lon="-0.096820034086704">
        <ele>4.015625</ele>
        <time>2017-12-27T00:02:23Z</time>
      </trkpt>
      <trkpt lat="38.87346999719739" lon="-0.096820034086704">
        <ele>3.9921875</ele>
        <time>2017-12-27T00:04:23Z</time>
      </trkpt>
      <trkpt lat="38.873750036582351" lon="-0.09663999080658">
        <ele>3.4453125</ele>
        <time>2017-12-27T00:06:23Z</time>
      </trkpt>
      <trkpt lat="38.874020017683506" lon="-0.096519961953163">
        <ele>3.40625</ele>
        <time>2017-12-27T00:08:23Z</time>
      </trkpt>
      <trkpt lat="38.874159995466471" lon="-0.096460031345487">
        <ele>3.3515625</ele>
        <time>2017-12-27T00:10:23Z</time>
      </trkpt>
      <trkpt lat="38.874399969354272" lon="-0.096389958634973">
        <ele>3.2421875</ele>
        <time>2017-12-27T00:12:23Z</time>
      </trkpt>
      <trkpt lat="38.874589987099171" lon="-0.09634000249207">
        <ele>3.078125</ele>
        <time>2017-12-27T00:14:23Z</time>
      </trkpt>
      <trkpt lat="38.874650001525879" lon="-0.096330028027296">
        <ele>3.046875</ele>
        <time>2017-12-27T00:16:23Z</time>
      </trkpt>
      <trkpt lat="38.874689983204007" lon="-0.09631996974349">
        <ele>3.02734375</ele>
        <time>2017-12-27T00:18:23Z</time>
      </trkpt>
      <trkpt lat="38.874919982627034" lon="-0.096279988065362">
        <ele>3.1796875</ele>
        <time>2017-12-27T00:20:23Z</time>
      </trkpt>
      <trkpt lat="38.875209996476769" lon="-0.096249980852008">
        <ele>3.17578125</ele>
        <time>2017-12-27T00:22:23Z</time>
      </trkpt>
      <trkpt lat="38.875519959256053" lon="-0.09623003192246">
        <ele>3.9609375</ele>
        <time>2017-12-27T00:24:23Z</time>
      </trkpt>
      <trkpt lat="38.875690028071404" lon="-0.096240006387234">
        <ele>3.96875</ele>
        <time>2017-12-27T00:26:23Z</time>
      </trkpt>
      <trkpt lat="38.87579002417624" lon="-0.096249980852008">
        <ele>4</ele>
        <time>2017-12-27T00:28:23Z</time>
      </trkpt>
      <trkpt lat="38.875850038602948" lon="-0.096249980852008">
        <ele>4</ele>
        <time>2017-12-27T00:30:23Z</time>
      </trkpt>
      <trkpt lat="38.875920027494431" lon="-0.096260039135814">
        <ele>4.03515625</ele>
        <time>2017-12-27T00:32:23Z</time>
      </trkpt>
      <trkpt lat="38.875990016385913" lon="-0.096279988065362">
        <ele>4.1015625</ele>
        <time>2017-12-27T00:34:23Z</time>
      </trkpt>
      <trkpt lat="38.876139968633652" lon="-0.096309995278716">
        <ele>4.19921875</ele>
        <time>2017-12-27T00:36:23Z</time>
      </trkpt>
      <trkpt lat="38.876299979165196" lon="-0.09634000249207">
        <ele>4.46484375</ele>
        <time>2017-12-27T00:38:23Z</time>
      </trkpt>
      <trkpt lat="38.876450015231967" lon="-0.096389958634973">
        <ele>5.41796875</ele>
        <time>2017-12-27T00:40:23Z</time>
      </trkpt>
      <trkpt lat="38.876540036872029" lon="-0.096419965848327">
        <ele>5.19140625</ele>
        <time>2017-12-27T00:42:23Z</time>
      </trkpt>
      <trkpt lat="38.876610025763512" lon="-0.096439998596907">
        <ele>5.046875</ele>
        <time>2017-12-27T00:44:23Z</time>
      </trkpt>
      <trkpt lat="38.876810017973185" lon="-0.096519961953163">
        <ele>4.62109375</ele>
        <time>2017-12-27T00:46:23Z</time>
      </trkpt>
      <trkpt lat="38.877119980752468" lon="-0.09666002355516">
        <ele>3.96484375</ele>
        <time>2017-12-27T00:48:23Z</time>
      </trkpt>
      <trkpt lat="38.877449976280332" lon="-0.096820034086704">
        <ele>3.72265625</ele>
        <time>2017-12-27T00:50:23Z</time>
      </trkpt>
      <trkpt lat="38.877649968490005" lon="-0.096920030191541">
        <ele>3.7265625</ele>
        <time>2017-12-27T00:52:23Z</time>
      </trkpt>
      <trkpt lat="38.878450021147728" lon="-0.097299981862307">
        <ele>6.2578125</ele>
        <time>2017-12-27T00:54:23Z</time>
      </trkpt>
      <trkpt lat="38.878529984503984" lon="-0.097339963540435">
        <ele>6.640625</ele>
        <time>2017-12-27T00:56:23Z</time>
      </trkpt>
      <trkpt lat="38.878870038315654" lon="-0.09749997407198">
        <ele>9.0703125</ele>
        <time>2017-12-27T00:58:23Z</time>
      </trkpt>
      <trkpt lat="38.879890032112598" lon="-0.097989980131388">
        <ele>16.1171875</ele>
        <time>2017-12-27T01:00:23Z</time>
      </trkpt>
      <trkpt lat="38.879939988255501" lon="-0.098019987344742">
        <ele>16.7109375</ele>
        <time>2017-12-27T01:02:23Z</time>
      </trkpt>
      <trkpt lat="38.880049958825111" lon="-0.098070027306676">
        <ele>17.4375</ele>
        <time>2017-12-27T01:04:23Z</time>
      </trkpt>
      <trkpt lat="38.880460001528263" lon="-0.098259961232543">
        <ele>20.19921875</ele>
        <time>2017-12-27T01:06:23Z</time>
      </trkpt>
      <trkpt lat="38.880970040336251" lon="-0.098500018939376">
        <ele>21.16796875</ele>
        <time>2017-12-27T01:08:23Z</time>
      </trkpt>
      <trkpt lat="38.881600024178624" lon="-0.098800007253885">
        <ele>22.94140625</ele>
        <time>2017-12-27T01:10:23Z</time>
      </trkpt>
      <trkpt lat="38.881619973108172" lon="-0.098809981718659">
        <ele>23.07421875</ele>
        <time>2017-12-27T01:12:23Z</time>
      </trkpt>
      <trkpt lat="38.882079971954226" lon="-0.099009973928332">
        <ele>23.78125</ele>
        <time>2017-12-27T01:14:23Z</time>
      </trkpt>
      <trkpt lat="38.88288002461195" lon="-0.099329994991422">
        <ele>20.2421875</ele>
        <time>2017-12-27T01:16:23Z</time>
      </trkpt>
      <trkpt lat="38.883700026199222" lon="-0.099689997732639">
        <ele>20.1171875</ele>
        <time>2017-12-27T01:18:23Z</time>
      </trkpt>
      <trkpt lat="38.884160025045276" lon="-0.099880015477538">
        <ele>20.20703125</ele>
        <time>2017-12-27T01:20:23Z</time>
      </trkpt>
      <trkpt lat="38.884790008887649" lon="-0.100140022113919">
        <ele>20.5078125</ele>
        <time>2017-12-27T01:22:23Z</time>
      </trkpt>
      <trkpt lat="38.885129978880286" lon="-0.10027002543211">
        <ele>20.29296875</ele>
        <time>2017-12-27T01:24:23Z</time>
      </trkpt>
      <trkpt lat="38.885319996625185" lon="-0.100330039858818">
        <ele>20.875</ele>
        <time>2017-12-27T01:26:23Z</time>
      </trkpt>
      <trkpt lat="38.885570028796792" lon="-0.100419977679849">
        <ele>20.09375</ele>
        <time>2017-12-27T01:28:23Z</time>
      </trkpt>
      <trkpt lat="38.885879991576076" lon="-0.100530032068491">
        <ele>19.5546875</ele>
        <time>2017-12-27T01:30:23Z</time>
      </trkpt>
      <trkpt lat="38.886270001530647" lon="-0.100670009851456">
        <ele>20.84765625</ele>
        <time>2017-12-27T01:32:23Z</time>
      </trkpt>
      <trkpt lat="38.886579964309931" lon="-0.100779980421066">
        <ele>20.765625</ele>
        <time>2017-12-27T01:34:23Z</time>
      </trkpt>
      <trkpt lat="38.886839970946312" lon="-0.100870002061129">
        <ele>20.67578125</ele>
        <time>2017-12-27T01:36:23Z</time>
      </trkpt>
      <trkpt lat="38.887550001963973" lon="-0.101120034232736">
        <ele>21.1640625</ele>
        <time>2017-12-27T01:38:23Z</time>
      </trkpt>
      <trkpt lat="38.888390036299825" lon="-0.101420022547245">
        <ele>21.18359375</ele>
        <time>2017-12-27T01:40:23Z</time>
      </trkpt>
      <trkpt lat="38.888890016824007" lon="-0.101599982008338">
        <ele>21.63671875</ele>
        <time>2017-12-27T01:42:23Z</time>
      </trkpt>
      <trkpt lat="38.889120016247034" lon="-0.101680029183626">
        <ele>21.7109375</ele>
        <time>2017-12-27T01:44:23Z</time>
      </trkpt>
      <trkpt lat="38.889190005138516" lon="-0.10171003639698">
        <ele>21.59375</ele>
        <time>2017-12-27T01:46:23Z</time>
      </trkpt>
      <trkpt lat="38.889329982921481" lon="-0.101750018075109">
        <ele>21.26171875</ele>
        <time>2017-12-27T01:48:23Z</time>
      </trkpt>
      <trkpt lat="38.890019981190562" lon="-0.101999966427684">
        <ele>21.03125</ele>
        <time>2017-12-27T01:50:23Z</time>
      </trkpt>
      <trkpt lat="38.890679972246289" lon="-0.102249998599291">
        <ele>21.03125</ele>
        <time>2017-12-27T01:52:23Z</time>
      </trkpt>
      <trkpt lat="38.892100034281611" lon="-0.102760037407279">
        <ele>21.03125</ele>
        <time>2017-12-27T01:54:23Z</time>
      </trkpt>
      <trkpt lat="38.892839988693595" lon="-0.103030018508434">
        <ele>20.921875</ele>
        <time>2017-12-27T01:56:23Z</time>
      </trkpt>
      <trkpt lat="38.893699971958995" lon="-0.103330006822944">
        <ele>20.1171875</ele>
        <time>2017-12-27T01:58:23Z</time>
      </trkpt>
      <trkpt lat="38.894389970228076" lon="-0.103590013459325">
        <ele>20.37890625</ele>
        <time>2017-12-27T02:00:23Z</time>
      </trkpt>
      <trkpt lat="38.895869962871075" lon="-0.104129975661635">
        <ele>19.96484375</ele>
        <time>2017-12-27T02:02:23Z</time>
      </trkpt>
      <trkpt lat="38.895950010046363" lon="-0.104150008410215">
        <ele>19.37890625</ele>
        <time>2017-12-27T02:04:23Z</time>
      </trkpt>
      <trkpt lat="38.896070038899779" lon="-0.104189990088344">
        <ele>18.8984375</ele>
        <time>2017-12-27T02:06:23Z</time>
      </trkpt>
      <trkpt lat="38.896540012210608" lon="-0.104350000619888">
        <ele>18.8984375</ele>
        <time>2017-12-27T02:08:23Z</time>
      </trkpt>
      <trkpt lat="38.89719002880156" lon="-0.104589974507689">
        <ele>18.8984375</ele>
        <time>2017-12-27T02:10:23Z</time>
      </trkpt>
      <trkpt lat="38.897339981049299" lon="-0.104640014469624">
        <ele>18.8984375</ele>
        <time>2017-12-27T02:12:23Z</time>
      </trkpt>
      <trkpt lat="38.897409969940782" lon="-0.104670021682978">
        <ele>18.8984375</ele>
        <time>2017-12-27T02:14:23Z</time>
      </trkpt>
      <trkpt lat="38.897850019857287" lon="-0.104840006679296">
        <ele>18.8984375</ele>
        <time>2017-12-27T02:16:23Z</time>
      </trkpt>
      <trkpt lat="38.897999972105026" lon="-0.104889962822199">
        <ele>18.37109375</ele>
        <time>2017-12-27T02:18:23Z</time>
      </trkpt>
      <trkpt lat="38.898359974846244" lon="-0.105030024424195">
        <ele>18.20703125</ele>
        <time>2017-12-27T02:20:23Z</time>
      </trkpt>
      <trkpt lat="38.898919969797134" lon="-0.105230016633868">
        <ele>17.0703125</ele>
        <time>2017-12-27T02:22:23Z</time>
      </trkpt>
      <trkpt lat="38.900010036304593" lon="-0.105650033801794">
        <ele>20.20703125</ele>
        <time>2017-12-27T02:24:23Z</time>
      </trkpt>
      <trkpt lat="38.90049995854497" lon="-0.105839967727661">
        <ele>21.98046875</ele>
        <time>2017-12-27T02:26:23Z</time>
      </trkpt>
      <trkpt lat="38.900680001825094" lon="-0.105910040438175">
        <ele>19.99609375</ele>
        <time>2017-12-27T02:28:23Z</time>
      </trkpt>
      <trkpt lat="38.900719983503222" lon="-0.105920014902949">
        <ele>20.5</ele>
        <time>2017-12-27T02:30:23Z</time>
      </trkpt>
      <trkpt lat="38.900759965181351" lon="-0.105929989367723">
        <ele>21.23046875</ele>
        <time>2017-12-27T02:32:23Z</time>
      </trkpt>
      <trkpt lat="38.900789972394705" lon="-0.105939963832498">
        <ele>21.9609375</ele>
        <time>2017-12-27T02:34:23Z</time>
      </trkpt>
      <trkpt lat="38.900830037891865" lon="-0.105950022116303">
        <ele>22.984375</ele>
        <time>2017-12-27T02:36:23Z</time>
      </trkpt>
      <trkpt lat="38.900879994034767" lon="-0.105980029329658">
        <ele>23.859375</ele>
        <time>2017-12-27T02:38:23Z</time>
      </trkpt>
      <trkpt lat="38.901089960709214" lon="-0.106059992685914">
        <ele>23.90625</ele>
        <time>2017-12-27T02:40:23Z</time>
      </trkpt>
      <trkpt lat="38.901379974558949" lon="-0.106169963255525">
        <ele>23.00390625</ele>
        <time>2017-12-27T02:42:23Z</time>
      </trkpt>
      <trkpt lat="38.901620032265782" lon="-0.106269959360361">
        <ele>21.13671875</ele>
        <time>2017-12-27T02:44:23Z</time>
      </trkpt>
      <trkpt lat="38.901820024475455" lon="-0.106359981000423">
        <ele>19.84765625</ele>
        <time>2017-12-27T02:46:23Z</time>
      </trkpt>
      <trkpt lat="38.901999983936548" lon="-0.106450002640486">
        <ele>19.16796875</ele>
        <time>2017-12-27T02:48:23Z</time>
      </trkpt>
      <trkpt lat="38.902139961719513" lon="-0.106519991531968">
        <ele>17.85546875</ele>
        <time>2017-12-27T02:50:23Z</time>
      </trkpt>
      <trkpt lat="38.902329979464412" lon="-0.106629962101579">
        <ele>17.0703125</ele>
        <time>2017-12-27T02:52:23Z</time>
      </trkpt>
      <trkpt lat="38.902459982782602" lon="-0.106710009276867">
        <ele>17.0703125</ele>
        <time>2017-12-27T02:54:23Z</time>
      </trkpt>
      <trkpt lat="38.9028400182724" lon="-0.10693003423512">
        <ele>17.0703125</ele>
        <time>2017-12-27T02:56:23Z</time>
      </trkpt>
      <trkpt lat="38.9032700099051" lon="-0.107200015336275">
        <ele>15.71484375</ele>
        <time>2017-12-27T02:58:23Z</time>
      </trkpt>
      <trkpt lat="38.903370006009936" lon="-0.107260029762983">
        <ele>16.55078125</ele>
        <time>2017-12-27T03:00:23Z</time>
      </trkpt>
      <trkpt lat="38.903509983792901" lon="-0.107349967584014">
        <ele>14.46484375</ele>
        <time>2017-12-27T03:02:23Z</time>
      </trkpt>
      <trkpt lat="38.903769990429282" lon="-0.107520036399364">
        <ele>15.8515625</ele>
        <time>2017-12-27T03:04:23Z</time>
      </trkpt>
      <trkpt lat="38.90380997210741" lon="-0.107549959793687">
        <ele>16.33984375</ele>
        <time>2017-12-27T03:06:23Z</time>
      </trkpt>
      <trkpt lat="38.904029997065663" lon="-0.107690021395683">
        <ele>16.7421875</ele>
        <time>2017-12-27T03:08:23Z</time>
      </trkpt>
      <trkpt lat="38.904199982061982" lon="-0.107799991965294">
        <ele>16.83203125</ele>
        <time>2017-12-27T03:10:23Z</time>
      </trkpt>
      <trkpt lat="38.905260041356087" lon="-0.108480015769601">
        <ele>14.83203125</ele>
        <time>2017-12-27T03:12:23Z</time>
      </trkpt>
      <trkpt lat="38.905519964173436" lon="-0.108640026301146">
        <ele>15.65234375</ele>
        <time>2017-12-27T03:14:23Z</time>
      </trkpt>
      <trkpt lat="38.905639993026853" lon="-0.108729964122176">
        <ele>15.54296875</ele>
        <time>2017-12-27T03:16:23Z</time>
      </trkpt>
      <trkpt lat="38.905749963596463" lon="-0.10880003683269">
        <ele>15.73828125</ele>
        <time>2017-12-27T03:18:23Z</time>
      </trkpt>
      <trkpt lat="38.90728997066617" lon="-0.109820030629635">
        <ele>13.1875</ele>
        <time>2017-12-27T03:20:23Z</time>
      </trkpt>
      <trkpt lat="38.910620016977191" lon="-0.111969988793135">
        <ele>12.5703125</ele>
        <time>2017-12-27T03:22:23Z</time>
      </trkpt>
      <trkpt lat="38.911519981920719" lon="-0.112550016492605">
        <ele>12.78515625</ele>
        <time>2017-12-27T03:24:23Z</time>
      </trkpt>
      <trkpt lat="38.911630036309361" lon="-0.112610030919313">
        <ele>12.62109375</ele>
        <time>2017-12-27T03:26:23Z</time>
      </trkpt>
      <trkpt lat="38.911630036309361" lon="-0.112610030919313">
        <ele>12.62109375</ele>
        <time>2017-12-27T03:28:23Z</time>
      </trkpt>
      <trkpt lat="38.912160024046898" lon="-0.112950000911951">
        <ele>11.34765625</ele>
        <time>2017-12-27T03:30:23Z</time>
      </trkpt>
      <trkpt lat="38.912269994616508" lon="-0.113019989803433">
        <ele>10.97265625</ele>
        <time>2017-12-27T03:32:23Z</time>
      </trkpt>
      <trkpt lat="38.912269994616508" lon="-0.113019989803433">
        <ele>10.97265625</ele>
        <time>2017-12-27T03:34:23Z</time>
      </trkpt>
      <trkpt lat="38.912330009043217" lon="-0.112910019233823">
        <ele>10.97265625</ele>
        <time>2017-12-27T03:36:23Z</time>
      </trkpt>
      <trkpt lat="38.912539975717664" lon="-0.112580023705959">
        <ele>10.97265625</ele>
        <time>2017-12-27T03:38:23Z</time>
      </trkpt>
      <trkpt lat="38.912669979035854" lon="-0.112369973212481">
        <ele>10.97265625</ele>
        <time>2017-12-27T03:40:23Z</time>
      </trkpt>
      <trkpt lat="38.912839964032173" lon="-0.112109966576099">
        <ele>10.85546875</ele>
        <time>2017-12-27T03:42:23Z</time>
      </trkpt>
      <trkpt lat="38.912920011207461" lon="-0.111950039863586">
        <ele>10.66796875</ele>
        <time>2017-12-27T03:44:23Z</time>
      </trkpt>
      <trkpt lat="38.912920011207461" lon="-0.111950039863586">
        <ele>10.66796875</ele>
        <time>2017-12-27T03:46:23Z</time>
      </trkpt>
      <trkpt lat="38.913370035588741" lon="-0.112399980425835">
        <ele>9.87109375</ele>
        <time>2017-12-27T03:48:23Z</time>
      </trkpt>
      <trkpt lat="38.913689972832799" lon="-0.112729975953698">
        <ele>9.14453125</ele>
        <time>2017-12-27T03:50:23Z</time>
      </trkpt>
      <trkpt lat="38.91394997946918" lon="-0.113029964268208">
        <ele>9.14453125</ele>
        <time>2017-12-27T03:52:23Z</time>
      </trkpt>
      <trkpt lat="38.91394997946918" lon="-0.113029964268208">
        <ele>9.14453125</ele>
        <time>2017-12-27T03:54:23Z</time>
      </trkpt>
      <trkpt lat="38.914030026644468" lon="-0.112940026447177">
        <ele>9.0546875</ele>
        <time>2017-12-27T03:56:23Z</time>
      </trkpt>
      <trkpt lat="38.914079982787371" lon="-0.112880012020469">
        <ele>8.7109375</ele>
        <time>2017-12-27T03:58:23Z</time>
      </trkpt>
      <trkpt lat="38.914279974997044" lon="-0.112650012597442">
        <ele>7.59375</ele>
        <time>2017-12-27T04:00:23Z</time>
      </trkpt>
      <trkpt lat="38.914729999378324" lon="-0.112120024859905">
        <ele>6.99609375</ele>
        <time>2017-12-27T04:02:23Z</time>
      </trkpt>
      <trkpt lat="38.914750032126904" lon="-0.112109966576099">
        <ele>6.95703125</ele>
        <time>2017-12-27T04:04:23Z</time>
      </trkpt>
      <trkpt lat="38.914739973843098" lon="-0.112099992111325">
        <ele>6.96484375</ele>
        <time>2017-12-27T04:06:23Z</time>
      </trkpt>
      <trkpt lat="38.914739973843098" lon="-0.112090017646551">
        <ele>6.95703125</ele>
        <time>2017-12-27T04:08:23Z</time>
      </trkpt>
      <trkpt lat="38.914739973843098" lon="-0.112079959362745">
        <ele>6.94921875</ele>
        <time>2017-12-27T04:10:23Z</time>
      </trkpt>
      <trkpt lat="38.914729999378324" lon="-0.112069984897971">
        <ele>6.96875</ele>
        <time>2017-12-27T04:12:23Z</time>
      </trkpt>
      <trkpt lat="38.914729999378324" lon="-0.112060010433197">
        <ele>6.96484375</ele>
        <time>2017-12-27T04:14:23Z</time>
      </trkpt>
      <trkpt lat="38.914729999378324" lon="-0.112050035968423">
        <ele>6.96484375</ele>
        <time>2017-12-27T04:16:23Z</time>
      </trkpt>
      <trkpt lat="38.914729999378324" lon="-0.112039977684617">
        <ele>6.96484375</ele>
        <time>2017-12-27T04:18:23Z</time>
      </trkpt>
      <trkpt lat="38.914729999378324" lon="-0.112030003219843">
        <ele>6.96484375</ele>
        <time>2017-12-27T04:20:23Z</time>
      </trkpt>
      <trkpt lat="38.914729999378324" lon="-0.112020028755069">
        <ele>6.96484375</ele>
        <time>2017-12-27T04:22:23Z</time>
      </trkpt>
      <trkpt lat="38.914729999378324" lon="-0.112009970471263">
        <ele>6.96484375</ele>
        <time>2017-12-27T04:24:23Z</time>
      </trkpt>
      <trkpt lat="38.914739973843098" lon="-0.111999996006489">
        <ele>6.9296875</ele>
        <time>2017-12-27T04:26:23Z</time>
      </trkpt>
      <trkpt lat="38.914739973843098" lon="-0.111990021541715">
        <ele>6.9296875</ele>
        <time>2017-12-27T04:28:23Z</time>
      </trkpt>
      <trkpt lat="38.914739973843098" lon="-0.111979963257909">
        <ele>6.9296875</ele>
        <time>2017-12-27T04:30:23Z</time>
      </trkpt>
      <trkpt lat="38.914750032126904" lon="-0.111969988793135">
        <ele>6.8984375</ele>
        <time>2017-12-27T04:32:23Z</time>
      </trkpt>
      <trkpt lat="38.914750032126904" lon="-0.111960014328361">
        <ele>6.859375</ele>
        <time>2017-12-27T04:34:23Z</time>
      </trkpt>
      <trkpt lat="38.914760006591678" lon="-0.111960014328361">
        <ele>6.8203125</ele>
        <time>2017-12-27T04:36:23Z</time>
      </trkpt>
      <trkpt lat="38.914760006591678" lon="-0.111950039863586">
        <ele>6.7734375</ele>
        <time>2017-12-27T04:38:23Z</time>
      </trkpt>
      <trkpt lat="38.914769981056452" lon="-0.111939981579781">
        <ele>6.6796875</ele>
        <time>2017-12-27T04:40:23Z</time>
      </trkpt>
      <trkpt lat="38.914780039340258" lon="-0.111939981579781">
        <ele>6.63671875</ele>
        <time>2017-12-27T04:42:23Z</time>
      </trkpt>
      <trkpt lat="38.914780039340258" lon="-0.111930007115006">
        <ele>6.58203125</ele>
        <time>2017-12-27T04:44:23Z</time>
      </trkpt>
      <trkpt lat="38.914790013805032" lon="-0.111930007115006">
        <ele>6.53515625</ele>
        <time>2017-12-27T04:46:23Z</time>
      </trkpt>
      <trkpt lat="38.914799988269806" lon="-0.111920032650232">
        <ele>6.42578125</ele>
        <time>2017-12-27T04:48:23Z</time>
      </trkpt>
      <trkpt lat="38.91480996273458" lon="-0.111920032650232">
        <ele>6.37890625</ele>
        <time>2017-12-27T04:50:23Z</time>
      </trkpt>
      <trkpt lat="38.914820021018386" lon="-0.111920032650232">
        <ele>6.34765625</ele>
        <time>2017-12-27T04:52:23Z</time>
      </trkpt>
      <trkpt lat="38.91482999548316" lon="-0.111920032650232">
        <ele>6.31640625</ele>
        <time>2017-12-27T04:54:23Z</time>
      </trkpt>
      <trkpt lat="38.914839969947934" lon="-0.111920032650232">
        <ele>6.28515625</ele>
        <time>2017-12-27T04:56:23Z</time>
      </trkpt>
      <trkpt lat="38.91485002823174" lon="-0.111920032650232">
        <ele>6.25390625</ele>
        <time>2017-12-27T04:58:23Z</time>
      </trkpt>
      <trkpt lat="38.914860002696514" lon="-0.111930007115006">
        <ele>6.25390625</ele>
        <time>2017-12-27T05:00:23Z</time>
      </trkpt>
      <trkpt lat="38.914869977161288" lon="-0.111930007115006">
        <ele>6.21484375</ele>
        <time>2017-12-27T05:02:23Z</time>
      </trkpt>
      <trkpt lat="38.914880035445094" lon="-0.111939981579781">
        <ele>6.19140625</ele>
        <time>2017-12-27T05:04:23Z</time>
      </trkpt>
      <trkpt lat="38.914890009909868" lon="-0.111939981579781">
        <ele>6.14453125</ele>
        <time>2017-12-27T05:06:23Z</time>
      </trkpt>
      <trkpt lat="38.914890009909868" lon="-0.111950039863586">
        <ele>6.15234375</ele>
        <time>2017-12-27T05:08:23Z</time>
      </trkpt>
      <trkpt lat="38.914890009909868" lon="-0.111960014328361">
        <ele>6.16015625</ele>
        <time>2017-12-27T05:10:23Z</time>
      </trkpt>
      <trkpt lat="38.914899984374642" lon="-0.111960014328361">
        <ele>6.1015625</ele>
        <time>2017-12-27T05:12:23Z</time>
      </trkpt>
      <trkpt lat="38.91614000312984" lon="-0.110640032216907">
        <ele>4.875</ele>
        <time>2017-12-27T05:14:23Z</time>
      </trkpt>
      <trkpt lat="38.916170010343194" lon="-0.110589992254972">
        <ele>4.875</ele>
        <time>2017-12-27T05:16:23Z</time>
      </trkpt>
      <trkpt lat="38.916179984807968" lon="-0.110569959506392">
        <ele>4.83984375</ele>
        <time>2017-12-27T05:18:23Z</time>
      </trkpt>
      <trkpt lat="38.916239999234676" lon="-0.11049997061491">
        <ele>4.734375</ele>
        <time>2017-12-27T05:20:23Z</time>
      </trkpt>
      <trkpt lat="38.916500005871058" lon="-0.110239963978529">
        <ele>4.81640625</ele>
        <time>2017-12-27T05:22:23Z</time>
      </trkpt>
      <trkpt lat="38.916530013084412" lon="-0.110220015048981">
        <ele>4.70703125</ele>
        <time>2017-12-27T05:24:23Z</time>
      </trkpt>
      <trkpt lat="38.916609976440668" lon="-0.110210040584207">
        <ele>4.42578125</ele>
        <time>2017-12-27T05:26:23Z</time>
      </trkpt>
      <trkpt lat="38.916609976440668" lon="-0.110180033370852">
        <ele>4.37890625</ele>
        <time>2017-12-27T05:28:23Z</time>
      </trkpt>
      <trkpt lat="38.916609976440668" lon="-0.110160000622272">
        <ele>4.34765625</ele>
        <time>2017-12-27T05:30:23Z</time>
      </trkpt>
      <trkpt lat="38.916609976440668" lon="-0.110139967873693">
        <ele>4.31640625</ele>
        <time>2017-12-27T05:32:23Z</time>
      </trkpt>
      <trkpt lat="38.916620034724474" lon="-0.110120018944144">
        <ele>4.21875</ele>
        <time>2017-12-27T05:34:23Z</time>
      </trkpt>
      <trkpt lat="38.916620034724474" lon="-0.110109960660338">
        <ele>4.2421875</ele>
        <time>2017-12-27T05:36:23Z</time>
      </trkpt>
      <trkpt lat="38.916630009189248" lon="-0.11009001173079">
        <ele>4.2421875</ele>
        <time>2017-12-27T05:38:23Z</time>
      </trkpt>
      <trkpt lat="38.916630009189248" lon="-0.11006997898221">
        <ele>4.30859375</ele>
        <time>2017-12-27T05:40:23Z</time>
      </trkpt>
      <trkpt lat="38.916639983654022" lon="-0.110060004517436">
        <ele>4.27734375</ele>
        <time>2017-12-27T05:42:23Z</time>
      </trkpt>
      <trkpt lat="38.916649958118796" lon="-0.110039971768856">
        <ele>4.27734375</ele>
        <time>2017-12-27T05:44:23Z</time>
      </trkpt>
      <trkpt lat="38.916660016402602" lon="-0.110029997304082">
        <ele>4.24609375</ele>
        <time>2017-12-27T05:46:23Z</time>
      </trkpt>
      <trkpt lat="38.916669990867376" lon="-0.110020022839308">
        <ele>4.24609375</ele>
        <time>2017-12-27T05:48:23Z</time>
      </trkpt>
      <trkpt lat="38.91667996533215" lon="-0.110009964555502">
        <ele>4.234375</ele>
        <time>2017-12-27T05:50:23Z</time>
      </trkpt>
      <trkpt lat="38.916690023615956" lon="-0.109999990090728">
        <ele>4.21875</ele>
        <time>2017-12-27T05:52:23Z</time>
      </trkpt>
      <trkpt lat="38.91669999808073" lon="-0.109990015625954">
        <ele>4.1953125</ele>
        <time>2017-12-27T05:54:23Z</time>
      </trkpt>
      <trkpt lat="38.91672003082931" lon="-0.10998004116118">
        <ele>4.11328125</ele>
        <time>2017-12-27T05:56:23Z</time>
      </trkpt>
      <trkpt lat="38.916730005294085" lon="-0.109969982877374">
        <ele>4.07421875</ele>
        <time>2017-12-27T05:58:23Z</time>
      </trkpt>
      <trkpt lat="38.916739979758859" lon="-0.109969982877374">
        <ele>4.01953125</ele>
        <time>2017-12-27T06:00:23Z</time>
      </trkpt>
      <trkpt lat="38.916760012507439" lon="-0.1099600084126">
        <ele>3.9609375</ele>
        <time>2017-12-27T06:02:23Z</time>
      </trkpt>
      <trkpt lat="38.916769986972213" lon="-0.1099600084126">
        <ele>3.9609375</ele>
        <time>2017-12-27T06:04:23Z</time>
      </trkpt>
      <trkpt lat="38.916790019720793" lon="-0.1099600084126">
        <ele>3.9609375</ele>
        <time>2017-12-27T06:06:23Z</time>
      </trkpt>
      <trkpt lat="38.916799994185567" lon="-0.1099600084126">
        <ele>3.9609375</ele>
        <time>2017-12-27T06:08:23Z</time>
      </trkpt>
      <trkpt lat="38.916809968650341" lon="-0.1099600084126">
        <ele>3.9609375</ele>
        <time>2017-12-27T06:10:23Z</time>
      </trkpt>
      <trkpt lat="38.916830001398921" lon="-0.1099600084126">
        <ele>3.9609375</ele>
        <time>2017-12-27T06:12:23Z</time>
      </trkpt>
      <trkpt lat="38.917340040206909" lon="-0.109400013461709">
        <ele>3.9609375</ele>
        <time>2017-12-27T06:14:23Z</time>
      </trkpt>
      <trkpt lat="38.917780006304383" lon="-0.108970021829009">
        <ele>3.9609375</ele>
        <time>2017-12-27T06:16:23Z</time>
      </trkpt>
      <trkpt lat="38.917780006304383" lon="-0.108970021829009">
        <ele>3.9609375</ele>
        <time>2017-12-27T06:18:23Z</time>
      </trkpt>
      <trkpt lat="38.918149983510375" lon="-0.108570037409663">
        <ele>3.2421875</ele>
        <time>2017-12-27T06:20:23Z</time>
      </trkpt>
      <trkpt lat="38.918170016258955" lon="-0.108559979125857">
        <ele>3.21875</ele>
        <time>2017-12-27T06:22:23Z</time>
      </trkpt>
      <trkpt lat="38.918179990723729" lon="-0.108559979125857">
        <ele>3.19140625</ele>
        <time>2017-12-27T06:24:23Z</time>
      </trkpt>
      <trkpt lat="38.918179990723729" lon="-0.108559979125857">
        <ele>3.19140625</ele>
        <time>2017-12-27T06:26:23Z</time>
      </trkpt>
      <trkpt lat="38.918189965188503" lon="-0.108559979125857">
        <ele>3.1640625</ele>
        <time>2017-12-27T06:28:23Z</time>
      </trkpt>
      <trkpt lat="38.918209997937083" lon="-0.108570037409663">
        <ele>3.09765625</ele>
        <time>2017-12-27T06:30:23Z</time>
      </trkpt>
      <trkpt lat="38.918230030685663" lon="-0.108580011874437">
        <ele>3.05078125</ele>
        <time>2017-12-27T06:32:23Z</time>
      </trkpt>
      <trkpt lat="38.918249979615211" lon="-0.108599960803986">
        <ele>3.046875</ele>
        <time>2017-12-27T06:34:23Z</time>
      </trkpt>
      <trkpt lat="38.919329987838864" lon="-0.110290003940463">
        <ele>4.04296875</ele>
        <time>2017-12-27T06:36:23Z</time>
      </trkpt>
      <trkpt lat="38.919399976730347" lon="-0.11041003279388">
        <ele>3.92578125</ele>
        <time>2017-12-27T06:38:23Z</time>
      </trkpt>
      <trkpt lat="38.91977003775537" lon="-0.11094999499619">
        <ele>3.046875</ele>
        <time>2017-12-27T06:40:23Z</time>
      </trkpt>
      <trkpt lat="38.919959971681237" lon="-0.111240008845925">
        <ele>3.046875</ele>
        <time>2017-12-27T06:42:23Z</time>
      </trkpt>
      <trkpt lat="38.920270018279552" lon="-0.111649967730045">
        <ele>3.05078125</ele>
        <time>2017-12-27T06:44:23Z</time>
      </trkpt>
      <trkpt lat="38.92106001265347" lon="-0.112870037555695">
        <ele>3.046875</ele>
        <time>2017-12-27T06:46:23Z</time>
      </trkpt>
      <trkpt lat="38.921120027080178" lon="-0.112980008125305">
        <ele>3.046875</ele>
        <time>2017-12-27T06:48:23Z</time>
      </trkpt>
      <trkpt lat="38.921120027080178" lon="-0.112980008125305">
        <ele>3.046875</ele>
        <time>2017-12-27T06:50:23Z</time>
      </trkpt>
      <trkpt lat="38.920800006017089" lon="-0.113649973645806">
        <ele>3.44921875</ele>
        <time>2017-12-27T06:52:23Z</time>
      </trkpt>
      <trkpt lat="38.920800006017089" lon="-0.113649973645806">
        <ele>3.44921875</ele>
        <time>2017-12-27T06:54:23Z</time>
      </trkpt>
      <trkpt lat="38.920809980481863" lon="-0.113649973645806">
        <ele>3.38671875</ele>
        <time>2017-12-27T06:56:23Z</time>
      </trkpt>
      <trkpt lat="38.920809980481863" lon="-0.113660031929612">
        <ele>3.3515625</ele>
        <time>2017-12-27T06:58:23Z</time>
      </trkpt>
      <trkpt lat="38.920820038765669" lon="-0.113670006394386">
        <ele>3.25390625</ele>
        <time>2017-12-27T07:00:23Z</time>
      </trkpt>
      <trkpt lat="38.920820038765669" lon="-0.11367998085916">
        <ele>3.21875</ele>
        <time>2017-12-27T07:02:23Z</time>
      </trkpt>
      <trkpt lat="38.920830013230443" lon="-0.113690039142966">
        <ele>3.16015625</ele>
        <time>2017-12-27T07:04:23Z</time>
      </trkpt>
      <trkpt lat="38.920830013230443" lon="-0.11370001360774">
        <ele>3.12890625</ele>
        <time>2017-12-27T07:06:23Z</time>
      </trkpt>
      <trkpt lat="38.920830013230443" lon="-0.113709988072515">
        <ele>3.09765625</ele>
        <time>2017-12-27T07:08:23Z</time>
      </trkpt>
      <trkpt lat="38.920830013230443" lon="-0.113719962537289">
        <ele>3.06640625</ele>
        <time>2017-12-27T07:10:23Z</time>
      </trkpt>
      <trkpt lat="38.920830013230443" lon="-0.113730020821095">
        <ele>3.046875</ele>
        <time>2017-12-27T07:12:23Z</time>
      </trkpt>
      <trkpt lat="38.920839987695217" lon="-0.113730020821095">
        <ele>3.046875</ele>
        <time>2017-12-27T07:14:23Z</time>
      </trkpt>
      <trkpt lat="38.920839987695217" lon="-0.113739995285869">
        <ele>3.046875</ele>
        <time>2017-12-27T07:16:23Z</time>
      </trkpt>
      <trkpt lat="38.920839987695217" lon="-0.113749969750643">
        <ele>3.046875</ele>
        <time>2017-12-27T07:18:23Z</time>
      </trkpt>
      <trkpt lat="38.920839987695217" lon="-0.113760028034449">
        <ele>3.046875</ele>
        <time>2017-12-27T07:20:23Z</time>
      </trkpt>
      <trkpt lat="38.920830013230443" lon="-0.113760028034449">
        <ele>3.046875</ele>
        <time>2017-12-27T07:22:23Z</time>
      </trkpt>
      <trkpt lat="38.920830013230443" lon="-0.113770002499223">
        <ele>3.046875</ele>
        <time>2017-12-27T07:24:23Z</time>
      </trkpt>
      <trkpt lat="38.920830013230443" lon="-0.113779976963997">
        <ele>3.046875</ele>
        <time>2017-12-27T07:26:23Z</time>
      </trkpt>
      <trkpt lat="38.920830013230443" lon="-0.113790035247803">
        <ele>3.046875</ele>
        <time>2017-12-27T07:28:23Z</time>
      </trkpt>
      <trkpt lat="38.920830013230443" lon="-0.113800009712577">
        <ele>3.046875</ele>
        <time>2017-12-27T07:30:23Z</time>
      </trkpt>
      <trkpt lat="38.920820038765669" lon="-0.113809984177351">
        <ele>3.06640625</ele>
        <time>2017-12-27T07:32:23Z</time>
      </trkpt>
      <trkpt lat="38.920820038765669" lon="-0.113819958642125">
        <ele>3.06640625</ele>
        <time>2017-12-27T07:34:23Z</time>
      </trkpt>
      <trkpt lat="38.920820038765669" lon="-0.113830016925931">
        <ele>3.1328125</ele>
        <time>2017-12-27T07:36:23Z</time>
      </trkpt>
      <trkpt lat="38.920809980481863" lon="-0.113830016925931">
        <ele>3.1953125</ele>
        <time>2017-12-27T07:38:23Z</time>
      </trkpt>
      <trkpt lat="38.920809980481863" lon="-0.113839991390705">
        <ele>3.2578125</ele>
        <time>2017-12-27T07:40:23Z</time>
      </trkpt>
      <trkpt lat="38.920809980481863" lon="-0.113849965855479">
        <ele>3.31640625</ele>
        <time>2017-12-27T07:42:23Z</time>
      </trkpt>
      <trkpt lat="38.920800006017089" lon="-0.113849965855479">
        <ele>3.375</ele>
        <time>2017-12-27T07:44:23Z</time>
      </trkpt>
      <trkpt lat="38.920800006017089" lon="-0.113860024139285">
        <ele>3.4296875</ele>
        <time>2017-12-27T07:46:23Z</time>
      </trkpt>
      <trkpt lat="38.920790031552315" lon="-0.113869998604059">
        <ele>3.53515625</ele>
        <time>2017-12-27T07:48:23Z</time>
      </trkpt>
    </trkseg>
  </trk>
</gpx>

